<?xml version='1.0' encoding='UTF-8'?><gpx version="1.1" creator="JPX - https://github.com/jenetics/jpx" xmlns="http://www.topografix.com/GPX/1/1"><trk><trkseg><trkpt lat="43.8168586" lon="12.8482368"><ele>169.5</ele><time>2026-03-29T07:46:59.96Z</time></trkpt><trkpt lat="43.8167783" lon="12.8482333"><ele>172.0</ele><time>2026-03-29T07:50:11.96Z</time></trkpt><trkpt lat="43.81669" lon="12.8483233"><ele>174.5</ele><time>2026-03-29T07:50:13.959Z</time></trkpt><trkpt lat="43.8165567" lon="12.8485117"><ele>177.0</ele><time>2026-03-29T07:50:15.96Z</time></trkpt><trkpt lat="43.8164883" lon="12.848615"><ele>177.0</ele><time>2026-03-29T07:50:16.96Z</time></trkpt><trkpt lat="43.8163933" lon="12.8486833"><ele>177.0</ele><time>2026-03-29T07:50:17.96Z</time></trkpt><trkpt lat="43.8162883" lon="12.848745"><ele>177.0</ele><time>2026-03-29T07:50:18.959Z</time></trkpt><trkpt lat="43.816165" lon="12.8487783"><ele>177.0</ele><time>2026-03-29T07:50:19.959Z</time></trkpt><trkpt lat="43.8160367" lon="12.8488017"><ele>178.5</ele><time>2026-03-29T07:50:20.96Z</time></trkpt><trkpt lat="43.8159" lon="12.84881"><ele>180.0</ele><time>2026-03-29T07:50:21.96Z</time></trkpt><trkpt lat="43.8157533" lon="12.8488333"><ele>181.5</ele><time>2026-03-29T07:50:22.96Z</time></trkpt><trkpt lat="43.8156117" lon="12.8488583"><ele>183.0</ele><time>2026-03-29T07:50:23.959Z</time></trkpt><trkpt lat="43.8154783" lon="12.8488633"><ele>183.0</ele><time>2026-03-29T07:50:24.96Z</time></trkpt><trkpt lat="43.8153667" lon="12.8488917"><ele>183.0</ele><time>2026-03-29T07:50:25.959Z</time></trkpt><trkpt lat="43.8152517" lon="12.8489233"><ele>183.0</ele><time>2026-03-29T07:50:26.959Z</time></trkpt><trkpt lat="43.8151267" lon="12.8489833"><ele>183.0</ele><time>2026-03-29T07:50:27.96Z</time></trkpt><trkpt lat="43.8149983" lon="12.84904"><ele>184.25</ele><time>2026-03-29T07:50:28.959Z</time></trkpt><trkpt lat="43.81487" lon="12.849085"><ele>185.5</ele><time>2026-03-29T07:50:29.96Z</time></trkpt><trkpt lat="43.8147583" lon="12.8491067"><ele>186.75</ele><time>2026-03-29T07:50:30.96Z</time></trkpt><trkpt lat="43.8146467" lon="12.84908"><ele>188.0</ele><time>2026-03-29T07:50:31.96Z</time></trkpt><trkpt lat="43.8145483" lon="12.8490267"><ele>188.0</ele><time>2026-03-29T07:50:32.96Z</time></trkpt><trkpt lat="43.8144533" lon="12.8489767"><ele>188.0</ele><time>2026-03-29T07:50:33.959Z</time></trkpt><trkpt lat="43.8143533" lon="12.848895"><ele>188.0</ele><time>2026-03-29T07:50:34.96Z</time></trkpt><trkpt lat="43.8141867" lon="12.8486917"><ele>188.0</ele><time>2026-03-29T07:50:36.96Z</time></trkpt><trkpt lat="43.8141017" lon="12.84863"><ele>188.4</ele><time>2026-03-29T07:50:37.959Z</time></trkpt><trkpt lat="43.814015" lon="12.8485917"><ele>188.8</ele><time>2026-03-29T07:50:38.96Z</time></trkpt><trkpt lat="43.8139167" lon="12.84859"><ele>189.2</ele><time>2026-03-29T07:50:39.96Z</time></trkpt><trkpt lat="43.813805" lon="12.848625"><ele>189.6</ele><time>2026-03-29T07:50:40.96Z</time></trkpt><trkpt lat="43.8136783" lon="12.8487033"><ele>190.0</ele><time>2026-03-29T07:50:41.959Z</time></trkpt><trkpt lat="43.813545" lon="12.8487917"><ele>188.0</ele><time>2026-03-29T07:50:42.959Z</time></trkpt><trkpt lat="43.8134117" lon="12.84888"><ele>186.0</ele><time>2026-03-29T07:50:43.96Z</time></trkpt><trkpt lat="43.81327" lon="12.8489567"><ele>184.0</ele><time>2026-03-29T07:50:44.96Z</time></trkpt><trkpt lat="43.8131333" lon="12.8490067"><ele>182.0</ele><time>2026-03-29T07:50:45.959Z</time></trkpt><trkpt lat="43.8129917" lon="12.8490233"><ele>182.0</ele><time>2026-03-29T07:50:46.96Z</time></trkpt><trkpt lat="43.812845" lon="12.849035"><ele>182.0</ele><time>2026-03-29T07:50:47.96Z</time></trkpt><trkpt lat="43.8126933" lon="12.849035"><ele>182.0</ele><time>2026-03-29T07:50:48.96Z</time></trkpt><trkpt lat="43.81254" lon="12.8490283"><ele>180.33333333333331</ele><time>2026-03-29T07:50:49.96Z</time></trkpt><trkpt lat="43.81239" lon="12.8490033"><ele>178.66666666666666</ele><time>2026-03-29T07:50:50.96Z</time></trkpt><trkpt lat="43.8122367" lon="12.8489617"><ele>177.0</ele><time>2026-03-29T07:50:51.96Z</time></trkpt><trkpt lat="43.81208" lon="12.848905"><ele>177.0</ele><time>2026-03-29T07:50:52.96Z</time></trkpt><trkpt lat="43.81193" lon="12.8488267"><ele>177.0</ele><time>2026-03-29T07:50:53.959Z</time></trkpt><trkpt lat="43.811785" lon="12.8487617"><ele>177.0</ele><time>2026-03-29T07:50:54.96Z</time></trkpt><trkpt lat="43.8116367" lon="12.8487033"><ele>174.0</ele><time>2026-03-29T07:50:55.96Z</time></trkpt><trkpt lat="43.811305" lon="12.8486433"><ele>171.0</ele><time>2026-03-29T07:50:57.96Z</time></trkpt><trkpt lat="43.811145" lon="12.84865"><ele>170.33333333333334</ele><time>2026-03-29T07:50:58.959Z</time></trkpt><trkpt lat="43.8109883" lon="12.848685"><ele>169.66666666666669</ele><time>2026-03-29T07:50:59.959Z</time></trkpt><trkpt lat="43.8108433" lon="12.84873"><ele>169.0</ele><time>2026-03-29T07:51:00.96Z</time></trkpt><trkpt lat="43.8107033" lon="12.8488083"><ele>169.0</ele><time>2026-03-29T07:51:01.96Z</time></trkpt><trkpt lat="43.8105683" lon="12.8489117"><ele>169.0</ele><time>2026-03-29T07:51:02.96Z</time></trkpt><trkpt lat="43.8104483" lon="12.8490483"><ele>169.0</ele><time>2026-03-29T07:51:03.959Z</time></trkpt><trkpt lat="43.8103283" lon="12.8491817"><ele>165.5</ele><time>2026-03-29T07:51:04.96Z</time></trkpt><trkpt lat="43.81021" lon="12.8492967"><ele>162.0</ele><time>2026-03-29T07:51:05.96Z</time></trkpt><trkpt lat="43.8101" lon="12.8493867"><ele>158.5</ele><time>2026-03-29T07:51:06.959Z</time></trkpt><trkpt lat="43.80999" lon="12.84948"><ele>155.0</ele><time>2026-03-29T07:51:07.96Z</time></trkpt><trkpt lat="43.8098883" lon="12.8495567"><ele>155.0</ele><time>2026-03-29T07:51:08.959Z</time></trkpt><trkpt lat="43.8097883" lon="12.84962"><ele>155.0</ele><time>2026-03-29T07:51:09.96Z</time></trkpt><trkpt lat="43.8096883" lon="12.8496667"><ele>155.0</ele><time>2026-03-29T07:51:10.959Z</time></trkpt><trkpt lat="43.8095967" lon="12.8497117"><ele>155.0</ele><time>2026-03-29T07:51:11.96Z</time></trkpt><trkpt lat="43.8095167" lon="12.8497417"><ele>155.0</ele><time>2026-03-29T07:51:12.96Z</time></trkpt><trkpt lat="43.8094417" lon="12.84976"><ele>155.0</ele><time>2026-03-29T07:51:13.96Z</time></trkpt><trkpt lat="43.8093767" lon="12.8497517"><ele>155.0</ele><time>2026-03-29T07:51:14.96Z</time></trkpt><trkpt lat="43.809295" lon="12.8496767"><ele>155.0</ele><time>2026-03-29T07:51:16.96Z</time></trkpt><trkpt lat="43.8092733" lon="12.8494167"><ele>155.0</ele><time>2026-03-29T07:51:19.96Z</time></trkpt><trkpt lat="43.8092817" lon="12.8492717"><ele>156.75</ele><time>2026-03-29T07:51:20.959Z</time></trkpt><trkpt lat="43.8092933" lon="12.849105"><ele>158.5</ele><time>2026-03-29T07:51:21.959Z</time></trkpt><trkpt lat="43.8093117" lon="12.848925"><ele>160.25</ele><time>2026-03-29T07:51:22.96Z</time></trkpt><trkpt lat="43.8093217" lon="12.8487317"><ele>162.0</ele><time>2026-03-29T07:51:23.96Z</time></trkpt><trkpt lat="43.8093483" lon="12.848505"><ele>163.33333333333334</ele><time>2026-03-29T07:51:24.96Z</time></trkpt><trkpt lat="43.8093867" lon="12.8482717"><ele>164.66666666666669</ele><time>2026-03-29T07:51:25.96Z</time></trkpt><trkpt lat="43.8094117" lon="12.8480317"><ele>166.0</ele><time>2026-03-29T07:51:26.96Z</time></trkpt><trkpt lat="43.8094383" lon="12.847805"><ele>164.0</ele><time>2026-03-29T07:51:27.959Z</time></trkpt><trkpt lat="43.8094317" lon="12.8475917"><ele>162.0</ele><time>2026-03-29T07:51:28.96Z</time></trkpt><trkpt lat="43.8094283" lon="12.8473767"><ele>160.0</ele><time>2026-03-29T07:51:29.96Z</time></trkpt><trkpt lat="43.8094267" lon="12.847165"><ele>160.0</ele><time>2026-03-29T07:51:30.959Z</time></trkpt><trkpt lat="43.80942" lon="12.8469467"><ele>160.0</ele><time>2026-03-29T07:51:31.96Z</time></trkpt><trkpt lat="43.8094317" lon="12.8467717"><ele>160.0</ele><time>2026-03-29T07:51:32.96Z</time></trkpt><trkpt lat="43.8094433" lon="12.8465983"><ele>160.0</ele><time>2026-03-29T07:51:33.96Z</time></trkpt><trkpt lat="43.8094483" lon="12.8464283"><ele>158.5</ele><time>2026-03-29T07:51:34.96Z</time></trkpt><trkpt lat="43.8094533" lon="12.8462567"><ele>157.0</ele><time>2026-03-29T07:51:35.96Z</time></trkpt><trkpt lat="43.8094467" lon="12.8460517"><ele>155.5</ele><time>2026-03-29T07:51:36.959Z</time></trkpt><trkpt lat="43.8094433" lon="12.84585"><ele>154.0</ele><time>2026-03-29T07:51:37.96Z</time></trkpt><trkpt lat="43.80943" lon="12.8454217"><ele>153.75</ele><time>2026-03-29T07:51:39.959Z</time></trkpt><trkpt lat="43.8094233" lon="12.8452133"><ele>153.5</ele><time>2026-03-29T07:51:40.959Z</time></trkpt><trkpt lat="43.809415" lon="12.8450067"><ele>153.25</ele><time>2026-03-29T07:51:41.96Z</time></trkpt><trkpt lat="43.8094133" lon="12.8448083"><ele>153.0</ele><time>2026-03-29T07:51:42.96Z</time></trkpt><trkpt lat="43.80941" lon="12.8446433"><ele>153.0</ele><time>2026-03-29T07:51:43.96Z</time></trkpt><trkpt lat="43.8094017" lon="12.844465"><ele>153.0</ele><time>2026-03-29T07:51:44.959Z</time></trkpt><trkpt lat="43.8093917" lon="12.8443033"><ele>153.0</ele><time>2026-03-29T07:51:45.96Z</time></trkpt><trkpt lat="43.8093817" lon="12.8441533"><ele>153.0</ele><time>2026-03-29T07:51:46.959Z</time></trkpt><trkpt lat="43.8093583" lon="12.8440183"><ele>149.4</ele><time>2026-03-29T07:51:47.96Z</time></trkpt><trkpt lat="43.8093033" lon="12.84389"><ele>145.8</ele><time>2026-03-29T07:51:48.96Z</time></trkpt><trkpt lat="43.8092333" lon="12.843795"><ele>142.2</ele><time>2026-03-29T07:51:49.96Z</time></trkpt><trkpt lat="43.8091333" lon="12.8437217"><ele>138.6</ele><time>2026-03-29T07:51:50.96Z</time></trkpt><trkpt lat="43.8090183" lon="12.8436417"><ele>135.0</ele><time>2026-03-29T07:51:51.96Z</time></trkpt><trkpt lat="43.8089" lon="12.84354"><ele>134.25</ele><time>2026-03-29T07:51:52.96Z</time></trkpt><trkpt lat="43.8088083" lon="12.8433917"><ele>133.5</ele><time>2026-03-29T07:51:53.959Z</time></trkpt><trkpt lat="43.8087217" lon="12.8432317"><ele>132.75</ele><time>2026-03-29T07:51:54.96Z</time></trkpt><trkpt lat="43.8086583" lon="12.84304"><ele>132.0</ele><time>2026-03-29T07:51:55.959Z</time></trkpt><trkpt lat="43.8085967" lon="12.842845"><ele>130.66666666666666</ele><time>2026-03-29T07:51:56.959Z</time></trkpt><trkpt lat="43.8085567" lon="12.8426217"><ele>129.33333333333331</ele><time>2026-03-29T07:51:57.96Z</time></trkpt><trkpt lat="43.8085383" lon="12.8424267"><ele>128.0</ele><time>2026-03-29T07:51:58.96Z</time></trkpt><trkpt lat="43.8085417" lon="12.8420333"><ele>128.0</ele><time>2026-03-29T07:52:00.96Z</time></trkpt><trkpt lat="43.8085367" lon="12.841875"><ele>128.0</ele><time>2026-03-29T07:52:01.96Z</time></trkpt><trkpt lat="43.80851" lon="12.8417333"><ele>128.0</ele><time>2026-03-29T07:52:02.959Z</time></trkpt><trkpt lat="43.8084667" lon="12.84162"><ele>128.0</ele><time>2026-03-29T07:52:03.96Z</time></trkpt><trkpt lat="43.80841" lon="12.8415483"><ele>128.0</ele><time>2026-03-29T07:52:04.96Z</time></trkpt><trkpt lat="43.8083533" lon="12.8414783"><ele>129.8</ele><time>2026-03-29T07:52:05.959Z</time></trkpt><trkpt lat="43.80831" lon="12.8413983"><ele>131.60000000000002</ele><time>2026-03-29T07:52:06.959Z</time></trkpt><trkpt lat="43.8082683" lon="12.84129"><ele>133.39999999999998</ele><time>2026-03-29T07:52:07.96Z</time></trkpt><trkpt lat="43.8082183" lon="12.8411817"><ele>135.2</ele><time>2026-03-29T07:52:08.96Z</time></trkpt><trkpt lat="43.8081517" lon="12.8410633"><ele>137.0</ele><time>2026-03-29T07:52:09.96Z</time></trkpt><trkpt lat="43.8080567" lon="12.8409733"><ele>136.5</ele><time>2026-03-29T07:52:10.959Z</time></trkpt><trkpt lat="43.8079367" lon="12.8409083"><ele>136.0</ele><time>2026-03-29T07:52:11.96Z</time></trkpt><trkpt lat="43.807805" lon="12.8408683"><ele>135.5</ele><time>2026-03-29T07:52:12.959Z</time></trkpt><trkpt lat="43.8076783" lon="12.8408267"><ele>135.0</ele><time>2026-03-29T07:52:13.959Z</time></trkpt><trkpt lat="43.8075633" lon="12.8407783"><ele>135.0</ele><time>2026-03-29T07:52:14.959Z</time></trkpt><trkpt lat="43.8074533" lon="12.8407083"><ele>135.0</ele><time>2026-03-29T07:52:15.96Z</time></trkpt><trkpt lat="43.8073533" lon="12.8406133"><ele>135.0</ele><time>2026-03-29T07:52:16.96Z</time></trkpt><trkpt lat="43.8072883" lon="12.84049"><ele>135.0</ele><time>2026-03-29T07:52:17.96Z</time></trkpt><trkpt lat="43.8072533" lon="12.8403367"><ele>135.0</ele><time>2026-03-29T07:52:18.96Z</time></trkpt><trkpt lat="43.807235" lon="12.84016"><ele>135.0</ele><time>2026-03-29T07:52:19.96Z</time></trkpt><trkpt lat="43.807215" lon="12.8397867"><ele>135.0</ele><time>2026-03-29T07:52:21.959Z</time></trkpt><trkpt lat="43.8072133" lon="12.8395783"><ele>131.66666666666666</ele><time>2026-03-29T07:52:22.959Z</time></trkpt><trkpt lat="43.80722" lon="12.83937"><ele>128.33333333333331</ele><time>2026-03-29T07:52:23.96Z</time></trkpt><trkpt lat="43.8072517" lon="12.83917"><ele>125.0</ele><time>2026-03-29T07:52:24.96Z</time></trkpt><trkpt lat="43.8073067" lon="12.838965"><ele>123.33333333333333</ele><time>2026-03-29T07:52:25.96Z</time></trkpt><trkpt lat="43.807375" lon="12.8387733"><ele>121.66666666666666</ele><time>2026-03-29T07:52:26.96Z</time></trkpt><trkpt lat="43.8074667" lon="12.8385883"><ele>120.0</ele><time>2026-03-29T07:52:27.96Z</time></trkpt><trkpt lat="43.8075617" lon="12.8383983"><ele>118.66666666666666</ele><time>2026-03-29T07:52:28.959Z</time></trkpt><trkpt lat="43.8076617" lon="12.8382033"><ele>117.33333333333333</ele><time>2026-03-29T07:52:29.96Z</time></trkpt><trkpt lat="43.8077583" lon="12.8380367"><ele>116.0</ele><time>2026-03-29T07:52:30.96Z</time></trkpt><trkpt lat="43.8078467" lon="12.8378533"><ele>116.0</ele><time>2026-03-29T07:52:31.96Z</time></trkpt><trkpt lat="43.8079233" lon="12.837675"><ele>116.0</ele><time>2026-03-29T07:52:32.959Z</time></trkpt><trkpt lat="43.8079933" lon="12.8375117"><ele>116.0</ele><time>2026-03-29T07:52:33.96Z</time></trkpt><trkpt lat="43.8080633" lon="12.837345"><ele>116.0</ele><time>2026-03-29T07:52:34.959Z</time></trkpt><trkpt lat="43.808125" lon="12.8371967"><ele>116.5</ele><time>2026-03-29T07:52:35.959Z</time></trkpt><trkpt lat="43.8081717" lon="12.8370367"><ele>117.0</ele><time>2026-03-29T07:52:36.96Z</time></trkpt><trkpt lat="43.8081883" lon="12.836885"><ele>117.5</ele><time>2026-03-29T07:52:37.96Z</time></trkpt><trkpt lat="43.808165" lon="12.836735"><ele>118.0</ele><time>2026-03-29T07:52:38.959Z</time></trkpt><trkpt lat="43.8081067" lon="12.8366"><ele>118.33333333333334</ele><time>2026-03-29T07:52:39.959Z</time></trkpt><trkpt lat="43.8080083" lon="12.8364617"><ele>118.66666666666666</ele><time>2026-03-29T07:52:40.96Z</time></trkpt><trkpt lat="43.8077517" lon="12.8362583"><ele>119.0</ele><time>2026-03-29T07:52:42.96Z</time></trkpt><trkpt lat="43.8076283" lon="12.8362183"><ele>119.0</ele><time>2026-03-29T07:52:43.959Z</time></trkpt><trkpt lat="43.8075083" lon="12.8362167"><ele>119.0</ele><time>2026-03-29T07:52:44.959Z</time></trkpt><trkpt lat="43.8074017" lon="12.8361917"><ele>119.0</ele><time>2026-03-29T07:52:45.96Z</time></trkpt><trkpt lat="43.8072917" lon="12.83614"><ele>119.0</ele><time>2026-03-29T07:52:46.96Z</time></trkpt><trkpt lat="43.8072183" lon="12.8360333"><ele>123.0</ele><time>2026-03-29T07:52:47.96Z</time></trkpt><trkpt lat="43.8071733" lon="12.8358883"><ele>127.0</ele><time>2026-03-29T07:52:48.959Z</time></trkpt><trkpt lat="43.8071617" lon="12.8357333"><ele>131.0</ele><time>2026-03-29T07:52:49.96Z</time></trkpt><trkpt lat="43.8071683" lon="12.835565"><ele>135.0</ele><time>2026-03-29T07:52:50.96Z</time></trkpt><trkpt lat="43.8071883" lon="12.8353817"><ele>135.0</ele><time>2026-03-29T07:52:51.96Z</time></trkpt><trkpt lat="43.8072133" lon="12.8351983"><ele>135.0</ele><time>2026-03-29T07:52:52.959Z</time></trkpt><trkpt lat="43.8072533" lon="12.834995"><ele>135.0</ele><time>2026-03-29T07:52:53.96Z</time></trkpt><trkpt lat="43.80729" lon="12.8348"><ele>135.0</ele><time>2026-03-29T07:52:54.96Z</time></trkpt><trkpt lat="43.8073033" lon="12.8346017"><ele>136.33333333333334</ele><time>2026-03-29T07:52:55.96Z</time></trkpt><trkpt lat="43.8073267" lon="12.83438"><ele>137.66666666666669</ele><time>2026-03-29T07:52:56.96Z</time></trkpt><trkpt lat="43.8073567" lon="12.8341683"><ele>139.0</ele><time>2026-03-29T07:52:57.96Z</time></trkpt><trkpt lat="43.8073883" lon="12.8339717"><ele>139.0</ele><time>2026-03-29T07:52:58.96Z</time></trkpt><trkpt lat="43.8074267" lon="12.833775"><ele>139.0</ele><time>2026-03-29T07:52:59.96Z</time></trkpt><trkpt lat="43.8074767" lon="12.8336"><ele>139.0</ele><time>2026-03-29T07:53:00.959Z</time></trkpt><trkpt lat="43.80754" lon="12.8334283"><ele>139.0</ele><time>2026-03-29T07:53:01.959Z</time></trkpt><trkpt lat="43.8076967" lon="12.8331117"><ele>140.75</ele><time>2026-03-29T07:53:03.96Z</time></trkpt><trkpt lat="43.80778" lon="12.8329567"><ele>142.5</ele><time>2026-03-29T07:53:04.96Z</time></trkpt><trkpt lat="43.8078733" lon="12.83281"><ele>144.25</ele><time>2026-03-29T07:53:05.959Z</time></trkpt><trkpt lat="43.8079767" lon="12.8326633"><ele>146.0</ele><time>2026-03-29T07:53:06.96Z</time></trkpt><trkpt lat="43.808095" lon="12.8325317"><ele>146.0</ele><time>2026-03-29T07:53:07.96Z</time></trkpt><trkpt lat="43.8082167" lon="12.83238"><ele>146.0</ele><time>2026-03-29T07:53:08.96Z</time></trkpt><trkpt lat="43.80831" lon="12.8322033"><ele>146.0</ele><time>2026-03-29T07:53:09.96Z</time></trkpt><trkpt lat="43.8083617" lon="12.831995"><ele>144.33333333333331</ele><time>2026-03-29T07:53:10.96Z</time></trkpt><trkpt lat="43.8084167" lon="12.8317933"><ele>142.66666666666666</ele><time>2026-03-29T07:53:11.96Z</time></trkpt><trkpt lat="43.8084633" lon="12.8315883"><ele>141.0</ele><time>2026-03-29T07:53:12.96Z</time></trkpt><trkpt lat="43.8085" lon="12.83135"><ele>148.0</ele><time>2026-03-29T07:53:13.96Z</time></trkpt><trkpt lat="43.8085433" lon="12.8311417"><ele>155.0</ele><time>2026-03-29T07:53:14.959Z</time></trkpt><trkpt lat="43.80861" lon="12.8309533"><ele>162.0</ele><time>2026-03-29T07:53:15.96Z</time></trkpt><trkpt lat="43.8086783" lon="12.8307683"><ele>162.0</ele><time>2026-03-29T07:53:16.96Z</time></trkpt><trkpt lat="43.8087467" lon="12.8305817"><ele>162.0</ele><time>2026-03-29T07:53:17.96Z</time></trkpt><trkpt lat="43.8088133" lon="12.8304133"><ele>162.0</ele><time>2026-03-29T07:53:18.96Z</time></trkpt><trkpt lat="43.8088867" lon="12.830275"><ele>162.0</ele><time>2026-03-29T07:53:19.959Z</time></trkpt><trkpt lat="43.8089817" lon="12.8301283"><ele>163.0</ele><time>2026-03-29T07:53:20.959Z</time></trkpt><trkpt lat="43.80908" lon="12.8299933"><ele>164.0</ele><time>2026-03-29T07:53:21.96Z</time></trkpt><trkpt lat="43.8091733" lon="12.8298567"><ele>165.0</ele><time>2026-03-29T07:53:22.96Z</time></trkpt><trkpt lat="43.8093617" lon="12.829615"><ele>165.0</ele><time>2026-03-29T07:53:24.96Z</time></trkpt><trkpt lat="43.80949" lon="12.8296017"><ele>165.0</ele><time>2026-03-29T07:53:25.959Z</time></trkpt><trkpt lat="43.8095883" lon="12.82956"><ele>165.0</ele><time>2026-03-29T07:53:26.959Z</time></trkpt><trkpt lat="43.8097083" lon="12.8295567"><ele>165.0</ele><time>2026-03-29T07:53:27.96Z</time></trkpt><trkpt lat="43.8098333" lon="12.8295517"><ele>165.0</ele><time>2026-03-29T07:53:28.959Z</time></trkpt><trkpt lat="43.8099767" lon="12.8295917"><ele>165.0</ele><time>2026-03-29T07:53:29.96Z</time></trkpt><trkpt lat="43.8100833" lon="12.8296083"><ele>165.0</ele><time>2026-03-29T07:53:30.959Z</time></trkpt><trkpt lat="43.8101717" lon="12.8296067"><ele>165.0</ele><time>2026-03-29T07:53:31.959Z</time></trkpt><trkpt lat="43.8102583" lon="12.8296067"><ele>165.0</ele><time>2026-03-29T07:53:32.96Z</time></trkpt><trkpt lat="43.810325" lon="12.8295883"><ele>164.6</ele><time>2026-03-29T07:53:33.96Z</time></trkpt><trkpt lat="43.810425" lon="12.82953"><ele>164.2</ele><time>2026-03-29T07:53:35.959Z</time></trkpt><trkpt lat="43.8104333" lon="12.8294"><ele>163.8</ele><time>2026-03-29T07:53:37.959Z</time></trkpt><trkpt lat="43.8103483" lon="12.8292767"><ele>163.4</ele><time>2026-03-29T07:53:39.96Z</time></trkpt><trkpt lat="43.8102517" lon="12.8292017"><ele>163.0</ele><time>2026-03-29T07:53:40.959Z</time></trkpt><trkpt lat="43.81014" lon="12.8291067"><ele>160.66666666666669</ele><time>2026-03-29T07:53:41.96Z</time></trkpt><trkpt lat="43.8100417" lon="12.8290117"><ele>158.33333333333334</ele><time>2026-03-29T07:53:42.96Z</time></trkpt><trkpt lat="43.809945" lon="12.8289083"><ele>156.0</ele><time>2026-03-29T07:53:43.959Z</time></trkpt><trkpt lat="43.809825" lon="12.8286567"><ele>156.0</ele><time>2026-03-29T07:53:45.96Z</time></trkpt><trkpt lat="43.8098183" lon="12.8284967"><ele>156.0</ele><time>2026-03-29T07:53:46.959Z</time></trkpt><trkpt lat="43.80985" lon="12.8283217"><ele>156.0</ele><time>2026-03-29T07:53:47.96Z</time></trkpt><trkpt lat="43.809895" lon="12.8281583"><ele>156.0</ele><time>2026-03-29T07:53:48.959Z</time></trkpt><trkpt lat="43.8099517" lon="12.82802"><ele>155.5</ele><time>2026-03-29T07:53:49.96Z</time></trkpt><trkpt lat="43.8100117" lon="12.8278817"><ele>155.0</ele><time>2026-03-29T07:53:50.959Z</time></trkpt><trkpt lat="43.810075" lon="12.8277367"><ele>154.5</ele><time>2026-03-29T07:53:51.959Z</time></trkpt><trkpt lat="43.810135" lon="12.8275967"><ele>154.0</ele><time>2026-03-29T07:53:52.96Z</time></trkpt><trkpt lat="43.8101983" lon="12.8274533"><ele>158.5</ele><time>2026-03-29T07:53:53.96Z</time></trkpt><trkpt lat="43.8102467" lon="12.8272983"><ele>163.0</ele><time>2026-03-29T07:53:54.96Z</time></trkpt><trkpt lat="43.8102933" lon="12.8271333"><ele>167.5</ele><time>2026-03-29T07:53:55.96Z</time></trkpt><trkpt lat="43.810345" lon="12.8269733"><ele>172.0</ele><time>2026-03-29T07:53:56.959Z</time></trkpt><trkpt lat="43.810385" lon="12.8268333"><ele>169.4</ele><time>2026-03-29T07:53:57.959Z</time></trkpt><trkpt lat="43.810435" lon="12.8267083"><ele>166.79999999999998</ele><time>2026-03-29T07:53:58.96Z</time></trkpt><trkpt lat="43.8105217" lon="12.8265917"><ele>164.2</ele><time>2026-03-29T07:53:59.96Z</time></trkpt><trkpt lat="43.8106167" lon="12.8264983"><ele>161.6</ele><time>2026-03-29T07:54:00.96Z</time></trkpt><trkpt lat="43.8107033" lon="12.8264283"><ele>159.0</ele><time>2026-03-29T07:54:01.96Z</time></trkpt><trkpt lat="43.8107883" lon="12.8263433"><ele>159.0</ele><time>2026-03-29T07:54:02.96Z</time></trkpt><trkpt lat="43.8108617" lon="12.82624"><ele>159.0</ele><time>2026-03-29T07:54:03.96Z</time></trkpt><trkpt lat="43.8108917" lon="12.8261167"><ele>159.0</ele><time>2026-03-29T07:54:04.96Z</time></trkpt><trkpt lat="43.8109167" lon="12.8258633"><ele>159.0</ele><time>2026-03-29T07:54:06.959Z</time></trkpt><trkpt lat="43.8108983" lon="12.825715"><ele>157.0</ele><time>2026-03-29T07:54:07.96Z</time></trkpt><trkpt lat="43.8108733" lon="12.825565"><ele>155.0</ele><time>2026-03-29T07:54:08.96Z</time></trkpt><trkpt lat="43.81082" lon="12.82539"><ele>153.0</ele><time>2026-03-29T07:54:09.96Z</time></trkpt><trkpt lat="43.81077" lon="12.8252117"><ele>151.0</ele><time>2026-03-29T07:54:10.96Z</time></trkpt><trkpt lat="43.810725" lon="12.82502"><ele>151.0</ele><time>2026-03-29T07:54:11.959Z</time></trkpt><trkpt lat="43.8106883" lon="12.82484"><ele>151.0</ele><time>2026-03-29T07:54:12.959Z</time></trkpt><trkpt lat="43.8106467" lon="12.82466"><ele>151.0</ele><time>2026-03-29T07:54:13.959Z</time></trkpt><trkpt lat="43.8106133" lon="12.8244633"><ele>151.0</ele><time>2026-03-29T07:54:14.96Z</time></trkpt><trkpt lat="43.8105817" lon="12.8242567"><ele>150.66666666666669</ele><time>2026-03-29T07:54:15.96Z</time></trkpt><trkpt lat="43.81054" lon="12.8240483"><ele>150.33333333333334</ele><time>2026-03-29T07:54:16.96Z</time></trkpt><trkpt lat="43.8105067" lon="12.8238483"><ele>150.0</ele><time>2026-03-29T07:54:17.959Z</time></trkpt><trkpt lat="43.810495" lon="12.8236317"><ele>150.5</ele><time>2026-03-29T07:54:18.959Z</time></trkpt><trkpt lat="43.8104783" lon="12.8234317"><ele>151.0</ele><time>2026-03-29T07:54:19.96Z</time></trkpt><trkpt lat="43.81046" lon="12.8232583"><ele>151.5</ele><time>2026-03-29T07:54:20.96Z</time></trkpt><trkpt lat="43.8104433" lon="12.8230883"><ele>152.0</ele><time>2026-03-29T07:54:21.96Z</time></trkpt><trkpt lat="43.810415" lon="12.82291"><ele>152.0</ele><time>2026-03-29T07:54:22.96Z</time></trkpt><trkpt lat="43.8103783" lon="12.8227383"><ele>152.0</ele><time>2026-03-29T07:54:23.959Z</time></trkpt><trkpt lat="43.8103467" lon="12.8225817"><ele>152.0</ele><time>2026-03-29T07:54:24.96Z</time></trkpt><trkpt lat="43.8102967" lon="12.822435"><ele>152.0</ele><time>2026-03-29T07:54:25.96Z</time></trkpt><trkpt lat="43.8101817" lon="12.8221517"><ele>152.4</ele><time>2026-03-29T07:54:27.96Z</time></trkpt><trkpt lat="43.8101233" lon="12.8220383"><ele>152.79999999999998</ele><time>2026-03-29T07:54:28.96Z</time></trkpt><trkpt lat="43.8100533" lon="12.821915"><ele>153.2</ele><time>2026-03-29T07:54:29.959Z</time></trkpt><trkpt lat="43.8099933" lon="12.8217917"><ele>153.6</ele><time>2026-03-29T07:54:30.959Z</time></trkpt><trkpt lat="43.8099367" lon="12.8216883"><ele>154.0</ele><time>2026-03-29T07:54:31.96Z</time></trkpt><trkpt lat="43.8098783" lon="12.82161"><ele>154.0</ele><time>2026-03-29T07:54:32.96Z</time></trkpt><trkpt lat="43.8098033" lon="12.82155"><ele>154.0</ele><time>2026-03-29T07:54:33.96Z</time></trkpt><trkpt lat="43.80969" lon="12.821555"><ele>154.0</ele><time>2026-03-29T07:54:35.96Z</time></trkpt><trkpt lat="43.8096433" lon="12.82162"><ele>154.0</ele><time>2026-03-29T07:54:36.96Z</time></trkpt><trkpt lat="43.8096133" lon="12.8217367"><ele>154.0</ele><time>2026-03-29T07:54:37.96Z</time></trkpt><trkpt lat="43.8096117" lon="12.8218967"><ele>154.0</ele><time>2026-03-29T07:54:38.959Z</time></trkpt><trkpt lat="43.80965" lon="12.8220917"><ele>154.0</ele><time>2026-03-29T07:54:39.96Z</time></trkpt><trkpt lat="43.8096933" lon="12.8223017"><ele>154.0</ele><time>2026-03-29T07:54:40.96Z</time></trkpt><trkpt lat="43.8097183" lon="12.8224833"><ele>154.0</ele><time>2026-03-29T07:54:41.96Z</time></trkpt><trkpt lat="43.8097183" lon="12.8226367"><ele>153.0</ele><time>2026-03-29T07:54:42.959Z</time></trkpt><trkpt lat="43.8096817" lon="12.8227667"><ele>152.0</ele><time>2026-03-29T07:54:43.96Z</time></trkpt><trkpt lat="43.8096333" lon="12.8228533"><ele>151.0</ele><time>2026-03-29T07:54:44.96Z</time></trkpt><trkpt lat="43.80956" lon="12.822905"><ele>150.0</ele><time>2026-03-29T07:54:45.96Z</time></trkpt><trkpt lat="43.8094867" lon="12.8229117"><ele>149.0</ele><time>2026-03-29T07:54:46.96Z</time></trkpt><trkpt lat="43.8093183" lon="12.8228133"><ele>154.5</ele><time>2026-03-29T07:54:48.96Z</time></trkpt><trkpt lat="43.80925" lon="12.8227217"><ele>160.0</ele><time>2026-03-29T07:54:49.96Z</time></trkpt><trkpt lat="43.8091817" lon="12.8226"><ele>165.5</ele><time>2026-03-29T07:54:50.96Z</time></trkpt><trkpt lat="43.80911" lon="12.82247"><ele>171.0</ele><time>2026-03-29T07:54:51.96Z</time></trkpt><trkpt lat="43.8090433" lon="12.8223017"><ele>172.0</ele><time>2026-03-29T07:54:52.959Z</time></trkpt><trkpt lat="43.80899" lon="12.8221467"><ele>173.0</ele><time>2026-03-29T07:54:53.96Z</time></trkpt><trkpt lat="43.808925" lon="12.8219767"><ele>174.0</ele><time>2026-03-29T07:54:54.96Z</time></trkpt><trkpt lat="43.8088533" lon="12.8218267"><ele>175.0</ele><time>2026-03-29T07:54:55.959Z</time></trkpt><trkpt lat="43.808795" lon="12.82166"><ele>175.5</ele><time>2026-03-29T07:54:56.96Z</time></trkpt><trkpt lat="43.8087367" lon="12.8215233"><ele>176.0</ele><time>2026-03-29T07:54:57.959Z</time></trkpt><trkpt lat="43.8086867" lon="12.82141"><ele>176.5</ele><time>2026-03-29T07:54:58.96Z</time></trkpt><trkpt lat="43.8086367" lon="12.8213183"><ele>177.0</ele><time>2026-03-29T07:54:59.96Z</time></trkpt><trkpt lat="43.8085883" lon="12.821255"><ele>177.5</ele><time>2026-03-29T07:55:00.959Z</time></trkpt><trkpt lat="43.80853" lon="12.82122"><ele>178.0</ele><time>2026-03-29T07:55:01.96Z</time></trkpt><trkpt lat="43.8084317" lon="12.82127"><ele>181.8</ele><time>2026-03-29T07:55:03.959Z</time></trkpt><trkpt lat="43.8083967" lon="12.8213567"><ele>185.60000000000002</ele><time>2026-03-29T07:55:04.96Z</time></trkpt><trkpt lat="43.8083717" lon="12.82147"><ele>189.39999999999998</ele><time>2026-03-29T07:55:05.96Z</time></trkpt><trkpt lat="43.8083683" lon="12.821635"><ele>193.2</ele><time>2026-03-29T07:55:06.96Z</time></trkpt><trkpt lat="43.8083733" lon="12.8218117"><ele>197.0</ele><time>2026-03-29T07:55:07.96Z</time></trkpt><trkpt lat="43.8083617" lon="12.8221267"><ele>197.16666666666669</ele><time>2026-03-29T07:55:09.959Z</time></trkpt><trkpt lat="43.80833" lon="12.82224"><ele>197.33333333333334</ele><time>2026-03-29T07:55:10.96Z</time></trkpt><trkpt lat="43.80827" lon="12.8223133"><ele>197.5</ele><time>2026-03-29T07:55:11.96Z</time></trkpt><trkpt lat="43.8082033" lon="12.8223517"><ele>197.66666666666669</ele><time>2026-03-29T07:55:12.96Z</time></trkpt><trkpt lat="43.808085" lon="12.8222983"><ele>197.83333333333334</ele><time>2026-03-29T07:55:14.96Z</time></trkpt><trkpt lat="43.80804" lon="12.8222033"><ele>198.0</ele><time>2026-03-29T07:55:15.96Z</time></trkpt><trkpt lat="43.808015" lon="12.8220533"><ele>198.0</ele><time>2026-03-29T07:55:16.96Z</time></trkpt><trkpt lat="43.8079917" lon="12.8218917"><ele>198.0</ele><time>2026-03-29T07:55:17.96Z</time></trkpt><trkpt lat="43.8079717" lon="12.8217017"><ele>198.0</ele><time>2026-03-29T07:55:18.959Z</time></trkpt><trkpt lat="43.8079633" lon="12.82149"><ele>198.0</ele><time>2026-03-29T07:55:19.96Z</time></trkpt><trkpt lat="43.8079733" lon="12.8212917"><ele>197.75</ele><time>2026-03-29T07:55:20.96Z</time></trkpt><trkpt lat="43.8079917" lon="12.821105"><ele>197.5</ele><time>2026-03-29T07:55:21.96Z</time></trkpt><trkpt lat="43.808" lon="12.8209317"><ele>197.25</ele><time>2026-03-29T07:55:22.96Z</time></trkpt><trkpt lat="43.8079917" lon="12.8207483"><ele>197.0</ele><time>2026-03-29T07:55:23.96Z</time></trkpt><trkpt lat="43.807985" lon="12.8205567"><ele>198.5</ele><time>2026-03-29T07:55:24.959Z</time></trkpt><trkpt lat="43.807965" lon="12.8203633"><ele>200.0</ele><time>2026-03-29T07:55:25.96Z</time></trkpt><trkpt lat="43.80793" lon="12.8201633"><ele>201.5</ele><time>2026-03-29T07:55:26.959Z</time></trkpt><trkpt lat="43.8078967" lon="12.819955"><ele>203.0</ele><time>2026-03-29T07:55:27.96Z</time></trkpt><trkpt lat="43.8078567" lon="12.8197717"><ele>203.0</ele><time>2026-03-29T07:55:28.959Z</time></trkpt><trkpt lat="43.8077767" lon="12.8194067"><ele>203.0</ele><time>2026-03-29T07:55:30.96Z</time></trkpt><trkpt lat="43.8077233" lon="12.8192333"><ele>203.0</ele><time>2026-03-29T07:55:31.959Z</time></trkpt><trkpt lat="43.807665" lon="12.8190683"><ele>211.5</ele><time>2026-03-29T07:55:32.96Z</time></trkpt><trkpt lat="43.8075967" lon="12.81892"><ele>220.0</ele><time>2026-03-29T07:55:33.959Z</time></trkpt><trkpt lat="43.8075233" lon="12.8188033"><ele>228.5</ele><time>2026-03-29T07:55:34.96Z</time></trkpt><trkpt lat="43.8074417" lon="12.8186917"><ele>237.0</ele><time>2026-03-29T07:55:35.96Z</time></trkpt><trkpt lat="43.8073383" lon="12.8185767"><ele>235.0</ele><time>2026-03-29T07:55:36.96Z</time></trkpt><trkpt lat="43.807245" lon="12.8184267"><ele>233.0</ele><time>2026-03-29T07:55:37.959Z</time></trkpt><trkpt lat="43.8071633" lon="12.8182917"><ele>231.0</ele><time>2026-03-29T07:55:38.96Z</time></trkpt><trkpt lat="43.8071" lon="12.8181483"><ele>229.0</ele><time>2026-03-29T07:55:39.959Z</time></trkpt><trkpt lat="43.80707" lon="12.81799"><ele>229.0</ele><time>2026-03-29T07:55:40.96Z</time></trkpt><trkpt lat="43.8070467" lon="12.817785"><ele>229.0</ele><time>2026-03-29T07:55:41.96Z</time></trkpt><trkpt lat="43.8070633" lon="12.817615"><ele>229.0</ele><time>2026-03-29T07:55:42.96Z</time></trkpt><trkpt lat="43.8070933" lon="12.8174467"><ele>229.0</ele><time>2026-03-29T07:55:43.96Z</time></trkpt><trkpt lat="43.8071233" lon="12.8172883"><ele>229.0</ele><time>2026-03-29T07:55:44.959Z</time></trkpt><trkpt lat="43.807155" lon="12.81713"><ele>229.0</ele><time>2026-03-29T07:55:45.96Z</time></trkpt><trkpt lat="43.8071533" lon="12.81694"><ele>229.0</ele><time>2026-03-29T07:55:46.959Z</time></trkpt><trkpt lat="43.8071483" lon="12.8167617"><ele>229.0</ele><time>2026-03-29T07:55:47.959Z</time></trkpt><trkpt lat="43.8071183" lon="12.8165667"><ele>229.0</ele><time>2026-03-29T07:55:48.959Z</time></trkpt><trkpt lat="43.8070817" lon="12.8163767"><ele>229.0</ele><time>2026-03-29T07:55:49.96Z</time></trkpt><trkpt lat="43.8070767" lon="12.8159983"><ele>229.0</ele><time>2026-03-29T07:55:51.959Z</time></trkpt><trkpt lat="43.8070667" lon="12.8158417"><ele>230.5</ele><time>2026-03-29T07:55:52.96Z</time></trkpt><trkpt lat="43.80704" lon="12.8156833"><ele>232.0</ele><time>2026-03-29T07:55:53.96Z</time></trkpt><trkpt lat="43.8069983" lon="12.8155117"><ele>233.5</ele><time>2026-03-29T07:55:54.959Z</time></trkpt><trkpt lat="43.8069417" lon="12.81533"><ele>235.0</ele><time>2026-03-29T07:55:55.96Z</time></trkpt><trkpt lat="43.8068833" lon="12.8151433"><ele>235.25</ele><time>2026-03-29T07:55:56.959Z</time></trkpt><trkpt lat="43.8068283" lon="12.814955"><ele>235.5</ele><time>2026-03-29T07:55:57.96Z</time></trkpt><trkpt lat="43.806775" lon="12.8147533"><ele>235.75</ele><time>2026-03-29T07:55:58.96Z</time></trkpt><trkpt lat="43.8067083" lon="12.8145883"><ele>236.0</ele><time>2026-03-29T07:55:59.959Z</time></trkpt><trkpt lat="43.8066583" lon="12.8144583"><ele>241.4</ele><time>2026-03-29T07:56:00.959Z</time></trkpt><trkpt lat="43.8066083" lon="12.8143617"><ele>246.8</ele><time>2026-03-29T07:56:01.959Z</time></trkpt><trkpt lat="43.8065583" lon="12.8142817"><ele>252.20000000000002</ele><time>2026-03-29T07:56:02.959Z</time></trkpt><trkpt lat="43.8064717" lon="12.814245"><ele>257.6</ele><time>2026-03-29T07:56:04.96Z</time></trkpt><trkpt lat="43.8064033" lon="12.8143633"><ele>263.0</ele><time>2026-03-29T07:56:06.96Z</time></trkpt><trkpt lat="43.8063917" lon="12.8145"><ele>263.0</ele><time>2026-03-29T07:56:07.96Z</time></trkpt><trkpt lat="43.8063867" lon="12.8146333"><ele>263.0</ele><time>2026-03-29T07:56:08.96Z</time></trkpt><trkpt lat="43.8063567" lon="12.81473"><ele>263.0</ele><time>2026-03-29T07:56:09.96Z</time></trkpt><trkpt lat="43.8062533" lon="12.8147683"><ele>263.0</ele><time>2026-03-29T07:56:11.959Z</time></trkpt><trkpt lat="43.8061267" lon="12.8145883"><ele>263.0</ele><time>2026-03-29T07:56:13.96Z</time></trkpt><trkpt lat="43.8060617" lon="12.814415"><ele>263.0</ele><time>2026-03-29T07:56:14.959Z</time></trkpt><trkpt lat="43.8059883" lon="12.8142267"><ele>263.0</ele><time>2026-03-29T07:56:15.959Z</time></trkpt><trkpt lat="43.805895" lon="12.8140233"><ele>266.6666666666667</ele><time>2026-03-29T07:56:16.96Z</time></trkpt><trkpt lat="43.8057933" lon="12.8138283"><ele>270.3333333333333</ele><time>2026-03-29T07:56:17.959Z</time></trkpt><trkpt lat="43.8056783" lon="12.8136083"><ele>274.0</ele><time>2026-03-29T07:56:18.959Z</time></trkpt><trkpt lat="43.8055467" lon="12.8133733"><ele>274.0</ele><time>2026-03-29T07:56:19.96Z</time></trkpt><trkpt lat="43.8054183" lon="12.81313"><ele>274.0</ele><time>2026-03-29T07:56:20.96Z</time></trkpt><trkpt lat="43.80529" lon="12.8128733"><ele>274.0</ele><time>2026-03-29T07:56:21.96Z</time></trkpt><trkpt lat="43.80516" lon="12.8126117"><ele>276.0</ele><time>2026-03-29T07:56:22.96Z</time></trkpt><trkpt lat="43.8050317" lon="12.8123683"><ele>278.0</ele><time>2026-03-29T07:56:23.959Z</time></trkpt><trkpt lat="43.8049183" lon="12.8121467"><ele>280.0</ele><time>2026-03-29T07:56:24.959Z</time></trkpt><trkpt lat="43.8048017" lon="12.8119367"><ele>281.0</ele><time>2026-03-29T07:56:25.96Z</time></trkpt><trkpt lat="43.8046883" lon="12.8117367"><ele>282.0</ele><time>2026-03-29T07:56:26.959Z</time></trkpt><trkpt lat="43.8045733" lon="12.8115583"><ele>283.0</ele><time>2026-03-29T07:56:27.96Z</time></trkpt><trkpt lat="43.8044667" lon="12.8113983"><ele>283.0</ele><time>2026-03-29T07:56:28.96Z</time></trkpt><trkpt lat="43.80436" lon="12.811265"><ele>283.0</ele><time>2026-03-29T07:56:29.96Z</time></trkpt><trkpt lat="43.8042483" lon="12.811135"><ele>283.0</ele><time>2026-03-29T07:56:30.959Z</time></trkpt><trkpt lat="43.8041367" lon="12.811025"><ele>283.0</ele><time>2026-03-29T07:56:31.96Z</time></trkpt><trkpt lat="43.8040283" lon="12.810935"><ele>288.66666666666663</ele><time>2026-03-29T07:56:32.959Z</time></trkpt><trkpt lat="43.8037767" lon="12.8107717"><ele>294.3333333333333</ele><time>2026-03-29T07:56:34.959Z</time></trkpt><trkpt lat="43.8036267" lon="12.8107217"><ele>300.0</ele><time>2026-03-29T07:56:35.96Z</time></trkpt><trkpt lat="43.803475" lon="12.8106667"><ele>300.5</ele><time>2026-03-29T07:56:36.96Z</time></trkpt><trkpt lat="43.8033167" lon="12.8106433"><ele>301.0</ele><time>2026-03-29T07:56:37.96Z</time></trkpt><trkpt lat="43.803175" lon="12.8106167"><ele>301.5</ele><time>2026-03-29T07:56:38.96Z</time></trkpt><trkpt lat="43.8030617" lon="12.810565"><ele>302.0</ele><time>2026-03-29T07:56:39.96Z</time></trkpt><trkpt lat="43.8029633" lon="12.8104833"><ele>302.0</ele><time>2026-03-29T07:56:40.96Z</time></trkpt><trkpt lat="43.8028783" lon="12.8103633"><ele>302.0</ele><time>2026-03-29T07:56:41.96Z</time></trkpt><trkpt lat="43.8028083" lon="12.8102217"><ele>302.0</ele><time>2026-03-29T07:56:42.96Z</time></trkpt><trkpt lat="43.80275" lon="12.8100583"><ele>302.0</ele><time>2026-03-29T07:56:43.96Z</time></trkpt><trkpt lat="43.80269" lon="12.80989"><ele>305.2</ele><time>2026-03-29T07:56:44.96Z</time></trkpt><trkpt lat="43.8026317" lon="12.8097267"><ele>308.4</ele><time>2026-03-29T07:56:45.959Z</time></trkpt><trkpt lat="43.8025683" lon="12.809585"><ele>311.6</ele><time>2026-03-29T07:56:46.96Z</time></trkpt><trkpt lat="43.802515" lon="12.8094517"><ele>314.8</ele><time>2026-03-29T07:56:47.959Z</time></trkpt><trkpt lat="43.80248" lon="12.809345"><ele>318.0</ele><time>2026-03-29T07:56:48.96Z</time></trkpt><trkpt lat="43.8024583" lon="12.8092517"><ele>318.8</ele><time>2026-03-29T07:56:49.96Z</time></trkpt><trkpt lat="43.8024517" lon="12.8091617"><ele>319.6</ele><time>2026-03-29T07:56:50.96Z</time></trkpt><trkpt lat="43.8024667" lon="12.8090483"><ele>320.40000000000003</ele><time>2026-03-29T07:56:51.959Z</time></trkpt><trkpt lat="43.8024983" lon="12.8089267"><ele>321.20000000000005</ele><time>2026-03-29T07:56:52.96Z</time></trkpt><trkpt lat="43.802545" lon="12.8087917"><ele>322.0</ele><time>2026-03-29T07:56:53.96Z</time></trkpt><trkpt lat="43.802655" lon="12.8084567"><ele>322.0</ele><time>2026-03-29T07:56:55.959Z</time></trkpt><trkpt lat="43.8026683" lon="12.80826"><ele>322.0</ele><time>2026-03-29T07:56:56.96Z</time></trkpt><trkpt lat="43.802655" lon="12.8080517"><ele>322.0</ele><time>2026-03-29T07:56:57.96Z</time></trkpt><trkpt lat="43.80261" lon="12.80785"><ele>322.0</ele><time>2026-03-29T07:56:58.96Z</time></trkpt><trkpt lat="43.8025567" lon="12.8076367"><ele>322.66666666666663</ele><time>2026-03-29T07:56:59.96Z</time></trkpt><trkpt lat="43.8025083" lon="12.8074283"><ele>323.3333333333333</ele><time>2026-03-29T07:57:00.959Z</time></trkpt><trkpt lat="43.8024583" lon="12.8072267"><ele>324.0</ele><time>2026-03-29T07:57:01.96Z</time></trkpt><trkpt lat="43.80241" lon="12.80702"><ele>326.0</ele><time>2026-03-29T07:57:02.959Z</time></trkpt><trkpt lat="43.8023617" lon="12.8068083"><ele>328.0</ele><time>2026-03-29T07:57:03.959Z</time></trkpt><trkpt lat="43.8023167" lon="12.8066017"><ele>330.0</ele><time>2026-03-29T07:57:04.96Z</time></trkpt><trkpt lat="43.8022917" lon="12.8063983"><ele>330.0</ele><time>2026-03-29T07:57:05.96Z</time></trkpt><trkpt lat="43.8022817" lon="12.8061867"><ele>330.0</ele><time>2026-03-29T07:57:06.96Z</time></trkpt><trkpt lat="43.8022683" lon="12.8059683"><ele>330.0</ele><time>2026-03-29T07:57:07.96Z</time></trkpt><trkpt lat="43.8022567" lon="12.805755"><ele>333.0</ele><time>2026-03-29T07:57:08.96Z</time></trkpt><trkpt lat="43.8022433" lon="12.805535"><ele>336.0</ele><time>2026-03-29T07:57:09.959Z</time></trkpt><trkpt lat="43.80223" lon="12.80533"><ele>339.0</ele><time>2026-03-29T07:57:10.959Z</time></trkpt><trkpt lat="43.8022317" lon="12.8051183"><ele>342.25</ele><time>2026-03-29T07:57:11.96Z</time></trkpt><trkpt lat="43.8022233" lon="12.8049017"><ele>345.5</ele><time>2026-03-29T07:57:12.959Z</time></trkpt><trkpt lat="43.8022217" lon="12.8046917"><ele>348.75</ele><time>2026-03-29T07:57:13.959Z</time></trkpt><trkpt lat="43.8022167" lon="12.8045"><ele>352.0</ele><time>2026-03-29T07:57:14.959Z</time></trkpt><trkpt lat="43.8021983" lon="12.8041217"><ele>353.0</ele><time>2026-03-29T07:57:16.96Z</time></trkpt><trkpt lat="43.8021917" lon="12.803945"><ele>354.0</ele><time>2026-03-29T07:57:17.959Z</time></trkpt><trkpt lat="43.8021833" lon="12.80377"><ele>355.0</ele><time>2026-03-29T07:57:18.96Z</time></trkpt><trkpt lat="43.8021717" lon="12.8036033"><ele>356.0</ele><time>2026-03-29T07:57:19.96Z</time></trkpt><trkpt lat="43.8021633" lon="12.8034483"><ele>356.0</ele><time>2026-03-29T07:57:20.96Z</time></trkpt><trkpt lat="43.8021517" lon="12.8033033"><ele>356.0</ele><time>2026-03-29T07:57:21.959Z</time></trkpt><trkpt lat="43.802115" lon="12.803135"><ele>356.0</ele><time>2026-03-29T07:57:22.96Z</time></trkpt><trkpt lat="43.8020633" lon="12.8029667"><ele>356.0</ele><time>2026-03-29T07:57:23.96Z</time></trkpt><trkpt lat="43.8019883" lon="12.8027867"><ele>357.0</ele><time>2026-03-29T07:57:24.96Z</time></trkpt><trkpt lat="43.801895" lon="12.8026067"><ele>358.0</ele><time>2026-03-29T07:57:25.959Z</time></trkpt><trkpt lat="43.80179" lon="12.8024317"><ele>359.0</ele><time>2026-03-29T07:57:26.959Z</time></trkpt><trkpt lat="43.8016833" lon="12.8022583"><ele>359.0</ele><time>2026-03-29T07:57:27.959Z</time></trkpt><trkpt lat="43.8015717" lon="12.8020933"><ele>359.0</ele><time>2026-03-29T07:57:28.96Z</time></trkpt><trkpt lat="43.8014517" lon="12.80194"><ele>359.0</ele><time>2026-03-29T07:57:29.96Z</time></trkpt><trkpt lat="43.8013217" lon="12.8018017"><ele>359.0</ele><time>2026-03-29T07:57:30.959Z</time></trkpt><trkpt lat="43.8011917" lon="12.80167"><ele>359.0</ele><time>2026-03-29T07:57:31.959Z</time></trkpt><trkpt lat="43.8010717" lon="12.80155"><ele>359.0</ele><time>2026-03-29T07:57:32.96Z</time></trkpt><trkpt lat="43.8009633" lon="12.801415"><ele>359.0</ele><time>2026-03-29T07:57:33.96Z</time></trkpt><trkpt lat="43.8008667" lon="12.80125"><ele>359.0</ele><time>2026-03-29T07:57:34.959Z</time></trkpt><trkpt lat="43.8007883" lon="12.8010517"><ele>359.0</ele><time>2026-03-29T07:57:35.96Z</time></trkpt><trkpt lat="43.8006383" lon="12.8006317"><ele>358.25</ele><time>2026-03-29T07:57:37.96Z</time></trkpt><trkpt lat="43.8005833" lon="12.80044"><ele>357.5</ele><time>2026-03-29T07:57:38.96Z</time></trkpt><trkpt lat="43.8005283" lon="12.8002867"><ele>356.75</ele><time>2026-03-29T07:57:39.959Z</time></trkpt><trkpt lat="43.80047" lon="12.8001517"><ele>356.0</ele><time>2026-03-29T07:57:40.96Z</time></trkpt><trkpt lat="43.8003983" lon="12.8000267"><ele>356.0</ele><time>2026-03-29T07:57:41.959Z</time></trkpt><trkpt lat="43.8003083" lon="12.79993"><ele>356.0</ele><time>2026-03-29T07:57:42.96Z</time></trkpt><trkpt lat="43.80019" lon="12.7998433"><ele>356.0</ele><time>2026-03-29T07:57:43.96Z</time></trkpt><trkpt lat="43.80005" lon="12.7997717"><ele>356.0</ele><time>2026-03-29T07:57:44.959Z</time></trkpt><trkpt lat="43.7998983" lon="12.799705"><ele>357.6666666666667</ele><time>2026-03-29T07:57:45.96Z</time></trkpt><trkpt lat="43.7997283" lon="12.799635"><ele>359.3333333333333</ele><time>2026-03-29T07:57:46.96Z</time></trkpt><trkpt lat="43.7995533" lon="12.799565"><ele>361.0</ele><time>2026-03-29T07:57:47.959Z</time></trkpt><trkpt lat="43.7993733" lon="12.7994983"><ele>359.0</ele><time>2026-03-29T07:57:48.96Z</time></trkpt><trkpt lat="43.7992067" lon="12.7994367"><ele>357.0</ele><time>2026-03-29T07:57:49.959Z</time></trkpt><trkpt lat="43.799065" lon="12.79939"><ele>355.0</ele><time>2026-03-29T07:57:50.96Z</time></trkpt><trkpt lat="43.7989817" lon="12.7993233"><ele>353.0</ele><time>2026-03-29T07:57:51.959Z</time></trkpt><trkpt lat="43.7989033" lon="12.79924"><ele>356.2</ele><time>2026-03-29T07:57:52.959Z</time></trkpt><trkpt lat="43.7988333" lon="12.7991267"><ele>359.4</ele><time>2026-03-29T07:57:53.959Z</time></trkpt><trkpt lat="43.798765" lon="12.7990117"><ele>362.59999999999997</ele><time>2026-03-29T07:57:54.96Z</time></trkpt><trkpt lat="43.7987083" lon="12.7989233"><ele>365.79999999999995</ele><time>2026-03-29T07:57:55.96Z</time></trkpt><trkpt lat="43.7986667" lon="12.7988467"><ele>369.0</ele><time>2026-03-29T07:57:56.959Z</time></trkpt><trkpt lat="43.798655" lon="12.7985783"><ele>368.2</ele><time>2026-03-29T07:57:59.96Z</time></trkpt><trkpt lat="43.79868" lon="12.7984767"><ele>367.4</ele><time>2026-03-29T07:58:00.959Z</time></trkpt><trkpt lat="43.7987317" lon="12.7983717"><ele>366.6</ele><time>2026-03-29T07:58:01.96Z</time></trkpt><trkpt lat="43.7987933" lon="12.7982533"><ele>365.8</ele><time>2026-03-29T07:58:02.959Z</time></trkpt><trkpt lat="43.7988583" lon="12.79812"><ele>365.0</ele><time>2026-03-29T07:58:03.96Z</time></trkpt><trkpt lat="43.7989083" lon="12.7979517"><ele>365.0</ele><time>2026-03-29T07:58:04.959Z</time></trkpt><trkpt lat="43.7989433" lon="12.7977767"><ele>365.0</ele><time>2026-03-29T07:58:05.959Z</time></trkpt><trkpt lat="43.7989617" lon="12.7975967"><ele>365.0</ele><time>2026-03-29T07:58:06.96Z</time></trkpt><trkpt lat="43.798955" lon="12.797385"><ele>365.0</ele><time>2026-03-29T07:58:07.96Z</time></trkpt><trkpt lat="43.79894" lon="12.79717"><ele>363.0</ele><time>2026-03-29T07:58:08.96Z</time></trkpt><trkpt lat="43.7989217" lon="12.796965"><ele>361.0</ele><time>2026-03-29T07:58:09.96Z</time></trkpt><trkpt lat="43.7989017" lon="12.796765"><ele>359.0</ele><time>2026-03-29T07:58:10.96Z</time></trkpt><trkpt lat="43.7988883" lon="12.79659"><ele>357.0</ele><time>2026-03-29T07:58:11.96Z</time></trkpt><trkpt lat="43.7988533" lon="12.79645"><ele>353.75</ele><time>2026-03-29T07:58:12.96Z</time></trkpt><trkpt lat="43.7987983" lon="12.7963267"><ele>350.5</ele><time>2026-03-29T07:58:13.959Z</time></trkpt><trkpt lat="43.7987233" lon="12.7962183"><ele>347.25</ele><time>2026-03-29T07:58:14.959Z</time></trkpt><trkpt lat="43.7986217" lon="12.796105"><ele>344.0</ele><time>2026-03-29T07:58:15.96Z</time></trkpt><trkpt lat="43.7985267" lon="12.7959833"><ele>345.33333333333337</ele><time>2026-03-29T07:58:16.96Z</time></trkpt><trkpt lat="43.79842" lon="12.7958517"><ele>346.6666666666667</ele><time>2026-03-29T07:58:17.96Z</time></trkpt><trkpt lat="43.7982467" lon="12.7956083"><ele>348.0</ele><time>2026-03-29T07:58:19.96Z</time></trkpt><trkpt lat="43.79818" lon="12.7955"><ele>348.0</ele><time>2026-03-29T07:58:20.96Z</time></trkpt><trkpt lat="43.7981383" lon="12.7953833"><ele>348.0</ele><time>2026-03-29T07:58:21.96Z</time></trkpt><trkpt lat="43.7981167" lon="12.7952467"><ele>348.0</ele><time>2026-03-29T07:58:22.959Z</time></trkpt><trkpt lat="43.7981167" lon="12.7951133"><ele>348.0</ele><time>2026-03-29T07:58:23.96Z</time></trkpt><trkpt lat="43.79814" lon="12.7949767"><ele>348.0</ele><time>2026-03-29T07:58:24.959Z</time></trkpt><trkpt lat="43.7981767" lon="12.7948367"><ele>347.5</ele><time>2026-03-29T07:58:25.959Z</time></trkpt><trkpt lat="43.798215" lon="12.79469"><ele>347.0</ele><time>2026-03-29T07:58:26.96Z</time></trkpt><trkpt lat="43.7982333" lon="12.7945383"><ele>346.5</ele><time>2026-03-29T07:58:27.959Z</time></trkpt><trkpt lat="43.7982367" lon="12.7943767"><ele>346.0</ele><time>2026-03-29T07:58:28.96Z</time></trkpt><trkpt lat="43.7982017" lon="12.7942233"><ele>346.0</ele><time>2026-03-29T07:58:29.96Z</time></trkpt><trkpt lat="43.79813" lon="12.79407"><ele>346.0</ele><time>2026-03-29T07:58:30.96Z</time></trkpt><trkpt lat="43.798045" lon="12.79395"><ele>346.0</ele><time>2026-03-29T07:58:31.959Z</time></trkpt><trkpt lat="43.797975" lon="12.7938183"><ele>346.0</ele><time>2026-03-29T07:58:32.96Z</time></trkpt><trkpt lat="43.79791" lon="12.7936933"><ele>346.0</ele><time>2026-03-29T07:58:33.96Z</time></trkpt><trkpt lat="43.7978667" lon="12.7935583"><ele>346.0</ele><time>2026-03-29T07:58:34.96Z</time></trkpt><trkpt lat="43.79784" lon="12.7934117"><ele>346.0</ele><time>2026-03-29T07:58:35.96Z</time></trkpt><trkpt lat="43.79785" lon="12.7932567"><ele>346.0</ele><time>2026-03-29T07:58:36.96Z</time></trkpt><trkpt lat="43.7978867" lon="12.7931033"><ele>346.0</ele><time>2026-03-29T07:58:37.96Z</time></trkpt><trkpt lat="43.797925" lon="12.792945"><ele>352.3333333333333</ele><time>2026-03-29T07:58:38.959Z</time></trkpt><trkpt lat="43.7980067" lon="12.7926133"><ele>358.6666666666667</ele><time>2026-03-29T07:58:40.96Z</time></trkpt><trkpt lat="43.7980033" lon="12.792435"><ele>365.0</ele><time>2026-03-29T07:58:41.959Z</time></trkpt><trkpt lat="43.79797" lon="12.792275"><ele>365.0</ele><time>2026-03-29T07:58:42.959Z</time></trkpt><trkpt lat="43.79792" lon="12.79211"><ele>365.0</ele><time>2026-03-29T07:58:43.96Z</time></trkpt><trkpt lat="43.797855" lon="12.7919417"><ele>365.0</ele><time>2026-03-29T07:58:44.96Z</time></trkpt><trkpt lat="43.7977883" lon="12.79177"><ele>365.0</ele><time>2026-03-29T07:58:45.959Z</time></trkpt><trkpt lat="43.797715" lon="12.7915817"><ele>365.2</ele><time>2026-03-29T07:58:46.959Z</time></trkpt><trkpt lat="43.797635" lon="12.791425"><ele>365.4</ele><time>2026-03-29T07:58:47.959Z</time></trkpt><trkpt lat="43.7975833" lon="12.7912883"><ele>365.6</ele><time>2026-03-29T07:58:48.96Z</time></trkpt><trkpt lat="43.7975517" lon="12.7911567"><ele>365.8</ele><time>2026-03-29T07:58:49.96Z</time></trkpt><trkpt lat="43.7975317" lon="12.7910283"><ele>366.0</ele><time>2026-03-29T07:58:50.96Z</time></trkpt><trkpt lat="43.797535" lon="12.7909217"><ele>366.4</ele><time>2026-03-29T07:58:51.959Z</time></trkpt><trkpt lat="43.797585" lon="12.7907667"><ele>366.8</ele><time>2026-03-29T07:58:53.96Z</time></trkpt><trkpt lat="43.7976433" lon="12.7906983"><ele>367.2</ele><time>2026-03-29T07:58:54.959Z</time></trkpt><trkpt lat="43.7977267" lon="12.79064"><ele>367.59999999999997</ele><time>2026-03-29T07:58:55.959Z</time></trkpt><trkpt lat="43.7978417" lon="12.7905767"><ele>368.0</ele><time>2026-03-29T07:58:56.959Z</time></trkpt><trkpt lat="43.7979783" lon="12.790525"><ele>372.33333333333337</ele><time>2026-03-29T07:58:57.959Z</time></trkpt><trkpt lat="43.7981217" lon="12.7904733"><ele>376.6666666666667</ele><time>2026-03-29T07:58:58.96Z</time></trkpt><trkpt lat="43.79825" lon="12.7904117"><ele>381.0</ele><time>2026-03-29T07:58:59.96Z</time></trkpt><trkpt lat="43.798465" lon="12.790255"><ele>376.5</ele><time>2026-03-29T07:59:01.96Z</time></trkpt><trkpt lat="43.79854" lon="12.7901333"><ele>372.0</ele><time>2026-03-29T07:59:02.959Z</time></trkpt><trkpt lat="43.7986117" lon="12.7900017"><ele>367.5</ele><time>2026-03-29T07:59:03.96Z</time></trkpt><trkpt lat="43.7986583" lon="12.7898233"><ele>363.0</ele><time>2026-03-29T07:59:04.96Z</time></trkpt><trkpt lat="43.7987217" lon="12.789635"><ele>363.0</ele><time>2026-03-29T07:59:05.96Z</time></trkpt><trkpt lat="43.7988183" lon="12.7894683"><ele>363.0</ele><time>2026-03-29T07:59:06.96Z</time></trkpt><trkpt lat="43.7989267" lon="12.7893117"><ele>363.0</ele><time>2026-03-29T07:59:07.959Z</time></trkpt><trkpt lat="43.79905" lon="12.7891367"><ele>360.3333333333333</ele><time>2026-03-29T07:59:08.959Z</time></trkpt><trkpt lat="43.7991917" lon="12.7889533"><ele>357.66666666666663</ele><time>2026-03-29T07:59:09.96Z</time></trkpt><trkpt lat="43.7993467" lon="12.7887817"><ele>355.0</ele><time>2026-03-29T07:59:10.96Z</time></trkpt><trkpt lat="43.799485" lon="12.7886533"><ele>355.0</ele><time>2026-03-29T07:59:11.959Z</time></trkpt><trkpt lat="43.7995967" lon="12.78855"><ele>355.0</ele><time>2026-03-29T07:59:12.96Z</time></trkpt><trkpt lat="43.7996767" lon="12.7884733"><ele>355.0</ele><time>2026-03-29T07:59:13.959Z</time></trkpt><trkpt lat="43.7997433" lon="12.7883783"><ele>355.0</ele><time>2026-03-29T07:59:14.96Z</time></trkpt><trkpt lat="43.7998083" lon="12.78825"><ele>355.0</ele><time>2026-03-29T07:59:15.959Z</time></trkpt><trkpt lat="43.7998533" lon="12.78807"><ele>358.5</ele><time>2026-03-29T07:59:16.96Z</time></trkpt><trkpt lat="43.7998817" lon="12.7878917"><ele>362.0</ele><time>2026-03-29T07:59:17.96Z</time></trkpt><trkpt lat="43.79992" lon="12.7877367"><ele>365.5</ele><time>2026-03-29T07:59:18.96Z</time></trkpt><trkpt lat="43.7999567" lon="12.7876033"><ele>369.0</ele><time>2026-03-29T07:59:19.959Z</time></trkpt><trkpt lat="43.7999533" lon="12.7874683"><ele>371.0</ele><time>2026-03-29T07:59:20.959Z</time></trkpt><trkpt lat="43.7998183" lon="12.7872083"><ele>373.0</ele><time>2026-03-29T07:59:22.96Z</time></trkpt><trkpt lat="43.7997433" lon="12.787075"><ele>375.0</ele><time>2026-03-29T07:59:23.96Z</time></trkpt><trkpt lat="43.7996833" lon="12.7869383"><ele>375.6666666666667</ele><time>2026-03-29T07:59:24.96Z</time></trkpt><trkpt lat="43.79965" lon="12.786815"><ele>376.3333333333333</ele><time>2026-03-29T07:59:25.96Z</time></trkpt><trkpt lat="43.7996383" lon="12.7867067"><ele>377.0</ele><time>2026-03-29T07:59:26.96Z</time></trkpt><trkpt lat="43.7996267" lon="12.786615"><ele>377.66666666666663</ele><time>2026-03-29T07:59:27.96Z</time></trkpt><trkpt lat="43.7996133" lon="12.7864967"><ele>378.3333333333333</ele><time>2026-03-29T07:59:29.96Z</time></trkpt><trkpt lat="43.7995367" lon="12.7864867"><ele>379.0</ele><time>2026-03-29T07:59:32.96Z</time></trkpt><trkpt lat="43.7994717" lon="12.7864883"><ele>379.0</ele><time>2026-03-29T07:59:33.959Z</time></trkpt><trkpt lat="43.7993967" lon="12.7864717"><ele>379.0</ele><time>2026-03-29T07:59:34.96Z</time></trkpt><trkpt lat="43.7993117" lon="12.7864033"><ele>379.0</ele><time>2026-03-29T07:59:35.959Z</time></trkpt><trkpt lat="43.7992117" lon="12.78628"><ele>379.0</ele><time>2026-03-29T07:59:36.96Z</time></trkpt><trkpt lat="43.7991017" lon="12.7860967"><ele>383.3333333333333</ele><time>2026-03-29T07:59:37.959Z</time></trkpt><trkpt lat="43.7989933" lon="12.7858467"><ele>387.66666666666663</ele><time>2026-03-29T07:59:38.96Z</time></trkpt><trkpt lat="43.7989033" lon="12.785585"><ele>392.0</ele><time>2026-03-29T07:59:39.96Z</time></trkpt><trkpt lat="43.798835" lon="12.7853233"><ele>395.5</ele><time>2026-03-29T07:59:40.959Z</time></trkpt><trkpt lat="43.7987633" lon="12.7851083"><ele>399.0</ele><time>2026-03-29T07:59:41.96Z</time></trkpt><trkpt lat="43.798575" lon="12.784805"><ele>394.33333333333337</ele><time>2026-03-29T07:59:43.96Z</time></trkpt><trkpt lat="43.798435" lon="12.7846933"><ele>389.6666666666667</ele><time>2026-03-29T07:59:44.96Z</time></trkpt><trkpt lat="43.79828" lon="12.7846367"><ele>385.0</ele><time>2026-03-29T07:59:45.96Z</time></trkpt><trkpt lat="43.798115" lon="12.784585"><ele>385.0</ele><time>2026-03-29T07:59:46.96Z</time></trkpt><trkpt lat="43.7979417" lon="12.7845333"><ele>385.0</ele><time>2026-03-29T07:59:47.959Z</time></trkpt><trkpt lat="43.79778" lon="12.78444"><ele>385.0</ele><time>2026-03-29T07:59:48.96Z</time></trkpt><trkpt lat="43.79762" lon="12.7843367"><ele>390.0</ele><time>2026-03-29T07:59:49.959Z</time></trkpt><trkpt lat="43.797475" lon="12.7842417"><ele>395.0</ele><time>2026-03-29T07:59:50.959Z</time></trkpt><trkpt lat="43.7973433" lon="12.784155"><ele>400.0</ele><time>2026-03-29T07:59:51.96Z</time></trkpt><trkpt lat="43.7972083" lon="12.7840717"><ele>400.0</ele><time>2026-03-29T07:59:52.96Z</time></trkpt><trkpt lat="43.7970833" lon="12.7839567"><ele>400.0</ele><time>2026-03-29T07:59:53.96Z</time></trkpt><trkpt lat="43.7969667" lon="12.78382"><ele>400.0</ele><time>2026-03-29T07:59:54.959Z</time></trkpt><trkpt lat="43.7968483" lon="12.783705"><ele>400.0</ele><time>2026-03-29T07:59:55.96Z</time></trkpt><trkpt lat="43.796735" lon="12.78362"><ele>397.25</ele><time>2026-03-29T07:59:56.96Z</time></trkpt><trkpt lat="43.7966017" lon="12.7835633"><ele>394.5</ele><time>2026-03-29T07:59:57.96Z</time></trkpt><trkpt lat="43.7964667" lon="12.7835267"><ele>391.75</ele><time>2026-03-29T07:59:58.96Z</time></trkpt><trkpt lat="43.79635" lon="12.7834867"><ele>389.0</ele><time>2026-03-29T07:59:59.959Z</time></trkpt><trkpt lat="43.7962733" lon="12.7834333"><ele>394.75</ele><time>2026-03-29T08:00:00.959Z</time></trkpt><trkpt lat="43.796215" lon="12.7833567"><ele>400.5</ele><time>2026-03-29T08:00:01.96Z</time></trkpt><trkpt lat="43.7961683" lon="12.783265"><ele>406.25</ele><time>2026-03-29T08:00:02.96Z</time></trkpt><trkpt lat="43.7961167" lon="12.78304"><ele>412.0</ele><time>2026-03-29T08:00:05.96Z</time></trkpt><trkpt lat="43.7960983" lon="12.782865"><ele>412.0</ele><time>2026-03-29T08:00:07.959Z</time></trkpt><trkpt lat="43.7960967" lon="12.7827433"><ele>412.0</ele><time>2026-03-29T08:00:08.96Z</time></trkpt><trkpt lat="43.7960983" lon="12.7825967"><ele>412.0</ele><time>2026-03-29T08:00:09.959Z</time></trkpt><trkpt lat="43.7961" lon="12.7824333"><ele>412.0</ele><time>2026-03-29T08:00:10.96Z</time></trkpt><trkpt lat="43.7960717" lon="12.7822617"><ele>412.0</ele><time>2026-03-29T08:00:11.959Z</time></trkpt><trkpt lat="43.7960283" lon="12.782075"><ele>408.6666666666667</ele><time>2026-03-29T08:00:12.959Z</time></trkpt><trkpt lat="43.7959683" lon="12.781895"><ele>405.33333333333337</ele><time>2026-03-29T08:00:13.96Z</time></trkpt><trkpt lat="43.7958767" lon="12.781715"><ele>402.0</ele><time>2026-03-29T08:00:14.96Z</time></trkpt><trkpt lat="43.7957867" lon="12.7815417"><ele>402.0</ele><time>2026-03-29T08:00:15.96Z</time></trkpt><trkpt lat="43.7957183" lon="12.781365"><ele>402.0</ele><time>2026-03-29T08:00:16.96Z</time></trkpt><trkpt lat="43.7956567" lon="12.7811717"><ele>402.0</ele><time>2026-03-29T08:00:17.96Z</time></trkpt><trkpt lat="43.795625" lon="12.7809717"><ele>402.0</ele><time>2026-03-29T08:00:18.959Z</time></trkpt><trkpt lat="43.79562" lon="12.78077"><ele>402.0</ele><time>2026-03-29T08:00:19.96Z</time></trkpt><trkpt lat="43.795635" lon="12.7805933"><ele>402.0</ele><time>2026-03-29T08:00:20.959Z</time></trkpt><trkpt lat="43.7956667" lon="12.7804067"><ele>402.0</ele><time>2026-03-29T08:00:21.959Z</time></trkpt><trkpt lat="43.79572" lon="12.7802117"><ele>402.0</ele><time>2026-03-29T08:00:22.96Z</time></trkpt><trkpt lat="43.7957983" lon="12.78002"><ele>399.66666666666663</ele><time>2026-03-29T08:00:23.96Z</time></trkpt><trkpt lat="43.7959167" lon="12.7796617"><ele>397.3333333333333</ele><time>2026-03-29T08:00:25.96Z</time></trkpt><trkpt lat="43.79596" lon="12.7795117"><ele>395.0</ele><time>2026-03-29T08:00:26.96Z</time></trkpt><trkpt lat="43.7959817" lon="12.77938"><ele>396.49999999999994</ele><time>2026-03-29T08:00:27.96Z</time></trkpt><trkpt lat="43.79599" lon="12.7792533"><ele>398.0</ele><time>2026-03-29T08:00:28.96Z</time></trkpt><trkpt lat="43.795965" lon="12.7791483"><ele>399.5</ele><time>2026-03-29T08:00:29.96Z</time></trkpt><trkpt lat="43.7959333" lon="12.7790667"><ele>401.0</ele><time>2026-03-29T08:00:30.959Z</time></trkpt><trkpt lat="43.795895" lon="12.7789767"><ele>402.49999999999994</ele><time>2026-03-29T08:00:32.959Z</time></trkpt><trkpt lat="43.7959467" lon="12.778895"><ele>404.0</ele><time>2026-03-29T08:00:34.96Z</time></trkpt><trkpt lat="43.7960583" lon="12.7788117"><ele>404.0</ele><time>2026-03-29T08:00:36.96Z</time></trkpt><trkpt lat="43.7961533" lon="12.7787167"><ele>404.0</ele><time>2026-03-29T08:00:37.959Z</time></trkpt><trkpt lat="43.79627" lon="12.7785983"><ele>404.0</ele><time>2026-03-29T08:00:38.959Z</time></trkpt><trkpt lat="43.7964283" lon="12.7784533"><ele>401.66666666666663</ele><time>2026-03-29T08:00:39.959Z</time></trkpt><trkpt lat="43.79658" lon="12.7783283"><ele>399.33333333333337</ele><time>2026-03-29T08:00:40.96Z</time></trkpt><trkpt lat="43.7967317" lon="12.7781983"><ele>397.0</ele><time>2026-03-29T08:00:41.96Z</time></trkpt><trkpt lat="43.7968667" lon="12.7780867"><ele>397.0</ele><time>2026-03-29T08:00:42.959Z</time></trkpt><trkpt lat="43.7970117" lon="12.7779917"><ele>397.0</ele><time>2026-03-29T08:00:43.959Z</time></trkpt><trkpt lat="43.79716" lon="12.77793"><ele>397.0</ele><time>2026-03-29T08:00:44.96Z</time></trkpt><trkpt lat="43.797405" lon="12.7777767"><ele>394.0</ele><time>2026-03-29T08:00:46.96Z</time></trkpt><trkpt lat="43.797515" lon="12.77768"><ele>391.0</ele><time>2026-03-29T08:00:47.96Z</time></trkpt><trkpt lat="43.7976117" lon="12.7774517"><ele>388.0</ele><time>2026-03-29T08:00:48.96Z</time></trkpt><trkpt lat="43.7977017" lon="12.77722"><ele>388.0</ele><time>2026-03-29T08:00:49.959Z</time></trkpt><trkpt lat="43.7977983" lon="12.7770233"><ele>388.0</ele><time>2026-03-29T08:00:50.96Z</time></trkpt><trkpt lat="43.79791" lon="12.776835"><ele>388.0</ele><time>2026-03-29T08:00:51.96Z</time></trkpt><trkpt lat="43.7980333" lon="12.7766417"><ele>385.6666666666667</ele><time>2026-03-29T08:00:52.96Z</time></trkpt><trkpt lat="43.7981483" lon="12.7764183"><ele>383.33333333333337</ele><time>2026-03-29T08:00:53.96Z</time></trkpt><trkpt lat="43.7982667" lon="12.776195"><ele>381.0</ele><time>2026-03-29T08:00:54.959Z</time></trkpt><trkpt lat="43.7983867" lon="12.7759583"><ele>379.3333333333333</ele><time>2026-03-29T08:00:55.959Z</time></trkpt><trkpt lat="43.7984867" lon="12.7757433"><ele>377.66666666666663</ele><time>2026-03-29T08:00:56.959Z</time></trkpt><trkpt lat="43.798595" lon="12.7754917"><ele>376.0</ele><time>2026-03-29T08:00:57.96Z</time></trkpt><trkpt lat="43.79873" lon="12.77526"><ele>376.0</ele><time>2026-03-29T08:00:58.96Z</time></trkpt><trkpt lat="43.798865" lon="12.7750567"><ele>376.0</ele><time>2026-03-29T08:00:59.96Z</time></trkpt><trkpt lat="43.7989783" lon="12.7748867"><ele>376.0</ele><time>2026-03-29T08:01:00.959Z</time></trkpt><trkpt lat="43.7990733" lon="12.7747433"><ele>376.0</ele><time>2026-03-29T08:01:01.959Z</time></trkpt><trkpt lat="43.7991633" lon="12.77459"><ele>376.0</ele><time>2026-03-29T08:01:02.96Z</time></trkpt><trkpt lat="43.7992517" lon="12.7744233"><ele>376.0</ele><time>2026-03-29T08:01:03.959Z</time></trkpt><trkpt lat="43.7993667" lon="12.7742567"><ele>374.3333333333333</ele><time>2026-03-29T08:01:04.959Z</time></trkpt><trkpt lat="43.7994783" lon="12.7741067"><ele>372.6666666666667</ele><time>2026-03-29T08:01:05.96Z</time></trkpt><trkpt lat="43.7996483" lon="12.773825"><ele>371.0</ele><time>2026-03-29T08:01:07.96Z</time></trkpt><trkpt lat="43.79972" lon="12.77369"><ele>371.0</ele><time>2026-03-29T08:01:08.959Z</time></trkpt><trkpt lat="43.799795" lon="12.77356"><ele>371.0</ele><time>2026-03-29T08:01:09.959Z</time></trkpt><trkpt lat="43.79988" lon="12.7734517"><ele>371.0</ele><time>2026-03-29T08:01:10.959Z</time></trkpt><trkpt lat="43.7999767" lon="12.773345"><ele>371.0</ele><time>2026-03-29T08:01:11.96Z</time></trkpt><trkpt lat="43.80007" lon="12.7732467"><ele>373.0</ele><time>2026-03-29T08:01:12.96Z</time></trkpt><trkpt lat="43.800165" lon="12.7731533"><ele>375.0</ele><time>2026-03-29T08:01:13.96Z</time></trkpt><trkpt lat="43.8002533" lon="12.7730683"><ele>377.0</ele><time>2026-03-29T08:01:14.96Z</time></trkpt><trkpt lat="43.80035" lon="12.7729733"><ele>379.0</ele><time>2026-03-29T08:01:15.96Z</time></trkpt><trkpt lat="43.8004367" lon="12.7728867"><ele>381.0</ele><time>2026-03-29T08:01:16.96Z</time></trkpt><trkpt lat="43.8005083" lon="12.7727983"><ele>379.75</ele><time>2026-03-29T08:01:17.96Z</time></trkpt><trkpt lat="43.800575" lon="12.7726783"><ele>378.5</ele><time>2026-03-29T08:01:18.959Z</time></trkpt><trkpt lat="43.8006317" lon="12.772545"><ele>377.25</ele><time>2026-03-29T08:01:19.96Z</time></trkpt><trkpt lat="43.800705" lon="12.7723917"><ele>376.0</ele><time>2026-03-29T08:01:20.96Z</time></trkpt><trkpt lat="43.8008" lon="12.772245"><ele>376.0</ele><time>2026-03-29T08:01:21.96Z</time></trkpt><trkpt lat="43.8009333" lon="12.7721133"><ele>376.0</ele><time>2026-03-29T08:01:22.959Z</time></trkpt><trkpt lat="43.8010783" lon="12.771995"><ele>376.0</ele><time>2026-03-29T08:01:23.96Z</time></trkpt><trkpt lat="43.8012183" lon="12.7718617"><ele>374.3333333333333</ele><time>2026-03-29T08:01:24.96Z</time></trkpt><trkpt lat="43.8013533" lon="12.7717267"><ele>372.6666666666667</ele><time>2026-03-29T08:01:25.96Z</time></trkpt><trkpt lat="43.8014733" lon="12.7716"><ele>371.0</ele><time>2026-03-29T08:01:26.96Z</time></trkpt><trkpt lat="43.8017083" lon="12.771345"><ele>371.0</ele><time>2026-03-29T08:01:28.96Z</time></trkpt><trkpt lat="43.8018317" lon="12.7712533"><ele>371.0</ele><time>2026-03-29T08:01:29.96Z</time></trkpt><trkpt lat="43.80195" lon="12.7711683"><ele>371.0</ele><time>2026-03-29T08:01:30.959Z</time></trkpt><trkpt lat="43.80207" lon="12.7710883"><ele>371.0</ele><time>2026-03-29T08:01:31.96Z</time></trkpt><trkpt lat="43.8021783" lon="12.77099"><ele>371.25</ele><time>2026-03-29T08:01:32.96Z</time></trkpt><trkpt lat="43.8022567" lon="12.7708733"><ele>371.5</ele><time>2026-03-29T08:01:33.96Z</time></trkpt><trkpt lat="43.8023383" lon="12.7707517"><ele>371.75</ele><time>2026-03-29T08:01:34.959Z</time></trkpt><trkpt lat="43.802435" lon="12.7706383"><ele>372.0</ele><time>2026-03-29T08:01:35.96Z</time></trkpt><trkpt lat="43.8025417" lon="12.770555"><ele>372.0</ele><time>2026-03-29T08:01:36.96Z</time></trkpt><trkpt lat="43.8026583" lon="12.7704983"><ele>372.0</ele><time>2026-03-29T08:01:37.96Z</time></trkpt><trkpt lat="43.8027767" lon="12.7704667"><ele>372.0</ele><time>2026-03-29T08:01:38.959Z</time></trkpt><trkpt lat="43.8028817" lon="12.770445"><ele>372.0</ele><time>2026-03-29T08:01:39.96Z</time></trkpt><trkpt lat="43.8029767" lon="12.7704233"><ele>372.0</ele><time>2026-03-29T08:01:40.96Z</time></trkpt><trkpt lat="43.8030717" lon="12.770395"><ele>371.8</ele><time>2026-03-29T08:01:41.96Z</time></trkpt><trkpt lat="43.8031517" lon="12.7703783"><ele>371.6</ele><time>2026-03-29T08:01:42.96Z</time></trkpt><trkpt lat="43.80324" lon="12.770375"><ele>371.40000000000003</ele><time>2026-03-29T08:01:43.96Z</time></trkpt><trkpt lat="43.8033283" lon="12.770405"><ele>371.20000000000005</ele><time>2026-03-29T08:01:44.96Z</time></trkpt><trkpt lat="43.803425" lon="12.770475"><ele>371.0</ele><time>2026-03-29T08:01:45.959Z</time></trkpt><trkpt lat="43.80354" lon="12.7705667"><ele>368.5</ele><time>2026-03-29T08:01:46.96Z</time></trkpt><trkpt lat="43.8036517" lon="12.770655"><ele>366.0</ele><time>2026-03-29T08:01:47.959Z</time></trkpt><trkpt lat="43.8038467" lon="12.770795"><ele>363.5</ele><time>2026-03-29T08:01:49.959Z</time></trkpt><trkpt lat="43.8039283" lon="12.770855"><ele>361.0</ele><time>2026-03-29T08:01:50.96Z</time></trkpt><trkpt lat="43.8039983" lon="12.7709117"><ele>361.0</ele><time>2026-03-29T08:01:51.959Z</time></trkpt><trkpt lat="43.8040567" lon="12.7709817"><ele>361.0</ele><time>2026-03-29T08:01:52.96Z</time></trkpt><trkpt lat="43.8041117" lon="12.7710617"><ele>361.0</ele><time>2026-03-29T08:01:53.96Z</time></trkpt><trkpt lat="43.80417" lon="12.7711483"><ele>361.0</ele><time>2026-03-29T08:01:54.959Z</time></trkpt><trkpt lat="43.804235" lon="12.7712483"><ele>361.0</ele><time>2026-03-29T08:01:55.96Z</time></trkpt><trkpt lat="43.8042783" lon="12.771355"><ele>361.0</ele><time>2026-03-29T08:01:56.96Z</time></trkpt><trkpt lat="43.8043167" lon="12.7714683"><ele>355.0</ele><time>2026-03-29T08:01:57.959Z</time></trkpt><trkpt lat="43.8043517" lon="12.7715867"><ele>349.0</ele><time>2026-03-29T08:01:58.96Z</time></trkpt><trkpt lat="43.8044017" lon="12.7717"><ele>343.0</ele><time>2026-03-29T08:01:59.96Z</time></trkpt><trkpt lat="43.8044567" lon="12.7717983"><ele>337.0</ele><time>2026-03-29T08:02:00.959Z</time></trkpt><trkpt lat="43.8045167" lon="12.77189"><ele>331.0</ele><time>2026-03-29T08:02:01.959Z</time></trkpt><trkpt lat="43.8045967" lon="12.77198"><ele>331.0</ele><time>2026-03-29T08:02:02.959Z</time></trkpt><trkpt lat="43.804675" lon="12.7720667"><ele>331.0</ele><time>2026-03-29T08:02:03.96Z</time></trkpt><trkpt lat="43.8047367" lon="12.7721483"><ele>331.0</ele><time>2026-03-29T08:02:04.96Z</time></trkpt><trkpt lat="43.8047817" lon="12.7722583"><ele>331.0</ele><time>2026-03-29T08:02:05.959Z</time></trkpt><trkpt lat="43.8048" lon="12.7723667"><ele>331.0</ele><time>2026-03-29T08:02:06.96Z</time></trkpt><trkpt lat="43.804785" lon="12.772505"><ele>331.0</ele><time>2026-03-29T08:02:08.959Z</time></trkpt><trkpt lat="43.8049317" lon="12.77257"><ele>331.0</ele><time>2026-03-29T08:02:13.96Z</time></trkpt><trkpt lat="43.804985" lon="12.7724933"><ele>331.0</ele><time>2026-03-29T08:02:14.959Z</time></trkpt><trkpt lat="43.8050433" lon="12.7724"><ele>331.0</ele><time>2026-03-29T08:02:15.959Z</time></trkpt><trkpt lat="43.8050983" lon="12.7723367"><ele>331.0</ele><time>2026-03-29T08:02:16.96Z</time></trkpt><trkpt lat="43.8051667" lon="12.772295"><ele>326.5</ele><time>2026-03-29T08:02:18.959Z</time></trkpt><trkpt lat="43.805225" lon="12.77238"><ele>322.0</ele><time>2026-03-29T08:02:20.96Z</time></trkpt><trkpt lat="43.805245" lon="12.7724783"><ele>317.5</ele><time>2026-03-29T08:02:21.96Z</time></trkpt><trkpt lat="43.8052733" lon="12.77258"><ele>313.0</ele><time>2026-03-29T08:02:22.96Z</time></trkpt><trkpt lat="43.805305" lon="12.7726717"><ele>308.5</ele><time>2026-03-29T08:02:23.96Z</time></trkpt><trkpt lat="43.8053483" lon="12.77276"><ele>304.0</ele><time>2026-03-29T08:02:24.96Z</time></trkpt><trkpt lat="43.8054017" lon="12.7728283"><ele>303.59999999999997</ele><time>2026-03-29T08:02:25.96Z</time></trkpt><trkpt lat="43.805475" lon="12.772885"><ele>303.2</ele><time>2026-03-29T08:02:26.959Z</time></trkpt><trkpt lat="43.8055667" lon="12.772905"><ele>302.79999999999995</ele><time>2026-03-29T08:02:27.959Z</time></trkpt><trkpt lat="43.805665" lon="12.7729017"><ele>302.4</ele><time>2026-03-29T08:02:28.96Z</time></trkpt><trkpt lat="43.80577" lon="12.7728883"><ele>302.0</ele><time>2026-03-29T08:02:29.959Z</time></trkpt><trkpt lat="43.8059733" lon="12.772925"><ele>299.75</ele><time>2026-03-29T08:02:31.96Z</time></trkpt><trkpt lat="43.8060683" lon="12.7729867"><ele>297.5</ele><time>2026-03-29T08:02:32.96Z</time></trkpt><trkpt lat="43.806165" lon="12.7730667"><ele>295.25</ele><time>2026-03-29T08:02:33.959Z</time></trkpt><trkpt lat="43.8062817" lon="12.7731633"><ele>293.0</ele><time>2026-03-29T08:02:34.96Z</time></trkpt><trkpt lat="43.806395" lon="12.7732517"><ele>293.0</ele><time>2026-03-29T08:02:35.96Z</time></trkpt><trkpt lat="43.8064983" lon="12.7733367"><ele>293.0</ele><time>2026-03-29T08:02:36.959Z</time></trkpt><trkpt lat="43.8066117" lon="12.773415"><ele>293.0</ele><time>2026-03-29T08:02:37.96Z</time></trkpt><trkpt lat="43.806725" lon="12.773475"><ele>293.0</ele><time>2026-03-29T08:02:38.959Z</time></trkpt><trkpt lat="43.806835" lon="12.7735133"><ele>289.6</ele><time>2026-03-29T08:02:39.959Z</time></trkpt><trkpt lat="43.8069333" lon="12.7735367"><ele>286.20000000000005</ele><time>2026-03-29T08:02:40.96Z</time></trkpt><trkpt lat="43.8070267" lon="12.7735583"><ele>282.8</ele><time>2026-03-29T08:02:41.959Z</time></trkpt><trkpt lat="43.80712" lon="12.773565"><ele>279.40000000000003</ele><time>2026-03-29T08:02:42.96Z</time></trkpt><trkpt lat="43.807215" lon="12.7735617"><ele>276.0</ele><time>2026-03-29T08:02:43.959Z</time></trkpt><trkpt lat="43.8073" lon="12.773545"><ele>277.25</ele><time>2026-03-29T08:02:44.959Z</time></trkpt><trkpt lat="43.8073933" lon="12.7734967"><ele>278.5</ele><time>2026-03-29T08:02:45.96Z</time></trkpt><trkpt lat="43.807505" lon="12.7734417"><ele>279.75</ele><time>2026-03-29T08:02:46.959Z</time></trkpt><trkpt lat="43.8076167" lon="12.7733967"><ele>281.0</ele><time>2026-03-29T08:02:47.959Z</time></trkpt><trkpt lat="43.8077317" lon="12.773365"><ele>281.0</ele><time>2026-03-29T08:02:48.96Z</time></trkpt><trkpt lat="43.8078533" lon="12.77333"><ele>281.0</ele><time>2026-03-29T08:02:49.96Z</time></trkpt><trkpt lat="43.807975" lon="12.7733183"><ele>281.0</ele><time>2026-03-29T08:02:50.96Z</time></trkpt><trkpt lat="43.8082" lon="12.7733467"><ele>281.0</ele><time>2026-03-29T08:02:52.96Z</time></trkpt><trkpt lat="43.808315" lon="12.773375"><ele>281.0</ele><time>2026-03-29T08:02:53.96Z</time></trkpt><trkpt lat="43.8084317" lon="12.773425"><ele>281.0</ele><time>2026-03-29T08:02:54.96Z</time></trkpt><trkpt lat="43.8085383" lon="12.7734983"><ele>281.0</ele><time>2026-03-29T08:02:55.959Z</time></trkpt><trkpt lat="43.8086383" lon="12.7735867"><ele>279.8</ele><time>2026-03-29T08:02:56.959Z</time></trkpt><trkpt lat="43.80873" lon="12.7736783"><ele>278.6</ele><time>2026-03-29T08:02:57.959Z</time></trkpt><trkpt lat="43.8088233" lon="12.7737733"><ele>277.4</ele><time>2026-03-29T08:02:58.96Z</time></trkpt><trkpt lat="43.808895" lon="12.7738617"><ele>276.2</ele><time>2026-03-29T08:02:59.96Z</time></trkpt><trkpt lat="43.8089717" lon="12.7739867"><ele>275.0</ele><time>2026-03-29T08:03:00.959Z</time></trkpt><trkpt lat="43.8090433" lon="12.7741233"><ele>275.0</ele><time>2026-03-29T08:03:01.96Z</time></trkpt><trkpt lat="43.8091233" lon="12.7742533"><ele>275.0</ele><time>2026-03-29T08:03:02.96Z</time></trkpt><trkpt lat="43.8092083" lon="12.774365"><ele>275.0</ele><time>2026-03-29T08:03:03.96Z</time></trkpt><trkpt lat="43.8092917" lon="12.7744667"><ele>275.0</ele><time>2026-03-29T08:03:04.96Z</time></trkpt><trkpt lat="43.80937" lon="12.774555"><ele>272.25</ele><time>2026-03-29T08:03:05.96Z</time></trkpt><trkpt lat="43.8094533" lon="12.7746267"><ele>269.5</ele><time>2026-03-29T08:03:06.96Z</time></trkpt><trkpt lat="43.80957" lon="12.7746967"><ele>266.75</ele><time>2026-03-29T08:03:07.959Z</time></trkpt><trkpt lat="43.8096983" lon="12.774755"><ele>264.0</ele><time>2026-03-29T08:03:08.96Z</time></trkpt><trkpt lat="43.809825" lon="12.7748017"><ele>264.0</ele><time>2026-03-29T08:03:09.959Z</time></trkpt><trkpt lat="43.8099483" lon="12.7748233"><ele>264.0</ele><time>2026-03-29T08:03:10.96Z</time></trkpt><trkpt lat="43.8100583" lon="12.7748233"><ele>264.0</ele><time>2026-03-29T08:03:11.96Z</time></trkpt><trkpt lat="43.8102567" lon="12.7747683"><ele>264.0</ele><time>2026-03-29T08:03:13.959Z</time></trkpt><trkpt lat="43.8103417" lon="12.7747067"><ele>262.0</ele><time>2026-03-29T08:03:14.959Z</time></trkpt><trkpt lat="43.810445" lon="12.774625"><ele>260.0</ele><time>2026-03-29T08:03:15.959Z</time></trkpt><trkpt lat="43.8105633" lon="12.7745467"><ele>258.0</ele><time>2026-03-29T08:03:16.959Z</time></trkpt><trkpt lat="43.8106933" lon="12.7744817"><ele>256.0</ele><time>2026-03-29T08:03:17.959Z</time></trkpt><trkpt lat="43.8108133" lon="12.77443"><ele>256.0</ele><time>2026-03-29T08:03:18.96Z</time></trkpt><trkpt lat="43.8109233" lon="12.7743833"><ele>256.0</ele><time>2026-03-29T08:03:19.96Z</time></trkpt><trkpt lat="43.8110217" lon="12.7743167"><ele>256.0</ele><time>2026-03-29T08:03:20.959Z</time></trkpt><trkpt lat="43.8111167" lon="12.77424"><ele>256.0</ele><time>2026-03-29T08:03:21.959Z</time></trkpt><trkpt lat="43.81123" lon="12.774195"><ele>259.25</ele><time>2026-03-29T08:03:22.96Z</time></trkpt><trkpt lat="43.8113667" lon="12.7741733"><ele>262.5</ele><time>2026-03-29T08:03:23.96Z</time></trkpt><trkpt lat="43.8114983" lon="12.77418"><ele>265.75</ele><time>2026-03-29T08:03:24.96Z</time></trkpt><trkpt lat="43.8116217" lon="12.7741967"><ele>269.0</ele><time>2026-03-29T08:03:25.96Z</time></trkpt><trkpt lat="43.811735" lon="12.7742133"><ele>265.5</ele><time>2026-03-29T08:03:26.959Z</time></trkpt><trkpt lat="43.8118533" lon="12.77423"><ele>262.0</ele><time>2026-03-29T08:03:27.96Z</time></trkpt><trkpt lat="43.8119767" lon="12.774225"><ele>258.5</ele><time>2026-03-29T08:03:28.96Z</time></trkpt><trkpt lat="43.8120933" lon="12.7741967"><ele>255.0</ele><time>2026-03-29T08:03:29.96Z</time></trkpt><trkpt lat="43.812215" lon="12.7741583"><ele>255.0</ele><time>2026-03-29T08:03:30.959Z</time></trkpt><trkpt lat="43.81233" lon="12.7741"><ele>255.0</ele><time>2026-03-29T08:03:31.959Z</time></trkpt><trkpt lat="43.8124517" lon="12.7740117"><ele>255.0</ele><time>2026-03-29T08:03:32.96Z</time></trkpt><trkpt lat="43.8126417" lon="12.7738083"><ele>254.25</ele><time>2026-03-29T08:03:34.96Z</time></trkpt><trkpt lat="43.8126983" lon="12.7736683"><ele>253.5</ele><time>2026-03-29T08:03:35.96Z</time></trkpt><trkpt lat="43.8127583" lon="12.7735033"><ele>252.75</ele><time>2026-03-29T08:03:36.959Z</time></trkpt><trkpt lat="43.81282" lon="12.7733467"><ele>252.0</ele><time>2026-03-29T08:03:37.959Z</time></trkpt><trkpt lat="43.8128917" lon="12.7732117"><ele>252.0</ele><time>2026-03-29T08:03:38.96Z</time></trkpt><trkpt lat="43.81295" lon="12.7730967"><ele>252.0</ele><time>2026-03-29T08:03:39.959Z</time></trkpt><trkpt lat="43.8130167" lon="12.7729967"><ele>252.0</ele><time>2026-03-29T08:03:40.96Z</time></trkpt><trkpt lat="43.813085" lon="12.7729333"><ele>252.0</ele><time>2026-03-29T08:03:41.959Z</time></trkpt><trkpt lat="43.8131533" lon="12.7728983"><ele>252.0</ele><time>2026-03-29T08:03:42.96Z</time></trkpt><trkpt lat="43.8132233" lon="12.77288"><ele>252.0</ele><time>2026-03-29T08:03:43.959Z</time></trkpt><trkpt lat="43.8133033" lon="12.7729033"><ele>252.0</ele><time>2026-03-29T08:03:44.959Z</time></trkpt><trkpt lat="43.8133783" lon="12.7729717"><ele>252.0</ele><time>2026-03-29T08:03:45.96Z</time></trkpt><trkpt lat="43.8134467" lon="12.773075"><ele>252.0</ele><time>2026-03-29T08:03:46.96Z</time></trkpt><trkpt lat="43.813495" lon="12.77321"><ele>252.0</ele><time>2026-03-29T08:03:47.96Z</time></trkpt><trkpt lat="43.8135133" lon="12.77333"><ele>252.0</ele><time>2026-03-29T08:03:48.959Z</time></trkpt><trkpt lat="43.81352" lon="12.7734333"><ele>248.2</ele><time>2026-03-29T08:03:49.959Z</time></trkpt><trkpt lat="43.8134967" lon="12.7735617"><ele>244.39999999999998</ele><time>2026-03-29T08:03:51.96Z</time></trkpt><trkpt lat="43.81355" lon="12.7736517"><ele>240.60000000000002</ele><time>2026-03-29T08:03:54.959Z</time></trkpt><trkpt lat="43.8136983" lon="12.7734633"><ele>236.8</ele><time>2026-03-29T08:03:57.96Z</time></trkpt><trkpt lat="43.8137533" lon="12.77342"><ele>233.0</ele><time>2026-03-29T08:03:58.96Z</time></trkpt><trkpt lat="43.8137983" lon="12.7734967"><ele>231.5</ele><time>2026-03-29T08:04:00.96Z</time></trkpt><trkpt lat="43.813825" lon="12.77364"><ele>230.0</ele><time>2026-03-29T08:04:02.959Z</time></trkpt><trkpt lat="43.8139183" lon="12.7737317"><ele>228.5</ele><time>2026-03-29T08:04:04.96Z</time></trkpt><trkpt lat="43.81403" lon="12.7737183"><ele>227.0</ele><time>2026-03-29T08:04:06.96Z</time></trkpt><trkpt lat="43.8141167" lon="12.77356"><ele>228.2</ele><time>2026-03-29T08:04:08.959Z</time></trkpt><trkpt lat="43.81416" lon="12.773435"><ele>229.39999999999998</ele><time>2026-03-29T08:04:09.959Z</time></trkpt><trkpt lat="43.8142117" lon="12.77335"><ele>230.60000000000002</ele><time>2026-03-29T08:04:10.959Z</time></trkpt><trkpt lat="43.8143317" lon="12.7733333"><ele>231.8</ele><time>2026-03-29T08:04:12.96Z</time></trkpt><trkpt lat="43.814385" lon="12.77341"><ele>233.0</ele><time>2026-03-29T08:04:13.96Z</time></trkpt><trkpt lat="43.8144183" lon="12.7735017"><ele>231.8</ele><time>2026-03-29T08:04:14.96Z</time></trkpt><trkpt lat="43.8144167" lon="12.7736083"><ele>230.60000000000002</ele><time>2026-03-29T08:04:15.96Z</time></trkpt><trkpt lat="43.814345" lon="12.7738083"><ele>229.39999999999998</ele><time>2026-03-29T08:04:17.96Z</time></trkpt><trkpt lat="43.81429" lon="12.77393"><ele>228.2</ele><time>2026-03-29T08:04:19.96Z</time></trkpt><trkpt lat="43.8143417" lon="12.7740233"><ele>227.0</ele><time>2026-03-29T08:04:21.959Z</time></trkpt><trkpt lat="43.8145" lon="12.7740167"><ele>222.33333333333334</ele><time>2026-03-29T08:04:23.96Z</time></trkpt><trkpt lat="43.8146283" lon="12.7739617"><ele>217.66666666666669</ele><time>2026-03-29T08:04:24.96Z</time></trkpt><trkpt lat="43.8147733" lon="12.7738967"><ele>213.0</ele><time>2026-03-29T08:04:25.96Z</time></trkpt><trkpt lat="43.814945" lon="12.7738417"><ele>213.0</ele><time>2026-03-29T08:04:26.959Z</time></trkpt><trkpt lat="43.8151067" lon="12.77383"><ele>213.0</ele><time>2026-03-29T08:04:27.96Z</time></trkpt><trkpt lat="43.8152733" lon="12.7738267"><ele>213.0</ele><time>2026-03-29T08:04:28.959Z</time></trkpt><trkpt lat="43.8154333" lon="12.7738367"><ele>212.33333333333331</ele><time>2026-03-29T08:04:29.959Z</time></trkpt><trkpt lat="43.8156133" lon="12.773855"><ele>211.66666666666666</ele><time>2026-03-29T08:04:30.96Z</time></trkpt><trkpt lat="43.8158" lon="12.77387"><ele>211.0</ele><time>2026-03-29T08:04:31.959Z</time></trkpt><trkpt lat="43.8159967" lon="12.773875"><ele>213.33333333333331</ele><time>2026-03-29T08:04:32.96Z</time></trkpt><trkpt lat="43.8161983" lon="12.7738867"><ele>215.66666666666669</ele><time>2026-03-29T08:04:33.96Z</time></trkpt><trkpt lat="43.8164117" lon="12.7739017"><ele>218.0</ele><time>2026-03-29T08:04:34.959Z</time></trkpt><trkpt lat="43.8166333" lon="12.7739117"><ele>218.5</ele><time>2026-03-29T08:04:35.96Z</time></trkpt><trkpt lat="43.81685" lon="12.77392"><ele>219.0</ele><time>2026-03-29T08:04:36.96Z</time></trkpt><trkpt lat="43.8172067" lon="12.7739383"><ele>219.0</ele><time>2026-03-29T08:04:38.959Z</time></trkpt><trkpt lat="43.8173567" lon="12.7739433"><ele>219.0</ele><time>2026-03-29T08:04:39.96Z</time></trkpt><trkpt lat="43.8175" lon="12.7739683"><ele>219.0</ele><time>2026-03-29T08:04:40.96Z</time></trkpt><trkpt lat="43.8176433" lon="12.7740183"><ele>219.0</ele><time>2026-03-29T08:04:41.96Z</time></trkpt><trkpt lat="43.81779" lon="12.7740933"><ele>217.0</ele><time>2026-03-29T08:04:42.96Z</time></trkpt><trkpt lat="43.817945" lon="12.774175"><ele>215.0</ele><time>2026-03-29T08:04:43.959Z</time></trkpt><trkpt lat="43.8181033" lon="12.774265"><ele>213.0</ele><time>2026-03-29T08:04:44.96Z</time></trkpt><trkpt lat="43.81826" lon="12.774355"><ele>213.0</ele><time>2026-03-29T08:04:45.959Z</time></trkpt><trkpt lat="43.8184067" lon="12.7744333"><ele>213.0</ele><time>2026-03-29T08:04:46.959Z</time></trkpt><trkpt lat="43.818535" lon="12.7744983"><ele>213.0</ele><time>2026-03-29T08:04:47.96Z</time></trkpt><trkpt lat="43.8186583" lon="12.774535"><ele>213.0</ele><time>2026-03-29T08:04:48.959Z</time></trkpt><trkpt lat="43.8187833" lon="12.7745467"><ele>211.25</ele><time>2026-03-29T08:04:49.96Z</time></trkpt><trkpt lat="43.8189067" lon="12.7745467"><ele>209.5</ele><time>2026-03-29T08:04:50.96Z</time></trkpt><trkpt lat="43.819035" lon="12.77456"><ele>207.75</ele><time>2026-03-29T08:04:51.959Z</time></trkpt><trkpt lat="43.81916" lon="12.7745567"><ele>206.0</ele><time>2026-03-29T08:04:52.96Z</time></trkpt><trkpt lat="43.8192917" lon="12.7745717"><ele>205.25</ele><time>2026-03-29T08:04:53.959Z</time></trkpt><trkpt lat="43.81943" lon="12.77459"><ele>204.5</ele><time>2026-03-29T08:04:54.96Z</time></trkpt><trkpt lat="43.8195683" lon="12.77462"><ele>203.75</ele><time>2026-03-29T08:04:55.959Z</time></trkpt><trkpt lat="43.8197017" lon="12.774635"><ele>203.0</ele><time>2026-03-29T08:04:56.96Z</time></trkpt><trkpt lat="43.81984" lon="12.7746417"><ele>203.0</ele><time>2026-03-29T08:04:57.96Z</time></trkpt><trkpt lat="43.8201233" lon="12.7746067"><ele>203.0</ele><time>2026-03-29T08:04:59.959Z</time></trkpt><trkpt lat="43.8202883" lon="12.7745583"><ele>202.33333333333334</ele><time>2026-03-29T08:05:00.96Z</time></trkpt><trkpt lat="43.8204417" lon="12.7745"><ele>201.66666666666669</ele><time>2026-03-29T08:05:01.96Z</time></trkpt><trkpt lat="43.82059" lon="12.7744533"><ele>201.0</ele><time>2026-03-29T08:05:02.959Z</time></trkpt><trkpt lat="43.8207267" lon="12.774405"><ele>201.0</ele><time>2026-03-29T08:05:03.959Z</time></trkpt><trkpt lat="43.8208467" lon="12.77439"><ele>201.0</ele><time>2026-03-29T08:05:04.96Z</time></trkpt><trkpt lat="43.820975" lon="12.7744117"><ele>201.0</ele><time>2026-03-29T08:05:05.96Z</time></trkpt><trkpt lat="43.821115" lon="12.77444"><ele>201.0</ele><time>2026-03-29T08:05:06.959Z</time></trkpt><trkpt lat="43.8212617" lon="12.7744967"><ele>200.25</ele><time>2026-03-29T08:05:07.96Z</time></trkpt><trkpt lat="43.8213933" lon="12.7745433"><ele>199.5</ele><time>2026-03-29T08:05:08.959Z</time></trkpt><trkpt lat="43.82152" lon="12.774585"><ele>198.75</ele><time>2026-03-29T08:05:09.959Z</time></trkpt><trkpt lat="43.8216483" lon="12.7746067"><ele>198.0</ele><time>2026-03-29T08:05:10.96Z</time></trkpt><trkpt lat="43.8217883" lon="12.7746083"><ele>197.66666666666669</ele><time>2026-03-29T08:05:11.96Z</time></trkpt><trkpt lat="43.821935" lon="12.7745767"><ele>197.33333333333334</ele><time>2026-03-29T08:05:12.959Z</time></trkpt><trkpt lat="43.82208" lon="12.7745017"><ele>197.0</ele><time>2026-03-29T08:05:13.96Z</time></trkpt><trkpt lat="43.8222317" lon="12.774435"><ele>197.33333333333334</ele><time>2026-03-29T08:05:14.96Z</time></trkpt><trkpt lat="43.8223967" lon="12.77434"><ele>197.66666666666669</ele><time>2026-03-29T08:05:15.959Z</time></trkpt><trkpt lat="43.8225667" lon="12.7742633"><ele>198.0</ele><time>2026-03-29T08:05:16.96Z</time></trkpt><trkpt lat="43.8227333" lon="12.7742133"><ele>195.0</ele><time>2026-03-29T08:05:17.96Z</time></trkpt><trkpt lat="43.822915" lon="12.7741733"><ele>192.0</ele><time>2026-03-29T08:05:18.96Z</time></trkpt><trkpt lat="43.8232583" lon="12.7740767"><ele>192.0</ele><time>2026-03-29T08:05:20.96Z</time></trkpt><trkpt lat="43.8234133" lon="12.77401"><ele>192.0</ele><time>2026-03-29T08:05:21.96Z</time></trkpt><trkpt lat="43.8235517" lon="12.7739283"><ele>192.0</ele><time>2026-03-29T08:05:22.959Z</time></trkpt><trkpt lat="43.8236733" lon="12.7738417"><ele>192.0</ele><time>2026-03-29T08:05:23.959Z</time></trkpt><trkpt lat="43.823785" lon="12.773735"><ele>192.33333333333331</ele><time>2026-03-29T08:05:24.96Z</time></trkpt><trkpt lat="43.8238917" lon="12.7735883"><ele>192.66666666666666</ele><time>2026-03-29T08:05:25.959Z</time></trkpt><trkpt lat="43.8239967" lon="12.7734383"><ele>193.0</ele><time>2026-03-29T08:05:26.959Z</time></trkpt><trkpt lat="43.8241133" lon="12.773295"><ele>193.0</ele><time>2026-03-29T08:05:27.959Z</time></trkpt><trkpt lat="43.824245" lon="12.7731783"><ele>193.0</ele><time>2026-03-29T08:05:28.96Z</time></trkpt><trkpt lat="43.82439" lon="12.7730833"><ele>193.0</ele><time>2026-03-29T08:05:29.959Z</time></trkpt><trkpt lat="43.8245417" lon="12.7729883"><ele>190.66666666666666</ele><time>2026-03-29T08:05:30.96Z</time></trkpt><trkpt lat="43.8246833" lon="12.7728833"><ele>188.33333333333331</ele><time>2026-03-29T08:05:31.959Z</time></trkpt><trkpt lat="43.824815" lon="12.772755"><ele>186.0</ele><time>2026-03-29T08:05:32.959Z</time></trkpt><trkpt lat="43.8249417" lon="12.7726233"><ele>186.0</ele><time>2026-03-29T08:05:33.96Z</time></trkpt><trkpt lat="43.8250567" lon="12.77249"><ele>186.0</ele><time>2026-03-29T08:05:34.959Z</time></trkpt><trkpt lat="43.8251633" lon="12.772365"><ele>186.0</ele><time>2026-03-29T08:05:35.96Z</time></trkpt><trkpt lat="43.82528" lon="12.7722533"><ele>186.0</ele><time>2026-03-29T08:05:36.96Z</time></trkpt><trkpt lat="43.8254083" lon="12.7721733"><ele>181.0</ele><time>2026-03-29T08:05:37.96Z</time></trkpt><trkpt lat="43.82556" lon="12.7720967"><ele>176.0</ele><time>2026-03-29T08:05:38.96Z</time></trkpt><trkpt lat="43.82572" lon="12.7720167"><ele>171.0</ele><time>2026-03-29T08:05:39.96Z</time></trkpt><trkpt lat="43.826035" lon="12.771855"><ele>170.75</ele><time>2026-03-29T08:05:41.96Z</time></trkpt><trkpt lat="43.8261683" lon="12.7717783"><ele>170.5</ele><time>2026-03-29T08:05:42.959Z</time></trkpt><trkpt lat="43.8262933" lon="12.77169"><ele>170.25</ele><time>2026-03-29T08:05:43.959Z</time></trkpt><trkpt lat="43.82641" lon="12.7715883"><ele>170.0</ele><time>2026-03-29T08:05:44.959Z</time></trkpt><trkpt lat="43.8265217" lon="12.7714583"><ele>170.0</ele><time>2026-03-29T08:05:45.96Z</time></trkpt><trkpt lat="43.8266333" lon="12.7712933"><ele>170.0</ele><time>2026-03-29T08:05:46.959Z</time></trkpt><trkpt lat="43.82675" lon="12.7711217"><ele>170.0</ele><time>2026-03-29T08:05:47.959Z</time></trkpt><trkpt lat="43.82688" lon="12.77093"><ele>167.66666666666666</ele><time>2026-03-29T08:05:48.96Z</time></trkpt><trkpt lat="43.827025" lon="12.7707283"><ele>165.33333333333334</ele><time>2026-03-29T08:05:49.959Z</time></trkpt><trkpt lat="43.8271817" lon="12.770525"><ele>163.0</ele><time>2026-03-29T08:05:50.96Z</time></trkpt><trkpt lat="43.8273233" lon="12.770325"><ele>164.0</ele><time>2026-03-29T08:05:51.96Z</time></trkpt><trkpt lat="43.8274683" lon="12.7701383"><ele>165.0</ele><time>2026-03-29T08:05:52.96Z</time></trkpt><trkpt lat="43.8275917" lon="12.7699633"><ele>166.0</ele><time>2026-03-29T08:05:53.959Z</time></trkpt><trkpt lat="43.8277217" lon="12.7697817"><ele>164.33333333333334</ele><time>2026-03-29T08:05:54.959Z</time></trkpt><trkpt lat="43.827855" lon="12.769585"><ele>162.66666666666666</ele><time>2026-03-29T08:05:55.959Z</time></trkpt><trkpt lat="43.8279867" lon="12.7694017"><ele>161.0</ele><time>2026-03-29T08:05:56.959Z</time></trkpt><trkpt lat="43.828115" lon="12.7692283"><ele>161.0</ele><time>2026-03-29T08:05:57.959Z</time></trkpt><trkpt lat="43.828235" lon="12.7690633"><ele>161.0</ele><time>2026-03-29T08:05:58.959Z</time></trkpt><trkpt lat="43.8283533" lon="12.7688967"><ele>161.0</ele><time>2026-03-29T08:05:59.96Z</time></trkpt><trkpt lat="43.828455" lon="12.7687433"><ele>158.33333333333331</ele><time>2026-03-29T08:06:00.96Z</time></trkpt><trkpt lat="43.8286617" lon="12.7684567"><ele>155.66666666666666</ele><time>2026-03-29T08:06:02.96Z</time></trkpt><trkpt lat="43.82877" lon="12.7683267"><ele>153.0</ele><time>2026-03-29T08:06:03.96Z</time></trkpt><trkpt lat="43.8288917" lon="12.7681967"><ele>153.0</ele><time>2026-03-29T08:06:04.959Z</time></trkpt><trkpt lat="43.8290183" lon="12.768075"><ele>153.0</ele><time>2026-03-29T08:06:05.959Z</time></trkpt><trkpt lat="43.8291467" lon="12.76795"><ele>153.0</ele><time>2026-03-29T08:06:06.96Z</time></trkpt><trkpt lat="43.8292717" lon="12.76782"><ele>151.5</ele><time>2026-03-29T08:06:07.959Z</time></trkpt><trkpt lat="43.82939" lon="12.767695"><ele>150.0</ele><time>2026-03-29T08:06:08.96Z</time></trkpt><trkpt lat="43.8295033" lon="12.7675667"><ele>148.5</ele><time>2026-03-29T08:06:09.96Z</time></trkpt><trkpt lat="43.8296117" lon="12.767425"><ele>147.0</ele><time>2026-03-29T08:06:10.959Z</time></trkpt><trkpt lat="43.8297233" lon="12.7672667"><ele>147.0</ele><time>2026-03-29T08:06:11.96Z</time></trkpt><trkpt lat="43.8298317" lon="12.7670933"><ele>147.0</ele><time>2026-03-29T08:06:12.96Z</time></trkpt><trkpt lat="43.8299233" lon="12.7669333"><ele>147.0</ele><time>2026-03-29T08:06:13.96Z</time></trkpt><trkpt lat="43.8300083" lon="12.7667917"><ele>147.0</ele><time>2026-03-29T08:06:14.959Z</time></trkpt><trkpt lat="43.8300883" lon="12.7666517"><ele>144.75</ele><time>2026-03-29T08:06:15.959Z</time></trkpt><trkpt lat="43.830175" lon="12.766525"><ele>142.5</ele><time>2026-03-29T08:06:16.96Z</time></trkpt><trkpt lat="43.830255" lon="12.7664267"><ele>140.25</ele><time>2026-03-29T08:06:17.96Z</time></trkpt><trkpt lat="43.8303483" lon="12.76636"><ele>138.0</ele><time>2026-03-29T08:06:18.96Z</time></trkpt><trkpt lat="43.8304683" lon="12.7663283"><ele>138.0</ele><time>2026-03-29T08:06:19.96Z</time></trkpt><trkpt lat="43.8305983" lon="12.76633"><ele>138.0</ele><time>2026-03-29T08:06:20.959Z</time></trkpt><trkpt lat="43.830735" lon="12.7663283"><ele>138.0</ele><time>2026-03-29T08:06:21.96Z</time></trkpt><trkpt lat="43.830995" lon="12.766295"><ele>136.25</ele><time>2026-03-29T08:06:23.96Z</time></trkpt><trkpt lat="43.831115" lon="12.7662283"><ele>134.5</ele><time>2026-03-29T08:06:24.959Z</time></trkpt><trkpt lat="43.8312417" lon="12.7661267"><ele>132.75</ele><time>2026-03-29T08:06:25.959Z</time></trkpt><trkpt lat="43.8313717" lon="12.7660017"><ele>131.0</ele><time>2026-03-29T08:06:26.959Z</time></trkpt><trkpt lat="43.8314967" lon="12.7658733"><ele>131.0</ele><time>2026-03-29T08:06:27.959Z</time></trkpt><trkpt lat="43.8316167" lon="12.7657483"><ele>131.0</ele><time>2026-03-29T08:06:28.959Z</time></trkpt><trkpt lat="43.8317317" lon="12.7656333"><ele>131.0</ele><time>2026-03-29T08:06:29.96Z</time></trkpt><trkpt lat="43.831855" lon="12.765525"><ele>131.0</ele><time>2026-03-29T08:06:30.959Z</time></trkpt><trkpt lat="43.8319967" lon="12.76543"><ele>127.66666666666666</ele><time>2026-03-29T08:06:31.96Z</time></trkpt><trkpt lat="43.8321467" lon="12.7653567"><ele>124.33333333333334</ele><time>2026-03-29T08:06:32.96Z</time></trkpt><trkpt lat="43.83229" lon="12.7652983"><ele>121.0</ele><time>2026-03-29T08:06:33.959Z</time></trkpt><trkpt lat="43.832435" lon="12.7652267"><ele>121.25</ele><time>2026-03-29T08:06:34.96Z</time></trkpt><trkpt lat="43.832575" lon="12.76515"><ele>121.5</ele><time>2026-03-29T08:06:35.96Z</time></trkpt><trkpt lat="43.8327083" lon="12.7650583"><ele>121.75</ele><time>2026-03-29T08:06:36.96Z</time></trkpt><trkpt lat="43.8328333" lon="12.7649683"><ele>122.0</ele><time>2026-03-29T08:06:37.96Z</time></trkpt><trkpt lat="43.8329483" lon="12.76487"><ele>120.25</ele><time>2026-03-29T08:06:38.96Z</time></trkpt><trkpt lat="43.8330633" lon="12.764775"><ele>118.5</ele><time>2026-03-29T08:06:39.96Z</time></trkpt><trkpt lat="43.8331883" lon="12.76469"><ele>116.75</ele><time>2026-03-29T08:06:40.96Z</time></trkpt><trkpt lat="43.8333317" lon="12.7646117"><ele>115.0</ele><time>2026-03-29T08:06:41.96Z</time></trkpt><trkpt lat="43.8334817" lon="12.7645417"><ele>112.66666666666667</ele><time>2026-03-29T08:06:42.96Z</time></trkpt><trkpt lat="43.833755" lon="12.764425"><ele>110.33333333333334</ele><time>2026-03-29T08:06:44.959Z</time></trkpt><trkpt lat="43.8338817" lon="12.7643533"><ele>108.0</ele><time>2026-03-29T08:06:45.96Z</time></trkpt><trkpt lat="43.8340033" lon="12.7642717"><ele>108.0</ele><time>2026-03-29T08:06:46.959Z</time></trkpt><trkpt lat="43.83412" lon="12.764175"><ele>108.0</ele><time>2026-03-29T08:06:47.96Z</time></trkpt><trkpt lat="43.8342433" lon="12.7641117"><ele>108.0</ele><time>2026-03-29T08:06:48.96Z</time></trkpt><trkpt lat="43.8343633" lon="12.7640833"><ele>108.0</ele><time>2026-03-29T08:06:49.96Z</time></trkpt><trkpt lat="43.8344883" lon="12.764055"><ele>105.80000000000001</ele><time>2026-03-29T08:06:50.96Z</time></trkpt><trkpt lat="43.83461" lon="12.7640417"><ele>103.60000000000001</ele><time>2026-03-29T08:06:51.959Z</time></trkpt><trkpt lat="43.83471" lon="12.7640517"><ele>101.4</ele><time>2026-03-29T08:06:52.959Z</time></trkpt><trkpt lat="43.8348" lon="12.7640817"><ele>99.19999999999999</ele><time>2026-03-29T08:06:53.96Z</time></trkpt><trkpt lat="43.8348867" lon="12.7641267"><ele>97.0</ele><time>2026-03-29T08:06:54.96Z</time></trkpt><trkpt lat="43.8349717" lon="12.76421"><ele>97.00000000000001</ele><time>2026-03-29T08:06:55.96Z</time></trkpt><trkpt lat="43.83505" lon="12.7643167"><ele>97.0</ele><time>2026-03-29T08:06:56.96Z</time></trkpt><trkpt lat="43.8350933" lon="12.76442"><ele>97.0</ele><time>2026-03-29T08:06:57.96Z</time></trkpt><trkpt lat="43.8350967" lon="12.7645217"><ele>97.0</ele><time>2026-03-29T08:06:58.959Z</time></trkpt><trkpt lat="43.8350817" lon="12.7646133"><ele>97.00000000000001</ele><time>2026-03-29T08:06:59.96Z</time></trkpt><trkpt lat="43.835035" lon="12.7647017"><ele>97.0</ele><time>2026-03-29T08:07:00.959Z</time></trkpt><trkpt lat="43.8349633" lon="12.7647833"><ele>96.0</ele><time>2026-03-29T08:07:01.959Z</time></trkpt><trkpt lat="43.8348933" lon="12.7648567"><ele>95.0</ele><time>2026-03-29T08:07:02.96Z</time></trkpt><trkpt lat="43.83486" lon="12.7649367"><ele>94.0</ele><time>2026-03-29T08:07:03.959Z</time></trkpt><trkpt lat="43.8349383" lon="12.76517"><ele>93.0</ele><time>2026-03-29T08:07:06.959Z</time></trkpt><trkpt lat="43.83503" lon="12.765195"><ele>92.0</ele><time>2026-03-29T08:07:07.96Z</time></trkpt><trkpt lat="43.8351467" lon="12.7651817"><ele>88.0</ele><time>2026-03-29T08:07:08.96Z</time></trkpt><trkpt lat="43.8353" lon="12.7651417"><ele>84.0</ele><time>2026-03-29T08:07:09.96Z</time></trkpt><trkpt lat="43.8354783" lon="12.76508"><ele>80.0</ele><time>2026-03-29T08:07:10.959Z</time></trkpt><trkpt lat="43.8356433" lon="12.7650433"><ele>80.0</ele><time>2026-03-29T08:07:11.96Z</time></trkpt><trkpt lat="43.8357867" lon="12.7650033"><ele>80.0</ele><time>2026-03-29T08:07:12.96Z</time></trkpt><trkpt lat="43.8359233" lon="12.7649583"><ele>80.0</ele><time>2026-03-29T08:07:13.96Z</time></trkpt><trkpt lat="43.8360583" lon="12.76491"><ele>80.0</ele><time>2026-03-29T08:07:14.96Z</time></trkpt><trkpt lat="43.8361833" lon="12.7648583"><ele>77.0</ele><time>2026-03-29T08:07:15.959Z</time></trkpt><trkpt lat="43.8363033" lon="12.7648033"><ele>74.0</ele><time>2026-03-29T08:07:16.96Z</time></trkpt><trkpt lat="43.8364217" lon="12.76478"><ele>71.0</ele><time>2026-03-29T08:07:17.96Z</time></trkpt><trkpt lat="43.8365333" lon="12.764775"><ele>68.0</ele><time>2026-03-29T08:07:18.959Z</time></trkpt><trkpt lat="43.8366367" lon="12.76477"><ele>68.0</ele><time>2026-03-29T08:07:19.96Z</time></trkpt><trkpt lat="43.8367283" lon="12.7647467"><ele>68.0</ele><time>2026-03-29T08:07:20.96Z</time></trkpt><trkpt lat="43.8368083" lon="12.7646917"><ele>68.0</ele><time>2026-03-29T08:07:21.96Z</time></trkpt><trkpt lat="43.8368867" lon="12.7646183"><ele>68.0</ele><time>2026-03-29T08:07:22.96Z</time></trkpt><trkpt lat="43.8369517" lon="12.7644967"><ele>68.0</ele><time>2026-03-29T08:07:23.96Z</time></trkpt><trkpt lat="43.8370217" lon="12.7643417"><ele>67.33333333333334</ele><time>2026-03-29T08:07:24.959Z</time></trkpt><trkpt lat="43.837155" lon="12.7640117"><ele>66.66666666666667</ele><time>2026-03-29T08:07:26.959Z</time></trkpt><trkpt lat="43.837215" lon="12.7638783"><ele>66.0</ele><time>2026-03-29T08:07:27.96Z</time></trkpt><trkpt lat="43.83728" lon="12.7637583"><ele>66.0</ele><time>2026-03-29T08:07:28.959Z</time></trkpt><trkpt lat="43.83735" lon="12.7636517"><ele>66.0</ele><time>2026-03-29T08:07:29.96Z</time></trkpt><trkpt lat="43.8374233" lon="12.7635633"><ele>66.0</ele><time>2026-03-29T08:07:30.96Z</time></trkpt><trkpt lat="43.8374917" lon="12.7634933"><ele>66.0</ele><time>2026-03-29T08:07:31.959Z</time></trkpt><trkpt lat="43.8375533" lon="12.7634633"><ele>66.0</ele><time>2026-03-29T08:07:32.959Z</time></trkpt><trkpt lat="43.8376183" lon="12.763475"><ele>66.0</ele><time>2026-03-29T08:07:33.96Z</time></trkpt><trkpt lat="43.8376833" lon="12.7635117"><ele>65.83333333333333</ele><time>2026-03-29T08:07:34.96Z</time></trkpt><trkpt lat="43.8377517" lon="12.76357"><ele>65.66666666666667</ele><time>2026-03-29T08:07:35.959Z</time></trkpt><trkpt lat="43.8378117" lon="12.763655"><ele>65.5</ele><time>2026-03-29T08:07:36.959Z</time></trkpt><trkpt lat="43.837865" lon="12.7637317"><ele>65.33333333333334</ele><time>2026-03-29T08:07:37.959Z</time></trkpt><trkpt lat="43.837945" lon="12.76384"><ele>65.16666666666667</ele><time>2026-03-29T08:07:39.959Z</time></trkpt><trkpt lat="43.8380017" lon="12.7638867"><ele>65.0</ele><time>2026-03-29T08:07:42.96Z</time></trkpt><trkpt lat="43.83806" lon="12.7638417"><ele>65.0</ele><time>2026-03-29T08:07:46.96Z</time></trkpt><trkpt lat="43.83813" lon="12.7636633"><ele>65.0</ele><time>2026-03-29T08:07:48.96Z</time></trkpt><trkpt lat="43.8381933" lon="12.7635433"><ele>65.0</ele><time>2026-03-29T08:07:49.96Z</time></trkpt><trkpt lat="43.838265" lon="12.7634367"><ele>65.0</ele><time>2026-03-29T08:07:50.959Z</time></trkpt><trkpt lat="43.8383433" lon="12.7633367"><ele>65.0</ele><time>2026-03-29T08:07:51.96Z</time></trkpt><trkpt lat="43.8384017" lon="12.7632167"><ele>65.0</ele><time>2026-03-29T08:07:52.96Z</time></trkpt><trkpt lat="43.8384633" lon="12.7631017"><ele>65.0</ele><time>2026-03-29T08:07:53.959Z</time></trkpt><trkpt lat="43.8385117" lon="12.7629917"><ele>65.0</ele><time>2026-03-29T08:07:54.96Z</time></trkpt><trkpt lat="43.8385317" lon="12.7628467"><ele>65.0</ele><time>2026-03-29T08:07:55.959Z</time></trkpt><trkpt lat="43.83854" lon="12.762665"><ele>66.25</ele><time>2026-03-29T08:07:56.96Z</time></trkpt><trkpt lat="43.83852" lon="12.76245"><ele>67.5</ele><time>2026-03-29T08:07:57.959Z</time></trkpt><trkpt lat="43.8385" lon="12.7622483"><ele>68.75</ele><time>2026-03-29T08:07:58.959Z</time></trkpt><trkpt lat="43.8384833" lon="12.7620817"><ele>70.0</ele><time>2026-03-29T08:07:59.96Z</time></trkpt><trkpt lat="43.8384667" lon="12.7619483"><ele>70.0</ele><time>2026-03-29T08:08:00.959Z</time></trkpt><trkpt lat="43.8384667" lon="12.7618467"><ele>70.0</ele><time>2026-03-29T08:08:01.96Z</time></trkpt><trkpt lat="43.8384917" lon="12.7617617"><ele>70.0</ele><time>2026-03-29T08:08:02.96Z</time></trkpt><trkpt lat="43.838565" lon="12.761655"><ele>70.0</ele><time>2026-03-29T08:08:04.961Z</time></trkpt><trkpt lat="43.8386483" lon="12.7616133"><ele>70.0</ele><time>2026-03-29T08:08:17.96Z</time></trkpt><trkpt lat="43.83866" lon="12.7613167"><ele>70.0</ele><time>2026-03-29T08:08:20.961Z</time></trkpt><trkpt lat="43.838625" lon="12.761165"><ele>70.0</ele><time>2026-03-29T08:08:21.96Z</time></trkpt><trkpt lat="43.83858" lon="12.7609767"><ele>70.0</ele><time>2026-03-29T08:08:22.961Z</time></trkpt><trkpt lat="43.838535" lon="12.7607583"><ele>70.0</ele><time>2026-03-29T08:08:23.961Z</time></trkpt><trkpt lat="43.83848" lon="12.7604783"><ele>70.0</ele><time>2026-03-29T08:08:24.961Z</time></trkpt><trkpt lat="43.8384233" lon="12.7601567"><ele>70.0</ele><time>2026-03-29T08:08:25.961Z</time></trkpt><trkpt lat="43.838355" lon="12.7598183"><ele>70.0</ele><time>2026-03-29T08:08:26.961Z</time></trkpt><trkpt lat="43.8382867" lon="12.7594767"><ele>70.0</ele><time>2026-03-29T08:08:27.96Z</time></trkpt><trkpt lat="43.838225" lon="12.75914"><ele>69.66666666666666</ele><time>2026-03-29T08:08:28.961Z</time></trkpt><trkpt lat="43.838165" lon="12.7588283"><ele>69.33333333333333</ele><time>2026-03-29T08:08:29.96Z</time></trkpt><trkpt lat="43.8381017" lon="12.7585417"><ele>69.0</ele><time>2026-03-29T08:08:30.96Z</time></trkpt><trkpt lat="43.8380433" lon="12.7582417"><ele>68.66666666666667</ele><time>2026-03-29T08:08:31.96Z</time></trkpt><trkpt lat="43.8379867" lon="12.7579483"><ele>68.33333333333334</ele><time>2026-03-29T08:08:32.961Z</time></trkpt><trkpt lat="43.8379267" lon="12.7576567"><ele>68.0</ele><time>2026-03-29T08:08:33.961Z</time></trkpt><trkpt lat="43.8378617" lon="12.75737"><ele>67.0</ele><time>2026-03-29T08:08:34.961Z</time></trkpt><trkpt lat="43.8377933" lon="12.7570833"><ele>66.0</ele><time>2026-03-29T08:08:35.961Z</time></trkpt><trkpt lat="43.8377267" lon="12.7567933"><ele>65.0</ele><time>2026-03-29T08:08:36.961Z</time></trkpt><trkpt lat="43.8376567" lon="12.7565183"><ele>63.5</ele><time>2026-03-29T08:08:37.961Z</time></trkpt><trkpt lat="43.837585" lon="12.75625"><ele>62.0</ele><time>2026-03-29T08:08:38.961Z</time></trkpt><trkpt lat="43.8374267" lon="12.7557117"><ele>62.0</ele><time>2026-03-29T08:08:40.961Z</time></trkpt><trkpt lat="43.837355" lon="12.7554433"><ele>62.0</ele><time>2026-03-29T08:08:41.961Z</time></trkpt><trkpt lat="43.8372867" lon="12.7551783"><ele>62.0</ele><time>2026-03-29T08:08:42.961Z</time></trkpt><trkpt lat="43.8372167" lon="12.7549133"><ele>60.66666666666667</ele><time>2026-03-29T08:08:43.961Z</time></trkpt><trkpt lat="43.837145" lon="12.7546617"><ele>59.33333333333333</ele><time>2026-03-29T08:08:44.961Z</time></trkpt><trkpt lat="43.8370683" lon="12.7544167"><ele>58.0</ele><time>2026-03-29T08:08:45.961Z</time></trkpt><trkpt lat="43.8370033" lon="12.75417"><ele>57.33333333333333</ele><time>2026-03-29T08:08:46.961Z</time></trkpt><trkpt lat="43.8369317" lon="12.7539317"><ele>56.66666666666667</ele><time>2026-03-29T08:08:47.961Z</time></trkpt><trkpt lat="43.8368617" lon="12.753695"><ele>56.0</ele><time>2026-03-29T08:08:48.961Z</time></trkpt><trkpt lat="43.83679" lon="12.7534667"><ele>56.0</ele><time>2026-03-29T08:08:49.961Z</time></trkpt><trkpt lat="43.8367267" lon="12.7532383"><ele>56.0</ele><time>2026-03-29T08:08:50.961Z</time></trkpt><trkpt lat="43.8366633" lon="12.7530217"><ele>56.0</ele><time>2026-03-29T08:08:51.961Z</time></trkpt><trkpt lat="43.8365983" lon="12.7527983"><ele>55.66666666666667</ele><time>2026-03-29T08:08:52.961Z</time></trkpt><trkpt lat="43.8365367" lon="12.7525767"><ele>55.33333333333333</ele><time>2026-03-29T08:08:53.961Z</time></trkpt><trkpt lat="43.8364733" lon="12.7523667"><ele>55.0</ele><time>2026-03-29T08:08:54.961Z</time></trkpt><trkpt lat="43.836415" lon="12.752165"><ele>55.0</ele><time>2026-03-29T08:08:55.96Z</time></trkpt><trkpt lat="43.836365" lon="12.7519767"><ele>55.0</ele><time>2026-03-29T08:08:56.961Z</time></trkpt><trkpt lat="43.8363217" lon="12.7517967"><ele>55.0</ele><time>2026-03-29T08:08:57.961Z</time></trkpt><trkpt lat="43.8362767" lon="12.7516383"><ele>55.0</ele><time>2026-03-29T08:08:58.961Z</time></trkpt><trkpt lat="43.8362333" lon="12.7515"><ele>54.8</ele><time>2026-03-29T08:08:59.96Z</time></trkpt><trkpt lat="43.8361933" lon="12.7512367"><ele>54.6</ele><time>2026-03-29T08:09:01.96Z</time></trkpt><trkpt lat="43.8361983" lon="12.7511117"><ele>54.400000000000006</ele><time>2026-03-29T08:09:02.96Z</time></trkpt><trkpt lat="43.8362217" lon="12.7510017"><ele>54.2</ele><time>2026-03-29T08:09:03.961Z</time></trkpt><trkpt lat="43.8362567" lon="12.7509067"><ele>54.0</ele><time>2026-03-29T08:09:04.961Z</time></trkpt><trkpt lat="43.836305" lon="12.7508017"><ele>54.6</ele><time>2026-03-29T08:09:05.961Z</time></trkpt><trkpt lat="43.8363383" lon="12.7507033"><ele>55.2</ele><time>2026-03-29T08:09:06.96Z</time></trkpt><trkpt lat="43.8363467" lon="12.750585"><ele>55.800000000000004</ele><time>2026-03-29T08:09:07.961Z</time></trkpt><trkpt lat="43.836325" lon="12.7504767"><ele>56.400000000000006</ele><time>2026-03-29T08:09:08.96Z</time></trkpt><trkpt lat="43.8362533" lon="12.7503817"><ele>57.0</ele><time>2026-03-29T08:09:09.96Z</time></trkpt><trkpt lat="43.8361467" lon="12.75029"><ele>58.33333333333333</ele><time>2026-03-29T08:09:10.96Z</time></trkpt><trkpt lat="43.83602" lon="12.7501833"><ele>59.666666666666664</ele><time>2026-03-29T08:09:11.96Z</time></trkpt><trkpt lat="43.835875" lon="12.750015"><ele>61.0</ele><time>2026-03-29T08:09:12.961Z</time></trkpt><trkpt lat="43.8357517" lon="12.7497833"><ele>62.0</ele><time>2026-03-29T08:09:13.96Z</time></trkpt><trkpt lat="43.8356383" lon="12.74951"><ele>63.0</ele><time>2026-03-29T08:09:14.961Z</time></trkpt><trkpt lat="43.8355133" lon="12.74922"><ele>64.0</ele><time>2026-03-29T08:09:15.961Z</time></trkpt><trkpt lat="43.835375" lon="12.7489267"><ele>65.0</ele><time>2026-03-29T08:09:16.96Z</time></trkpt><trkpt lat="43.8352233" lon="12.7486367"><ele>65.0</ele><time>2026-03-29T08:09:17.961Z</time></trkpt><trkpt lat="43.835065" lon="12.748335"><ele>65.0</ele><time>2026-03-29T08:09:18.96Z</time></trkpt><trkpt lat="43.8348983" lon="12.7480167"><ele>65.0</ele><time>2026-03-29T08:09:19.961Z</time></trkpt><trkpt lat="43.83473" lon="12.7477"><ele>65.0</ele><time>2026-03-29T08:09:20.961Z</time></trkpt><trkpt lat="43.8344417" lon="12.747155"><ele>65.0</ele><time>2026-03-29T08:09:22.961Z</time></trkpt><trkpt lat="43.8343283" lon="12.7469367"><ele>65.0</ele><time>2026-03-29T08:09:23.961Z</time></trkpt><trkpt lat="43.8342333" lon="12.7467517"><ele>65.0</ele><time>2026-03-29T08:09:24.961Z</time></trkpt><trkpt lat="43.83416" lon="12.746605"><ele>65.33333333333334</ele><time>2026-03-29T08:09:25.96Z</time></trkpt><trkpt lat="43.834095" lon="12.746495"><ele>65.66666666666667</ele><time>2026-03-29T08:09:26.96Z</time></trkpt><trkpt lat="43.834045" lon="12.74638"><ele>66.0</ele><time>2026-03-29T08:09:27.961Z</time></trkpt><trkpt lat="43.834025" lon="12.7462633"><ele>66.33333333333333</ele><time>2026-03-29T08:09:28.961Z</time></trkpt><trkpt lat="43.83403" lon="12.7461467"><ele>66.66666666666666</ele><time>2026-03-29T08:09:29.96Z</time></trkpt><trkpt lat="43.8340417" lon="12.746045"><ele>67.0</ele><time>2026-03-29T08:09:30.961Z</time></trkpt><trkpt lat="43.8340433" lon="12.7459467"><ele>67.8</ele><time>2026-03-29T08:09:31.96Z</time></trkpt><trkpt lat="43.83402" lon="12.745865"><ele>68.6</ele><time>2026-03-29T08:09:32.961Z</time></trkpt><trkpt lat="43.8339667" lon="12.7458083"><ele>69.39999999999999</ele><time>2026-03-29T08:09:33.961Z</time></trkpt><trkpt lat="43.8338767" lon="12.7457633"><ele>70.2</ele><time>2026-03-29T08:09:34.961Z</time></trkpt><trkpt lat="43.83373" lon="12.7457583"><ele>71.0</ele><time>2026-03-29T08:09:35.961Z</time></trkpt><trkpt lat="43.8335417" lon="12.7457717"><ele>70.66666666666667</ele><time>2026-03-29T08:09:36.96Z</time></trkpt><trkpt lat="43.8333667" lon="12.745775"><ele>70.33333333333333</ele><time>2026-03-29T08:09:37.96Z</time></trkpt><trkpt lat="43.833185" lon="12.7457833"><ele>70.0</ele><time>2026-03-29T08:09:38.961Z</time></trkpt><trkpt lat="43.8330083" lon="12.7457867"><ele>70.0</ele><time>2026-03-29T08:09:39.96Z</time></trkpt><trkpt lat="43.832845" lon="12.7457717"><ele>70.0</ele><time>2026-03-29T08:09:40.96Z</time></trkpt><trkpt lat="43.8326917" lon="12.7457517"><ele>70.0</ele><time>2026-03-29T08:09:41.96Z</time></trkpt><trkpt lat="43.8323767" lon="12.7456817"><ele>70.25</ele><time>2026-03-29T08:09:43.961Z</time></trkpt><trkpt lat="43.8322267" lon="12.745635"><ele>70.5</ele><time>2026-03-29T08:09:44.96Z</time></trkpt><trkpt lat="43.83209" lon="12.74559"><ele>70.75</ele><time>2026-03-29T08:09:45.96Z</time></trkpt><trkpt lat="43.8319667" lon="12.7455567"><ele>71.0</ele><time>2026-03-29T08:09:46.96Z</time></trkpt><trkpt lat="43.831865" lon="12.745535"><ele>71.2</ele><time>2026-03-29T08:09:47.961Z</time></trkpt><trkpt lat="43.8317617" lon="12.745515"><ele>71.39999999999999</ele><time>2026-03-29T08:09:48.961Z</time></trkpt><trkpt lat="43.8316683" lon="12.745505"><ele>71.6</ele><time>2026-03-29T08:09:49.96Z</time></trkpt><trkpt lat="43.8315683" lon="12.7454917"><ele>71.8</ele><time>2026-03-29T08:09:50.961Z</time></trkpt><trkpt lat="43.83148" lon="12.74548"><ele>72.0</ele><time>2026-03-29T08:09:51.961Z</time></trkpt><trkpt lat="43.8314083" lon="12.7454567"><ele>72.00000000000001</ele><time>2026-03-29T08:09:52.961Z</time></trkpt><trkpt lat="43.83134" lon="12.7454267"><ele>72.0</ele><time>2026-03-29T08:09:53.96Z</time></trkpt><trkpt lat="43.8312717" lon="12.74538"><ele>72.0</ele><time>2026-03-29T08:09:54.96Z</time></trkpt><trkpt lat="43.8312167" lon="12.7453167"><ele>72.0</ele><time>2026-03-29T08:09:55.961Z</time></trkpt><trkpt lat="43.831155" lon="12.7452683"><ele>72.0</ele><time>2026-03-29T08:09:56.96Z</time></trkpt><trkpt lat="43.831085" lon="12.7452267"><ele>72.00000000000001</ele><time>2026-03-29T08:09:57.961Z</time></trkpt><trkpt lat="43.8310167" lon="12.745225"><ele>72.0</ele><time>2026-03-29T08:09:58.96Z</time></trkpt><trkpt lat="43.8309483" lon="12.7452567"><ele>72.4</ele><time>2026-03-29T08:09:59.961Z</time></trkpt><trkpt lat="43.83088" lon="12.7453083"><ele>72.80000000000001</ele><time>2026-03-29T08:10:00.961Z</time></trkpt><trkpt lat="43.8308117" lon="12.745355"><ele>73.2</ele><time>2026-03-29T08:10:01.96Z</time></trkpt><trkpt lat="43.8307367" lon="12.7454033"><ele>73.60000000000001</ele><time>2026-03-29T08:10:02.961Z</time></trkpt><trkpt lat="43.8305517" lon="12.745435"><ele>74.0</ele><time>2026-03-29T08:10:04.961Z</time></trkpt><trkpt lat="43.8304433" lon="12.7454217"><ele>74.0</ele><time>2026-03-29T08:10:05.961Z</time></trkpt><trkpt lat="43.830325" lon="12.7454083"><ele>74.0</ele><time>2026-03-29T08:10:06.961Z</time></trkpt><trkpt lat="43.8302083" lon="12.7453983"><ele>74.0</ele><time>2026-03-29T08:10:07.961Z</time></trkpt><trkpt lat="43.83008" lon="12.7453933"><ele>74.0</ele><time>2026-03-29T08:10:08.961Z</time></trkpt><trkpt lat="43.8299583" lon="12.7453917"><ele>74.0</ele><time>2026-03-29T08:10:09.961Z</time></trkpt><trkpt lat="43.8298317" lon="12.7453867"><ele>74.0</ele><time>2026-03-29T08:10:10.961Z</time></trkpt><trkpt lat="43.8297117" lon="12.74538"><ele>74.0</ele><time>2026-03-29T08:10:11.96Z</time></trkpt><trkpt lat="43.8295867" lon="12.7453717"><ele>74.0</ele><time>2026-03-29T08:10:12.96Z</time></trkpt><trkpt lat="43.82945" lon="12.7453683"><ele>74.0</ele><time>2026-03-29T08:10:13.96Z</time></trkpt><trkpt lat="43.829315" lon="12.7453483"><ele>74.0</ele><time>2026-03-29T08:10:14.96Z</time></trkpt><trkpt lat="43.8291783" lon="12.7453167"><ele>74.0</ele><time>2026-03-29T08:10:15.961Z</time></trkpt><trkpt lat="43.8290517" lon="12.7452833"><ele>74.0</ele><time>2026-03-29T08:10:16.961Z</time></trkpt><trkpt lat="43.8289333" lon="12.74524"><ele>74.25</ele><time>2026-03-29T08:10:17.96Z</time></trkpt><trkpt lat="43.8288133" lon="12.745205"><ele>74.5</ele><time>2026-03-29T08:10:18.96Z</time></trkpt><trkpt lat="43.8286983" lon="12.7451517"><ele>74.75</ele><time>2026-03-29T08:10:19.961Z</time></trkpt><trkpt lat="43.8285833" lon="12.74508"><ele>75.0</ele><time>2026-03-29T08:10:20.961Z</time></trkpt><trkpt lat="43.8284633" lon="12.744995"><ele>75.0</ele><time>2026-03-29T08:10:21.961Z</time></trkpt><trkpt lat="43.8283483" lon="12.7449033"><ele>75.0</ele><time>2026-03-29T08:10:22.96Z</time></trkpt><trkpt lat="43.8282333" lon="12.7447967"><ele>75.0</ele><time>2026-03-29T08:10:23.961Z</time></trkpt><trkpt lat="43.82803" lon="12.744565"><ele>75.0</ele><time>2026-03-29T08:10:25.961Z</time></trkpt><trkpt lat="43.8279433" lon="12.744435"><ele>75.0</ele><time>2026-03-29T08:10:26.961Z</time></trkpt><trkpt lat="43.82786" lon="12.7443"><ele>75.0</ele><time>2026-03-29T08:10:27.961Z</time></trkpt><trkpt lat="43.827775" lon="12.7441733"><ele>75.0</ele><time>2026-03-29T08:10:28.96Z</time></trkpt><trkpt lat="43.82769" lon="12.7440367"><ele>75.25</ele><time>2026-03-29T08:10:29.961Z</time></trkpt><trkpt lat="43.8276117" lon="12.743895"><ele>75.5</ele><time>2026-03-29T08:10:30.961Z</time></trkpt><trkpt lat="43.8275317" lon="12.7437617"><ele>75.75</ele><time>2026-03-29T08:10:31.961Z</time></trkpt><trkpt lat="43.8274467" lon="12.743625"><ele>76.0</ele><time>2026-03-29T08:10:32.961Z</time></trkpt><trkpt lat="43.8273617" lon="12.743485"><ele>76.0</ele><time>2026-03-29T08:10:33.961Z</time></trkpt><trkpt lat="43.8272867" lon="12.743325"><ele>76.0</ele><time>2026-03-29T08:10:34.961Z</time></trkpt><trkpt lat="43.8272167" lon="12.74316"><ele>76.0</ele><time>2026-03-29T08:10:35.96Z</time></trkpt><trkpt lat="43.8271533" lon="12.7430017"><ele>76.0</ele><time>2026-03-29T08:10:36.96Z</time></trkpt><trkpt lat="43.8270917" lon="12.74284"><ele>76.0</ele><time>2026-03-29T08:10:37.961Z</time></trkpt><trkpt lat="43.827045" lon="12.7426883"><ele>76.0</ele><time>2026-03-29T08:10:38.961Z</time></trkpt><trkpt lat="43.8270017" lon="12.74253"><ele>76.0</ele><time>2026-03-29T08:10:39.96Z</time></trkpt><trkpt lat="43.826955" lon="12.7423667"><ele>76.0</ele><time>2026-03-29T08:10:40.96Z</time></trkpt><trkpt lat="43.8269133" lon="12.7421883"><ele>76.0</ele><time>2026-03-29T08:10:41.961Z</time></trkpt><trkpt lat="43.8268717" lon="12.742015"><ele>76.0</ele><time>2026-03-29T08:10:42.961Z</time></trkpt><trkpt lat="43.82682" lon="12.7418433"><ele>76.0</ele><time>2026-03-29T08:10:43.961Z</time></trkpt><trkpt lat="43.8267667" lon="12.7416783"><ele>76.0</ele><time>2026-03-29T08:10:44.961Z</time></trkpt><trkpt lat="43.82666" lon="12.7413367"><ele>76.25</ele><time>2026-03-29T08:10:46.961Z</time></trkpt><trkpt lat="43.8266067" lon="12.7411683"><ele>76.5</ele><time>2026-03-29T08:10:47.96Z</time></trkpt><trkpt lat="43.8265517" lon="12.7409917"><ele>76.75</ele><time>2026-03-29T08:10:48.961Z</time></trkpt><trkpt lat="43.8264783" lon="12.7408217"><ele>77.0</ele><time>2026-03-29T08:10:49.961Z</time></trkpt><trkpt lat="43.8263983" lon="12.7406517"><ele>77.25</ele><time>2026-03-29T08:10:50.961Z</time></trkpt><trkpt lat="43.826315" lon="12.7404983"><ele>77.5</ele><time>2026-03-29T08:10:51.961Z</time></trkpt><trkpt lat="43.8262183" lon="12.7403583"><ele>77.75</ele><time>2026-03-29T08:10:52.961Z</time></trkpt><trkpt lat="43.8261167" lon="12.7402233"><ele>78.0</ele><time>2026-03-29T08:10:53.961Z</time></trkpt><trkpt lat="43.826015" lon="12.74009"><ele>78.5</ele><time>2026-03-29T08:10:54.96Z</time></trkpt><trkpt lat="43.8259167" lon="12.7399667"><ele>79.0</ele><time>2026-03-29T08:10:55.961Z</time></trkpt><trkpt lat="43.8258117" lon="12.73985"><ele>79.5</ele><time>2026-03-29T08:10:56.961Z</time></trkpt><trkpt lat="43.8257083" lon="12.7397267"><ele>80.0</ele><time>2026-03-29T08:10:57.96Z</time></trkpt><trkpt lat="43.8256017" lon="12.739605"><ele>80.0</ele><time>2026-03-29T08:10:58.961Z</time></trkpt><trkpt lat="43.825495" lon="12.73947"><ele>80.0</ele><time>2026-03-29T08:10:59.96Z</time></trkpt><trkpt lat="43.82539" lon="12.7393333"><ele>80.0</ele><time>2026-03-29T08:11:00.96Z</time></trkpt><trkpt lat="43.8252833" lon="12.7392117"><ele>80.0</ele><time>2026-03-29T08:11:01.961Z</time></trkpt><trkpt lat="43.825185" lon="12.73909"><ele>80.0</ele><time>2026-03-29T08:11:02.96Z</time></trkpt><trkpt lat="43.8250833" lon="12.7389617"><ele>80.0</ele><time>2026-03-29T08:11:03.96Z</time></trkpt><trkpt lat="43.8249867" lon="12.73882"><ele>80.0</ele><time>2026-03-29T08:11:04.961Z</time></trkpt><trkpt lat="43.82489" lon="12.73868"><ele>80.0</ele><time>2026-03-29T08:11:05.961Z</time></trkpt><trkpt lat="43.8246967" lon="12.7383767"><ele>80.66666666666667</ele><time>2026-03-29T08:11:07.961Z</time></trkpt><trkpt lat="43.82459" lon="12.7382283"><ele>81.33333333333333</ele><time>2026-03-29T08:11:08.961Z</time></trkpt><trkpt lat="43.8244783" lon="12.73809"><ele>82.0</ele><time>2026-03-29T08:11:09.96Z</time></trkpt><trkpt lat="43.82436" lon="12.7379417"><ele>82.0</ele><time>2026-03-29T08:11:10.96Z</time></trkpt><trkpt lat="43.82423" lon="12.7378117"><ele>82.0</ele><time>2026-03-29T08:11:11.961Z</time></trkpt><trkpt lat="43.8240933" lon="12.73769"><ele>82.0</ele><time>2026-03-29T08:11:12.96Z</time></trkpt><trkpt lat="43.823965" lon="12.737565"><ele>82.0</ele><time>2026-03-29T08:11:13.961Z</time></trkpt><trkpt lat="43.8238317" lon="12.7374383"><ele>82.0</ele><time>2026-03-29T08:11:14.96Z</time></trkpt><trkpt lat="43.8237" lon="12.7373067"><ele>82.0</ele><time>2026-03-29T08:11:15.96Z</time></trkpt><trkpt lat="43.8235717" lon="12.7371883"><ele>82.0</ele><time>2026-03-29T08:11:16.96Z</time></trkpt><trkpt lat="43.823455" lon="12.737075"><ele>82.0</ele><time>2026-03-29T08:11:17.96Z</time></trkpt><trkpt lat="43.8233283" lon="12.736975"><ele>82.0</ele><time>2026-03-29T08:11:18.961Z</time></trkpt><trkpt lat="43.8232" lon="12.7368717"><ele>82.0</ele><time>2026-03-29T08:11:19.96Z</time></trkpt><trkpt lat="43.8230767" lon="12.7367517"><ele>82.0</ele><time>2026-03-29T08:11:20.961Z</time></trkpt><trkpt lat="43.8229533" lon="12.7366267"><ele>82.0</ele><time>2026-03-29T08:11:21.96Z</time></trkpt><trkpt lat="43.8228217" lon="12.736505"><ele>82.0</ele><time>2026-03-29T08:11:22.96Z</time></trkpt><trkpt lat="43.82268" lon="12.7363833"><ele>81.66666666666666</ele><time>2026-03-29T08:11:23.961Z</time></trkpt><trkpt lat="43.822545" lon="12.73626"><ele>81.33333333333333</ele><time>2026-03-29T08:11:24.961Z</time></trkpt><trkpt lat="43.8224083" lon="12.7361383"><ele>81.0</ele><time>2026-03-29T08:11:25.961Z</time></trkpt><trkpt lat="43.8222733" lon="12.736025"><ele>83.0</ele><time>2026-03-29T08:11:26.96Z</time></trkpt><trkpt lat="43.8220167" lon="12.7357883"><ele>85.0</ele><time>2026-03-29T08:11:28.96Z</time></trkpt><trkpt lat="43.821895" lon="12.73566"><ele>84.0</ele><time>2026-03-29T08:11:29.96Z</time></trkpt><trkpt lat="43.8217733" lon="12.7355333"><ele>83.0</ele><time>2026-03-29T08:11:30.961Z</time></trkpt><trkpt lat="43.8216517" lon="12.7354033"><ele>82.0</ele><time>2026-03-29T08:11:31.961Z</time></trkpt><trkpt lat="43.8215383" lon="12.735265"><ele>83.0</ele><time>2026-03-29T08:11:32.96Z</time></trkpt><trkpt lat="43.821435" lon="12.7351167"><ele>84.0</ele><time>2026-03-29T08:11:33.961Z</time></trkpt><trkpt lat="43.821335" lon="12.7349633"><ele>85.0</ele><time>2026-03-29T08:11:34.961Z</time></trkpt><trkpt lat="43.8212317" lon="12.73481"><ele>86.0</ele><time>2026-03-29T08:11:35.961Z</time></trkpt><trkpt lat="43.8211367" lon="12.7346533"><ele>86.0</ele><time>2026-03-29T08:11:36.961Z</time></trkpt><trkpt lat="43.8210283" lon="12.7344883"><ele>86.0</ele><time>2026-03-29T08:11:37.96Z</time></trkpt><trkpt lat="43.8209233" lon="12.7343317"><ele>86.0</ele><time>2026-03-29T08:11:38.961Z</time></trkpt><trkpt lat="43.82081" lon="12.73419"><ele>85.5</ele><time>2026-03-29T08:11:39.961Z</time></trkpt><trkpt lat="43.8206967" lon="12.73406"><ele>85.0</ele><time>2026-03-29T08:11:40.96Z</time></trkpt><trkpt lat="43.8205817" lon="12.733935"><ele>84.5</ele><time>2026-03-29T08:11:41.96Z</time></trkpt><trkpt lat="43.8204667" lon="12.7338083"><ele>84.0</ele><time>2026-03-29T08:11:42.961Z</time></trkpt><trkpt lat="43.8203533" lon="12.7336783"><ele>84.0</ele><time>2026-03-29T08:11:43.96Z</time></trkpt><trkpt lat="43.8202367" lon="12.7335617"><ele>84.0</ele><time>2026-03-29T08:11:44.961Z</time></trkpt><trkpt lat="43.820135" lon="12.733445"><ele>84.0</ele><time>2026-03-29T08:11:45.96Z</time></trkpt><trkpt lat="43.8200417" lon="12.733335"><ele>84.0</ele><time>2026-03-29T08:11:46.96Z</time></trkpt><trkpt lat="43.81995" lon="12.7332317"><ele>84.75</ele><time>2026-03-29T08:11:47.96Z</time></trkpt><trkpt lat="43.8197733" lon="12.7330433"><ele>85.5</ele><time>2026-03-29T08:11:49.96Z</time></trkpt><trkpt lat="43.8197033" lon="12.7329683"><ele>86.25</ele><time>2026-03-29T08:11:50.961Z</time></trkpt><trkpt lat="43.81964" lon="12.7329033"><ele>87.0</ele><time>2026-03-29T08:11:51.96Z</time></trkpt><trkpt lat="43.8195867" lon="12.73284"><ele>87.0</ele><time>2026-03-29T08:11:52.961Z</time></trkpt><trkpt lat="43.81954" lon="12.73278"><ele>87.0</ele><time>2026-03-29T08:11:53.961Z</time></trkpt><trkpt lat="43.8194883" lon="12.7327033"><ele>87.0</ele><time>2026-03-29T08:11:54.96Z</time></trkpt><trkpt lat="43.81941" lon="12.732625"><ele>87.0</ele><time>2026-03-29T08:11:55.96Z</time></trkpt><trkpt lat="43.81931" lon="12.73253"><ele>87.0</ele><time>2026-03-29T08:11:56.96Z</time></trkpt><trkpt lat="43.8191983" lon="12.7324133"><ele>87.66666666666667</ele><time>2026-03-29T08:11:57.961Z</time></trkpt><trkpt lat="43.819075" lon="12.7322867"><ele>88.33333333333334</ele><time>2026-03-29T08:11:58.96Z</time></trkpt><trkpt lat="43.818945" lon="12.7321567"><ele>89.0</ele><time>2026-03-29T08:11:59.961Z</time></trkpt><trkpt lat="43.8187883" lon="12.7320217"><ele>90.0</ele><time>2026-03-29T08:12:00.961Z</time></trkpt><trkpt lat="43.8186033" lon="12.7318867"><ele>91.0</ele><time>2026-03-29T08:12:01.961Z</time></trkpt><trkpt lat="43.8184217" lon="12.731765"><ele>92.0</ele><time>2026-03-29T08:12:02.961Z</time></trkpt><trkpt lat="43.81822" lon="12.7316533"><ele>92.0</ele><time>2026-03-29T08:12:03.961Z</time></trkpt><trkpt lat="43.8180067" lon="12.731545"><ele>92.0</ele><time>2026-03-29T08:12:04.961Z</time></trkpt><trkpt lat="43.8177833" lon="12.731425"><ele>92.0</ele><time>2026-03-29T08:12:05.96Z</time></trkpt><trkpt lat="43.8175617" lon="12.7313167"><ele>92.0</ele><time>2026-03-29T08:12:06.96Z</time></trkpt><trkpt lat="43.8173467" lon="12.731195"><ele>92.0</ele><time>2026-03-29T08:12:07.961Z</time></trkpt><trkpt lat="43.8171317" lon="12.7310667"><ele>92.0</ele><time>2026-03-29T08:12:08.96Z</time></trkpt><trkpt lat="43.816695" lon="12.7308017"><ele>92.5</ele><time>2026-03-29T08:12:10.96Z</time></trkpt><trkpt lat="43.8164833" lon="12.73067"><ele>93.0</ele><time>2026-03-29T08:12:11.96Z</time></trkpt><trkpt lat="43.8162583" lon="12.73052"><ele>93.0</ele><time>2026-03-29T08:12:12.961Z</time></trkpt><trkpt lat="43.8160333" lon="12.7303583"><ele>93.0</ele><time>2026-03-29T08:12:13.96Z</time></trkpt><trkpt lat="43.81581" lon="12.7301833"><ele>93.0</ele><time>2026-03-29T08:12:14.96Z</time></trkpt><trkpt lat="43.8155917" lon="12.7300067"><ele>93.0</ele><time>2026-03-29T08:12:15.961Z</time></trkpt><trkpt lat="43.81536" lon="12.7298267"><ele>91.5</ele><time>2026-03-29T08:12:16.961Z</time></trkpt><trkpt lat="43.8151283" lon="12.729645"><ele>90.0</ele><time>2026-03-29T08:12:17.961Z</time></trkpt><trkpt lat="43.8148933" lon="12.7294683"><ele>92.0</ele><time>2026-03-29T08:12:18.96Z</time></trkpt><trkpt lat="43.814655" lon="12.729295"><ele>94.0</ele><time>2026-03-29T08:12:19.961Z</time></trkpt><trkpt lat="43.8144217" lon="12.7291017"><ele>95.0</ele><time>2026-03-29T08:12:20.961Z</time></trkpt><trkpt lat="43.8141817" lon="12.7289133"><ele>96.0</ele><time>2026-03-29T08:12:21.961Z</time></trkpt><trkpt lat="43.8139533" lon="12.72871"><ele>97.0</ele><time>2026-03-29T08:12:22.961Z</time></trkpt><trkpt lat="43.8137167" lon="12.728525"><ele>98.0</ele><time>2026-03-29T08:12:23.96Z</time></trkpt><trkpt lat="43.8134783" lon="12.7283383"><ele>98.5</ele><time>2026-03-29T08:12:24.961Z</time></trkpt><trkpt lat="43.813245" lon="12.7281617"><ele>99.0</ele><time>2026-03-29T08:12:25.961Z</time></trkpt><trkpt lat="43.8130117" lon="12.7280067"><ele>99.0</ele><time>2026-03-29T08:12:26.961Z</time></trkpt><trkpt lat="43.8127733" lon="12.7278767"><ele>99.0</ele><time>2026-03-29T08:12:27.961Z</time></trkpt><trkpt lat="43.8125267" lon="12.7277833"><ele>100.0</ele><time>2026-03-29T08:12:28.961Z</time></trkpt><trkpt lat="43.8122767" lon="12.727715"><ele>101.0</ele><time>2026-03-29T08:12:29.961Z</time></trkpt><trkpt lat="43.8117867" lon="12.727595"><ele>101.0</ele><time>2026-03-29T08:12:31.961Z</time></trkpt><trkpt lat="43.8115483" lon="12.7275167"><ele>101.0</ele><time>2026-03-29T08:12:32.96Z</time></trkpt><trkpt lat="43.8113167" lon="12.7274117"><ele>101.0</ele><time>2026-03-29T08:12:33.96Z</time></trkpt><trkpt lat="43.811085" lon="12.7272833"><ele>101.0</ele><time>2026-03-29T08:12:34.961Z</time></trkpt><trkpt lat="43.810855" lon="12.7271467"><ele>97.5</ele><time>2026-03-29T08:12:35.961Z</time></trkpt><trkpt lat="43.8106067" lon="12.727025"><ele>94.0</ele><time>2026-03-29T08:12:36.961Z</time></trkpt><trkpt lat="43.8103583" lon="12.726925"><ele>98.0</ele><time>2026-03-29T08:12:37.961Z</time></trkpt><trkpt lat="43.8100967" lon="12.7268533"><ele>102.0</ele><time>2026-03-29T08:12:38.961Z</time></trkpt><trkpt lat="43.80983" lon="12.7268067"><ele>102.0</ele><time>2026-03-29T08:12:39.961Z</time></trkpt><trkpt lat="43.8095517" lon="12.7267867"><ele>102.0</ele><time>2026-03-29T08:12:40.96Z</time></trkpt><trkpt lat="43.80928" lon="12.7267417"><ele>99.0</ele><time>2026-03-29T08:12:41.96Z</time></trkpt><trkpt lat="43.8090283" lon="12.7266783"><ele>96.0</ele><time>2026-03-29T08:12:42.96Z</time></trkpt><trkpt lat="43.8088" lon="12.7266083"><ele>96.0</ele><time>2026-03-29T08:12:43.961Z</time></trkpt><trkpt lat="43.80861" lon="12.7265467"><ele>96.0</ele><time>2026-03-29T08:12:44.961Z</time></trkpt><trkpt lat="43.8084483" lon="12.7264883"><ele>96.0</ele><time>2026-03-29T08:12:45.961Z</time></trkpt><trkpt lat="43.8082933" lon="12.7264283"><ele>95.0</ele><time>2026-03-29T08:12:46.961Z</time></trkpt><trkpt lat="43.8081367" lon="12.7263733"><ele>94.0</ele><time>2026-03-29T08:12:47.961Z</time></trkpt><trkpt lat="43.80797" lon="12.72633"><ele>93.0</ele><time>2026-03-29T08:12:48.961Z</time></trkpt><trkpt lat="43.8078017" lon="12.7262867"><ele>95.0</ele><time>2026-03-29T08:12:49.96Z</time></trkpt><trkpt lat="43.8076267" lon="12.7262267"><ele>97.0</ele><time>2026-03-29T08:12:50.961Z</time></trkpt><trkpt lat="43.8072833" lon="12.72611"><ele>96.66666666666667</ele><time>2026-03-29T08:12:52.961Z</time></trkpt><trkpt lat="43.8071117" lon="12.7260383"><ele>96.33333333333334</ele><time>2026-03-29T08:12:53.961Z</time></trkpt><trkpt lat="43.8069333" lon="12.725965"><ele>96.0</ele><time>2026-03-29T08:12:54.961Z</time></trkpt><trkpt lat="43.80676" lon="12.7258717"><ele>96.0</ele><time>2026-03-29T08:12:55.96Z</time></trkpt><trkpt lat="43.8065833" lon="12.7257583"><ele>96.0</ele><time>2026-03-29T08:12:56.961Z</time></trkpt><trkpt lat="43.8064017" lon="12.7256467"><ele>96.0</ele><time>2026-03-29T08:12:57.961Z</time></trkpt><trkpt lat="43.80622" lon="12.7255367"><ele>96.0</ele><time>2026-03-29T08:12:58.96Z</time></trkpt><trkpt lat="43.806035" lon="12.72542"><ele>96.0</ele><time>2026-03-29T08:12:59.961Z</time></trkpt><trkpt lat="43.8058517" lon="12.725295"><ele>96.0</ele><time>2026-03-29T08:13:00.96Z</time></trkpt><trkpt lat="43.805675" lon="12.7251583"><ele>97.0</ele><time>2026-03-29T08:13:01.96Z</time></trkpt><trkpt lat="43.8054867" lon="12.7250183"><ele>98.0</ele><time>2026-03-29T08:13:02.961Z</time></trkpt><trkpt lat="43.8052967" lon="12.72486"><ele>99.0</ele><time>2026-03-29T08:13:03.96Z</time></trkpt><trkpt lat="43.805105" lon="12.724705"><ele>95.0</ele><time>2026-03-29T08:13:04.961Z</time></trkpt><trkpt lat="43.8048967" lon="12.724565"><ele>91.0</ele><time>2026-03-29T08:13:05.96Z</time></trkpt><trkpt lat="43.8046817" lon="12.7244383"><ele>92.66666666666666</ele><time>2026-03-29T08:13:06.96Z</time></trkpt><trkpt lat="43.8044733" lon="12.7243167"><ele>94.33333333333333</ele><time>2026-03-29T08:13:07.96Z</time></trkpt><trkpt lat="43.8042767" lon="12.7241767"><ele>96.0</ele><time>2026-03-29T08:13:08.961Z</time></trkpt><trkpt lat="43.8040833" lon="12.7240267"><ele>96.0</ele><time>2026-03-29T08:13:09.96Z</time></trkpt><trkpt lat="43.80389" lon="12.7238667"><ele>96.0</ele><time>2026-03-29T08:13:10.96Z</time></trkpt><trkpt lat="43.8037" lon="12.72369"><ele>97.0</ele><time>2026-03-29T08:13:11.961Z</time></trkpt><trkpt lat="43.8033317" lon="12.7233433"><ele>98.0</ele><time>2026-03-29T08:13:13.961Z</time></trkpt><trkpt lat="43.8031417" lon="12.723185"><ele>98.0</ele><time>2026-03-29T08:13:14.961Z</time></trkpt><trkpt lat="43.8029467" lon="12.7230383"><ele>98.0</ele><time>2026-03-29T08:13:15.961Z</time></trkpt><trkpt lat="43.80275" lon="12.7229067"><ele>98.0</ele><time>2026-03-29T08:13:16.961Z</time></trkpt><trkpt lat="43.802545" lon="12.72278"><ele>94.0</ele><time>2026-03-29T08:13:17.961Z</time></trkpt><trkpt lat="43.8023317" lon="12.7226717"><ele>90.0</ele><time>2026-03-29T08:13:18.961Z</time></trkpt><trkpt lat="43.8021117" lon="12.72259"><ele>90.0</ele><time>2026-03-29T08:13:19.96Z</time></trkpt><trkpt lat="43.8019" lon="12.7225433"><ele>90.0</ele><time>2026-03-29T08:13:20.961Z</time></trkpt><trkpt lat="43.801675" lon="12.7225067"><ele>90.0</ele><time>2026-03-29T08:13:21.961Z</time></trkpt><trkpt lat="43.8014567" lon="12.7224867"><ele>90.33333333333333</ele><time>2026-03-29T08:13:22.961Z</time></trkpt><trkpt lat="43.8012367" lon="12.72249"><ele>90.66666666666666</ele><time>2026-03-29T08:13:23.96Z</time></trkpt><trkpt lat="43.801015" lon="12.722515"><ele>91.0</ele><time>2026-03-29T08:13:24.96Z</time></trkpt><trkpt lat="43.8007933" lon="12.7225733"><ele>92.66666666666666</ele><time>2026-03-29T08:13:25.96Z</time></trkpt><trkpt lat="43.8005767" lon="12.722625"><ele>94.33333333333333</ele><time>2026-03-29T08:13:26.961Z</time></trkpt><trkpt lat="43.8003683" lon="12.7226967"><ele>96.0</ele><time>2026-03-29T08:13:27.961Z</time></trkpt><trkpt lat="43.80016" lon="12.72276"><ele>96.0</ele><time>2026-03-29T08:13:28.96Z</time></trkpt><trkpt lat="43.7999533" lon="12.72281"><ele>96.0</ele><time>2026-03-29T08:13:29.961Z</time></trkpt><trkpt lat="43.799735" lon="12.7228567"><ele>96.0</ele><time>2026-03-29T08:13:30.961Z</time></trkpt><trkpt lat="43.7995333" lon="12.72289"><ele>96.0</ele><time>2026-03-29T08:13:31.96Z</time></trkpt><trkpt lat="43.7993383" lon="12.7229167"><ele>96.0</ele><time>2026-03-29T08:13:32.961Z</time></trkpt><trkpt lat="43.79895" lon="12.7229133"><ele>95.66666666666667</ele><time>2026-03-29T08:13:34.961Z</time></trkpt><trkpt lat="43.7987383" lon="12.7228917"><ele>95.33333333333334</ele><time>2026-03-29T08:13:35.961Z</time></trkpt><trkpt lat="43.798515" lon="12.72287"><ele>95.0</ele><time>2026-03-29T08:13:36.961Z</time></trkpt><trkpt lat="43.7983017" lon="12.722835"><ele>95.66666666666667</ele><time>2026-03-29T08:13:37.961Z</time></trkpt><trkpt lat="43.7980833" lon="12.7228067"><ele>96.33333333333334</ele><time>2026-03-29T08:13:38.96Z</time></trkpt><trkpt lat="43.7978683" lon="12.72278"><ele>97.0</ele><time>2026-03-29T08:13:39.961Z</time></trkpt><trkpt lat="43.7976667" lon="12.72275"><ele>99.66666666666667</ele><time>2026-03-29T08:13:40.961Z</time></trkpt><trkpt lat="43.7974817" lon="12.7227267"><ele>102.33333333333334</ele><time>2026-03-29T08:13:41.96Z</time></trkpt><trkpt lat="43.7972967" lon="12.722705"><ele>105.0</ele><time>2026-03-29T08:13:42.96Z</time></trkpt><trkpt lat="43.79713" lon="12.7226883"><ele>105.0</ele><time>2026-03-29T08:13:43.961Z</time></trkpt><trkpt lat="43.7969783" lon="12.7226667"><ele>105.0</ele><time>2026-03-29T08:13:44.961Z</time></trkpt><trkpt lat="43.7968483" lon="12.722645"><ele>105.0</ele><time>2026-03-29T08:13:45.961Z</time></trkpt><trkpt lat="43.796735" lon="12.7225917"><ele>105.0</ele><time>2026-03-29T08:13:46.961Z</time></trkpt><trkpt lat="43.7966467" lon="12.722525"><ele>105.25</ele><time>2026-03-29T08:13:47.96Z</time></trkpt><trkpt lat="43.7965733" lon="12.72242"><ele>105.5</ele><time>2026-03-29T08:13:48.96Z</time></trkpt><trkpt lat="43.7964967" lon="12.7222917"><ele>105.75</ele><time>2026-03-29T08:13:49.961Z</time></trkpt><trkpt lat="43.7964017" lon="12.7221567"><ele>106.0</ele><time>2026-03-29T08:13:50.96Z</time></trkpt><trkpt lat="43.7962983" lon="12.722005"><ele>107.0</ele><time>2026-03-29T08:13:51.961Z</time></trkpt><trkpt lat="43.7961967" lon="12.7218433"><ele>108.0</ele><time>2026-03-29T08:13:52.961Z</time></trkpt><trkpt lat="43.7960883" lon="12.721675"><ele>109.0</ele><time>2026-03-29T08:13:53.961Z</time></trkpt><trkpt lat="43.7958083" lon="12.7213633"><ele>109.0</ele><time>2026-03-29T08:13:55.961Z</time></trkpt><trkpt lat="43.7956567" lon="12.721205"><ele>109.0</ele><time>2026-03-29T08:13:56.961Z</time></trkpt><trkpt lat="43.7955083" lon="12.7210517"><ele>109.0</ele><time>2026-03-29T08:13:57.961Z</time></trkpt><trkpt lat="43.7953683" lon="12.7209033"><ele>109.0</ele><time>2026-03-29T08:13:58.96Z</time></trkpt><trkpt lat="43.7952317" lon="12.72077"><ele>109.0</ele><time>2026-03-29T08:13:59.961Z</time></trkpt><trkpt lat="43.7951" lon="12.7206267"><ele>109.0</ele><time>2026-03-29T08:14:00.961Z</time></trkpt><trkpt lat="43.7949683" lon="12.7204817"><ele>109.33333333333334</ele><time>2026-03-29T08:14:01.96Z</time></trkpt><trkpt lat="43.7948367" lon="12.72033"><ele>109.66666666666666</ele><time>2026-03-29T08:14:02.961Z</time></trkpt><trkpt lat="43.7946983" lon="12.7201633"><ele>110.0</ele><time>2026-03-29T08:14:03.961Z</time></trkpt><trkpt lat="43.7945767" lon="12.7199833"><ele>110.0</ele><time>2026-03-29T08:14:04.961Z</time></trkpt><trkpt lat="43.7944533" lon="12.7198033"><ele>110.0</ele><time>2026-03-29T08:14:05.96Z</time></trkpt><trkpt lat="43.7943267" lon="12.7196167"><ele>110.0</ele><time>2026-03-29T08:14:06.961Z</time></trkpt><trkpt lat="43.7941967" lon="12.7194383"><ele>111.66666666666666</ele><time>2026-03-29T08:14:07.96Z</time></trkpt><trkpt lat="43.7940683" lon="12.7192617"><ele>113.33333333333334</ele><time>2026-03-29T08:14:08.96Z</time></trkpt><trkpt lat="43.7939483" lon="12.719105"><ele>115.0</ele><time>2026-03-29T08:14:09.961Z</time></trkpt><trkpt lat="43.7938417" lon="12.7189633"><ele>115.0</ele><time>2026-03-29T08:14:10.96Z</time></trkpt><trkpt lat="43.7937217" lon="12.7188317"><ele>115.0</ele><time>2026-03-29T08:14:11.961Z</time></trkpt><trkpt lat="43.79358" lon="12.7187183"><ele>115.0</ele><time>2026-03-29T08:14:12.961Z</time></trkpt><trkpt lat="43.7934533" lon="12.718625"><ele>114.5</ele><time>2026-03-29T08:14:13.961Z</time></trkpt><trkpt lat="43.7933083" lon="12.7185367"><ele>114.0</ele><time>2026-03-29T08:14:14.961Z</time></trkpt><trkpt lat="43.793" lon="12.7184133"><ele>114.0</ele><time>2026-03-29T08:14:16.961Z</time></trkpt><trkpt lat="43.7928367" lon="12.718375"><ele>114.0</ele><time>2026-03-29T08:14:17.96Z</time></trkpt><trkpt lat="43.7926783" lon="12.7183217"><ele>114.0</ele><time>2026-03-29T08:14:18.961Z</time></trkpt><trkpt lat="43.792505" lon="12.7182833"><ele>116.0</ele><time>2026-03-29T08:14:19.96Z</time></trkpt><trkpt lat="43.7923417" lon="12.7182567"><ele>118.0</ele><time>2026-03-29T08:14:20.96Z</time></trkpt><trkpt lat="43.7921817" lon="12.7182667"><ele>120.0</ele><time>2026-03-29T08:14:21.961Z</time></trkpt><trkpt lat="43.7920133" lon="12.7183067"><ele>120.0</ele><time>2026-03-29T08:14:22.961Z</time></trkpt><trkpt lat="43.7918567" lon="12.718395"><ele>120.0</ele><time>2026-03-29T08:14:23.96Z</time></trkpt><trkpt lat="43.7917117" lon="12.7185367"><ele>120.0</ele><time>2026-03-29T08:14:24.96Z</time></trkpt><trkpt lat="43.7915817" lon="12.7186933"><ele>115.33333333333334</ele><time>2026-03-29T08:14:25.961Z</time></trkpt><trkpt lat="43.7914633" lon="12.7188483"><ele>110.66666666666667</ele><time>2026-03-29T08:14:26.961Z</time></trkpt><trkpt lat="43.7913517" lon="12.7190017"><ele>106.0</ele><time>2026-03-29T08:14:27.961Z</time></trkpt><trkpt lat="43.7912233" lon="12.719115"><ele>106.0</ele><time>2026-03-29T08:14:28.96Z</time></trkpt><trkpt lat="43.7910883" lon="12.7191867"><ele>106.0</ele><time>2026-03-29T08:14:29.961Z</time></trkpt><trkpt lat="43.7909483" lon="12.7192117"><ele>106.0</ele><time>2026-03-29T08:14:30.961Z</time></trkpt><trkpt lat="43.7908117" lon="12.7192233"><ele>106.0</ele><time>2026-03-29T08:14:31.96Z</time></trkpt><trkpt lat="43.7906667" lon="12.7191967"><ele>107.75</ele><time>2026-03-29T08:14:32.961Z</time></trkpt><trkpt lat="43.790525" lon="12.7191433"><ele>109.5</ele><time>2026-03-29T08:14:33.961Z</time></trkpt><trkpt lat="43.7903783" lon="12.7190633"><ele>111.25</ele><time>2026-03-29T08:14:34.96Z</time></trkpt><trkpt lat="43.7902533" lon="12.7189667"><ele>113.0</ele><time>2026-03-29T08:14:35.961Z</time></trkpt><trkpt lat="43.7899883" lon="12.71881"><ele>113.5</ele><time>2026-03-29T08:14:37.961Z</time></trkpt><trkpt lat="43.7898583" lon="12.7187283"><ele>114.0</ele><time>2026-03-29T08:14:38.961Z</time></trkpt><trkpt lat="43.7897267" lon="12.7186467"><ele>114.5</ele><time>2026-03-29T08:14:39.961Z</time></trkpt><trkpt lat="43.7896" lon="12.7185633"><ele>115.0</ele><time>2026-03-29T08:14:40.96Z</time></trkpt><trkpt lat="43.7894767" lon="12.7184767"><ele>116.0</ele><time>2026-03-29T08:14:41.96Z</time></trkpt><trkpt lat="43.78935" lon="12.7183933"><ele>117.0</ele><time>2026-03-29T08:14:42.96Z</time></trkpt><trkpt lat="43.7892283" lon="12.7183167"><ele>118.0</ele><time>2026-03-29T08:14:43.961Z</time></trkpt><trkpt lat="43.7890983" lon="12.7182283"><ele>119.0</ele><time>2026-03-29T08:14:44.961Z</time></trkpt><trkpt lat="43.7889667" lon="12.7181417"><ele>119.0</ele><time>2026-03-29T08:14:45.961Z</time></trkpt><trkpt lat="43.7888367" lon="12.718045"><ele>119.0</ele><time>2026-03-29T08:14:46.961Z</time></trkpt><trkpt lat="43.788715" lon="12.7179383"><ele>119.0</ele><time>2026-03-29T08:14:47.961Z</time></trkpt><trkpt lat="43.7885967" lon="12.7178267"><ele>119.0</ele><time>2026-03-29T08:14:48.961Z</time></trkpt><trkpt lat="43.7884867" lon="12.7177067"><ele>118.25</ele><time>2026-03-29T08:14:49.96Z</time></trkpt><trkpt lat="43.7883817" lon="12.717585"><ele>117.5</ele><time>2026-03-29T08:14:50.961Z</time></trkpt><trkpt lat="43.7882833" lon="12.7174533"><ele>116.75</ele><time>2026-03-29T08:14:51.961Z</time></trkpt><trkpt lat="43.7881967" lon="12.7173133"><ele>116.0</ele><time>2026-03-29T08:14:52.961Z</time></trkpt><trkpt lat="43.7881217" lon="12.7171683"><ele>116.0</ele><time>2026-03-29T08:14:53.961Z</time></trkpt><trkpt lat="43.788045" lon="12.7170233"><ele>116.0</ele><time>2026-03-29T08:14:54.961Z</time></trkpt><trkpt lat="43.7879683" lon="12.7168683"><ele>116.0</ele><time>2026-03-29T08:14:55.96Z</time></trkpt><trkpt lat="43.7878967" lon="12.7167117"><ele>116.0</ele><time>2026-03-29T08:14:56.961Z</time></trkpt><trkpt lat="43.7877533" lon="12.7164283"><ele>116.6</ele><time>2026-03-29T08:14:58.961Z</time></trkpt><trkpt lat="43.7876867" lon="12.7162833"><ele>117.19999999999999</ele><time>2026-03-29T08:14:59.961Z</time></trkpt><trkpt lat="43.787615" lon="12.71615"><ele>117.80000000000001</ele><time>2026-03-29T08:15:00.96Z</time></trkpt><trkpt lat="43.7875533" lon="12.716035"><ele>118.4</ele><time>2026-03-29T08:15:01.961Z</time></trkpt><trkpt lat="43.7874917" lon="12.715935"><ele>119.0</ele><time>2026-03-29T08:15:02.961Z</time></trkpt><trkpt lat="43.7874417" lon="12.715845"><ele>117.99999999999999</ele><time>2026-03-29T08:15:03.96Z</time></trkpt><trkpt lat="43.787395" lon="12.7157633"><ele>117.0</ele><time>2026-03-29T08:15:04.96Z</time></trkpt><trkpt lat="43.7873417" lon="12.7156833"><ele>116.0</ele><time>2026-03-29T08:15:05.961Z</time></trkpt><trkpt lat="43.78729" lon="12.7156033"><ele>115.0</ele><time>2026-03-29T08:15:06.961Z</time></trkpt><trkpt lat="43.78724" lon="12.7155233"><ele>113.99999999999999</ele><time>2026-03-29T08:15:07.961Z</time></trkpt><trkpt lat="43.7871883" lon="12.71545"><ele>113.0</ele><time>2026-03-29T08:15:08.96Z</time></trkpt><trkpt lat="43.78714" lon="12.7153833"><ele>113.0</ele><time>2026-03-29T08:15:09.96Z</time></trkpt><trkpt lat="43.787085" lon="12.71531"><ele>113.0</ele><time>2026-03-29T08:15:10.96Z</time></trkpt><trkpt lat="43.7870383" lon="12.7152283"><ele>113.0</ele><time>2026-03-29T08:15:11.961Z</time></trkpt><trkpt lat="43.78699" lon="12.71515"><ele>113.0</ele><time>2026-03-29T08:15:12.961Z</time></trkpt><trkpt lat="43.7869467" lon="12.7150783"><ele>113.0</ele><time>2026-03-29T08:15:13.96Z</time></trkpt><trkpt lat="43.786905" lon="12.7150017"><ele>113.0</ele><time>2026-03-29T08:15:14.96Z</time></trkpt><trkpt lat="43.7868667" lon="12.71491"><ele>113.0</ele><time>2026-03-29T08:15:15.961Z</time></trkpt><trkpt lat="43.7868167" lon="12.71482"><ele>112.5</ele><time>2026-03-29T08:15:16.96Z</time></trkpt><trkpt lat="43.7867617" lon="12.7147217"><ele>112.0</ele><time>2026-03-29T08:15:17.961Z</time></trkpt><trkpt lat="43.7866567" lon="12.7145167"><ele>111.5</ele><time>2026-03-29T08:15:19.96Z</time></trkpt><trkpt lat="43.7866067" lon="12.7144067"><ele>111.0</ele><time>2026-03-29T08:15:20.961Z</time></trkpt><trkpt lat="43.7865533" lon="12.7143083"><ele>111.66666666666667</ele><time>2026-03-29T08:15:21.961Z</time></trkpt><trkpt lat="43.7865" lon="12.71422"><ele>112.33333333333334</ele><time>2026-03-29T08:15:22.96Z</time></trkpt><trkpt lat="43.78645" lon="12.7141267"><ele>113.0</ele><time>2026-03-29T08:15:23.961Z</time></trkpt><trkpt lat="43.7863933" lon="12.7140333"><ele>113.66666666666667</ele><time>2026-03-29T08:15:24.96Z</time></trkpt><trkpt lat="43.786345" lon="12.7139467"><ele>114.33333333333334</ele><time>2026-03-29T08:15:25.96Z</time></trkpt><trkpt lat="43.7862933" lon="12.7138633"><ele>115.0</ele><time>2026-03-29T08:15:26.961Z</time></trkpt><trkpt lat="43.786245" lon="12.7137717"><ele>115.0</ele><time>2026-03-29T08:15:27.961Z</time></trkpt><trkpt lat="43.78619" lon="12.71368"><ele>115.0</ele><time>2026-03-29T08:15:28.961Z</time></trkpt><trkpt lat="43.7861333" lon="12.7135783"><ele>115.0</ele><time>2026-03-29T08:15:29.96Z</time></trkpt><trkpt lat="43.78608" lon="12.7134767"><ele>115.0</ele><time>2026-03-29T08:15:30.961Z</time></trkpt><trkpt lat="43.7860217" lon="12.7133783"><ele>115.0</ele><time>2026-03-29T08:15:31.961Z</time></trkpt><trkpt lat="43.78596" lon="12.713275"><ele>115.0</ele><time>2026-03-29T08:15:32.961Z</time></trkpt><trkpt lat="43.785905" lon="12.7131717"><ele>115.0</ele><time>2026-03-29T08:15:33.961Z</time></trkpt><trkpt lat="43.7858467" lon="12.713075"><ele>115.0</ele><time>2026-03-29T08:15:34.961Z</time></trkpt><trkpt lat="43.78579" lon="12.71297"><ele>115.0</ele><time>2026-03-29T08:15:35.96Z</time></trkpt><trkpt lat="43.785735" lon="12.7128633"><ele>115.0</ele><time>2026-03-29T08:15:36.961Z</time></trkpt><trkpt lat="43.785675" lon="12.7127583"><ele>116.0</ele><time>2026-03-29T08:15:37.961Z</time></trkpt><trkpt lat="43.785615" lon="12.7126283"><ele>117.0</ele><time>2026-03-29T08:15:38.96Z</time></trkpt><trkpt lat="43.785505" lon="12.7123267"><ele>118.0</ele><time>2026-03-29T08:15:40.961Z</time></trkpt><trkpt lat="43.7854367" lon="12.712185"><ele>118.0</ele><time>2026-03-29T08:15:41.961Z</time></trkpt><trkpt lat="43.7853683" lon="12.71203"><ele>118.0</ele><time>2026-03-29T08:15:42.961Z</time></trkpt><trkpt lat="43.7852917" lon="12.711875"><ele>118.0</ele><time>2026-03-29T08:15:43.961Z</time></trkpt><trkpt lat="43.785215" lon="12.7117267"><ele>118.0</ele><time>2026-03-29T08:15:44.961Z</time></trkpt><trkpt lat="43.7851367" lon="12.711565"><ele>117.75</ele><time>2026-03-29T08:15:45.961Z</time></trkpt><trkpt lat="43.7850567" lon="12.7114033"><ele>117.5</ele><time>2026-03-29T08:15:46.961Z</time></trkpt><trkpt lat="43.784965" lon="12.7112317"><ele>117.25</ele><time>2026-03-29T08:15:47.96Z</time></trkpt><trkpt lat="43.784885" lon="12.711065"><ele>117.0</ele><time>2026-03-29T08:15:48.96Z</time></trkpt><trkpt lat="43.7848033" lon="12.7108967"><ele>117.0</ele><time>2026-03-29T08:15:49.96Z</time></trkpt><trkpt lat="43.78472" lon="12.710735"><ele>117.0</ele><time>2026-03-29T08:15:50.96Z</time></trkpt><trkpt lat="43.7846183" lon="12.7105767"><ele>117.0</ele><time>2026-03-29T08:15:51.96Z</time></trkpt><trkpt lat="43.784525" lon="12.71041"><ele>117.0</ele><time>2026-03-29T08:15:52.96Z</time></trkpt><trkpt lat="43.784435" lon="12.71024"><ele>116.25</ele><time>2026-03-29T08:15:53.961Z</time></trkpt><trkpt lat="43.784345" lon="12.7100717"><ele>115.5</ele><time>2026-03-29T08:15:54.961Z</time></trkpt><trkpt lat="43.7842617" lon="12.709905"><ele>114.75</ele><time>2026-03-29T08:15:55.96Z</time></trkpt><trkpt lat="43.7841717" lon="12.7097483"><ele>114.0</ele><time>2026-03-29T08:15:56.961Z</time></trkpt><trkpt lat="43.7840917" lon="12.7096017"><ele>114.0</ele><time>2026-03-29T08:15:57.961Z</time></trkpt><trkpt lat="43.7840133" lon="12.7094733"><ele>114.0</ele><time>2026-03-29T08:15:58.96Z</time></trkpt><trkpt lat="43.7839433" lon="12.709345"><ele>114.0</ele><time>2026-03-29T08:15:59.96Z</time></trkpt><trkpt lat="43.78381" lon="12.7091067"><ele>114.2</ele><time>2026-03-29T08:16:01.96Z</time></trkpt><trkpt lat="43.7837617" lon="12.7089933"><ele>114.4</ele><time>2026-03-29T08:16:02.96Z</time></trkpt><trkpt lat="43.78374" lon="12.7088717"><ele>114.6</ele><time>2026-03-29T08:16:03.96Z</time></trkpt><trkpt lat="43.7837367" lon="12.708745"><ele>114.8</ele><time>2026-03-29T08:16:04.961Z</time></trkpt><trkpt lat="43.7837417" lon="12.7086117"><ele>115.0</ele><time>2026-03-29T08:16:05.961Z</time></trkpt><trkpt lat="43.7837517" lon="12.7084667"><ele>115.0</ele><time>2026-03-29T08:16:06.961Z</time></trkpt><trkpt lat="43.7837583" lon="12.7083067"><ele>115.0</ele><time>2026-03-29T08:16:07.961Z</time></trkpt><trkpt lat="43.7837717" lon="12.7081417"><ele>115.0</ele><time>2026-03-29T08:16:08.961Z</time></trkpt><trkpt lat="43.783785" lon="12.707965"><ele>115.0</ele><time>2026-03-29T08:16:09.961Z</time></trkpt><trkpt lat="43.7837933" lon="12.70778"><ele>117.25</ele><time>2026-03-29T08:16:10.961Z</time></trkpt><trkpt lat="43.783805" lon="12.7075767"><ele>119.5</ele><time>2026-03-29T08:16:11.96Z</time></trkpt><trkpt lat="43.7838" lon="12.7073983"><ele>121.75</ele><time>2026-03-29T08:16:12.961Z</time></trkpt><trkpt lat="43.78379" lon="12.7072533"><ele>124.0</ele><time>2026-03-29T08:16:13.961Z</time></trkpt><trkpt lat="43.7837583" lon="12.707155"><ele>124.0</ele><time>2026-03-29T08:16:14.96Z</time></trkpt><trkpt lat="43.78373" lon="12.7070733"><ele>124.0</ele><time>2026-03-29T08:16:15.961Z</time></trkpt><trkpt lat="43.7837283" lon="12.7069033"><ele>124.0</ele><time>2026-03-29T08:16:17.961Z</time></trkpt><trkpt lat="43.7838283" lon="12.7068117"><ele>124.0</ele><time>2026-03-29T08:16:19.96Z</time></trkpt><trkpt lat="43.7839083" lon="12.7068217"><ele>124.0</ele><time>2026-03-29T08:16:20.961Z</time></trkpt><trkpt lat="43.784105" lon="12.7068817"><ele>125.66666666666667</ele><time>2026-03-29T08:16:22.961Z</time></trkpt><trkpt lat="43.7841917" lon="12.7068867"><ele>127.33333333333334</ele><time>2026-03-29T08:16:23.961Z</time></trkpt><trkpt lat="43.78427" lon="12.706865"><ele>129.0</ele><time>2026-03-29T08:16:24.961Z</time></trkpt><trkpt lat="43.7843233" lon="12.7068183"><ele>130.66666666666666</ele><time>2026-03-29T08:16:25.96Z</time></trkpt><trkpt lat="43.7843667" lon="12.7066783"><ele>132.33333333333331</ele><time>2026-03-29T08:16:27.96Z</time></trkpt><trkpt lat="43.7843467" lon="12.70655"><ele>134.0</ele><time>2026-03-29T08:16:28.961Z</time></trkpt><trkpt lat="43.7843" lon="12.7064317"><ele>136.5</ele><time>2026-03-29T08:16:29.96Z</time></trkpt><trkpt lat="43.7842517" lon="12.7062833"><ele>139.0</ele><time>2026-03-29T08:16:30.961Z</time></trkpt><trkpt lat="43.78422" lon="12.706115"><ele>141.5</ele><time>2026-03-29T08:16:31.961Z</time></trkpt><trkpt lat="43.7842017" lon="12.705925"><ele>144.0</ele><time>2026-03-29T08:16:32.961Z</time></trkpt><trkpt lat="43.7841833" lon="12.7057267"><ele>147.0</ele><time>2026-03-29T08:16:33.96Z</time></trkpt><trkpt lat="43.7841867" lon="12.7055067"><ele>150.0</ele><time>2026-03-29T08:16:34.96Z</time></trkpt><trkpt lat="43.7841867" lon="12.7053033"><ele>153.0</ele><time>2026-03-29T08:16:35.96Z</time></trkpt><trkpt lat="43.7841917" lon="12.7051117"><ele>156.0</ele><time>2026-03-29T08:16:36.961Z</time></trkpt><trkpt lat="43.7842033" lon="12.70492"><ele>159.0</ele><time>2026-03-29T08:16:37.961Z</time></trkpt><trkpt lat="43.7842317" lon="12.7047217"><ele>162.0</ele><time>2026-03-29T08:16:38.961Z</time></trkpt><trkpt lat="43.7842733" lon="12.704515"><ele>165.0</ele><time>2026-03-29T08:16:39.961Z</time></trkpt><trkpt lat="43.7843133" lon="12.7043033"><ele>166.5</ele><time>2026-03-29T08:16:40.961Z</time></trkpt><trkpt lat="43.7843667" lon="12.704085"><ele>168.0</ele><time>2026-03-29T08:16:41.96Z</time></trkpt><trkpt lat="43.7845317" lon="12.703745"><ele>171.0</ele><time>2026-03-29T08:16:43.961Z</time></trkpt><trkpt lat="43.7846167" lon="12.70355"><ele>174.0</ele><time>2026-03-29T08:16:44.961Z</time></trkpt><trkpt lat="43.78469" lon="12.7033517"><ele>177.0</ele><time>2026-03-29T08:16:45.96Z</time></trkpt><trkpt lat="43.78476" lon="12.7031517"><ele>177.0</ele><time>2026-03-29T08:16:46.961Z</time></trkpt><trkpt lat="43.7848283" lon="12.702945"><ele>177.0</ele><time>2026-03-29T08:16:47.961Z</time></trkpt><trkpt lat="43.7848867" lon="12.70275"><ele>177.0</ele><time>2026-03-29T08:16:48.96Z</time></trkpt><trkpt lat="43.7849283" lon="12.7025567"><ele>179.0</ele><time>2026-03-29T08:16:49.961Z</time></trkpt><trkpt lat="43.7849667" lon="12.7023567"><ele>181.0</ele><time>2026-03-29T08:16:50.961Z</time></trkpt><trkpt lat="43.7850033" lon="12.702145"><ele>183.0</ele><time>2026-03-29T08:16:51.961Z</time></trkpt><trkpt lat="43.7850383" lon="12.7019483"><ele>184.25</ele><time>2026-03-29T08:16:52.961Z</time></trkpt><trkpt lat="43.785085" lon="12.7017383"><ele>185.5</ele><time>2026-03-29T08:16:53.961Z</time></trkpt><trkpt lat="43.78512" lon="12.7015417"><ele>186.75</ele><time>2026-03-29T08:16:54.96Z</time></trkpt><trkpt lat="43.785155" lon="12.701375"><ele>188.0</ele><time>2026-03-29T08:16:55.961Z</time></trkpt><trkpt lat="43.7852283" lon="12.70124"><ele>188.0</ele><time>2026-03-29T08:16:56.961Z</time></trkpt><trkpt lat="43.785335" lon="12.7011317"><ele>188.0</ele><time>2026-03-29T08:16:57.96Z</time></trkpt><trkpt lat="43.7854617" lon="12.7010567"><ele>188.0</ele><time>2026-03-29T08:16:58.961Z</time></trkpt><trkpt lat="43.7855867" lon="12.7009717"><ele>188.0</ele><time>2026-03-29T08:16:59.96Z</time></trkpt><trkpt lat="43.7856933" lon="12.70088"><ele>191.66666666666666</ele><time>2026-03-29T08:17:00.96Z</time></trkpt><trkpt lat="43.7857983" lon="12.7007817"><ele>195.33333333333331</ele><time>2026-03-29T08:17:01.96Z</time></trkpt><trkpt lat="43.7859083" lon="12.70068"><ele>199.0</ele><time>2026-03-29T08:17:02.961Z</time></trkpt><trkpt lat="43.7861483" lon="12.7005017"><ele>200.0</ele><time>2026-03-29T08:17:04.96Z</time></trkpt><trkpt lat="43.786275" lon="12.7004417"><ele>201.0</ele><time>2026-03-29T08:17:05.961Z</time></trkpt><trkpt lat="43.7864117" lon="12.7004083"><ele>202.0</ele><time>2026-03-29T08:17:06.96Z</time></trkpt><trkpt lat="43.7865617" lon="12.7003733"><ele>203.0</ele><time>2026-03-29T08:17:07.961Z</time></trkpt><trkpt lat="43.7867067" lon="12.7003617"><ele>202.33333333333334</ele><time>2026-03-29T08:17:08.961Z</time></trkpt><trkpt lat="43.7868567" lon="12.70034"><ele>201.66666666666669</ele><time>2026-03-29T08:17:09.96Z</time></trkpt><trkpt lat="43.7870067" lon="12.700305"><ele>201.0</ele><time>2026-03-29T08:17:10.96Z</time></trkpt><trkpt lat="43.7871517" lon="12.7002517"><ele>202.33333333333331</ele><time>2026-03-29T08:17:11.96Z</time></trkpt><trkpt lat="43.7873" lon="12.7001933"><ele>203.66666666666666</ele><time>2026-03-29T08:17:12.961Z</time></trkpt><trkpt lat="43.78744" lon="12.700115"><ele>205.0</ele><time>2026-03-29T08:17:13.961Z</time></trkpt><trkpt lat="43.7875833" lon="12.7000133"><ele>207.33333333333331</ele><time>2026-03-29T08:17:14.961Z</time></trkpt><trkpt lat="43.7877133" lon="12.6999067"><ele>209.66666666666669</ele><time>2026-03-29T08:17:15.961Z</time></trkpt><trkpt lat="43.7878467" lon="12.6997967"><ele>212.0</ele><time>2026-03-29T08:17:16.961Z</time></trkpt><trkpt lat="43.787985" lon="12.6996933"><ele>212.0</ele><time>2026-03-29T08:17:17.961Z</time></trkpt><trkpt lat="43.7881183" lon="12.6995917"><ele>212.0</ele><time>2026-03-29T08:17:18.961Z</time></trkpt><trkpt lat="43.7882483" lon="12.6994767"><ele>212.0</ele><time>2026-03-29T08:17:19.96Z</time></trkpt><trkpt lat="43.7883833" lon="12.699365"><ele>213.66666666666669</ele><time>2026-03-29T08:17:20.96Z</time></trkpt><trkpt lat="43.7885167" lon="12.6992467"><ele>215.33333333333331</ele><time>2026-03-29T08:17:21.96Z</time></trkpt><trkpt lat="43.7886467" lon="12.69913"><ele>217.0</ele><time>2026-03-29T08:17:22.961Z</time></trkpt><trkpt lat="43.7887817" lon="12.699015"><ele>217.0</ele><time>2026-03-29T08:17:23.961Z</time></trkpt><trkpt lat="43.78906" lon="12.698775"><ele>217.0</ele><time>2026-03-29T08:17:25.961Z</time></trkpt><trkpt lat="43.7891933" lon="12.6986467"><ele>218.33333333333331</ele><time>2026-03-29T08:17:26.96Z</time></trkpt><trkpt lat="43.7893283" lon="12.6984967"><ele>219.66666666666669</ele><time>2026-03-29T08:17:27.961Z</time></trkpt><trkpt lat="43.7894567" lon="12.6983617"><ele>221.0</ele><time>2026-03-29T08:17:28.96Z</time></trkpt><trkpt lat="43.7895767" lon="12.698235"><ele>221.0</ele><time>2026-03-29T08:17:29.96Z</time></trkpt><trkpt lat="43.7896983" lon="12.6980883"><ele>221.0</ele><time>2026-03-29T08:17:30.96Z</time></trkpt><trkpt lat="43.7898233" lon="12.6979467"><ele>221.0</ele><time>2026-03-29T08:17:31.961Z</time></trkpt><trkpt lat="43.7899533" lon="12.6978017"><ele>223.33333333333334</ele><time>2026-03-29T08:17:32.961Z</time></trkpt><trkpt lat="43.790075" lon="12.6976617"><ele>225.66666666666669</ele><time>2026-03-29T08:17:33.961Z</time></trkpt><trkpt lat="43.790205" lon="12.69752"><ele>228.0</ele><time>2026-03-29T08:17:34.961Z</time></trkpt><trkpt lat="43.7903317" lon="12.6973833"><ele>228.0</ele><time>2026-03-29T08:17:35.96Z</time></trkpt><trkpt lat="43.7904667" lon="12.6972433"><ele>228.0</ele><time>2026-03-29T08:17:36.96Z</time></trkpt><trkpt lat="43.790605" lon="12.697125"><ele>228.0</ele><time>2026-03-29T08:17:37.96Z</time></trkpt><trkpt lat="43.790735" lon="12.6969917"><ele>229.5</ele><time>2026-03-29T08:17:38.96Z</time></trkpt><trkpt lat="43.7908567" lon="12.6968683"><ele>231.0</ele><time>2026-03-29T08:17:39.961Z</time></trkpt><trkpt lat="43.790985" lon="12.69676"><ele>232.5</ele><time>2026-03-29T08:17:40.96Z</time></trkpt><trkpt lat="43.7911183" lon="12.6966733"><ele>234.0</ele><time>2026-03-29T08:17:41.961Z</time></trkpt><trkpt lat="43.791255" lon="12.6966117"><ele>236.33333333333331</ele><time>2026-03-29T08:17:42.96Z</time></trkpt><trkpt lat="43.7914" lon="12.6965683"><ele>238.66666666666666</ele><time>2026-03-29T08:17:43.96Z</time></trkpt><trkpt lat="43.791545" lon="12.6965183"><ele>241.0</ele><time>2026-03-29T08:17:44.961Z</time></trkpt><trkpt lat="43.79183" lon="12.69647"><ele>243.25</ele><time>2026-03-29T08:17:46.96Z</time></trkpt><trkpt lat="43.791965" lon="12.6964967"><ele>245.5</ele><time>2026-03-29T08:17:47.961Z</time></trkpt><trkpt lat="43.792105" lon="12.6965633"><ele>247.75</ele><time>2026-03-29T08:17:48.961Z</time></trkpt><trkpt lat="43.7922483" lon="12.696665"><ele>250.0</ele><time>2026-03-29T08:17:49.961Z</time></trkpt><trkpt lat="43.79239" lon="12.6967767"><ele>250.0</ele><time>2026-03-29T08:17:50.961Z</time></trkpt><trkpt lat="43.7925283" lon="12.6968967"><ele>250.0</ele><time>2026-03-29T08:17:51.961Z</time></trkpt><trkpt lat="43.7926783" lon="12.6970317"><ele>250.0</ele><time>2026-03-29T08:17:52.961Z</time></trkpt><trkpt lat="43.7928217" lon="12.697165"><ele>251.66666666666666</ele><time>2026-03-29T08:17:53.961Z</time></trkpt><trkpt lat="43.7929583" lon="12.697295"><ele>253.33333333333331</ele><time>2026-03-29T08:17:54.961Z</time></trkpt><trkpt lat="43.793085" lon="12.697415"><ele>255.0</ele><time>2026-03-29T08:17:55.961Z</time></trkpt><trkpt lat="43.7932117" lon="12.6975233"><ele>255.0</ele><time>2026-03-29T08:17:56.961Z</time></trkpt><trkpt lat="43.7933217" lon="12.6976267"><ele>255.0</ele><time>2026-03-29T08:17:57.961Z</time></trkpt><trkpt lat="43.79342" lon="12.6977267"><ele>255.0</ele><time>2026-03-29T08:17:58.96Z</time></trkpt><trkpt lat="43.7935017" lon="12.6978183"><ele>255.0</ele><time>2026-03-29T08:17:59.961Z</time></trkpt><trkpt lat="43.7935733" lon="12.6978967"><ele>254.8</ele><time>2026-03-29T08:18:00.961Z</time></trkpt><trkpt lat="43.7936333" lon="12.697965"><ele>254.6</ele><time>2026-03-29T08:18:01.961Z</time></trkpt><trkpt lat="43.7936867" lon="12.6980267"><ele>254.39999999999998</ele><time>2026-03-29T08:18:02.96Z</time></trkpt><trkpt lat="43.7937467" lon="12.6980533"><ele>254.2</ele><time>2026-03-29T08:18:04.96Z</time></trkpt><trkpt lat="43.7937783" lon="12.6979767"><ele>254.0</ele><time>2026-03-29T08:18:07.96Z</time></trkpt><trkpt lat="43.7937367" lon="12.6977317"><ele>254.6</ele><time>2026-03-29T08:18:10.961Z</time></trkpt><trkpt lat="43.793735" lon="12.69761"><ele>255.2</ele><time>2026-03-29T08:18:11.96Z</time></trkpt><trkpt lat="43.793755" lon="12.6974833"><ele>255.79999999999998</ele><time>2026-03-29T08:18:12.96Z</time></trkpt><trkpt lat="43.7937933" lon="12.6973483"><ele>256.4</ele><time>2026-03-29T08:18:13.961Z</time></trkpt><trkpt lat="43.7938567" lon="12.6971983"><ele>257.0</ele><time>2026-03-29T08:18:14.961Z</time></trkpt><trkpt lat="43.793925" lon="12.69704"><ele>255.25</ele><time>2026-03-29T08:18:15.961Z</time></trkpt><trkpt lat="43.7939767" lon="12.69688"><ele>253.5</ele><time>2026-03-29T08:18:16.961Z</time></trkpt><trkpt lat="43.7940183" lon="12.6967117"><ele>251.75</ele><time>2026-03-29T08:18:17.961Z</time></trkpt><trkpt lat="43.7940433" lon="12.6965667"><ele>250.0</ele><time>2026-03-29T08:18:18.961Z</time></trkpt><trkpt lat="43.7940467" lon="12.6964167"><ele>250.0</ele><time>2026-03-29T08:18:19.96Z</time></trkpt><trkpt lat="43.794035" lon="12.6962417"><ele>250.0</ele><time>2026-03-29T08:18:20.961Z</time></trkpt><trkpt lat="43.7939817" lon="12.6960683"><ele>250.0</ele><time>2026-03-29T08:18:21.961Z</time></trkpt><trkpt lat="43.7939033" lon="12.69591"><ele>250.0</ele><time>2026-03-29T08:18:22.961Z</time></trkpt><trkpt lat="43.793825" lon="12.6957667"><ele>247.5</ele><time>2026-03-29T08:18:23.961Z</time></trkpt><trkpt lat="43.7937483" lon="12.695615"><ele>245.0</ele><time>2026-03-29T08:18:24.96Z</time></trkpt><trkpt lat="43.7936783" lon="12.69545"><ele>242.5</ele><time>2026-03-29T08:18:25.96Z</time></trkpt><trkpt lat="43.79363" lon="12.6952733"><ele>240.0</ele><time>2026-03-29T08:18:26.961Z</time></trkpt><trkpt lat="43.7935933" lon="12.6950917"><ele>239.33333333333331</ele><time>2026-03-29T08:18:27.961Z</time></trkpt><trkpt lat="43.7935817" lon="12.6949117"><ele>238.66666666666666</ele><time>2026-03-29T08:18:28.961Z</time></trkpt><trkpt lat="43.7936033" lon="12.6945567"><ele>238.0</ele><time>2026-03-29T08:18:30.96Z</time></trkpt><trkpt lat="43.7936383" lon="12.6943717"><ele>237.75</ele><time>2026-03-29T08:18:31.961Z</time></trkpt><trkpt lat="43.79368" lon="12.694185"><ele>237.5</ele><time>2026-03-29T08:18:32.961Z</time></trkpt><trkpt lat="43.7937217" lon="12.6940017"><ele>237.25</ele><time>2026-03-29T08:18:33.961Z</time></trkpt><trkpt lat="43.7937533" lon="12.6938083"><ele>237.0</ele><time>2026-03-29T08:18:34.96Z</time></trkpt><trkpt lat="43.7937867" lon="12.6936267"><ele>237.0</ele><time>2026-03-29T08:18:35.96Z</time></trkpt><trkpt lat="43.79381" lon="12.6934483"><ele>237.0</ele><time>2026-03-29T08:18:36.961Z</time></trkpt><trkpt lat="43.7938183" lon="12.693275"><ele>237.0</ele><time>2026-03-29T08:18:37.96Z</time></trkpt><trkpt lat="43.7937883" lon="12.69309"><ele>237.0</ele><time>2026-03-29T08:18:38.961Z</time></trkpt><trkpt lat="43.793755" lon="12.6929117"><ele>238.5</ele><time>2026-03-29T08:18:39.96Z</time></trkpt><trkpt lat="43.7937283" lon="12.6927233"><ele>240.0</ele><time>2026-03-29T08:18:40.96Z</time></trkpt><trkpt lat="43.7937017" lon="12.6925417"><ele>241.5</ele><time>2026-03-29T08:18:41.961Z</time></trkpt><trkpt lat="43.79368" lon="12.6923483"><ele>243.0</ele><time>2026-03-29T08:18:42.961Z</time></trkpt><trkpt lat="43.79366" lon="12.692165"><ele>243.0</ele><time>2026-03-29T08:18:43.96Z</time></trkpt><trkpt lat="43.7936517" lon="12.69199"><ele>243.0</ele><time>2026-03-29T08:18:44.961Z</time></trkpt><trkpt lat="43.7936483" lon="12.69183"><ele>243.0</ele><time>2026-03-29T08:18:45.96Z</time></trkpt><trkpt lat="43.793655" lon="12.6917"><ele>243.0</ele><time>2026-03-29T08:18:46.961Z</time></trkpt><trkpt lat="43.7936867" lon="12.691565"><ele>243.0</ele><time>2026-03-29T08:18:47.96Z</time></trkpt><trkpt lat="43.79375" lon="12.69146"><ele>245.0</ele><time>2026-03-29T08:18:48.961Z</time></trkpt><trkpt lat="43.793815" lon="12.6913367"><ele>247.0</ele><time>2026-03-29T08:18:49.96Z</time></trkpt><trkpt lat="43.793935" lon="12.6910183"><ele>249.0</ele><time>2026-03-29T08:18:51.961Z</time></trkpt><trkpt lat="43.7939733" lon="12.69083"><ele>249.75</ele><time>2026-03-29T08:18:52.96Z</time></trkpt><trkpt lat="43.7940083" lon="12.690645"><ele>250.5</ele><time>2026-03-29T08:18:53.961Z</time></trkpt><trkpt lat="43.7940267" lon="12.690455"><ele>251.25</ele><time>2026-03-29T08:18:54.961Z</time></trkpt><trkpt lat="43.794035" lon="12.6902383"><ele>252.0</ele><time>2026-03-29T08:18:55.961Z</time></trkpt><trkpt lat="43.7940417" lon="12.6900317"><ele>253.25</ele><time>2026-03-29T08:18:56.961Z</time></trkpt><trkpt lat="43.7940517" lon="12.689835"><ele>254.5</ele><time>2026-03-29T08:18:57.961Z</time></trkpt><trkpt lat="43.794055" lon="12.6896333"><ele>255.75</ele><time>2026-03-29T08:18:58.96Z</time></trkpt><trkpt lat="43.7940617" lon="12.6894367"><ele>257.0</ele><time>2026-03-29T08:18:59.961Z</time></trkpt><trkpt lat="43.79408" lon="12.689245"><ele>259.25</ele><time>2026-03-29T08:19:00.96Z</time></trkpt><trkpt lat="43.7941167" lon="12.6890633"><ele>261.5</ele><time>2026-03-29T08:19:01.96Z</time></trkpt><trkpt lat="43.79418" lon="12.6888983"><ele>263.75</ele><time>2026-03-29T08:19:02.96Z</time></trkpt><trkpt lat="43.7942617" lon="12.6887483"><ele>266.0</ele><time>2026-03-29T08:19:03.961Z</time></trkpt><trkpt lat="43.7943467" lon="12.6885917"><ele>266.0</ele><time>2026-03-29T08:19:04.96Z</time></trkpt><trkpt lat="43.79443" lon="12.6884217"><ele>266.0</ele><time>2026-03-29T08:19:05.96Z</time></trkpt><trkpt lat="43.7944967" lon="12.6882467"><ele>266.0</ele><time>2026-03-29T08:19:06.961Z</time></trkpt><trkpt lat="43.794555" lon="12.68805"><ele>266.0</ele><time>2026-03-29T08:19:07.961Z</time></trkpt><trkpt lat="43.7946017" lon="12.68785"><ele>270.0</ele><time>2026-03-29T08:19:08.961Z</time></trkpt><trkpt lat="43.7946417" lon="12.687665"><ele>274.0</ele><time>2026-03-29T08:19:09.961Z</time></trkpt><trkpt lat="43.7946817" lon="12.6874983"><ele>278.0</ele><time>2026-03-29T08:19:10.961Z</time></trkpt><trkpt lat="43.7948167" lon="12.6872317"><ele>278.0</ele><time>2026-03-29T08:19:12.961Z</time></trkpt><trkpt lat="43.7949167" lon="12.68711"><ele>278.0</ele><time>2026-03-29T08:19:13.96Z</time></trkpt><trkpt lat="43.7950233" lon="12.6870117"><ele>278.0</ele><time>2026-03-29T08:19:14.961Z</time></trkpt><trkpt lat="43.795155" lon="12.686935"><ele>278.0</ele><time>2026-03-29T08:19:15.96Z</time></trkpt><trkpt lat="43.795295" lon="12.6868933"><ele>280.33333333333337</ele><time>2026-03-29T08:19:16.96Z</time></trkpt><trkpt lat="43.795445" lon="12.686865"><ele>282.6666666666667</ele><time>2026-03-29T08:19:17.96Z</time></trkpt><trkpt lat="43.7956067" lon="12.6868417"><ele>285.0</ele><time>2026-03-29T08:19:18.961Z</time></trkpt><trkpt lat="43.7957667" lon="12.6868117"><ele>285.0</ele><time>2026-03-29T08:19:19.96Z</time></trkpt><trkpt lat="43.7959217" lon="12.686775"><ele>285.0</ele><time>2026-03-29T08:19:20.961Z</time></trkpt><trkpt lat="43.7960717" lon="12.6867517"><ele>285.0</ele><time>2026-03-29T08:19:21.96Z</time></trkpt><trkpt lat="43.79622" lon="12.6867283"><ele>284.0</ele><time>2026-03-29T08:19:22.96Z</time></trkpt><trkpt lat="43.7963683" lon="12.6867067"><ele>283.0</ele><time>2026-03-29T08:19:23.96Z</time></trkpt><trkpt lat="43.7965167" lon="12.6866883"><ele>282.0</ele><time>2026-03-29T08:19:24.96Z</time></trkpt><trkpt lat="43.7966783" lon="12.6866683"><ele>281.3333333333333</ele><time>2026-03-29T08:19:25.961Z</time></trkpt><trkpt lat="43.7968383" lon="12.68665"><ele>280.66666666666663</ele><time>2026-03-29T08:19:26.96Z</time></trkpt><trkpt lat="43.7969917" lon="12.6866417"><ele>280.0</ele><time>2026-03-29T08:19:27.96Z</time></trkpt><trkpt lat="43.7971417" lon="12.6866117"><ele>280.0</ele><time>2026-03-29T08:19:28.961Z</time></trkpt><trkpt lat="43.7972917" lon="12.6866"><ele>280.0</ele><time>2026-03-29T08:19:29.96Z</time></trkpt><trkpt lat="43.797445" lon="12.6866167"><ele>280.0</ele><time>2026-03-29T08:19:30.961Z</time></trkpt><trkpt lat="43.7975967" lon="12.6866717"><ele>282.5</ele><time>2026-03-29T08:19:31.961Z</time></trkpt><trkpt lat="43.797855" lon="12.6869"><ele>285.0</ele><time>2026-03-29T08:19:33.961Z</time></trkpt><trkpt lat="43.797985" lon="12.6870433"><ele>279.3333333333333</ele><time>2026-03-29T08:19:34.96Z</time></trkpt><trkpt lat="43.79812" lon="12.687175"><ele>273.66666666666663</ele><time>2026-03-29T08:19:35.961Z</time></trkpt><trkpt lat="43.7982667" lon="12.687315"><ele>268.0</ele><time>2026-03-29T08:19:36.961Z</time></trkpt><trkpt lat="43.7984033" lon="12.6874467"><ele>269.66666666666663</ele><time>2026-03-29T08:19:37.961Z</time></trkpt><trkpt lat="43.7985367" lon="12.687565"><ele>271.3333333333333</ele><time>2026-03-29T08:19:38.961Z</time></trkpt><trkpt lat="43.7986817" lon="12.6876817"><ele>273.0</ele><time>2026-03-29T08:19:39.96Z</time></trkpt><trkpt lat="43.7988217" lon="12.6877933"><ele>269.6666666666667</ele><time>2026-03-29T08:19:40.96Z</time></trkpt><trkpt lat="43.7989583" lon="12.6879033"><ele>266.33333333333337</ele><time>2026-03-29T08:19:41.96Z</time></trkpt><trkpt lat="43.799095" lon="12.6880167"><ele>263.0</ele><time>2026-03-29T08:19:42.961Z</time></trkpt><trkpt lat="43.7992217" lon="12.6881333"><ele>263.0</ele><time>2026-03-29T08:19:43.96Z</time></trkpt><trkpt lat="43.7993317" lon="12.6882333"><ele>263.0</ele><time>2026-03-29T08:19:44.96Z</time></trkpt><trkpt lat="43.79943" lon="12.688315"><ele>263.0</ele><time>2026-03-29T08:19:45.961Z</time></trkpt><trkpt lat="43.7995183" lon="12.688385"><ele>263.0</ele><time>2026-03-29T08:19:46.96Z</time></trkpt><trkpt lat="43.7996" lon="12.6884417"><ele>263.0</ele><time>2026-03-29T08:19:47.961Z</time></trkpt><trkpt lat="43.7996667" lon="12.68847"><ele>262.75</ele><time>2026-03-29T08:19:48.961Z</time></trkpt><trkpt lat="43.7997333" lon="12.6884783"><ele>262.5</ele><time>2026-03-29T08:19:49.96Z</time></trkpt><trkpt lat="43.7998383" lon="12.6884167"><ele>262.25</ele><time>2026-03-29T08:19:51.96Z</time></trkpt><trkpt lat="43.79987" lon="12.68832"><ele>262.0</ele><time>2026-03-29T08:19:52.961Z</time></trkpt><trkpt lat="43.799875" lon="12.68802"><ele>262.0</ele><time>2026-03-29T08:19:54.96Z</time></trkpt><trkpt lat="43.7998683" lon="12.6878383"><ele>262.0</ele><time>2026-03-29T08:19:55.96Z</time></trkpt><trkpt lat="43.799865" lon="12.6876633"><ele>262.0</ele><time>2026-03-29T08:19:56.961Z</time></trkpt><trkpt lat="43.7998667" lon="12.6874833"><ele>262.0</ele><time>2026-03-29T08:19:57.96Z</time></trkpt><trkpt lat="43.7998533" lon="12.6872967"><ele>262.25</ele><time>2026-03-29T08:19:58.96Z</time></trkpt><trkpt lat="43.79985" lon="12.68711"><ele>262.5</ele><time>2026-03-29T08:19:59.96Z</time></trkpt><trkpt lat="43.79984" lon="12.6869083"><ele>262.75</ele><time>2026-03-29T08:20:00.961Z</time></trkpt><trkpt lat="43.79983" lon="12.6867267"><ele>263.0</ele><time>2026-03-29T08:20:01.96Z</time></trkpt><trkpt lat="43.7998117" lon="12.686545"><ele>263.0</ele><time>2026-03-29T08:20:02.961Z</time></trkpt><trkpt lat="43.7998" lon="12.686355"><ele>263.0</ele><time>2026-03-29T08:20:03.961Z</time></trkpt><trkpt lat="43.7997833" lon="12.686175"><ele>263.0</ele><time>2026-03-29T08:20:04.96Z</time></trkpt><trkpt lat="43.7997617" lon="12.6859967"><ele>263.0</ele><time>2026-03-29T08:20:05.961Z</time></trkpt><trkpt lat="43.799745" lon="12.6858217"><ele>263.0</ele><time>2026-03-29T08:20:06.961Z</time></trkpt><trkpt lat="43.7997333" lon="12.6856583"><ele>263.0</ele><time>2026-03-29T08:20:07.961Z</time></trkpt><trkpt lat="43.7997117" lon="12.6854783"><ele>263.0</ele><time>2026-03-29T08:20:08.961Z</time></trkpt><trkpt lat="43.799695" lon="12.6852933"><ele>263.0</ele><time>2026-03-29T08:20:09.961Z</time></trkpt><trkpt lat="43.7996733" lon="12.6851017"><ele>262.0</ele><time>2026-03-29T08:20:10.961Z</time></trkpt><trkpt lat="43.7996533" lon="12.684905"><ele>261.0</ele><time>2026-03-29T08:20:11.961Z</time></trkpt><trkpt lat="43.7996167" lon="12.6846983"><ele>260.0</ele><time>2026-03-29T08:20:12.961Z</time></trkpt><trkpt lat="43.7995967" lon="12.6844933"><ele>259.0</ele><time>2026-03-29T08:20:13.96Z</time></trkpt><trkpt lat="43.79958" lon="12.6841167"><ele>258.66666666666663</ele><time>2026-03-29T08:20:15.961Z</time></trkpt><trkpt lat="43.7995617" lon="12.6838883"><ele>258.3333333333333</ele><time>2026-03-29T08:20:16.961Z</time></trkpt><trkpt lat="43.7995467" lon="12.68368"><ele>258.0</ele><time>2026-03-29T08:20:17.961Z</time></trkpt><trkpt lat="43.79954" lon="12.68348"><ele>258.0</ele><time>2026-03-29T08:20:18.961Z</time></trkpt><trkpt lat="43.7995317" lon="12.6833017"><ele>258.0</ele><time>2026-03-29T08:20:19.961Z</time></trkpt><trkpt lat="43.7995217" lon="12.6831467"><ele>258.0</ele><time>2026-03-29T08:20:20.96Z</time></trkpt><trkpt lat="43.7995167" lon="12.683015"><ele>258.0</ele><time>2026-03-29T08:20:21.96Z</time></trkpt><trkpt lat="43.79953" lon="12.68288"><ele>258.0</ele><time>2026-03-29T08:20:22.961Z</time></trkpt><trkpt lat="43.799545" lon="12.6827267"><ele>256.5</ele><time>2026-03-29T08:20:23.96Z</time></trkpt><trkpt lat="43.7995417" lon="12.6825467"><ele>255.0</ele><time>2026-03-29T08:20:24.961Z</time></trkpt><trkpt lat="43.7995383" lon="12.6823467"><ele>253.5</ele><time>2026-03-29T08:20:25.96Z</time></trkpt><trkpt lat="43.79953" lon="12.68214"><ele>252.0</ele><time>2026-03-29T08:20:26.96Z</time></trkpt><trkpt lat="43.799515" lon="12.68193"><ele>250.75</ele><time>2026-03-29T08:20:27.96Z</time></trkpt><trkpt lat="43.799505" lon="12.68173"><ele>249.5</ele><time>2026-03-29T08:20:28.96Z</time></trkpt><trkpt lat="43.7995017" lon="12.6815417"><ele>248.25</ele><time>2026-03-29T08:20:29.961Z</time></trkpt><trkpt lat="43.7994967" lon="12.6813833"><ele>247.0</ele><time>2026-03-29T08:20:30.961Z</time></trkpt><trkpt lat="43.799485" lon="12.681265"><ele>247.0</ele><time>2026-03-29T08:20:31.96Z</time></trkpt><trkpt lat="43.7994817" lon="12.6811733"><ele>247.0</ele><time>2026-03-29T08:20:32.961Z</time></trkpt><trkpt lat="43.7994767" lon="12.6810717"><ele>247.0</ele><time>2026-03-29T08:20:34.961Z</time></trkpt><trkpt lat="43.79941" lon="12.6809233"><ele>247.0</ele><time>2026-03-29T08:22:46.957Z</time></trkpt><trkpt lat="43.7992933" lon="12.6809433"><ele>247.0</ele><time>2026-03-29T08:22:48.957Z</time></trkpt><trkpt lat="43.7992267" lon="12.68097"><ele>248.2</ele><time>2026-03-29T08:22:49.957Z</time></trkpt><trkpt lat="43.799125" lon="12.68099"><ele>249.39999999999998</ele><time>2026-03-29T08:22:50.957Z</time></trkpt><trkpt lat="43.79902" lon="12.6810217"><ele>250.60000000000002</ele><time>2026-03-29T08:22:51.956Z</time></trkpt><trkpt lat="43.7989133" lon="12.6810483"><ele>251.8</ele><time>2026-03-29T08:22:52.957Z</time></trkpt><trkpt lat="43.7987917" lon="12.681065"><ele>253.0</ele><time>2026-03-29T08:22:53.956Z</time></trkpt><trkpt lat="43.7986633" lon="12.6810833"><ele>254.75</ele><time>2026-03-29T08:22:54.957Z</time></trkpt><trkpt lat="43.7985433" lon="12.6811017"><ele>256.5</ele><time>2026-03-29T08:22:55.957Z</time></trkpt><trkpt lat="43.7984183" lon="12.6811167"><ele>258.25</ele><time>2026-03-29T08:22:56.956Z</time></trkpt><trkpt lat="43.7982983" lon="12.6811267"><ele>260.0</ele><time>2026-03-29T08:22:57.956Z</time></trkpt><trkpt lat="43.7981617" lon="12.681145"><ele>262.75</ele><time>2026-03-29T08:22:58.957Z</time></trkpt><trkpt lat="43.7980167" lon="12.6811617"><ele>265.5</ele><time>2026-03-29T08:22:59.956Z</time></trkpt><trkpt lat="43.7978717" lon="12.6811667"><ele>268.25</ele><time>2026-03-29T08:23:00.957Z</time></trkpt><trkpt lat="43.7977283" lon="12.68118"><ele>271.0</ele><time>2026-03-29T08:23:01.957Z</time></trkpt><trkpt lat="43.7975733" lon="12.681185"><ele>272.66666666666663</ele><time>2026-03-29T08:23:02.957Z</time></trkpt><trkpt lat="43.7974217" lon="12.6811883"><ele>274.3333333333333</ele><time>2026-03-29T08:23:03.957Z</time></trkpt><trkpt lat="43.7972633" lon="12.6811783"><ele>276.0</ele><time>2026-03-29T08:23:04.957Z</time></trkpt><trkpt lat="43.7970983" lon="12.68116"><ele>276.0</ele><time>2026-03-29T08:23:05.957Z</time></trkpt><trkpt lat="43.7969317" lon="12.6811417"><ele>276.0</ele><time>2026-03-29T08:23:06.957Z</time></trkpt><trkpt lat="43.79677" lon="12.681125"><ele>276.0</ele><time>2026-03-29T08:23:07.956Z</time></trkpt><trkpt lat="43.7966067" lon="12.681105"><ele>269.0</ele><time>2026-03-29T08:23:08.956Z</time></trkpt><trkpt lat="43.7964433" lon="12.6810667"><ele>262.0</ele><time>2026-03-29T08:23:09.957Z</time></trkpt><trkpt lat="43.79629" lon="12.681015"><ele>255.0</ele><time>2026-03-29T08:23:10.956Z</time></trkpt><trkpt lat="43.7961367" lon="12.6809617"><ele>256.6666666666667</ele><time>2026-03-29T08:23:11.956Z</time></trkpt><trkpt lat="43.7959867" lon="12.6808983"><ele>258.33333333333337</ele><time>2026-03-29T08:23:12.957Z</time></trkpt><trkpt lat="43.7958367" lon="12.6808033"><ele>260.0</ele><time>2026-03-29T08:23:13.957Z</time></trkpt><trkpt lat="43.7956817" lon="12.6806817"><ele>260.0</ele><time>2026-03-29T08:23:14.956Z</time></trkpt><trkpt lat="43.7955367" lon="12.680545"><ele>260.0</ele><time>2026-03-29T08:23:15.957Z</time></trkpt><trkpt lat="43.795395" lon="12.6803933"><ele>260.0</ele><time>2026-03-29T08:23:16.957Z</time></trkpt><trkpt lat="43.79525" lon="12.68026"><ele>260.6666666666667</ele><time>2026-03-29T08:23:17.956Z</time></trkpt><trkpt lat="43.7951067" lon="12.6801333"><ele>261.3333333333333</ele><time>2026-03-29T08:23:18.957Z</time></trkpt><trkpt lat="43.79495" lon="12.6799833"><ele>262.0</ele><time>2026-03-29T08:23:19.956Z</time></trkpt><trkpt lat="43.794795" lon="12.6798467"><ele>262.0</ele><time>2026-03-29T08:23:20.956Z</time></trkpt><trkpt lat="43.7946383" lon="12.67971"><ele>262.0</ele><time>2026-03-29T08:23:21.957Z</time></trkpt><trkpt lat="43.794495" lon="12.67958"><ele>262.0</ele><time>2026-03-29T08:23:22.956Z</time></trkpt><trkpt lat="43.7943467" lon="12.679445"><ele>259.3333333333333</ele><time>2026-03-29T08:23:23.957Z</time></trkpt><trkpt lat="43.7941983" lon="12.6793083"><ele>256.6666666666667</ele><time>2026-03-29T08:23:24.957Z</time></trkpt><trkpt lat="43.7940567" lon="12.6791717"><ele>254.0</ele><time>2026-03-29T08:23:25.957Z</time></trkpt><trkpt lat="43.7939133" lon="12.6790283"><ele>254.0</ele><time>2026-03-29T08:23:26.956Z</time></trkpt><trkpt lat="43.7937867" lon="12.6788583"><ele>254.0</ele><time>2026-03-29T08:23:27.956Z</time></trkpt><trkpt lat="43.7936767" lon="12.6786683"><ele>254.0</ele><time>2026-03-29T08:23:28.957Z</time></trkpt><trkpt lat="43.793575" lon="12.678455"><ele>253.66666666666669</ele><time>2026-03-29T08:23:29.956Z</time></trkpt><trkpt lat="43.7934767" lon="12.6782267"><ele>253.33333333333331</ele><time>2026-03-29T08:23:30.957Z</time></trkpt><trkpt lat="43.793375" lon="12.6779883"><ele>253.0</ele><time>2026-03-29T08:23:31.957Z</time></trkpt><trkpt lat="43.7932633" lon="12.6777467"><ele>252.33333333333331</ele><time>2026-03-29T08:23:32.956Z</time></trkpt><trkpt lat="43.79315" lon="12.6775183"><ele>251.66666666666669</ele><time>2026-03-29T08:23:33.957Z</time></trkpt><trkpt lat="43.7930433" lon="12.677305"><ele>251.0</ele><time>2026-03-29T08:23:34.957Z</time></trkpt><trkpt lat="43.7929317" lon="12.677095"><ele>251.0</ele><time>2026-03-29T08:23:35.957Z</time></trkpt><trkpt lat="43.79282" lon="12.6768967"><ele>251.0</ele><time>2026-03-29T08:23:36.957Z</time></trkpt><trkpt lat="43.792715" lon="12.676685"><ele>251.0</ele><time>2026-03-29T08:23:37.957Z</time></trkpt><trkpt lat="43.7926017" lon="12.676485"><ele>252.0</ele><time>2026-03-29T08:23:38.957Z</time></trkpt><trkpt lat="43.792485" lon="12.676295"><ele>253.0</ele><time>2026-03-29T08:23:39.957Z</time></trkpt><trkpt lat="43.792375" lon="12.6760967"><ele>254.0</ele><time>2026-03-29T08:23:40.957Z</time></trkpt><trkpt lat="43.7922667" lon="12.6758983"><ele>255.66666666666669</ele><time>2026-03-29T08:23:41.956Z</time></trkpt><trkpt lat="43.792155" lon="12.6757133"><ele>257.3333333333333</ele><time>2026-03-29T08:23:42.956Z</time></trkpt><trkpt lat="43.7920317" lon="12.6755317"><ele>259.0</ele><time>2026-03-29T08:23:43.957Z</time></trkpt><trkpt lat="43.79193" lon="12.675365"><ele>259.0</ele><time>2026-03-29T08:23:44.957Z</time></trkpt><trkpt lat="43.7918017" lon="12.6752083"><ele>259.0</ele><time>2026-03-29T08:23:45.957Z</time></trkpt><trkpt lat="43.79166" lon="12.6750717"><ele>259.0</ele><time>2026-03-29T08:23:46.957Z</time></trkpt><trkpt lat="43.7915133" lon="12.674945"><ele>259.0</ele><time>2026-03-29T08:23:47.957Z</time></trkpt><trkpt lat="43.791355" lon="12.6748333"><ele>259.0</ele><time>2026-03-29T08:23:48.957Z</time></trkpt><trkpt lat="43.79119" lon="12.674715"><ele>259.0</ele><time>2026-03-29T08:23:49.957Z</time></trkpt><trkpt lat="43.7910417" lon="12.6745967"><ele>257.3333333333333</ele><time>2026-03-29T08:23:50.957Z</time></trkpt><trkpt lat="43.7909117" lon="12.674465"><ele>255.66666666666669</ele><time>2026-03-29T08:23:51.956Z</time></trkpt><trkpt lat="43.7907767" lon="12.6743367"><ele>254.0</ele><time>2026-03-29T08:23:52.957Z</time></trkpt><trkpt lat="43.7906533" lon="12.674205"><ele>254.0</ele><time>2026-03-29T08:23:53.956Z</time></trkpt><trkpt lat="43.790535" lon="12.6740817"><ele>254.0</ele><time>2026-03-29T08:23:54.957Z</time></trkpt><trkpt lat="43.7904317" lon="12.673965"><ele>254.0</ele><time>2026-03-29T08:23:55.956Z</time></trkpt><trkpt lat="43.7903483" lon="12.67387"><ele>254.0</ele><time>2026-03-29T08:23:56.957Z</time></trkpt><trkpt lat="43.79028" lon="12.6737967"><ele>254.00000000000003</ele><time>2026-03-29T08:23:57.956Z</time></trkpt><trkpt lat="43.7902233" lon="12.6737367"><ele>254.0</ele><time>2026-03-29T08:23:58.957Z</time></trkpt><trkpt lat="43.7901667" lon="12.673685"><ele>254.0</ele><time>2026-03-29T08:23:59.957Z</time></trkpt><trkpt lat="43.7900867" lon="12.673595"><ele>254.0</ele><time>2026-03-29T08:24:01.957Z</time></trkpt><trkpt lat="43.7900367" lon="12.6735417"><ele>254.00000000000003</ele><time>2026-03-29T08:24:03.957Z</time></trkpt><trkpt lat="43.7899583" lon="12.6734867"><ele>254.0</ele><time>2026-03-29T08:24:35.956Z</time></trkpt><trkpt lat="43.7898917" lon="12.6734267"><ele>252.6</ele><time>2026-03-29T08:24:36.957Z</time></trkpt><trkpt lat="43.789815" lon="12.6733683"><ele>251.2</ele><time>2026-03-29T08:24:37.957Z</time></trkpt><trkpt lat="43.789725" lon="12.6733083"><ele>249.79999999999998</ele><time>2026-03-29T08:24:38.956Z</time></trkpt><trkpt lat="43.7896183" lon="12.6732467"><ele>248.39999999999998</ele><time>2026-03-29T08:24:39.957Z</time></trkpt><trkpt lat="43.789505" lon="12.6731883"><ele>247.0</ele><time>2026-03-29T08:24:40.956Z</time></trkpt><trkpt lat="43.7894" lon="12.6731283"><ele>246.25</ele><time>2026-03-29T08:24:41.957Z</time></trkpt><trkpt lat="43.7892867" lon="12.6730717"><ele>245.5</ele><time>2026-03-29T08:24:42.956Z</time></trkpt><trkpt lat="43.7891633" lon="12.673015"><ele>244.75</ele><time>2026-03-29T08:24:43.956Z</time></trkpt><trkpt lat="43.7890317" lon="12.6729483"><ele>244.0</ele><time>2026-03-29T08:24:44.957Z</time></trkpt><trkpt lat="43.7888933" lon="12.6728883"><ele>244.0</ele><time>2026-03-29T08:24:45.956Z</time></trkpt><trkpt lat="43.7887433" lon="12.6728317"><ele>244.0</ele><time>2026-03-29T08:24:46.956Z</time></trkpt><trkpt lat="43.7886017" lon="12.6727767"><ele>244.0</ele><time>2026-03-29T08:24:47.957Z</time></trkpt><trkpt lat="43.7884733" lon="12.67272"><ele>244.0</ele><time>2026-03-29T08:24:48.957Z</time></trkpt><trkpt lat="43.788345" lon="12.672665"><ele>244.25</ele><time>2026-03-29T08:24:49.957Z</time></trkpt><trkpt lat="43.788215" lon="12.6726117"><ele>244.5</ele><time>2026-03-29T08:24:50.956Z</time></trkpt><trkpt lat="43.7880883" lon="12.672555"><ele>244.75</ele><time>2026-03-29T08:24:51.957Z</time></trkpt><trkpt lat="43.78796" lon="12.672495"><ele>245.0</ele><time>2026-03-29T08:24:52.957Z</time></trkpt><trkpt lat="43.7878233" lon="12.6724233"><ele>245.0</ele><time>2026-03-29T08:24:53.956Z</time></trkpt><trkpt lat="43.7876817" lon="12.6723633"><ele>245.0</ele><time>2026-03-29T08:24:54.957Z</time></trkpt><trkpt lat="43.7875433" lon="12.6723"><ele>245.0</ele><time>2026-03-29T08:24:55.957Z</time></trkpt><trkpt lat="43.78742" lon="12.6722233"><ele>245.0</ele><time>2026-03-29T08:24:56.957Z</time></trkpt><trkpt lat="43.7872883" lon="12.67214"><ele>245.5</ele><time>2026-03-29T08:24:57.957Z</time></trkpt><trkpt lat="43.7871783" lon="12.67203"><ele>246.0</ele><time>2026-03-29T08:24:58.957Z</time></trkpt><trkpt lat="43.7870833" lon="12.671895"><ele>246.5</ele><time>2026-03-29T08:24:59.956Z</time></trkpt><trkpt lat="43.7869883" lon="12.6717417"><ele>247.0</ele><time>2026-03-29T08:25:00.956Z</time></trkpt><trkpt lat="43.7868767" lon="12.6715867"><ele>248.5</ele><time>2026-03-29T08:25:01.957Z</time></trkpt><trkpt lat="43.7867783" lon="12.6714383"><ele>250.0</ele><time>2026-03-29T08:25:02.957Z</time></trkpt><trkpt lat="43.7866783" lon="12.671305"><ele>251.5</ele><time>2026-03-29T08:25:03.957Z</time></trkpt><trkpt lat="43.7865917" lon="12.67119"><ele>253.0</ele><time>2026-03-29T08:25:04.956Z</time></trkpt><trkpt lat="43.7864967" lon="12.6710933"><ele>253.0</ele><time>2026-03-29T08:25:05.957Z</time></trkpt><trkpt lat="43.7863983" lon="12.6710117"><ele>253.0</ele><time>2026-03-29T08:25:06.957Z</time></trkpt><trkpt lat="43.7862983" lon="12.6709517"><ele>253.0</ele><time>2026-03-29T08:25:07.957Z</time></trkpt><trkpt lat="43.7861867" lon="12.67091"><ele>253.0</ele><time>2026-03-29T08:25:08.957Z</time></trkpt><trkpt lat="43.7860633" lon="12.6709017"><ele>255.5</ele><time>2026-03-29T08:25:09.957Z</time></trkpt><trkpt lat="43.7859383" lon="12.6709067"><ele>258.0</ele><time>2026-03-29T08:25:10.956Z</time></trkpt><trkpt lat="43.7858067" lon="12.6709117"><ele>260.5</ele><time>2026-03-29T08:25:11.956Z</time></trkpt><trkpt lat="43.7856717" lon="12.6708967"><ele>263.0</ele><time>2026-03-29T08:25:12.956Z</time></trkpt><trkpt lat="43.7855417" lon="12.6708467"><ele>263.0</ele><time>2026-03-29T08:25:13.957Z</time></trkpt><trkpt lat="43.78541" lon="12.670775"><ele>263.0</ele><time>2026-03-29T08:25:14.957Z</time></trkpt><trkpt lat="43.78528" lon="12.67069"><ele>263.0</ele><time>2026-03-29T08:25:15.957Z</time></trkpt><trkpt lat="43.7851517" lon="12.670585"><ele>263.0</ele><time>2026-03-29T08:25:16.956Z</time></trkpt><trkpt lat="43.78503" lon="12.6704683"><ele>263.75</ele><time>2026-03-29T08:25:17.957Z</time></trkpt><trkpt lat="43.7849133" lon="12.6703567"><ele>264.5</ele><time>2026-03-29T08:25:18.956Z</time></trkpt><trkpt lat="43.7847933" lon="12.670255"><ele>265.25</ele><time>2026-03-29T08:25:19.957Z</time></trkpt><trkpt lat="43.7846767" lon="12.6701617"><ele>266.0</ele><time>2026-03-29T08:25:20.957Z</time></trkpt><trkpt lat="43.784565" lon="12.6700767"><ele>266.0</ele><time>2026-03-29T08:25:21.956Z</time></trkpt><trkpt lat="43.7844617" lon="12.6699967"><ele>266.0</ele><time>2026-03-29T08:25:22.956Z</time></trkpt><trkpt lat="43.7843667" lon="12.669925"><ele>266.0</ele><time>2026-03-29T08:25:23.956Z</time></trkpt><trkpt lat="43.7842817" lon="12.6698633"><ele>266.0</ele><time>2026-03-29T08:25:24.957Z</time></trkpt><trkpt lat="43.7842" lon="12.6698083"><ele>266.0</ele><time>2026-03-29T08:25:25.957Z</time></trkpt><trkpt lat="43.7841267" lon="12.6697583"><ele>265.5</ele><time>2026-03-29T08:25:26.957Z</time></trkpt><trkpt lat="43.7840683" lon="12.6697183"><ele>265.0</ele><time>2026-03-29T08:25:27.956Z</time></trkpt><trkpt lat="43.7840083" lon="12.6696833"><ele>264.5</ele><time>2026-03-29T08:25:28.957Z</time></trkpt><trkpt lat="43.7839483" lon="12.66964"><ele>264.0</ele><time>2026-03-29T08:25:29.956Z</time></trkpt><trkpt lat="43.7838867" lon="12.6695933"><ele>263.5</ele><time>2026-03-29T08:25:30.957Z</time></trkpt><trkpt lat="43.7837917" lon="12.6695083"><ele>263.0</ele><time>2026-03-29T08:25:32.957Z</time></trkpt><trkpt lat="43.7837017" lon="12.66942"><ele>263.0</ele><time>2026-03-29T08:25:34.957Z</time></trkpt><trkpt lat="43.78365" lon="12.6693683"><ele>263.0</ele><time>2026-03-29T08:25:35.956Z</time></trkpt><trkpt lat="43.7835567" lon="12.66928"><ele>263.0</ele><time>2026-03-29T08:25:37.957Z</time></trkpt><trkpt lat="43.7834767" lon="12.6691967"><ele>263.0</ele><time>2026-03-29T08:25:39.956Z</time></trkpt><trkpt lat="43.7834033" lon="12.6691133"><ele>263.0</ele><time>2026-03-29T08:25:41.957Z</time></trkpt><trkpt lat="43.78333" lon="12.6690117"><ele>262.8</ele><time>2026-03-29T08:25:43.957Z</time></trkpt><trkpt lat="43.783275" lon="12.668895"><ele>262.6</ele><time>2026-03-29T08:25:45.957Z</time></trkpt><trkpt lat="43.7832333" lon="12.6687917"><ele>262.4</ele><time>2026-03-29T08:25:47.956Z</time></trkpt><trkpt lat="43.78319" lon="12.6686983"><ele>262.2</ele><time>2026-03-29T08:25:49.956Z</time></trkpt><trkpt lat="43.7831233" lon="12.6685633"><ele>262.0</ele><time>2026-03-29T08:25:51.956Z</time></trkpt><trkpt lat="43.783075" lon="12.66849"><ele>262.0</ele><time>2026-03-29T08:25:52.956Z</time></trkpt><trkpt lat="43.78302" lon="12.6684233"><ele>262.0</ele><time>2026-03-29T08:25:53.957Z</time></trkpt><trkpt lat="43.7829533" lon="12.668365"><ele>262.0</ele><time>2026-03-29T08:25:54.957Z</time></trkpt><trkpt lat="43.7828767" lon="12.66831"><ele>262.0</ele><time>2026-03-29T08:25:55.956Z</time></trkpt><trkpt lat="43.7828067" lon="12.6682833"><ele>262.0</ele><time>2026-03-29T08:25:56.957Z</time></trkpt><trkpt lat="43.7827367" lon="12.6682717"><ele>262.0</ele><time>2026-03-29T08:25:57.957Z</time></trkpt><trkpt lat="43.782665" lon="12.6682617"><ele>262.5</ele><time>2026-03-29T08:25:58.956Z</time></trkpt><trkpt lat="43.7825967" lon="12.6682533"><ele>263.0</ele><time>2026-03-29T08:25:59.957Z</time></trkpt><trkpt lat="43.7825283" lon="12.6682433"><ele>263.5</ele><time>2026-03-29T08:26:00.957Z</time></trkpt><trkpt lat="43.7824533" lon="12.668235"><ele>264.0</ele><time>2026-03-29T08:26:01.957Z</time></trkpt><trkpt lat="43.78237" lon="12.6682317"><ele>264.5</ele><time>2026-03-29T08:26:02.956Z</time></trkpt><trkpt lat="43.7822817" lon="12.6682333"><ele>265.0</ele><time>2026-03-29T08:26:03.957Z</time></trkpt><trkpt lat="43.7821933" lon="12.6682267"><ele>265.0</ele><time>2026-03-29T08:26:04.956Z</time></trkpt><trkpt lat="43.78211" lon="12.6682067"><ele>265.0</ele><time>2026-03-29T08:26:05.956Z</time></trkpt><trkpt lat="43.7820317" lon="12.6681617"><ele>265.0</ele><time>2026-03-29T08:26:06.957Z</time></trkpt><trkpt lat="43.781935" lon="12.6681183"><ele>265.0</ele><time>2026-03-29T08:26:07.956Z</time></trkpt><trkpt lat="43.78183" lon="12.6680517"><ele>265.0</ele><time>2026-03-29T08:26:08.957Z</time></trkpt><trkpt lat="43.7817283" lon="12.66797"><ele>264.5</ele><time>2026-03-29T08:26:09.957Z</time></trkpt><trkpt lat="43.7816283" lon="12.6678667"><ele>264.0</ele><time>2026-03-29T08:26:10.957Z</time></trkpt><trkpt lat="43.78153" lon="12.6677583"><ele>263.5</ele><time>2026-03-29T08:26:11.957Z</time></trkpt><trkpt lat="43.78143" lon="12.66766"><ele>263.0</ele><time>2026-03-29T08:26:12.956Z</time></trkpt><trkpt lat="43.78132" lon="12.6675683"><ele>260.25</ele><time>2026-03-29T08:26:13.957Z</time></trkpt><trkpt lat="43.7812133" lon="12.6674783"><ele>257.5</ele><time>2026-03-29T08:26:14.957Z</time></trkpt><trkpt lat="43.7811083" lon="12.6673733"><ele>254.75</ele><time>2026-03-29T08:26:15.957Z</time></trkpt><trkpt lat="43.7810067" lon="12.6672567"><ele>252.0</ele><time>2026-03-29T08:26:16.957Z</time></trkpt><trkpt lat="43.7809067" lon="12.6671367"><ele>252.0</ele><time>2026-03-29T08:26:17.956Z</time></trkpt><trkpt lat="43.780815" lon="12.6670167"><ele>252.0</ele><time>2026-03-29T08:26:18.957Z</time></trkpt><trkpt lat="43.780735" lon="12.6668967"><ele>252.0</ele><time>2026-03-29T08:26:19.956Z</time></trkpt><trkpt lat="43.78067" lon="12.6667967"><ele>252.0</ele><time>2026-03-29T08:26:20.957Z</time></trkpt><trkpt lat="43.7806083" lon="12.66671"><ele>252.0</ele><time>2026-03-29T08:26:21.956Z</time></trkpt><trkpt lat="43.7805483" lon="12.66661"><ele>250.5</ele><time>2026-03-29T08:26:22.957Z</time></trkpt><trkpt lat="43.7804817" lon="12.6665017"><ele>249.0</ele><time>2026-03-29T08:26:23.957Z</time></trkpt><trkpt lat="43.7804117" lon="12.66639"><ele>247.5</ele><time>2026-03-29T08:26:24.957Z</time></trkpt><trkpt lat="43.780335" lon="12.6662667"><ele>246.0</ele><time>2026-03-29T08:26:25.957Z</time></trkpt><trkpt lat="43.7802583" lon="12.66613"><ele>245.5</ele><time>2026-03-29T08:26:26.956Z</time></trkpt><trkpt lat="43.7801833" lon="12.6659817"><ele>245.0</ele><time>2026-03-29T08:26:27.957Z</time></trkpt><trkpt lat="43.7801" lon="12.6658233"><ele>244.5</ele><time>2026-03-29T08:26:28.957Z</time></trkpt><trkpt lat="43.7800117" lon="12.66566"><ele>244.0</ele><time>2026-03-29T08:26:29.957Z</time></trkpt><trkpt lat="43.7799167" lon="12.6655117"><ele>244.0</ele><time>2026-03-29T08:26:30.957Z</time></trkpt><trkpt lat="43.77983" lon="12.6653667"><ele>244.0</ele><time>2026-03-29T08:26:31.956Z</time></trkpt><trkpt lat="43.779735" lon="12.665225"><ele>244.0</ele><time>2026-03-29T08:26:32.957Z</time></trkpt><trkpt lat="43.779635" lon="12.6650983"><ele>244.0</ele><time>2026-03-29T08:26:33.957Z</time></trkpt><trkpt lat="43.779525" lon="12.66499"><ele>242.5</ele><time>2026-03-29T08:26:34.957Z</time></trkpt><trkpt lat="43.779395" lon="12.664895"><ele>241.0</ele><time>2026-03-29T08:26:35.956Z</time></trkpt><trkpt lat="43.7792567" lon="12.66482"><ele>239.5</ele><time>2026-03-29T08:26:36.957Z</time></trkpt><trkpt lat="43.77911" lon="12.66476"><ele>238.0</ele><time>2026-03-29T08:26:37.956Z</time></trkpt><trkpt lat="43.7789617" lon="12.66468"><ele>238.0</ele><time>2026-03-29T08:26:38.957Z</time></trkpt><trkpt lat="43.7788083" lon="12.66461"><ele>238.0</ele><time>2026-03-29T08:26:39.957Z</time></trkpt><trkpt lat="43.7786483" lon="12.66452"><ele>238.0</ele><time>2026-03-29T08:26:40.957Z</time></trkpt><trkpt lat="43.7784817" lon="12.664445"><ele>236.66666666666666</ele><time>2026-03-29T08:26:41.957Z</time></trkpt><trkpt lat="43.7783167" lon="12.6643717"><ele>235.33333333333331</ele><time>2026-03-29T08:26:42.957Z</time></trkpt><trkpt lat="43.7781483" lon="12.6643117"><ele>234.0</ele><time>2026-03-29T08:26:43.956Z</time></trkpt><trkpt lat="43.77797" lon="12.6642483"><ele>234.0</ele><time>2026-03-29T08:26:44.957Z</time></trkpt><trkpt lat="43.7777967" lon="12.66419"><ele>234.0</ele><time>2026-03-29T08:26:45.957Z</time></trkpt><trkpt lat="43.7776167" lon="12.6641333"><ele>234.0</ele><time>2026-03-29T08:26:46.956Z</time></trkpt><trkpt lat="43.7774417" lon="12.66407"><ele>232.66666666666669</ele><time>2026-03-29T08:26:47.957Z</time></trkpt><trkpt lat="43.7772633" lon="12.6640033"><ele>231.33333333333334</ele><time>2026-03-29T08:26:48.956Z</time></trkpt><trkpt lat="43.77708" lon="12.663935"><ele>230.0</ele><time>2026-03-29T08:26:49.957Z</time></trkpt><trkpt lat="43.7768983" lon="12.6638683"><ele>231.0</ele><time>2026-03-29T08:26:50.957Z</time></trkpt><trkpt lat="43.7767267" lon="12.6638067"><ele>232.0</ele><time>2026-03-29T08:26:51.957Z</time></trkpt><trkpt lat="43.7765517" lon="12.6637367"><ele>233.0</ele><time>2026-03-29T08:26:52.957Z</time></trkpt><trkpt lat="43.7763767" lon="12.6636717"><ele>233.0</ele><time>2026-03-29T08:26:53.957Z</time></trkpt><trkpt lat="43.776205" lon="12.66363"><ele>233.0</ele><time>2026-03-29T08:26:54.956Z</time></trkpt><trkpt lat="43.776035" lon="12.663585"><ele>233.0</ele><time>2026-03-29T08:26:55.957Z</time></trkpt><trkpt lat="43.7758633" lon="12.6635467"><ele>236.66666666666669</ele><time>2026-03-29T08:26:56.957Z</time></trkpt><trkpt lat="43.7756933" lon="12.6635117"><ele>240.33333333333331</ele><time>2026-03-29T08:26:57.957Z</time></trkpt><trkpt lat="43.775525" lon="12.6635"><ele>244.0</ele><time>2026-03-29T08:26:58.957Z</time></trkpt><trkpt lat="43.775355" lon="12.66348"><ele>246.33333333333331</ele><time>2026-03-29T08:26:59.957Z</time></trkpt><trkpt lat="43.77518" lon="12.6634617"><ele>248.66666666666669</ele><time>2026-03-29T08:27:00.957Z</time></trkpt><trkpt lat="43.7750033" lon="12.6634433"><ele>251.0</ele><time>2026-03-29T08:27:01.957Z</time></trkpt><trkpt lat="43.7748367" lon="12.6634317"><ele>251.0</ele><time>2026-03-29T08:27:02.956Z</time></trkpt><trkpt lat="43.77467" lon="12.6634183"><ele>251.0</ele><time>2026-03-29T08:27:03.956Z</time></trkpt><trkpt lat="43.7745017" lon="12.663415"><ele>251.0</ele><time>2026-03-29T08:27:04.956Z</time></trkpt><trkpt lat="43.7743367" lon="12.6634067"><ele>252.33333333333334</ele><time>2026-03-29T08:27:05.956Z</time></trkpt><trkpt lat="43.7741667" lon="12.6634"><ele>253.66666666666669</ele><time>2026-03-29T08:27:06.956Z</time></trkpt><trkpt lat="43.7740033" lon="12.6633867"><ele>255.0</ele><time>2026-03-29T08:27:07.956Z</time></trkpt><trkpt lat="43.77385" lon="12.6633683"><ele>255.0</ele><time>2026-03-29T08:27:08.957Z</time></trkpt><trkpt lat="43.7736967" lon="12.663375"><ele>255.0</ele><time>2026-03-29T08:27:09.957Z</time></trkpt><trkpt lat="43.77354" lon="12.6634017"><ele>255.0</ele><time>2026-03-29T08:27:10.957Z</time></trkpt><trkpt lat="43.7733767" lon="12.6634433"><ele>254.0</ele><time>2026-03-29T08:27:11.956Z</time></trkpt><trkpt lat="43.77322" lon="12.663495"><ele>253.0</ele><time>2026-03-29T08:27:12.956Z</time></trkpt><trkpt lat="43.773055" lon="12.6635433"><ele>252.0</ele><time>2026-03-29T08:27:13.957Z</time></trkpt><trkpt lat="43.7728783" lon="12.6635933"><ele>252.33333333333331</ele><time>2026-03-29T08:27:14.957Z</time></trkpt><trkpt lat="43.77271" lon="12.6636433"><ele>252.66666666666666</ele><time>2026-03-29T08:27:15.956Z</time></trkpt><trkpt lat="43.7725383" lon="12.6637017"><ele>253.0</ele><time>2026-03-29T08:27:16.957Z</time></trkpt><trkpt lat="43.772375" lon="12.6637667"><ele>253.0</ele><time>2026-03-29T08:27:17.957Z</time></trkpt><trkpt lat="43.7722167" lon="12.6638233"><ele>253.0</ele><time>2026-03-29T08:27:18.957Z</time></trkpt><trkpt lat="43.7720517" lon="12.6638817"><ele>253.0</ele><time>2026-03-29T08:27:19.956Z</time></trkpt><trkpt lat="43.771885" lon="12.66393"><ele>254.33333333333331</ele><time>2026-03-29T08:27:20.956Z</time></trkpt><trkpt lat="43.771725" lon="12.6639617"><ele>255.66666666666669</ele><time>2026-03-29T08:27:21.957Z</time></trkpt><trkpt lat="43.771565" lon="12.66396"><ele>257.0</ele><time>2026-03-29T08:27:22.956Z</time></trkpt><trkpt lat="43.7714217" lon="12.66389"><ele>257.0</ele><time>2026-03-29T08:27:23.957Z</time></trkpt><trkpt lat="43.7712767" lon="12.66379"><ele>257.0</ele><time>2026-03-29T08:27:24.957Z</time></trkpt><trkpt lat="43.7711383" lon="12.6636567"><ele>257.0</ele><time>2026-03-29T08:27:25.957Z</time></trkpt><trkpt lat="43.7710067" lon="12.6635183"><ele>255.66666666666669</ele><time>2026-03-29T08:27:26.957Z</time></trkpt><trkpt lat="43.770875" lon="12.66337"><ele>254.33333333333331</ele><time>2026-03-29T08:27:27.957Z</time></trkpt><trkpt lat="43.7707433" lon="12.6632233"><ele>253.0</ele><time>2026-03-29T08:27:28.957Z</time></trkpt><trkpt lat="43.7706183" lon="12.6630733"><ele>253.0</ele><time>2026-03-29T08:27:29.957Z</time></trkpt><trkpt lat="43.770485" lon="12.6629317"><ele>253.0</ele><time>2026-03-29T08:27:30.956Z</time></trkpt><trkpt lat="43.77035" lon="12.662785"><ele>253.0</ele><time>2026-03-29T08:27:31.956Z</time></trkpt><trkpt lat="43.7702133" lon="12.6626383"><ele>254.0</ele><time>2026-03-29T08:27:32.957Z</time></trkpt><trkpt lat="43.7700717" lon="12.6624867"><ele>255.0</ele><time>2026-03-29T08:27:33.956Z</time></trkpt><trkpt lat="43.7699317" lon="12.6623367"><ele>256.0</ele><time>2026-03-29T08:27:34.956Z</time></trkpt><trkpt lat="43.7698033" lon="12.6621933"><ele>256.0</ele><time>2026-03-29T08:27:35.956Z</time></trkpt><trkpt lat="43.7696783" lon="12.6620517"><ele>256.0</ele><time>2026-03-29T08:27:36.956Z</time></trkpt><trkpt lat="43.7695517" lon="12.66191"><ele>256.0</ele><time>2026-03-29T08:27:37.957Z</time></trkpt><trkpt lat="43.7694167" lon="12.6617833"><ele>255.66666666666666</ele><time>2026-03-29T08:27:38.956Z</time></trkpt><trkpt lat="43.7692633" lon="12.661675"><ele>255.33333333333331</ele><time>2026-03-29T08:27:39.956Z</time></trkpt><trkpt lat="43.7691067" lon="12.6615867"><ele>255.0</ele><time>2026-03-29T08:27:40.956Z</time></trkpt><trkpt lat="43.7689483" lon="12.6615133"><ele>255.0</ele><time>2026-03-29T08:27:41.957Z</time></trkpt><trkpt lat="43.7687883" lon="12.66143"><ele>255.0</ele><time>2026-03-29T08:27:42.958Z</time></trkpt><trkpt lat="43.7686283" lon="12.661365"><ele>255.0</ele><time>2026-03-29T08:27:43.957Z</time></trkpt><trkpt lat="43.7684667" lon="12.6613183"><ele>253.0</ele><time>2026-03-29T08:27:44.958Z</time></trkpt><trkpt lat="43.7683033" lon="12.6612933"><ele>251.0</ele><time>2026-03-29T08:27:45.957Z</time></trkpt><trkpt lat="43.768145" lon="12.6612767"><ele>249.0</ele><time>2026-03-29T08:27:46.958Z</time></trkpt><trkpt lat="43.7679983" lon="12.6612483"><ele>249.0</ele><time>2026-03-29T08:27:47.958Z</time></trkpt><trkpt lat="43.767865" lon="12.6612"><ele>249.0</ele><time>2026-03-29T08:27:48.958Z</time></trkpt><trkpt lat="43.7677467" lon="12.6611117"><ele>249.0</ele><time>2026-03-29T08:27:49.957Z</time></trkpt><trkpt lat="43.76762" lon="12.6610033"><ele>249.0</ele><time>2026-03-29T08:27:50.958Z</time></trkpt><trkpt lat="43.76749" lon="12.66087"><ele>249.0</ele><time>2026-03-29T08:27:51.958Z</time></trkpt><trkpt lat="43.76736" lon="12.6607467"><ele>249.0</ele><time>2026-03-29T08:27:52.958Z</time></trkpt><trkpt lat="43.767225" lon="12.6606367"><ele>249.0</ele><time>2026-03-29T08:27:53.957Z</time></trkpt><trkpt lat="43.7670867" lon="12.6605417"><ele>249.0</ele><time>2026-03-29T08:27:54.957Z</time></trkpt><trkpt lat="43.766935" lon="12.66045"><ele>249.0</ele><time>2026-03-29T08:27:55.957Z</time></trkpt><trkpt lat="43.766775" lon="12.6603533"><ele>249.0</ele><time>2026-03-29T08:27:56.958Z</time></trkpt><trkpt lat="43.7666167" lon="12.6602583"><ele>253.0</ele><time>2026-03-29T08:27:57.957Z</time></trkpt><trkpt lat="43.7664733" lon="12.6601467"><ele>257.0</ele><time>2026-03-29T08:27:58.958Z</time></trkpt><trkpt lat="43.7663317" lon="12.660045"><ele>261.0</ele><time>2026-03-29T08:27:59.957Z</time></trkpt><trkpt lat="43.7661983" lon="12.6599267"><ele>261.0</ele><time>2026-03-29T08:28:00.958Z</time></trkpt><trkpt lat="43.7660983" lon="12.65977"><ele>261.0</ele><time>2026-03-29T08:28:01.957Z</time></trkpt><trkpt lat="43.7660067" lon="12.659615"><ele>261.0</ele><time>2026-03-29T08:28:02.958Z</time></trkpt><trkpt lat="43.765935" lon="12.659425"><ele>263.6666666666667</ele><time>2026-03-29T08:28:03.958Z</time></trkpt><trkpt lat="43.7658717" lon="12.6592233"><ele>266.33333333333337</ele><time>2026-03-29T08:28:04.957Z</time></trkpt><trkpt lat="43.7658117" lon="12.6590117"><ele>269.0</ele><time>2026-03-29T08:28:05.958Z</time></trkpt><trkpt lat="43.7657517" lon="12.658805"><ele>269.25</ele><time>2026-03-29T08:28:06.958Z</time></trkpt><trkpt lat="43.7656917" lon="12.65861"><ele>269.5</ele><time>2026-03-29T08:28:07.958Z</time></trkpt><trkpt lat="43.7656317" lon="12.6584317"><ele>269.75</ele><time>2026-03-29T08:28:08.957Z</time></trkpt><trkpt lat="43.7655567" lon="12.65825"><ele>270.0</ele><time>2026-03-29T08:28:09.958Z</time></trkpt><trkpt lat="43.76548" lon="12.6580883"><ele>270.0</ele><time>2026-03-29T08:28:10.958Z</time></trkpt><trkpt lat="43.765385" lon="12.6579367"><ele>270.0</ele><time>2026-03-29T08:28:11.958Z</time></trkpt><trkpt lat="43.765255" lon="12.6578233"><ele>270.0</ele><time>2026-03-29T08:28:12.958Z</time></trkpt><trkpt lat="43.7651133" lon="12.65774"><ele>272.0</ele><time>2026-03-29T08:28:13.958Z</time></trkpt><trkpt lat="43.7649533" lon="12.6577083"><ele>274.0</ele><time>2026-03-29T08:28:14.958Z</time></trkpt><trkpt lat="43.7647933" lon="12.6576917"><ele>276.0</ele><time>2026-03-29T08:28:15.957Z</time></trkpt><trkpt lat="43.7646417" lon="12.65768"><ele>276.0</ele><time>2026-03-29T08:28:16.958Z</time></trkpt><trkpt lat="43.76451" lon="12.65767"><ele>276.0</ele><time>2026-03-29T08:28:17.958Z</time></trkpt><trkpt lat="43.7643933" lon="12.6576533"><ele>276.0</ele><time>2026-03-29T08:28:18.957Z</time></trkpt><trkpt lat="43.7642817" lon="12.657635"><ele>276.0</ele><time>2026-03-29T08:28:19.958Z</time></trkpt><trkpt lat="43.7641667" lon="12.6576267"><ele>278.6</ele><time>2026-03-29T08:28:20.958Z</time></trkpt><trkpt lat="43.76407" lon="12.6575833"><ele>281.20000000000005</ele><time>2026-03-29T08:28:21.958Z</time></trkpt><trkpt lat="43.76399" lon="12.6574917"><ele>283.79999999999995</ele><time>2026-03-29T08:28:22.957Z</time></trkpt><trkpt lat="43.7639367" lon="12.657365"><ele>286.4</ele><time>2026-03-29T08:28:23.958Z</time></trkpt><trkpt lat="43.7639117" lon="12.6571917"><ele>289.0</ele><time>2026-03-29T08:28:24.958Z</time></trkpt><trkpt lat="43.7638967" lon="12.6570117"><ele>291.25</ele><time>2026-03-29T08:28:25.957Z</time></trkpt><trkpt lat="43.763885" lon="12.6568167"><ele>293.5</ele><time>2026-03-29T08:28:26.958Z</time></trkpt><trkpt lat="43.76388" lon="12.6566117"><ele>295.75</ele><time>2026-03-29T08:28:27.957Z</time></trkpt><trkpt lat="43.763875" lon="12.6563983"><ele>298.0</ele><time>2026-03-29T08:28:28.958Z</time></trkpt><trkpt lat="43.7638733" lon="12.65619"><ele>299.0</ele><time>2026-03-29T08:28:29.957Z</time></trkpt><trkpt lat="43.76387" lon="12.655995"><ele>300.0</ele><time>2026-03-29T08:28:30.958Z</time></trkpt><trkpt lat="43.7638567" lon="12.6558333"><ele>301.0</ele><time>2026-03-29T08:28:31.958Z</time></trkpt><trkpt lat="43.763845" lon="12.6556967"><ele>302.0</ele><time>2026-03-29T08:28:32.958Z</time></trkpt><trkpt lat="43.76382" lon="12.6555883"><ele>303.0</ele><time>2026-03-29T08:28:33.958Z</time></trkpt><trkpt lat="43.7637817" lon="12.6555033"><ele>303.0</ele><time>2026-03-29T08:28:34.958Z</time></trkpt><trkpt lat="43.76372" lon="12.6554533"><ele>303.0</ele><time>2026-03-29T08:28:35.957Z</time></trkpt><trkpt lat="43.7636517" lon="12.6554433"><ele>303.0</ele><time>2026-03-29T08:28:36.958Z</time></trkpt><trkpt lat="43.7635667" lon="12.6554817"><ele>303.0</ele><time>2026-03-29T08:28:37.958Z</time></trkpt><trkpt lat="43.7634683" lon="12.6555633"><ele>303.0</ele><time>2026-03-29T08:28:38.958Z</time></trkpt><trkpt lat="43.7633517" lon="12.6556767"><ele>304.75</ele><time>2026-03-29T08:28:39.958Z</time></trkpt><trkpt lat="43.763235" lon="12.655805"><ele>306.5</ele><time>2026-03-29T08:28:40.958Z</time></trkpt><trkpt lat="43.76312" lon="12.6559367"><ele>308.25</ele><time>2026-03-29T08:28:41.958Z</time></trkpt><trkpt lat="43.76301" lon="12.6560617"><ele>310.0</ele><time>2026-03-29T08:28:42.957Z</time></trkpt><trkpt lat="43.762895" lon="12.6561583"><ele>310.0</ele><time>2026-03-29T08:28:43.957Z</time></trkpt><trkpt lat="43.762765" lon="12.656235"><ele>310.0</ele><time>2026-03-29T08:28:44.957Z</time></trkpt><trkpt lat="43.7626283" lon="12.6563033"><ele>310.0</ele><time>2026-03-29T08:28:45.958Z</time></trkpt><trkpt lat="43.7624833" lon="12.656355"><ele>310.0</ele><time>2026-03-29T08:28:46.957Z</time></trkpt><trkpt lat="43.7623433" lon="12.6564067"><ele>314.0</ele><time>2026-03-29T08:28:47.957Z</time></trkpt><trkpt lat="43.7622167" lon="12.6564433"><ele>318.0</ele><time>2026-03-29T08:28:48.958Z</time></trkpt><trkpt lat="43.76209" lon="12.6564567"><ele>322.0</ele><time>2026-03-29T08:28:49.958Z</time></trkpt><trkpt lat="43.7619583" lon="12.6564517"><ele>326.0</ele><time>2026-03-29T08:28:50.957Z</time></trkpt><trkpt lat="43.7618167" lon="12.65645"><ele>329.25</ele><time>2026-03-29T08:28:51.957Z</time></trkpt><trkpt lat="43.761675" lon="12.6564583"><ele>332.5</ele><time>2026-03-29T08:28:52.957Z</time></trkpt><trkpt lat="43.76153" lon="12.6564583"><ele>335.75</ele><time>2026-03-29T08:28:53.957Z</time></trkpt><trkpt lat="43.761385" lon="12.6564467"><ele>339.0</ele><time>2026-03-29T08:28:54.958Z</time></trkpt><trkpt lat="43.761235" lon="12.6564217"><ele>339.0</ele><time>2026-03-29T08:28:55.958Z</time></trkpt><trkpt lat="43.7610983" lon="12.6564033"><ele>339.0</ele><time>2026-03-29T08:28:56.957Z</time></trkpt><trkpt lat="43.76098" lon="12.6563933"><ele>339.0</ele><time>2026-03-29T08:28:57.957Z</time></trkpt><trkpt lat="43.760865" lon="12.6563867"><ele>339.0</ele><time>2026-03-29T08:28:58.958Z</time></trkpt><trkpt lat="43.7607567" lon="12.6563817"><ele>340.3333333333333</ele><time>2026-03-29T08:28:59.958Z</time></trkpt><trkpt lat="43.7606667" lon="12.656385"><ele>341.6666666666667</ele><time>2026-03-29T08:29:00.958Z</time></trkpt><trkpt lat="43.7605933" lon="12.6563867"><ele>343.0</ele><time>2026-03-29T08:29:01.957Z</time></trkpt><trkpt lat="43.7604917" lon="12.6563783"><ele>344.33333333333337</ele><time>2026-03-29T08:29:03.958Z</time></trkpt><trkpt lat="43.760395" lon="12.6563267"><ele>345.6666666666667</ele><time>2026-03-29T08:29:05.958Z</time></trkpt><trkpt lat="43.7603567" lon="12.6562483"><ele>347.0</ele><time>2026-03-29T08:29:06.957Z</time></trkpt><trkpt lat="43.760325" lon="12.6561467"><ele>349.40000000000003</ele><time>2026-03-29T08:29:07.958Z</time></trkpt><trkpt lat="43.7602833" lon="12.6560233"><ele>351.8</ele><time>2026-03-29T08:29:08.957Z</time></trkpt><trkpt lat="43.7602567" lon="12.6558833"><ele>354.2</ele><time>2026-03-29T08:29:09.958Z</time></trkpt><trkpt lat="43.7602233" lon="12.6557433"><ele>356.6</ele><time>2026-03-29T08:29:10.958Z</time></trkpt><trkpt lat="43.7601983" lon="12.6556033"><ele>359.0</ele><time>2026-03-29T08:29:11.958Z</time></trkpt><trkpt lat="43.7601783" lon="12.6554617"><ele>359.0</ele><time>2026-03-29T08:29:12.957Z</time></trkpt><trkpt lat="43.760145" lon="12.6553283"><ele>359.0</ele><time>2026-03-29T08:29:13.958Z</time></trkpt><trkpt lat="43.7601383" lon="12.6552083"><ele>359.0</ele><time>2026-03-29T08:29:14.958Z</time></trkpt><trkpt lat="43.7601467" lon="12.6550883"><ele>359.0</ele><time>2026-03-29T08:29:15.958Z</time></trkpt><trkpt lat="43.7601767" lon="12.6549567"><ele>359.0</ele><time>2026-03-29T08:29:16.958Z</time></trkpt><trkpt lat="43.7602217" lon="12.65482"><ele>362.0</ele><time>2026-03-29T08:29:17.958Z</time></trkpt><trkpt lat="43.7602667" lon="12.6546817"><ele>365.0</ele><time>2026-03-29T08:29:18.957Z</time></trkpt><trkpt lat="43.7603267" lon="12.654555"><ele>368.0</ele><time>2026-03-29T08:29:19.958Z</time></trkpt><trkpt lat="43.76039" lon="12.6544367"><ele>371.0</ele><time>2026-03-29T08:29:20.958Z</time></trkpt><trkpt lat="43.760465" lon="12.6543233"><ele>374.0</ele><time>2026-03-29T08:29:21.957Z</time></trkpt><trkpt lat="43.7605383" lon="12.6542283"><ele>374.0</ele><time>2026-03-29T08:29:22.958Z</time></trkpt><trkpt lat="43.7606033" lon="12.65415"><ele>374.0</ele><time>2026-03-29T08:29:23.957Z</time></trkpt><trkpt lat="43.7606533" lon="12.65407"><ele>374.0</ele><time>2026-03-29T08:29:24.958Z</time></trkpt><trkpt lat="43.7607083" lon="12.6539733"><ele>374.0</ele><time>2026-03-29T08:29:26.958Z</time></trkpt><trkpt lat="43.7606883" lon="12.6538883"><ele>374.0</ele><time>2026-03-29T08:29:33.958Z</time></trkpt><trkpt lat="43.7607567" lon="12.6537667"><ele>374.0</ele><time>2026-03-29T08:30:05.958Z</time></trkpt><trkpt lat="43.76081" lon="12.6537067"><ele>373.0</ele><time>2026-03-29T08:30:06.958Z</time></trkpt><trkpt lat="43.76087" lon="12.6536217"><ele>372.0</ele><time>2026-03-29T08:30:07.958Z</time></trkpt><trkpt lat="43.76093" lon="12.65352"><ele>371.0</ele><time>2026-03-29T08:30:08.958Z</time></trkpt><trkpt lat="43.760975" lon="12.653405"><ele>370.0</ele><time>2026-03-29T08:30:09.958Z</time></trkpt><trkpt lat="43.7610067" lon="12.6532767"><ele>369.0</ele><time>2026-03-29T08:30:10.957Z</time></trkpt><trkpt lat="43.761025" lon="12.6531317"><ele>369.0</ele><time>2026-03-29T08:30:11.958Z</time></trkpt><trkpt lat="43.76103" lon="12.65299"><ele>369.0</ele><time>2026-03-29T08:30:12.957Z</time></trkpt><trkpt lat="43.7610067" lon="12.6528017"><ele>369.0</ele><time>2026-03-29T08:30:13.958Z</time></trkpt><trkpt lat="43.7609817" lon="12.652605"><ele>369.0</ele><time>2026-03-29T08:30:14.958Z</time></trkpt><trkpt lat="43.7609683" lon="12.6524117"><ele>370.25</ele><time>2026-03-29T08:30:15.958Z</time></trkpt><trkpt lat="43.7609417" lon="12.65222"><ele>371.5</ele><time>2026-03-29T08:30:16.958Z</time></trkpt><trkpt lat="43.7609283" lon="12.6520417"><ele>372.75</ele><time>2026-03-29T08:30:17.958Z</time></trkpt><trkpt lat="43.7609283" lon="12.6518583"><ele>374.0</ele><time>2026-03-29T08:30:18.957Z</time></trkpt><trkpt lat="43.7609383" lon="12.65167"><ele>374.6666666666667</ele><time>2026-03-29T08:30:19.957Z</time></trkpt><trkpt lat="43.7609467" lon="12.65147"><ele>375.3333333333333</ele><time>2026-03-29T08:30:20.957Z</time></trkpt><trkpt lat="43.76095" lon="12.65126"><ele>376.0</ele><time>2026-03-29T08:30:21.957Z</time></trkpt><trkpt lat="43.7609533" lon="12.65104"><ele>376.0</ele><time>2026-03-29T08:30:22.957Z</time></trkpt><trkpt lat="43.7609567" lon="12.650815"><ele>376.0</ele><time>2026-03-29T08:30:23.957Z</time></trkpt><trkpt lat="43.7609833" lon="12.6505833"><ele>376.0</ele><time>2026-03-29T08:30:24.958Z</time></trkpt><trkpt lat="43.7610317" lon="12.6503567"><ele>372.3333333333333</ele><time>2026-03-29T08:30:25.958Z</time></trkpt><trkpt lat="43.7611" lon="12.6501383"><ele>368.6666666666667</ele><time>2026-03-29T08:30:26.958Z</time></trkpt><trkpt lat="43.7611783" lon="12.6499233"><ele>365.0</ele><time>2026-03-29T08:30:27.958Z</time></trkpt><trkpt lat="43.7612567" lon="12.6497067"><ele>365.0</ele><time>2026-03-29T08:30:28.958Z</time></trkpt><trkpt lat="43.76134" lon="12.649495"><ele>365.0</ele><time>2026-03-29T08:30:29.957Z</time></trkpt><trkpt lat="43.7614183" lon="12.6492867"><ele>365.0</ele><time>2026-03-29T08:30:30.958Z</time></trkpt><trkpt lat="43.7614933" lon="12.6491033"><ele>368.75</ele><time>2026-03-29T08:30:31.957Z</time></trkpt><trkpt lat="43.7615633" lon="12.64893"><ele>372.5</ele><time>2026-03-29T08:30:32.958Z</time></trkpt><trkpt lat="43.7616267" lon="12.648765"><ele>376.25</ele><time>2026-03-29T08:30:33.958Z</time></trkpt><trkpt lat="43.7616767" lon="12.64859"><ele>380.0</ele><time>2026-03-29T08:30:34.958Z</time></trkpt><trkpt lat="43.7617067" lon="12.64842"><ele>382.5</ele><time>2026-03-29T08:30:35.957Z</time></trkpt><trkpt lat="43.76175" lon="12.64824"><ele>385.0</ele><time>2026-03-29T08:30:36.957Z</time></trkpt><trkpt lat="43.761785" lon="12.6480733"><ele>387.5</ele><time>2026-03-29T08:30:37.957Z</time></trkpt><trkpt lat="43.7617917" lon="12.6479083"><ele>390.0</ele><time>2026-03-29T08:30:38.958Z</time></trkpt><trkpt lat="43.7617617" lon="12.6477517"><ele>390.0</ele><time>2026-03-29T08:30:39.957Z</time></trkpt><trkpt lat="43.761705" lon="12.6475867"><ele>390.0</ele><time>2026-03-29T08:30:40.958Z</time></trkpt><trkpt lat="43.7616317" lon="12.64742"><ele>390.0</ele><time>2026-03-29T08:30:41.957Z</time></trkpt><trkpt lat="43.7615667" lon="12.647275"><ele>390.0</ele><time>2026-03-29T08:30:42.958Z</time></trkpt><trkpt lat="43.7615" lon="12.647135"><ele>390.0</ele><time>2026-03-29T08:30:43.958Z</time></trkpt><trkpt lat="43.76144" lon="12.6470067"><ele>390.0</ele><time>2026-03-29T08:30:44.958Z</time></trkpt><trkpt lat="43.7613883" lon="12.6469033"><ele>390.0</ele><time>2026-03-29T08:30:45.957Z</time></trkpt><trkpt lat="43.76136" lon="12.646825"><ele>390.0</ele><time>2026-03-29T08:30:46.957Z</time></trkpt><trkpt lat="43.76137" lon="12.64671"><ele>390.0</ele><time>2026-03-29T08:30:48.957Z</time></trkpt><trkpt lat="43.7614633" lon="12.6466817"><ele>390.0</ele><time>2026-03-29T08:30:50.958Z</time></trkpt><trkpt lat="43.7615283" lon="12.6466717"><ele>388.3333333333333</ele><time>2026-03-29T08:30:51.957Z</time></trkpt><trkpt lat="43.76163" lon="12.64662"><ele>386.6666666666667</ele><time>2026-03-29T08:30:53.958Z</time></trkpt><trkpt lat="43.7616667" lon="12.6465333"><ele>385.0</ele><time>2026-03-29T08:30:55.957Z</time></trkpt><trkpt lat="43.761625" lon="12.6464267"><ele>383.33333333333337</ele><time>2026-03-29T08:30:57.957Z</time></trkpt><trkpt lat="43.7615717" lon="12.64638"><ele>381.6666666666667</ele><time>2026-03-29T08:30:58.958Z</time></trkpt><trkpt lat="43.7614933" lon="12.6463233"><ele>380.0</ele><time>2026-03-29T08:30:59.957Z</time></trkpt><trkpt lat="43.7614383" lon="12.64627"><ele>380.0</ele><time>2026-03-29T08:31:00.958Z</time></trkpt><trkpt lat="43.7613617" lon="12.6461533"><ele>380.0</ele><time>2026-03-29T08:31:02.958Z</time></trkpt><trkpt lat="43.761375" lon="12.6460317"><ele>380.0</ele><time>2026-03-29T08:31:04.958Z</time></trkpt><trkpt lat="43.761455" lon="12.6459733"><ele>380.0</ele><time>2026-03-29T08:31:06.957Z</time></trkpt><trkpt lat="43.7615217" lon="12.6459683"><ele>380.0</ele><time>2026-03-29T08:31:07.958Z</time></trkpt><trkpt lat="43.7615933" lon="12.6459783"><ele>380.0</ele><time>2026-03-29T08:31:08.958Z</time></trkpt><trkpt lat="43.7616783" lon="12.6460083"><ele>376.0</ele><time>2026-03-29T08:31:09.957Z</time></trkpt><trkpt lat="43.76178" lon="12.6460533"><ele>372.0</ele><time>2026-03-29T08:31:10.958Z</time></trkpt><trkpt lat="43.7618967" lon="12.6460983"><ele>368.0</ele><time>2026-03-29T08:31:11.958Z</time></trkpt><trkpt lat="43.7620217" lon="12.646155"><ele>364.0</ele><time>2026-03-29T08:31:12.957Z</time></trkpt><trkpt lat="43.7621767" lon="12.6462183"><ele>363.0</ele><time>2026-03-29T08:31:13.958Z</time></trkpt><trkpt lat="43.76232" lon="12.64629"><ele>362.0</ele><time>2026-03-29T08:31:14.957Z</time></trkpt><trkpt lat="43.76246" lon="12.6463617"><ele>361.0</ele><time>2026-03-29T08:31:15.958Z</time></trkpt><trkpt lat="43.76259" lon="12.6464267"><ele>360.0</ele><time>2026-03-29T08:31:16.958Z</time></trkpt><trkpt lat="43.76273" lon="12.646475"><ele>357.0</ele><time>2026-03-29T08:31:17.957Z</time></trkpt><trkpt lat="43.7628617" lon="12.6464933"><ele>354.0</ele><time>2026-03-29T08:31:18.958Z</time></trkpt><trkpt lat="43.7629967" lon="12.64651"><ele>351.0</ele><time>2026-03-29T08:31:19.958Z</time></trkpt><trkpt lat="43.763125" lon="12.6465017"><ele>348.0</ele><time>2026-03-29T08:31:20.958Z</time></trkpt><trkpt lat="43.7632567" lon="12.64652"><ele>348.0</ele><time>2026-03-29T08:31:21.957Z</time></trkpt><trkpt lat="43.7633833" lon="12.6465"><ele>348.0</ele><time>2026-03-29T08:31:22.958Z</time></trkpt><trkpt lat="43.7635083" lon="12.64647"><ele>348.0</ele><time>2026-03-29T08:31:23.958Z</time></trkpt><trkpt lat="43.7636283" lon="12.6464267"><ele>348.0</ele><time>2026-03-29T08:31:24.958Z</time></trkpt><trkpt lat="43.76374" lon="12.6463817"><ele>344.79999999999995</ele><time>2026-03-29T08:31:25.958Z</time></trkpt><trkpt lat="43.763845" lon="12.64634"><ele>341.6</ele><time>2026-03-29T08:31:26.958Z</time></trkpt><trkpt lat="43.7639467" lon="12.6462867"><ele>338.4</ele><time>2026-03-29T08:31:27.958Z</time></trkpt><trkpt lat="43.7640433" lon="12.6462467"><ele>335.20000000000005</ele><time>2026-03-29T08:31:28.957Z</time></trkpt><trkpt lat="43.7641517" lon="12.6462317"><ele>332.0</ele><time>2026-03-29T08:31:29.958Z</time></trkpt><trkpt lat="43.7642583" lon="12.646205"><ele>328.40000000000003</ele><time>2026-03-29T08:31:30.958Z</time></trkpt><trkpt lat="43.7643667" lon="12.6461983"><ele>324.8</ele><time>2026-03-29T08:31:31.957Z</time></trkpt><trkpt lat="43.7644667" lon="12.6461967"><ele>321.2</ele><time>2026-03-29T08:31:32.957Z</time></trkpt><trkpt lat="43.7645683" lon="12.6461617"><ele>317.6</ele><time>2026-03-29T08:31:33.957Z</time></trkpt><trkpt lat="43.7646683" lon="12.6461117"><ele>314.0</ele><time>2026-03-29T08:31:34.958Z</time></trkpt><trkpt lat="43.7647583" lon="12.6460633"><ele>314.0</ele><time>2026-03-29T08:31:35.958Z</time></trkpt><trkpt lat="43.7648367" lon="12.6460217"><ele>314.0</ele><time>2026-03-29T08:31:36.957Z</time></trkpt><trkpt lat="43.7649033" lon="12.6460017"><ele>314.0</ele><time>2026-03-29T08:31:37.958Z</time></trkpt><trkpt lat="43.7649733" lon="12.6460233"><ele>314.0</ele><time>2026-03-29T08:31:38.957Z</time></trkpt><trkpt lat="43.765045" lon="12.64609"><ele>314.0</ele><time>2026-03-29T08:31:39.958Z</time></trkpt><trkpt lat="43.7651083" lon="12.6461783"><ele>314.0</ele><time>2026-03-29T08:31:40.957Z</time></trkpt><trkpt lat="43.7651817" lon="12.6463017"><ele>309.0</ele><time>2026-03-29T08:31:41.958Z</time></trkpt><trkpt lat="43.7652583" lon="12.6464467"><ele>304.0</ele><time>2026-03-29T08:31:42.957Z</time></trkpt><trkpt lat="43.76534" lon="12.6465867"><ele>299.0</ele><time>2026-03-29T08:31:43.958Z</time></trkpt><trkpt lat="43.76542" lon="12.6467233"><ele>294.0</ele><time>2026-03-29T08:31:44.958Z</time></trkpt><trkpt lat="43.7655067" lon="12.646855"><ele>296.25</ele><time>2026-03-29T08:31:45.957Z</time></trkpt><trkpt lat="43.7655833" lon="12.6469867"><ele>298.5</ele><time>2026-03-29T08:31:46.958Z</time></trkpt><trkpt lat="43.7656467" lon="12.6471083"><ele>300.75</ele><time>2026-03-29T08:31:47.957Z</time></trkpt><trkpt lat="43.76572" lon="12.6472217"><ele>303.0</ele><time>2026-03-29T08:31:48.958Z</time></trkpt><trkpt lat="43.765785" lon="12.647345"><ele>303.0</ele><time>2026-03-29T08:31:49.958Z</time></trkpt><trkpt lat="43.765835" lon="12.647475"><ele>303.0</ele><time>2026-03-29T08:31:50.957Z</time></trkpt><trkpt lat="43.7658817" lon="12.64762"><ele>303.0</ele><time>2026-03-29T08:31:51.958Z</time></trkpt><trkpt lat="43.7659183" lon="12.6477583"><ele>303.0</ele><time>2026-03-29T08:31:52.958Z</time></trkpt><trkpt lat="43.7659283" lon="12.6478883"><ele>303.0</ele><time>2026-03-29T08:31:53.958Z</time></trkpt><trkpt lat="43.7659383" lon="12.6480167"><ele>303.6666666666667</ele><time>2026-03-29T08:31:54.958Z</time></trkpt><trkpt lat="43.76594" lon="12.6481517"><ele>304.3333333333333</ele><time>2026-03-29T08:31:55.957Z</time></trkpt><trkpt lat="43.765925" lon="12.6482833"><ele>305.0</ele><time>2026-03-29T08:31:56.958Z</time></trkpt><trkpt lat="43.7659167" lon="12.6483967"><ele>305.66666666666663</ele><time>2026-03-29T08:31:57.957Z</time></trkpt><trkpt lat="43.765895" lon="12.6485033"><ele>306.3333333333333</ele><time>2026-03-29T08:31:58.958Z</time></trkpt><trkpt lat="43.7658567" lon="12.648615"><ele>307.0</ele><time>2026-03-29T08:31:59.957Z</time></trkpt><trkpt lat="43.7657933" lon="12.648745"><ele>304.4</ele><time>2026-03-29T08:32:00.958Z</time></trkpt><trkpt lat="43.7657433" lon="12.6488633"><ele>301.79999999999995</ele><time>2026-03-29T08:32:01.958Z</time></trkpt><trkpt lat="43.7656917" lon="12.6489733"><ele>299.2</ele><time>2026-03-29T08:32:02.958Z</time></trkpt><trkpt lat="43.7656317" lon="12.649095"><ele>296.59999999999997</ele><time>2026-03-29T08:32:03.958Z</time></trkpt><trkpt lat="43.7655517" lon="12.649205"><ele>294.0</ele><time>2026-03-29T08:32:04.958Z</time></trkpt><trkpt lat="43.7654667" lon="12.64931"><ele>294.0</ele><time>2026-03-29T08:32:05.957Z</time></trkpt><trkpt lat="43.7653783" lon="12.6493917"><ele>294.0</ele><time>2026-03-29T08:32:06.957Z</time></trkpt><trkpt lat="43.7652883" lon="12.6494417"><ele>294.0</ele><time>2026-03-29T08:32:07.957Z</time></trkpt><trkpt lat="43.7652" lon="12.6494767"><ele>294.0</ele><time>2026-03-29T08:32:08.957Z</time></trkpt><trkpt lat="43.76512" lon="12.649525"><ele>294.0</ele><time>2026-03-29T08:32:09.958Z</time></trkpt><trkpt lat="43.7650483" lon="12.6496033"><ele>294.0</ele><time>2026-03-29T08:32:10.957Z</time></trkpt><trkpt lat="43.764995" lon="12.6496983"><ele>294.0</ele><time>2026-03-29T08:32:11.958Z</time></trkpt><trkpt lat="43.7649417" lon="12.6498117"><ele>294.0</ele><time>2026-03-29T08:32:12.957Z</time></trkpt><trkpt lat="43.7649083" lon="12.6499233"><ele>294.0</ele><time>2026-03-29T08:32:13.958Z</time></trkpt><trkpt lat="43.76488" lon="12.6500217"><ele>294.0</ele><time>2026-03-29T08:32:14.958Z</time></trkpt><trkpt lat="43.7648583" lon="12.6501233"><ele>294.0</ele><time>2026-03-29T08:32:15.958Z</time></trkpt><trkpt lat="43.76486" lon="12.6502283"><ele>290.5</ele><time>2026-03-29T08:32:16.958Z</time></trkpt><trkpt lat="43.7649383" lon="12.6503417"><ele>287.0</ele><time>2026-03-29T08:32:18.958Z</time></trkpt><trkpt lat="43.76508" lon="12.6503933"><ele>283.5</ele><time>2026-03-29T08:32:20.958Z</time></trkpt><trkpt lat="43.765195" lon="12.6503633"><ele>280.0</ele><time>2026-03-29T08:32:21.958Z</time></trkpt><trkpt lat="43.7653383" lon="12.6503067"><ele>278.66666666666663</ele><time>2026-03-29T08:32:22.958Z</time></trkpt><trkpt lat="43.7655083" lon="12.6502267"><ele>277.3333333333333</ele><time>2026-03-29T08:32:23.958Z</time></trkpt><trkpt lat="43.765695" lon="12.65012"><ele>276.0</ele><time>2026-03-29T08:32:24.958Z</time></trkpt><trkpt lat="43.7658717" lon="12.6500433"><ele>271.0</ele><time>2026-03-29T08:32:25.957Z</time></trkpt><trkpt lat="43.7660383" lon="12.6499833"><ele>266.0</ele><time>2026-03-29T08:32:26.958Z</time></trkpt><trkpt lat="43.7662017" lon="12.6499167"><ele>261.0</ele><time>2026-03-29T08:32:27.958Z</time></trkpt><trkpt lat="43.7663767" lon="12.6498417"><ele>261.0</ele><time>2026-03-29T08:32:28.958Z</time></trkpt><trkpt lat="43.7665367" lon="12.6497833"><ele>261.0</ele><time>2026-03-29T08:32:29.957Z</time></trkpt><trkpt lat="43.7666917" lon="12.6497233"><ele>261.0</ele><time>2026-03-29T08:32:30.957Z</time></trkpt><trkpt lat="43.7668383" lon="12.649675"><ele>257.25</ele><time>2026-03-29T08:32:31.958Z</time></trkpt><trkpt lat="43.7669783" lon="12.6496267"><ele>253.5</ele><time>2026-03-29T08:32:32.957Z</time></trkpt><trkpt lat="43.7671117" lon="12.6495833"><ele>249.75</ele><time>2026-03-29T08:32:33.958Z</time></trkpt><trkpt lat="43.76723" lon="12.6495333"><ele>246.0</ele><time>2026-03-29T08:32:34.958Z</time></trkpt><trkpt lat="43.76734" lon="12.6494733"><ele>244.0</ele><time>2026-03-29T08:32:35.957Z</time></trkpt><trkpt lat="43.7674567" lon="12.6494017"><ele>242.0</ele><time>2026-03-29T08:32:36.958Z</time></trkpt><trkpt lat="43.7675767" lon="12.6493167"><ele>240.0</ele><time>2026-03-29T08:32:37.958Z</time></trkpt><trkpt lat="43.7676933" lon="12.64921"><ele>238.0</ele><time>2026-03-29T08:32:38.958Z</time></trkpt><trkpt lat="43.7678033" lon="12.649105"><ele>238.0</ele><time>2026-03-29T08:32:39.957Z</time></trkpt><trkpt lat="43.76791" lon="12.649"><ele>238.0</ele><time>2026-03-29T08:32:40.957Z</time></trkpt><trkpt lat="43.7679967" lon="12.6489017"><ele>238.0</ele><time>2026-03-29T08:32:41.958Z</time></trkpt><trkpt lat="43.76808" lon="12.64882"><ele>238.0</ele><time>2026-03-29T08:32:42.957Z</time></trkpt><trkpt lat="43.7681383" lon="12.6487183"><ele>238.0</ele><time>2026-03-29T08:32:43.958Z</time></trkpt><trkpt lat="43.7681833" lon="12.648605"><ele>239.33333333333331</ele><time>2026-03-29T08:32:44.958Z</time></trkpt><trkpt lat="43.76821" lon="12.6484883"><ele>240.66666666666666</ele><time>2026-03-29T08:32:45.957Z</time></trkpt><trkpt lat="43.7682267" lon="12.6483667"><ele>242.0</ele><time>2026-03-29T08:32:46.958Z</time></trkpt><trkpt lat="43.7682517" lon="12.6482417"><ele>243.33333333333331</ele><time>2026-03-29T08:32:47.958Z</time></trkpt><trkpt lat="43.7682817" lon="12.6481217"><ele>244.66666666666666</ele><time>2026-03-29T08:32:48.958Z</time></trkpt><trkpt lat="43.768335" lon="12.6480383"><ele>246.0</ele><time>2026-03-29T08:32:49.958Z</time></trkpt><trkpt lat="43.7684017" lon="12.647985"><ele>246.0</ele><time>2026-03-29T08:32:50.957Z</time></trkpt><trkpt lat="43.7684883" lon="12.6479717"><ele>246.0</ele><time>2026-03-29T08:32:51.958Z</time></trkpt><trkpt lat="43.7685917" lon="12.648025"><ele>246.0</ele><time>2026-03-29T08:32:52.957Z</time></trkpt><trkpt lat="43.7686933" lon="12.6481283"><ele>246.0</ele><time>2026-03-29T08:32:53.958Z</time></trkpt><trkpt lat="43.7688" lon="12.648265"><ele>241.75</ele><time>2026-03-29T08:32:54.958Z</time></trkpt><trkpt lat="43.768915" lon="12.6484067"><ele>237.5</ele><time>2026-03-29T08:32:55.957Z</time></trkpt><trkpt lat="43.7690367" lon="12.64852"><ele>233.25</ele><time>2026-03-29T08:32:56.957Z</time></trkpt><trkpt lat="43.7691617" lon="12.648605"><ele>229.0</ele><time>2026-03-29T08:32:57.957Z</time></trkpt><trkpt lat="43.7692883" lon="12.648685"><ele>226.5</ele><time>2026-03-29T08:32:58.958Z</time></trkpt><trkpt lat="43.7694133" lon="12.64874"><ele>224.0</ele><time>2026-03-29T08:32:59.958Z</time></trkpt><trkpt lat="43.7695567" lon="12.6488183"><ele>221.5</ele><time>2026-03-29T08:33:00.958Z</time></trkpt><trkpt lat="43.7697033" lon="12.648905"><ele>219.0</ele><time>2026-03-29T08:33:01.957Z</time></trkpt><trkpt lat="43.7698467" lon="12.6490033"><ele>219.0</ele><time>2026-03-29T08:33:02.957Z</time></trkpt><trkpt lat="43.7699867" lon="12.6491133"><ele>219.0</ele><time>2026-03-29T08:33:03.958Z</time></trkpt><trkpt lat="43.7701117" lon="12.64923"><ele>219.0</ele><time>2026-03-29T08:33:04.957Z</time></trkpt><trkpt lat="43.7702217" lon="12.6493417"><ele>219.0</ele><time>2026-03-29T08:33:05.958Z</time></trkpt><trkpt lat="43.7703267" lon="12.6494267"><ele>215.75</ele><time>2026-03-29T08:33:06.958Z</time></trkpt><trkpt lat="43.770435" lon="12.6494917"><ele>212.5</ele><time>2026-03-29T08:33:07.958Z</time></trkpt><trkpt lat="43.7705667" lon="12.649545"><ele>209.25</ele><time>2026-03-29T08:33:08.957Z</time></trkpt><trkpt lat="43.7706933" lon="12.6495767"><ele>206.0</ele><time>2026-03-29T08:33:09.958Z</time></trkpt><trkpt lat="43.77083" lon="12.6495583"><ele>206.0</ele><time>2026-03-29T08:33:10.958Z</time></trkpt><trkpt lat="43.7709667" lon="12.64953"><ele>206.0</ele><time>2026-03-29T08:33:11.958Z</time></trkpt><trkpt lat="43.7710967" lon="12.64949"><ele>206.0</ele><time>2026-03-29T08:33:12.958Z</time></trkpt><trkpt lat="43.7712267" lon="12.649445"><ele>206.0</ele><time>2026-03-29T08:33:13.958Z</time></trkpt><trkpt lat="43.7713467" lon="12.6494083"><ele>205.75</ele><time>2026-03-29T08:33:14.958Z</time></trkpt><trkpt lat="43.77147" lon="12.6493767"><ele>205.5</ele><time>2026-03-29T08:33:15.958Z</time></trkpt><trkpt lat="43.7715917" lon="12.6493583"><ele>205.25</ele><time>2026-03-29T08:33:16.957Z</time></trkpt><trkpt lat="43.77171" lon="12.6493533"><ele>205.0</ele><time>2026-03-29T08:33:17.958Z</time></trkpt><trkpt lat="43.7718217" lon="12.6493517"><ele>203.0</ele><time>2026-03-29T08:33:18.958Z</time></trkpt><trkpt lat="43.7719433" lon="12.6493317"><ele>201.0</ele><time>2026-03-29T08:33:19.958Z</time></trkpt><trkpt lat="43.7720733" lon="12.6493033"><ele>199.0</ele><time>2026-03-29T08:33:20.958Z</time></trkpt><trkpt lat="43.772215" lon="12.6492867"><ele>197.0</ele><time>2026-03-29T08:33:21.957Z</time></trkpt><trkpt lat="43.7723617" lon="12.6492683"><ele>197.0</ele><time>2026-03-29T08:33:22.958Z</time></trkpt><trkpt lat="43.772515" lon="12.6492383"><ele>197.0</ele><time>2026-03-29T08:33:23.957Z</time></trkpt><trkpt lat="43.7726617" lon="12.6492067"><ele>197.0</ele><time>2026-03-29T08:33:24.957Z</time></trkpt><trkpt lat="43.7728033" lon="12.649195"><ele>197.0</ele><time>2026-03-29T08:33:25.958Z</time></trkpt><trkpt lat="43.77294" lon="12.64918"><ele>197.0</ele><time>2026-03-29T08:33:26.957Z</time></trkpt><trkpt lat="43.7730883" lon="12.6491733"><ele>197.0</ele><time>2026-03-29T08:33:27.958Z</time></trkpt><trkpt lat="43.7732417" lon="12.649155"><ele>197.0</ele><time>2026-03-29T08:33:28.957Z</time></trkpt><trkpt lat="43.7733833" lon="12.6491383"><ele>197.0</ele><time>2026-03-29T08:33:29.958Z</time></trkpt><trkpt lat="43.7735317" lon="12.6491217"><ele>196.75</ele><time>2026-03-29T08:33:30.958Z</time></trkpt><trkpt lat="43.7736767" lon="12.6491"><ele>196.5</ele><time>2026-03-29T08:33:31.958Z</time></trkpt><trkpt lat="43.7738217" lon="12.6490767"><ele>196.25</ele><time>2026-03-29T08:33:32.958Z</time></trkpt><trkpt lat="43.773975" lon="12.6490533"><ele>196.0</ele><time>2026-03-29T08:33:33.957Z</time></trkpt><trkpt lat="43.7741217" lon="12.6490333"><ele>196.0</ele><time>2026-03-29T08:33:34.957Z</time></trkpt><trkpt lat="43.7742733" lon="12.6490217"><ele>196.0</ele><time>2026-03-29T08:33:35.958Z</time></trkpt><trkpt lat="43.7744267" lon="12.649"><ele>196.0</ele><time>2026-03-29T08:33:36.958Z</time></trkpt><trkpt lat="43.7745833" lon="12.6489883"><ele>198.25</ele><time>2026-03-29T08:33:37.958Z</time></trkpt><trkpt lat="43.77473" lon="12.64897"><ele>200.5</ele><time>2026-03-29T08:33:38.957Z</time></trkpt><trkpt lat="43.7748733" lon="12.648955"><ele>202.75</ele><time>2026-03-29T08:33:39.957Z</time></trkpt><trkpt lat="43.7750133" lon="12.6489433"><ele>205.0</ele><time>2026-03-29T08:33:40.958Z</time></trkpt><trkpt lat="43.7751483" lon="12.6489267"><ele>204.75</ele><time>2026-03-29T08:33:41.958Z</time></trkpt><trkpt lat="43.7752817" lon="12.6489067"><ele>204.5</ele><time>2026-03-29T08:33:42.957Z</time></trkpt><trkpt lat="43.775415" lon="12.648885"><ele>204.25</ele><time>2026-03-29T08:33:43.958Z</time></trkpt><trkpt lat="43.7755483" lon="12.648855"><ele>204.0</ele><time>2026-03-29T08:33:44.957Z</time></trkpt><trkpt lat="43.77568" lon="12.6488233"><ele>204.0</ele><time>2026-03-29T08:33:45.957Z</time></trkpt><trkpt lat="43.7758083" lon="12.64879"><ele>204.0</ele><time>2026-03-29T08:33:46.957Z</time></trkpt><trkpt lat="43.7759233" lon="12.64875"><ele>204.0</ele><time>2026-03-29T08:33:47.958Z</time></trkpt><trkpt lat="43.776035" lon="12.64871"><ele>204.0</ele><time>2026-03-29T08:33:48.958Z</time></trkpt><trkpt lat="43.7761467" lon="12.64868"><ele>201.25</ele><time>2026-03-29T08:33:49.958Z</time></trkpt><trkpt lat="43.7762633" lon="12.6486667"><ele>198.5</ele><time>2026-03-29T08:33:50.957Z</time></trkpt><trkpt lat="43.7763867" lon="12.6486483"><ele>195.75</ele><time>2026-03-29T08:33:51.957Z</time></trkpt><trkpt lat="43.776515" lon="12.6486417"><ele>193.0</ele><time>2026-03-29T08:33:52.957Z</time></trkpt><trkpt lat="43.7766583" lon="12.6486367"><ele>193.0</ele><time>2026-03-29T08:33:53.958Z</time></trkpt><trkpt lat="43.7768117" lon="12.6486283"><ele>193.0</ele><time>2026-03-29T08:33:54.958Z</time></trkpt><trkpt lat="43.7769633" lon="12.648615"><ele>193.0</ele><time>2026-03-29T08:33:55.957Z</time></trkpt><trkpt lat="43.777125" lon="12.6486"><ele>191.0</ele><time>2026-03-29T08:33:56.958Z</time></trkpt><trkpt lat="43.77729" lon="12.64859"><ele>189.0</ele><time>2026-03-29T08:33:57.957Z</time></trkpt><trkpt lat="43.777445" lon="12.6485817"><ele>187.0</ele><time>2026-03-29T08:33:58.958Z</time></trkpt><trkpt lat="43.7775933" lon="12.6485783"><ele>187.5</ele><time>2026-03-29T08:33:59.958Z</time></trkpt><trkpt lat="43.7777367" lon="12.6485733"><ele>188.0</ele><time>2026-03-29T08:34:00.958Z</time></trkpt><trkpt lat="43.7778767" lon="12.648555"><ele>188.5</ele><time>2026-03-29T08:34:01.957Z</time></trkpt><trkpt lat="43.7780217" lon="12.6485433"><ele>189.0</ele><time>2026-03-29T08:34:02.958Z</time></trkpt><trkpt lat="43.7781683" lon="12.64853"><ele>189.0</ele><time>2026-03-29T08:34:03.958Z</time></trkpt><trkpt lat="43.7783117" lon="12.648505"><ele>189.0</ele><time>2026-03-29T08:34:04.958Z</time></trkpt><trkpt lat="43.7784467" lon="12.6484567"><ele>189.0</ele><time>2026-03-29T08:34:05.958Z</time></trkpt><trkpt lat="43.7785767" lon="12.64842"><ele>189.0</ele><time>2026-03-29T08:34:06.958Z</time></trkpt><trkpt lat="43.7786983" lon="12.64836"><ele>187.75</ele><time>2026-03-29T08:34:07.958Z</time></trkpt><trkpt lat="43.7788117" lon="12.6482367"><ele>186.5</ele><time>2026-03-29T08:34:08.957Z</time></trkpt><trkpt lat="43.77892" lon="12.6481433"><ele>185.25</ele><time>2026-03-29T08:34:09.957Z</time></trkpt><trkpt lat="43.7790333" lon="12.64805"><ele>184.0</ele><time>2026-03-29T08:34:10.957Z</time></trkpt><trkpt lat="43.7791483" lon="12.647925"><ele>184.0</ele><time>2026-03-29T08:34:11.957Z</time></trkpt><trkpt lat="43.77926" lon="12.6478633"><ele>184.0</ele><time>2026-03-29T08:34:12.958Z</time></trkpt><trkpt lat="43.7793817" lon="12.6478217"><ele>184.0</ele><time>2026-03-29T08:34:13.958Z</time></trkpt><trkpt lat="43.7794983" lon="12.6477967"><ele>184.0</ele><time>2026-03-29T08:34:14.957Z</time></trkpt><trkpt lat="43.7795933" lon="12.64776"><ele>180.79999999999998</ele><time>2026-03-29T08:34:15.958Z</time></trkpt><trkpt lat="43.7796867" lon="12.64774"><ele>177.6</ele><time>2026-03-29T08:34:16.957Z</time></trkpt><trkpt lat="43.7797933" lon="12.64777"><ele>174.4</ele><time>2026-03-29T08:34:17.957Z</time></trkpt><trkpt lat="43.7799" lon="12.6478317"><ele>171.2</ele><time>2026-03-29T08:34:18.958Z</time></trkpt><trkpt lat="43.7799917" lon="12.647875"><ele>168.0</ele><time>2026-03-29T08:34:19.958Z</time></trkpt><trkpt lat="43.7800667" lon="12.6479233"><ele>168.0</ele><time>2026-03-29T08:34:20.958Z</time></trkpt><trkpt lat="43.7801333" lon="12.6479667"><ele>168.0</ele><time>2026-03-29T08:34:21.957Z</time></trkpt><trkpt lat="43.780195" lon="12.647995"><ele>168.0</ele><time>2026-03-29T08:34:22.957Z</time></trkpt><trkpt lat="43.780265" lon="12.6479933"><ele>168.0</ele><time>2026-03-29T08:34:23.957Z</time></trkpt><trkpt lat="43.7803383" lon="12.6479733"><ele>168.0</ele><time>2026-03-29T08:34:24.958Z</time></trkpt><trkpt lat="43.7804117" lon="12.6479217"><ele>168.0</ele><time>2026-03-29T08:34:25.957Z</time></trkpt><trkpt lat="43.780515" lon="12.64782"><ele>163.0</ele><time>2026-03-29T08:34:26.958Z</time></trkpt><trkpt lat="43.7806067" lon="12.6476817"><ele>158.0</ele><time>2026-03-29T08:34:27.958Z</time></trkpt><trkpt lat="43.780715" lon="12.6474967"><ele>153.0</ele><time>2026-03-29T08:34:28.958Z</time></trkpt><trkpt lat="43.7808233" lon="12.647325"><ele>153.0</ele><time>2026-03-29T08:34:29.958Z</time></trkpt><trkpt lat="43.7809317" lon="12.6471633"><ele>153.0</ele><time>2026-03-29T08:34:30.958Z</time></trkpt><trkpt lat="43.781035" lon="12.6470117"><ele>153.0</ele><time>2026-03-29T08:34:31.958Z</time></trkpt><trkpt lat="43.7811333" lon="12.6468817"><ele>153.0</ele><time>2026-03-29T08:34:32.958Z</time></trkpt><trkpt lat="43.7812183" lon="12.646785"><ele>150.5</ele><time>2026-03-29T08:34:33.958Z</time></trkpt><trkpt lat="43.7813083" lon="12.646745"><ele>148.0</ele><time>2026-03-29T08:34:34.958Z</time></trkpt><trkpt lat="43.7813933" lon="12.646725"><ele>145.5</ele><time>2026-03-29T08:34:35.957Z</time></trkpt><trkpt lat="43.781475" lon="12.6467283"><ele>143.0</ele><time>2026-03-29T08:34:36.958Z</time></trkpt><trkpt lat="43.7815433" lon="12.64679"><ele>140.5</ele><time>2026-03-29T08:34:37.958Z</time></trkpt><trkpt lat="43.7816083" lon="12.6469017"><ele>138.0</ele><time>2026-03-29T08:34:38.957Z</time></trkpt><trkpt lat="43.7816583" lon="12.6470767"><ele>138.0</ele><time>2026-03-29T08:34:39.958Z</time></trkpt><trkpt lat="43.78172" lon="12.647295"><ele>138.0</ele><time>2026-03-29T08:34:40.958Z</time></trkpt><trkpt lat="43.78177" lon="12.64751"><ele>138.0</ele><time>2026-03-29T08:34:41.958Z</time></trkpt><trkpt lat="43.78182" lon="12.6477083"><ele>130.66666666666666</ele><time>2026-03-29T08:34:42.957Z</time></trkpt><trkpt lat="43.78187" lon="12.6479233"><ele>123.33333333333333</ele><time>2026-03-29T08:34:43.957Z</time></trkpt><trkpt lat="43.7819167" lon="12.6481517"><ele>116.0</ele><time>2026-03-29T08:34:44.957Z</time></trkpt><trkpt lat="43.7819433" lon="12.6483633"><ele>116.0</ele><time>2026-03-29T08:34:45.958Z</time></trkpt><trkpt lat="43.781965" lon="12.64857"><ele>116.0</ele><time>2026-03-29T08:34:46.957Z</time></trkpt><trkpt lat="43.7819767" lon="12.6487517"><ele>116.0</ele><time>2026-03-29T08:34:47.958Z</time></trkpt><trkpt lat="43.78199" lon="12.6489217"><ele>116.0</ele><time>2026-03-29T08:34:48.957Z</time></trkpt><trkpt lat="43.7820033" lon="12.6490783"><ele>115.83333333333333</ele><time>2026-03-29T08:34:49.958Z</time></trkpt><trkpt lat="43.7820167" lon="12.6492167"><ele>115.66666666666666</ele><time>2026-03-29T08:34:50.958Z</time></trkpt><trkpt lat="43.782025" lon="12.6493417"><ele>115.5</ele><time>2026-03-29T08:34:51.957Z</time></trkpt><trkpt lat="43.7820367" lon="12.6494517"><ele>115.33333333333334</ele><time>2026-03-29T08:34:52.957Z</time></trkpt><trkpt lat="43.7820833" lon="12.64956"><ele>115.16666666666667</ele><time>2026-03-29T08:34:54.958Z</time></trkpt><trkpt lat="43.7821583" lon="12.6495867"><ele>115.0</ele><time>2026-03-29T08:34:56.958Z</time></trkpt><trkpt lat="43.782245" lon="12.6495"><ele>115.0</ele><time>2026-03-29T08:34:58.958Z</time></trkpt><trkpt lat="43.7822967" lon="12.64941"><ele>115.0</ele><time>2026-03-29T08:34:59.957Z</time></trkpt><trkpt lat="43.78235" lon="12.6492767"><ele>115.0</ele><time>2026-03-29T08:35:00.958Z</time></trkpt><trkpt lat="43.782405" lon="12.6490883"><ele>115.0</ele><time>2026-03-29T08:35:01.958Z</time></trkpt><trkpt lat="43.78247" lon="12.6488767"><ele>115.0</ele><time>2026-03-29T08:35:02.958Z</time></trkpt><trkpt lat="43.7825367" lon="12.6486733"><ele>115.0</ele><time>2026-03-29T08:35:03.958Z</time></trkpt><trkpt lat="43.7825967" lon="12.6484733"><ele>115.0</ele><time>2026-03-29T08:35:04.957Z</time></trkpt><trkpt lat="43.7826683" lon="12.64828"><ele>110.33333333333334</ele><time>2026-03-29T08:35:05.958Z</time></trkpt><trkpt lat="43.7827367" lon="12.648085"><ele>105.66666666666666</ele><time>2026-03-29T08:35:06.958Z</time></trkpt><trkpt lat="43.782805" lon="12.647895"><ele>101.0</ele><time>2026-03-29T08:35:07.958Z</time></trkpt><trkpt lat="43.7828583" lon="12.6477083"><ele>101.0</ele><time>2026-03-29T08:35:08.957Z</time></trkpt><trkpt lat="43.782915" lon="12.6475083"><ele>101.0</ele><time>2026-03-29T08:35:09.958Z</time></trkpt><trkpt lat="43.782995" lon="12.6472933"><ele>101.0</ele><time>2026-03-29T08:35:10.958Z</time></trkpt><trkpt lat="43.7830583" lon="12.6471033"><ele>101.5</ele><time>2026-03-29T08:35:11.957Z</time></trkpt><trkpt lat="43.7831167" lon="12.6469267"><ele>102.0</ele><time>2026-03-29T08:35:12.958Z</time></trkpt><trkpt lat="43.7831667" lon="12.6467683"><ele>102.5</ele><time>2026-03-29T08:35:13.958Z</time></trkpt><trkpt lat="43.7832217" lon="12.64663"><ele>103.0</ele><time>2026-03-29T08:35:14.958Z</time></trkpt><trkpt lat="43.783275" lon="12.6464917"><ele>103.0</ele><time>2026-03-29T08:35:15.958Z</time></trkpt><trkpt lat="43.7833517" lon="12.646365"><ele>103.0</ele><time>2026-03-29T08:35:16.957Z</time></trkpt><trkpt lat="43.7834517" lon="12.6462517"><ele>103.0</ele><time>2026-03-29T08:35:17.958Z</time></trkpt><trkpt lat="43.7835583" lon="12.64615"><ele>103.0</ele><time>2026-03-29T08:35:18.958Z</time></trkpt><trkpt lat="43.7836667" lon="12.6460483"><ele>101.25</ele><time>2026-03-29T08:35:19.958Z</time></trkpt><trkpt lat="43.7837883" lon="12.64593"><ele>99.5</ele><time>2026-03-29T08:35:20.958Z</time></trkpt><trkpt lat="43.7839" lon="12.6458233"><ele>97.75</ele><time>2026-03-29T08:35:21.958Z</time></trkpt><trkpt lat="43.7840017" lon="12.645725"><ele>96.0</ele><time>2026-03-29T08:35:22.957Z</time></trkpt><trkpt lat="43.7840883" lon="12.6456317"><ele>96.0</ele><time>2026-03-29T08:35:23.957Z</time></trkpt><trkpt lat="43.7841617" lon="12.6455367"><ele>96.0</ele><time>2026-03-29T08:35:24.958Z</time></trkpt><trkpt lat="43.784215" lon="12.645425"><ele>96.0</ele><time>2026-03-29T08:35:25.958Z</time></trkpt><trkpt lat="43.7842583" lon="12.6452933"><ele>96.0</ele><time>2026-03-29T08:35:26.958Z</time></trkpt><trkpt lat="43.7842967" lon="12.64513"><ele>96.0</ele><time>2026-03-29T08:35:27.957Z</time></trkpt><trkpt lat="43.7843233" lon="12.64497"><ele>96.0</ele><time>2026-03-29T08:35:28.957Z</time></trkpt><trkpt lat="43.78435" lon="12.644805"><ele>96.0</ele><time>2026-03-29T08:35:29.957Z</time></trkpt><trkpt lat="43.78439" lon="12.64461"><ele>96.0</ele><time>2026-03-29T08:35:30.958Z</time></trkpt><trkpt lat="43.7844267" lon="12.6444083"><ele>96.0</ele><time>2026-03-29T08:35:31.957Z</time></trkpt><trkpt lat="43.7844667" lon="12.6442033"><ele>96.0</ele><time>2026-03-29T08:35:32.958Z</time></trkpt><trkpt lat="43.7845133" lon="12.64404"><ele>96.0</ele><time>2026-03-29T08:35:33.958Z</time></trkpt><trkpt lat="43.7845433" lon="12.6438733"><ele>96.0</ele><time>2026-03-29T08:35:34.957Z</time></trkpt><trkpt lat="43.7845767" lon="12.6437233"><ele>96.0</ele><time>2026-03-29T08:35:35.957Z</time></trkpt><trkpt lat="43.78461" lon="12.6435383"><ele>97.19999999999999</ele><time>2026-03-29T08:35:36.957Z</time></trkpt><trkpt lat="43.7846233" lon="12.6433683"><ele>98.39999999999999</ele><time>2026-03-29T08:35:37.957Z</time></trkpt><trkpt lat="43.7846283" lon="12.6432267"><ele>99.6</ele><time>2026-03-29T08:35:38.957Z</time></trkpt><trkpt lat="43.7846067" lon="12.6431033"><ele>100.8</ele><time>2026-03-29T08:35:39.957Z</time></trkpt><trkpt lat="43.784565" lon="12.643"><ele>102.0</ele><time>2026-03-29T08:35:40.958Z</time></trkpt><trkpt lat="43.7844983" lon="12.6429083"><ele>102.0</ele><time>2026-03-29T08:35:41.957Z</time></trkpt><trkpt lat="43.784405" lon="12.64284"><ele>102.0</ele><time>2026-03-29T08:35:42.957Z</time></trkpt><trkpt lat="43.7842983" lon="12.642795"><ele>102.0</ele><time>2026-03-29T08:35:43.958Z</time></trkpt><trkpt lat="43.7841933" lon="12.6427217"><ele>102.0</ele><time>2026-03-29T08:35:44.957Z</time></trkpt><trkpt lat="43.7840917" lon="12.6426333"><ele>101.6</ele><time>2026-03-29T08:35:45.958Z</time></trkpt><trkpt lat="43.784015" lon="12.6425267"><ele>101.19999999999999</ele><time>2026-03-29T08:35:46.958Z</time></trkpt><trkpt lat="43.7839533" lon="12.64241"><ele>100.8</ele><time>2026-03-29T08:35:47.957Z</time></trkpt><trkpt lat="43.783925" lon="12.6422817"><ele>100.4</ele><time>2026-03-29T08:35:48.958Z</time></trkpt><trkpt lat="43.7839383" lon="12.6421617"><ele>100.0</ele><time>2026-03-29T08:35:49.958Z</time></trkpt><trkpt lat="43.7839733" lon="12.6420483"><ele>101.0</ele><time>2026-03-29T08:35:50.958Z</time></trkpt><trkpt lat="43.78403" lon="12.6419317"><ele>102.0</ele><time>2026-03-29T08:35:51.958Z</time></trkpt><trkpt lat="43.784115" lon="12.64182"><ele>103.0</ele><time>2026-03-29T08:35:52.958Z</time></trkpt><trkpt lat="43.7842167" lon="12.6417117"><ele>104.0</ele><time>2026-03-29T08:35:53.957Z</time></trkpt><trkpt lat="43.784315" lon="12.6415867"><ele>105.25</ele><time>2026-03-29T08:35:54.957Z</time></trkpt><trkpt lat="43.7844133" lon="12.6414517"><ele>106.5</ele><time>2026-03-29T08:35:55.957Z</time></trkpt><trkpt lat="43.784505" lon="12.6413183"><ele>107.75</ele><time>2026-03-29T08:35:56.958Z</time></trkpt><trkpt lat="43.784595" lon="12.641175"><ele>109.0</ele><time>2026-03-29T08:35:57.958Z</time></trkpt><trkpt lat="43.7846733" lon="12.6410383"><ele>109.0</ele><time>2026-03-29T08:35:58.957Z</time></trkpt><trkpt lat="43.7847483" lon="12.6409167"><ele>109.0</ele><time>2026-03-29T08:35:59.958Z</time></trkpt><trkpt lat="43.7848233" lon="12.6408067"><ele>109.0</ele><time>2026-03-29T08:36:00.958Z</time></trkpt><trkpt lat="43.784885" lon="12.6407167"><ele>109.0</ele><time>2026-03-29T08:36:01.958Z</time></trkpt><trkpt lat="43.78494" lon="12.6406367"><ele>109.0</ele><time>2026-03-29T08:36:02.957Z</time></trkpt><trkpt lat="43.785" lon="12.6405833"><ele>109.00000000000001</ele><time>2026-03-29T08:36:03.958Z</time></trkpt><trkpt lat="43.7850633" lon="12.6405533"><ele>109.0</ele><time>2026-03-29T08:36:04.958Z</time></trkpt><trkpt lat="43.7851267" lon="12.6405717"><ele>109.0</ele><time>2026-03-29T08:36:05.958Z</time></trkpt><trkpt lat="43.7851867" lon="12.6406183"><ele>109.0</ele><time>2026-03-29T08:36:06.957Z</time></trkpt><trkpt lat="43.785245" lon="12.6407"><ele>109.00000000000001</ele><time>2026-03-29T08:36:07.957Z</time></trkpt><trkpt lat="43.7853183" lon="12.6408283"><ele>109.0</ele><time>2026-03-29T08:36:08.958Z</time></trkpt><trkpt lat="43.7854133" lon="12.64096"><ele>109.25</ele><time>2026-03-29T08:36:09.957Z</time></trkpt><trkpt lat="43.7855167" lon="12.6410867"><ele>109.5</ele><time>2026-03-29T08:36:10.958Z</time></trkpt><trkpt lat="43.7856217" lon="12.641225"><ele>109.75</ele><time>2026-03-29T08:36:11.957Z</time></trkpt><trkpt lat="43.785735" lon="12.6413567"><ele>110.0</ele><time>2026-03-29T08:36:12.957Z</time></trkpt><trkpt lat="43.7858433" lon="12.64148"><ele>110.0</ele><time>2026-03-29T08:36:13.958Z</time></trkpt><trkpt lat="43.7859517" lon="12.64161"><ele>110.0</ele><time>2026-03-29T08:36:14.958Z</time></trkpt><trkpt lat="43.7860633" lon="12.6417467"><ele>110.0</ele><time>2026-03-29T08:36:15.957Z</time></trkpt><trkpt lat="43.786175" lon="12.6418683"><ele>110.0</ele><time>2026-03-29T08:36:16.958Z</time></trkpt><trkpt lat="43.7862717" lon="12.6419867"><ele>109.8</ele><time>2026-03-29T08:36:17.957Z</time></trkpt><trkpt lat="43.7863667" lon="12.642095"><ele>109.6</ele><time>2026-03-29T08:36:18.958Z</time></trkpt><trkpt lat="43.7864517" lon="12.6422"><ele>109.4</ele><time>2026-03-29T08:36:19.957Z</time></trkpt><trkpt lat="43.7865217" lon="12.6422933"><ele>109.2</ele><time>2026-03-29T08:36:20.958Z</time></trkpt><trkpt lat="43.7865733" lon="12.6423717"><ele>109.0</ele><time>2026-03-29T08:36:21.958Z</time></trkpt><trkpt lat="43.7866267" lon="12.6424533"><ele>109.0</ele><time>2026-03-29T08:36:22.958Z</time></trkpt><trkpt lat="43.78668" lon="12.6425167"><ele>109.0</ele><time>2026-03-29T08:36:23.958Z</time></trkpt><trkpt lat="43.786775" lon="12.6425617"><ele>109.0</ele><time>2026-03-29T08:36:25.958Z</time></trkpt><trkpt lat="43.7868633" lon="12.6424333"><ele>109.0</ele><time>2026-03-29T08:36:28.958Z</time></trkpt><trkpt lat="43.7869117" lon="12.64234"><ele>109.0</ele><time>2026-03-29T08:36:29.957Z</time></trkpt><trkpt lat="43.7869733" lon="12.6422367"><ele>108.80000000000001</ele><time>2026-03-29T08:36:30.958Z</time></trkpt><trkpt lat="43.787045" lon="12.6421267"><ele>108.60000000000001</ele><time>2026-03-29T08:36:31.958Z</time></trkpt><trkpt lat="43.7871117" lon="12.6420167"><ele>108.4</ele><time>2026-03-29T08:36:32.958Z</time></trkpt><trkpt lat="43.787185" lon="12.6418917"><ele>108.2</ele><time>2026-03-29T08:36:33.957Z</time></trkpt><trkpt lat="43.787265" lon="12.6417717"><ele>108.0</ele><time>2026-03-29T08:36:34.957Z</time></trkpt><trkpt lat="43.7873417" lon="12.6416417"><ele>108.0</ele><time>2026-03-29T08:36:35.958Z</time></trkpt><trkpt lat="43.7874233" lon="12.64151"><ele>108.0</ele><time>2026-03-29T08:36:36.958Z</time></trkpt><trkpt lat="43.7875067" lon="12.64138"><ele>108.0</ele><time>2026-03-29T08:36:37.958Z</time></trkpt><trkpt lat="43.7875817" lon="12.641255"><ele>108.0</ele><time>2026-03-29T08:36:38.957Z</time></trkpt><trkpt lat="43.7876367" lon="12.6411417"><ele>108.0</ele><time>2026-03-29T08:36:39.958Z</time></trkpt><trkpt lat="43.78769" lon="12.6410417"><ele>108.0</ele><time>2026-03-29T08:36:40.958Z</time></trkpt><trkpt lat="43.787745" lon="12.6409767"><ele>108.0</ele><time>2026-03-29T08:36:41.958Z</time></trkpt><trkpt lat="43.7878167" lon="12.6409317"><ele>108.0</ele><time>2026-03-29T08:36:42.958Z</time></trkpt><trkpt lat="43.7879083" lon="12.640895"><ele>108.0</ele><time>2026-03-29T08:36:43.958Z</time></trkpt><trkpt lat="43.7880167" lon="12.640875"><ele>108.0</ele><time>2026-03-29T08:36:44.958Z</time></trkpt><trkpt lat="43.7881417" lon="12.64088"><ele>108.0</ele><time>2026-03-29T08:36:45.958Z</time></trkpt><trkpt lat="43.788285" lon="12.64089"><ele>108.0</ele><time>2026-03-29T08:36:46.957Z</time></trkpt><trkpt lat="43.7884317" lon="12.6408867"><ele>108.0</ele><time>2026-03-29T08:36:47.957Z</time></trkpt><trkpt lat="43.788585" lon="12.6408717"><ele>108.0</ele><time>2026-03-29T08:36:48.958Z</time></trkpt><trkpt lat="43.788745" lon="12.64086"><ele>109.0</ele><time>2026-03-29T08:36:49.957Z</time></trkpt><trkpt lat="43.7889" lon="12.6408483"><ele>110.0</ele><time>2026-03-29T08:36:50.957Z</time></trkpt><trkpt lat="43.7890333" lon="12.6408383"><ele>111.0</ele><time>2026-03-29T08:36:51.958Z</time></trkpt><trkpt lat="43.7891533" lon="12.6408267"><ele>112.0</ele><time>2026-03-29T08:36:52.957Z</time></trkpt><trkpt lat="43.7892733" lon="12.64081"><ele>112.75</ele><time>2026-03-29T08:36:53.958Z</time></trkpt><trkpt lat="43.7893917" lon="12.6407717"><ele>113.5</ele><time>2026-03-29T08:36:54.958Z</time></trkpt><trkpt lat="43.7895117" lon="12.6407233"><ele>114.25</ele><time>2026-03-29T08:36:55.957Z</time></trkpt><trkpt lat="43.78962" lon="12.640685"><ele>115.0</ele><time>2026-03-29T08:36:56.958Z</time></trkpt><trkpt lat="43.789725" lon="12.6406333"><ele>115.00000000000001</ele><time>2026-03-29T08:36:57.958Z</time></trkpt><trkpt lat="43.78982" lon="12.640585"><ele>115.0</ele><time>2026-03-29T08:36:58.957Z</time></trkpt><trkpt lat="43.7898967" lon="12.6405433"><ele>115.0</ele><time>2026-03-29T08:36:59.958Z</time></trkpt><trkpt lat="43.7899633" lon="12.6405067"><ele>115.0</ele><time>2026-03-29T08:37:00.957Z</time></trkpt><trkpt lat="43.790025" lon="12.6404833"><ele>115.00000000000001</ele><time>2026-03-29T08:37:01.958Z</time></trkpt><trkpt lat="43.7901217" lon="12.6404567"><ele>115.0</ele><time>2026-03-29T08:37:03.957Z</time></trkpt><trkpt lat="43.790205" lon="12.6405017"><ele>116.50000000000001</ele><time>2026-03-29T08:37:05.958Z</time></trkpt><trkpt lat="43.79028" lon="12.6405483"><ele>118.0</ele><time>2026-03-29T08:37:07.957Z</time></trkpt><trkpt lat="43.7903583" lon="12.640605"><ele>119.5</ele><time>2026-03-29T08:37:09.957Z</time></trkpt><trkpt lat="43.7904233" lon="12.6406317"><ele>121.0</ele><time>2026-03-29T08:37:11.958Z</time></trkpt><trkpt lat="43.7905117" lon="12.64056"><ele>122.50000000000001</ele><time>2026-03-29T08:37:13.958Z</time></trkpt><trkpt lat="43.7905617" lon="12.6404517"><ele>124.0</ele><time>2026-03-29T08:37:14.958Z</time></trkpt><trkpt lat="43.7906183" lon="12.6403"><ele>120.66666666666667</ele><time>2026-03-29T08:37:15.957Z</time></trkpt><trkpt lat="43.79069" lon="12.6401333"><ele>117.33333333333334</ele><time>2026-03-29T08:37:16.958Z</time></trkpt><trkpt lat="43.7907783" lon="12.639925"><ele>114.0</ele><time>2026-03-29T08:37:17.957Z</time></trkpt><trkpt lat="43.79087" lon="12.6397067"><ele>114.0</ele><time>2026-03-29T08:37:18.957Z</time></trkpt><trkpt lat="43.790975" lon="12.6394783"><ele>114.0</ele><time>2026-03-29T08:37:19.958Z</time></trkpt><trkpt lat="43.791075" lon="12.6392533"><ele>114.0</ele><time>2026-03-29T08:37:20.958Z</time></trkpt><trkpt lat="43.7911617" lon="12.6390383"><ele>114.66666666666666</ele><time>2026-03-29T08:37:21.958Z</time></trkpt><trkpt lat="43.79124" lon="12.6388133"><ele>115.33333333333333</ele><time>2026-03-29T08:37:22.958Z</time></trkpt><trkpt lat="43.7913033" lon="12.6385917"><ele>116.0</ele><time>2026-03-29T08:37:23.957Z</time></trkpt><trkpt lat="43.7913483" lon="12.63834"><ele>116.0</ele><time>2026-03-29T08:37:24.957Z</time></trkpt><trkpt lat="43.79139" lon="12.6381033"><ele>116.0</ele><time>2026-03-29T08:37:25.958Z</time></trkpt><trkpt lat="43.7914033" lon="12.6378433"><ele>116.0</ele><time>2026-03-29T08:37:26.958Z</time></trkpt><trkpt lat="43.79141" lon="12.637595"><ele>113.33333333333333</ele><time>2026-03-29T08:37:27.958Z</time></trkpt><trkpt lat="43.79139" lon="12.6373383"><ele>110.66666666666666</ele><time>2026-03-29T08:37:28.958Z</time></trkpt><trkpt lat="43.79136" lon="12.6370883"><ele>108.0</ele><time>2026-03-29T08:37:29.957Z</time></trkpt><trkpt lat="43.791335" lon="12.6368617"><ele>107.0</ele><time>2026-03-29T08:37:30.958Z</time></trkpt><trkpt lat="43.7913117" lon="12.636665"><ele>106.0</ele><time>2026-03-29T08:37:31.958Z</time></trkpt><trkpt lat="43.7913" lon="12.6364783"><ele>105.0</ele><time>2026-03-29T08:37:32.957Z</time></trkpt><trkpt lat="43.7912917" lon="12.6363033"><ele>104.0</ele><time>2026-03-29T08:37:33.958Z</time></trkpt><trkpt lat="43.7912667" lon="12.636135"><ele>103.6</ele><time>2026-03-29T08:37:34.958Z</time></trkpt><trkpt lat="43.7912467" lon="12.6359917"><ele>103.2</ele><time>2026-03-29T08:37:35.957Z</time></trkpt><trkpt lat="43.79123" lon="12.6358667"><ele>102.8</ele><time>2026-03-29T08:37:36.957Z</time></trkpt><trkpt lat="43.7912417" lon="12.6357633"><ele>102.39999999999999</ele><time>2026-03-29T08:37:37.957Z</time></trkpt><trkpt lat="43.7912533" lon="12.6356717"><ele>102.0</ele><time>2026-03-29T08:37:38.957Z</time></trkpt><trkpt lat="43.7913033" lon="12.6355317"><ele>102.0</ele><time>2026-03-29T08:37:40.958Z</time></trkpt><trkpt lat="43.79135" lon="12.6354183"><ele>102.0</ele><time>2026-03-29T08:37:42.958Z</time></trkpt><trkpt lat="43.79136" lon="12.6353233"><ele>102.0</ele><time>2026-03-29T08:37:45.957Z</time></trkpt><trkpt lat="43.79135" lon="12.6351933"><ele>102.0</ele><time>2026-03-29T08:42:45.957Z</time></trkpt><trkpt lat="43.791305" lon="12.6350667"><ele>102.0</ele><time>2026-03-29T08:43:14.958Z</time></trkpt><trkpt lat="43.7912617" lon="12.6349517"><ele>102.0</ele><time>2026-03-29T08:43:16.958Z</time></trkpt><trkpt lat="43.7912" lon="12.6348017"><ele>102.0</ele><time>2026-03-29T08:43:18.958Z</time></trkpt><trkpt lat="43.7911717" lon="12.6347"><ele>102.0</ele><time>2026-03-29T08:43:19.958Z</time></trkpt><trkpt lat="43.7911433" lon="12.634575"><ele>102.0</ele><time>2026-03-29T08:43:20.958Z</time></trkpt><trkpt lat="43.7911217" lon="12.634435"><ele>102.0</ele><time>2026-03-29T08:43:21.958Z</time></trkpt><trkpt lat="43.791105" lon="12.634275"><ele>101.75</ele><time>2026-03-29T08:43:22.958Z</time></trkpt><trkpt lat="43.7910867" lon="12.6340967"><ele>101.5</ele><time>2026-03-29T08:43:23.958Z</time></trkpt><trkpt lat="43.7910733" lon="12.633905"><ele>101.25</ele><time>2026-03-29T08:43:24.958Z</time></trkpt><trkpt lat="43.791055" lon="12.6337083"><ele>101.0</ele><time>2026-03-29T08:43:25.958Z</time></trkpt><trkpt lat="43.7910417" lon="12.63351"><ele>101.0</ele><time>2026-03-29T08:43:26.957Z</time></trkpt><trkpt lat="43.791025" lon="12.6333017"><ele>101.0</ele><time>2026-03-29T08:43:27.958Z</time></trkpt><trkpt lat="43.7909967" lon="12.633075"><ele>101.0</ele><time>2026-03-29T08:43:28.958Z</time></trkpt><trkpt lat="43.7909683" lon="12.63286"><ele>99.66666666666666</ele><time>2026-03-29T08:43:29.958Z</time></trkpt><trkpt lat="43.790945" lon="12.6326567"><ele>98.33333333333334</ele><time>2026-03-29T08:43:30.958Z</time></trkpt><trkpt lat="43.7909317" lon="12.6324417"><ele>97.0</ele><time>2026-03-29T08:43:31.958Z</time></trkpt><trkpt lat="43.7909183" lon="12.6322267"><ele>97.0</ele><time>2026-03-29T08:43:32.957Z</time></trkpt><trkpt lat="43.7909133" lon="12.6319983"><ele>97.0</ele><time>2026-03-29T08:43:33.957Z</time></trkpt><trkpt lat="43.7909283" lon="12.6317683"><ele>97.0</ele><time>2026-03-29T08:43:34.957Z</time></trkpt><trkpt lat="43.7909533" lon="12.63153"><ele>97.0</ele><time>2026-03-29T08:43:35.958Z</time></trkpt><trkpt lat="43.790975" lon="12.6312933"><ele>97.0</ele><time>2026-03-29T08:43:36.957Z</time></trkpt><trkpt lat="43.791" lon="12.631055"><ele>97.0</ele><time>2026-03-29T08:43:37.958Z</time></trkpt><trkpt lat="43.791035" lon="12.6308217"><ele>98.66666666666667</ele><time>2026-03-29T08:43:38.957Z</time></trkpt><trkpt lat="43.7910767" lon="12.63059"><ele>100.33333333333334</ele><time>2026-03-29T08:43:39.957Z</time></trkpt><trkpt lat="43.7911333" lon="12.6303633"><ele>102.0</ele><time>2026-03-29T08:43:40.958Z</time></trkpt><trkpt lat="43.7912017" lon="12.63014"><ele>103.33333333333334</ele><time>2026-03-29T08:43:41.958Z</time></trkpt><trkpt lat="43.7912817" lon="12.6299333"><ele>104.66666666666667</ele><time>2026-03-29T08:43:42.958Z</time></trkpt><trkpt lat="43.7913717" lon="12.629725"><ele>106.0</ele><time>2026-03-29T08:43:43.957Z</time></trkpt><trkpt lat="43.7914567" lon="12.6295133"><ele>104.66666666666667</ele><time>2026-03-29T08:43:44.958Z</time></trkpt><trkpt lat="43.79154" lon="12.629305"><ele>103.33333333333334</ele><time>2026-03-29T08:43:45.957Z</time></trkpt><trkpt lat="43.791635" lon="12.629115"><ele>102.0</ele><time>2026-03-29T08:43:46.958Z</time></trkpt><trkpt lat="43.7917267" lon="12.628925"><ele>102.0</ele><time>2026-03-29T08:43:47.958Z</time></trkpt><trkpt lat="43.7918217" lon="12.6287367"><ele>102.0</ele><time>2026-03-29T08:43:48.958Z</time></trkpt><trkpt lat="43.7919117" lon="12.6285333"><ele>102.0</ele><time>2026-03-29T08:43:49.958Z</time></trkpt><trkpt lat="43.792" lon="12.6283283"><ele>101.33333333333334</ele><time>2026-03-29T08:43:50.958Z</time></trkpt><trkpt lat="43.79209" lon="12.6281183"><ele>100.66666666666667</ele><time>2026-03-29T08:43:51.958Z</time></trkpt><trkpt lat="43.7921733" lon="12.6279033"><ele>100.0</ele><time>2026-03-29T08:43:52.958Z</time></trkpt><trkpt lat="43.7922633" lon="12.6276983"><ele>100.0</ele><time>2026-03-29T08:43:53.957Z</time></trkpt><trkpt lat="43.792355" lon="12.6274917"><ele>100.0</ele><time>2026-03-29T08:43:54.958Z</time></trkpt><trkpt lat="43.7924517" lon="12.6272883"><ele>100.0</ele><time>2026-03-29T08:43:55.958Z</time></trkpt><trkpt lat="43.7925467" lon="12.6270933"><ele>100.66666666666667</ele><time>2026-03-29T08:43:56.958Z</time></trkpt><trkpt lat="43.7926467" lon="12.62691"><ele>101.33333333333334</ele><time>2026-03-29T08:43:57.958Z</time></trkpt><trkpt lat="43.7927467" lon="12.626715"><ele>102.0</ele><time>2026-03-29T08:43:58.958Z</time></trkpt><trkpt lat="43.7928417" lon="12.6265217"><ele>102.0</ele><time>2026-03-29T08:43:59.958Z</time></trkpt><trkpt lat="43.7929367" lon="12.6263133"><ele>102.0</ele><time>2026-03-29T08:44:00.957Z</time></trkpt><trkpt lat="43.7930333" lon="12.6261117"><ele>102.0</ele><time>2026-03-29T08:44:01.957Z</time></trkpt><trkpt lat="43.793135" lon="12.625905"><ele>102.0</ele><time>2026-03-29T08:44:02.958Z</time></trkpt><trkpt lat="43.7932333" lon="12.6257133"><ele>102.0</ele><time>2026-03-29T08:44:03.958Z</time></trkpt><trkpt lat="43.7933333" lon="12.6254967"><ele>102.0</ele><time>2026-03-29T08:44:04.958Z</time></trkpt><trkpt lat="43.7934283" lon="12.6252933"><ele>102.0</ele><time>2026-03-29T08:44:05.958Z</time></trkpt><trkpt lat="43.793525" lon="12.62509"><ele>102.0</ele><time>2026-03-29T08:44:06.957Z</time></trkpt><trkpt lat="43.7936183" lon="12.624895"><ele>102.0</ele><time>2026-03-29T08:44:07.957Z</time></trkpt><trkpt lat="43.7937067" lon="12.6246867"><ele>102.0</ele><time>2026-03-29T08:44:08.958Z</time></trkpt><trkpt lat="43.7937767" lon="12.624515"><ele>102.0</ele><time>2026-03-29T08:44:09.958Z</time></trkpt><trkpt lat="43.7938383" lon="12.624335"><ele>102.0</ele><time>2026-03-29T08:44:10.958Z</time></trkpt><trkpt lat="43.7938867" lon="12.6241833"><ele>102.0</ele><time>2026-03-29T08:44:11.958Z</time></trkpt><trkpt lat="43.7939433" lon="12.6240533"><ele>102.0</ele><time>2026-03-29T08:44:12.957Z</time></trkpt><trkpt lat="43.7940067" lon="12.6239383"><ele>102.0</ele><time>2026-03-29T08:44:13.958Z</time></trkpt><trkpt lat="43.79407" lon="12.6238233"><ele>102.0</ele><time>2026-03-29T08:44:14.958Z</time></trkpt><trkpt lat="43.79413" lon="12.6237083"><ele>102.0</ele><time>2026-03-29T08:44:15.958Z</time></trkpt><trkpt lat="43.7941733" lon="12.6235817"><ele>102.0</ele><time>2026-03-29T08:44:16.958Z</time></trkpt><trkpt lat="43.794195" lon="12.6234317"><ele>102.25</ele><time>2026-03-29T08:44:17.958Z</time></trkpt><trkpt lat="43.7942083" lon="12.62325"><ele>102.5</ele><time>2026-03-29T08:44:18.958Z</time></trkpt><trkpt lat="43.7942317" lon="12.6230517"><ele>102.75</ele><time>2026-03-29T08:44:19.958Z</time></trkpt><trkpt lat="43.7942717" lon="12.6228467"><ele>103.0</ele><time>2026-03-29T08:44:20.957Z</time></trkpt><trkpt lat="43.794325" lon="12.6226533"><ele>103.0</ele><time>2026-03-29T08:44:21.958Z</time></trkpt><trkpt lat="43.7943867" lon="12.622445"><ele>103.0</ele><time>2026-03-29T08:44:22.958Z</time></trkpt><trkpt lat="43.7944483" lon="12.6222283"><ele>103.0</ele><time>2026-03-29T08:44:23.957Z</time></trkpt><trkpt lat="43.7945083" lon="12.6220017"><ele>103.0</ele><time>2026-03-29T08:44:24.957Z</time></trkpt><trkpt lat="43.79457" lon="12.6217717"><ele>103.0</ele><time>2026-03-29T08:44:25.958Z</time></trkpt><trkpt lat="43.7946317" lon="12.62154"><ele>103.0</ele><time>2026-03-29T08:44:26.958Z</time></trkpt><trkpt lat="43.7947" lon="12.62132"><ele>103.0</ele><time>2026-03-29T08:44:27.958Z</time></trkpt><trkpt lat="43.7947683" lon="12.6210883"><ele>103.0</ele><time>2026-03-29T08:44:28.958Z</time></trkpt><trkpt lat="43.79484" lon="12.6208733"><ele>103.0</ele><time>2026-03-29T08:44:29.957Z</time></trkpt><trkpt lat="43.7949117" lon="12.6206567"><ele>103.0</ele><time>2026-03-29T08:44:30.958Z</time></trkpt><trkpt lat="43.7949783" lon="12.6204467"><ele>103.0</ele><time>2026-03-29T08:44:31.958Z</time></trkpt><trkpt lat="43.7950617" lon="12.62024"><ele>103.0</ele><time>2026-03-29T08:44:32.958Z</time></trkpt><trkpt lat="43.79515" lon="12.620045"><ele>104.0</ele><time>2026-03-29T08:44:33.958Z</time></trkpt><trkpt lat="43.795245" lon="12.619865"><ele>105.0</ele><time>2026-03-29T08:44:34.958Z</time></trkpt><trkpt lat="43.7953483" lon="12.6196983"><ele>106.0</ele><time>2026-03-29T08:44:35.958Z</time></trkpt><trkpt lat="43.7954583" lon="12.6195467"><ele>106.33333333333334</ele><time>2026-03-29T08:44:36.958Z</time></trkpt><trkpt lat="43.7955817" lon="12.6194183"><ele>106.66666666666666</ele><time>2026-03-29T08:44:37.957Z</time></trkpt><trkpt lat="43.7957183" lon="12.6193333"><ele>107.0</ele><time>2026-03-29T08:44:38.958Z</time></trkpt><trkpt lat="43.795865" lon="12.6192933"><ele>107.0</ele><time>2026-03-29T08:44:39.958Z</time></trkpt><trkpt lat="43.7959967" lon="12.619245"><ele>106.99999999999999</ele><time>2026-03-29T08:44:40.958Z</time></trkpt><trkpt lat="43.79611" lon="12.619205"><ele>106.99999999999999</ele><time>2026-03-29T08:44:41.958Z</time></trkpt><trkpt lat="43.7961783" lon="12.6191617"><ele>107.0</ele><time>2026-03-29T08:44:42.958Z</time></trkpt><trkpt lat="43.7962317" lon="12.6191083"><ele>107.0</ele><time>2026-03-29T08:44:43.957Z</time></trkpt><trkpt lat="43.796275" lon="12.6190433"><ele>106.99999999999999</ele><time>2026-03-29T08:44:44.957Z</time></trkpt><trkpt lat="43.796295" lon="12.6189467"><ele>107.0</ele><time>2026-03-29T08:44:45.958Z</time></trkpt><trkpt lat="43.7962767" lon="12.6187833"><ele>107.0</ele><time>2026-03-29T08:44:47.958Z</time></trkpt><trkpt lat="43.7962133" lon="12.6187417"><ele>107.0</ele><time>2026-03-29T08:44:49.958Z</time></trkpt><trkpt lat="43.796125" lon="12.6187133"><ele>106.99999999999999</ele><time>2026-03-29T08:44:55.957Z</time></trkpt><trkpt lat="43.7960567" lon="12.6186883"><ele>107.0</ele><time>2026-03-29T08:44:56.958Z</time></trkpt><trkpt lat="43.795975" lon="12.6186817"><ele>107.0</ele><time>2026-03-29T08:44:57.957Z</time></trkpt><trkpt lat="43.7958717" lon="12.6186883"><ele>107.0</ele><time>2026-03-29T08:44:58.958Z</time></trkpt><trkpt lat="43.79576" lon="12.6186983"><ele>107.0</ele><time>2026-03-29T08:44:59.958Z</time></trkpt><trkpt lat="43.795645" lon="12.6187117"><ele>107.0</ele><time>2026-03-29T08:45:00.958Z</time></trkpt><trkpt lat="43.7955233" lon="12.6187217"><ele>107.0</ele><time>2026-03-29T08:45:01.958Z</time></trkpt><trkpt lat="43.7953917" lon="12.61873"><ele>107.0</ele><time>2026-03-29T08:45:02.957Z</time></trkpt><trkpt lat="43.7952533" lon="12.6187317"><ele>107.0</ele><time>2026-03-29T08:45:03.958Z</time></trkpt><trkpt lat="43.795105" lon="12.6187417"><ele>107.0</ele><time>2026-03-29T08:45:04.958Z</time></trkpt><trkpt lat="43.794955" lon="12.6187517"><ele>106.66666666666666</ele><time>2026-03-29T08:45:05.957Z</time></trkpt><trkpt lat="43.7947883" lon="12.6187633"><ele>106.33333333333334</ele><time>2026-03-29T08:45:06.958Z</time></trkpt><trkpt lat="43.7946167" lon="12.6187767"><ele>106.0</ele><time>2026-03-29T08:45:07.958Z</time></trkpt><trkpt lat="43.7944483" lon="12.6187817"><ele>105.66666666666667</ele><time>2026-03-29T08:45:08.958Z</time></trkpt><trkpt lat="43.79428" lon="12.6187833"><ele>105.33333333333334</ele><time>2026-03-29T08:45:09.958Z</time></trkpt><trkpt lat="43.7941133" lon="12.6187983"><ele>105.0</ele><time>2026-03-29T08:45:10.958Z</time></trkpt><trkpt lat="43.79395" lon="12.6188033"><ele>105.0</ele><time>2026-03-29T08:45:11.958Z</time></trkpt><trkpt lat="43.79378" lon="12.6188"><ele>105.0</ele><time>2026-03-29T08:45:12.957Z</time></trkpt><trkpt lat="43.7936283" lon="12.618815"><ele>105.0</ele><time>2026-03-29T08:45:13.958Z</time></trkpt><trkpt lat="43.7934767" lon="12.6188267"><ele>106.5</ele><time>2026-03-29T08:45:14.957Z</time></trkpt><trkpt lat="43.7933333" lon="12.61886"><ele>108.0</ele><time>2026-03-29T08:45:15.958Z</time></trkpt><trkpt lat="43.7931983" lon="12.6189333"><ele>109.5</ele><time>2026-03-29T08:45:16.958Z</time></trkpt><trkpt lat="43.7930617" lon="12.6190417"><ele>111.0</ele><time>2026-03-29T08:45:17.958Z</time></trkpt><trkpt lat="43.792945" lon="12.6191883"><ele>111.0</ele><time>2026-03-29T08:45:18.958Z</time></trkpt><trkpt lat="43.79284" lon="12.6193617"><ele>111.0</ele><time>2026-03-29T08:45:19.958Z</time></trkpt><trkpt lat="43.7927417" lon="12.61954"><ele>111.0</ele><time>2026-03-29T08:45:20.958Z</time></trkpt><trkpt lat="43.7926267" lon="12.619735"><ele>111.0</ele><time>2026-03-29T08:45:21.957Z</time></trkpt><trkpt lat="43.7925133" lon="12.6199233"><ele>111.0</ele><time>2026-03-29T08:45:22.957Z</time></trkpt><trkpt lat="43.7924133" lon="12.6201083"><ele>111.0</ele><time>2026-03-29T08:45:23.958Z</time></trkpt><trkpt lat="43.7923033" lon="12.620295"><ele>110.66666666666666</ele><time>2026-03-29T08:45:24.957Z</time></trkpt><trkpt lat="43.7921783" lon="12.6204833"><ele>110.33333333333333</ele><time>2026-03-29T08:45:25.958Z</time></trkpt><trkpt lat="43.7920633" lon="12.6206717"><ele>110.0</ele><time>2026-03-29T08:45:26.958Z</time></trkpt><trkpt lat="43.79195" lon="12.620855"><ele>109.66666666666666</ele><time>2026-03-29T08:45:27.958Z</time></trkpt><trkpt lat="43.79183" lon="12.6210317"><ele>109.33333333333334</ele><time>2026-03-29T08:45:28.957Z</time></trkpt><trkpt lat="43.7917067" lon="12.6211833"><ele>109.0</ele><time>2026-03-29T08:45:29.958Z</time></trkpt><trkpt lat="43.7915933" lon="12.62131"><ele>109.0</ele><time>2026-03-29T08:45:30.958Z</time></trkpt><trkpt lat="43.7914633" lon="12.62142"><ele>109.0</ele><time>2026-03-29T08:45:31.958Z</time></trkpt><trkpt lat="43.7913183" lon="12.6215117"><ele>109.0</ele><time>2026-03-29T08:45:32.958Z</time></trkpt><trkpt lat="43.7911517" lon="12.62157"><ele>111.0</ele><time>2026-03-29T08:45:33.958Z</time></trkpt><trkpt lat="43.79097" lon="12.6216267"><ele>113.0</ele><time>2026-03-29T08:45:34.957Z</time></trkpt><trkpt lat="43.79078" lon="12.6216867"><ele>115.0</ele><time>2026-03-29T08:45:35.958Z</time></trkpt><trkpt lat="43.7905883" lon="12.62175"><ele>115.0</ele><time>2026-03-29T08:45:36.957Z</time></trkpt><trkpt lat="43.7904033" lon="12.6218233"><ele>115.0</ele><time>2026-03-29T08:45:37.957Z</time></trkpt><trkpt lat="43.7902167" lon="12.6218917"><ele>115.0</ele><time>2026-03-29T08:45:38.958Z</time></trkpt><trkpt lat="43.79003" lon="12.621955"><ele>112.33333333333334</ele><time>2026-03-29T08:45:39.958Z</time></trkpt><trkpt lat="43.7898583" lon="12.6220133"><ele>109.66666666666666</ele><time>2026-03-29T08:45:40.957Z</time></trkpt><trkpt lat="43.7896733" lon="12.6220567"><ele>107.0</ele><time>2026-03-29T08:45:41.958Z</time></trkpt><trkpt lat="43.7894867" lon="12.622095"><ele>107.33333333333333</ele><time>2026-03-29T08:45:42.958Z</time></trkpt><trkpt lat="43.7892983" lon="12.6221067"><ele>107.66666666666666</ele><time>2026-03-29T08:45:43.958Z</time></trkpt><trkpt lat="43.7891183" lon="12.6221083"><ele>108.0</ele><time>2026-03-29T08:45:44.957Z</time></trkpt><trkpt lat="43.7889333" lon="12.6221"><ele>108.0</ele><time>2026-03-29T08:45:45.957Z</time></trkpt><trkpt lat="43.7887483" lon="12.62209"><ele>108.0</ele><time>2026-03-29T08:45:46.958Z</time></trkpt><trkpt lat="43.7885717" lon="12.6220617"><ele>108.0</ele><time>2026-03-29T08:45:47.957Z</time></trkpt><trkpt lat="43.7883933" lon="12.6220517"><ele>107.0</ele><time>2026-03-29T08:45:48.957Z</time></trkpt><trkpt lat="43.7882233" lon="12.6220517"><ele>106.0</ele><time>2026-03-29T08:45:49.957Z</time></trkpt><trkpt lat="43.78806" lon="12.62205"><ele>105.0</ele><time>2026-03-29T08:45:50.958Z</time></trkpt><trkpt lat="43.7878933" lon="12.62207"><ele>105.0</ele><time>2026-03-29T08:45:51.957Z</time></trkpt><trkpt lat="43.7877367" lon="12.6221067"><ele>105.0</ele><time>2026-03-29T08:45:52.957Z</time></trkpt><trkpt lat="43.7875717" lon="12.6221733"><ele>105.0</ele><time>2026-03-29T08:45:53.958Z</time></trkpt><trkpt lat="43.7874133" lon="12.6222467"><ele>105.0</ele><time>2026-03-29T08:45:54.958Z</time></trkpt><trkpt lat="43.7872717" lon="12.6223233"><ele>105.0</ele><time>2026-03-29T08:45:55.957Z</time></trkpt><trkpt lat="43.787145" lon="12.62239"><ele>105.0</ele><time>2026-03-29T08:45:56.957Z</time></trkpt><trkpt lat="43.7870283" lon="12.622455"><ele>105.0</ele><time>2026-03-29T08:45:57.958Z</time></trkpt><trkpt lat="43.78693" lon="12.622525"><ele>105.0</ele><time>2026-03-29T08:45:58.957Z</time></trkpt><trkpt lat="43.7868467" lon="12.6225767"><ele>105.0</ele><time>2026-03-29T08:45:59.958Z</time></trkpt><trkpt lat="43.78678" lon="12.6226133"><ele>105.0</ele><time>2026-03-29T08:46:00.958Z</time></trkpt><trkpt lat="43.7866783" lon="12.6226683"><ele>105.0</ele><time>2026-03-29T08:46:02.958Z</time></trkpt><trkpt lat="43.7866183" lon="12.62257"><ele>105.0</ele><time>2026-03-29T08:46:05.957Z</time></trkpt><trkpt lat="43.7865967" lon="12.62248"><ele>105.0</ele><time>2026-03-29T08:46:06.958Z</time></trkpt><trkpt lat="43.7865617" lon="12.622355"><ele>105.75</ele><time>2026-03-29T08:46:07.957Z</time></trkpt><trkpt lat="43.78651" lon="12.622235"><ele>106.5</ele><time>2026-03-29T08:46:08.957Z</time></trkpt><trkpt lat="43.78644" lon="12.6221133"><ele>107.25</ele><time>2026-03-29T08:46:09.958Z</time></trkpt><trkpt lat="43.786335" lon="12.622"><ele>108.0</ele><time>2026-03-29T08:46:10.957Z</time></trkpt><trkpt lat="43.7862217" lon="12.6218983"><ele>108.0</ele><time>2026-03-29T08:46:11.958Z</time></trkpt><trkpt lat="43.7861083" lon="12.6218117"><ele>108.00000000000001</ele><time>2026-03-29T08:46:12.958Z</time></trkpt><trkpt lat="43.7859933" lon="12.6217467"><ele>108.00000000000001</ele><time>2026-03-29T08:46:13.958Z</time></trkpt><trkpt lat="43.78591" lon="12.621705"><ele>108.0</ele><time>2026-03-29T08:46:14.957Z</time></trkpt><trkpt lat="43.7858417" lon="12.6216583"><ele>108.0</ele><time>2026-03-29T08:46:15.958Z</time></trkpt><trkpt lat="43.7857817" lon="12.621605"><ele>108.0</ele><time>2026-03-29T08:46:16.957Z</time></trkpt><trkpt lat="43.78577" lon="12.6215167"><ele>108.0</ele><time>2026-03-29T08:46:17.958Z</time></trkpt><trkpt lat="43.7857633" lon="12.62136"><ele>108.0</ele><time>2026-03-29T08:46:19.958Z</time></trkpt><trkpt lat="43.7857933" lon="12.6212833"><ele>108.0</ele><time>2026-03-29T08:46:20.957Z</time></trkpt><trkpt lat="43.7858917" lon="12.6212167"><ele>108.0</ele><time>2026-03-29T08:46:22.958Z</time></trkpt><trkpt lat="43.7859683" lon="12.6212267"><ele>108.0</ele><time>2026-03-29T08:46:23.958Z</time></trkpt><trkpt lat="43.7860983" lon="12.6212833"><ele>108.0</ele><time>2026-03-29T08:46:24.958Z</time></trkpt><trkpt lat="43.7862183" lon="12.621325"><ele>108.00000000000001</ele><time>2026-03-29T08:46:25.958Z</time></trkpt><trkpt lat="43.7863283" lon="12.6213567"><ele>108.00000000000001</ele><time>2026-03-29T08:46:26.957Z</time></trkpt><trkpt lat="43.78642" lon="12.6213567"><ele>108.0</ele><time>2026-03-29T08:46:27.957Z</time></trkpt><trkpt lat="43.786495" lon="12.6213267"><ele>108.0</ele><time>2026-03-29T08:46:28.957Z</time></trkpt><trkpt lat="43.78656" lon="12.6212667"><ele>108.0</ele><time>2026-03-29T08:46:29.958Z</time></trkpt><trkpt lat="43.7865917" lon="12.6211817"><ele>108.00000000000001</ele><time>2026-03-29T08:46:30.957Z</time></trkpt><trkpt lat="43.7865983" lon="12.621085"><ele>108.00000000000001</ele><time>2026-03-29T08:46:31.957Z</time></trkpt><trkpt lat="43.78656" lon="12.6209567"><ele>108.0</ele><time>2026-03-29T08:46:32.958Z</time></trkpt><trkpt lat="43.7864983" lon="12.6208267"><ele>108.0</ele><time>2026-03-29T08:46:33.958Z</time></trkpt><trkpt lat="43.7864283" lon="12.6206717"><ele>109.0</ele><time>2026-03-29T08:46:34.958Z</time></trkpt><trkpt lat="43.7863567" lon="12.6205033"><ele>110.0</ele><time>2026-03-29T08:46:35.957Z</time></trkpt><trkpt lat="43.7863083" lon="12.6203367"><ele>111.0</ele><time>2026-03-29T08:46:36.958Z</time></trkpt><trkpt lat="43.7862967" lon="12.620145"><ele>112.0</ele><time>2026-03-29T08:46:37.958Z</time></trkpt><trkpt lat="43.7863017" lon="12.619945"><ele>114.0</ele><time>2026-03-29T08:46:38.958Z</time></trkpt><trkpt lat="43.78633" lon="12.6197333"><ele>116.0</ele><time>2026-03-29T08:46:39.957Z</time></trkpt><trkpt lat="43.7863567" lon="12.61951"><ele>118.0</ele><time>2026-03-29T08:46:40.958Z</time></trkpt><trkpt lat="43.7863933" lon="12.61929"><ele>119.4</ele><time>2026-03-29T08:46:41.958Z</time></trkpt><trkpt lat="43.7864067" lon="12.6191033"><ele>120.80000000000001</ele><time>2026-03-29T08:46:42.958Z</time></trkpt><trkpt lat="43.7864317" lon="12.6189383"><ele>122.2</ele><time>2026-03-29T08:46:43.958Z</time></trkpt><trkpt lat="43.7864433" lon="12.6187883"><ele>123.6</ele><time>2026-03-29T08:46:44.958Z</time></trkpt><trkpt lat="43.7864633" lon="12.6186833"><ele>125.0</ele><time>2026-03-29T08:46:45.957Z</time></trkpt><trkpt lat="43.786475" lon="12.6185933"><ele>126.8</ele><time>2026-03-29T08:46:46.957Z</time></trkpt><trkpt lat="43.7864017" lon="12.61846"><ele>128.6</ele><time>2026-03-29T08:46:48.957Z</time></trkpt><trkpt lat="43.7863017" lon="12.618445"><ele>130.4</ele><time>2026-03-29T08:46:49.958Z</time></trkpt><trkpt lat="43.786215" lon="12.6184317"><ele>132.2</ele><time>2026-03-29T08:46:50.958Z</time></trkpt><trkpt lat="43.7861483" lon="12.6183817"><ele>134.0</ele><time>2026-03-29T08:46:51.958Z</time></trkpt><trkpt lat="43.7860883" lon="12.6183033"><ele>134.0</ele><time>2026-03-29T08:46:52.957Z</time></trkpt><trkpt lat="43.7860383" lon="12.6181917"><ele>134.0</ele><time>2026-03-29T08:46:53.958Z</time></trkpt><trkpt lat="43.7859867" lon="12.618045"><ele>134.0</ele><time>2026-03-29T08:46:54.957Z</time></trkpt><trkpt lat="43.7859367" lon="12.6178867"><ele>134.0</ele><time>2026-03-29T08:46:55.958Z</time></trkpt><trkpt lat="43.7858817" lon="12.6177183"><ele>134.6</ele><time>2026-03-29T08:46:56.957Z</time></trkpt><trkpt lat="43.7858417" lon="12.61757"><ele>135.2</ele><time>2026-03-29T08:46:57.958Z</time></trkpt><trkpt lat="43.7858017" lon="12.61742"><ele>135.79999999999998</ele><time>2026-03-29T08:46:58.958Z</time></trkpt><trkpt lat="43.7857767" lon="12.6172833"><ele>136.4</ele><time>2026-03-29T08:46:59.957Z</time></trkpt><trkpt lat="43.7857683" lon="12.6171817"><ele>137.0</ele><time>2026-03-29T08:47:00.957Z</time></trkpt><trkpt lat="43.7857533" lon="12.6170883"><ele>137.0</ele><time>2026-03-29T08:47:01.958Z</time></trkpt><trkpt lat="43.785685" lon="12.6169717"><ele>137.0</ele><time>2026-03-29T08:47:03.957Z</time></trkpt><trkpt lat="43.7856183" lon="12.6169483"><ele>137.0</ele><time>2026-03-29T08:47:04.958Z</time></trkpt><trkpt lat="43.785535" lon="12.61696"><ele>137.0</ele><time>2026-03-29T08:47:05.958Z</time></trkpt><trkpt lat="43.7854417" lon="12.617"><ele>137.0</ele><time>2026-03-29T08:47:06.958Z</time></trkpt><trkpt lat="43.78534" lon="12.6170683"><ele>137.0</ele><time>2026-03-29T08:47:07.957Z</time></trkpt><trkpt lat="43.7852583" lon="12.6171083"><ele>137.0</ele><time>2026-03-29T08:47:08.957Z</time></trkpt><trkpt lat="43.785145" lon="12.6171817"><ele>137.0</ele><time>2026-03-29T08:47:09.958Z</time></trkpt><trkpt lat="43.7850117" lon="12.61723"><ele>137.0</ele><time>2026-03-29T08:47:10.957Z</time></trkpt><trkpt lat="43.78488" lon="12.61731"><ele>138.0</ele><time>2026-03-29T08:47:11.957Z</time></trkpt><trkpt lat="43.78476" lon="12.6173783"><ele>139.0</ele><time>2026-03-29T08:47:12.958Z</time></trkpt><trkpt lat="43.784645" lon="12.617455"><ele>140.0</ele><time>2026-03-29T08:47:13.958Z</time></trkpt><trkpt lat="43.7845267" lon="12.6175317"><ele>141.0</ele><time>2026-03-29T08:47:14.958Z</time></trkpt><trkpt lat="43.784405" lon="12.6176333"><ele>142.5</ele><time>2026-03-29T08:47:15.958Z</time></trkpt><trkpt lat="43.78429" lon="12.6177417"><ele>144.0</ele><time>2026-03-29T08:47:16.958Z</time></trkpt><trkpt lat="43.7841767" lon="12.6178783"><ele>145.5</ele><time>2026-03-29T08:47:17.957Z</time></trkpt><trkpt lat="43.7840817" lon="12.6180117"><ele>147.0</ele><time>2026-03-29T08:47:18.958Z</time></trkpt><trkpt lat="43.7840083" lon="12.6181367"><ele>147.0</ele><time>2026-03-29T08:47:19.957Z</time></trkpt><trkpt lat="43.78395" lon="12.6182233"><ele>147.0</ele><time>2026-03-29T08:47:20.957Z</time></trkpt><trkpt lat="43.783875" lon="12.6182933"><ele>147.0</ele><time>2026-03-29T08:47:21.957Z</time></trkpt><trkpt lat="43.7837917" lon="12.6183233"><ele>147.0</ele><time>2026-03-29T08:47:22.958Z</time></trkpt><trkpt lat="43.7836967" lon="12.618285"><ele>147.0</ele><time>2026-03-29T08:47:23.957Z</time></trkpt><trkpt lat="43.783605" lon="12.618225"><ele>150.5</ele><time>2026-03-29T08:47:24.958Z</time></trkpt><trkpt lat="43.7835133" lon="12.6181383"><ele>154.0</ele><time>2026-03-29T08:47:25.957Z</time></trkpt><trkpt lat="43.7834167" lon="12.6180467"><ele>157.5</ele><time>2026-03-29T08:47:26.957Z</time></trkpt><trkpt lat="43.7833117" lon="12.6179783"><ele>161.0</ele><time>2026-03-29T08:47:27.958Z</time></trkpt><trkpt lat="43.7832033" lon="12.6179433"><ele>161.0</ele><time>2026-03-29T08:47:28.958Z</time></trkpt><trkpt lat="43.7830983" lon="12.6179283"><ele>161.0</ele><time>2026-03-29T08:47:29.958Z</time></trkpt><trkpt lat="43.7830033" lon="12.6179317"><ele>161.0</ele><time>2026-03-29T08:47:30.957Z</time></trkpt><trkpt lat="43.7829083" lon="12.6179567"><ele>161.0</ele><time>2026-03-29T08:47:31.957Z</time></trkpt><trkpt lat="43.7828067" lon="12.6179867"><ele>161.0</ele><time>2026-03-29T08:47:32.958Z</time></trkpt><trkpt lat="43.7826917" lon="12.6180317"><ele>162.5</ele><time>2026-03-29T08:47:33.958Z</time></trkpt><trkpt lat="43.782575" lon="12.6180833"><ele>164.0</ele><time>2026-03-29T08:47:34.957Z</time></trkpt><trkpt lat="43.7824683" lon="12.6181467"><ele>165.5</ele><time>2026-03-29T08:47:35.958Z</time></trkpt><trkpt lat="43.782365" lon="12.6182067"><ele>167.0</ele><time>2026-03-29T08:47:36.957Z</time></trkpt><trkpt lat="43.78227" lon="12.61826"><ele>167.0</ele><time>2026-03-29T08:47:37.958Z</time></trkpt><trkpt lat="43.7821817" lon="12.61829"><ele>167.0</ele><time>2026-03-29T08:47:38.958Z</time></trkpt><trkpt lat="43.7821033" lon="12.6182633"><ele>167.0</ele><time>2026-03-29T08:47:39.958Z</time></trkpt><trkpt lat="43.7820283" lon="12.618195"><ele>167.0</ele><time>2026-03-29T08:47:40.957Z</time></trkpt><trkpt lat="43.7819617" lon="12.6180883"><ele>167.0</ele><time>2026-03-29T08:47:41.957Z</time></trkpt><trkpt lat="43.7819133" lon="12.6179367"><ele>168.0</ele><time>2026-03-29T08:47:42.958Z</time></trkpt><trkpt lat="43.7818817" lon="12.61776"><ele>169.0</ele><time>2026-03-29T08:47:43.958Z</time></trkpt><trkpt lat="43.78182" lon="12.6176083"><ele>170.0</ele><time>2026-03-29T08:47:44.957Z</time></trkpt><trkpt lat="43.78177" lon="12.6174433"><ele>171.0</ele><time>2026-03-29T08:47:45.958Z</time></trkpt><trkpt lat="43.781715" lon="12.61728"><ele>172.5</ele><time>2026-03-29T08:47:46.958Z</time></trkpt><trkpt lat="43.7816583" lon="12.61713"><ele>174.0</ele><time>2026-03-29T08:47:47.957Z</time></trkpt><trkpt lat="43.7816117" lon="12.61696"><ele>175.5</ele><time>2026-03-29T08:47:48.958Z</time></trkpt><trkpt lat="43.781575" lon="12.6167883"><ele>177.0</ele><time>2026-03-29T08:47:49.958Z</time></trkpt><trkpt lat="43.7815367" lon="12.61662"><ele>180.25</ele><time>2026-03-29T08:47:50.958Z</time></trkpt><trkpt lat="43.7815167" lon="12.6164533"><ele>183.5</ele><time>2026-03-29T08:47:51.957Z</time></trkpt><trkpt lat="43.7815017" lon="12.6162917"><ele>186.75</ele><time>2026-03-29T08:47:52.957Z</time></trkpt><trkpt lat="43.7814917" lon="12.6161167"><ele>190.0</ele><time>2026-03-29T08:47:53.957Z</time></trkpt><trkpt lat="43.7814867" lon="12.6159417"><ele>191.0</ele><time>2026-03-29T08:47:54.958Z</time></trkpt><trkpt lat="43.7814783" lon="12.6157817"><ele>192.0</ele><time>2026-03-29T08:47:55.958Z</time></trkpt><trkpt lat="43.7814517" lon="12.6156367"><ele>193.0</ele><time>2026-03-29T08:47:56.958Z</time></trkpt><trkpt lat="43.7814133" lon="12.6155017"><ele>194.0</ele><time>2026-03-29T08:47:57.958Z</time></trkpt><trkpt lat="43.7813633" lon="12.6153733"><ele>195.0</ele><time>2026-03-29T08:47:58.958Z</time></trkpt><trkpt lat="43.7812967" lon="12.61525"><ele>195.0</ele><time>2026-03-29T08:47:59.957Z</time></trkpt><trkpt lat="43.7812017" lon="12.6151283"><ele>195.0</ele><time>2026-03-29T08:48:00.957Z</time></trkpt><trkpt lat="43.7810983" lon="12.6150317"><ele>195.0</ele><time>2026-03-29T08:48:01.957Z</time></trkpt><trkpt lat="43.7809883" lon="12.614945"><ele>195.0</ele><time>2026-03-29T08:48:02.958Z</time></trkpt><trkpt lat="43.7808533" lon="12.61488"><ele>198.75</ele><time>2026-03-29T08:48:03.958Z</time></trkpt><trkpt lat="43.7807167" lon="12.6148183"><ele>202.5</ele><time>2026-03-29T08:48:04.958Z</time></trkpt><trkpt lat="43.7805783" lon="12.6147467"><ele>206.25</ele><time>2026-03-29T08:48:05.958Z</time></trkpt><trkpt lat="43.78044" lon="12.6146683"><ele>210.0</ele><time>2026-03-29T08:48:06.958Z</time></trkpt><trkpt lat="43.780295" lon="12.6145833"><ele>214.0</ele><time>2026-03-29T08:48:07.958Z</time></trkpt><trkpt lat="43.7801533" lon="12.6144833"><ele>218.0</ele><time>2026-03-29T08:48:08.958Z</time></trkpt><trkpt lat="43.7800183" lon="12.6143883"><ele>222.0</ele><time>2026-03-29T08:48:09.958Z</time></trkpt><trkpt lat="43.77988" lon="12.6143017"><ele>222.0</ele><time>2026-03-29T08:48:10.957Z</time></trkpt><trkpt lat="43.77976" lon="12.6142183"><ele>222.0</ele><time>2026-03-29T08:48:11.957Z</time></trkpt><trkpt lat="43.7796467" lon="12.61411"><ele>222.0</ele><time>2026-03-29T08:48:12.958Z</time></trkpt><trkpt lat="43.7795417" lon="12.6139717"><ele>222.0</ele><time>2026-03-29T08:48:13.958Z</time></trkpt><trkpt lat="43.7794533" lon="12.6138167"><ele>221.0</ele><time>2026-03-29T08:48:14.957Z</time></trkpt><trkpt lat="43.7793717" lon="12.6136433"><ele>220.0</ele><time>2026-03-29T08:48:15.958Z</time></trkpt><trkpt lat="43.7792933" lon="12.613475"><ele>219.0</ele><time>2026-03-29T08:48:16.957Z</time></trkpt><trkpt lat="43.7792267" lon="12.613315"><ele>218.0</ele><time>2026-03-29T08:48:17.957Z</time></trkpt><trkpt lat="43.7791733" lon="12.6131433"><ele>220.5</ele><time>2026-03-29T08:48:18.958Z</time></trkpt><trkpt lat="43.7791567" lon="12.6129617"><ele>223.0</ele><time>2026-03-29T08:48:19.957Z</time></trkpt><trkpt lat="43.7791433" lon="12.6127767"><ele>225.5</ele><time>2026-03-29T08:48:20.958Z</time></trkpt><trkpt lat="43.779125" lon="12.61262"><ele>228.0</ele><time>2026-03-29T08:48:21.958Z</time></trkpt><trkpt lat="43.7790883" lon="12.6124883"><ele>229.75</ele><time>2026-03-29T08:48:22.957Z</time></trkpt><trkpt lat="43.7790283" lon="12.6123683"><ele>231.5</ele><time>2026-03-29T08:48:23.958Z</time></trkpt><trkpt lat="43.7789817" lon="12.612225"><ele>233.25</ele><time>2026-03-29T08:48:24.958Z</time></trkpt><trkpt lat="43.778915" lon="12.6120833"><ele>235.0</ele><time>2026-03-29T08:48:25.958Z</time></trkpt><trkpt lat="43.778855" lon="12.6119283"><ele>235.5</ele><time>2026-03-29T08:48:26.958Z</time></trkpt><trkpt lat="43.77879" lon="12.6117633"><ele>236.0</ele><time>2026-03-29T08:48:27.958Z</time></trkpt><trkpt lat="43.7787233" lon="12.6116167"><ele>236.5</ele><time>2026-03-29T08:48:28.958Z</time></trkpt><trkpt lat="43.7786283" lon="12.61149"><ele>237.0</ele><time>2026-03-29T08:48:29.958Z</time></trkpt><trkpt lat="43.7785217" lon="12.6113933"><ele>239.5</ele><time>2026-03-29T08:48:30.957Z</time></trkpt><trkpt lat="43.778395" lon="12.61132"><ele>242.0</ele><time>2026-03-29T08:48:31.958Z</time></trkpt><trkpt lat="43.77827" lon="12.6112417"><ele>244.5</ele><time>2026-03-29T08:48:32.958Z</time></trkpt><trkpt lat="43.7781483" lon="12.611155"><ele>247.0</ele><time>2026-03-29T08:48:33.958Z</time></trkpt><trkpt lat="43.778035" lon="12.6110567"><ele>248.5</ele><time>2026-03-29T08:48:34.957Z</time></trkpt><trkpt lat="43.7779233" lon="12.610945"><ele>250.0</ele><time>2026-03-29T08:48:35.958Z</time></trkpt><trkpt lat="43.7778233" lon="12.6108283"><ele>251.5</ele><time>2026-03-29T08:48:36.957Z</time></trkpt><trkpt lat="43.777725" lon="12.610695"><ele>253.0</ele><time>2026-03-29T08:48:37.958Z</time></trkpt><trkpt lat="43.7776367" lon="12.6105517"><ele>254.0</ele><time>2026-03-29T08:48:38.958Z</time></trkpt><trkpt lat="43.7775617" lon="12.6104017"><ele>255.0</ele><time>2026-03-29T08:48:39.957Z</time></trkpt><trkpt lat="43.7774967" lon="12.61025"><ele>256.0</ele><time>2026-03-29T08:48:40.958Z</time></trkpt><trkpt lat="43.7774383" lon="12.6100833"><ele>257.0</ele><time>2026-03-29T08:48:41.958Z</time></trkpt><trkpt lat="43.777385" lon="12.6099267"><ele>261.5</ele><time>2026-03-29T08:48:42.957Z</time></trkpt><trkpt lat="43.7773033" lon="12.6097883"><ele>266.0</ele><time>2026-03-29T08:48:43.958Z</time></trkpt><trkpt lat="43.7772033" lon="12.6096683"><ele>270.5</ele><time>2026-03-29T08:48:44.958Z</time></trkpt><trkpt lat="43.777075" lon="12.6095533"><ele>275.0</ele><time>2026-03-29T08:48:45.957Z</time></trkpt><trkpt lat="43.7769583" lon="12.6094333"><ele>278.6666666666667</ele><time>2026-03-29T08:48:46.957Z</time></trkpt><trkpt lat="43.7768417" lon="12.6092917"><ele>282.3333333333333</ele><time>2026-03-29T08:48:47.958Z</time></trkpt><trkpt lat="43.776735" lon="12.6091417"><ele>286.0</ele><time>2026-03-29T08:48:48.958Z</time></trkpt><trkpt lat="43.77663" lon="12.6089833"><ele>286.0</ele><time>2026-03-29T08:48:49.958Z</time></trkpt><trkpt lat="43.7765333" lon="12.608845"><ele>286.0</ele><time>2026-03-29T08:48:50.957Z</time></trkpt><trkpt lat="43.77645" lon="12.6087333"><ele>286.0</ele><time>2026-03-29T08:48:51.958Z</time></trkpt><trkpt lat="43.7763867" lon="12.60863"><ele>286.0</ele><time>2026-03-29T08:48:52.957Z</time></trkpt><trkpt lat="43.776345" lon="12.6085317"><ele>286.0</ele><time>2026-03-29T08:48:53.958Z</time></trkpt><trkpt lat="43.77635" lon="12.60837"><ele>287.66666666666663</ele><time>2026-03-29T08:48:55.957Z</time></trkpt><trkpt lat="43.7763917" lon="12.6082767"><ele>289.3333333333333</ele><time>2026-03-29T08:48:56.957Z</time></trkpt><trkpt lat="43.77645" lon="12.60818"><ele>291.0</ele><time>2026-03-29T08:48:57.958Z</time></trkpt><trkpt lat="43.7764933" lon="12.6080883"><ele>292.6666666666667</ele><time>2026-03-29T08:48:58.958Z</time></trkpt><trkpt lat="43.776525" lon="12.608"><ele>294.33333333333337</ele><time>2026-03-29T08:48:59.957Z</time></trkpt><trkpt lat="43.7765283" lon="12.60791"><ele>296.0</ele><time>2026-03-29T08:49:00.958Z</time></trkpt><trkpt lat="43.7765" lon="12.6078267"><ele>296.0</ele><time>2026-03-29T08:49:01.957Z</time></trkpt><trkpt lat="43.7764333" lon="12.6077433"><ele>296.0</ele><time>2026-03-29T08:49:02.957Z</time></trkpt><trkpt lat="43.776325" lon="12.6076567"><ele>296.0</ele><time>2026-03-29T08:49:03.957Z</time></trkpt><trkpt lat="43.77619" lon="12.6075683"><ele>296.0</ele><time>2026-03-29T08:49:04.958Z</time></trkpt><trkpt lat="43.7760633" lon="12.6074733"><ele>298.0</ele><time>2026-03-29T08:49:05.958Z</time></trkpt><trkpt lat="43.77595" lon="12.6073983"><ele>300.0</ele><time>2026-03-29T08:49:06.958Z</time></trkpt><trkpt lat="43.775835" lon="12.6073483"><ele>302.0</ele><time>2026-03-29T08:49:07.957Z</time></trkpt><trkpt lat="43.7757167" lon="12.6073317"><ele>304.0</ele><time>2026-03-29T08:49:08.958Z</time></trkpt><trkpt lat="43.77559" lon="12.6073233"><ele>304.0</ele><time>2026-03-29T08:49:09.958Z</time></trkpt><trkpt lat="43.7754567" lon="12.6073317"><ele>304.0</ele><time>2026-03-29T08:49:10.957Z</time></trkpt><trkpt lat="43.775325" lon="12.6073283"><ele>304.0</ele><time>2026-03-29T08:49:11.957Z</time></trkpt><trkpt lat="43.775215" lon="12.607325"><ele>304.0</ele><time>2026-03-29T08:49:12.958Z</time></trkpt><trkpt lat="43.7751083" lon="12.6072933"><ele>304.59999999999997</ele><time>2026-03-29T08:49:13.958Z</time></trkpt><trkpt lat="43.775" lon="12.60725"><ele>305.2</ele><time>2026-03-29T08:49:14.958Z</time></trkpt><trkpt lat="43.7748933" lon="12.607195"><ele>305.79999999999995</ele><time>2026-03-29T08:49:15.958Z</time></trkpt><trkpt lat="43.7748017" lon="12.60713"><ele>306.4</ele><time>2026-03-29T08:49:16.958Z</time></trkpt><trkpt lat="43.774725" lon="12.6070733"><ele>307.0</ele><time>2026-03-29T08:49:17.957Z</time></trkpt><trkpt lat="43.774665" lon="12.6070117"><ele>306.6</ele><time>2026-03-29T08:49:18.958Z</time></trkpt><trkpt lat="43.774625" lon="12.6069367"><ele>306.2</ele><time>2026-03-29T08:49:19.958Z</time></trkpt><trkpt lat="43.7745917" lon="12.6068267"><ele>305.8</ele><time>2026-03-29T08:49:20.958Z</time></trkpt><trkpt lat="43.7745567" lon="12.6067117"><ele>305.4</ele><time>2026-03-29T08:49:21.957Z</time></trkpt><trkpt lat="43.7744933" lon="12.6065883"><ele>305.0</ele><time>2026-03-29T08:49:22.958Z</time></trkpt><trkpt lat="43.77442" lon="12.606475"><ele>307.25</ele><time>2026-03-29T08:49:23.957Z</time></trkpt><trkpt lat="43.7743383" lon="12.6063667"><ele>309.5</ele><time>2026-03-29T08:49:24.958Z</time></trkpt><trkpt lat="43.7742433" lon="12.60627"><ele>311.75</ele><time>2026-03-29T08:49:25.957Z</time></trkpt><trkpt lat="43.7741483" lon="12.6061917"><ele>314.0</ele><time>2026-03-29T08:49:26.958Z</time></trkpt><trkpt lat="43.7740467" lon="12.6061167"><ele>314.0</ele><time>2026-03-29T08:49:27.957Z</time></trkpt><trkpt lat="43.7739417" lon="12.6060333"><ele>314.0</ele><time>2026-03-29T08:49:28.958Z</time></trkpt><trkpt lat="43.7738483" lon="12.6059433"><ele>314.0</ele><time>2026-03-29T08:49:29.957Z</time></trkpt><trkpt lat="43.7737717" lon="12.6058367"><ele>314.0</ele><time>2026-03-29T08:49:30.958Z</time></trkpt><trkpt lat="43.7737" lon="12.6057083"><ele>314.0</ele><time>2026-03-29T08:49:31.958Z</time></trkpt><trkpt lat="43.7736317" lon="12.6055733"><ele>314.0</ele><time>2026-03-29T08:49:32.957Z</time></trkpt><trkpt lat="43.77356" lon="12.6054433"><ele>314.0</ele><time>2026-03-29T08:49:33.957Z</time></trkpt><trkpt lat="43.773475" lon="12.6053017"><ele>314.0</ele><time>2026-03-29T08:49:34.958Z</time></trkpt><trkpt lat="43.7733717" lon="12.605135"><ele>318.25</ele><time>2026-03-29T08:49:35.958Z</time></trkpt><trkpt lat="43.773265" lon="12.6049767"><ele>322.5</ele><time>2026-03-29T08:49:36.957Z</time></trkpt><trkpt lat="43.773175" lon="12.60483"><ele>326.75</ele><time>2026-03-29T08:49:37.958Z</time></trkpt><trkpt lat="43.773105" lon="12.6046933"><ele>331.0</ele><time>2026-03-29T08:49:38.958Z</time></trkpt><trkpt lat="43.7730467" lon="12.604575"><ele>331.0</ele><time>2026-03-29T08:49:39.958Z</time></trkpt><trkpt lat="43.772995" lon="12.6044783"><ele>331.0</ele><time>2026-03-29T08:49:40.958Z</time></trkpt><trkpt lat="43.77295" lon="12.6044117"><ele>331.0</ele><time>2026-03-29T08:49:41.958Z</time></trkpt><trkpt lat="43.7728517" lon="12.6043517"><ele>331.0</ele><time>2026-03-29T08:49:43.958Z</time></trkpt><trkpt lat="43.7727517" lon="12.604425"><ele>331.0</ele><time>2026-03-29T08:49:45.958Z</time></trkpt><trkpt lat="43.77271" lon="12.6045433"><ele>335.20000000000005</ele><time>2026-03-29T08:49:46.957Z</time></trkpt><trkpt lat="43.7726767" lon="12.6047067"><ele>339.40000000000003</ele><time>2026-03-29T08:49:47.958Z</time></trkpt><trkpt lat="43.77264" lon="12.6048633"><ele>343.6</ele><time>2026-03-29T08:49:48.958Z</time></trkpt><trkpt lat="43.7726017" lon="12.60498"><ele>347.8</ele><time>2026-03-29T08:49:49.957Z</time></trkpt><trkpt lat="43.7725567" lon="12.6050717"><ele>352.0</ele><time>2026-03-29T08:49:50.957Z</time></trkpt><trkpt lat="43.772495" lon="12.6051283"><ele>352.0</ele><time>2026-03-29T08:49:51.958Z</time></trkpt><trkpt lat="43.7724183" lon="12.6051667"><ele>352.0</ele><time>2026-03-29T08:49:52.958Z</time></trkpt><trkpt lat="43.7723367" lon="12.6051733"><ele>352.0</ele><time>2026-03-29T08:49:53.958Z</time></trkpt><trkpt lat="43.7722567" lon="12.60516"><ele>352.0</ele><time>2026-03-29T08:49:54.957Z</time></trkpt><trkpt lat="43.772175" lon="12.605135"><ele>352.0</ele><time>2026-03-29T08:49:55.957Z</time></trkpt><trkpt lat="43.7720883" lon="12.6051233"><ele>352.0</ele><time>2026-03-29T08:49:56.958Z</time></trkpt><trkpt lat="43.771995" lon="12.6051417"><ele>352.0</ele><time>2026-03-29T08:49:57.958Z</time></trkpt><trkpt lat="43.7719017" lon="12.605185"><ele>352.0</ele><time>2026-03-29T08:49:58.957Z</time></trkpt><trkpt lat="43.7718033" lon="12.6052417"><ele>352.0</ele><time>2026-03-29T08:49:59.958Z</time></trkpt><trkpt lat="43.7717083" lon="12.605305"><ele>352.0</ele><time>2026-03-29T08:50:00.957Z</time></trkpt><trkpt lat="43.7716033" lon="12.6053683"><ele>352.0</ele><time>2026-03-29T08:50:01.958Z</time></trkpt><trkpt lat="43.771485" lon="12.60542"><ele>357.20000000000005</ele><time>2026-03-29T08:50:02.958Z</time></trkpt><trkpt lat="43.77138" lon="12.6054683"><ele>362.4</ele><time>2026-03-29T08:50:03.957Z</time></trkpt><trkpt lat="43.7712767" lon="12.6055217"><ele>367.6</ele><time>2026-03-29T08:50:04.958Z</time></trkpt><trkpt lat="43.771185" lon="12.6055867"><ele>372.79999999999995</ele><time>2026-03-29T08:50:05.958Z</time></trkpt><trkpt lat="43.7710933" lon="12.60567"><ele>378.0</ele><time>2026-03-29T08:50:06.958Z</time></trkpt><trkpt lat="43.7710117" lon="12.6057667"><ele>378.25</ele><time>2026-03-29T08:50:07.958Z</time></trkpt><trkpt lat="43.7709233" lon="12.6058667"><ele>378.5</ele><time>2026-03-29T08:50:08.958Z</time></trkpt><trkpt lat="43.77083" lon="12.6059533"><ele>378.75</ele><time>2026-03-29T08:50:09.958Z</time></trkpt><trkpt lat="43.7707283" lon="12.6060183"><ele>379.0</ele><time>2026-03-29T08:50:10.958Z</time></trkpt><trkpt lat="43.77062" lon="12.606055"><ele>379.0</ele><time>2026-03-29T08:50:11.957Z</time></trkpt><trkpt lat="43.77052" lon="12.6060767"><ele>379.0</ele><time>2026-03-29T08:50:12.958Z</time></trkpt><trkpt lat="43.7704017" lon="12.6061167"><ele>379.0</ele><time>2026-03-29T08:50:13.958Z</time></trkpt><trkpt lat="43.7702867" lon="12.6061633"><ele>379.0</ele><time>2026-03-29T08:50:14.958Z</time></trkpt><trkpt lat="43.7701917" lon="12.6061783"><ele>379.0</ele><time>2026-03-29T08:50:15.958Z</time></trkpt><trkpt lat="43.770105" lon="12.60618"><ele>380.6</ele><time>2026-03-29T08:50:16.958Z</time></trkpt><trkpt lat="43.7700067" lon="12.606145"><ele>382.2</ele><time>2026-03-29T08:50:17.957Z</time></trkpt><trkpt lat="43.7698933" lon="12.606105"><ele>383.8</ele><time>2026-03-29T08:50:18.957Z</time></trkpt><trkpt lat="43.7697867" lon="12.6060483"><ele>385.40000000000003</ele><time>2026-03-29T08:50:19.957Z</time></trkpt><trkpt lat="43.7696817" lon="12.6059833"><ele>387.0</ele><time>2026-03-29T08:50:20.957Z</time></trkpt><trkpt lat="43.76957" lon="12.6059267"><ele>387.0</ele><time>2026-03-29T08:50:21.958Z</time></trkpt><trkpt lat="43.76941" lon="12.6058867"><ele>387.0</ele><time>2026-03-29T08:50:22.957Z</time></trkpt><trkpt lat="43.76926" lon="12.605845"><ele>387.0</ele><time>2026-03-29T08:50:23.957Z</time></trkpt><trkpt lat="43.76913" lon="12.6057967"><ele>391.5</ele><time>2026-03-29T08:50:24.958Z</time></trkpt><trkpt lat="43.769015" lon="12.6057417"><ele>396.0</ele><time>2026-03-29T08:50:25.958Z</time></trkpt><trkpt lat="43.7689067" lon="12.60567"><ele>400.5</ele><time>2026-03-29T08:50:26.958Z</time></trkpt><trkpt lat="43.768815" lon="12.6055683"><ele>405.0</ele><time>2026-03-29T08:50:27.958Z</time></trkpt><trkpt lat="43.7687333" lon="12.6054733"><ele>405.0</ele><time>2026-03-29T08:50:28.957Z</time></trkpt><trkpt lat="43.768655" lon="12.6053567"><ele>405.0</ele><time>2026-03-29T08:50:29.957Z</time></trkpt><trkpt lat="43.7685967" lon="12.6052217"><ele>405.0</ele><time>2026-03-29T08:50:30.958Z</time></trkpt><trkpt lat="43.7685483" lon="12.6050983"><ele>405.0</ele><time>2026-03-29T08:50:31.958Z</time></trkpt><trkpt lat="43.76853" lon="12.60491"><ele>406.6666666666667</ele><time>2026-03-29T08:50:32.957Z</time></trkpt><trkpt lat="43.7685083" lon="12.6047667"><ele>408.33333333333337</ele><time>2026-03-29T08:50:33.958Z</time></trkpt><trkpt lat="43.7684967" lon="12.60464"><ele>410.0</ele><time>2026-03-29T08:50:34.958Z</time></trkpt><trkpt lat="43.76848" lon="12.6045467"><ele>411.6666666666667</ele><time>2026-03-29T08:50:35.957Z</time></trkpt><trkpt lat="43.768445" lon="12.6044733"><ele>413.33333333333337</ele><time>2026-03-29T08:50:37.958Z</time></trkpt><trkpt lat="43.76838" lon="12.6045083"><ele>415.0</ele><time>2026-03-29T08:50:40.958Z</time></trkpt><trkpt lat="43.7683383" lon="12.6045867"><ele>416.75</ele><time>2026-03-29T08:50:42.958Z</time></trkpt><trkpt lat="43.7683233" lon="12.60476"><ele>418.5</ele><time>2026-03-29T08:50:44.958Z</time></trkpt><trkpt lat="43.7683217" lon="12.6049033"><ele>420.25</ele><time>2026-03-29T08:50:45.958Z</time></trkpt><trkpt lat="43.7683367" lon="12.6050733"><ele>422.0</ele><time>2026-03-29T08:50:46.957Z</time></trkpt><trkpt lat="43.76836" lon="12.6052583"><ele>423.25</ele><time>2026-03-29T08:50:47.957Z</time></trkpt><trkpt lat="43.7683917" lon="12.60545"><ele>424.5</ele><time>2026-03-29T08:50:48.958Z</time></trkpt><trkpt lat="43.7684183" lon="12.6056283"><ele>425.75</ele><time>2026-03-29T08:50:49.957Z</time></trkpt><trkpt lat="43.7684517" lon="12.605785"><ele>427.0</ele><time>2026-03-29T08:50:50.957Z</time></trkpt><trkpt lat="43.768475" lon="12.6059283"><ele>427.0</ele><time>2026-03-29T08:50:51.957Z</time></trkpt><trkpt lat="43.7684717" lon="12.606055"><ele>427.00000000000006</ele><time>2026-03-29T08:50:52.958Z</time></trkpt><trkpt lat="43.7684517" lon="12.606185"><ele>427.00000000000006</ele><time>2026-03-29T08:50:53.958Z</time></trkpt><trkpt lat="43.7684" lon="12.6062917"><ele>427.0</ele><time>2026-03-29T08:50:54.958Z</time></trkpt><trkpt lat="43.7683217" lon="12.6063617"><ele>427.0</ele><time>2026-03-29T08:50:55.958Z</time></trkpt><trkpt lat="43.76823" lon="12.60639"><ele>425.25</ele><time>2026-03-29T08:50:56.958Z</time></trkpt><trkpt lat="43.7681067" lon="12.6063983"><ele>423.5</ele><time>2026-03-29T08:50:57.958Z</time></trkpt><trkpt lat="43.7679667" lon="12.606405"><ele>421.75</ele><time>2026-03-29T08:50:58.957Z</time></trkpt><trkpt lat="43.7678133" lon="12.606415"><ele>420.0</ele><time>2026-03-29T08:50:59.958Z</time></trkpt><trkpt lat="43.76766" lon="12.606425"><ele>418.75</ele><time>2026-03-29T08:51:00.958Z</time></trkpt><trkpt lat="43.7675067" lon="12.6064367"><ele>417.5</ele><time>2026-03-29T08:51:01.958Z</time></trkpt><trkpt lat="43.7673533" lon="12.6064367"><ele>416.25</ele><time>2026-03-29T08:51:02.957Z</time></trkpt><trkpt lat="43.7672133" lon="12.6064383"><ele>415.0</ele><time>2026-03-29T08:51:03.957Z</time></trkpt><trkpt lat="43.767075" lon="12.6064533"><ele>415.0</ele><time>2026-03-29T08:51:04.958Z</time></trkpt><trkpt lat="43.7669417" lon="12.6064617"><ele>415.0</ele><time>2026-03-29T08:51:05.957Z</time></trkpt><trkpt lat="43.7668183" lon="12.6064683"><ele>415.0</ele><time>2026-03-29T08:51:06.958Z</time></trkpt><trkpt lat="43.7666967" lon="12.6064817"><ele>415.0</ele><time>2026-03-29T08:51:07.958Z</time></trkpt><trkpt lat="43.7665683" lon="12.6065217"><ele>413.5</ele><time>2026-03-29T08:51:08.958Z</time></trkpt><trkpt lat="43.7664417" lon="12.6065767"><ele>412.0</ele><time>2026-03-29T08:51:09.958Z</time></trkpt><trkpt lat="43.7663383" lon="12.6066567"><ele>410.5</ele><time>2026-03-29T08:51:10.957Z</time></trkpt><trkpt lat="43.7662467" lon="12.60675"><ele>409.0</ele><time>2026-03-29T08:51:11.958Z</time></trkpt><trkpt lat="43.7661617" lon="12.6068483"><ele>409.0</ele><time>2026-03-29T08:51:12.957Z</time></trkpt><trkpt lat="43.7660733" lon="12.6069433"><ele>409.0</ele><time>2026-03-29T08:51:13.958Z</time></trkpt><trkpt lat="43.7659883" lon="12.6070333"><ele>409.0</ele><time>2026-03-29T08:51:14.958Z</time></trkpt><trkpt lat="43.7659033" lon="12.607115"><ele>409.0</ele><time>2026-03-29T08:51:15.958Z</time></trkpt><trkpt lat="43.765815" lon="12.6071983"><ele>409.0</ele><time>2026-03-29T08:51:16.958Z</time></trkpt><trkpt lat="43.76572" lon="12.6072767"><ele>407.6</ele><time>2026-03-29T08:51:17.958Z</time></trkpt><trkpt lat="43.765625" lon="12.6073733"><ele>406.2</ele><time>2026-03-29T08:51:18.957Z</time></trkpt><trkpt lat="43.76552" lon="12.607455"><ele>404.8</ele><time>2026-03-29T08:51:19.958Z</time></trkpt><trkpt lat="43.7654317" lon="12.6075367"><ele>403.40000000000003</ele><time>2026-03-29T08:51:20.957Z</time></trkpt><trkpt lat="43.7653517" lon="12.60761"><ele>402.0</ele><time>2026-03-29T08:51:21.957Z</time></trkpt><trkpt lat="43.7652483" lon="12.6076333"><ele>402.5</ele><time>2026-03-29T08:51:22.958Z</time></trkpt><trkpt lat="43.7651267" lon="12.6075833"><ele>403.0</ele><time>2026-03-29T08:51:23.958Z</time></trkpt><trkpt lat="43.7650283" lon="12.607525"><ele>403.5</ele><time>2026-03-29T08:51:24.957Z</time></trkpt><trkpt lat="43.76492" lon="12.6074283"><ele>404.0</ele><time>2026-03-29T08:51:25.958Z</time></trkpt><trkpt lat="43.7648" lon="12.60733"><ele>404.0</ele><time>2026-03-29T08:51:26.957Z</time></trkpt><trkpt lat="43.7646967" lon="12.6072317"><ele>404.0</ele><time>2026-03-29T08:51:27.958Z</time></trkpt><trkpt lat="43.7646017" lon="12.607135"><ele>404.0</ele><time>2026-03-29T08:51:28.958Z</time></trkpt><trkpt lat="43.7645083" lon="12.6070517"><ele>404.0</ele><time>2026-03-29T08:51:29.958Z</time></trkpt><trkpt lat="43.7644083" lon="12.6069583"><ele>401.75</ele><time>2026-03-29T08:51:30.957Z</time></trkpt><trkpt lat="43.7642783" lon="12.6068617"><ele>399.5</ele><time>2026-03-29T08:51:31.957Z</time></trkpt><trkpt lat="43.7641333" lon="12.60678"><ele>397.25</ele><time>2026-03-29T08:51:32.957Z</time></trkpt><trkpt lat="43.7639983" lon="12.6067183"><ele>395.0</ele><time>2026-03-29T08:51:33.957Z</time></trkpt><trkpt lat="43.7638683" lon="12.606685"><ele>395.0</ele><time>2026-03-29T08:51:34.958Z</time></trkpt><trkpt lat="43.763725" lon="12.6066833"><ele>395.0</ele><time>2026-03-29T08:51:35.958Z</time></trkpt><trkpt lat="43.76359" lon="12.6067033"><ele>395.0</ele><time>2026-03-29T08:51:36.957Z</time></trkpt><trkpt lat="43.76345" lon="12.6067333"><ele>395.0</ele><time>2026-03-29T08:51:37.958Z</time></trkpt><trkpt lat="43.7632883" lon="12.6067917"><ele>395.0</ele><time>2026-03-29T08:51:38.958Z</time></trkpt><trkpt lat="43.7631367" lon="12.6068917"><ele>395.0</ele><time>2026-03-29T08:51:39.958Z</time></trkpt><trkpt lat="43.762975" lon="12.607015"><ele>395.0</ele><time>2026-03-29T08:51:40.957Z</time></trkpt><trkpt lat="43.7628117" lon="12.6071367"><ele>394.3333333333333</ele><time>2026-03-29T08:51:41.958Z</time></trkpt><trkpt lat="43.7626517" lon="12.607255"><ele>393.66666666666663</ele><time>2026-03-29T08:51:42.958Z</time></trkpt><trkpt lat="43.7624867" lon="12.6073717"><ele>393.0</ele><time>2026-03-29T08:51:43.957Z</time></trkpt><trkpt lat="43.7623033" lon="12.6074983"><ele>393.0</ele><time>2026-03-29T08:51:44.958Z</time></trkpt><trkpt lat="43.7621267" lon="12.6076317"><ele>393.0</ele><time>2026-03-29T08:51:45.958Z</time></trkpt><trkpt lat="43.7619567" lon="12.6077667"><ele>393.0</ele><time>2026-03-29T08:51:46.958Z</time></trkpt><trkpt lat="43.761785" lon="12.6078983"><ele>388.3333333333333</ele><time>2026-03-29T08:51:47.957Z</time></trkpt><trkpt lat="43.7616133" lon="12.608"><ele>383.66666666666663</ele><time>2026-03-29T08:51:48.957Z</time></trkpt><trkpt lat="43.761445" lon="12.608125"><ele>379.0</ele><time>2026-03-29T08:51:49.957Z</time></trkpt><trkpt lat="43.7612883" lon="12.6082467"><ele>379.0</ele><time>2026-03-29T08:51:50.957Z</time></trkpt><trkpt lat="43.7611433" lon="12.6083683"><ele>379.0</ele><time>2026-03-29T08:51:51.957Z</time></trkpt><trkpt lat="43.761" lon="12.6084733"><ele>379.0</ele><time>2026-03-29T08:51:52.957Z</time></trkpt><trkpt lat="43.7608717" lon="12.60857"><ele>380.75</ele><time>2026-03-29T08:51:53.957Z</time></trkpt><trkpt lat="43.760755" lon="12.6086583"><ele>382.5</ele><time>2026-03-29T08:51:54.958Z</time></trkpt><trkpt lat="43.7606467" lon="12.60873"><ele>384.25</ele><time>2026-03-29T08:51:55.958Z</time></trkpt><trkpt lat="43.76053" lon="12.60876"><ele>386.0</ele><time>2026-03-29T08:51:56.957Z</time></trkpt><trkpt lat="43.76042" lon="12.608695"><ele>386.0</ele><time>2026-03-29T08:51:57.958Z</time></trkpt><trkpt lat="43.76031" lon="12.6085883"><ele>386.0</ele><time>2026-03-29T08:51:58.958Z</time></trkpt><trkpt lat="43.7601983" lon="12.6084417"><ele>386.0</ele><time>2026-03-29T08:51:59.958Z</time></trkpt><trkpt lat="43.7601017" lon="12.608275"><ele>386.0</ele><time>2026-03-29T08:52:00.958Z</time></trkpt><trkpt lat="43.7599917" lon="12.6081217"><ele>382.0</ele><time>2026-03-29T08:52:01.958Z</time></trkpt><trkpt lat="43.7598533" lon="12.608"><ele>378.0</ele><time>2026-03-29T08:52:02.958Z</time></trkpt><trkpt lat="43.7596883" lon="12.60794"><ele>374.0</ele><time>2026-03-29T08:52:03.957Z</time></trkpt><trkpt lat="43.7595267" lon="12.607895"><ele>374.0</ele><time>2026-03-29T08:52:04.958Z</time></trkpt><trkpt lat="43.7593833" lon="12.6078817"><ele>374.0</ele><time>2026-03-29T08:52:05.958Z</time></trkpt><trkpt lat="43.75924" lon="12.607915"><ele>374.0</ele><time>2026-03-29T08:52:06.958Z</time></trkpt><trkpt lat="43.7591067" lon="12.6079867"><ele>374.0</ele><time>2026-03-29T08:52:07.957Z</time></trkpt><trkpt lat="43.7589683" lon="12.6081017"><ele>370.33333333333337</ele><time>2026-03-29T08:52:08.957Z</time></trkpt><trkpt lat="43.7588433" lon="12.6082233"><ele>366.6666666666667</ele><time>2026-03-29T08:52:09.958Z</time></trkpt><trkpt lat="43.7587167" lon="12.6083883"><ele>363.0</ele><time>2026-03-29T08:52:10.957Z</time></trkpt><trkpt lat="43.7585867" lon="12.608575"><ele>359.6666666666667</ele><time>2026-03-29T08:52:11.958Z</time></trkpt><trkpt lat="43.7584633" lon="12.6087683"><ele>356.33333333333337</ele><time>2026-03-29T08:52:12.958Z</time></trkpt><trkpt lat="43.7583467" lon="12.6089567"><ele>353.0</ele><time>2026-03-29T08:52:13.958Z</time></trkpt><trkpt lat="43.7582417" lon="12.6091333"><ele>353.0</ele><time>2026-03-29T08:52:14.958Z</time></trkpt><trkpt lat="43.7581367" lon="12.6093017"><ele>353.0</ele><time>2026-03-29T08:52:15.958Z</time></trkpt><trkpt lat="43.758025" lon="12.609485"><ele>353.0</ele><time>2026-03-29T08:52:16.958Z</time></trkpt><trkpt lat="43.7579117" lon="12.609675"><ele>351.33333333333337</ele><time>2026-03-29T08:52:17.957Z</time></trkpt><trkpt lat="43.7577983" lon="12.6098467"><ele>349.6666666666667</ele><time>2026-03-29T08:52:18.958Z</time></trkpt><trkpt lat="43.75769" lon="12.6100117"><ele>348.0</ele><time>2026-03-29T08:52:19.957Z</time></trkpt><trkpt lat="43.757575" lon="12.6101733"><ele>345.0</ele><time>2026-03-29T08:52:20.957Z</time></trkpt><trkpt lat="43.757465" lon="12.610325"><ele>342.0</ele><time>2026-03-29T08:52:21.958Z</time></trkpt><trkpt lat="43.7573517" lon="12.6104733"><ele>339.0</ele><time>2026-03-29T08:52:22.958Z</time></trkpt><trkpt lat="43.7572117" lon="12.6105917"><ele>339.0</ele><time>2026-03-29T08:52:23.958Z</time></trkpt><trkpt lat="43.7570633" lon="12.6106967"><ele>339.0</ele><time>2026-03-29T08:52:24.957Z</time></trkpt><trkpt lat="43.756915" lon="12.6107983"><ele>339.0</ele><time>2026-03-29T08:52:25.958Z</time></trkpt><trkpt lat="43.7567717" lon="12.6108883"><ele>341.6666666666667</ele><time>2026-03-29T08:52:26.958Z</time></trkpt><trkpt lat="43.7566267" lon="12.6109783"><ele>344.33333333333337</ele><time>2026-03-29T08:52:27.957Z</time></trkpt><trkpt lat="43.756485" lon="12.6110917"><ele>347.0</ele><time>2026-03-29T08:52:28.958Z</time></trkpt><trkpt lat="43.75635" lon="12.6111883"><ele>343.33333333333337</ele><time>2026-03-29T08:52:29.958Z</time></trkpt><trkpt lat="43.7561967" lon="12.6112683"><ele>339.6666666666667</ele><time>2026-03-29T08:52:30.958Z</time></trkpt><trkpt lat="43.7560633" lon="12.61134"><ele>336.0</ele><time>2026-03-29T08:52:31.958Z</time></trkpt><trkpt lat="43.7559217" lon="12.6114083"><ele>336.0</ele><time>2026-03-29T08:52:32.958Z</time></trkpt><trkpt lat="43.755785" lon="12.6114617"><ele>336.0</ele><time>2026-03-29T08:52:33.958Z</time></trkpt><trkpt lat="43.75566" lon="12.611545"><ele>336.0</ele><time>2026-03-29T08:52:34.957Z</time></trkpt><trkpt lat="43.755535" lon="12.611615"><ele>336.0</ele><time>2026-03-29T08:52:35.957Z</time></trkpt><trkpt lat="43.7554167" lon="12.6116833"><ele>336.0</ele><time>2026-03-29T08:52:36.958Z</time></trkpt><trkpt lat="43.7553017" lon="12.611795"><ele>336.0</ele><time>2026-03-29T08:52:37.958Z</time></trkpt><trkpt lat="43.7552" lon="12.61193"><ele>336.0</ele><time>2026-03-29T08:52:38.957Z</time></trkpt><trkpt lat="43.7551067" lon="12.6120733"><ele>336.0</ele><time>2026-03-29T08:52:39.957Z</time></trkpt><trkpt lat="43.7550217" lon="12.6122117"><ele>335.5</ele><time>2026-03-29T08:52:40.957Z</time></trkpt><trkpt lat="43.7549217" lon="12.6123567"><ele>335.0</ele><time>2026-03-29T08:52:41.958Z</time></trkpt><trkpt lat="43.7548167" lon="12.6125"><ele>334.5</ele><time>2026-03-29T08:52:42.958Z</time></trkpt><trkpt lat="43.7547217" lon="12.6126583"><ele>334.0</ele><time>2026-03-29T08:52:43.958Z</time></trkpt><trkpt lat="43.7546267" lon="12.6128033"><ele>330.25</ele><time>2026-03-29T08:52:44.958Z</time></trkpt><trkpt lat="43.7545467" lon="12.6129533"><ele>326.5</ele><time>2026-03-29T08:52:45.957Z</time></trkpt><trkpt lat="43.7544817" lon="12.61312"><ele>322.75</ele><time>2026-03-29T08:52:46.958Z</time></trkpt><trkpt lat="43.7544267" lon="12.613305"><ele>319.0</ele><time>2026-03-29T08:52:47.957Z</time></trkpt><trkpt lat="43.7543717" lon="12.6134867"><ele>321.25</ele><time>2026-03-29T08:52:48.958Z</time></trkpt><trkpt lat="43.7543317" lon="12.6136633"><ele>323.5</ele><time>2026-03-29T08:52:49.958Z</time></trkpt><trkpt lat="43.754285" lon="12.6138367"><ele>325.75</ele><time>2026-03-29T08:52:50.957Z</time></trkpt><trkpt lat="43.7542417" lon="12.6139867"><ele>328.0</ele><time>2026-03-29T08:52:51.958Z</time></trkpt><trkpt lat="43.7542067" lon="12.61412"><ele>328.0</ele><time>2026-03-29T08:52:52.957Z</time></trkpt><trkpt lat="43.75417" lon="12.6142367"><ele>328.0</ele><time>2026-03-29T08:52:53.958Z</time></trkpt><trkpt lat="43.7541383" lon="12.614345"><ele>328.0</ele><time>2026-03-29T08:52:54.958Z</time></trkpt><trkpt lat="43.7540967" lon="12.6144433"><ele>328.0</ele><time>2026-03-29T08:52:55.958Z</time></trkpt><trkpt lat="43.7540467" lon="12.6145433"><ele>328.0</ele><time>2026-03-29T08:52:56.958Z</time></trkpt><trkpt lat="43.7539717" lon="12.6146583"><ele>324.5</ele><time>2026-03-29T08:52:57.957Z</time></trkpt><trkpt lat="43.7538867" lon="12.6147817"><ele>321.0</ele><time>2026-03-29T08:52:58.957Z</time></trkpt><trkpt lat="43.753795" lon="12.6149117"><ele>317.5</ele><time>2026-03-29T08:52:59.958Z</time></trkpt><trkpt lat="43.7537033" lon="12.6150483"><ele>314.0</ele><time>2026-03-29T08:53:00.958Z</time></trkpt><trkpt lat="43.753605" lon="12.61518"><ele>313.75</ele><time>2026-03-29T08:53:01.957Z</time></trkpt><trkpt lat="43.7534967" lon="12.6152767"><ele>313.5</ele><time>2026-03-29T08:53:02.958Z</time></trkpt><trkpt lat="43.7533583" lon="12.615365"><ele>313.25</ele><time>2026-03-29T08:53:03.958Z</time></trkpt><trkpt lat="43.7532133" lon="12.6154583"><ele>313.0</ele><time>2026-03-29T08:53:04.958Z</time></trkpt><trkpt lat="43.7530683" lon="12.6155483"><ele>313.0</ele><time>2026-03-29T08:53:05.957Z</time></trkpt><trkpt lat="43.7529517" lon="12.6156117"><ele>313.0</ele><time>2026-03-29T08:53:06.957Z</time></trkpt><trkpt lat="43.752845" lon="12.61566"><ele>313.0</ele><time>2026-03-29T08:53:07.958Z</time></trkpt><trkpt lat="43.7527417" lon="12.6157083"><ele>313.0</ele><time>2026-03-29T08:53:08.958Z</time></trkpt><trkpt lat="43.752625" lon="12.6157283"><ele>317.5</ele><time>2026-03-29T08:53:09.958Z</time></trkpt><trkpt lat="43.75251" lon="12.615715"><ele>322.0</ele><time>2026-03-29T08:53:10.958Z</time></trkpt><trkpt lat="43.7523883" lon="12.6156883"><ele>326.5</ele><time>2026-03-29T08:53:11.958Z</time></trkpt><trkpt lat="43.7522583" lon="12.6156883"><ele>331.0</ele><time>2026-03-29T08:53:12.957Z</time></trkpt><trkpt lat="43.75213" lon="12.6157"><ele>331.0</ele><time>2026-03-29T08:53:13.958Z</time></trkpt><trkpt lat="43.752" lon="12.6157283"><ele>331.0</ele><time>2026-03-29T08:53:14.957Z</time></trkpt><trkpt lat="43.7518833" lon="12.6157717"><ele>331.0</ele><time>2026-03-29T08:53:15.958Z</time></trkpt><trkpt lat="43.751765" lon="12.6158167"><ele>331.0</ele><time>2026-03-29T08:53:16.958Z</time></trkpt><trkpt lat="43.7516633" lon="12.615885"><ele>332.5</ele><time>2026-03-29T08:53:17.958Z</time></trkpt><trkpt lat="43.7515767" lon="12.61597"><ele>334.0</ele><time>2026-03-29T08:53:18.957Z</time></trkpt><trkpt lat="43.751485" lon="12.6160867"><ele>335.5</ele><time>2026-03-29T08:53:19.958Z</time></trkpt><trkpt lat="43.751415" lon="12.6162217"><ele>337.0</ele><time>2026-03-29T08:53:20.958Z</time></trkpt><trkpt lat="43.751355" lon="12.6163817"><ele>334.0</ele><time>2026-03-29T08:53:21.957Z</time></trkpt><trkpt lat="43.7513167" lon="12.6165467"><ele>331.0</ele><time>2026-03-29T08:53:22.958Z</time></trkpt><trkpt lat="43.7512917" lon="12.6167117"><ele>328.0</ele><time>2026-03-29T08:53:23.958Z</time></trkpt><trkpt lat="43.7512767" lon="12.6168767"><ele>325.0</ele><time>2026-03-29T08:53:24.957Z</time></trkpt><trkpt lat="43.7512483" lon="12.6170433"><ele>322.4</ele><time>2026-03-29T08:53:25.958Z</time></trkpt><trkpt lat="43.7512183" lon="12.6171933"><ele>319.8</ele><time>2026-03-29T08:53:26.958Z</time></trkpt><trkpt lat="43.7511817" lon="12.61731"><ele>317.2</ele><time>2026-03-29T08:53:27.957Z</time></trkpt><trkpt lat="43.7511133" lon="12.6173867"><ele>314.6</ele><time>2026-03-29T08:53:28.958Z</time></trkpt><trkpt lat="43.751015" lon="12.6174267"><ele>312.0</ele><time>2026-03-29T08:53:29.957Z</time></trkpt><trkpt lat="43.7509067" lon="12.6174467"><ele>318.5</ele><time>2026-03-29T08:53:30.958Z</time></trkpt><trkpt lat="43.7507783" lon="12.6174217"><ele>325.0</ele><time>2026-03-29T08:53:31.957Z</time></trkpt><trkpt lat="43.7506417" lon="12.617365"><ele>331.5</ele><time>2026-03-29T08:53:32.958Z</time></trkpt><trkpt lat="43.750515" lon="12.6173267"><ele>338.0</ele><time>2026-03-29T08:53:33.957Z</time></trkpt><trkpt lat="43.75039" lon="12.6173217"><ele>338.0</ele><time>2026-03-29T08:53:34.957Z</time></trkpt><trkpt lat="43.7502617" lon="12.617325"><ele>338.0</ele><time>2026-03-29T08:53:35.958Z</time></trkpt><trkpt lat="43.7501367" lon="12.61733"><ele>338.0</ele><time>2026-03-29T08:53:36.958Z</time></trkpt><trkpt lat="43.75001" lon="12.6173333"><ele>338.0</ele><time>2026-03-29T08:53:37.957Z</time></trkpt><trkpt lat="43.749885" lon="12.617345"><ele>339.5</ele><time>2026-03-29T08:53:38.957Z</time></trkpt><trkpt lat="43.74977" lon="12.6173567"><ele>341.0</ele><time>2026-03-29T08:53:39.957Z</time></trkpt><trkpt lat="43.7496417" lon="12.617385"><ele>342.5</ele><time>2026-03-29T08:53:40.957Z</time></trkpt><trkpt lat="43.7495" lon="12.6174433"><ele>344.0</ele><time>2026-03-29T08:53:41.958Z</time></trkpt><trkpt lat="43.74938" lon="12.6175267"><ele>344.0</ele><time>2026-03-29T08:53:42.958Z</time></trkpt><trkpt lat="43.7492667" lon="12.6176317"><ele>344.0</ele><time>2026-03-29T08:53:43.957Z</time></trkpt><trkpt lat="43.7491717" lon="12.6177483"><ele>344.0</ele><time>2026-03-29T08:53:44.957Z</time></trkpt><trkpt lat="43.7490933" lon="12.6178733"><ele>344.0</ele><time>2026-03-29T08:53:45.958Z</time></trkpt><trkpt lat="43.74903" lon="12.6180167"><ele>344.0</ele><time>2026-03-29T08:53:46.957Z</time></trkpt><trkpt lat="43.7489683" lon="12.6181733"><ele>344.0</ele><time>2026-03-29T08:53:47.958Z</time></trkpt><trkpt lat="43.74891" lon="12.6183133"><ele>344.0</ele><time>2026-03-29T08:53:48.958Z</time></trkpt><trkpt lat="43.748865" lon="12.6184517"><ele>344.0</ele><time>2026-03-29T08:53:49.958Z</time></trkpt><trkpt lat="43.748815" lon="12.6185667"><ele>343.6</ele><time>2026-03-29T08:53:50.958Z</time></trkpt><trkpt lat="43.74876" lon="12.6186867"><ele>343.2</ele><time>2026-03-29T08:53:51.957Z</time></trkpt><trkpt lat="43.7487017" lon="12.6188117"><ele>342.8</ele><time>2026-03-29T08:53:52.957Z</time></trkpt><trkpt lat="43.7486383" lon="12.6189383"><ele>342.40000000000003</ele><time>2026-03-29T08:53:53.957Z</time></trkpt><trkpt lat="43.7485683" lon="12.61907"><ele>342.0</ele><time>2026-03-29T08:53:54.958Z</time></trkpt><trkpt lat="43.7485" lon="12.6191883"><ele>343.6666666666667</ele><time>2026-03-29T08:53:55.958Z</time></trkpt><trkpt lat="43.7484433" lon="12.6192833"><ele>345.3333333333333</ele><time>2026-03-29T08:53:56.958Z</time></trkpt><trkpt lat="43.7483917" lon="12.61935"><ele>347.0</ele><time>2026-03-29T08:53:57.958Z</time></trkpt><trkpt lat="43.7483217" lon="12.619355"><ele>348.66666666666663</ele><time>2026-03-29T08:53:59.957Z</time></trkpt><trkpt lat="43.748325" lon="12.6192283"><ele>350.3333333333333</ele><time>2026-03-29T08:54:02.958Z</time></trkpt><trkpt lat="43.748405" lon="12.619095"><ele>352.0</ele><time>2026-03-29T08:54:04.958Z</time></trkpt><trkpt lat="43.74846" lon="12.6190133"><ele>352.0</ele><time>2026-03-29T08:54:05.958Z</time></trkpt><trkpt lat="43.748505" lon="12.6189067"><ele>352.0</ele><time>2026-03-29T08:54:06.957Z</time></trkpt><trkpt lat="43.748545" lon="12.6187833"><ele>352.0</ele><time>2026-03-29T08:54:07.957Z</time></trkpt><trkpt lat="43.74858" lon="12.6186417"><ele>352.0</ele><time>2026-03-29T08:54:08.958Z</time></trkpt><trkpt lat="43.7486033" lon="12.618495"><ele>352.0</ele><time>2026-03-29T08:54:09.957Z</time></trkpt><trkpt lat="43.748645" lon="12.6183417"><ele>352.5</ele><time>2026-03-29T08:54:10.958Z</time></trkpt><trkpt lat="43.7486833" lon="12.6181767"><ele>353.0</ele><time>2026-03-29T08:54:11.957Z</time></trkpt><trkpt lat="43.7487133" lon="12.618005"><ele>353.5</ele><time>2026-03-29T08:54:12.957Z</time></trkpt><trkpt lat="43.7487317" lon="12.6178333"><ele>354.0</ele><time>2026-03-29T08:54:13.958Z</time></trkpt><trkpt lat="43.7487883" lon="12.6174833"><ele>354.0</ele><time>2026-03-29T08:54:15.958Z</time></trkpt><trkpt lat="43.74882" lon="12.6173167"><ele>354.0</ele><time>2026-03-29T08:54:16.957Z</time></trkpt><trkpt lat="43.7488633" lon="12.61715"><ele>354.0</ele><time>2026-03-29T08:54:17.958Z</time></trkpt><trkpt lat="43.748905" lon="12.61701"><ele>354.0</ele><time>2026-03-29T08:54:18.957Z</time></trkpt><trkpt lat="43.7489417" lon="12.616905"><ele>354.0</ele><time>2026-03-29T08:54:19.958Z</time></trkpt><trkpt lat="43.7489683" lon="12.6168133"><ele>357.79999999999995</ele><time>2026-03-29T08:54:20.958Z</time></trkpt><trkpt lat="43.7489683" lon="12.6166683"><ele>361.59999999999997</ele><time>2026-03-29T08:54:22.957Z</time></trkpt><trkpt lat="43.7488667" lon="12.6165617"><ele>365.4</ele><time>2026-03-29T08:54:24.957Z</time></trkpt><trkpt lat="43.7487633" lon="12.616515"><ele>369.2</ele><time>2026-03-29T08:54:25.958Z</time></trkpt><trkpt lat="43.7486683" lon="12.6164533"><ele>373.0</ele><time>2026-03-29T08:54:26.958Z</time></trkpt><trkpt lat="43.7485917" lon="12.61638"><ele>373.2</ele><time>2026-03-29T08:54:27.957Z</time></trkpt><trkpt lat="43.748535" lon="12.6163"><ele>373.4</ele><time>2026-03-29T08:54:28.958Z</time></trkpt><trkpt lat="43.7484833" lon="12.6162"><ele>373.59999999999997</ele><time>2026-03-29T08:54:29.958Z</time></trkpt><trkpt lat="43.7484283" lon="12.6160817"><ele>373.79999999999995</ele><time>2026-03-29T08:54:30.957Z</time></trkpt><trkpt lat="43.74837" lon="12.6159633"><ele>374.0</ele><time>2026-03-29T08:54:31.958Z</time></trkpt><trkpt lat="43.7483033" lon="12.6158367"><ele>376.6</ele><time>2026-03-29T08:54:32.958Z</time></trkpt><trkpt lat="43.7482333" lon="12.61571"><ele>379.2</ele><time>2026-03-29T08:54:33.958Z</time></trkpt><trkpt lat="43.7481567" lon="12.61559"><ele>381.8</ele><time>2026-03-29T08:54:34.958Z</time></trkpt><trkpt lat="43.7480817" lon="12.615475"><ele>384.40000000000003</ele><time>2026-03-29T08:54:35.958Z</time></trkpt><trkpt lat="43.7480117" lon="12.615395"><ele>387.0</ele><time>2026-03-29T08:54:36.957Z</time></trkpt><trkpt lat="43.7479583" lon="12.61533"><ele>388.0</ele><time>2026-03-29T08:54:37.957Z</time></trkpt><trkpt lat="43.7478817" lon="12.615255"><ele>389.0</ele><time>2026-03-29T08:54:39.957Z</time></trkpt><trkpt lat="43.747785" lon="12.6151667"><ele>390.0</ele><time>2026-03-29T08:54:41.957Z</time></trkpt><trkpt lat="43.7477217" lon="12.6151033"><ele>391.0</ele><time>2026-03-29T08:54:42.958Z</time></trkpt><trkpt lat="43.7476717" lon="12.6150383"><ele>392.0</ele><time>2026-03-29T08:54:43.958Z</time></trkpt><trkpt lat="43.7476367" lon="12.614895"><ele>392.0</ele><time>2026-03-29T08:54:45.957Z</time></trkpt><trkpt lat="43.747665" lon="12.6148117"><ele>392.0</ele><time>2026-03-29T08:54:46.957Z</time></trkpt><trkpt lat="43.7477283" lon="12.61473"><ele>392.0</ele><time>2026-03-29T08:54:47.958Z</time></trkpt><trkpt lat="43.7478117" lon="12.6146483"><ele>392.0</ele><time>2026-03-29T08:54:48.958Z</time></trkpt><trkpt lat="43.7479083" lon="12.6145783"><ele>392.0</ele><time>2026-03-29T08:54:49.957Z</time></trkpt><trkpt lat="43.7480017" lon="12.6145283"><ele>391.20000000000005</ele><time>2026-03-29T08:54:50.957Z</time></trkpt><trkpt lat="43.7480817" lon="12.6144517"><ele>390.4</ele><time>2026-03-29T08:54:51.958Z</time></trkpt><trkpt lat="43.74813" lon="12.61433"><ele>389.6</ele><time>2026-03-29T08:54:52.958Z</time></trkpt><trkpt lat="43.7481667" lon="12.6141967"><ele>388.79999999999995</ele><time>2026-03-29T08:54:53.957Z</time></trkpt><trkpt lat="43.7481867" lon="12.6140617"><ele>388.0</ele><time>2026-03-29T08:54:54.957Z</time></trkpt><trkpt lat="43.7481883" lon="12.61391"><ele>388.0</ele><time>2026-03-29T08:54:55.958Z</time></trkpt><trkpt lat="43.7481617" lon="12.61376"><ele>388.0</ele><time>2026-03-29T08:54:56.958Z</time></trkpt><trkpt lat="43.7480883" lon="12.6136"><ele>388.0</ele><time>2026-03-29T08:54:57.957Z</time></trkpt><trkpt lat="43.747985" lon="12.6135017"><ele>388.0</ele><time>2026-03-29T08:54:58.958Z</time></trkpt><trkpt lat="43.7478983" lon="12.6133967"><ele>389.4</ele><time>2026-03-29T08:54:59.958Z</time></trkpt><trkpt lat="43.7478333" lon="12.6133033"><ele>390.79999999999995</ele><time>2026-03-29T08:55:00.958Z</time></trkpt><trkpt lat="43.747755" lon="12.6132167"><ele>392.2</ele><time>2026-03-29T08:55:01.958Z</time></trkpt><trkpt lat="43.7476867" lon="12.613125"><ele>393.6</ele><time>2026-03-29T08:55:02.958Z</time></trkpt><trkpt lat="43.7476217" lon="12.6130383"><ele>395.0</ele><time>2026-03-29T08:55:03.958Z</time></trkpt><trkpt lat="43.7475733" lon="12.6129333"><ele>390.8</ele><time>2026-03-29T08:55:04.958Z</time></trkpt><trkpt lat="43.7475517" lon="12.6128017"><ele>386.6</ele><time>2026-03-29T08:55:05.957Z</time></trkpt><trkpt lat="43.7475483" lon="12.6126617"><ele>382.4</ele><time>2026-03-29T08:55:06.957Z</time></trkpt><trkpt lat="43.7475783" lon="12.6125167"><ele>378.2</ele><time>2026-03-29T08:55:07.957Z</time></trkpt><trkpt lat="43.7476367" lon="12.612375"><ele>374.0</ele><time>2026-03-29T08:55:08.958Z</time></trkpt><trkpt lat="43.7477083" lon="12.6122367"><ele>376.25</ele><time>2026-03-29T08:55:09.957Z</time></trkpt><trkpt lat="43.7477867" lon="12.6120967"><ele>378.5</ele><time>2026-03-29T08:55:10.957Z</time></trkpt><trkpt lat="43.7478667" lon="12.6119817"><ele>380.75</ele><time>2026-03-29T08:55:11.958Z</time></trkpt><trkpt lat="43.7479283" lon="12.6118517"><ele>383.0</ele><time>2026-03-29T08:55:12.958Z</time></trkpt><trkpt lat="43.747985" lon="12.6117283"><ele>383.0</ele><time>2026-03-29T08:55:13.957Z</time></trkpt><trkpt lat="43.7480367" lon="12.6116067"><ele>383.0</ele><time>2026-03-29T08:55:14.958Z</time></trkpt><trkpt lat="43.74808" lon="12.6114817"><ele>383.0</ele><time>2026-03-29T08:55:15.958Z</time></trkpt><trkpt lat="43.7481067" lon="12.6113317"><ele>383.0</ele><time>2026-03-29T08:55:16.958Z</time></trkpt><trkpt lat="43.7481167" lon="12.6111867"><ele>383.0</ele><time>2026-03-29T08:55:17.957Z</time></trkpt><trkpt lat="43.7481317" lon="12.6110317"><ele>379.5</ele><time>2026-03-29T08:55:18.957Z</time></trkpt><trkpt lat="43.7481433" lon="12.6108717"><ele>376.0</ele><time>2026-03-29T08:55:19.958Z</time></trkpt><trkpt lat="43.7481417" lon="12.6106933"><ele>372.5</ele><time>2026-03-29T08:55:20.957Z</time></trkpt><trkpt lat="43.74812" lon="12.610505"><ele>369.0</ele><time>2026-03-29T08:55:21.958Z</time></trkpt><trkpt lat="43.7480917" lon="12.61033"><ele>366.75</ele><time>2026-03-29T08:55:22.957Z</time></trkpt><trkpt lat="43.748055" lon="12.6101583"><ele>364.5</ele><time>2026-03-29T08:55:23.957Z</time></trkpt><trkpt lat="43.7480333" lon="12.609985"><ele>362.25</ele><time>2026-03-29T08:55:24.957Z</time></trkpt><trkpt lat="43.7480167" lon="12.609835"><ele>360.0</ele><time>2026-03-29T08:55:25.957Z</time></trkpt><trkpt lat="43.7480067" lon="12.60969"><ele>360.0</ele><time>2026-03-29T08:55:26.958Z</time></trkpt><trkpt lat="43.7479617" lon="12.6095383"><ele>360.0</ele><time>2026-03-29T08:55:27.958Z</time></trkpt><trkpt lat="43.747905" lon="12.6093833"><ele>360.0</ele><time>2026-03-29T08:55:28.958Z</time></trkpt><trkpt lat="43.7478367" lon="12.609235"><ele>360.0</ele><time>2026-03-29T08:55:29.958Z</time></trkpt><trkpt lat="43.7477483" lon="12.6090967"><ele>363.5</ele><time>2026-03-29T08:55:30.958Z</time></trkpt><trkpt lat="43.7476433" lon="12.60898"><ele>367.0</ele><time>2026-03-29T08:55:31.958Z</time></trkpt><trkpt lat="43.74752" lon="12.608885"><ele>370.5</ele><time>2026-03-29T08:55:32.957Z</time></trkpt><trkpt lat="43.7473917" lon="12.6088133"><ele>374.0</ele><time>2026-03-29T08:55:33.958Z</time></trkpt><trkpt lat="43.74729" lon="12.6087333"><ele>368.5</ele><time>2026-03-29T08:55:34.957Z</time></trkpt><trkpt lat="43.7472117" lon="12.608625"><ele>363.0</ele><time>2026-03-29T08:55:35.958Z</time></trkpt><trkpt lat="43.7471367" lon="12.6084933"><ele>357.5</ele><time>2026-03-29T08:55:36.958Z</time></trkpt><trkpt lat="43.7470817" lon="12.6083367"><ele>352.0</ele><time>2026-03-29T08:55:37.957Z</time></trkpt><trkpt lat="43.747045" lon="12.6081683"><ele>352.0</ele><time>2026-03-29T08:55:38.957Z</time></trkpt><trkpt lat="43.747015" lon="12.6080167"><ele>352.0</ele><time>2026-03-29T08:55:39.958Z</time></trkpt><trkpt lat="43.7469767" lon="12.6078783"><ele>352.0</ele><time>2026-03-29T08:55:40.958Z</time></trkpt><trkpt lat="43.7469317" lon="12.60776"><ele>352.0</ele><time>2026-03-29T08:55:41.958Z</time></trkpt><trkpt lat="43.7468633" lon="12.6076483"><ele>352.0</ele><time>2026-03-29T08:55:42.957Z</time></trkpt><trkpt lat="43.746785" lon="12.6075933"><ele>352.0</ele><time>2026-03-29T08:55:43.957Z</time></trkpt><trkpt lat="43.746695" lon="12.60757"><ele>352.0</ele><time>2026-03-29T08:55:44.958Z</time></trkpt><trkpt lat="43.74659" lon="12.6075767"><ele>352.0</ele><time>2026-03-29T08:55:45.958Z</time></trkpt><trkpt lat="43.746485" lon="12.6075883"><ele>352.0</ele><time>2026-03-29T08:55:46.957Z</time></trkpt><trkpt lat="43.7463617" lon="12.60759"><ele>352.0</ele><time>2026-03-29T08:55:47.958Z</time></trkpt><trkpt lat="43.7462467" lon="12.607555"><ele>352.0</ele><time>2026-03-29T08:55:48.958Z</time></trkpt><trkpt lat="43.7461267" lon="12.6075117"><ele>352.0</ele><time>2026-03-29T08:55:49.958Z</time></trkpt><trkpt lat="43.74602" lon="12.6074367"><ele>352.0</ele><time>2026-03-29T08:55:50.957Z</time></trkpt><trkpt lat="43.7459317" lon="12.6073467"><ele>352.0</ele><time>2026-03-29T08:55:51.958Z</time></trkpt><trkpt lat="43.7458533" lon="12.60725"><ele>354.0</ele><time>2026-03-29T08:55:52.957Z</time></trkpt><trkpt lat="43.7458017" lon="12.6071417"><ele>356.0</ele><time>2026-03-29T08:55:53.958Z</time></trkpt><trkpt lat="43.7457733" lon="12.607"><ele>358.0</ele><time>2026-03-29T08:55:54.957Z</time></trkpt><trkpt lat="43.7457583" lon="12.6068483"><ele>360.0</ele><time>2026-03-29T08:55:55.958Z</time></trkpt><trkpt lat="43.74576" lon="12.606675"><ele>362.0</ele><time>2026-03-29T08:55:56.958Z</time></trkpt><trkpt lat="43.7457817" lon="12.6064867"><ele>362.0</ele><time>2026-03-29T08:55:57.958Z</time></trkpt><trkpt lat="43.745805" lon="12.6062767"><ele>362.0</ele><time>2026-03-29T08:55:58.958Z</time></trkpt><trkpt lat="43.7458267" lon="12.6060733"><ele>362.0</ele><time>2026-03-29T08:55:59.957Z</time></trkpt><trkpt lat="43.7458617" lon="12.6058617"><ele>361.0</ele><time>2026-03-29T08:56:00.958Z</time></trkpt><trkpt lat="43.7458933" lon="12.6056633"><ele>360.0</ele><time>2026-03-29T08:56:01.958Z</time></trkpt><trkpt lat="43.745915" lon="12.6054833"><ele>359.0</ele><time>2026-03-29T08:56:02.958Z</time></trkpt><trkpt lat="43.7459333" lon="12.6052983"><ele>358.0</ele><time>2026-03-29T08:56:03.957Z</time></trkpt><trkpt lat="43.7459267" lon="12.6051133"><ele>356.25</ele><time>2026-03-29T08:56:04.958Z</time></trkpt><trkpt lat="43.74592" lon="12.6049217"><ele>354.5</ele><time>2026-03-29T08:56:05.958Z</time></trkpt><trkpt lat="43.7458933" lon="12.60476"><ele>352.75</ele><time>2026-03-29T08:56:06.958Z</time></trkpt><trkpt lat="43.7458467" lon="12.6045883"><ele>351.0</ele><time>2026-03-29T08:56:07.958Z</time></trkpt><trkpt lat="43.7458167" lon="12.6044067"><ele>349.0</ele><time>2026-03-29T08:56:08.957Z</time></trkpt><trkpt lat="43.7458033" lon="12.604225"><ele>347.0</ele><time>2026-03-29T08:56:09.958Z</time></trkpt><trkpt lat="43.7458117" lon="12.6040433"><ele>345.0</ele><time>2026-03-29T08:56:10.957Z</time></trkpt><trkpt lat="43.745835" lon="12.6038533"><ele>343.0</ele><time>2026-03-29T08:56:11.958Z</time></trkpt><trkpt lat="43.7458533" lon="12.6036733"><ele>342.25</ele><time>2026-03-29T08:56:12.958Z</time></trkpt><trkpt lat="43.7458667" lon="12.603515"><ele>341.5</ele><time>2026-03-29T08:56:13.957Z</time></trkpt><trkpt lat="43.745865" lon="12.603345"><ele>340.75</ele><time>2026-03-29T08:56:14.957Z</time></trkpt><trkpt lat="43.7458467" lon="12.60317"><ele>340.0</ele><time>2026-03-29T08:56:15.958Z</time></trkpt><trkpt lat="43.7458083" lon="12.6029833"><ele>338.0</ele><time>2026-03-29T08:56:16.958Z</time></trkpt><trkpt lat="43.7457817" lon="12.6028033"><ele>336.0</ele><time>2026-03-29T08:56:17.958Z</time></trkpt><trkpt lat="43.7457817" lon="12.60263"><ele>334.0</ele><time>2026-03-29T08:56:18.958Z</time></trkpt><trkpt lat="43.7458083" lon="12.60246"><ele>332.0</ele><time>2026-03-29T08:56:19.958Z</time></trkpt><trkpt lat="43.7458533" lon="12.6022933"><ele>332.0</ele><time>2026-03-29T08:56:20.958Z</time></trkpt><trkpt lat="43.7459183" lon="12.60211"><ele>332.0</ele><time>2026-03-29T08:56:21.957Z</time></trkpt><trkpt lat="43.74599" lon="12.6019183"><ele>332.0</ele><time>2026-03-29T08:56:22.958Z</time></trkpt><trkpt lat="43.74605" lon="12.6017283"><ele>335.6666666666667</ele><time>2026-03-29T08:56:23.958Z</time></trkpt><trkpt lat="43.7461133" lon="12.6015383"><ele>339.3333333333333</ele><time>2026-03-29T08:56:24.958Z</time></trkpt><trkpt lat="43.7461583" lon="12.60133"><ele>343.0</ele><time>2026-03-29T08:56:25.958Z</time></trkpt><trkpt lat="43.7462017" lon="12.6011017"><ele>343.0</ele><time>2026-03-29T08:56:26.958Z</time></trkpt><trkpt lat="43.7462" lon="12.600855"><ele>343.0</ele><time>2026-03-29T08:56:27.958Z</time></trkpt><trkpt lat="43.746195" lon="12.6006217"><ele>343.0</ele><time>2026-03-29T08:56:28.958Z</time></trkpt><trkpt lat="43.7461867" lon="12.60039"><ele>339.66666666666663</ele><time>2026-03-29T08:56:29.958Z</time></trkpt><trkpt lat="43.7462317" lon="12.6001483"><ele>336.3333333333333</ele><time>2026-03-29T08:56:30.958Z</time></trkpt><trkpt lat="43.746225" lon="12.599955"><ele>333.0</ele><time>2026-03-29T08:56:31.957Z</time></trkpt><trkpt lat="43.7462383" lon="12.5997733"><ele>333.0</ele><time>2026-03-29T08:56:32.958Z</time></trkpt><trkpt lat="43.7462667" lon="12.5995833"><ele>333.0</ele><time>2026-03-29T08:56:33.958Z</time></trkpt><trkpt lat="43.7463133" lon="12.5993983"><ele>333.0</ele><time>2026-03-29T08:56:34.958Z</time></trkpt><trkpt lat="43.74636" lon="12.5992033"><ele>333.0</ele><time>2026-03-29T08:56:35.958Z</time></trkpt><trkpt lat="43.7464317" lon="12.5989867"><ele>330.5</ele><time>2026-03-29T08:56:36.958Z</time></trkpt><trkpt lat="43.74648" lon="12.5987817"><ele>328.0</ele><time>2026-03-29T08:56:37.958Z</time></trkpt><trkpt lat="43.7465317" lon="12.5985983"><ele>325.5</ele><time>2026-03-29T08:56:38.958Z</time></trkpt><trkpt lat="43.7465817" lon="12.5984417"><ele>323.0</ele><time>2026-03-29T08:56:39.957Z</time></trkpt><trkpt lat="43.746605" lon="12.5983017"><ele>321.79999999999995</ele><time>2026-03-29T08:56:40.957Z</time></trkpt><trkpt lat="43.7466517" lon="12.5981933"><ele>320.59999999999997</ele><time>2026-03-29T08:56:41.958Z</time></trkpt><trkpt lat="43.746725" lon="12.5981183"><ele>319.4</ele><time>2026-03-29T08:56:42.957Z</time></trkpt><trkpt lat="43.7468283" lon="12.5980717"><ele>318.2</ele><time>2026-03-29T08:56:43.958Z</time></trkpt><trkpt lat="43.74695" lon="12.5980633"><ele>317.0</ele><time>2026-03-29T08:56:44.958Z</time></trkpt><trkpt lat="43.7470883" lon="12.5980667"><ele>314.75</ele><time>2026-03-29T08:56:45.958Z</time></trkpt><trkpt lat="43.7472283" lon="12.5980983"><ele>312.5</ele><time>2026-03-29T08:56:46.958Z</time></trkpt><trkpt lat="43.7473617" lon="12.59814"><ele>310.25</ele><time>2026-03-29T08:56:47.958Z</time></trkpt><trkpt lat="43.747495" lon="12.5981667"><ele>308.0</ele><time>2026-03-29T08:56:48.957Z</time></trkpt><trkpt lat="43.7476183" lon="12.598195"><ele>307.0</ele><time>2026-03-29T08:56:49.958Z</time></trkpt><trkpt lat="43.7477367" lon="12.5981733"><ele>306.0</ele><time>2026-03-29T08:56:50.958Z</time></trkpt><trkpt lat="43.7478467" lon="12.598125"><ele>305.0</ele><time>2026-03-29T08:56:51.958Z</time></trkpt><trkpt lat="43.7479533" lon="12.5980217"><ele>304.0</ele><time>2026-03-29T08:56:52.957Z</time></trkpt><trkpt lat="43.7480617" lon="12.5978683"><ele>304.0</ele><time>2026-03-29T08:56:53.957Z</time></trkpt><trkpt lat="43.748155" lon="12.597665"><ele>304.0</ele><time>2026-03-29T08:56:54.958Z</time></trkpt><trkpt lat="43.7482517" lon="12.5974433"><ele>304.0</ele><time>2026-03-29T08:56:55.958Z</time></trkpt><trkpt lat="43.7483217" lon="12.5972017"><ele>304.0</ele><time>2026-03-29T08:56:56.958Z</time></trkpt><trkpt lat="43.7484017" lon="12.59701"><ele>304.0</ele><time>2026-03-29T08:56:57.958Z</time></trkpt><trkpt lat="43.7484983" lon="12.5968483"><ele>304.0</ele><time>2026-03-29T08:56:58.957Z</time></trkpt><trkpt lat="43.7485967" lon="12.5967117"><ele>298.66666666666663</ele><time>2026-03-29T08:56:59.958Z</time></trkpt><trkpt lat="43.7486817" lon="12.596555"><ele>293.3333333333333</ele><time>2026-03-29T08:57:00.957Z</time></trkpt><trkpt lat="43.7487617" lon="12.59638"><ele>288.0</ele><time>2026-03-29T08:57:01.958Z</time></trkpt><trkpt lat="43.74879" lon="12.5961517"><ele>287.6666666666667</ele><time>2026-03-29T08:57:02.958Z</time></trkpt><trkpt lat="43.74881" lon="12.59589"><ele>287.33333333333337</ele><time>2026-03-29T08:57:03.957Z</time></trkpt><trkpt lat="43.7488417" lon="12.59565"><ele>287.0</ele><time>2026-03-29T08:57:04.958Z</time></trkpt><trkpt lat="43.748875" lon="12.5954133"><ele>286.33333333333337</ele><time>2026-03-29T08:57:05.957Z</time></trkpt><trkpt lat="43.7489117" lon="12.5951817"><ele>285.6666666666667</ele><time>2026-03-29T08:57:06.958Z</time></trkpt><trkpt lat="43.7489417" lon="12.594955"><ele>285.0</ele><time>2026-03-29T08:57:07.958Z</time></trkpt><trkpt lat="43.7489967" lon="12.5947467"><ele>285.0</ele><time>2026-03-29T08:57:08.957Z</time></trkpt><trkpt lat="43.7490283" lon="12.594545"><ele>285.0</ele><time>2026-03-29T08:57:09.958Z</time></trkpt><trkpt lat="43.7490517" lon="12.594345"><ele>285.0</ele><time>2026-03-29T08:57:10.958Z</time></trkpt><trkpt lat="43.7490633" lon="12.5941467"><ele>285.0</ele><time>2026-03-29T08:57:11.957Z</time></trkpt><trkpt lat="43.7490683" lon="12.5939383"><ele>284.3333333333333</ele><time>2026-03-29T08:57:12.958Z</time></trkpt><trkpt lat="43.7490483" lon="12.59374"><ele>283.66666666666663</ele><time>2026-03-29T08:57:13.958Z</time></trkpt><trkpt lat="43.7490017" lon="12.5935433"><ele>283.0</ele><time>2026-03-29T08:57:14.957Z</time></trkpt><trkpt lat="43.7489233" lon="12.59335"><ele>283.0</ele><time>2026-03-29T08:57:15.957Z</time></trkpt><trkpt lat="43.7488183" lon="12.5931767"><ele>283.0</ele><time>2026-03-29T08:57:16.958Z</time></trkpt><trkpt lat="43.7486933" lon="12.5930383"><ele>283.0</ele><time>2026-03-29T08:57:17.958Z</time></trkpt><trkpt lat="43.74857" lon="12.5928983"><ele>281.3333333333333</ele><time>2026-03-29T08:57:18.957Z</time></trkpt><trkpt lat="43.7484267" lon="12.59279"><ele>279.6666666666667</ele><time>2026-03-29T08:57:19.958Z</time></trkpt><trkpt lat="43.748275" lon="12.592705"><ele>278.0</ele><time>2026-03-29T08:57:20.958Z</time></trkpt><trkpt lat="43.748125" lon="12.5926333"><ele>278.0</ele><time>2026-03-29T08:57:21.958Z</time></trkpt><trkpt lat="43.7479767" lon="12.59257"><ele>278.0</ele><time>2026-03-29T08:57:22.957Z</time></trkpt><trkpt lat="43.7478333" lon="12.59248"><ele>278.0</ele><time>2026-03-29T08:57:23.957Z</time></trkpt><trkpt lat="43.7477017" lon="12.5923583"><ele>275.0</ele><time>2026-03-29T08:57:24.958Z</time></trkpt><trkpt lat="43.7475833" lon="12.592215"><ele>272.0</ele><time>2026-03-29T08:57:25.958Z</time></trkpt><trkpt lat="43.7474533" lon="12.5920983"><ele>269.0</ele><time>2026-03-29T08:57:26.958Z</time></trkpt><trkpt lat="43.7473283" lon="12.591985"><ele>269.0</ele><time>2026-03-29T08:57:27.957Z</time></trkpt><trkpt lat="43.747185" lon="12.5918933"><ele>269.0</ele><time>2026-03-29T08:57:28.958Z</time></trkpt><trkpt lat="43.7470467" lon="12.591825"><ele>269.0</ele><time>2026-03-29T08:57:29.958Z</time></trkpt><trkpt lat="43.7468933" lon="12.5917917"><ele>267.0</ele><time>2026-03-29T08:57:30.958Z</time></trkpt><trkpt lat="43.7467333" lon="12.5917767"><ele>265.0</ele><time>2026-03-29T08:57:31.958Z</time></trkpt><trkpt lat="43.7465733" lon="12.591775"><ele>263.0</ele><time>2026-03-29T08:57:32.958Z</time></trkpt><trkpt lat="43.74643" lon="12.591775"><ele>263.0</ele><time>2026-03-29T08:57:33.957Z</time></trkpt><trkpt lat="43.746295" lon="12.5917617"><ele>263.0</ele><time>2026-03-29T08:57:34.957Z</time></trkpt><trkpt lat="43.7461683" lon="12.5917533"><ele>263.0</ele><time>2026-03-29T08:57:35.958Z</time></trkpt><trkpt lat="43.7460567" lon="12.59173"><ele>263.0</ele><time>2026-03-29T08:57:36.957Z</time></trkpt><trkpt lat="43.74597" lon="12.591665"><ele>260.75</ele><time>2026-03-29T08:57:37.957Z</time></trkpt><trkpt lat="43.745895" lon="12.5915667"><ele>258.5</ele><time>2026-03-29T08:57:38.957Z</time></trkpt><trkpt lat="43.7458467" lon="12.591425"><ele>256.25</ele><time>2026-03-29T08:57:39.957Z</time></trkpt><trkpt lat="43.74584" lon="12.5912633"><ele>254.0</ele><time>2026-03-29T08:57:40.957Z</time></trkpt><trkpt lat="43.74586" lon="12.5910967"><ele>253.25</ele><time>2026-03-29T08:57:41.957Z</time></trkpt><trkpt lat="43.7459033" lon="12.5909233"><ele>252.5</ele><time>2026-03-29T08:57:42.957Z</time></trkpt><trkpt lat="43.74596" lon="12.5907533"><ele>251.75</ele><time>2026-03-29T08:57:43.958Z</time></trkpt><trkpt lat="43.7460067" lon="12.5906183"><ele>251.0</ele><time>2026-03-29T08:57:44.958Z</time></trkpt><trkpt lat="43.7460583" lon="12.5905117"><ele>251.0</ele><time>2026-03-29T08:57:45.957Z</time></trkpt><trkpt lat="43.7461367" lon="12.590435"><ele>251.00000000000003</ele><time>2026-03-29T08:57:46.957Z</time></trkpt><trkpt lat="43.7462283" lon="12.5903917"><ele>251.00000000000003</ele><time>2026-03-29T08:57:47.957Z</time></trkpt><trkpt lat="43.7463167" lon="12.5903733"><ele>251.0</ele><time>2026-03-29T08:57:48.958Z</time></trkpt><trkpt lat="43.7464117" lon="12.5903917"><ele>251.0</ele><time>2026-03-29T08:57:49.958Z</time></trkpt><trkpt lat="43.746515" lon="12.5904767"><ele>251.0</ele><time>2026-03-29T08:57:50.957Z</time></trkpt><trkpt lat="43.746635" lon="12.5905717"><ele>251.0</ele><time>2026-03-29T08:57:51.958Z</time></trkpt><trkpt lat="43.7467617" lon="12.590665"><ele>251.0</ele><time>2026-03-29T08:57:52.958Z</time></trkpt><trkpt lat="43.746885" lon="12.5907233"><ele>251.0</ele><time>2026-03-29T08:57:53.957Z</time></trkpt><trkpt lat="43.7470317" lon="12.59074"><ele>252.0</ele><time>2026-03-29T08:57:54.958Z</time></trkpt><trkpt lat="43.7471767" lon="12.59072"><ele>253.0</ele><time>2026-03-29T08:57:55.957Z</time></trkpt><trkpt lat="43.7473233" lon="12.5906567"><ele>254.0</ele><time>2026-03-29T08:57:56.958Z</time></trkpt><trkpt lat="43.7474733" lon="12.5905633"><ele>254.0</ele><time>2026-03-29T08:57:57.958Z</time></trkpt><trkpt lat="43.7476083" lon="12.59045"><ele>254.0</ele><time>2026-03-29T08:57:58.958Z</time></trkpt><trkpt lat="43.7477417" lon="12.5903533"><ele>254.0</ele><time>2026-03-29T08:57:59.958Z</time></trkpt><trkpt lat="43.7478717" lon="12.5902567"><ele>245.66666666666669</ele><time>2026-03-29T08:58:00.957Z</time></trkpt><trkpt lat="43.7479967" lon="12.5901717"><ele>237.33333333333331</ele><time>2026-03-29T08:58:01.957Z</time></trkpt><trkpt lat="43.7481383" lon="12.59011"><ele>229.0</ele><time>2026-03-29T08:58:02.958Z</time></trkpt><trkpt lat="43.7483217" lon="12.5900967"><ele>229.0</ele><time>2026-03-29T08:58:03.958Z</time></trkpt><trkpt lat="43.748485" lon="12.5900867"><ele>229.0</ele><time>2026-03-29T08:58:04.958Z</time></trkpt><trkpt lat="43.7486517" lon="12.5900733"><ele>229.0</ele><time>2026-03-29T08:58:05.957Z</time></trkpt><trkpt lat="43.7488067" lon="12.5900617"><ele>228.5</ele><time>2026-03-29T08:58:06.958Z</time></trkpt><trkpt lat="43.748945" lon="12.59004"><ele>228.0</ele><time>2026-03-29T08:58:07.957Z</time></trkpt><trkpt lat="43.7490783" lon="12.590015"><ele>227.5</ele><time>2026-03-29T08:58:08.957Z</time></trkpt><trkpt lat="43.7492083" lon="12.59"><ele>227.0</ele><time>2026-03-29T08:58:09.958Z</time></trkpt><trkpt lat="43.7493283" lon="12.5899633"><ele>226.75</ele><time>2026-03-29T08:58:10.958Z</time></trkpt><trkpt lat="43.7494433" lon="12.589895"><ele>226.5</ele><time>2026-03-29T08:58:11.957Z</time></trkpt><trkpt lat="43.7495433" lon="12.5897983"><ele>226.25</ele><time>2026-03-29T08:58:12.958Z</time></trkpt><trkpt lat="43.749665" lon="12.58969"><ele>226.0</ele><time>2026-03-29T08:58:13.958Z</time></trkpt><trkpt lat="43.74979" lon="12.5895683"><ele>222.20000000000002</ele><time>2026-03-29T08:58:14.958Z</time></trkpt><trkpt lat="43.749895" lon="12.5894583"><ele>218.40000000000003</ele><time>2026-03-29T08:58:15.957Z</time></trkpt><trkpt lat="43.7499933" lon="12.5893767"><ele>214.6</ele><time>2026-03-29T08:58:16.958Z</time></trkpt><trkpt lat="43.7500717" lon="12.5892883"><ele>210.8</ele><time>2026-03-29T08:58:17.957Z</time></trkpt><trkpt lat="43.7501283" lon="12.5892167"><ele>207.0</ele><time>2026-03-29T08:58:18.957Z</time></trkpt><trkpt lat="43.7501567" lon="12.589125"><ele>207.0</ele><time>2026-03-29T08:58:19.957Z</time></trkpt><trkpt lat="43.7501717" lon="12.5890383"><ele>207.0</ele><time>2026-03-29T08:58:20.958Z</time></trkpt><trkpt lat="43.7501333" lon="12.5889283"><ele>207.0</ele><time>2026-03-29T08:58:21.958Z</time></trkpt><trkpt lat="43.7500483" lon="12.5888117"><ele>207.0</ele><time>2026-03-29T08:58:23.958Z</time></trkpt><trkpt lat="43.7499917" lon="12.588765"><ele>207.0</ele><time>2026-03-29T08:58:25.958Z</time></trkpt><trkpt lat="43.7499133" lon="12.58879"><ele>207.0</ele><time>2026-03-29T08:58:27.958Z</time></trkpt><trkpt lat="43.749845" lon="12.5888233"><ele>207.0</ele><time>2026-03-29T08:58:28.958Z</time></trkpt><trkpt lat="43.749735" lon="12.588865"><ele>207.0</ele><time>2026-03-29T08:58:29.957Z</time></trkpt><trkpt lat="43.7495767" lon="12.58891"><ele>207.0</ele><time>2026-03-29T08:58:30.958Z</time></trkpt><trkpt lat="43.7494167" lon="12.5888917"><ele>207.0</ele><time>2026-03-29T08:58:31.958Z</time></trkpt><trkpt lat="43.74924" lon="12.58885"><ele>206.33333333333331</ele><time>2026-03-29T08:58:32.958Z</time></trkpt><trkpt lat="43.7490617" lon="12.5888633"><ele>205.66666666666666</ele><time>2026-03-29T08:58:33.958Z</time></trkpt><trkpt lat="43.7488833" lon="12.5888633"><ele>205.0</ele><time>2026-03-29T08:58:34.958Z</time></trkpt><trkpt lat="43.748715" lon="12.5888517"><ele>205.0</ele><time>2026-03-29T08:58:35.958Z</time></trkpt><trkpt lat="43.7485783" lon="12.5887917"><ele>205.0</ele><time>2026-03-29T08:58:36.957Z</time></trkpt><trkpt lat="43.7484733" lon="12.588685"><ele>205.0</ele><time>2026-03-29T08:58:37.958Z</time></trkpt><trkpt lat="43.7484367" lon="12.5885483"><ele>205.0</ele><time>2026-03-29T08:58:38.958Z</time></trkpt><trkpt lat="43.7484433" lon="12.58838"><ele>200.75</ele><time>2026-03-29T08:58:39.958Z</time></trkpt><trkpt lat="43.7484733" lon="12.5882"><ele>196.5</ele><time>2026-03-29T08:58:40.958Z</time></trkpt><trkpt lat="43.7485267" lon="12.5880083"><ele>192.25</ele><time>2026-03-29T08:58:41.957Z</time></trkpt><trkpt lat="43.7485783" lon="12.5878133"><ele>188.0</ele><time>2026-03-29T08:58:42.958Z</time></trkpt><trkpt lat="43.748625" lon="12.5876383"><ele>187.0</ele><time>2026-03-29T08:58:43.957Z</time></trkpt><trkpt lat="43.748685" lon="12.5874767"><ele>186.0</ele><time>2026-03-29T08:58:44.958Z</time></trkpt><trkpt lat="43.7487233" lon="12.58732"><ele>185.0</ele><time>2026-03-29T08:58:45.958Z</time></trkpt><trkpt lat="43.7487567" lon="12.5871783"><ele>184.0</ele><time>2026-03-29T08:58:46.958Z</time></trkpt><trkpt lat="43.748805" lon="12.5870533"><ele>187.25</ele><time>2026-03-29T08:58:47.957Z</time></trkpt><trkpt lat="43.7488767" lon="12.5869417"><ele>190.5</ele><time>2026-03-29T08:58:48.958Z</time></trkpt><trkpt lat="43.7489667" lon="12.58684"><ele>193.75</ele><time>2026-03-29T08:58:49.958Z</time></trkpt><trkpt lat="43.749075" lon="12.5867683"><ele>197.0</ele><time>2026-03-29T08:58:50.958Z</time></trkpt><trkpt lat="43.7491933" lon="12.5867217"><ele>197.0</ele><time>2026-03-29T08:58:51.958Z</time></trkpt><trkpt lat="43.7493133" lon="12.58669"><ele>197.0</ele><time>2026-03-29T08:58:52.958Z</time></trkpt><trkpt lat="43.7494483" lon="12.5866517"><ele>197.0</ele><time>2026-03-29T08:58:53.957Z</time></trkpt><trkpt lat="43.7495883" lon="12.58662"><ele>197.0</ele><time>2026-03-29T08:58:54.957Z</time></trkpt><trkpt lat="43.7497333" lon="12.5865867"><ele>195.75</ele><time>2026-03-29T08:58:55.957Z</time></trkpt><trkpt lat="43.7498633" lon="12.5865667"><ele>194.5</ele><time>2026-03-29T08:58:56.958Z</time></trkpt><trkpt lat="43.7499933" lon="12.58655"><ele>193.25</ele><time>2026-03-29T08:58:57.957Z</time></trkpt><trkpt lat="43.75012" lon="12.58653"><ele>192.0</ele><time>2026-03-29T08:58:58.957Z</time></trkpt><trkpt lat="43.7502533" lon="12.5865033"><ele>191.75</ele><time>2026-03-29T08:58:59.957Z</time></trkpt><trkpt lat="43.75039" lon="12.586475"><ele>191.5</ele><time>2026-03-29T08:59:00.958Z</time></trkpt><trkpt lat="43.7505217" lon="12.5864567"><ele>191.25</ele><time>2026-03-29T08:59:01.958Z</time></trkpt><trkpt lat="43.7506417" lon="12.5864367"><ele>191.0</ele><time>2026-03-29T08:59:02.958Z</time></trkpt><trkpt lat="43.7507733" lon="12.5863967"><ele>191.0</ele><time>2026-03-29T08:59:03.958Z</time></trkpt><trkpt lat="43.7509017" lon="12.586335"><ele>191.0</ele><time>2026-03-29T08:59:04.957Z</time></trkpt><trkpt lat="43.7510333" lon="12.586255"><ele>191.0</ele><time>2026-03-29T08:59:05.958Z</time></trkpt><trkpt lat="43.7511567" lon="12.58616"><ele>191.0</ele><time>2026-03-29T08:59:06.958Z</time></trkpt><trkpt lat="43.7512967" lon="12.58604"><ele>193.0</ele><time>2026-03-29T08:59:07.957Z</time></trkpt><trkpt lat="43.7514317" lon="12.58591"><ele>195.0</ele><time>2026-03-29T08:59:08.958Z</time></trkpt><trkpt lat="43.7515583" lon="12.5857617"><ele>197.0</ele><time>2026-03-29T08:59:09.958Z</time></trkpt><trkpt lat="43.7516867" lon="12.5856083"><ele>197.0</ele><time>2026-03-29T08:59:10.957Z</time></trkpt><trkpt lat="43.7518217" lon="12.5854567"><ele>197.0</ele><time>2026-03-29T08:59:11.957Z</time></trkpt><trkpt lat="43.75195" lon="12.585315"><ele>197.0</ele><time>2026-03-29T08:59:12.958Z</time></trkpt><trkpt lat="43.7520783" lon="12.5851833"><ele>200.33333333333334</ele><time>2026-03-29T08:59:13.957Z</time></trkpt><trkpt lat="43.7522267" lon="12.585085"><ele>203.66666666666669</ele><time>2026-03-29T08:59:14.957Z</time></trkpt><trkpt lat="43.7523733" lon="12.5849883"><ele>207.0</ele><time>2026-03-29T08:59:15.957Z</time></trkpt><trkpt lat="43.7525267" lon="12.5849"><ele>207.0</ele><time>2026-03-29T08:59:16.958Z</time></trkpt><trkpt lat="43.7526883" lon="12.584815"><ele>207.0</ele><time>2026-03-29T08:59:17.958Z</time></trkpt><trkpt lat="43.7528517" lon="12.5847317"><ele>207.0</ele><time>2026-03-29T08:59:18.957Z</time></trkpt><trkpt lat="43.7530233" lon="12.5846617"><ele>206.33333333333331</ele><time>2026-03-29T08:59:19.957Z</time></trkpt><trkpt lat="43.7532017" lon="12.5845933"><ele>205.66666666666666</ele><time>2026-03-29T08:59:20.958Z</time></trkpt><trkpt lat="43.7533783" lon="12.5845267"><ele>205.0</ele><time>2026-03-29T08:59:21.957Z</time></trkpt><trkpt lat="43.7535533" lon="12.5844683"><ele>205.0</ele><time>2026-03-29T08:59:22.957Z</time></trkpt><trkpt lat="43.7537317" lon="12.5844217"><ele>205.0</ele><time>2026-03-29T08:59:23.958Z</time></trkpt><trkpt lat="43.7538917" lon="12.5843883"><ele>205.0</ele><time>2026-03-29T08:59:24.957Z</time></trkpt><trkpt lat="43.7540533" lon="12.5843633"><ele>205.0</ele><time>2026-03-29T08:59:25.958Z</time></trkpt><trkpt lat="43.754205" lon="12.5843533"><ele>205.0</ele><time>2026-03-29T08:59:26.958Z</time></trkpt><trkpt lat="43.754355" lon="12.584345"><ele>205.0</ele><time>2026-03-29T08:59:27.957Z</time></trkpt><trkpt lat="43.754475" lon="12.584315"><ele>205.0</ele><time>2026-03-29T08:59:28.957Z</time></trkpt><trkpt lat="43.754585" lon="12.5842617"><ele>201.25</ele><time>2026-03-29T08:59:29.957Z</time></trkpt><trkpt lat="43.7546867" lon="12.584185"><ele>197.5</ele><time>2026-03-29T08:59:30.958Z</time></trkpt><trkpt lat="43.75475" lon="12.5840633"><ele>193.75</ele><time>2026-03-29T08:59:31.958Z</time></trkpt><trkpt lat="43.754795" lon="12.58391"><ele>190.0</ele><time>2026-03-29T08:59:32.958Z</time></trkpt><trkpt lat="43.754795" lon="12.583735"><ele>191.0</ele><time>2026-03-29T08:59:33.958Z</time></trkpt><trkpt lat="43.7547733" lon="12.5835483"><ele>192.0</ele><time>2026-03-29T08:59:34.957Z</time></trkpt><trkpt lat="43.7547483" lon="12.58335"><ele>193.0</ele><time>2026-03-29T08:59:35.957Z</time></trkpt><trkpt lat="43.7547317" lon="12.5831517"><ele>194.0</ele><time>2026-03-29T08:59:36.957Z</time></trkpt><trkpt lat="43.7547167" lon="12.5829483"><ele>193.75</ele><time>2026-03-29T08:59:37.958Z</time></trkpt><trkpt lat="43.7547167" lon="12.5827417"><ele>193.5</ele><time>2026-03-29T08:59:38.958Z</time></trkpt><trkpt lat="43.7547217" lon="12.582535"><ele>193.25</ele><time>2026-03-29T08:59:39.958Z</time></trkpt><trkpt lat="43.754735" lon="12.5823383"><ele>193.0</ele><time>2026-03-29T08:59:40.957Z</time></trkpt><trkpt lat="43.7547433" lon="12.5821617"><ele>192.60000000000002</ele><time>2026-03-29T08:59:41.957Z</time></trkpt><trkpt lat="43.75475" lon="12.5820017"><ele>192.20000000000002</ele><time>2026-03-29T08:59:42.958Z</time></trkpt><trkpt lat="43.7547517" lon="12.5818833"><ele>191.8</ele><time>2026-03-29T08:59:43.958Z</time></trkpt><trkpt lat="43.75478" lon="12.5817483"><ele>191.4</ele><time>2026-03-29T08:59:45.957Z</time></trkpt><trkpt lat="43.7547117" lon="12.58167"><ele>191.0</ele><time>2026-03-29T08:59:49.957Z</time></trkpt><trkpt lat="43.7546067" lon="12.5815933"><ele>191.0</ele><time>2026-03-29T08:59:51.958Z</time></trkpt><trkpt lat="43.75456" lon="12.581525"><ele>191.0</ele><time>2026-03-29T08:59:52.958Z</time></trkpt><trkpt lat="43.754515" lon="12.5814483"><ele>191.0</ele><time>2026-03-29T08:59:53.958Z</time></trkpt><trkpt lat="43.75447" lon="12.5813667"><ele>191.0</ele><time>2026-03-29T08:59:54.958Z</time></trkpt><trkpt lat="43.7544217" lon="12.5812883"><ele>191.0</ele><time>2026-03-29T08:59:55.958Z</time></trkpt><trkpt lat="43.754375" lon="12.5812067"><ele>191.0</ele><time>2026-03-29T08:59:56.958Z</time></trkpt><trkpt lat="43.754325" lon="12.5811283"><ele>191.0</ele><time>2026-03-29T08:59:57.957Z</time></trkpt><trkpt lat="43.7542683" lon="12.581045"><ele>193.16666666666666</ele><time>2026-03-29T08:59:58.958Z</time></trkpt><trkpt lat="43.7542117" lon="12.58097"><ele>195.33333333333331</ele><time>2026-03-29T08:59:59.957Z</time></trkpt><trkpt lat="43.7541467" lon="12.5809067"><ele>197.5</ele><time>2026-03-29T09:00:00.958Z</time></trkpt><trkpt lat="43.7540917" lon="12.5808483"><ele>199.66666666666666</ele><time>2026-03-29T09:00:01.958Z</time></trkpt><trkpt lat="43.7540383" lon="12.58078"><ele>201.83333333333334</ele><time>2026-03-29T09:00:02.958Z</time></trkpt><trkpt lat="43.7539733" lon="12.58072"><ele>204.0</ele><time>2026-03-29T09:00:03.958Z</time></trkpt><trkpt lat="43.7539083" lon="12.5806517"><ele>204.0</ele><time>2026-03-29T09:00:04.957Z</time></trkpt><trkpt lat="43.7538317" lon="12.580585"><ele>204.0</ele><time>2026-03-29T09:00:05.958Z</time></trkpt><trkpt lat="43.7537417" lon="12.5805267"><ele>204.0</ele><time>2026-03-29T09:00:06.957Z</time></trkpt><trkpt lat="43.753655" lon="12.5804783"><ele>204.0</ele><time>2026-03-29T09:00:07.958Z</time></trkpt><trkpt lat="43.7535633" lon="12.5804683"><ele>204.0</ele><time>2026-03-29T09:00:08.958Z</time></trkpt><trkpt lat="43.753475" lon="12.5804533"><ele>209.5</ele><time>2026-03-29T09:00:09.957Z</time></trkpt><trkpt lat="43.7533617" lon="12.5804533"><ele>215.0</ele><time>2026-03-29T09:00:10.958Z</time></trkpt><trkpt lat="43.7532467" lon="12.5804517"><ele>220.5</ele><time>2026-03-29T09:00:11.958Z</time></trkpt><trkpt lat="43.7531333" lon="12.580445"><ele>226.0</ele><time>2026-03-29T09:00:12.958Z</time></trkpt><trkpt lat="43.75301" lon="12.58044"><ele>226.0</ele><time>2026-03-29T09:00:13.957Z</time></trkpt><trkpt lat="43.7528983" lon="12.5804467"><ele>226.00000000000003</ele><time>2026-03-29T09:00:14.958Z</time></trkpt><trkpt lat="43.7527833" lon="12.5804633"><ele>226.00000000000003</ele><time>2026-03-29T09:00:15.958Z</time></trkpt><trkpt lat="43.75268" lon="12.58048"><ele>226.0</ele><time>2026-03-29T09:00:16.958Z</time></trkpt><trkpt lat="43.752575" lon="12.5805033"><ele>226.0</ele><time>2026-03-29T09:00:17.958Z</time></trkpt><trkpt lat="43.7524633" lon="12.5805217"><ele>225.66666666666666</ele><time>2026-03-29T09:00:18.958Z</time></trkpt><trkpt lat="43.7523567" lon="12.5805317"><ele>225.33333333333331</ele><time>2026-03-29T09:00:19.958Z</time></trkpt><trkpt lat="43.75227" lon="12.580535"><ele>225.0</ele><time>2026-03-29T09:00:20.958Z</time></trkpt><trkpt lat="43.752185" lon="12.58052"><ele>224.66666666666669</ele><time>2026-03-29T09:00:21.958Z</time></trkpt><trkpt lat="43.752115" lon="12.5804683"><ele>224.33333333333334</ele><time>2026-03-29T09:00:22.958Z</time></trkpt><trkpt lat="43.752055" lon="12.5804"><ele>224.0</ele><time>2026-03-29T09:00:23.958Z</time></trkpt><trkpt lat="43.75199" lon="12.58031"><ele>224.0</ele><time>2026-03-29T09:00:24.957Z</time></trkpt><trkpt lat="43.75193" lon="12.5801967"><ele>223.99999999999997</ele><time>2026-03-29T09:00:25.958Z</time></trkpt><trkpt lat="43.75191" lon="12.5800733"><ele>223.99999999999997</ele><time>2026-03-29T09:00:26.958Z</time></trkpt><trkpt lat="43.7519183" lon="12.579955"><ele>224.0</ele><time>2026-03-29T09:00:27.958Z</time></trkpt><trkpt lat="43.7519417" lon="12.5798417"><ele>224.0</ele><time>2026-03-29T09:00:28.957Z</time></trkpt><trkpt lat="43.7519767" lon="12.5797217"><ele>224.0</ele><time>2026-03-29T09:00:29.958Z</time></trkpt><trkpt lat="43.7520167" lon="12.57959"><ele>223.99999999999997</ele><time>2026-03-29T09:00:30.958Z</time></trkpt><trkpt lat="43.752035" lon="12.5794733"><ele>223.99999999999997</ele><time>2026-03-29T09:00:31.957Z</time></trkpt><trkpt lat="43.7520317" lon="12.5793467"><ele>224.0</ele><time>2026-03-29T09:00:32.958Z</time></trkpt><trkpt lat="43.7520067" lon="12.57921"><ele>224.0</ele><time>2026-03-29T09:00:33.957Z</time></trkpt><trkpt lat="43.751995" lon="12.57908"><ele>224.00000000000003</ele><time>2026-03-29T09:00:34.958Z</time></trkpt><trkpt lat="43.7519967" lon="12.5789483"><ele>224.0</ele><time>2026-03-29T09:00:35.958Z</time></trkpt><trkpt lat="43.7520117" lon="12.57884"><ele>224.0</ele><time>2026-03-29T09:00:36.958Z</time></trkpt><trkpt lat="43.7520217" lon="12.5787133"><ele>224.0</ele><time>2026-03-29T09:00:37.957Z</time></trkpt><trkpt lat="43.752015" lon="12.57861"><ele>224.00000000000003</ele><time>2026-03-29T09:00:38.958Z</time></trkpt><trkpt lat="43.7520033" lon="12.5785067"><ele>224.0</ele><time>2026-03-29T09:00:39.958Z</time></trkpt><trkpt lat="43.75197" lon="12.5784083"><ele>224.00000000000003</ele><time>2026-03-29T09:00:40.957Z</time></trkpt><trkpt lat="43.75192" lon="12.5783533"><ele>224.0</ele><time>2026-03-29T09:00:41.958Z</time></trkpt><trkpt lat="43.75186" lon="12.5783017"><ele>224.0</ele><time>2026-03-29T09:00:42.958Z</time></trkpt><trkpt lat="43.7517917" lon="12.5782783"><ele>224.0</ele><time>2026-03-29T09:00:43.957Z</time></trkpt><trkpt lat="43.75169" lon="12.5782717"><ele>224.00000000000003</ele><time>2026-03-29T09:00:44.958Z</time></trkpt><trkpt lat="43.7515867" lon="12.5782583"><ele>224.0</ele><time>2026-03-29T09:00:45.957Z</time></trkpt><trkpt lat="43.7514917" lon="12.5782217"><ele>229.79999999999998</ele><time>2026-03-29T09:00:46.957Z</time></trkpt><trkpt lat="43.7513933" lon="12.578185"><ele>235.59999999999997</ele><time>2026-03-29T09:00:47.957Z</time></trkpt><trkpt lat="43.751305" lon="12.578135"><ele>241.4</ele><time>2026-03-29T09:00:48.957Z</time></trkpt><trkpt lat="43.7512317" lon="12.5780967"><ele>247.2</ele><time>2026-03-29T09:00:49.958Z</time></trkpt><trkpt lat="43.7511617" lon="12.57808"><ele>253.0</ele><time>2026-03-29T09:00:50.957Z</time></trkpt><trkpt lat="43.7510567" lon="12.5780983"><ele>254.66666666666666</ele><time>2026-03-29T09:00:52.958Z</time></trkpt><trkpt lat="43.7510033" lon="12.57816"><ele>256.3333333333333</ele><time>2026-03-29T09:00:53.958Z</time></trkpt><trkpt lat="43.75097" lon="12.5782617"><ele>258.0</ele><time>2026-03-29T09:00:54.957Z</time></trkpt><trkpt lat="43.750935" lon="12.5783767"><ele>259.6666666666667</ele><time>2026-03-29T09:00:55.957Z</time></trkpt><trkpt lat="43.7508833" lon="12.5784817"><ele>261.33333333333337</ele><time>2026-03-29T09:00:56.958Z</time></trkpt><trkpt lat="43.7508167" lon="12.578585"><ele>263.0</ele><time>2026-03-29T09:00:57.957Z</time></trkpt><trkpt lat="43.7507333" lon="12.5787017"><ele>264.75</ele><time>2026-03-29T09:00:58.957Z</time></trkpt><trkpt lat="43.75065" lon="12.5788217"><ele>266.5</ele><time>2026-03-29T09:00:59.958Z</time></trkpt><trkpt lat="43.7505617" lon="12.578945"><ele>268.25</ele><time>2026-03-29T09:01:00.959Z</time></trkpt><trkpt lat="43.75048" lon="12.5790717"><ele>270.0</ele><time>2026-03-29T09:01:01.958Z</time></trkpt><trkpt lat="43.7503983" lon="12.5791933"><ele>270.0</ele><time>2026-03-29T09:01:02.959Z</time></trkpt><trkpt lat="43.7503133" lon="12.5793133"><ele>270.0</ele><time>2026-03-29T09:01:03.958Z</time></trkpt><trkpt lat="43.7502333" lon="12.5794283"><ele>270.0</ele><time>2026-03-29T09:01:04.959Z</time></trkpt><trkpt lat="43.75017" lon="12.57953"><ele>270.0</ele><time>2026-03-29T09:01:05.959Z</time></trkpt><trkpt lat="43.7501317" lon="12.5796267"><ele>270.0</ele><time>2026-03-29T09:01:06.958Z</time></trkpt><trkpt lat="43.7501233" lon="12.579795"><ele>273.4</ele><time>2026-03-29T09:01:08.958Z</time></trkpt><trkpt lat="43.7501117" lon="12.5799517"><ele>276.8</ele><time>2026-03-29T09:01:10.959Z</time></trkpt><trkpt lat="43.7500217" lon="12.580095"><ele>280.2</ele><time>2026-03-29T09:01:12.959Z</time></trkpt><trkpt lat="43.7499483" lon="12.5801717"><ele>283.6</ele><time>2026-03-29T09:01:13.959Z</time></trkpt><trkpt lat="43.7498583" lon="12.5802483"><ele>287.0</ele><time>2026-03-29T09:01:14.959Z</time></trkpt><trkpt lat="43.7497617" lon="12.5803633"><ele>287.0</ele><time>2026-03-29T09:01:15.959Z</time></trkpt><trkpt lat="43.7496683" lon="12.5804933"><ele>287.0</ele><time>2026-03-29T09:01:16.959Z</time></trkpt><trkpt lat="43.7495667" lon="12.5806333"><ele>287.0</ele><time>2026-03-29T09:01:17.959Z</time></trkpt><trkpt lat="43.7494633" lon="12.580785"><ele>287.0</ele><time>2026-03-29T09:01:18.959Z</time></trkpt><trkpt lat="43.74938" lon="12.5809267"><ele>292.2</ele><time>2026-03-29T09:01:19.958Z</time></trkpt><trkpt lat="43.7493067" lon="12.5810517"><ele>297.4</ele><time>2026-03-29T09:01:20.958Z</time></trkpt><trkpt lat="43.74924" lon="12.5811733"><ele>302.6</ele><time>2026-03-29T09:01:21.958Z</time></trkpt><trkpt lat="43.749185" lon="12.5812883"><ele>307.8</ele><time>2026-03-29T09:01:22.959Z</time></trkpt><trkpt lat="43.7491433" lon="12.5813967"><ele>313.0</ele><time>2026-03-29T09:01:23.958Z</time></trkpt><trkpt lat="43.7491217" lon="12.5815017"><ele>313.66666666666663</ele><time>2026-03-29T09:01:24.959Z</time></trkpt><trkpt lat="43.7491133" lon="12.581605"><ele>314.3333333333333</ele><time>2026-03-29T09:01:25.959Z</time></trkpt><trkpt lat="43.7491317" lon="12.5817133"><ele>315.0</ele><time>2026-03-29T09:01:26.958Z</time></trkpt><trkpt lat="43.7491567" lon="12.5817933"><ele>315.6666666666667</ele><time>2026-03-29T09:01:27.959Z</time></trkpt><trkpt lat="43.7492017" lon="12.5818617"><ele>316.33333333333337</ele><time>2026-03-29T09:01:28.958Z</time></trkpt><trkpt lat="43.7492667" lon="12.5819167"><ele>317.0</ele><time>2026-03-29T09:01:29.959Z</time></trkpt><trkpt lat="43.7493833" lon="12.5819567"><ele>317.75</ele><time>2026-03-29T09:01:30.959Z</time></trkpt><trkpt lat="43.7495133" lon="12.58201"><ele>318.5</ele><time>2026-03-29T09:01:31.959Z</time></trkpt><trkpt lat="43.749615" lon="12.58206"><ele>319.25</ele><time>2026-03-29T09:01:32.959Z</time></trkpt><trkpt lat="43.7497" lon="12.582105"><ele>320.0</ele><time>2026-03-29T09:01:33.959Z</time></trkpt><trkpt lat="43.7497917" lon="12.582215"><ele>320.0</ele><time>2026-03-29T09:01:35.958Z</time></trkpt><trkpt lat="43.7497867" lon="12.582345"><ele>320.0</ele><time>2026-03-29T09:01:37.958Z</time></trkpt><trkpt lat="43.74971" lon="12.5824317"><ele>320.0</ele><time>2026-03-29T09:01:39.959Z</time></trkpt><trkpt lat="43.74964" lon="12.5824517"><ele>320.0</ele><time>2026-03-29T09:01:40.959Z</time></trkpt><trkpt lat="43.7495317" lon="12.5824433"><ele>320.0</ele><time>2026-03-29T09:01:41.959Z</time></trkpt><trkpt lat="43.7494183" lon="12.582415"><ele>319.2</ele><time>2026-03-29T09:01:42.959Z</time></trkpt><trkpt lat="43.7493117" lon="12.5823583"><ele>318.4</ele><time>2026-03-29T09:01:43.958Z</time></trkpt><trkpt lat="43.7492117" lon="12.5822917"><ele>317.6</ele><time>2026-03-29T09:01:44.959Z</time></trkpt><trkpt lat="43.749115" lon="12.5822217"><ele>316.8</ele><time>2026-03-29T09:01:45.959Z</time></trkpt><trkpt lat="43.7490183" lon="12.5821533"><ele>316.0</ele><time>2026-03-29T09:01:46.959Z</time></trkpt><trkpt lat="43.7489117" lon="12.58209"><ele>316.0</ele><time>2026-03-29T09:01:47.959Z</time></trkpt><trkpt lat="43.7488" lon="12.5820267"><ele>316.0</ele><time>2026-03-29T09:01:48.958Z</time></trkpt><trkpt lat="43.74868" lon="12.5819683"><ele>316.0</ele><time>2026-03-29T09:01:49.958Z</time></trkpt><trkpt lat="43.7485583" lon="12.5818967"><ele>316.0</ele><time>2026-03-29T09:01:50.959Z</time></trkpt><trkpt lat="43.748445" lon="12.5818333"><ele>319.6</ele><time>2026-03-29T09:01:51.958Z</time></trkpt><trkpt lat="43.7483367" lon="12.5817733"><ele>323.20000000000005</ele><time>2026-03-29T09:01:52.959Z</time></trkpt><trkpt lat="43.7482283" lon="12.5817367"><ele>326.79999999999995</ele><time>2026-03-29T09:01:53.959Z</time></trkpt><trkpt lat="43.7481217" lon="12.58172"><ele>330.4</ele><time>2026-03-29T09:01:54.958Z</time></trkpt><trkpt lat="43.7480183" lon="12.5817033"><ele>334.0</ele><time>2026-03-29T09:01:55.958Z</time></trkpt><trkpt lat="43.7478967" lon="12.5817117"><ele>334.0</ele><time>2026-03-29T09:01:56.959Z</time></trkpt><trkpt lat="43.7477817" lon="12.58169"><ele>334.0</ele><time>2026-03-29T09:01:57.959Z</time></trkpt><trkpt lat="43.7476833" lon="12.5816333"><ele>334.0</ele><time>2026-03-29T09:01:58.958Z</time></trkpt><trkpt lat="43.747585" lon="12.5815633"><ele>334.0</ele><time>2026-03-29T09:01:59.959Z</time></trkpt><trkpt lat="43.7474883" lon="12.5815067"><ele>334.0</ele><time>2026-03-29T09:02:00.959Z</time></trkpt><trkpt lat="43.7473817" lon="12.5814667"><ele>335.0</ele><time>2026-03-29T09:02:01.958Z</time></trkpt><trkpt lat="43.7472767" lon="12.5814883"><ele>336.0</ele><time>2026-03-29T09:02:02.959Z</time></trkpt><trkpt lat="43.7471683" lon="12.5815517"><ele>337.0</ele><time>2026-03-29T09:02:03.958Z</time></trkpt><trkpt lat="43.7470483" lon="12.5816317"><ele>338.0</ele><time>2026-03-29T09:02:04.959Z</time></trkpt><trkpt lat="43.74693" lon="12.5817"><ele>340.0</ele><time>2026-03-29T09:02:05.958Z</time></trkpt><trkpt lat="43.7468233" lon="12.5817417"><ele>342.0</ele><time>2026-03-29T09:02:06.959Z</time></trkpt><trkpt lat="43.7467167" lon="12.581745"><ele>344.0</ele><time>2026-03-29T09:02:07.959Z</time></trkpt><trkpt lat="43.746605" lon="12.5817067"><ele>346.0</ele><time>2026-03-29T09:02:08.958Z</time></trkpt><trkpt lat="43.7464933" lon="12.5816617"><ele>348.0</ele><time>2026-03-29T09:02:09.958Z</time></trkpt><trkpt lat="43.7463783" lon="12.5816133"><ele>348.0</ele><time>2026-03-29T09:02:10.959Z</time></trkpt><trkpt lat="43.7462667" lon="12.5815817"><ele>348.0</ele><time>2026-03-29T09:02:11.959Z</time></trkpt><trkpt lat="43.74615" lon="12.5815917"><ele>348.0</ele><time>2026-03-29T09:02:12.958Z</time></trkpt><trkpt lat="43.7460333" lon="12.581635"><ele>348.0</ele><time>2026-03-29T09:02:13.958Z</time></trkpt><trkpt lat="43.74593" lon="12.5816983"><ele>349.0</ele><time>2026-03-29T09:02:14.959Z</time></trkpt><trkpt lat="43.7458367" lon="12.581785"><ele>350.0</ele><time>2026-03-29T09:02:15.959Z</time></trkpt><trkpt lat="43.7457617" lon="12.5818567"><ele>351.0</ele><time>2026-03-29T09:02:16.959Z</time></trkpt><trkpt lat="43.7456833" lon="12.581915"><ele>352.0</ele><time>2026-03-29T09:02:17.959Z</time></trkpt><trkpt lat="43.7456017" lon="12.581945"><ele>353.0</ele><time>2026-03-29T09:02:18.959Z</time></trkpt><trkpt lat="43.74551" lon="12.5819467"><ele>353.0</ele><time>2026-03-29T09:02:19.958Z</time></trkpt><trkpt lat="43.745415" lon="12.58193"><ele>353.0</ele><time>2026-03-29T09:02:20.959Z</time></trkpt><trkpt lat="43.7453167" lon="12.5818767"><ele>353.0</ele><time>2026-03-29T09:02:21.959Z</time></trkpt><trkpt lat="43.745225" lon="12.581795"><ele>353.0</ele><time>2026-03-29T09:02:22.959Z</time></trkpt><trkpt lat="43.74515" lon="12.5817083"><ele>353.0</ele><time>2026-03-29T09:02:23.959Z</time></trkpt><trkpt lat="43.7450583" lon="12.5816533"><ele>350.79999999999995</ele><time>2026-03-29T09:02:24.959Z</time></trkpt><trkpt lat="43.744965" lon="12.5816033"><ele>348.6</ele><time>2026-03-29T09:02:25.959Z</time></trkpt><trkpt lat="43.7448567" lon="12.581555"><ele>346.4</ele><time>2026-03-29T09:02:26.959Z</time></trkpt><trkpt lat="43.7447517" lon="12.581495"><ele>344.20000000000005</ele><time>2026-03-29T09:02:27.958Z</time></trkpt><trkpt lat="43.7446483" lon="12.58144"><ele>342.0</ele><time>2026-03-29T09:02:28.958Z</time></trkpt><trkpt lat="43.7445483" lon="12.5813783"><ele>342.0</ele><time>2026-03-29T09:02:29.958Z</time></trkpt><trkpt lat="43.7444483" lon="12.5813183"><ele>342.0</ele><time>2026-03-29T09:02:30.959Z</time></trkpt><trkpt lat="43.7443667" lon="12.5812633"><ele>342.0</ele><time>2026-03-29T09:02:31.958Z</time></trkpt><trkpt lat="43.744295" lon="12.5812167"><ele>342.0</ele><time>2026-03-29T09:02:32.959Z</time></trkpt><trkpt lat="43.7442283" lon="12.5811817"><ele>342.0</ele><time>2026-03-29T09:02:33.958Z</time></trkpt><trkpt lat="43.74416" lon="12.58117"><ele>342.0</ele><time>2026-03-29T09:02:34.958Z</time></trkpt><trkpt lat="43.7440767" lon="12.5811983"><ele>337.25</ele><time>2026-03-29T09:02:35.959Z</time></trkpt><trkpt lat="43.7439833" lon="12.5812617"><ele>332.5</ele><time>2026-03-29T09:02:36.958Z</time></trkpt><trkpt lat="43.7438783" lon="12.581345"><ele>327.75</ele><time>2026-03-29T09:02:37.959Z</time></trkpt><trkpt lat="43.743785" lon="12.581465"><ele>323.0</ele><time>2026-03-29T09:02:38.958Z</time></trkpt><trkpt lat="43.7437217" lon="12.58158"><ele>323.0</ele><time>2026-03-29T09:02:39.959Z</time></trkpt><trkpt lat="43.7436633" lon="12.5816983"><ele>323.0</ele><time>2026-03-29T09:02:40.959Z</time></trkpt><trkpt lat="43.7436217" lon="12.5818133"><ele>323.0</ele><time>2026-03-29T09:02:41.958Z</time></trkpt><trkpt lat="43.7435767" lon="12.5819383"><ele>323.0</ele><time>2026-03-29T09:02:42.959Z</time></trkpt><trkpt lat="43.7435333" lon="12.5820583"><ele>323.0</ele><time>2026-03-29T09:02:43.958Z</time></trkpt><trkpt lat="43.7434917" lon="12.58216"><ele>321.6666666666667</ele><time>2026-03-29T09:02:44.958Z</time></trkpt><trkpt lat="43.7434417" lon="12.5822483"><ele>320.33333333333337</ele><time>2026-03-29T09:02:45.958Z</time></trkpt><trkpt lat="43.7433817" lon="12.5823117"><ele>319.0</ele><time>2026-03-29T09:02:47.959Z</time></trkpt><trkpt lat="43.7432917" lon="12.5822283"><ele>317.6666666666667</ele><time>2026-03-29T09:02:59.959Z</time></trkpt><trkpt lat="43.7432433" lon="12.5821433"><ele>316.3333333333333</ele><time>2026-03-29T09:03:00.958Z</time></trkpt><trkpt lat="43.7431767" lon="12.58206"><ele>315.0</ele><time>2026-03-29T09:03:01.958Z</time></trkpt><trkpt lat="43.7430867" lon="12.5819733"><ele>318.0</ele><time>2026-03-29T09:03:02.958Z</time></trkpt><trkpt lat="43.7429883" lon="12.5818783"><ele>321.0</ele><time>2026-03-29T09:03:03.959Z</time></trkpt><trkpt lat="43.742885" lon="12.5817883"><ele>324.0</ele><time>2026-03-29T09:03:04.959Z</time></trkpt><trkpt lat="43.7427817" lon="12.581705"><ele>327.0</ele><time>2026-03-29T09:03:05.958Z</time></trkpt><trkpt lat="43.7426767" lon="12.5816217"><ele>327.0</ele><time>2026-03-29T09:03:06.959Z</time></trkpt><trkpt lat="43.74257" lon="12.5815467"><ele>327.0</ele><time>2026-03-29T09:03:07.959Z</time></trkpt><trkpt lat="43.74244" lon="12.5815067"><ele>327.0</ele><time>2026-03-29T09:03:08.959Z</time></trkpt><trkpt lat="43.7423233" lon="12.5814783"><ele>327.0</ele><time>2026-03-29T09:03:09.959Z</time></trkpt><trkpt lat="43.7422" lon="12.5814633"><ele>327.0</ele><time>2026-03-29T09:03:10.959Z</time></trkpt><trkpt lat="43.7420733" lon="12.5814717"><ele>327.0</ele><time>2026-03-29T09:03:11.958Z</time></trkpt><trkpt lat="43.741945" lon="12.58151"><ele>327.0</ele><time>2026-03-29T09:03:12.958Z</time></trkpt><trkpt lat="43.741825" lon="12.58158"><ele>327.0</ele><time>2026-03-29T09:03:13.959Z</time></trkpt><trkpt lat="43.74172" lon="12.5816617"><ele>327.20000000000005</ele><time>2026-03-29T09:03:14.958Z</time></trkpt><trkpt lat="43.7416317" lon="12.5817183"><ele>327.4</ele><time>2026-03-29T09:03:15.958Z</time></trkpt><trkpt lat="43.74153" lon="12.58176"><ele>327.6</ele><time>2026-03-29T09:03:16.959Z</time></trkpt><trkpt lat="43.74143" lon="12.581785"><ele>327.79999999999995</ele><time>2026-03-29T09:03:17.958Z</time></trkpt><trkpt lat="43.7413317" lon="12.5817767"><ele>328.0</ele><time>2026-03-29T09:03:18.959Z</time></trkpt><trkpt lat="43.7412333" lon="12.58176"><ele>328.0</ele><time>2026-03-29T09:03:19.958Z</time></trkpt><trkpt lat="43.7411467" lon="12.5817233"><ele>328.0</ele><time>2026-03-29T09:03:20.958Z</time></trkpt><trkpt lat="43.741065" lon="12.5816683"><ele>328.0</ele><time>2026-03-29T09:03:21.958Z</time></trkpt><trkpt lat="43.7409883" lon="12.5815933"><ele>328.0</ele><time>2026-03-29T09:03:22.959Z</time></trkpt><trkpt lat="43.7409233" lon="12.5814867"><ele>328.0</ele><time>2026-03-29T09:03:23.959Z</time></trkpt><trkpt lat="43.74086" lon="12.58137"><ele>328.79999999999995</ele><time>2026-03-29T09:03:24.959Z</time></trkpt><trkpt lat="43.740805" lon="12.5812467"><ele>329.6</ele><time>2026-03-29T09:03:25.959Z</time></trkpt><trkpt lat="43.7407383" lon="12.5811333"><ele>330.4</ele><time>2026-03-29T09:03:26.959Z</time></trkpt><trkpt lat="43.7406533" lon="12.5810333"><ele>331.20000000000005</ele><time>2026-03-29T09:03:27.958Z</time></trkpt><trkpt lat="43.7405517" lon="12.580945"><ele>332.0</ele><time>2026-03-29T09:03:28.958Z</time></trkpt><trkpt lat="43.7404283" lon="12.5808633"><ele>332.0</ele><time>2026-03-29T09:03:29.959Z</time></trkpt><trkpt lat="43.7402933" lon="12.5807783"><ele>332.0</ele><time>2026-03-29T09:03:30.959Z</time></trkpt><trkpt lat="43.740145" lon="12.580685"><ele>332.0</ele><time>2026-03-29T09:03:31.958Z</time></trkpt><trkpt lat="43.7399983" lon="12.5806017"><ele>329.33333333333337</ele><time>2026-03-29T09:03:32.958Z</time></trkpt><trkpt lat="43.7398567" lon="12.5805133"><ele>326.6666666666667</ele><time>2026-03-29T09:03:33.958Z</time></trkpt><trkpt lat="43.7397083" lon="12.5804383"><ele>324.0</ele><time>2026-03-29T09:03:34.958Z</time></trkpt><trkpt lat="43.7395783" lon="12.5803533"><ele>326.79999999999995</ele><time>2026-03-29T09:03:35.959Z</time></trkpt><trkpt lat="43.739465" lon="12.5802817"><ele>329.59999999999997</ele><time>2026-03-29T09:03:36.958Z</time></trkpt><trkpt lat="43.7393733" lon="12.58022"><ele>332.4</ele><time>2026-03-29T09:03:37.959Z</time></trkpt><trkpt lat="43.7392883" lon="12.5801533"><ele>335.2</ele><time>2026-03-29T09:03:38.958Z</time></trkpt><trkpt lat="43.7392217" lon="12.5800733"><ele>338.0</ele><time>2026-03-29T09:03:39.959Z</time></trkpt><trkpt lat="43.7391833" lon="12.5799833"><ele>338.0</ele><time>2026-03-29T09:03:40.959Z</time></trkpt><trkpt lat="43.739155" lon="12.5799"><ele>338.0</ele><time>2026-03-29T09:03:41.959Z</time></trkpt><trkpt lat="43.73908" lon="12.579795"><ele>338.0</ele><time>2026-03-29T09:03:43.958Z</time></trkpt><trkpt lat="43.7389817" lon="12.5797533"><ele>338.0</ele><time>2026-03-29T09:03:45.959Z</time></trkpt><trkpt lat="43.738895" lon="12.579735"><ele>338.0</ele><time>2026-03-29T09:03:47.958Z</time></trkpt><trkpt lat="43.7388233" lon="12.5797433"><ele>338.0</ele><time>2026-03-29T09:04:02.959Z</time></trkpt><trkpt lat="43.738745" lon="12.5797733"><ele>338.0</ele><time>2026-03-29T09:04:04.959Z</time></trkpt><trkpt lat="43.738685" lon="12.5798083"><ele>338.0</ele><time>2026-03-29T09:04:05.958Z</time></trkpt><trkpt lat="43.7386133" lon="12.57987"><ele>338.0</ele><time>2026-03-29T09:04:06.958Z</time></trkpt><trkpt lat="43.73854" lon="12.5799567"><ele>338.0</ele><time>2026-03-29T09:04:07.959Z</time></trkpt><trkpt lat="43.738465" lon="12.5800517"><ele>338.0</ele><time>2026-03-29T09:04:08.959Z</time></trkpt><trkpt lat="43.7383983" lon="12.580165"><ele>338.25</ele><time>2026-03-29T09:04:09.959Z</time></trkpt><trkpt lat="43.73833" lon="12.5802933"><ele>338.5</ele><time>2026-03-29T09:04:10.958Z</time></trkpt><trkpt lat="43.7382617" lon="12.58044"><ele>338.75</ele><time>2026-03-29T09:04:11.959Z</time></trkpt><trkpt lat="43.7381767" lon="12.5805567"><ele>339.0</ele><time>2026-03-29T09:04:12.959Z</time></trkpt><trkpt lat="43.73808" lon="12.5806367"><ele>340.75</ele><time>2026-03-29T09:04:13.958Z</time></trkpt><trkpt lat="43.7379767" lon="12.5806683"><ele>342.5</ele><time>2026-03-29T09:04:14.959Z</time></trkpt><trkpt lat="43.7378717" lon="12.5806333"><ele>344.25</ele><time>2026-03-29T09:04:15.959Z</time></trkpt><trkpt lat="43.7377467" lon="12.5805883"><ele>346.0</ele><time>2026-03-29T09:04:16.958Z</time></trkpt><trkpt lat="43.737635" lon="12.5805083"><ele>345.20000000000005</ele><time>2026-03-29T09:04:17.959Z</time></trkpt><trkpt lat="43.7375233" lon="12.5804183"><ele>344.40000000000003</ele><time>2026-03-29T09:04:18.959Z</time></trkpt><trkpt lat="43.7374217" lon="12.580325"><ele>343.6</ele><time>2026-03-29T09:04:19.959Z</time></trkpt><trkpt lat="43.7373333" lon="12.5802367"><ele>342.8</ele><time>2026-03-29T09:04:20.958Z</time></trkpt><trkpt lat="43.737265" lon="12.5801817"><ele>342.0</ele><time>2026-03-29T09:04:21.959Z</time></trkpt><trkpt lat="43.7372" lon="12.5801467"><ele>342.0</ele><time>2026-03-29T09:04:22.959Z</time></trkpt><trkpt lat="43.7370867" lon="12.580165"><ele>342.0</ele><time>2026-03-29T09:04:24.958Z</time></trkpt><trkpt lat="43.7370283" lon="12.580235"><ele>342.0</ele><time>2026-03-29T09:04:25.958Z</time></trkpt><trkpt lat="43.7369467" lon="12.5803367"><ele>342.0</ele><time>2026-03-29T09:04:26.959Z</time></trkpt><trkpt lat="43.736855" lon="12.58045"><ele>342.0</ele><time>2026-03-29T09:04:27.959Z</time></trkpt><trkpt lat="43.7367533" lon="12.58054"><ele>346.0</ele><time>2026-03-29T09:04:28.958Z</time></trkpt><trkpt lat="43.7366433" lon="12.5806333"><ele>350.0</ele><time>2026-03-29T09:04:29.958Z</time></trkpt><trkpt lat="43.7365133" lon="12.5807033"><ele>354.0</ele><time>2026-03-29T09:04:30.958Z</time></trkpt><trkpt lat="43.73639" lon="12.5807433"><ele>358.0</ele><time>2026-03-29T09:04:31.958Z</time></trkpt><trkpt lat="43.7362567" lon="12.5807567"><ele>358.0</ele><time>2026-03-29T09:04:32.959Z</time></trkpt><trkpt lat="43.736115" lon="12.5807567"><ele>358.0</ele><time>2026-03-29T09:04:33.958Z</time></trkpt><trkpt lat="43.7360033" lon="12.5807417"><ele>358.0</ele><time>2026-03-29T09:04:34.959Z</time></trkpt><trkpt lat="43.7359167" lon="12.5806733"><ele>358.0</ele><time>2026-03-29T09:04:35.959Z</time></trkpt><trkpt lat="43.7358383" lon="12.5805733"><ele>356.75</ele><time>2026-03-29T09:04:36.958Z</time></trkpt><trkpt lat="43.7357583" lon="12.580445"><ele>355.5</ele><time>2026-03-29T09:04:37.959Z</time></trkpt><trkpt lat="43.7356683" lon="12.5803367"><ele>354.25</ele><time>2026-03-29T09:04:38.959Z</time></trkpt><trkpt lat="43.7355683" lon="12.5802483"><ele>353.0</ele><time>2026-03-29T09:04:39.958Z</time></trkpt><trkpt lat="43.7354533" lon="12.5802083"><ele>353.0</ele><time>2026-03-29T09:04:40.959Z</time></trkpt><trkpt lat="43.7353267" lon="12.5802017"><ele>353.0</ele><time>2026-03-29T09:04:41.958Z</time></trkpt><trkpt lat="43.7351683" lon="12.580225"><ele>353.0</ele><time>2026-03-29T09:04:42.959Z</time></trkpt><trkpt lat="43.7350117" lon="12.5802567"><ele>353.0</ele><time>2026-03-29T09:04:43.959Z</time></trkpt><trkpt lat="43.7348767" lon="12.580275"><ele>352.75</ele><time>2026-03-29T09:04:44.959Z</time></trkpt><trkpt lat="43.7347433" lon="12.5802933"><ele>352.5</ele><time>2026-03-29T09:04:45.959Z</time></trkpt><trkpt lat="43.7346217" lon="12.58031"><ele>352.25</ele><time>2026-03-29T09:04:46.958Z</time></trkpt><trkpt lat="43.7344983" lon="12.5803233"><ele>352.0</ele><time>2026-03-29T09:04:47.958Z</time></trkpt><trkpt lat="43.73438" lon="12.5803183"><ele>352.0</ele><time>2026-03-29T09:04:48.959Z</time></trkpt><trkpt lat="43.7342533" lon="12.5802883"><ele>352.0</ele><time>2026-03-29T09:04:49.959Z</time></trkpt><trkpt lat="43.7341217" lon="12.58025"><ele>352.0</ele><time>2026-03-29T09:04:50.958Z</time></trkpt><trkpt lat="43.7339767" lon="12.58022"><ele>352.0</ele><time>2026-03-29T09:04:51.959Z</time></trkpt><trkpt lat="43.7338383" lon="12.5801933"><ele>352.0</ele><time>2026-03-29T09:04:52.958Z</time></trkpt><trkpt lat="43.7336983" lon="12.5801883"><ele>352.0</ele><time>2026-03-29T09:04:53.958Z</time></trkpt><trkpt lat="43.7335733" lon="12.5801817"><ele>352.0</ele><time>2026-03-29T09:04:54.959Z</time></trkpt><trkpt lat="43.7334667" lon="12.5801633"><ele>352.0</ele><time>2026-03-29T09:04:55.958Z</time></trkpt><trkpt lat="43.733375" lon="12.5801217"><ele>351.0</ele><time>2026-03-29T09:04:56.958Z</time></trkpt><trkpt lat="43.7333" lon="12.5800717"><ele>350.0</ele><time>2026-03-29T09:04:57.958Z</time></trkpt><trkpt lat="43.733235" lon="12.5799983"><ele>349.0</ele><time>2026-03-29T09:04:58.959Z</time></trkpt><trkpt lat="43.7331567" lon="12.5799417"><ele>348.0</ele><time>2026-03-29T09:04:59.959Z</time></trkpt><trkpt lat="43.7330867" lon="12.57989"><ele>347.0</ele><time>2026-03-29T09:05:00.959Z</time></trkpt><trkpt lat="43.733005" lon="12.5798517"><ele>346.0</ele><time>2026-03-29T09:05:01.959Z</time></trkpt><trkpt lat="43.7329133" lon="12.579825"><ele>346.0</ele><time>2026-03-29T09:05:02.959Z</time></trkpt><trkpt lat="43.73281" lon="12.5798383"><ele>346.0</ele><time>2026-03-29T09:05:03.958Z</time></trkpt><trkpt lat="43.7327033" lon="12.579875"><ele>346.0</ele><time>2026-03-29T09:05:04.959Z</time></trkpt><trkpt lat="43.7325917" lon="12.57994"><ele>346.0</ele><time>2026-03-29T09:05:05.959Z</time></trkpt><trkpt lat="43.73251" lon="12.5800317"><ele>346.0</ele><time>2026-03-29T09:05:06.958Z</time></trkpt><trkpt lat="43.7324567" lon="12.5801333"><ele>345.5</ele><time>2026-03-29T09:05:07.959Z</time></trkpt><trkpt lat="43.732395" lon="12.5802583"><ele>345.0</ele><time>2026-03-29T09:05:08.958Z</time></trkpt><trkpt lat="43.7323233" lon="12.5803967"><ele>344.5</ele><time>2026-03-29T09:05:09.958Z</time></trkpt><trkpt lat="43.7322267" lon="12.5805267"><ele>344.0</ele><time>2026-03-29T09:05:10.959Z</time></trkpt><trkpt lat="43.7321383" lon="12.58065"><ele>346.5</ele><time>2026-03-29T09:05:11.958Z</time></trkpt><trkpt lat="43.7320383" lon="12.5807567"><ele>349.0</ele><time>2026-03-29T09:05:12.958Z</time></trkpt><trkpt lat="43.73194" lon="12.5808533"><ele>351.5</ele><time>2026-03-29T09:05:13.959Z</time></trkpt><trkpt lat="43.73183" lon="12.5808983"><ele>354.0</ele><time>2026-03-29T09:05:14.959Z</time></trkpt><trkpt lat="43.7317117" lon="12.5809017"><ele>354.0</ele><time>2026-03-29T09:05:15.959Z</time></trkpt><trkpt lat="43.7315983" lon="12.58089"><ele>354.0</ele><time>2026-03-29T09:05:16.959Z</time></trkpt><trkpt lat="43.731495" lon="12.5808617"><ele>354.0</ele><time>2026-03-29T09:05:17.959Z</time></trkpt><trkpt lat="43.7314017" lon="12.5808217"><ele>354.0</ele><time>2026-03-29T09:05:18.959Z</time></trkpt><trkpt lat="43.7313217" lon="12.580765"><ele>354.0</ele><time>2026-03-29T09:05:19.958Z</time></trkpt><trkpt lat="43.7312533" lon="12.58069"><ele>354.0</ele><time>2026-03-29T09:05:20.959Z</time></trkpt><trkpt lat="43.7312067" lon="12.5805917"><ele>354.0</ele><time>2026-03-29T09:05:21.959Z</time></trkpt><trkpt lat="43.7311717" lon="12.580475"><ele>354.0</ele><time>2026-03-29T09:05:22.959Z</time></trkpt><trkpt lat="43.7311433" lon="12.5803467"><ele>354.0</ele><time>2026-03-29T09:05:23.959Z</time></trkpt><trkpt lat="43.7311317" lon="12.5802"><ele>354.0</ele><time>2026-03-29T09:05:24.959Z</time></trkpt><trkpt lat="43.7311017" lon="12.580075"><ele>351.4</ele><time>2026-03-29T09:05:25.958Z</time></trkpt><trkpt lat="43.731075" lon="12.5799667"><ele>348.79999999999995</ele><time>2026-03-29T09:05:26.959Z</time></trkpt><trkpt lat="43.7310383" lon="12.5798783"><ele>346.20000000000005</ele><time>2026-03-29T09:05:27.959Z</time></trkpt><trkpt lat="43.7309767" lon="12.57979"><ele>343.6</ele><time>2026-03-29T09:05:28.958Z</time></trkpt><trkpt lat="43.7308833" lon="12.579725"><ele>341.0</ele><time>2026-03-29T09:05:29.959Z</time></trkpt><trkpt lat="43.730775" lon="12.5796633"><ele>343.8</ele><time>2026-03-29T09:05:30.958Z</time></trkpt><trkpt lat="43.7306767" lon="12.5795767"><ele>346.6</ele><time>2026-03-29T09:05:31.958Z</time></trkpt><trkpt lat="43.7305933" lon="12.5794733"><ele>349.4</ele><time>2026-03-29T09:05:32.959Z</time></trkpt><trkpt lat="43.730525" lon="12.5793583"><ele>352.2</ele><time>2026-03-29T09:05:33.958Z</time></trkpt><trkpt lat="43.730475" lon="12.5792317"><ele>355.0</ele><time>2026-03-29T09:05:34.959Z</time></trkpt><trkpt lat="43.7304417" lon="12.5791217"><ele>355.0</ele><time>2026-03-29T09:05:35.959Z</time></trkpt><trkpt lat="43.730415" lon="12.579025"><ele>355.0</ele><time>2026-03-29T09:05:36.958Z</time></trkpt><trkpt lat="43.7303733" lon="12.5789483"><ele>355.0</ele><time>2026-03-29T09:05:37.958Z</time></trkpt><trkpt lat="43.73029" lon="12.5788517"><ele>355.0</ele><time>2026-03-29T09:05:39.959Z</time></trkpt><trkpt lat="43.7301717" lon="12.5788583"><ele>355.0</ele><time>2026-03-29T09:05:41.958Z</time></trkpt><trkpt lat="43.7300867" lon="12.5788983"><ele>360.0</ele><time>2026-03-29T09:05:42.958Z</time></trkpt><trkpt lat="43.7299617" lon="12.5789717"><ele>365.0</ele><time>2026-03-29T09:05:43.958Z</time></trkpt><trkpt lat="43.7298483" lon="12.579015"><ele>370.0</ele><time>2026-03-29T09:05:44.959Z</time></trkpt><trkpt lat="43.7297367" lon="12.57905"><ele>375.0</ele><time>2026-03-29T09:05:45.959Z</time></trkpt><trkpt lat="43.7296283" lon="12.5791083"><ele>375.0</ele><time>2026-03-29T09:05:46.959Z</time></trkpt><trkpt lat="43.7295333" lon="12.5791433"><ele>375.0</ele><time>2026-03-29T09:05:47.958Z</time></trkpt><trkpt lat="43.7294283" lon="12.5791467"><ele>375.0</ele><time>2026-03-29T09:05:48.959Z</time></trkpt><trkpt lat="43.7293183" lon="12.5791217"><ele>375.0</ele><time>2026-03-29T09:05:49.958Z</time></trkpt><trkpt lat="43.7292233" lon="12.5790433"><ele>375.0</ele><time>2026-03-29T09:05:50.959Z</time></trkpt><trkpt lat="43.72912" lon="12.5789683"><ele>375.6666666666667</ele><time>2026-03-29T09:05:51.959Z</time></trkpt><trkpt lat="43.7290233" lon="12.57891"><ele>376.3333333333333</ele><time>2026-03-29T09:05:52.958Z</time></trkpt><trkpt lat="43.72893" lon="12.578875"><ele>377.0</ele><time>2026-03-29T09:05:53.958Z</time></trkpt><trkpt lat="43.728845" lon="12.5789017"><ele>377.66666666666663</ele><time>2026-03-29T09:05:54.959Z</time></trkpt><trkpt lat="43.7287717" lon="12.5789417"><ele>378.3333333333333</ele><time>2026-03-29T09:05:55.958Z</time></trkpt><trkpt lat="43.728735" lon="12.579015"><ele>379.0</ele><time>2026-03-29T09:05:56.958Z</time></trkpt><trkpt lat="43.7287167" lon="12.5791"><ele>379.0</ele><time>2026-03-29T09:05:57.958Z</time></trkpt><trkpt lat="43.7287383" lon="12.579235"><ele>379.0</ele><time>2026-03-29T09:05:58.959Z</time></trkpt><trkpt lat="43.7287917" lon="12.5794333"><ele>379.0</ele><time>2026-03-29T09:05:59.959Z</time></trkpt><trkpt lat="43.7288483" lon="12.5796483"><ele>379.0</ele><time>2026-03-29T09:06:00.959Z</time></trkpt><trkpt lat="43.72891" lon="12.5798933"><ele>383.0</ele><time>2026-03-29T09:06:01.959Z</time></trkpt><trkpt lat="43.7289483" lon="12.58013"><ele>387.0</ele><time>2026-03-29T09:06:02.959Z</time></trkpt><trkpt lat="43.7289633" lon="12.5803783"><ele>391.0</ele><time>2026-03-29T09:06:03.959Z</time></trkpt><trkpt lat="43.728955" lon="12.5806483"><ele>392.6666666666667</ele><time>2026-03-29T09:06:04.959Z</time></trkpt><trkpt lat="43.7289367" lon="12.5809633"><ele>394.33333333333337</ele><time>2026-03-29T09:06:05.959Z</time></trkpt><trkpt lat="43.728895" lon="12.5812567"><ele>396.0</ele><time>2026-03-29T09:06:06.958Z</time></trkpt><trkpt lat="43.7288333" lon="12.5815017"><ele>396.0</ele><time>2026-03-29T09:06:07.959Z</time></trkpt><trkpt lat="43.728785" lon="12.581675"><ele>396.0</ele><time>2026-03-29T09:06:08.958Z</time></trkpt><trkpt lat="43.7287283" lon="12.5818283"><ele>396.0</ele><time>2026-03-29T09:06:09.958Z</time></trkpt><trkpt lat="43.72866" lon="12.5819433"><ele>396.0</ele><time>2026-03-29T09:06:10.959Z</time></trkpt><trkpt lat="43.72857" lon="12.5820283"><ele>394.25</ele><time>2026-03-29T09:06:11.959Z</time></trkpt><trkpt lat="43.7284583" lon="12.58207"><ele>392.5</ele><time>2026-03-29T09:06:12.959Z</time></trkpt><trkpt lat="43.72833" lon="12.582035"><ele>390.75</ele><time>2026-03-29T09:06:13.959Z</time></trkpt><trkpt lat="43.7281783" lon="12.581975"><ele>389.0</ele><time>2026-03-29T09:06:14.958Z</time></trkpt><trkpt lat="43.7280367" lon="12.5819083"><ele>388.0</ele><time>2026-03-29T09:06:15.959Z</time></trkpt><trkpt lat="43.7279033" lon="12.5818583"><ele>387.0</ele><time>2026-03-29T09:06:16.958Z</time></trkpt><trkpt lat="43.727775" lon="12.58181"><ele>386.0</ele><time>2026-03-29T09:06:17.958Z</time></trkpt><trkpt lat="43.7276467" lon="12.5817883"><ele>385.0</ele><time>2026-03-29T09:06:18.959Z</time></trkpt><trkpt lat="43.7275183" lon="12.5817767"><ele>385.0</ele><time>2026-03-29T09:06:19.959Z</time></trkpt><trkpt lat="43.727405" lon="12.5817667"><ele>385.0</ele><time>2026-03-29T09:06:20.958Z</time></trkpt><trkpt lat="43.7272967" lon="12.5817583"><ele>385.0</ele><time>2026-03-29T09:06:21.959Z</time></trkpt><trkpt lat="43.727185" lon="12.58178"><ele>385.0</ele><time>2026-03-29T09:06:22.959Z</time></trkpt><trkpt lat="43.727065" lon="12.5818267"><ele>385.0</ele><time>2026-03-29T09:06:23.958Z</time></trkpt><trkpt lat="43.7269533" lon="12.5818867"><ele>385.0</ele><time>2026-03-29T09:06:24.959Z</time></trkpt><trkpt lat="43.7268383" lon="12.5819517"><ele>385.0</ele><time>2026-03-29T09:06:25.959Z</time></trkpt><trkpt lat="43.726725" lon="12.5819967"><ele>385.0</ele><time>2026-03-29T09:06:26.959Z</time></trkpt><trkpt lat="43.7266283" lon="12.58201"><ele>384.83333333333337</ele><time>2026-03-29T09:06:27.958Z</time></trkpt><trkpt lat="43.7265433" lon="12.58199"><ele>384.6666666666667</ele><time>2026-03-29T09:06:28.959Z</time></trkpt><trkpt lat="43.7264667" lon="12.5819233"><ele>384.5</ele><time>2026-03-29T09:06:29.958Z</time></trkpt><trkpt lat="43.7263983" lon="12.581835"><ele>384.33333333333337</ele><time>2026-03-29T09:06:30.959Z</time></trkpt><trkpt lat="43.72633" lon="12.5817483"><ele>384.1666666666667</ele><time>2026-03-29T09:06:31.958Z</time></trkpt><trkpt lat="43.7262667" lon="12.5816767"><ele>384.0</ele><time>2026-03-29T09:06:32.958Z</time></trkpt><trkpt lat="43.7261983" lon="12.581655"><ele>384.0</ele><time>2026-03-29T09:06:33.958Z</time></trkpt><trkpt lat="43.7261217" lon="12.5816683"><ele>384.0</ele><time>2026-03-29T09:06:34.959Z</time></trkpt><trkpt lat="43.7260533" lon="12.5817317"><ele>384.0</ele><time>2026-03-29T09:06:35.959Z</time></trkpt><trkpt lat="43.7259933" lon="12.5818233"><ele>384.0</ele><time>2026-03-29T09:06:36.959Z</time></trkpt><trkpt lat="43.7259333" lon="12.58197"><ele>384.0</ele><time>2026-03-29T09:06:37.959Z</time></trkpt><trkpt lat="43.7258767" lon="12.5821433"><ele>384.66666666666663</ele><time>2026-03-29T09:06:38.959Z</time></trkpt><trkpt lat="43.7258" lon="12.58233"><ele>385.3333333333333</ele><time>2026-03-29T09:06:39.959Z</time></trkpt><trkpt lat="43.7257017" lon="12.5825"><ele>386.0</ele><time>2026-03-29T09:06:40.958Z</time></trkpt><trkpt lat="43.725605" lon="12.5826417"><ele>386.0</ele><time>2026-03-29T09:06:41.959Z</time></trkpt><trkpt lat="43.7255017" lon="12.5827917"><ele>386.0</ele><time>2026-03-29T09:06:42.958Z</time></trkpt><trkpt lat="43.725395" lon="12.5829083"><ele>386.0</ele><time>2026-03-29T09:06:43.959Z</time></trkpt><trkpt lat="43.7252967" lon="12.5830217"><ele>386.0</ele><time>2026-03-29T09:06:44.959Z</time></trkpt><trkpt lat="43.7252067" lon="12.5831117"><ele>383.25</ele><time>2026-03-29T09:06:45.958Z</time></trkpt><trkpt lat="43.7251217" lon="12.5832017"><ele>380.5</ele><time>2026-03-29T09:06:46.958Z</time></trkpt><trkpt lat="43.7250217" lon="12.583265"><ele>377.75</ele><time>2026-03-29T09:06:47.958Z</time></trkpt><trkpt lat="43.7249133" lon="12.583305"><ele>375.0</ele><time>2026-03-29T09:06:48.959Z</time></trkpt><trkpt lat="43.7247933" lon="12.583325"><ele>375.0</ele><time>2026-03-29T09:06:49.959Z</time></trkpt><trkpt lat="43.7246767" lon="12.5833533"><ele>375.0</ele><time>2026-03-29T09:06:50.958Z</time></trkpt><trkpt lat="43.7245717" lon="12.5833967"><ele>375.0</ele><time>2026-03-29T09:06:51.958Z</time></trkpt><trkpt lat="43.7244717" lon="12.58347"><ele>375.0</ele><time>2026-03-29T09:06:52.958Z</time></trkpt><trkpt lat="43.7243783" lon="12.5835783"><ele>372.5</ele><time>2026-03-29T09:06:53.959Z</time></trkpt><trkpt lat="43.7242867" lon="12.583725"><ele>370.0</ele><time>2026-03-29T09:06:54.958Z</time></trkpt><trkpt lat="43.7242033" lon="12.5838883"><ele>367.5</ele><time>2026-03-29T09:06:55.959Z</time></trkpt><trkpt lat="43.724125" lon="12.584045"><ele>365.0</ele><time>2026-03-29T09:06:56.958Z</time></trkpt><trkpt lat="43.7240583" lon="12.5841917"><ele>365.0</ele><time>2026-03-29T09:06:57.959Z</time></trkpt><trkpt lat="43.7239967" lon="12.5843117"><ele>365.0</ele><time>2026-03-29T09:06:58.958Z</time></trkpt><trkpt lat="43.7239333" lon="12.5844017"><ele>365.0</ele><time>2026-03-29T09:06:59.959Z</time></trkpt><trkpt lat="43.7238567" lon="12.58446"><ele>365.0</ele><time>2026-03-29T09:07:00.958Z</time></trkpt><trkpt lat="43.723775" lon="12.5844983"><ele>365.0</ele><time>2026-03-29T09:07:01.959Z</time></trkpt><trkpt lat="43.7236917" lon="12.5845067"><ele>365.0</ele><time>2026-03-29T09:07:02.959Z</time></trkpt><trkpt lat="43.7235983" lon="12.5845117"><ele>365.0</ele><time>2026-03-29T09:07:03.959Z</time></trkpt><trkpt lat="43.7234883" lon="12.5845283"><ele>365.0</ele><time>2026-03-29T09:07:04.959Z</time></trkpt><trkpt lat="43.72337" lon="12.5845467"><ele>365.0</ele><time>2026-03-29T09:07:05.959Z</time></trkpt><trkpt lat="43.7232433" lon="12.5845783"><ele>367.25</ele><time>2026-03-29T09:07:06.959Z</time></trkpt><trkpt lat="43.72312" lon="12.5846133"><ele>369.5</ele><time>2026-03-29T09:07:07.959Z</time></trkpt><trkpt lat="43.7229883" lon="12.5846333"><ele>371.75</ele><time>2026-03-29T09:07:08.959Z</time></trkpt><trkpt lat="43.7228417" lon="12.5846617"><ele>374.0</ele><time>2026-03-29T09:07:09.958Z</time></trkpt><trkpt lat="43.7226883" lon="12.5846883"><ele>374.5</ele><time>2026-03-29T09:07:10.959Z</time></trkpt><trkpt lat="43.722545" lon="12.5846933"><ele>375.0</ele><time>2026-03-29T09:07:11.958Z</time></trkpt><trkpt lat="43.722405" lon="12.58469"><ele>375.5</ele><time>2026-03-29T09:07:12.959Z</time></trkpt><trkpt lat="43.7222767" lon="12.58469"><ele>376.0</ele><time>2026-03-29T09:07:13.959Z</time></trkpt><trkpt lat="43.7221517" lon="12.5846967"><ele>376.0</ele><time>2026-03-29T09:07:14.959Z</time></trkpt><trkpt lat="43.722025" lon="12.5847083"><ele>376.0</ele><time>2026-03-29T09:07:15.959Z</time></trkpt><trkpt lat="43.72188" lon="12.5847283"><ele>376.0</ele><time>2026-03-29T09:07:16.958Z</time></trkpt><trkpt lat="43.7217467" lon="12.5847633"><ele>376.0</ele><time>2026-03-29T09:07:17.959Z</time></trkpt><trkpt lat="43.721615" lon="12.5848"><ele>375.20000000000005</ele><time>2026-03-29T09:07:18.959Z</time></trkpt><trkpt lat="43.7215067" lon="12.5848267"><ele>374.40000000000003</ele><time>2026-03-29T09:07:19.959Z</time></trkpt><trkpt lat="43.7214183" lon="12.584865"><ele>373.6</ele><time>2026-03-29T09:07:20.959Z</time></trkpt><trkpt lat="43.7213417" lon="12.5849133"><ele>372.8</ele><time>2026-03-29T09:07:21.959Z</time></trkpt><trkpt lat="43.7212733" lon="12.58499"><ele>372.0</ele><time>2026-03-29T09:07:22.958Z</time></trkpt><trkpt lat="43.7212267" lon="12.5850867"><ele>372.0</ele><time>2026-03-29T09:07:23.958Z</time></trkpt><trkpt lat="43.721185" lon="12.5852233"><ele>372.0</ele><time>2026-03-29T09:07:24.959Z</time></trkpt><trkpt lat="43.7211483" lon="12.5853967"><ele>372.0</ele><time>2026-03-29T09:07:25.959Z</time></trkpt><trkpt lat="43.7211083" lon="12.5855733"><ele>372.0</ele><time>2026-03-29T09:07:26.958Z</time></trkpt><trkpt lat="43.7210617" lon="12.58571"><ele>371.0</ele><time>2026-03-29T09:07:27.958Z</time></trkpt><trkpt lat="43.72098" lon="12.5858233"><ele>370.0</ele><time>2026-03-29T09:07:28.958Z</time></trkpt><trkpt lat="43.7208833" lon="12.585915"><ele>369.0</ele><time>2026-03-29T09:07:29.959Z</time></trkpt><trkpt lat="43.72076" lon="12.5859617"><ele>368.0</ele><time>2026-03-29T09:07:30.959Z</time></trkpt><trkpt lat="43.72063" lon="12.585985"><ele>368.0</ele><time>2026-03-29T09:07:31.959Z</time></trkpt><trkpt lat="43.7204917" lon="12.5859883"><ele>368.0</ele><time>2026-03-29T09:07:32.959Z</time></trkpt><trkpt lat="43.7203433" lon="12.5859933"><ele>368.0</ele><time>2026-03-29T09:07:33.958Z</time></trkpt><trkpt lat="43.720215" lon="12.585985"><ele>368.0</ele><time>2026-03-29T09:07:34.959Z</time></trkpt><trkpt lat="43.7200933" lon="12.5859967"><ele>368.5</ele><time>2026-03-29T09:07:35.959Z</time></trkpt><trkpt lat="43.7199667" lon="12.5860333"><ele>369.0</ele><time>2026-03-29T09:07:36.959Z</time></trkpt><trkpt lat="43.7198533" lon="12.586105"><ele>369.5</ele><time>2026-03-29T09:07:37.958Z</time></trkpt><trkpt lat="43.7197483" lon="12.5862217"><ele>370.0</ele><time>2026-03-29T09:07:38.959Z</time></trkpt><trkpt lat="43.7196667" lon="12.5863383"><ele>371.0</ele><time>2026-03-29T09:07:39.958Z</time></trkpt><trkpt lat="43.719595" lon="12.586455"><ele>372.0</ele><time>2026-03-29T09:07:40.958Z</time></trkpt><trkpt lat="43.71952" lon="12.586565"><ele>373.0</ele><time>2026-03-29T09:07:41.958Z</time></trkpt><trkpt lat="43.7194267" lon="12.5866633"><ele>374.0</ele><time>2026-03-29T09:07:42.959Z</time></trkpt><trkpt lat="43.7193183" lon="12.5867317"><ele>374.0</ele><time>2026-03-29T09:07:43.959Z</time></trkpt><trkpt lat="43.7191967" lon="12.5867767"><ele>374.0</ele><time>2026-03-29T09:07:44.958Z</time></trkpt><trkpt lat="43.7190717" lon="12.5868117"><ele>374.0</ele><time>2026-03-29T09:07:45.959Z</time></trkpt><trkpt lat="43.7189417" lon="12.5868467"><ele>374.0</ele><time>2026-03-29T09:07:46.959Z</time></trkpt><trkpt lat="43.718815" lon="12.586885"><ele>374.0</ele><time>2026-03-29T09:07:47.959Z</time></trkpt><trkpt lat="43.7186917" lon="12.5869317"><ele>374.0</ele><time>2026-03-29T09:07:48.959Z</time></trkpt><trkpt lat="43.71858" lon="12.5869983"><ele>374.0</ele><time>2026-03-29T09:07:49.959Z</time></trkpt><trkpt lat="43.7184767" lon="12.58708"><ele>374.0</ele><time>2026-03-29T09:07:50.958Z</time></trkpt><trkpt lat="43.7183783" lon="12.5871883"><ele>374.5</ele><time>2026-03-29T09:07:51.959Z</time></trkpt><trkpt lat="43.7182867" lon="12.5873283"><ele>375.0</ele><time>2026-03-29T09:07:52.959Z</time></trkpt><trkpt lat="43.7181933" lon="12.5874683"><ele>375.5</ele><time>2026-03-29T09:07:53.958Z</time></trkpt><trkpt lat="43.718105" lon="12.5876267"><ele>376.0</ele><time>2026-03-29T09:07:54.959Z</time></trkpt><trkpt lat="43.7180133" lon="12.58777"><ele>375.25</ele><time>2026-03-29T09:07:55.958Z</time></trkpt><trkpt lat="43.7179283" lon="12.5879117"><ele>374.5</ele><time>2026-03-29T09:07:56.959Z</time></trkpt><trkpt lat="43.7178583" lon="12.58805"><ele>373.75</ele><time>2026-03-29T09:07:57.959Z</time></trkpt><trkpt lat="43.717805" lon="12.5882017"><ele>373.0</ele><time>2026-03-29T09:07:58.959Z</time></trkpt><trkpt lat="43.7177817" lon="12.588365"><ele>373.0</ele><time>2026-03-29T09:07:59.958Z</time></trkpt><trkpt lat="43.7177767" lon="12.58853"><ele>373.0</ele><time>2026-03-29T09:08:00.959Z</time></trkpt><trkpt lat="43.7177833" lon="12.58869"><ele>373.0</ele><time>2026-03-29T09:08:01.959Z</time></trkpt><trkpt lat="43.7177867" lon="12.5888617"><ele>373.0</ele><time>2026-03-29T09:08:02.959Z</time></trkpt><trkpt lat="43.7177783" lon="12.5890317"><ele>373.75</ele><time>2026-03-29T09:08:03.959Z</time></trkpt><trkpt lat="43.7177533" lon="12.5892067"><ele>374.5</ele><time>2026-03-29T09:08:04.958Z</time></trkpt><trkpt lat="43.717715" lon="12.58938"><ele>375.25</ele><time>2026-03-29T09:08:05.959Z</time></trkpt><trkpt lat="43.71767" lon="12.5895633"><ele>376.0</ele><time>2026-03-29T09:08:06.958Z</time></trkpt><trkpt lat="43.7176383" lon="12.5897517"><ele>383.5</ele><time>2026-03-29T09:08:07.958Z</time></trkpt><trkpt lat="43.717625" lon="12.5899267"><ele>391.0</ele><time>2026-03-29T09:08:08.959Z</time></trkpt><trkpt lat="43.7176217" lon="12.590115"><ele>398.5</ele><time>2026-03-29T09:08:09.958Z</time></trkpt><trkpt lat="43.717615" lon="12.5902883"><ele>406.0</ele><time>2026-03-29T09:08:10.958Z</time></trkpt><trkpt lat="43.7176033" lon="12.5904683"><ele>407.0</ele><time>2026-03-29T09:08:11.958Z</time></trkpt><trkpt lat="43.71759" lon="12.5906467"><ele>408.0</ele><time>2026-03-29T09:08:12.959Z</time></trkpt><trkpt lat="43.7175633" lon="12.59082"><ele>409.0</ele><time>2026-03-29T09:08:13.959Z</time></trkpt><trkpt lat="43.7175367" lon="12.5909867"><ele>410.0</ele><time>2026-03-29T09:08:14.959Z</time></trkpt><trkpt lat="43.7175333" lon="12.5911533"><ele>411.75</ele><time>2026-03-29T09:08:15.958Z</time></trkpt><trkpt lat="43.7175433" lon="12.5913133"><ele>413.5</ele><time>2026-03-29T09:08:16.958Z</time></trkpt><trkpt lat="43.7175533" lon="12.5915017"><ele>415.25</ele><time>2026-03-29T09:08:17.959Z</time></trkpt><trkpt lat="43.7175567" lon="12.5916817"><ele>417.0</ele><time>2026-03-29T09:08:18.959Z</time></trkpt><trkpt lat="43.7175633" lon="12.591865"><ele>417.5</ele><time>2026-03-29T09:08:19.958Z</time></trkpt><trkpt lat="43.7175667" lon="12.5920583"><ele>418.0</ele><time>2026-03-29T09:08:20.959Z</time></trkpt><trkpt lat="43.71758" lon="12.5922583"><ele>418.5</ele><time>2026-03-29T09:08:21.959Z</time></trkpt><trkpt lat="43.7175983" lon="12.59244"><ele>419.0</ele><time>2026-03-29T09:08:22.959Z</time></trkpt><trkpt lat="43.7176283" lon="12.5926067"><ele>419.0</ele><time>2026-03-29T09:08:23.959Z</time></trkpt><trkpt lat="43.71766" lon="12.5927533"><ele>419.0</ele><time>2026-03-29T09:08:24.959Z</time></trkpt><trkpt lat="43.7176883" lon="12.5928667"><ele>419.0</ele><time>2026-03-29T09:08:25.958Z</time></trkpt><trkpt lat="43.7177117" lon="12.5929617"><ele>419.0</ele><time>2026-03-29T09:08:26.959Z</time></trkpt><trkpt lat="43.71773" lon="12.5930617"><ele>419.0</ele><time>2026-03-29T09:08:27.959Z</time></trkpt><trkpt lat="43.717725" lon="12.59323"><ele>418.66666666666663</ele><time>2026-03-29T09:08:29.959Z</time></trkpt><trkpt lat="43.717715" lon="12.5933817"><ele>418.3333333333333</ele><time>2026-03-29T09:08:31.959Z</time></trkpt><trkpt lat="43.7176583" lon="12.593425"><ele>418.0</ele><time>2026-03-29T09:08:33.959Z</time></trkpt><trkpt lat="43.7175883" lon="12.5933283"><ele>417.66666666666663</ele><time>2026-03-29T09:08:35.959Z</time></trkpt><trkpt lat="43.7175583" lon="12.5932383"><ele>417.3333333333333</ele><time>2026-03-29T09:08:36.959Z</time></trkpt><trkpt lat="43.7175367" lon="12.5931233"><ele>417.0</ele><time>2026-03-29T09:08:37.959Z</time></trkpt><trkpt lat="43.717505" lon="12.5930033"><ele>417.0</ele><time>2026-03-29T09:08:38.959Z</time></trkpt><trkpt lat="43.7174533" lon="12.5929017"><ele>417.0</ele><time>2026-03-29T09:08:39.958Z</time></trkpt><trkpt lat="43.717385" lon="12.5928233"><ele>417.0</ele><time>2026-03-29T09:08:40.959Z</time></trkpt><trkpt lat="43.7172833" lon="12.592775"><ele>417.0</ele><time>2026-03-29T09:08:41.959Z</time></trkpt><trkpt lat="43.7171733" lon="12.59276"><ele>417.0</ele><time>2026-03-29T09:08:42.958Z</time></trkpt><trkpt lat="43.7170317" lon="12.5927567"><ele>423.33333333333337</ele><time>2026-03-29T09:08:43.959Z</time></trkpt><trkpt lat="43.7168683" lon="12.5927733"><ele>429.6666666666667</ele><time>2026-03-29T09:08:44.959Z</time></trkpt><trkpt lat="43.7167067" lon="12.5927833"><ele>436.0</ele><time>2026-03-29T09:08:45.958Z</time></trkpt><trkpt lat="43.7165433" lon="12.5927883"><ele>436.0</ele><time>2026-03-29T09:08:46.959Z</time></trkpt><trkpt lat="43.7163983" lon="12.592765"><ele>436.0</ele><time>2026-03-29T09:08:47.958Z</time></trkpt><trkpt lat="43.7162533" lon="12.5927217"><ele>436.0</ele><time>2026-03-29T09:08:48.959Z</time></trkpt><trkpt lat="43.71613" lon="12.59267"><ele>436.0</ele><time>2026-03-29T09:08:49.958Z</time></trkpt><trkpt lat="43.7160217" lon="12.5926183"><ele>436.6</ele><time>2026-03-29T09:08:50.959Z</time></trkpt><trkpt lat="43.7159117" lon="12.5926067"><ele>437.20000000000005</ele><time>2026-03-29T09:08:51.959Z</time></trkpt><trkpt lat="43.7158067" lon="12.5926283"><ele>437.79999999999995</ele><time>2026-03-29T09:08:52.958Z</time></trkpt><trkpt lat="43.715705" lon="12.5926833"><ele>438.4</ele><time>2026-03-29T09:08:53.958Z</time></trkpt><trkpt lat="43.715605" lon="12.5927017"><ele>439.0</ele><time>2026-03-29T09:08:54.958Z</time></trkpt><trkpt lat="43.71551" lon="12.5926917"><ele>439.0</ele><time>2026-03-29T09:08:55.958Z</time></trkpt><trkpt lat="43.7154183" lon="12.5926483"><ele>439.0</ele><time>2026-03-29T09:08:56.959Z</time></trkpt><trkpt lat="43.7153183" lon="12.5925317"><ele>439.0</ele><time>2026-03-29T09:08:57.958Z</time></trkpt><trkpt lat="43.7152317" lon="12.5923767"><ele>439.0</ele><time>2026-03-29T09:08:58.958Z</time></trkpt><trkpt lat="43.7151633" lon="12.592195"><ele>438.5</ele><time>2026-03-29T09:08:59.959Z</time></trkpt><trkpt lat="43.7150917" lon="12.59203"><ele>438.0</ele><time>2026-03-29T09:09:00.959Z</time></trkpt><trkpt lat="43.7150333" lon="12.5918667"><ele>437.5</ele><time>2026-03-29T09:09:01.959Z</time></trkpt><trkpt lat="43.7149833" lon="12.5916967"><ele>437.0</ele><time>2026-03-29T09:09:02.959Z</time></trkpt><trkpt lat="43.7149433" lon="12.5915167"><ele>437.0</ele><time>2026-03-29T09:09:03.959Z</time></trkpt><trkpt lat="43.714905" lon="12.5913533"><ele>437.0</ele><time>2026-03-29T09:09:04.958Z</time></trkpt><trkpt lat="43.714865" lon="12.59121"><ele>437.0</ele><time>2026-03-29T09:09:05.959Z</time></trkpt><trkpt lat="43.7147767" lon="12.5910733"><ele>437.0</ele><time>2026-03-29T09:09:06.959Z</time></trkpt><trkpt lat="43.7146483" lon="12.5909683"><ele>439.66666666666663</ele><time>2026-03-29T09:09:07.959Z</time></trkpt><trkpt lat="43.7145183" lon="12.5908733"><ele>442.33333333333337</ele><time>2026-03-29T09:09:08.959Z</time></trkpt><trkpt lat="43.7143767" lon="12.5907917"><ele>445.0</ele><time>2026-03-29T09:09:09.959Z</time></trkpt><trkpt lat="43.714235" lon="12.590695"><ele>439.33333333333337</ele><time>2026-03-29T09:09:10.959Z</time></trkpt><trkpt lat="43.7140617" lon="12.5905983"><ele>433.66666666666663</ele><time>2026-03-29T09:09:11.958Z</time></trkpt><trkpt lat="43.713895" lon="12.590485"><ele>428.0</ele><time>2026-03-29T09:09:12.958Z</time></trkpt><trkpt lat="43.71372" lon="12.5903667"><ele>428.66666666666663</ele><time>2026-03-29T09:09:13.959Z</time></trkpt><trkpt lat="43.7135517" lon="12.5902517"><ele>429.33333333333337</ele><time>2026-03-29T09:09:14.959Z</time></trkpt><trkpt lat="43.7133517" lon="12.5901483"><ele>430.0</ele><time>2026-03-29T09:09:15.958Z</time></trkpt><trkpt lat="43.71316" lon="12.5900417"><ele>430.0</ele><time>2026-03-29T09:09:16.959Z</time></trkpt><trkpt lat="43.712985" lon="12.589945"><ele>430.0</ele><time>2026-03-29T09:09:17.959Z</time></trkpt><trkpt lat="43.7128183" lon="12.5898417"><ele>430.0</ele><time>2026-03-29T09:09:18.959Z</time></trkpt><trkpt lat="43.712655" lon="12.5897467"><ele>429.0</ele><time>2026-03-29T09:09:19.959Z</time></trkpt><trkpt lat="43.7125167" lon="12.5896633"><ele>428.0</ele><time>2026-03-29T09:09:20.958Z</time></trkpt><trkpt lat="43.7123817" lon="12.5896017"><ele>427.0</ele><time>2026-03-29T09:09:21.958Z</time></trkpt><trkpt lat="43.7122417" lon="12.58956"><ele>426.0</ele><time>2026-03-29T09:09:22.959Z</time></trkpt><trkpt lat="43.7120983" lon="12.5895367"><ele>426.0</ele><time>2026-03-29T09:09:23.959Z</time></trkpt><trkpt lat="43.711935" lon="12.5895533"><ele>426.0</ele><time>2026-03-29T09:09:24.959Z</time></trkpt><trkpt lat="43.7117867" lon="12.5895783"><ele>426.0</ele><time>2026-03-29T09:09:25.959Z</time></trkpt><trkpt lat="43.7116817" lon="12.589565"><ele>426.0</ele><time>2026-03-29T09:09:26.958Z</time></trkpt><trkpt lat="43.7116117" lon="12.5895433"><ele>428.4</ele><time>2026-03-29T09:09:27.959Z</time></trkpt><trkpt lat="43.7115517" lon="12.5894783"><ele>430.8</ele><time>2026-03-29T09:09:28.959Z</time></trkpt><trkpt lat="43.7114983" lon="12.5893883"><ele>433.19999999999993</ele><time>2026-03-29T09:09:29.959Z</time></trkpt><trkpt lat="43.7114567" lon="12.5892567"><ele>435.59999999999997</ele><time>2026-03-29T09:09:30.959Z</time></trkpt><trkpt lat="43.71143" lon="12.5891067"><ele>438.0</ele><time>2026-03-29T09:09:31.958Z</time></trkpt><trkpt lat="43.7114133" lon="12.588955"><ele>438.0</ele><time>2026-03-29T09:09:32.959Z</time></trkpt><trkpt lat="43.7113917" lon="12.588815"><ele>438.0</ele><time>2026-03-29T09:09:33.959Z</time></trkpt><trkpt lat="43.7113483" lon="12.5886883"><ele>438.0</ele><time>2026-03-29T09:09:34.958Z</time></trkpt><trkpt lat="43.7112633" lon="12.588585"><ele>438.0</ele><time>2026-03-29T09:09:35.959Z</time></trkpt><trkpt lat="43.71114" lon="12.5885017"><ele>437.25</ele><time>2026-03-29T09:09:36.959Z</time></trkpt><trkpt lat="43.7110417" lon="12.5883933"><ele>436.5</ele><time>2026-03-29T09:09:37.959Z</time></trkpt><trkpt lat="43.710915" lon="12.5883383"><ele>435.75</ele><time>2026-03-29T09:09:38.958Z</time></trkpt><trkpt lat="43.7107733" lon="12.5883283"><ele>435.0</ele><time>2026-03-29T09:09:39.959Z</time></trkpt><trkpt lat="43.7106333" lon="12.5883467"><ele>435.0</ele><time>2026-03-29T09:09:40.958Z</time></trkpt><trkpt lat="43.7104933" lon="12.5883883"><ele>435.0</ele><time>2026-03-29T09:09:41.959Z</time></trkpt><trkpt lat="43.71035" lon="12.58844"><ele>435.0</ele><time>2026-03-29T09:09:42.959Z</time></trkpt><trkpt lat="43.7101967" lon="12.58848"><ele>435.0</ele><time>2026-03-29T09:09:43.959Z</time></trkpt><trkpt lat="43.7100433" lon="12.5885117"><ele>434.75</ele><time>2026-03-29T09:09:44.958Z</time></trkpt><trkpt lat="43.7098983" lon="12.5885383"><ele>434.5</ele><time>2026-03-29T09:09:45.959Z</time></trkpt><trkpt lat="43.7097567" lon="12.588545"><ele>434.25</ele><time>2026-03-29T09:09:46.958Z</time></trkpt><trkpt lat="43.7096233" lon="12.5885383"><ele>434.0</ele><time>2026-03-29T09:09:47.959Z</time></trkpt><trkpt lat="43.7094867" lon="12.5885067"><ele>434.75</ele><time>2026-03-29T09:09:48.959Z</time></trkpt><trkpt lat="43.7093583" lon="12.58843"><ele>435.5</ele><time>2026-03-29T09:09:49.958Z</time></trkpt><trkpt lat="43.7092317" lon="12.5883217"><ele>436.25</ele><time>2026-03-29T09:09:50.958Z</time></trkpt><trkpt lat="43.7091083" lon="12.5881967"><ele>437.0</ele><time>2026-03-29T09:09:51.959Z</time></trkpt><trkpt lat="43.7089833" lon="12.588065"><ele>437.0</ele><time>2026-03-29T09:09:52.958Z</time></trkpt><trkpt lat="43.7088567" lon="12.587945"><ele>437.0</ele><time>2026-03-29T09:09:53.959Z</time></trkpt><trkpt lat="43.7087317" lon="12.5878333"><ele>437.0</ele><time>2026-03-29T09:09:54.958Z</time></trkpt><trkpt lat="43.7086067" lon="12.587715"><ele>440.66666666666663</ele><time>2026-03-29T09:09:55.958Z</time></trkpt><trkpt lat="43.7084783" lon="12.5876083"><ele>444.33333333333337</ele><time>2026-03-29T09:09:56.958Z</time></trkpt><trkpt lat="43.7083417" lon="12.5875067"><ele>448.0</ele><time>2026-03-29T09:09:57.959Z</time></trkpt><trkpt lat="43.7082133" lon="12.5874033"><ele>448.0</ele><time>2026-03-29T09:09:58.958Z</time></trkpt><trkpt lat="43.7080783" lon="12.5873217"><ele>448.0</ele><time>2026-03-29T09:09:59.959Z</time></trkpt><trkpt lat="43.7079267" lon="12.58726"><ele>448.0</ele><time>2026-03-29T09:10:00.958Z</time></trkpt><trkpt lat="43.7077733" lon="12.5872183"><ele>446.75</ele><time>2026-03-29T09:10:01.958Z</time></trkpt><trkpt lat="43.707625" lon="12.587175"><ele>445.5</ele><time>2026-03-29T09:10:02.959Z</time></trkpt><trkpt lat="43.7074867" lon="12.5871283"><ele>444.25</ele><time>2026-03-29T09:10:03.958Z</time></trkpt><trkpt lat="43.7073633" lon="12.5870817"><ele>443.0</ele><time>2026-03-29T09:10:04.958Z</time></trkpt><trkpt lat="43.7072483" lon="12.58704"><ele>443.5</ele><time>2026-03-29T09:10:05.958Z</time></trkpt><trkpt lat="43.70715" lon="12.5869983"><ele>444.0</ele><time>2026-03-29T09:10:06.958Z</time></trkpt><trkpt lat="43.7070383" lon="12.586985"><ele>444.5</ele><time>2026-03-29T09:10:07.959Z</time></trkpt><trkpt lat="43.7069167" lon="12.5869867"><ele>445.0</ele><time>2026-03-29T09:10:08.959Z</time></trkpt><trkpt lat="43.7067983" lon="12.587015"><ele>446.75</ele><time>2026-03-29T09:10:09.959Z</time></trkpt><trkpt lat="43.7066767" lon="12.587065"><ele>448.5</ele><time>2026-03-29T09:10:10.959Z</time></trkpt><trkpt lat="43.7065767" lon="12.5871483"><ele>450.25</ele><time>2026-03-29T09:10:11.959Z</time></trkpt><trkpt lat="43.7065117" lon="12.58726"><ele>452.0</ele><time>2026-03-29T09:10:12.959Z</time></trkpt><trkpt lat="43.70647" lon="12.5874217"><ele>452.0</ele><time>2026-03-29T09:10:13.959Z</time></trkpt><trkpt lat="43.706445" lon="12.5876033"><ele>452.0</ele><time>2026-03-29T09:10:14.959Z</time></trkpt><trkpt lat="43.7064183" lon="12.5877783"><ele>452.0</ele><time>2026-03-29T09:10:15.959Z</time></trkpt><trkpt lat="43.7063933" lon="12.5879717"><ele>452.0</ele><time>2026-03-29T09:10:16.959Z</time></trkpt><trkpt lat="43.7063733" lon="12.5881733"><ele>451.5</ele><time>2026-03-29T09:10:17.959Z</time></trkpt><trkpt lat="43.7063583" lon="12.58838"><ele>451.0</ele><time>2026-03-29T09:10:18.959Z</time></trkpt><trkpt lat="43.70635" lon="12.5885917"><ele>450.5</ele><time>2026-03-29T09:10:19.959Z</time></trkpt><trkpt lat="43.7063483" lon="12.5887933"><ele>450.0</ele><time>2026-03-29T09:10:20.959Z</time></trkpt><trkpt lat="43.706355" lon="12.5889733"><ele>448.75</ele><time>2026-03-29T09:10:21.959Z</time></trkpt><trkpt lat="43.7063583" lon="12.58915"><ele>447.5</ele><time>2026-03-29T09:10:22.958Z</time></trkpt><trkpt lat="43.7063333" lon="12.5893333"><ele>446.25</ele><time>2026-03-29T09:10:23.958Z</time></trkpt><trkpt lat="43.7062817" lon="12.5895017"><ele>445.0</ele><time>2026-03-29T09:10:24.958Z</time></trkpt><trkpt lat="43.706215" lon="12.589655"><ele>443.5</ele><time>2026-03-29T09:10:25.959Z</time></trkpt><trkpt lat="43.7061283" lon="12.5898183"><ele>442.0</ele><time>2026-03-29T09:10:26.958Z</time></trkpt><trkpt lat="43.7060317" lon="12.5899633"><ele>440.5</ele><time>2026-03-29T09:10:27.959Z</time></trkpt><trkpt lat="43.7059383" lon="12.5901"><ele>439.0</ele><time>2026-03-29T09:10:28.958Z</time></trkpt><trkpt lat="43.7058483" lon="12.5902117"><ele>441.6</ele><time>2026-03-29T09:10:29.959Z</time></trkpt><trkpt lat="43.7057667" lon="12.590305"><ele>444.2</ele><time>2026-03-29T09:10:30.959Z</time></trkpt><trkpt lat="43.7056783" lon="12.5903733"><ele>446.80000000000007</ele><time>2026-03-29T09:10:31.959Z</time></trkpt><trkpt lat="43.7055883" lon="12.5904017"><ele>449.40000000000003</ele><time>2026-03-29T09:10:32.958Z</time></trkpt><trkpt lat="43.70549" lon="12.5904183"><ele>452.0</ele><time>2026-03-29T09:10:33.958Z</time></trkpt><trkpt lat="43.7054017" lon="12.590415"><ele>451.99999999999994</ele><time>2026-03-29T09:10:34.959Z</time></trkpt><trkpt lat="43.70532" lon="12.5904183"><ele>452.0</ele><time>2026-03-29T09:10:35.959Z</time></trkpt><trkpt lat="43.7052567" lon="12.5904083"><ele>452.0</ele><time>2026-03-29T09:10:36.959Z</time></trkpt><trkpt lat="43.7052083" lon="12.590335"><ele>452.0</ele><time>2026-03-29T09:10:39.958Z</time></trkpt><trkpt lat="43.70531" lon="12.5902667"><ele>451.99999999999994</ele><time>2026-03-29T09:10:42.959Z</time></trkpt><trkpt lat="43.705385" lon="12.5902233"><ele>452.0</ele><time>2026-03-29T09:10:43.959Z</time></trkpt><trkpt lat="43.7054633" lon="12.5901633"><ele>456.75</ele><time>2026-03-29T09:10:44.959Z</time></trkpt><trkpt lat="43.7055433" lon="12.590075"><ele>461.5</ele><time>2026-03-29T09:10:45.959Z</time></trkpt><trkpt lat="43.7056317" lon="12.58995"><ele>466.25</ele><time>2026-03-29T09:10:46.958Z</time></trkpt><trkpt lat="43.7057267" lon="12.5897417"><ele>471.0</ele><time>2026-03-29T09:10:47.959Z</time></trkpt><trkpt lat="43.7058267" lon="12.5895267"><ele>474.0</ele><time>2026-03-29T09:10:48.959Z</time></trkpt><trkpt lat="43.70592" lon="12.5893433"><ele>477.0</ele><time>2026-03-29T09:10:49.959Z</time></trkpt><trkpt lat="43.705995" lon="12.5891517"><ele>480.0</ele><time>2026-03-29T09:10:50.959Z</time></trkpt><trkpt lat="43.70602" lon="12.5889533"><ele>480.0</ele><time>2026-03-29T09:10:51.959Z</time></trkpt><trkpt lat="43.7059917" lon="12.5887417"><ele>480.0</ele><time>2026-03-29T09:10:52.959Z</time></trkpt><trkpt lat="43.70595" lon="12.5885333"><ele>480.0</ele><time>2026-03-29T09:10:53.958Z</time></trkpt><trkpt lat="43.7059233" lon="12.5883217"><ele>480.0</ele><time>2026-03-29T09:10:54.959Z</time></trkpt><trkpt lat="43.7058917" lon="12.588115"><ele>480.0</ele><time>2026-03-29T09:10:55.959Z</time></trkpt><trkpt lat="43.7058683" lon="12.5879233"><ele>480.0</ele><time>2026-03-29T09:10:56.959Z</time></trkpt><trkpt lat="43.70585" lon="12.5877433"><ele>480.0</ele><time>2026-03-29T09:10:57.958Z</time></trkpt><trkpt lat="43.7058067" lon="12.5875617"><ele>480.0</ele><time>2026-03-29T09:10:58.959Z</time></trkpt><trkpt lat="43.70575" lon="12.5873867"><ele>480.0</ele><time>2026-03-29T09:10:59.959Z</time></trkpt><trkpt lat="43.70565" lon="12.5872333"><ele>480.0</ele><time>2026-03-29T09:11:00.959Z</time></trkpt><trkpt lat="43.7055183" lon="12.5870983"><ele>477.0</ele><time>2026-03-29T09:11:01.959Z</time></trkpt><trkpt lat="43.70541" lon="12.5869567"><ele>474.0</ele><time>2026-03-29T09:11:02.958Z</time></trkpt><trkpt lat="43.7053017" lon="12.58682"><ele>471.0</ele><time>2026-03-29T09:11:03.958Z</time></trkpt><trkpt lat="43.7052267" lon="12.5866483"><ele>468.0</ele><time>2026-03-29T09:11:04.958Z</time></trkpt><trkpt lat="43.70516" lon="12.5864517"><ele>474.33333333333337</ele><time>2026-03-29T09:11:05.959Z</time></trkpt><trkpt lat="43.705095" lon="12.5862367"><ele>480.6666666666667</ele><time>2026-03-29T09:11:06.959Z</time></trkpt><trkpt lat="43.705045" lon="12.5860167"><ele>487.0</ele><time>2026-03-29T09:11:07.959Z</time></trkpt><trkpt lat="43.705" lon="12.58578"><ele>487.0</ele><time>2026-03-29T09:11:08.959Z</time></trkpt><trkpt lat="43.7049683" lon="12.58555"><ele>487.0</ele><time>2026-03-29T09:11:09.959Z</time></trkpt><trkpt lat="43.7049567" lon="12.5853267"><ele>487.0</ele><time>2026-03-29T09:11:10.959Z</time></trkpt><trkpt lat="43.7049633" lon="12.5851083"><ele>487.0</ele><time>2026-03-29T09:11:11.958Z</time></trkpt><trkpt lat="43.704985" lon="12.5849133"><ele>487.0</ele><time>2026-03-29T09:11:12.959Z</time></trkpt><trkpt lat="43.7049917" lon="12.5847267"><ele>487.0</ele><time>2026-03-29T09:11:13.958Z</time></trkpt><trkpt lat="43.70495" lon="12.5845283"><ele>487.0</ele><time>2026-03-29T09:11:14.958Z</time></trkpt><trkpt lat="43.7048967" lon="12.5843233"><ele>486.0</ele><time>2026-03-29T09:11:15.959Z</time></trkpt><trkpt lat="43.7048283" lon="12.584135"><ele>485.0</ele><time>2026-03-29T09:11:16.959Z</time></trkpt><trkpt lat="43.704785" lon="12.5839283"><ele>484.0</ele><time>2026-03-29T09:11:17.958Z</time></trkpt><trkpt lat="43.7047933" lon="12.58373"><ele>486.0</ele><time>2026-03-29T09:11:18.959Z</time></trkpt><trkpt lat="43.7048533" lon="12.5835333"><ele>488.0</ele><time>2026-03-29T09:11:19.958Z</time></trkpt><trkpt lat="43.70494" lon="12.58335"><ele>490.0</ele><time>2026-03-29T09:11:20.959Z</time></trkpt><trkpt lat="43.7050283" lon="12.583175"><ele>490.0</ele><time>2026-03-29T09:11:21.959Z</time></trkpt><trkpt lat="43.705105" lon="12.5829867"><ele>490.0</ele><time>2026-03-29T09:11:22.959Z</time></trkpt><trkpt lat="43.7051683" lon="12.5827883"><ele>490.0</ele><time>2026-03-29T09:11:23.959Z</time></trkpt><trkpt lat="43.7052167" lon="12.582565"><ele>492.0</ele><time>2026-03-29T09:11:24.959Z</time></trkpt><trkpt lat="43.705225" lon="12.582345"><ele>494.0</ele><time>2026-03-29T09:11:25.959Z</time></trkpt><trkpt lat="43.7052267" lon="12.582135"><ele>496.0</ele><time>2026-03-29T09:11:26.959Z</time></trkpt><trkpt lat="43.7052117" lon="12.5819133"><ele>496.0</ele><time>2026-03-29T09:11:27.958Z</time></trkpt><trkpt lat="43.7051817" lon="12.58171"><ele>496.0</ele><time>2026-03-29T09:11:28.958Z</time></trkpt><trkpt lat="43.70514" lon="12.581505"><ele>496.0</ele><time>2026-03-29T09:11:29.959Z</time></trkpt><trkpt lat="43.70508" lon="12.5813333"><ele>496.0</ele><time>2026-03-29T09:11:30.958Z</time></trkpt><trkpt lat="43.7050367" lon="12.5811483"><ele>494.5</ele><time>2026-03-29T09:11:31.959Z</time></trkpt><trkpt lat="43.7050083" lon="12.5809683"><ele>493.0</ele><time>2026-03-29T09:11:32.958Z</time></trkpt><trkpt lat="43.704985" lon="12.5807967"><ele>491.5</ele><time>2026-03-29T09:11:33.959Z</time></trkpt><trkpt lat="43.7049767" lon="12.5806433"><ele>490.0</ele><time>2026-03-29T09:11:34.958Z</time></trkpt><trkpt lat="43.70498" lon="12.58049"><ele>490.0</ele><time>2026-03-29T09:11:35.958Z</time></trkpt><trkpt lat="43.704985" lon="12.580325"><ele>490.0</ele><time>2026-03-29T09:11:36.958Z</time></trkpt><trkpt lat="43.7050033" lon="12.5801417"><ele>490.0</ele><time>2026-03-29T09:11:37.958Z</time></trkpt><trkpt lat="43.70502" lon="12.5799667"><ele>490.0</ele><time>2026-03-29T09:11:38.958Z</time></trkpt><trkpt lat="43.7050283" lon="12.5797833"><ele>490.0</ele><time>2026-03-29T09:11:39.959Z</time></trkpt><trkpt lat="43.7050267" lon="12.5796067"><ele>490.0</ele><time>2026-03-29T09:11:40.958Z</time></trkpt><trkpt lat="43.7050217" lon="12.57943"><ele>490.0</ele><time>2026-03-29T09:11:41.958Z</time></trkpt><trkpt lat="43.7049983" lon="12.579225"><ele>490.0</ele><time>2026-03-29T09:11:42.959Z</time></trkpt><trkpt lat="43.7049583" lon="12.57904"><ele>489.25</ele><time>2026-03-29T09:11:43.959Z</time></trkpt><trkpt lat="43.704905" lon="12.578855"><ele>488.5</ele><time>2026-03-29T09:11:44.959Z</time></trkpt><trkpt lat="43.7048367" lon="12.57871"><ele>487.75</ele><time>2026-03-29T09:11:45.959Z</time></trkpt><trkpt lat="43.7047833" lon="12.5785817"><ele>487.0</ele><time>2026-03-29T09:11:46.958Z</time></trkpt><trkpt lat="43.7047217" lon="12.5784533"><ele>485.75</ele><time>2026-03-29T09:11:47.958Z</time></trkpt><trkpt lat="43.7046117" lon="12.57839"><ele>484.5</ele><time>2026-03-29T09:11:48.959Z</time></trkpt><trkpt lat="43.7044917" lon="12.5783667"><ele>483.25</ele><time>2026-03-29T09:11:49.958Z</time></trkpt><trkpt lat="43.7043783" lon="12.5783717"><ele>482.0</ele><time>2026-03-29T09:11:50.958Z</time></trkpt><trkpt lat="43.7042517" lon="12.5784233"><ele>486.0</ele><time>2026-03-29T09:11:51.959Z</time></trkpt><trkpt lat="43.704135" lon="12.5784717"><ele>490.0</ele><time>2026-03-29T09:11:52.958Z</time></trkpt><trkpt lat="43.704015" lon="12.57853"><ele>494.0</ele><time>2026-03-29T09:11:53.959Z</time></trkpt><trkpt lat="43.7038967" lon="12.5785817"><ele>498.0</ele><time>2026-03-29T09:11:54.959Z</time></trkpt><trkpt lat="43.7037767" lon="12.5786233"><ele>498.0</ele><time>2026-03-29T09:11:55.959Z</time></trkpt><trkpt lat="43.70364" lon="12.5786333"><ele>498.0</ele><time>2026-03-29T09:11:56.959Z</time></trkpt><trkpt lat="43.703505" lon="12.578615"><ele>498.0</ele><time>2026-03-29T09:11:57.959Z</time></trkpt><trkpt lat="43.7033567" lon="12.5786167"><ele>498.0</ele><time>2026-03-29T09:11:58.959Z</time></trkpt><trkpt lat="43.7032433" lon="12.57859"><ele>497.8333333333333</ele><time>2026-03-29T09:11:59.959Z</time></trkpt><trkpt lat="43.7031417" lon="12.5785633"><ele>497.66666666666663</ele><time>2026-03-29T09:12:00.958Z</time></trkpt><trkpt lat="43.70306" lon="12.5785433"><ele>497.5</ele><time>2026-03-29T09:12:01.959Z</time></trkpt><trkpt lat="43.7029967" lon="12.5785217"><ele>497.3333333333333</ele><time>2026-03-29T09:12:02.959Z</time></trkpt><trkpt lat="43.702915" lon="12.5785383"><ele>497.16666666666663</ele><time>2026-03-29T09:12:04.959Z</time></trkpt><trkpt lat="43.7028767" lon="12.5786633"><ele>497.0</ele><time>2026-03-29T09:12:06.958Z</time></trkpt><trkpt lat="43.7028633" lon="12.578775"><ele>496.0</ele><time>2026-03-29T09:12:07.958Z</time></trkpt><trkpt lat="43.7028417" lon="12.5789"><ele>495.00000000000006</ele><time>2026-03-29T09:12:08.958Z</time></trkpt><trkpt lat="43.70279" lon="12.5790183"><ele>494.00000000000006</ele><time>2026-03-29T09:12:09.959Z</time></trkpt><trkpt lat="43.7027233" lon="12.579135"><ele>493.0</ele><time>2026-03-29T09:12:10.959Z</time></trkpt><trkpt lat="43.702625" lon="12.5792283"><ele>492.0</ele><time>2026-03-29T09:12:11.958Z</time></trkpt><trkpt lat="43.7025233" lon="12.5793017"><ele>491.75</ele><time>2026-03-29T09:12:12.959Z</time></trkpt><trkpt lat="43.7024033" lon="12.5793817"><ele>491.5</ele><time>2026-03-29T09:12:13.959Z</time></trkpt><trkpt lat="43.7022817" lon="12.5794783"><ele>491.25</ele><time>2026-03-29T09:12:14.959Z</time></trkpt><trkpt lat="43.702175" lon="12.5795617"><ele>491.0</ele><time>2026-03-29T09:12:15.959Z</time></trkpt><trkpt lat="43.7020783" lon="12.57963"><ele>491.0</ele><time>2026-03-29T09:12:16.959Z</time></trkpt><trkpt lat="43.70198" lon="12.579665"><ele>491.0</ele><time>2026-03-29T09:12:17.959Z</time></trkpt><trkpt lat="43.7018883" lon="12.5796683"><ele>491.0</ele><time>2026-03-29T09:12:18.959Z</time></trkpt><trkpt lat="43.7017983" lon="12.5796317"><ele>491.0</ele><time>2026-03-29T09:12:19.958Z</time></trkpt><trkpt lat="43.701705" lon="12.57956"><ele>491.0</ele><time>2026-03-29T09:12:20.959Z</time></trkpt><trkpt lat="43.7015983" lon="12.5794533"><ele>485.0</ele><time>2026-03-29T09:12:21.959Z</time></trkpt><trkpt lat="43.7014967" lon="12.579345"><ele>479.0</ele><time>2026-03-29T09:12:22.959Z</time></trkpt><trkpt lat="43.7013983" lon="12.5792383"><ele>473.0</ele><time>2026-03-29T09:12:23.959Z</time></trkpt><trkpt lat="43.7013117" lon="12.579135"><ele>467.0</ele><time>2026-03-29T09:12:24.958Z</time></trkpt><trkpt lat="43.7012267" lon="12.5790433"><ele>467.0</ele><time>2026-03-29T09:12:25.959Z</time></trkpt><trkpt lat="43.7011383" lon="12.57897"><ele>467.0</ele><time>2026-03-29T09:12:26.959Z</time></trkpt><trkpt lat="43.7010333" lon="12.5789117"><ele>467.0</ele><time>2026-03-29T09:12:27.958Z</time></trkpt><trkpt lat="43.70091" lon="12.5788733"><ele>467.0</ele><time>2026-03-29T09:12:28.959Z</time></trkpt><trkpt lat="43.7007767" lon="12.57882"><ele>467.25</ele><time>2026-03-29T09:12:29.959Z</time></trkpt><trkpt lat="43.70064" lon="12.5787767"><ele>467.5</ele><time>2026-03-29T09:12:30.958Z</time></trkpt><trkpt lat="43.700505" lon="12.5787267"><ele>467.75</ele><time>2026-03-29T09:12:31.958Z</time></trkpt><trkpt lat="43.7003833" lon="12.5786833"><ele>468.0</ele><time>2026-03-29T09:12:32.959Z</time></trkpt><trkpt lat="43.7002683" lon="12.57864"><ele>461.2</ele><time>2026-03-29T09:12:33.959Z</time></trkpt><trkpt lat="43.7001733" lon="12.5785883"><ele>454.4</ele><time>2026-03-29T09:12:34.959Z</time></trkpt><trkpt lat="43.7000817" lon="12.5785567"><ele>447.59999999999997</ele><time>2026-03-29T09:12:35.959Z</time></trkpt><trkpt lat="43.6999917" lon="12.57853"><ele>440.79999999999995</ele><time>2026-03-29T09:12:36.958Z</time></trkpt><trkpt lat="43.6999083" lon="12.5785183"><ele>434.0</ele><time>2026-03-29T09:12:37.959Z</time></trkpt><trkpt lat="43.6998167" lon="12.57853"><ele>434.0</ele><time>2026-03-29T09:12:38.958Z</time></trkpt><trkpt lat="43.6996983" lon="12.5785767"><ele>434.0</ele><time>2026-03-29T09:12:39.959Z</time></trkpt><trkpt lat="43.6995767" lon="12.5786167"><ele>434.0</ele><time>2026-03-29T09:12:40.958Z</time></trkpt><trkpt lat="43.6994533" lon="12.5787333"><ele>434.0</ele><time>2026-03-29T09:12:42.959Z</time></trkpt><trkpt lat="43.6993533" lon="12.5787867"><ele>434.16666666666663</ele><time>2026-03-29T09:12:43.958Z</time></trkpt><trkpt lat="43.6992817" lon="12.5788367"><ele>434.3333333333333</ele><time>2026-03-29T09:12:44.958Z</time></trkpt><trkpt lat="43.6992133" lon="12.5788983"><ele>434.5</ele><time>2026-03-29T09:12:45.959Z</time></trkpt><trkpt lat="43.6991533" lon="12.57897"><ele>434.66666666666663</ele><time>2026-03-29T09:12:46.958Z</time></trkpt><trkpt lat="43.6990933" lon="12.57907"><ele>434.8333333333333</ele><time>2026-03-29T09:12:47.959Z</time></trkpt><trkpt lat="43.69905" lon="12.5791783"><ele>435.0</ele><time>2026-03-29T09:12:48.959Z</time></trkpt><trkpt lat="43.69902" lon="12.5793"><ele>435.0</ele><time>2026-03-29T09:12:49.958Z</time></trkpt><trkpt lat="43.6989933" lon="12.579425"><ele>435.0</ele><time>2026-03-29T09:12:50.959Z</time></trkpt><trkpt lat="43.6989683" lon="12.5795517"><ele>435.0</ele><time>2026-03-29T09:12:51.959Z</time></trkpt><trkpt lat="43.698915" lon="12.579675"><ele>435.0</ele><time>2026-03-29T09:12:52.958Z</time></trkpt><trkpt lat="43.698855" lon="12.5797883"><ele>435.0</ele><time>2026-03-29T09:12:53.959Z</time></trkpt><trkpt lat="43.6987767" lon="12.57988"><ele>437.2</ele><time>2026-03-29T09:12:54.959Z</time></trkpt><trkpt lat="43.698695" lon="12.5799367"><ele>439.4</ele><time>2026-03-29T09:12:55.959Z</time></trkpt><trkpt lat="43.69861" lon="12.5799783"><ele>441.6</ele><time>2026-03-29T09:12:56.958Z</time></trkpt><trkpt lat="43.698525" lon="12.580005"><ele>443.8</ele><time>2026-03-29T09:12:57.958Z</time></trkpt><trkpt lat="43.6984233" lon="12.5799533"><ele>446.0</ele><time>2026-03-29T09:12:58.959Z</time></trkpt><trkpt lat="43.6983083" lon="12.5798967"><ele>440.25</ele><time>2026-03-29T09:12:59.958Z</time></trkpt><trkpt lat="43.6981667" lon="12.579845"><ele>434.5</ele><time>2026-03-29T09:13:00.958Z</time></trkpt><trkpt lat="43.6980333" lon="12.5797917"><ele>428.75</ele><time>2026-03-29T09:13:01.958Z</time></trkpt><trkpt lat="43.6979017" lon="12.5797483"><ele>423.0</ele><time>2026-03-29T09:13:02.959Z</time></trkpt><trkpt lat="43.69778" lon="12.5797117"><ele>421.59999999999997</ele><time>2026-03-29T09:13:03.959Z</time></trkpt><trkpt lat="43.6976783" lon="12.5796683"><ele>420.2</ele><time>2026-03-29T09:13:04.959Z</time></trkpt><trkpt lat="43.697595" lon="12.5796267"><ele>418.8</ele><time>2026-03-29T09:13:05.959Z</time></trkpt><trkpt lat="43.6975" lon="12.57954"><ele>417.4</ele><time>2026-03-29T09:13:07.958Z</time></trkpt><trkpt lat="43.6975117" lon="12.5794167"><ele>416.0</ele><time>2026-03-29T09:13:09.958Z</time></trkpt><trkpt lat="43.6975733" lon="12.579285"><ele>413.8</ele><time>2026-03-29T09:13:11.958Z</time></trkpt><trkpt lat="43.6975867" lon="12.57918"><ele>411.6</ele><time>2026-03-29T09:13:13.958Z</time></trkpt><trkpt lat="43.6975233" lon="12.5791467"><ele>409.4</ele><time>2026-03-29T09:13:15.958Z</time></trkpt><trkpt lat="43.6974183" lon="12.5792333"><ele>407.2</ele><time>2026-03-29T09:13:17.958Z</time></trkpt><trkpt lat="43.6973533" lon="12.57932"><ele>405.0</ele><time>2026-03-29T09:13:18.958Z</time></trkpt><trkpt lat="43.6972717" lon="12.5794367"><ele>407.75</ele><time>2026-03-29T09:13:19.959Z</time></trkpt><trkpt lat="43.6971933" lon="12.57957"><ele>410.5</ele><time>2026-03-29T09:13:20.959Z</time></trkpt><trkpt lat="43.6971117" lon="12.579735"><ele>413.25</ele><time>2026-03-29T09:13:21.959Z</time></trkpt><trkpt lat="43.6970333" lon="12.579885"><ele>416.0</ele><time>2026-03-29T09:13:22.959Z</time></trkpt><trkpt lat="43.6969417" lon="12.5799983"><ele>413.8</ele><time>2026-03-29T09:13:23.958Z</time></trkpt><trkpt lat="43.6968367" lon="12.58005"><ele>411.6</ele><time>2026-03-29T09:13:24.959Z</time></trkpt><trkpt lat="43.6967267" lon="12.58007"><ele>409.4</ele><time>2026-03-29T09:13:25.958Z</time></trkpt><trkpt lat="43.6966333" lon="12.580045"><ele>407.2</ele><time>2026-03-29T09:13:26.958Z</time></trkpt><trkpt lat="43.6965383" lon="12.58002"><ele>405.0</ele><time>2026-03-29T09:13:27.959Z</time></trkpt><trkpt lat="43.6964233" lon="12.5800167"><ele>405.0</ele><time>2026-03-29T09:13:28.959Z</time></trkpt><trkpt lat="43.69631" lon="12.5800217"><ele>405.0</ele><time>2026-03-29T09:13:29.958Z</time></trkpt><trkpt lat="43.6962083" lon="12.5800333"><ele>405.0</ele><time>2026-03-29T09:13:30.958Z</time></trkpt><trkpt lat="43.6960983" lon="12.5800417"><ele>405.0</ele><time>2026-03-29T09:13:31.959Z</time></trkpt><trkpt lat="43.695995" lon="12.5800283"><ele>405.0</ele><time>2026-03-29T09:13:32.958Z</time></trkpt><trkpt lat="43.6958917" lon="12.5799883"><ele>403.6666666666667</ele><time>2026-03-29T09:13:33.959Z</time></trkpt><trkpt lat="43.6957933" lon="12.579955"><ele>402.33333333333337</ele><time>2026-03-29T09:13:34.959Z</time></trkpt><trkpt lat="43.6957067" lon="12.5799183"><ele>401.0</ele><time>2026-03-29T09:13:35.958Z</time></trkpt><trkpt lat="43.6956367" lon="12.57989"><ele>399.6666666666667</ele><time>2026-03-29T09:13:36.959Z</time></trkpt><trkpt lat="43.69557" lon="12.57989"><ele>398.33333333333337</ele><time>2026-03-29T09:13:37.958Z</time></trkpt><trkpt lat="43.6954733" lon="12.5799683"><ele>397.0</ele><time>2026-03-29T09:13:39.958Z</time></trkpt><trkpt lat="43.6954283" lon="12.5800517"><ele>397.0</ele><time>2026-03-29T09:13:40.959Z</time></trkpt><trkpt lat="43.6953967" lon="12.5801633"><ele>397.0</ele><time>2026-03-29T09:13:41.959Z</time></trkpt><trkpt lat="43.6953583" lon="12.5803283"><ele>397.0</ele><time>2026-03-29T09:13:42.958Z</time></trkpt><trkpt lat="43.6952933" lon="12.5805"><ele>397.0</ele><time>2026-03-29T09:13:43.959Z</time></trkpt><trkpt lat="43.6951883" lon="12.58069"><ele>395.33333333333337</ele><time>2026-03-29T09:13:44.958Z</time></trkpt><trkpt lat="43.6950717" lon="12.5808517"><ele>393.66666666666663</ele><time>2026-03-29T09:13:45.959Z</time></trkpt><trkpt lat="43.6949533" lon="12.5809967"><ele>392.0</ele><time>2026-03-29T09:13:46.958Z</time></trkpt><trkpt lat="43.6948317" lon="12.5811083"><ele>395.25</ele><time>2026-03-29T09:13:47.958Z</time></trkpt><trkpt lat="43.694725" lon="12.5812383"><ele>398.5</ele><time>2026-03-29T09:13:48.958Z</time></trkpt><trkpt lat="43.6946283" lon="12.5813433"><ele>401.75</ele><time>2026-03-29T09:13:49.959Z</time></trkpt><trkpt lat="43.6945433" lon="12.5814717"><ele>405.0</ele><time>2026-03-29T09:13:50.959Z</time></trkpt><trkpt lat="43.6944783" lon="12.58162"><ele>402.75</ele><time>2026-03-29T09:13:51.959Z</time></trkpt><trkpt lat="43.69441" lon="12.581775"><ele>400.5</ele><time>2026-03-29T09:13:52.958Z</time></trkpt><trkpt lat="43.69434" lon="12.5819133"><ele>398.25</ele><time>2026-03-29T09:13:53.959Z</time></trkpt><trkpt lat="43.69425" lon="12.58203"><ele>396.0</ele><time>2026-03-29T09:13:54.959Z</time></trkpt><trkpt lat="43.694155" lon="12.5821533"><ele>396.0</ele><time>2026-03-29T09:13:55.958Z</time></trkpt><trkpt lat="43.6940567" lon="12.5822867"><ele>396.0</ele><time>2026-03-29T09:13:56.959Z</time></trkpt><trkpt lat="43.6939667" lon="12.5824233"><ele>396.0</ele><time>2026-03-29T09:13:57.959Z</time></trkpt><trkpt lat="43.693895" lon="12.5825933"><ele>396.0</ele><time>2026-03-29T09:13:58.959Z</time></trkpt><trkpt lat="43.6938167" lon="12.582735"><ele>395.20000000000005</ele><time>2026-03-29T09:13:59.958Z</time></trkpt><trkpt lat="43.6937317" lon="12.5828533"><ele>394.40000000000003</ele><time>2026-03-29T09:14:00.958Z</time></trkpt><trkpt lat="43.6936533" lon="12.5829717"><ele>393.6</ele><time>2026-03-29T09:14:01.959Z</time></trkpt><trkpt lat="43.693585" lon="12.5830833"><ele>392.8</ele><time>2026-03-29T09:14:02.958Z</time></trkpt><trkpt lat="43.693535" lon="12.5831967"><ele>392.0</ele><time>2026-03-29T09:14:03.959Z</time></trkpt><trkpt lat="43.69348" lon="12.5832917"><ele>391.99999999999994</ele><time>2026-03-29T09:14:04.958Z</time></trkpt><trkpt lat="43.693435" lon="12.5833883"><ele>392.0</ele><time>2026-03-29T09:14:05.959Z</time></trkpt><trkpt lat="43.693375" lon="12.583465"><ele>392.0</ele><time>2026-03-29T09:14:06.959Z</time></trkpt><trkpt lat="43.6933033" lon="12.5835017"><ele>392.0</ele><time>2026-03-29T09:14:07.958Z</time></trkpt><trkpt lat="43.69322" lon="12.5835"><ele>391.99999999999994</ele><time>2026-03-29T09:14:08.958Z</time></trkpt><trkpt lat="43.693115" lon="12.5834717"><ele>392.0</ele><time>2026-03-29T09:14:09.958Z</time></trkpt><trkpt lat="43.6930167" lon="12.583445"><ele>392.0</ele><time>2026-03-29T09:14:10.958Z</time></trkpt><trkpt lat="43.6929367" lon="12.58344"><ele>392.0</ele><time>2026-03-29T09:14:11.959Z</time></trkpt><trkpt lat="43.692865" lon="12.5834667"><ele>392.0</ele><time>2026-03-29T09:14:12.959Z</time></trkpt><trkpt lat="43.6928017" lon="12.583505"><ele>392.0</ele><time>2026-03-29T09:14:13.958Z</time></trkpt><trkpt lat="43.6927333" lon="12.5836117"><ele>392.0</ele><time>2026-03-29T09:14:15.958Z</time></trkpt><trkpt lat="43.692795" lon="12.5838033"><ele>395.25</ele><time>2026-03-29T09:14:17.959Z</time></trkpt><trkpt lat="43.69287" lon="12.583955"><ele>398.5</ele><time>2026-03-29T09:14:18.959Z</time></trkpt><trkpt lat="43.6929367" lon="12.5841267"><ele>401.75</ele><time>2026-03-29T09:14:19.958Z</time></trkpt><trkpt lat="43.6930083" lon="12.5843033"><ele>405.0</ele><time>2026-03-29T09:14:20.959Z</time></trkpt><trkpt lat="43.69305" lon="12.5844667"><ele>406.5</ele><time>2026-03-29T09:14:21.959Z</time></trkpt><trkpt lat="43.6930817" lon="12.5845967"><ele>408.0</ele><time>2026-03-29T09:14:22.958Z</time></trkpt><trkpt lat="43.6930933" lon="12.584685"><ele>409.5</ele><time>2026-03-29T09:14:23.958Z</time></trkpt><trkpt lat="43.6930717" lon="12.5847717"><ele>411.0</ele><time>2026-03-29T09:14:24.958Z</time></trkpt><trkpt lat="43.6930367" lon="12.5848467"><ele>412.5</ele><time>2026-03-29T09:14:25.959Z</time></trkpt><trkpt lat="43.693" lon="12.5849883"><ele>414.0</ele><time>2026-03-29T09:14:27.958Z</time></trkpt><trkpt lat="43.693025" lon="12.5850967"><ele>414.0</ele><time>2026-03-29T09:14:29.959Z</time></trkpt><trkpt lat="43.6931133" lon="12.5851783"><ele>414.0</ele><time>2026-03-29T09:14:31.959Z</time></trkpt><trkpt lat="43.6931833" lon="12.5852417"><ele>414.0</ele><time>2026-03-29T09:14:32.959Z</time></trkpt><trkpt lat="43.6932633" lon="12.5853367"><ele>414.0</ele><time>2026-03-29T09:14:33.958Z</time></trkpt><trkpt lat="43.6933433" lon="12.5854317"><ele>414.0</ele><time>2026-03-29T09:14:34.958Z</time></trkpt><trkpt lat="43.69342" lon="12.585525"><ele>414.5</ele><time>2026-03-29T09:14:35.959Z</time></trkpt><trkpt lat="43.69348" lon="12.5856183"><ele>415.0</ele><time>2026-03-29T09:14:36.959Z</time></trkpt><trkpt lat="43.693515" lon="12.5857183"><ele>415.5</ele><time>2026-03-29T09:14:37.959Z</time></trkpt><trkpt lat="43.69354" lon="12.5858417"><ele>416.0</ele><time>2026-03-29T09:14:38.959Z</time></trkpt><trkpt lat="43.6935517" lon="12.58595"><ele>416.5</ele><time>2026-03-29T09:14:39.959Z</time></trkpt><trkpt lat="43.6935617" lon="12.5860733"><ele>417.0</ele><time>2026-03-29T09:14:40.958Z</time></trkpt><trkpt lat="43.6935667" lon="12.58621"><ele>419.20000000000005</ele><time>2026-03-29T09:14:41.959Z</time></trkpt><trkpt lat="43.6935533" lon="12.58633"><ele>421.4</ele><time>2026-03-29T09:14:42.959Z</time></trkpt><trkpt lat="43.6935167" lon="12.586445"><ele>423.59999999999997</ele><time>2026-03-29T09:14:43.959Z</time></trkpt><trkpt lat="43.6934567" lon="12.58655"><ele>425.79999999999995</ele><time>2026-03-29T09:14:44.959Z</time></trkpt><trkpt lat="43.6933817" lon="12.58663"><ele>428.0</ele><time>2026-03-29T09:14:45.958Z</time></trkpt><trkpt lat="43.693305" lon="12.58669"><ele>427.99999999999994</ele><time>2026-03-29T09:14:46.959Z</time></trkpt><trkpt lat="43.6932333" lon="12.5867483"><ele>428.0</ele><time>2026-03-29T09:14:47.959Z</time></trkpt><trkpt lat="43.693175" lon="12.5868133"><ele>428.0</ele><time>2026-03-29T09:14:48.958Z</time></trkpt><trkpt lat="43.6931467" lon="12.5868967"><ele>428.0</ele><time>2026-03-29T09:14:49.959Z</time></trkpt><trkpt lat="43.693125" lon="12.5869933"><ele>427.99999999999994</ele><time>2026-03-29T09:14:50.959Z</time></trkpt><trkpt lat="43.693125" lon="12.5871017"><ele>428.0</ele><time>2026-03-29T09:14:51.959Z</time></trkpt><trkpt lat="43.6931417" lon="12.5872117"><ele>429.4</ele><time>2026-03-29T09:14:52.958Z</time></trkpt><trkpt lat="43.6931817" lon="12.58732"><ele>430.79999999999995</ele><time>2026-03-29T09:14:53.959Z</time></trkpt><trkpt lat="43.69323" lon="12.58744"><ele>432.2</ele><time>2026-03-29T09:14:54.959Z</time></trkpt><trkpt lat="43.6933" lon="12.5875517"><ele>433.6</ele><time>2026-03-29T09:14:55.958Z</time></trkpt><trkpt lat="43.6933933" lon="12.5876633"><ele>435.0</ele><time>2026-03-29T09:14:56.958Z</time></trkpt><trkpt lat="43.6934733" lon="12.58776"><ele>435.0</ele><time>2026-03-29T09:14:57.958Z</time></trkpt><trkpt lat="43.693535" lon="12.58787"><ele>435.0</ele><time>2026-03-29T09:14:58.959Z</time></trkpt><trkpt lat="43.6935867" lon="12.5880017"><ele>435.0</ele><time>2026-03-29T09:14:59.959Z</time></trkpt><trkpt lat="43.693615" lon="12.588145"><ele>435.0</ele><time>2026-03-29T09:15:00.959Z</time></trkpt><trkpt lat="43.6936367" lon="12.5882983"><ele>435.0</ele><time>2026-03-29T09:15:01.959Z</time></trkpt><trkpt lat="43.6936567" lon="12.5884367"><ele>439.8</ele><time>2026-03-29T09:15:02.959Z</time></trkpt><trkpt lat="43.69368" lon="12.5885667"><ele>444.6</ele><time>2026-03-29T09:15:03.958Z</time></trkpt><trkpt lat="43.6937183" lon="12.5886917"><ele>449.4</ele><time>2026-03-29T09:15:04.959Z</time></trkpt><trkpt lat="43.693765" lon="12.58882"><ele>454.2</ele><time>2026-03-29T09:15:05.959Z</time></trkpt><trkpt lat="43.693825" lon="12.58895"><ele>459.0</ele><time>2026-03-29T09:15:06.959Z</time></trkpt><trkpt lat="43.693915" lon="12.589085"><ele>459.5</ele><time>2026-03-29T09:15:07.959Z</time></trkpt><trkpt lat="43.6939967" lon="12.5892033"><ele>460.0</ele><time>2026-03-29T09:15:08.959Z</time></trkpt><trkpt lat="43.6940733" lon="12.58933"><ele>460.5</ele><time>2026-03-29T09:15:09.958Z</time></trkpt><trkpt lat="43.694155" lon="12.58947"><ele>461.0</ele><time>2026-03-29T09:15:10.958Z</time></trkpt><trkpt lat="43.6942283" lon="12.5895933"><ele>462.6</ele><time>2026-03-29T09:15:11.959Z</time></trkpt><trkpt lat="43.6943067" lon="12.5896683"><ele>464.20000000000005</ele><time>2026-03-29T09:15:12.958Z</time></trkpt><trkpt lat="43.6943983" lon="12.5897467"><ele>465.79999999999995</ele><time>2026-03-29T09:15:13.958Z</time></trkpt><trkpt lat="43.6944933" lon="12.5898117"><ele>467.4</ele><time>2026-03-29T09:15:14.959Z</time></trkpt><trkpt lat="43.6945867" lon="12.589865"><ele>469.0</ele><time>2026-03-29T09:15:15.959Z</time></trkpt><trkpt lat="43.6946817" lon="12.5899233"><ele>469.0</ele><time>2026-03-29T09:15:16.959Z</time></trkpt><trkpt lat="43.694775" lon="12.5899717"><ele>469.0</ele><time>2026-03-29T09:15:17.959Z</time></trkpt><trkpt lat="43.6948633" lon="12.590005"><ele>469.0</ele><time>2026-03-29T09:15:18.958Z</time></trkpt><trkpt lat="43.694965" lon="12.59004"><ele>469.0</ele><time>2026-03-29T09:15:19.959Z</time></trkpt><trkpt lat="43.6950783" lon="12.5900567"><ele>469.0</ele><time>2026-03-29T09:15:20.959Z</time></trkpt><trkpt lat="43.6952083" lon="12.590065"><ele>473.0</ele><time>2026-03-29T09:15:21.959Z</time></trkpt><trkpt lat="43.6953183" lon="12.590065"><ele>477.0</ele><time>2026-03-29T09:15:22.959Z</time></trkpt><trkpt lat="43.6954317" lon="12.5900733"><ele>481.0</ele><time>2026-03-29T09:15:23.958Z</time></trkpt><trkpt lat="43.6955517" lon="12.59007"><ele>485.0</ele><time>2026-03-29T09:15:24.959Z</time></trkpt><trkpt lat="43.69567" lon="12.5900667"><ele>485.0</ele><time>2026-03-29T09:15:25.959Z</time></trkpt><trkpt lat="43.6957733" lon="12.5900833"><ele>485.0</ele><time>2026-03-29T09:15:26.958Z</time></trkpt><trkpt lat="43.6958717" lon="12.5900917"><ele>485.0</ele><time>2026-03-29T09:15:27.959Z</time></trkpt><trkpt lat="43.6959717" lon="12.59013"><ele>485.0</ele><time>2026-03-29T09:15:28.959Z</time></trkpt><trkpt lat="43.6960533" lon="12.5902"><ele>485.0</ele><time>2026-03-29T09:15:29.959Z</time></trkpt><trkpt lat="43.6961117" lon="12.5903133"><ele>484.16666666666663</ele><time>2026-03-29T09:15:30.958Z</time></trkpt><trkpt lat="43.696155" lon="12.59044"><ele>483.3333333333333</ele><time>2026-03-29T09:15:31.959Z</time></trkpt><trkpt lat="43.6961917" lon="12.59055"><ele>482.5</ele><time>2026-03-29T09:15:32.958Z</time></trkpt><trkpt lat="43.6962267" lon="12.590645"><ele>481.66666666666663</ele><time>2026-03-29T09:15:33.958Z</time></trkpt><trkpt lat="43.6962667" lon="12.59074"><ele>480.8333333333333</ele><time>2026-03-29T09:15:34.959Z</time></trkpt><trkpt lat="43.69632" lon="12.5908017"><ele>480.0</ele><time>2026-03-29T09:15:35.959Z</time></trkpt><trkpt lat="43.6964467" lon="12.5908683"><ele>480.0</ele><time>2026-03-29T09:15:37.959Z</time></trkpt><trkpt lat="43.6965467" lon="12.590875"><ele>480.0</ele><time>2026-03-29T09:15:38.958Z</time></trkpt><trkpt lat="43.696655" lon="12.5908783"><ele>480.0</ele><time>2026-03-29T09:15:39.958Z</time></trkpt><trkpt lat="43.6967833" lon="12.5908867"><ele>480.0</ele><time>2026-03-29T09:15:40.959Z</time></trkpt><trkpt lat="43.69693" lon="12.5908917"><ele>480.1666666666667</ele><time>2026-03-29T09:15:41.959Z</time></trkpt><trkpt lat="43.69704" lon="12.5909"><ele>480.33333333333337</ele><time>2026-03-29T09:15:42.958Z</time></trkpt><trkpt lat="43.69714" lon="12.5909167"><ele>480.5</ele><time>2026-03-29T09:15:43.959Z</time></trkpt><trkpt lat="43.6972183" lon="12.590965"><ele>480.6666666666667</ele><time>2026-03-29T09:15:44.958Z</time></trkpt><trkpt lat="43.697275" lon="12.5910333"><ele>480.83333333333337</ele><time>2026-03-29T09:15:45.959Z</time></trkpt><trkpt lat="43.697325" lon="12.59111"><ele>481.0</ele><time>2026-03-29T09:15:46.959Z</time></trkpt><trkpt lat="43.697345" lon="12.59122"><ele>481.00000000000006</ele><time>2026-03-29T09:15:47.959Z</time></trkpt><trkpt lat="43.6973433" lon="12.5913417"><ele>481.0</ele><time>2026-03-29T09:15:48.958Z</time></trkpt><trkpt lat="43.6973183" lon="12.5914683"><ele>481.0</ele><time>2026-03-29T09:15:49.959Z</time></trkpt><trkpt lat="43.69732" lon="12.5915833"><ele>481.0</ele><time>2026-03-29T09:15:50.958Z</time></trkpt><trkpt lat="43.6973333" lon="12.5916817"><ele>481.00000000000006</ele><time>2026-03-29T09:15:51.959Z</time></trkpt><trkpt lat="43.6974017" lon="12.5917783"><ele>481.0</ele><time>2026-03-29T09:15:53.959Z</time></trkpt><trkpt lat="43.6975183" lon="12.5917883"><ele>481.00000000000006</ele><time>2026-03-29T09:15:55.959Z</time></trkpt><trkpt lat="43.697595" lon="12.5917533"><ele>481.0</ele><time>2026-03-29T09:15:56.959Z</time></trkpt><trkpt lat="43.6976917" lon="12.59171"><ele>481.0</ele><time>2026-03-29T09:15:57.958Z</time></trkpt><trkpt lat="43.6977733" lon="12.59168"><ele>481.0</ele><time>2026-03-29T09:15:58.959Z</time></trkpt><trkpt lat="43.69786" lon="12.591655"><ele>481.00000000000006</ele><time>2026-03-29T09:15:59.959Z</time></trkpt><trkpt lat="43.6979383" lon="12.59166"><ele>481.0</ele><time>2026-03-29T09:16:00.959Z</time></trkpt><trkpt lat="43.69803" lon="12.5916633"><ele>482.8</ele><time>2026-03-29T09:16:01.959Z</time></trkpt><trkpt lat="43.6981217" lon="12.591695"><ele>484.6</ele><time>2026-03-29T09:16:02.958Z</time></trkpt><trkpt lat="43.69822" lon="12.59174"><ele>486.4</ele><time>2026-03-29T09:16:03.958Z</time></trkpt><trkpt lat="43.6983367" lon="12.5917817"><ele>488.2</ele><time>2026-03-29T09:16:04.959Z</time></trkpt><trkpt lat="43.6984467" lon="12.5918167"><ele>490.0</ele><time>2026-03-29T09:16:05.959Z</time></trkpt><trkpt lat="43.6985717" lon="12.5918417"><ele>491.6666666666667</ele><time>2026-03-29T09:16:06.959Z</time></trkpt><trkpt lat="43.6987183" lon="12.5919033"><ele>493.33333333333337</ele><time>2026-03-29T09:16:07.959Z</time></trkpt><trkpt lat="43.69886" lon="12.5919833"><ele>495.0</ele><time>2026-03-29T09:16:08.958Z</time></trkpt><trkpt lat="43.699" lon="12.5920567"><ele>492.4</ele><time>2026-03-29T09:16:09.959Z</time></trkpt><trkpt lat="43.69912" lon="12.5920917"><ele>489.8</ele><time>2026-03-29T09:16:10.959Z</time></trkpt><trkpt lat="43.69922" lon="12.5921067"><ele>487.20000000000005</ele><time>2026-03-29T09:16:11.959Z</time></trkpt><trkpt lat="43.69931" lon="12.5921017"><ele>484.6</ele><time>2026-03-29T09:16:12.958Z</time></trkpt><trkpt lat="43.6994033" lon="12.59208"><ele>482.0</ele><time>2026-03-29T09:16:13.959Z</time></trkpt><trkpt lat="43.6995067" lon="12.5920517"><ele>482.0</ele><time>2026-03-29T09:16:14.959Z</time></trkpt><trkpt lat="43.69963" lon="12.5920383"><ele>482.0</ele><time>2026-03-29T09:16:15.959Z</time></trkpt><trkpt lat="43.6997667" lon="12.592005"><ele>482.0</ele><time>2026-03-29T09:16:16.958Z</time></trkpt><trkpt lat="43.699905" lon="12.5919767"><ele>482.0</ele><time>2026-03-29T09:16:17.959Z</time></trkpt><trkpt lat="43.7000233" lon="12.59195"><ele>484.6</ele><time>2026-03-29T09:16:18.958Z</time></trkpt><trkpt lat="43.7001483" lon="12.5919233"><ele>487.20000000000005</ele><time>2026-03-29T09:16:19.959Z</time></trkpt><trkpt lat="43.7002583" lon="12.59191"><ele>489.8</ele><time>2026-03-29T09:16:20.958Z</time></trkpt><trkpt lat="43.700345" lon="12.5919083"><ele>492.4</ele><time>2026-03-29T09:16:21.958Z</time></trkpt><trkpt lat="43.7004183" lon="12.59191"><ele>495.0</ele><time>2026-03-29T09:16:22.959Z</time></trkpt><trkpt lat="43.7005217" lon="12.5919933"><ele>496.6</ele><time>2026-03-29T09:16:24.959Z</time></trkpt><trkpt lat="43.70053" lon="12.5921333"><ele>498.2</ele><time>2026-03-29T09:16:26.959Z</time></trkpt><trkpt lat="43.700495" lon="12.5922083"><ele>499.79999999999995</ele><time>2026-03-29T09:16:27.958Z</time></trkpt><trkpt lat="43.7004183" lon="12.592295"><ele>501.4</ele><time>2026-03-29T09:16:28.959Z</time></trkpt><trkpt lat="43.70031" lon="12.5923767"><ele>503.0</ele><time>2026-03-29T09:16:29.959Z</time></trkpt><trkpt lat="43.7001633" lon="12.5924883"><ele>494.5</ele><time>2026-03-29T09:16:30.959Z</time></trkpt><trkpt lat="43.69998" lon="12.59266"><ele>486.0</ele><time>2026-03-29T09:16:31.959Z</time></trkpt><trkpt lat="43.6998" lon="12.592875"><ele>486.0</ele><time>2026-03-29T09:16:32.958Z</time></trkpt><trkpt lat="43.69959" lon="12.5931367"><ele>486.0</ele><time>2026-03-29T09:16:33.958Z</time></trkpt><trkpt lat="43.699395" lon="12.5933567"><ele>487.0</ele><time>2026-03-29T09:16:34.958Z</time></trkpt><trkpt lat="43.6992267" lon="12.5935317"><ele>488.0</ele><time>2026-03-29T09:16:35.959Z</time></trkpt><trkpt lat="43.6990783" lon="12.5936783"><ele>489.0</ele><time>2026-03-29T09:16:36.958Z</time></trkpt><trkpt lat="43.6989367" lon="12.5937917"><ele>489.0</ele><time>2026-03-29T09:16:37.959Z</time></trkpt><trkpt lat="43.6987933" lon="12.5938833"><ele>489.0</ele><time>2026-03-29T09:16:38.958Z</time></trkpt><trkpt lat="43.6986383" lon="12.5939433"><ele>489.0</ele><time>2026-03-29T09:16:39.959Z</time></trkpt><trkpt lat="43.6984817" lon="12.5939783"><ele>487.5</ele><time>2026-03-29T09:16:40.959Z</time></trkpt><trkpt lat="43.6983433" lon="12.5940167"><ele>486.0</ele><time>2026-03-29T09:16:41.958Z</time></trkpt><trkpt lat="43.6982133" lon="12.5940583"><ele>484.5</ele><time>2026-03-29T09:16:42.958Z</time></trkpt><trkpt lat="43.698095" lon="12.5941067"><ele>483.0</ele><time>2026-03-29T09:16:43.958Z</time></trkpt><trkpt lat="43.6979833" lon="12.594155"><ele>483.0</ele><time>2026-03-29T09:16:44.958Z</time></trkpt><trkpt lat="43.697885" lon="12.5942083"><ele>482.99999999999994</ele><time>2026-03-29T09:16:45.959Z</time></trkpt><trkpt lat="43.697795" lon="12.594265"><ele>482.99999999999994</ele><time>2026-03-29T09:16:46.959Z</time></trkpt><trkpt lat="43.697715" lon="12.5943317"><ele>483.0</ele><time>2026-03-29T09:16:47.959Z</time></trkpt><trkpt lat="43.6976483" lon="12.594405"><ele>483.0</ele><time>2026-03-29T09:16:48.958Z</time></trkpt><trkpt lat="43.69758" lon="12.59451"><ele>484.25</ele><time>2026-03-29T09:16:49.958Z</time></trkpt><trkpt lat="43.697495" lon="12.5946183"><ele>485.5</ele><time>2026-03-29T09:16:50.959Z</time></trkpt><trkpt lat="43.6973917" lon="12.5947133"><ele>486.75</ele><time>2026-03-29T09:16:51.959Z</time></trkpt><trkpt lat="43.697275" lon="12.5948033"><ele>488.0</ele><time>2026-03-29T09:16:52.959Z</time></trkpt><trkpt lat="43.69715" lon="12.59488"><ele>488.0</ele><time>2026-03-29T09:16:53.958Z</time></trkpt><trkpt lat="43.6970067" lon="12.5949433"><ele>488.0</ele><time>2026-03-29T09:16:54.959Z</time></trkpt><trkpt lat="43.696845" lon="12.5949783"><ele>488.0</ele><time>2026-03-29T09:16:55.958Z</time></trkpt><trkpt lat="43.6966817" lon="12.59499"><ele>484.75</ele><time>2026-03-29T09:16:56.958Z</time></trkpt><trkpt lat="43.69652" lon="12.594965"><ele>481.5</ele><time>2026-03-29T09:16:57.958Z</time></trkpt><trkpt lat="43.6963683" lon="12.5949617"><ele>478.25</ele><time>2026-03-29T09:16:58.959Z</time></trkpt><trkpt lat="43.6962467" lon="12.5949383"><ele>475.0</ele><time>2026-03-29T09:16:59.959Z</time></trkpt><trkpt lat="43.69615" lon="12.5948983"><ele>475.1666666666667</ele><time>2026-03-29T09:17:00.959Z</time></trkpt><trkpt lat="43.6960583" lon="12.5949117"><ele>475.33333333333337</ele><time>2026-03-29T09:17:01.958Z</time></trkpt><trkpt lat="43.6959933" lon="12.5949333"><ele>475.5</ele><time>2026-03-29T09:17:02.959Z</time></trkpt><trkpt lat="43.695925" lon="12.594975"><ele>475.66666666666663</ele><time>2026-03-29T09:17:03.958Z</time></trkpt><trkpt lat="43.6958617" lon="12.5950483"><ele>475.8333333333333</ele><time>2026-03-29T09:17:05.959Z</time></trkpt><trkpt lat="43.6958933" lon="12.5952083"><ele>476.0</ele><time>2026-03-29T09:17:07.959Z</time></trkpt><trkpt lat="43.6959417" lon="12.5953283"><ele>480.25</ele><time>2026-03-29T09:17:08.958Z</time></trkpt><trkpt lat="43.6959817" lon="12.5954717"><ele>484.5</ele><time>2026-03-29T09:17:09.959Z</time></trkpt><trkpt lat="43.696035" lon="12.595675"><ele>488.75</ele><time>2026-03-29T09:17:10.958Z</time></trkpt><trkpt lat="43.6960933" lon="12.5958767"><ele>493.0</ele><time>2026-03-29T09:17:11.959Z</time></trkpt><trkpt lat="43.696145" lon="12.596075"><ele>494.50000000000006</ele><time>2026-03-29T09:17:12.959Z</time></trkpt><trkpt lat="43.6961917" lon="12.5962367"><ele>496.0</ele><time>2026-03-29T09:17:13.959Z</time></trkpt><trkpt lat="43.6962383" lon="12.5963433"><ele>497.5</ele><time>2026-03-29T09:17:14.958Z</time></trkpt><trkpt lat="43.6962733" lon="12.59643"><ele>499.0</ele><time>2026-03-29T09:17:15.959Z</time></trkpt><trkpt lat="43.69632" lon="12.5965133"><ele>500.50000000000006</ele><time>2026-03-29T09:17:16.959Z</time></trkpt><trkpt lat="43.6963733" lon="12.5966033"><ele>502.0</ele><time>2026-03-29T09:17:17.959Z</time></trkpt><trkpt lat="43.696435" lon="12.5967083"><ele>502.0</ele><time>2026-03-29T09:17:18.958Z</time></trkpt><trkpt lat="43.6964983" lon="12.5968183"><ele>502.00000000000006</ele><time>2026-03-29T09:17:19.959Z</time></trkpt><trkpt lat="43.69657" lon="12.59695"><ele>502.00000000000006</ele><time>2026-03-29T09:17:20.958Z</time></trkpt><trkpt lat="43.69664" lon="12.5970783"><ele>502.0</ele><time>2026-03-29T09:17:21.959Z</time></trkpt><trkpt lat="43.6967117" lon="12.5971917"><ele>502.0</ele><time>2026-03-29T09:17:22.959Z</time></trkpt><trkpt lat="43.696785" lon="12.5973133"><ele>500.75</ele><time>2026-03-29T09:17:23.959Z</time></trkpt><trkpt lat="43.696845" lon="12.59743"><ele>499.5</ele><time>2026-03-29T09:17:24.958Z</time></trkpt><trkpt lat="43.6968933" lon="12.5975783"><ele>498.25</ele><time>2026-03-29T09:17:25.958Z</time></trkpt><trkpt lat="43.69693" lon="12.5977417"><ele>497.0</ele><time>2026-03-29T09:17:26.958Z</time></trkpt><trkpt lat="43.6969583" lon="12.5979183"><ele>502.5</ele><time>2026-03-29T09:17:27.959Z</time></trkpt><trkpt lat="43.696985" lon="12.59809"><ele>508.0</ele><time>2026-03-29T09:17:28.959Z</time></trkpt><trkpt lat="43.6970133" lon="12.59825"><ele>513.5</ele><time>2026-03-29T09:17:29.959Z</time></trkpt><trkpt lat="43.6970383" lon="12.5984017"><ele>519.0</ele><time>2026-03-29T09:17:30.959Z</time></trkpt><trkpt lat="43.697065" lon="12.59854"><ele>513.4</ele><time>2026-03-29T09:17:31.959Z</time></trkpt><trkpt lat="43.6971017" lon="12.598675"><ele>507.79999999999995</ele><time>2026-03-29T09:17:32.959Z</time></trkpt><trkpt lat="43.6971617" lon="12.5988083"><ele>502.20000000000005</ele><time>2026-03-29T09:17:33.959Z</time></trkpt><trkpt lat="43.6972383" lon="12.598925"><ele>496.6</ele><time>2026-03-29T09:17:34.959Z</time></trkpt><trkpt lat="43.6973083" lon="12.5990083"><ele>491.0</ele><time>2026-03-29T09:17:35.959Z</time></trkpt><trkpt lat="43.697395" lon="12.5990683"><ele>491.0</ele><time>2026-03-29T09:17:36.959Z</time></trkpt><trkpt lat="43.697475" lon="12.5991533"><ele>491.0</ele><time>2026-03-29T09:17:37.958Z</time></trkpt><trkpt lat="43.6975767" lon="12.5992417"><ele>491.0</ele><time>2026-03-29T09:17:38.958Z</time></trkpt><trkpt lat="43.6976767" lon="12.5993217"><ele>491.0</ele><time>2026-03-29T09:17:39.958Z</time></trkpt><trkpt lat="43.6977633" lon="12.5993983"><ele>491.0</ele><time>2026-03-29T09:17:40.959Z</time></trkpt><trkpt lat="43.6978533" lon="12.5994967"><ele>488.8</ele><time>2026-03-29T09:17:41.959Z</time></trkpt><trkpt lat="43.6979283" lon="12.59958"><ele>486.6</ele><time>2026-03-29T09:17:42.958Z</time></trkpt><trkpt lat="43.6980117" lon="12.599665"><ele>484.4</ele><time>2026-03-29T09:17:43.959Z</time></trkpt><trkpt lat="43.698105" lon="12.59974"><ele>482.2</ele><time>2026-03-29T09:17:44.959Z</time></trkpt><trkpt lat="43.698225" lon="12.5997933"><ele>480.0</ele><time>2026-03-29T09:17:45.959Z</time></trkpt><trkpt lat="43.698345" lon="12.5998467"><ele>480.0</ele><time>2026-03-29T09:17:46.959Z</time></trkpt><trkpt lat="43.69846" lon="12.5998983"><ele>480.0</ele><time>2026-03-29T09:17:47.958Z</time></trkpt><trkpt lat="43.69856" lon="12.5999367"><ele>480.0</ele><time>2026-03-29T09:17:48.959Z</time></trkpt><trkpt lat="43.69866" lon="12.5999733"><ele>480.0</ele><time>2026-03-29T09:17:49.958Z</time></trkpt><trkpt lat="43.6987533" lon="12.6000017"><ele>480.0</ele><time>2026-03-29T09:17:50.958Z</time></trkpt><trkpt lat="43.698845" lon="12.60004"><ele>482.1666666666667</ele><time>2026-03-29T09:17:51.959Z</time></trkpt><trkpt lat="43.698925" lon="12.6001033"><ele>484.33333333333337</ele><time>2026-03-29T09:17:52.959Z</time></trkpt><trkpt lat="43.6989783" lon="12.60018"><ele>486.5</ele><time>2026-03-29T09:17:53.958Z</time></trkpt><trkpt lat="43.6990167" lon="12.6002767"><ele>488.6666666666667</ele><time>2026-03-29T09:17:54.959Z</time></trkpt><trkpt lat="43.6990533" lon="12.600375"><ele>490.83333333333337</ele><time>2026-03-29T09:17:55.959Z</time></trkpt><trkpt lat="43.6990717" lon="12.60048"><ele>493.0</ele><time>2026-03-29T09:17:56.959Z</time></trkpt><trkpt lat="43.6990483" lon="12.6006183"><ele>493.5</ele><time>2026-03-29T09:17:57.959Z</time></trkpt><trkpt lat="43.6989917" lon="12.600805"><ele>494.0</ele><time>2026-03-29T09:17:58.958Z</time></trkpt><trkpt lat="43.6989533" lon="12.60099"><ele>494.5</ele><time>2026-03-29T09:17:59.958Z</time></trkpt><trkpt lat="43.698945" lon="12.6011517"><ele>495.0</ele><time>2026-03-29T09:18:00.958Z</time></trkpt><trkpt lat="43.6989583" lon="12.60131"><ele>495.0</ele><time>2026-03-29T09:18:01.958Z</time></trkpt><trkpt lat="43.698995" lon="12.601435"><ele>495.0</ele><time>2026-03-29T09:18:02.959Z</time></trkpt><trkpt lat="43.69906" lon="12.601575"><ele>495.0</ele><time>2026-03-29T09:18:03.959Z</time></trkpt><trkpt lat="43.6991183" lon="12.601695"><ele>495.0</ele><time>2026-03-29T09:18:04.959Z</time></trkpt><trkpt lat="43.69917" lon="12.6018283"><ele>495.0</ele><time>2026-03-29T09:18:05.958Z</time></trkpt><trkpt lat="43.69923" lon="12.6019633"><ele>495.4</ele><time>2026-03-29T09:18:06.958Z</time></trkpt><trkpt lat="43.6992867" lon="12.6021067"><ele>495.8</ele><time>2026-03-29T09:18:07.959Z</time></trkpt><trkpt lat="43.699335" lon="12.6022317"><ele>496.20000000000005</ele><time>2026-03-29T09:18:08.958Z</time></trkpt><trkpt lat="43.6993867" lon="12.602325"><ele>496.6</ele><time>2026-03-29T09:18:09.959Z</time></trkpt><trkpt lat="43.699445" lon="12.6024167"><ele>497.0</ele><time>2026-03-29T09:18:10.958Z</time></trkpt><trkpt lat="43.6994967" lon="12.60247"><ele>497.6</ele><time>2026-03-29T09:18:11.958Z</time></trkpt><trkpt lat="43.699565" lon="12.60258"><ele>498.20000000000005</ele><time>2026-03-29T09:18:13.958Z</time></trkpt><trkpt lat="43.6996467" lon="12.602705"><ele>498.8</ele><time>2026-03-29T09:18:15.959Z</time></trkpt><trkpt lat="43.699715" lon="12.6027783"><ele>499.4</ele><time>2026-03-29T09:18:16.959Z</time></trkpt><trkpt lat="43.6997933" lon="12.6028383"><ele>500.0</ele><time>2026-03-29T09:18:17.958Z</time></trkpt><trkpt lat="43.6999017" lon="12.6029067"><ele>495.75</ele><time>2026-03-29T09:18:18.959Z</time></trkpt><trkpt lat="43.7000183" lon="12.60296"><ele>491.5</ele><time>2026-03-29T09:18:19.958Z</time></trkpt><trkpt lat="43.7001567" lon="12.6029667"><ele>487.25</ele><time>2026-03-29T09:18:20.958Z</time></trkpt><trkpt lat="43.7002783" lon="12.60294"><ele>483.0</ele><time>2026-03-29T09:18:21.958Z</time></trkpt><trkpt lat="43.7003867" lon="12.6029183"><ele>485.0</ele><time>2026-03-29T09:18:22.958Z</time></trkpt><trkpt lat="43.70049" lon="12.60289"><ele>486.99999999999994</ele><time>2026-03-29T09:18:23.959Z</time></trkpt><trkpt lat="43.7005933" lon="12.6028483"><ele>488.99999999999994</ele><time>2026-03-29T09:18:24.958Z</time></trkpt><trkpt lat="43.7006867" lon="12.602785"><ele>491.0</ele><time>2026-03-29T09:18:25.959Z</time></trkpt><trkpt lat="43.700785" lon="12.6027283"><ele>493.0</ele><time>2026-03-29T09:18:26.959Z</time></trkpt><trkpt lat="43.7008867" lon="12.6026717"><ele>493.0</ele><time>2026-03-29T09:18:27.959Z</time></trkpt><trkpt lat="43.7009933" lon="12.6026283"><ele>493.0</ele><time>2026-03-29T09:18:28.958Z</time></trkpt><trkpt lat="43.701105" lon="12.6026067"><ele>493.0</ele><time>2026-03-29T09:18:29.959Z</time></trkpt><trkpt lat="43.70122" lon="12.602585"><ele>493.0</ele><time>2026-03-29T09:18:30.958Z</time></trkpt><trkpt lat="43.701335" lon="12.6025783"><ele>490.59999999999997</ele><time>2026-03-29T09:18:31.958Z</time></trkpt><trkpt lat="43.7014433" lon="12.6025733"><ele>488.19999999999993</ele><time>2026-03-29T09:18:32.959Z</time></trkpt><trkpt lat="43.701555" lon="12.6025633"><ele>485.8</ele><time>2026-03-29T09:18:33.959Z</time></trkpt><trkpt lat="43.701665" lon="12.602565"><ele>483.4</ele><time>2026-03-29T09:18:34.959Z</time></trkpt><trkpt lat="43.7017533" lon="12.6025583"><ele>481.0</ele><time>2026-03-29T09:18:35.958Z</time></trkpt><trkpt lat="43.701845" lon="12.6025383"><ele>476.0</ele><time>2026-03-29T09:18:36.959Z</time></trkpt><trkpt lat="43.7019383" lon="12.602495"><ele>471.0</ele><time>2026-03-29T09:18:37.958Z</time></trkpt><trkpt lat="43.7020233" lon="12.602435"><ele>466.0</ele><time>2026-03-29T09:18:38.959Z</time></trkpt><trkpt lat="43.7021" lon="12.602355"><ele>461.0</ele><time>2026-03-29T09:18:39.959Z</time></trkpt><trkpt lat="43.7021817" lon="12.602255"><ele>456.0</ele><time>2026-03-29T09:18:40.959Z</time></trkpt><trkpt lat="43.7022383" lon="12.6021417"><ele>456.0</ele><time>2026-03-29T09:18:41.958Z</time></trkpt><trkpt lat="43.7022867" lon="12.6020283"><ele>456.0</ele><time>2026-03-29T09:18:42.959Z</time></trkpt><trkpt lat="43.70232" lon="12.6019517"><ele>456.0</ele><time>2026-03-29T09:18:43.959Z</time></trkpt><trkpt lat="43.7023417" lon="12.6018517"><ele>456.0</ele><time>2026-03-29T09:18:44.959Z</time></trkpt><trkpt lat="43.7023533" lon="12.6017367"><ele>456.0</ele><time>2026-03-29T09:18:45.959Z</time></trkpt><trkpt lat="43.7023433" lon="12.6016333"><ele>456.0</ele><time>2026-03-29T09:18:46.958Z</time></trkpt><trkpt lat="43.7023233" lon="12.601535"><ele>456.0</ele><time>2026-03-29T09:18:47.959Z</time></trkpt><trkpt lat="43.7022983" lon="12.6014167"><ele>456.0</ele><time>2026-03-29T09:18:48.958Z</time></trkpt><trkpt lat="43.70228" lon="12.6012933"><ele>456.0</ele><time>2026-03-29T09:18:49.958Z</time></trkpt><trkpt lat="43.702285" lon="12.60117"><ele>456.0</ele><time>2026-03-29T09:18:50.958Z</time></trkpt><trkpt lat="43.7023" lon="12.60105"><ele>456.0</ele><time>2026-03-29T09:18:51.958Z</time></trkpt><trkpt lat="43.7023367" lon="12.6009417"><ele>456.0</ele><time>2026-03-29T09:18:52.959Z</time></trkpt><trkpt lat="43.7023617" lon="12.6008317"><ele>457.0</ele><time>2026-03-29T09:18:53.958Z</time></trkpt><trkpt lat="43.7023983" lon="12.600745"><ele>458.0</ele><time>2026-03-29T09:18:54.958Z</time></trkpt><trkpt lat="43.7024417" lon="12.6006783"><ele>459.0</ele><time>2026-03-29T09:18:55.959Z</time></trkpt><trkpt lat="43.7025333" lon="12.60062"><ele>460.0</ele><time>2026-03-29T09:18:57.959Z</time></trkpt><trkpt lat="43.7025983" lon="12.6006483"><ele>461.0</ele><time>2026-03-29T09:18:59.959Z</time></trkpt><trkpt lat="43.702615" lon="12.6007567"><ele>462.0</ele><time>2026-03-29T09:19:01.959Z</time></trkpt><trkpt lat="43.7026033" lon="12.6008483"><ele>462.0</ele><time>2026-03-29T09:19:02.958Z</time></trkpt><trkpt lat="43.7025883" lon="12.6009617"><ele>462.0</ele><time>2026-03-29T09:19:03.958Z</time></trkpt><trkpt lat="43.7025717" lon="12.601105"><ele>462.0</ele><time>2026-03-29T09:19:04.959Z</time></trkpt><trkpt lat="43.7025717" lon="12.6012883"><ele>462.0</ele><time>2026-03-29T09:19:05.959Z</time></trkpt><trkpt lat="43.702575" lon="12.6015333"><ele>460.0</ele><time>2026-03-29T09:19:06.959Z</time></trkpt><trkpt lat="43.7025883" lon="12.6018017"><ele>458.0</ele><time>2026-03-29T09:19:07.959Z</time></trkpt><trkpt lat="43.7026033" lon="12.6020333"><ele>456.0</ele><time>2026-03-29T09:19:08.959Z</time></trkpt><trkpt lat="43.70263" lon="12.602245"><ele>456.0</ele><time>2026-03-29T09:19:09.958Z</time></trkpt><trkpt lat="43.7026583" lon="12.6024567"><ele>456.0</ele><time>2026-03-29T09:19:10.958Z</time></trkpt><trkpt lat="43.7027017" lon="12.602655"><ele>456.0</ele><time>2026-03-29T09:19:11.959Z</time></trkpt><trkpt lat="43.7027383" lon="12.6028483"><ele>450.25</ele><time>2026-03-29T09:19:12.958Z</time></trkpt><trkpt lat="43.7027767" lon="12.6030283"><ele>444.5</ele><time>2026-03-29T09:19:13.959Z</time></trkpt><trkpt lat="43.7028367" lon="12.603185"><ele>438.75</ele><time>2026-03-29T09:19:14.959Z</time></trkpt><trkpt lat="43.7029183" lon="12.6033133"><ele>433.0</ele><time>2026-03-29T09:19:15.958Z</time></trkpt><trkpt lat="43.70299" lon="12.6034233"><ele>433.0</ele><time>2026-03-29T09:19:16.959Z</time></trkpt><trkpt lat="43.703085" lon="12.6034917"><ele>433.0</ele><time>2026-03-29T09:19:17.958Z</time></trkpt><trkpt lat="43.7031867" lon="12.6035667"><ele>433.0</ele><time>2026-03-29T09:19:18.958Z</time></trkpt><trkpt lat="43.7032967" lon="12.6036417"><ele>433.0</ele><time>2026-03-29T09:19:19.958Z</time></trkpt><trkpt lat="43.7033933" lon="12.6037767"><ele>434.33333333333337</ele><time>2026-03-29T09:19:20.958Z</time></trkpt><trkpt lat="43.7034833" lon="12.6039367"><ele>435.66666666666663</ele><time>2026-03-29T09:19:21.959Z</time></trkpt><trkpt lat="43.7035767" lon="12.6041033"><ele>437.0</ele><time>2026-03-29T09:19:22.958Z</time></trkpt><trkpt lat="43.70368" lon="12.6042567"><ele>434.75</ele><time>2026-03-29T09:19:23.959Z</time></trkpt><trkpt lat="43.7038217" lon="12.6043567"><ele>432.5</ele><time>2026-03-29T09:19:24.959Z</time></trkpt><trkpt lat="43.7039467" lon="12.6044283"><ele>430.25</ele><time>2026-03-29T09:19:25.959Z</time></trkpt><trkpt lat="43.7040683" lon="12.6044767"><ele>428.0</ele><time>2026-03-29T09:19:26.959Z</time></trkpt><trkpt lat="43.704175" lon="12.60448"><ele>428.0</ele><time>2026-03-29T09:19:27.959Z</time></trkpt><trkpt lat="43.7043" lon="12.6044683"><ele>428.0</ele><time>2026-03-29T09:19:28.958Z</time></trkpt><trkpt lat="43.7044217" lon="12.6044667"><ele>428.0</ele><time>2026-03-29T09:19:29.958Z</time></trkpt><trkpt lat="43.704535" lon="12.6044967"><ele>428.0</ele><time>2026-03-29T09:19:30.958Z</time></trkpt><trkpt lat="43.7046433" lon="12.6045567"><ele>427.5</ele><time>2026-03-29T09:19:31.958Z</time></trkpt><trkpt lat="43.7047533" lon="12.6046433"><ele>427.0</ele><time>2026-03-29T09:19:32.959Z</time></trkpt><trkpt lat="43.704865" lon="12.6047367"><ele>426.5</ele><time>2026-03-29T09:19:33.958Z</time></trkpt><trkpt lat="43.7049733" lon="12.6048383"><ele>426.0</ele><time>2026-03-29T09:19:34.959Z</time></trkpt><trkpt lat="43.70506" lon="12.6049567"><ele>426.0</ele><time>2026-03-29T09:19:35.959Z</time></trkpt><trkpt lat="43.7051417" lon="12.6050983"><ele>426.0</ele><time>2026-03-29T09:19:36.959Z</time></trkpt><trkpt lat="43.70521" lon="12.6052483"><ele>426.0</ele><time>2026-03-29T09:19:37.958Z</time></trkpt><trkpt lat="43.7052617" lon="12.6054067"><ele>426.0</ele><time>2026-03-29T09:19:38.959Z</time></trkpt><trkpt lat="43.70533" lon="12.605545"><ele>425.5</ele><time>2026-03-29T09:19:39.959Z</time></trkpt><trkpt lat="43.7053867" lon="12.6057017"><ele>425.0</ele><time>2026-03-29T09:19:40.959Z</time></trkpt><trkpt lat="43.70544" lon="12.605875"><ele>424.5</ele><time>2026-03-29T09:19:41.958Z</time></trkpt><trkpt lat="43.705485" lon="12.6060583"><ele>424.0</ele><time>2026-03-29T09:19:42.959Z</time></trkpt><trkpt lat="43.705515" lon="12.606235"><ele>425.0</ele><time>2026-03-29T09:19:43.959Z</time></trkpt><trkpt lat="43.70557" lon="12.6064"><ele>426.0</ele><time>2026-03-29T09:19:44.959Z</time></trkpt><trkpt lat="43.7056467" lon="12.6065567"><ele>427.0</ele><time>2026-03-29T09:19:45.959Z</time></trkpt><trkpt lat="43.7057367" lon="12.60671"><ele>428.0</ele><time>2026-03-29T09:19:46.958Z</time></trkpt><trkpt lat="43.7058483" lon="12.6068383"><ele>428.0</ele><time>2026-03-29T09:19:47.959Z</time></trkpt><trkpt lat="43.7059967" lon="12.606985"><ele>428.0</ele><time>2026-03-29T09:19:48.958Z</time></trkpt><trkpt lat="43.7061383" lon="12.6070717"><ele>428.0</ele><time>2026-03-29T09:19:49.959Z</time></trkpt><trkpt lat="43.7062533" lon="12.6072"><ele>429.0</ele><time>2026-03-29T09:19:50.958Z</time></trkpt><trkpt lat="43.7063633" lon="12.607345"><ele>430.0</ele><time>2026-03-29T09:19:51.958Z</time></trkpt><trkpt lat="43.7064667" lon="12.6074983"><ele>431.0</ele><time>2026-03-29T09:19:52.958Z</time></trkpt><trkpt lat="43.7065717" lon="12.607635"><ele>432.0</ele><time>2026-03-29T09:19:53.959Z</time></trkpt><trkpt lat="43.7066817" lon="12.6077533"><ele>434.75</ele><time>2026-03-29T09:19:54.958Z</time></trkpt><trkpt lat="43.7067967" lon="12.6078383"><ele>437.5</ele><time>2026-03-29T09:19:55.958Z</time></trkpt><trkpt lat="43.7069033" lon="12.6079283"><ele>440.25</ele><time>2026-03-29T09:19:56.958Z</time></trkpt><trkpt lat="43.7069767" lon="12.60805"><ele>443.0</ele><time>2026-03-29T09:19:57.958Z</time></trkpt><trkpt lat="43.707035" lon="12.608175"><ele>443.0</ele><time>2026-03-29T09:19:58.958Z</time></trkpt><trkpt lat="43.7070783" lon="12.608295"><ele>443.0</ele><time>2026-03-29T09:19:59.958Z</time></trkpt><trkpt lat="43.7071333" lon="12.608415"><ele>443.0</ele><time>2026-03-29T09:20:00.959Z</time></trkpt><trkpt lat="43.7071883" lon="12.6085567"><ele>443.0</ele><time>2026-03-29T09:20:01.959Z</time></trkpt><trkpt lat="43.70725" lon="12.6087417"><ele>437.66666666666663</ele><time>2026-03-29T09:20:02.958Z</time></trkpt><trkpt lat="43.7073317" lon="12.6089233"><ele>432.33333333333337</ele><time>2026-03-29T09:20:03.959Z</time></trkpt><trkpt lat="43.7074133" lon="12.6091183"><ele>427.0</ele><time>2026-03-29T09:20:04.959Z</time></trkpt><trkpt lat="43.7075317" lon="12.6092383"><ele>427.0</ele><time>2026-03-29T09:20:05.958Z</time></trkpt><trkpt lat="43.7076433" lon="12.609345"><ele>427.0</ele><time>2026-03-29T09:20:06.958Z</time></trkpt><trkpt lat="43.7077933" lon="12.6093983"><ele>427.0</ele><time>2026-03-29T09:20:07.959Z</time></trkpt><trkpt lat="43.7079717" lon="12.6093783"><ele>428.0</ele><time>2026-03-29T09:20:08.959Z</time></trkpt><trkpt lat="43.708115" lon="12.6094"><ele>429.0</ele><time>2026-03-29T09:20:09.958Z</time></trkpt><trkpt lat="43.70829" lon="12.6094017"><ele>430.0</ele><time>2026-03-29T09:20:10.959Z</time></trkpt><trkpt lat="43.7084383" lon="12.6094267"><ele>430.0</ele><time>2026-03-29T09:20:11.959Z</time></trkpt><trkpt lat="43.70856" lon="12.6094183"><ele>430.0</ele><time>2026-03-29T09:20:12.958Z</time></trkpt><trkpt lat="43.7086783" lon="12.60936"><ele>430.0</ele><time>2026-03-29T09:20:13.959Z</time></trkpt><trkpt lat="43.708775" lon="12.6092883"><ele>430.0</ele><time>2026-03-29T09:20:14.958Z</time></trkpt><trkpt lat="43.7088767" lon="12.6092217"><ele>428.0</ele><time>2026-03-29T09:20:15.958Z</time></trkpt><trkpt lat="43.7089833" lon="12.609165"><ele>426.0</ele><time>2026-03-29T09:20:16.959Z</time></trkpt><trkpt lat="43.7090933" lon="12.6091633"><ele>424.0</ele><time>2026-03-29T09:20:17.958Z</time></trkpt><trkpt lat="43.709185" lon="12.6092267"><ele>422.0</ele><time>2026-03-29T09:20:18.958Z</time></trkpt><trkpt lat="43.7092567" lon="12.609345"><ele>420.0</ele><time>2026-03-29T09:20:19.958Z</time></trkpt><trkpt lat="43.7093083" lon="12.6095"><ele>419.25</ele><time>2026-03-29T09:20:20.959Z</time></trkpt><trkpt lat="43.7093517" lon="12.60965"><ele>418.5</ele><time>2026-03-29T09:20:21.958Z</time></trkpt><trkpt lat="43.709405" lon="12.6097983"><ele>417.75</ele><time>2026-03-29T09:20:22.959Z</time></trkpt><trkpt lat="43.7094833" lon="12.6099417"><ele>417.0</ele><time>2026-03-29T09:20:23.958Z</time></trkpt><trkpt lat="43.70959" lon="12.6100933"><ele>417.0</ele><time>2026-03-29T09:20:24.959Z</time></trkpt><trkpt lat="43.7097283" lon="12.61024"><ele>417.0</ele><time>2026-03-29T09:20:25.959Z</time></trkpt><trkpt lat="43.70985" lon="12.6104217"><ele>417.0</ele><time>2026-03-29T09:20:26.959Z</time></trkpt><trkpt lat="43.7099583" lon="12.6106233"><ele>415.0</ele><time>2026-03-29T09:20:27.958Z</time></trkpt><trkpt lat="43.7100517" lon="12.6108167"><ele>413.0</ele><time>2026-03-29T09:20:28.958Z</time></trkpt><trkpt lat="43.71011" lon="12.61103"><ele>411.0</ele><time>2026-03-29T09:20:29.959Z</time></trkpt><trkpt lat="43.71019" lon="12.6112417"><ele>410.66666666666663</ele><time>2026-03-29T09:20:30.958Z</time></trkpt><trkpt lat="43.7102717" lon="12.611435"><ele>410.3333333333333</ele><time>2026-03-29T09:20:31.959Z</time></trkpt><trkpt lat="43.7103883" lon="12.6115817"><ele>410.0</ele><time>2026-03-29T09:20:32.959Z</time></trkpt><trkpt lat="43.71052" lon="12.61169"><ele>410.0</ele><time>2026-03-29T09:20:33.958Z</time></trkpt><trkpt lat="43.7106433" lon="12.6118133"><ele>410.0</ele><time>2026-03-29T09:20:34.959Z</time></trkpt><trkpt lat="43.7107733" lon="12.6119333"><ele>410.0</ele><time>2026-03-29T09:20:35.959Z</time></trkpt><trkpt lat="43.7108833" lon="12.612055"><ele>410.0</ele><time>2026-03-29T09:20:36.958Z</time></trkpt><trkpt lat="43.7109683" lon="12.6121933"><ele>412.0</ele><time>2026-03-29T09:20:37.958Z</time></trkpt><trkpt lat="43.711015" lon="12.61239"><ele>414.0</ele><time>2026-03-29T09:20:38.959Z</time></trkpt><trkpt lat="43.71104" lon="12.6125983"><ele>416.0</ele><time>2026-03-29T09:20:39.958Z</time></trkpt><trkpt lat="43.7110283" lon="12.6128083"><ele>417.66666666666663</ele><time>2026-03-29T09:20:40.958Z</time></trkpt><trkpt lat="43.7109833" lon="12.61301"><ele>419.33333333333337</ele><time>2026-03-29T09:20:41.959Z</time></trkpt><trkpt lat="43.7109083" lon="12.61319"><ele>421.0</ele><time>2026-03-29T09:20:42.959Z</time></trkpt><trkpt lat="43.710795" lon="12.6133317"><ele>421.0</ele><time>2026-03-29T09:20:43.959Z</time></trkpt><trkpt lat="43.7106767" lon="12.6134383"><ele>421.0</ele><time>2026-03-29T09:20:44.959Z</time></trkpt><trkpt lat="43.7105617" lon="12.6135233"><ele>421.0</ele><time>2026-03-29T09:20:45.959Z</time></trkpt><trkpt lat="43.7104767" lon="12.6136283"><ele>421.0</ele><time>2026-03-29T09:20:46.959Z</time></trkpt><trkpt lat="43.710415" lon="12.6137533"><ele>420.50000000000006</ele><time>2026-03-29T09:20:47.958Z</time></trkpt><trkpt lat="43.7103833" lon="12.6138983"><ele>420.0</ele><time>2026-03-29T09:20:48.959Z</time></trkpt><trkpt lat="43.7103817" lon="12.6140167"><ele>419.5</ele><time>2026-03-29T09:20:49.959Z</time></trkpt><trkpt lat="43.7104083" lon="12.614125"><ele>419.0</ele><time>2026-03-29T09:20:50.959Z</time></trkpt><trkpt lat="43.71045" lon="12.61421"><ele>418.50000000000006</ele><time>2026-03-29T09:20:51.959Z</time></trkpt><trkpt lat="43.7105133" lon="12.614255"><ele>418.0</ele><time>2026-03-29T09:20:52.959Z</time></trkpt><trkpt lat="43.7106233" lon="12.614255"><ele>418.0</ele><time>2026-03-29T09:20:53.958Z</time></trkpt><trkpt lat="43.7107717" lon="12.61423"><ele>418.0</ele><time>2026-03-29T09:20:54.959Z</time></trkpt><trkpt lat="43.71093" lon="12.6142083"><ele>418.0</ele><time>2026-03-29T09:20:55.959Z</time></trkpt><trkpt lat="43.711135" lon="12.6141967"><ele>418.6666666666667</ele><time>2026-03-29T09:20:56.959Z</time></trkpt><trkpt lat="43.7113133" lon="12.614235"><ele>419.33333333333337</ele><time>2026-03-29T09:20:57.958Z</time></trkpt><trkpt lat="43.7114683" lon="12.6143283"><ele>420.0</ele><time>2026-03-29T09:20:58.959Z</time></trkpt><trkpt lat="43.7116067" lon="12.6144717"><ele>417.5</ele><time>2026-03-29T09:20:59.959Z</time></trkpt><trkpt lat="43.7116967" lon="12.6146467"><ele>415.0</ele><time>2026-03-29T09:21:00.958Z</time></trkpt><trkpt lat="43.711765" lon="12.6148133"><ele>412.5</ele><time>2026-03-29T09:21:01.958Z</time></trkpt><trkpt lat="43.7118217" lon="12.61499"><ele>410.0</ele><time>2026-03-29T09:21:02.959Z</time></trkpt><trkpt lat="43.7119017" lon="12.6151183"><ele>413.0</ele><time>2026-03-29T09:21:03.959Z</time></trkpt><trkpt lat="43.7119933" lon="12.615225"><ele>416.0</ele><time>2026-03-29T09:21:04.958Z</time></trkpt><trkpt lat="43.7121083" lon="12.6153233"><ele>419.0</ele><time>2026-03-29T09:21:05.959Z</time></trkpt><trkpt lat="43.7122233" lon="12.6154067"><ele>422.0</ele><time>2026-03-29T09:21:06.958Z</time></trkpt><trkpt lat="43.712345" lon="12.61549"><ele>422.0</ele><time>2026-03-29T09:21:07.959Z</time></trkpt><trkpt lat="43.7124617" lon="12.6155717"><ele>422.0</ele><time>2026-03-29T09:21:08.959Z</time></trkpt><trkpt lat="43.7125717" lon="12.615655"><ele>422.0</ele><time>2026-03-29T09:21:09.959Z</time></trkpt><trkpt lat="43.7126717" lon="12.6157783"><ele>422.0</ele><time>2026-03-29T09:21:10.958Z</time></trkpt><trkpt lat="43.7127433" lon="12.6159233"><ele>422.75</ele><time>2026-03-29T09:21:11.959Z</time></trkpt><trkpt lat="43.712785" lon="12.6160983"><ele>423.5</ele><time>2026-03-29T09:21:12.959Z</time></trkpt><trkpt lat="43.7128167" lon="12.61629"><ele>424.25</ele><time>2026-03-29T09:21:13.959Z</time></trkpt><trkpt lat="43.7128233" lon="12.6164733"><ele>425.0</ele><time>2026-03-29T09:21:14.959Z</time></trkpt><trkpt lat="43.7128317" lon="12.6166583"><ele>425.75</ele><time>2026-03-29T09:21:15.959Z</time></trkpt><trkpt lat="43.7128417" lon="12.61685"><ele>426.5</ele><time>2026-03-29T09:21:16.959Z</time></trkpt><trkpt lat="43.712865" lon="12.6170367"><ele>427.25</ele><time>2026-03-29T09:21:17.958Z</time></trkpt><trkpt lat="43.7129017" lon="12.6172083"><ele>428.0</ele><time>2026-03-29T09:21:18.959Z</time></trkpt><trkpt lat="43.7129417" lon="12.61738"><ele>428.75</ele><time>2026-03-29T09:21:19.958Z</time></trkpt><trkpt lat="43.7129783" lon="12.6175483"><ele>429.5</ele><time>2026-03-29T09:21:20.959Z</time></trkpt><trkpt lat="43.7130017" lon="12.6177217"><ele>430.25</ele><time>2026-03-29T09:21:21.959Z</time></trkpt><trkpt lat="43.7130017" lon="12.6179"><ele>431.0</ele><time>2026-03-29T09:21:22.959Z</time></trkpt><trkpt lat="43.7129683" lon="12.618075"><ele>432.25</ele><time>2026-03-29T09:21:23.958Z</time></trkpt><trkpt lat="43.71292" lon="12.618255"><ele>433.5</ele><time>2026-03-29T09:21:24.959Z</time></trkpt><trkpt lat="43.71287" lon="12.61843"><ele>434.75</ele><time>2026-03-29T09:21:25.958Z</time></trkpt><trkpt lat="43.712815" lon="12.6186067"><ele>436.0</ele><time>2026-03-29T09:21:26.958Z</time></trkpt><trkpt lat="43.7127683" lon="12.6187683"><ele>436.5</ele><time>2026-03-29T09:21:27.959Z</time></trkpt><trkpt lat="43.712735" lon="12.6189233"><ele>437.0</ele><time>2026-03-29T09:21:28.959Z</time></trkpt><trkpt lat="43.712725" lon="12.6190767"><ele>437.5</ele><time>2026-03-29T09:21:29.958Z</time></trkpt><trkpt lat="43.7127467" lon="12.6192333"><ele>438.0</ele><time>2026-03-29T09:21:30.958Z</time></trkpt><trkpt lat="43.7127917" lon="12.61938"><ele>436.0</ele><time>2026-03-29T09:21:31.959Z</time></trkpt><trkpt lat="43.7128517" lon="12.6195183"><ele>434.0</ele><time>2026-03-29T09:21:32.959Z</time></trkpt><trkpt lat="43.71293" lon="12.6196467"><ele>432.0</ele><time>2026-03-29T09:21:33.958Z</time></trkpt><trkpt lat="43.7130233" lon="12.6197583"><ele>430.0</ele><time>2026-03-29T09:21:34.959Z</time></trkpt><trkpt lat="43.7131433" lon="12.619855"><ele>430.0</ele><time>2026-03-29T09:21:35.959Z</time></trkpt><trkpt lat="43.7132433" lon="12.6199567"><ele>430.0</ele><time>2026-03-29T09:21:36.959Z</time></trkpt><trkpt lat="43.7133267" lon="12.620095"><ele>430.0</ele><time>2026-03-29T09:21:37.959Z</time></trkpt><trkpt lat="43.713385" lon="12.6202583"><ele>430.0</ele><time>2026-03-29T09:21:38.959Z</time></trkpt><trkpt lat="43.71343" lon="12.6204283"><ele>430.0</ele><time>2026-03-29T09:21:39.958Z</time></trkpt><trkpt lat="43.713455" lon="12.620585"><ele>430.0</ele><time>2026-03-29T09:21:40.958Z</time></trkpt><trkpt lat="43.7134817" lon="12.6207283"><ele>430.0</ele><time>2026-03-29T09:21:41.959Z</time></trkpt><trkpt lat="43.7135467" lon="12.620825"><ele>430.0</ele><time>2026-03-29T09:21:42.959Z</time></trkpt><trkpt lat="43.7136333" lon="12.6209283"><ele>430.0</ele><time>2026-03-29T09:21:43.959Z</time></trkpt><trkpt lat="43.7137417" lon="12.6209917"><ele>430.0</ele><time>2026-03-29T09:21:44.958Z</time></trkpt><trkpt lat="43.7138383" lon="12.62105"><ele>430.0</ele><time>2026-03-29T09:21:45.959Z</time></trkpt><trkpt lat="43.713935" lon="12.621105"><ele>430.0</ele><time>2026-03-29T09:21:46.959Z</time></trkpt><trkpt lat="43.714025" lon="12.6211817"><ele>430.0</ele><time>2026-03-29T09:21:47.958Z</time></trkpt><trkpt lat="43.7140883" lon="12.6212633"><ele>430.0</ele><time>2026-03-29T09:21:48.959Z</time></trkpt><trkpt lat="43.7141283" lon="12.62135"><ele>429.6</ele><time>2026-03-29T09:21:49.959Z</time></trkpt><trkpt lat="43.7141433" lon="12.6214433"><ele>429.2</ele><time>2026-03-29T09:21:50.959Z</time></trkpt><trkpt lat="43.714125" lon="12.6215517"><ele>428.79999999999995</ele><time>2026-03-29T09:21:51.958Z</time></trkpt><trkpt lat="43.71408" lon="12.6216833"><ele>428.4</ele><time>2026-03-29T09:21:52.959Z</time></trkpt><trkpt lat="43.7140133" lon="12.6218167"><ele>428.0</ele><time>2026-03-29T09:21:53.959Z</time></trkpt><trkpt lat="43.7139" lon="12.62198"><ele>429.25</ele><time>2026-03-29T09:21:54.959Z</time></trkpt><trkpt lat="43.7137933" lon="12.6221433"><ele>430.5</ele><time>2026-03-29T09:21:55.959Z</time></trkpt><trkpt lat="43.7137083" lon="12.6223017"><ele>431.75</ele><time>2026-03-29T09:21:56.959Z</time></trkpt><trkpt lat="43.7136333" lon="12.622465"><ele>433.0</ele><time>2026-03-29T09:21:57.959Z</time></trkpt><trkpt lat="43.7135667" lon="12.6226367"><ele>429.75</ele><time>2026-03-29T09:21:58.959Z</time></trkpt><trkpt lat="43.713505" lon="12.6228017"><ele>426.5</ele><time>2026-03-29T09:21:59.958Z</time></trkpt><trkpt lat="43.713455" lon="12.6229817"><ele>423.25</ele><time>2026-03-29T09:22:00.959Z</time></trkpt><trkpt lat="43.71341" lon="12.6231583"><ele>420.0</ele><time>2026-03-29T09:22:01.959Z</time></trkpt><trkpt lat="43.71338" lon="12.6233267"><ele>420.0</ele><time>2026-03-29T09:22:02.959Z</time></trkpt><trkpt lat="43.7133567" lon="12.6234817"><ele>420.0</ele><time>2026-03-29T09:22:03.958Z</time></trkpt><trkpt lat="43.71337" lon="12.6236517"><ele>420.0</ele><time>2026-03-29T09:22:04.959Z</time></trkpt><trkpt lat="43.713435" lon="12.6238"><ele>420.0</ele><time>2026-03-29T09:22:05.959Z</time></trkpt><trkpt lat="43.7135" lon="12.623955"><ele>419.25</ele><time>2026-03-29T09:22:06.959Z</time></trkpt><trkpt lat="43.7136" lon="12.6240933"><ele>418.5</ele><time>2026-03-29T09:22:07.958Z</time></trkpt><trkpt lat="43.7137017" lon="12.6242517"><ele>417.75</ele><time>2026-03-29T09:22:08.959Z</time></trkpt><trkpt lat="43.7138083" lon="12.6243917"><ele>417.0</ele><time>2026-03-29T09:22:09.958Z</time></trkpt><trkpt lat="43.71391" lon="12.6245367"><ele>417.0</ele><time>2026-03-29T09:22:10.958Z</time></trkpt><trkpt lat="43.71401" lon="12.62468"><ele>417.0</ele><time>2026-03-29T09:22:11.959Z</time></trkpt><trkpt lat="43.7141167" lon="12.6248117"><ele>417.0</ele><time>2026-03-29T09:22:12.959Z</time></trkpt><trkpt lat="43.714235" lon="12.624925"><ele>417.0</ele><time>2026-03-29T09:22:13.959Z</time></trkpt><trkpt lat="43.7143583" lon="12.6250267"><ele>416.5</ele><time>2026-03-29T09:22:14.959Z</time></trkpt><trkpt lat="43.7144767" lon="12.62513"><ele>416.0</ele><time>2026-03-29T09:22:15.958Z</time></trkpt><trkpt lat="43.7146" lon="12.625215"><ele>415.5</ele><time>2026-03-29T09:22:16.959Z</time></trkpt><trkpt lat="43.7147183" lon="12.6253067"><ele>415.0</ele><time>2026-03-29T09:22:17.959Z</time></trkpt><trkpt lat="43.7148217" lon="12.6253967"><ele>415.0</ele><time>2026-03-29T09:22:18.959Z</time></trkpt><trkpt lat="43.7149167" lon="12.6254817"><ele>415.0</ele><time>2026-03-29T09:22:19.959Z</time></trkpt><trkpt lat="43.7150067" lon="12.6255467"><ele>415.0</ele><time>2026-03-29T09:22:20.958Z</time></trkpt><trkpt lat="43.715105" lon="12.6255883"><ele>415.0</ele><time>2026-03-29T09:22:21.958Z</time></trkpt><trkpt lat="43.715225" lon="12.62561"><ele>415.0</ele><time>2026-03-29T09:22:22.959Z</time></trkpt><trkpt lat="43.71534" lon="12.6255917"><ele>414.0</ele><time>2026-03-29T09:22:23.959Z</time></trkpt><trkpt lat="43.71545" lon="12.6255367"><ele>413.0</ele><time>2026-03-29T09:22:24.958Z</time></trkpt><trkpt lat="43.71556" lon="12.6254733"><ele>412.0</ele><time>2026-03-29T09:22:25.959Z</time></trkpt><trkpt lat="43.7156667" lon="12.6254283"><ele>411.0</ele><time>2026-03-29T09:22:26.958Z</time></trkpt><trkpt lat="43.71578" lon="12.6254117"><ele>411.0</ele><time>2026-03-29T09:22:27.959Z</time></trkpt><trkpt lat="43.71589" lon="12.62542"><ele>411.0</ele><time>2026-03-29T09:22:28.959Z</time></trkpt><trkpt lat="43.7160133" lon="12.6254483"><ele>411.0</ele><time>2026-03-29T09:22:29.959Z</time></trkpt><trkpt lat="43.7161467" lon="12.6254733"><ele>411.0</ele><time>2026-03-29T09:22:30.959Z</time></trkpt><trkpt lat="43.716255" lon="12.6255283"><ele>413.25</ele><time>2026-03-29T09:22:31.959Z</time></trkpt><trkpt lat="43.7163867" lon="12.625605"><ele>415.5</ele><time>2026-03-29T09:22:32.958Z</time></trkpt><trkpt lat="43.7165033" lon="12.6257133"><ele>417.75</ele><time>2026-03-29T09:22:33.958Z</time></trkpt><trkpt lat="43.7165917" lon="12.6258533"><ele>420.0</ele><time>2026-03-29T09:22:34.958Z</time></trkpt><trkpt lat="43.716655" lon="12.6260033"><ele>418.5</ele><time>2026-03-29T09:22:35.958Z</time></trkpt><trkpt lat="43.7167117" lon="12.62616"><ele>417.0</ele><time>2026-03-29T09:22:36.959Z</time></trkpt><trkpt lat="43.71677" lon="12.62631"><ele>415.5</ele><time>2026-03-29T09:22:37.959Z</time></trkpt><trkpt lat="43.71683" lon="12.6264583"><ele>414.0</ele><time>2026-03-29T09:22:38.958Z</time></trkpt><trkpt lat="43.716905" lon="12.6265983"><ele>419.5</ele><time>2026-03-29T09:22:39.958Z</time></trkpt><trkpt lat="43.71699" lon="12.6267183"><ele>425.0</ele><time>2026-03-29T09:22:40.959Z</time></trkpt><trkpt lat="43.7170867" lon="12.6268133"><ele>430.5</ele><time>2026-03-29T09:22:41.958Z</time></trkpt><trkpt lat="43.71719" lon="12.626895"><ele>436.0</ele><time>2026-03-29T09:22:42.959Z</time></trkpt><trkpt lat="43.7173" lon="12.6269567"><ele>433.25</ele><time>2026-03-29T09:22:43.958Z</time></trkpt><trkpt lat="43.7174033" lon="12.6270367"><ele>430.5</ele><time>2026-03-29T09:22:44.959Z</time></trkpt><trkpt lat="43.7174933" lon="12.6271217"><ele>427.75</ele><time>2026-03-29T09:22:45.958Z</time></trkpt><trkpt lat="43.71757" lon="12.6272433"><ele>425.0</ele><time>2026-03-29T09:22:46.959Z</time></trkpt><trkpt lat="43.7176433" lon="12.6273733"><ele>425.0</ele><time>2026-03-29T09:22:47.959Z</time></trkpt><trkpt lat="43.71772" lon="12.6274967"><ele>425.0</ele><time>2026-03-29T09:22:48.958Z</time></trkpt><trkpt lat="43.7177833" lon="12.6276317"><ele>425.0</ele><time>2026-03-29T09:22:49.958Z</time></trkpt><trkpt lat="43.7178533" lon="12.6277733"><ele>425.0</ele><time>2026-03-29T09:22:50.958Z</time></trkpt><trkpt lat="43.717925" lon="12.6279217"><ele>426.5</ele><time>2026-03-29T09:22:51.959Z</time></trkpt><trkpt lat="43.7180017" lon="12.6280683"><ele>428.0</ele><time>2026-03-29T09:22:52.959Z</time></trkpt><trkpt lat="43.718095" lon="12.6281867"><ele>429.5</ele><time>2026-03-29T09:22:53.958Z</time></trkpt><trkpt lat="43.7182083" lon="12.628275"><ele>431.0</ele><time>2026-03-29T09:22:54.959Z</time></trkpt><trkpt lat="43.7183067" lon="12.62835"><ele>431.0</ele><time>2026-03-29T09:22:55.959Z</time></trkpt><trkpt lat="43.718405" lon="12.6284167"><ele>431.0</ele><time>2026-03-29T09:22:56.959Z</time></trkpt><trkpt lat="43.71851" lon="12.62847"><ele>431.0</ele><time>2026-03-29T09:22:57.959Z</time></trkpt><trkpt lat="43.7186117" lon="12.628515"><ele>431.0</ele><time>2026-03-29T09:22:58.958Z</time></trkpt><trkpt lat="43.718715" lon="12.628545"><ele>431.0</ele><time>2026-03-29T09:22:59.959Z</time></trkpt><trkpt lat="43.718805" lon="12.6285483"><ele>432.25</ele><time>2026-03-29T09:23:00.959Z</time></trkpt><trkpt lat="43.7189083" lon="12.6285383"><ele>433.5</ele><time>2026-03-29T09:23:01.958Z</time></trkpt><trkpt lat="43.7190233" lon="12.628515"><ele>434.75</ele><time>2026-03-29T09:23:02.959Z</time></trkpt><trkpt lat="43.7191367" lon="12.6284533"><ele>436.0</ele><time>2026-03-29T09:23:03.959Z</time></trkpt><trkpt lat="43.7192633" lon="12.6283933"><ele>436.0</ele><time>2026-03-29T09:23:04.959Z</time></trkpt><trkpt lat="43.719395" lon="12.6283467"><ele>436.0</ele><time>2026-03-29T09:23:05.958Z</time></trkpt><trkpt lat="43.7195233" lon="12.6283483"><ele>436.0</ele><time>2026-03-29T09:23:06.959Z</time></trkpt><trkpt lat="43.7196433" lon="12.6283583"><ele>436.0</ele><time>2026-03-29T09:23:07.959Z</time></trkpt><trkpt lat="43.7197717" lon="12.6284083"><ele>434.75</ele><time>2026-03-29T09:23:08.959Z</time></trkpt><trkpt lat="43.7198967" lon="12.6284567"><ele>433.5</ele><time>2026-03-29T09:23:09.958Z</time></trkpt><trkpt lat="43.7200183" lon="12.62852"><ele>432.25</ele><time>2026-03-29T09:23:10.959Z</time></trkpt><trkpt lat="43.7201433" lon="12.6285733"><ele>431.0</ele><time>2026-03-29T09:23:11.959Z</time></trkpt><trkpt lat="43.7202667" lon="12.6286633"><ele>428.0</ele><time>2026-03-29T09:23:12.959Z</time></trkpt><trkpt lat="43.720395" lon="12.6287633"><ele>425.0</ele><time>2026-03-29T09:23:13.959Z</time></trkpt><trkpt lat="43.7204983" lon="12.6288667"><ele>422.0</ele><time>2026-03-29T09:23:14.959Z</time></trkpt><trkpt lat="43.7206033" lon="12.6289533"><ele>419.0</ele><time>2026-03-29T09:23:15.959Z</time></trkpt><trkpt lat="43.7207067" lon="12.629045"><ele>419.0</ele><time>2026-03-29T09:23:16.96Z</time></trkpt><trkpt lat="43.7208033" lon="12.6291267"><ele>419.0</ele><time>2026-03-29T09:23:17.959Z</time></trkpt><trkpt lat="43.7208917" lon="12.62921"><ele>419.0</ele><time>2026-03-29T09:23:18.96Z</time></trkpt><trkpt lat="43.7209733" lon="12.62929"><ele>419.0</ele><time>2026-03-29T09:23:19.96Z</time></trkpt><trkpt lat="43.72104" lon="12.629405"><ele>419.0</ele><time>2026-03-29T09:23:20.96Z</time></trkpt><trkpt lat="43.7211033" lon="12.6295433"><ele>422.0</ele><time>2026-03-29T09:23:21.959Z</time></trkpt><trkpt lat="43.721165" lon="12.6297067"><ele>425.0</ele><time>2026-03-29T09:23:22.959Z</time></trkpt><trkpt lat="43.7212233" lon="12.6298717"><ele>428.0</ele><time>2026-03-29T09:23:23.96Z</time></trkpt><trkpt lat="43.7212833" lon="12.6300283"><ele>431.0</ele><time>2026-03-29T09:23:24.959Z</time></trkpt><trkpt lat="43.72133" lon="12.630215"><ele>430.25</ele><time>2026-03-29T09:23:25.959Z</time></trkpt><trkpt lat="43.7213633" lon="12.6304333"><ele>429.5</ele><time>2026-03-29T09:23:26.959Z</time></trkpt><trkpt lat="43.7214017" lon="12.6306167"><ele>428.75</ele><time>2026-03-29T09:23:27.96Z</time></trkpt><trkpt lat="43.7214333" lon="12.6307817"><ele>428.0</ele><time>2026-03-29T09:23:28.96Z</time></trkpt><trkpt lat="43.7214633" lon="12.6309367"><ele>428.0</ele><time>2026-03-29T09:23:29.96Z</time></trkpt><trkpt lat="43.7215117" lon="12.6310667"><ele>428.0</ele><time>2026-03-29T09:23:30.96Z</time></trkpt><trkpt lat="43.721565" lon="12.6311983"><ele>428.0</ele><time>2026-03-29T09:23:31.96Z</time></trkpt><trkpt lat="43.7216283" lon="12.631355"><ele>428.0</ele><time>2026-03-29T09:23:32.959Z</time></trkpt><trkpt lat="43.72171" lon="12.63151"><ele>424.0</ele><time>2026-03-29T09:23:33.96Z</time></trkpt><trkpt lat="43.7217917" lon="12.63167"><ele>420.0</ele><time>2026-03-29T09:23:34.96Z</time></trkpt><trkpt lat="43.721885" lon="12.631845"><ele>416.0</ele><time>2026-03-29T09:23:35.959Z</time></trkpt><trkpt lat="43.7219833" lon="12.6319917"><ele>412.0</ele><time>2026-03-29T09:23:36.96Z</time></trkpt><trkpt lat="43.722085" lon="12.632125"><ele>410.0</ele><time>2026-03-29T09:23:37.96Z</time></trkpt><trkpt lat="43.722195" lon="12.6322333"><ele>408.0</ele><time>2026-03-29T09:23:38.96Z</time></trkpt><trkpt lat="43.7223117" lon="12.6322983"><ele>406.0</ele><time>2026-03-29T09:23:39.96Z</time></trkpt><trkpt lat="43.72244" lon="12.6323583"><ele>404.0</ele><time>2026-03-29T09:23:40.96Z</time></trkpt><trkpt lat="43.72257" lon="12.6323867"><ele>404.0</ele><time>2026-03-29T09:23:41.959Z</time></trkpt><trkpt lat="43.7227017" lon="12.6323833"><ele>404.0</ele><time>2026-03-29T09:23:42.959Z</time></trkpt><trkpt lat="43.7228183" lon="12.6324033"><ele>404.0</ele><time>2026-03-29T09:23:43.959Z</time></trkpt><trkpt lat="43.7229317" lon="12.632405"><ele>404.0</ele><time>2026-03-29T09:23:44.96Z</time></trkpt><trkpt lat="43.723045" lon="12.632445"><ele>405.75</ele><time>2026-03-29T09:23:45.96Z</time></trkpt><trkpt lat="43.7231483" lon="12.63254"><ele>407.5</ele><time>2026-03-29T09:23:46.96Z</time></trkpt><trkpt lat="43.723205" lon="12.6326767"><ele>409.25</ele><time>2026-03-29T09:23:47.959Z</time></trkpt><trkpt lat="43.7232267" lon="12.63284"><ele>411.0</ele><time>2026-03-29T09:23:48.96Z</time></trkpt><trkpt lat="43.7232617" lon="12.6330217"><ele>411.0</ele><time>2026-03-29T09:23:49.96Z</time></trkpt><trkpt lat="43.7232917" lon="12.6332283"><ele>411.0</ele><time>2026-03-29T09:23:50.959Z</time></trkpt><trkpt lat="43.7233417" lon="12.6334133"><ele>411.0</ele><time>2026-03-29T09:23:51.96Z</time></trkpt><trkpt lat="43.7233917" lon="12.6335767"><ele>411.0</ele><time>2026-03-29T09:23:52.96Z</time></trkpt><trkpt lat="43.72345" lon="12.6337233"><ele>412.20000000000005</ele><time>2026-03-29T09:23:53.96Z</time></trkpt><trkpt lat="43.7235317" lon="12.6338367"><ele>413.40000000000003</ele><time>2026-03-29T09:23:54.959Z</time></trkpt><trkpt lat="43.7236117" lon="12.6339183"><ele>414.6</ele><time>2026-03-29T09:23:55.959Z</time></trkpt><trkpt lat="43.7236717" lon="12.6340167"><ele>415.8</ele><time>2026-03-29T09:23:56.96Z</time></trkpt><trkpt lat="43.723685" lon="12.6341583"><ele>417.0</ele><time>2026-03-29T09:23:57.959Z</time></trkpt><trkpt lat="43.723675" lon="12.6343033"><ele>417.0</ele><time>2026-03-29T09:23:58.96Z</time></trkpt><trkpt lat="43.7236367" lon="12.634455"><ele>417.0</ele><time>2026-03-29T09:23:59.96Z</time></trkpt><trkpt lat="43.723585" lon="12.6346183"><ele>417.0</ele><time>2026-03-29T09:24:00.959Z</time></trkpt><trkpt lat="43.723535" lon="12.6347733"><ele>417.0</ele><time>2026-03-29T09:24:01.959Z</time></trkpt><trkpt lat="43.7234883" lon="12.6349133"><ele>415.6</ele><time>2026-03-29T09:24:02.959Z</time></trkpt><trkpt lat="43.7234283" lon="12.63501"><ele>414.20000000000005</ele><time>2026-03-29T09:24:03.959Z</time></trkpt><trkpt lat="43.7233367" lon="12.6350717"><ele>412.8</ele><time>2026-03-29T09:24:04.96Z</time></trkpt><trkpt lat="43.7232383" lon="12.6350883"><ele>411.4</ele><time>2026-03-29T09:24:05.959Z</time></trkpt><trkpt lat="43.7231217" lon="12.6350867"><ele>410.0</ele><time>2026-03-29T09:24:06.96Z</time></trkpt><trkpt lat="43.7229933" lon="12.6350767"><ele>410.0</ele><time>2026-03-29T09:24:07.96Z</time></trkpt><trkpt lat="43.7228817" lon="12.6350883"><ele>410.0</ele><time>2026-03-29T09:24:08.96Z</time></trkpt><trkpt lat="43.72278" lon="12.6351133"><ele>410.0</ele><time>2026-03-29T09:24:09.959Z</time></trkpt><trkpt lat="43.72269" lon="12.6351417"><ele>410.0</ele><time>2026-03-29T09:24:10.96Z</time></trkpt><trkpt lat="43.722605" lon="12.6351933"><ele>410.0</ele><time>2026-03-29T09:24:11.96Z</time></trkpt><trkpt lat="43.722525" lon="12.635235"><ele>408.99999999999994</ele><time>2026-03-29T09:24:12.96Z</time></trkpt><trkpt lat="43.7224517" lon="12.6352783"><ele>408.0</ele><time>2026-03-29T09:24:13.96Z</time></trkpt><trkpt lat="43.722375" lon="12.6353233"><ele>407.0</ele><time>2026-03-29T09:24:14.96Z</time></trkpt><trkpt lat="43.722295" lon="12.6353567"><ele>406.0</ele><time>2026-03-29T09:24:15.959Z</time></trkpt><trkpt lat="43.7222067" lon="12.6353917"><ele>404.99999999999994</ele><time>2026-03-29T09:24:16.959Z</time></trkpt><trkpt lat="43.7221117" lon="12.6354117"><ele>404.0</ele><time>2026-03-29T09:24:17.959Z</time></trkpt><trkpt lat="43.7220067" lon="12.6354267"><ele>408.0</ele><time>2026-03-29T09:24:18.96Z</time></trkpt><trkpt lat="43.7219" lon="12.635445"><ele>412.0</ele><time>2026-03-29T09:24:19.96Z</time></trkpt><trkpt lat="43.7218067" lon="12.63546"><ele>416.0</ele><time>2026-03-29T09:24:20.959Z</time></trkpt><trkpt lat="43.7217183" lon="12.6355067"><ele>420.0</ele><time>2026-03-29T09:24:21.96Z</time></trkpt><trkpt lat="43.721615" lon="12.6355617"><ele>424.0</ele><time>2026-03-29T09:24:22.96Z</time></trkpt><trkpt lat="43.7215017" lon="12.63564"><ele>424.0</ele><time>2026-03-29T09:24:23.96Z</time></trkpt><trkpt lat="43.72139" lon="12.6357167"><ele>424.0</ele><time>2026-03-29T09:24:24.96Z</time></trkpt><trkpt lat="43.72127" lon="12.6358167"><ele>424.0</ele><time>2026-03-29T09:24:25.96Z</time></trkpt><trkpt lat="43.7211633" lon="12.6359083"><ele>424.0</ele><time>2026-03-29T09:24:26.959Z</time></trkpt><trkpt lat="43.72107" lon="12.6359833"><ele>422.0</ele><time>2026-03-29T09:24:27.96Z</time></trkpt><trkpt lat="43.7209867" lon="12.63606"><ele>420.0</ele><time>2026-03-29T09:24:28.96Z</time></trkpt><trkpt lat="43.7209067" lon="12.63613"><ele>418.0</ele><time>2026-03-29T09:24:29.959Z</time></trkpt><trkpt lat="43.7208283" lon="12.6361783"><ele>416.0</ele><time>2026-03-29T09:24:30.96Z</time></trkpt><trkpt lat="43.720755" lon="12.636255"><ele>414.0</ele><time>2026-03-29T09:24:31.959Z</time></trkpt><trkpt lat="43.7206983" lon="12.63635"><ele>414.0</ele><time>2026-03-29T09:24:32.96Z</time></trkpt><trkpt lat="43.7206483" lon="12.6364483"><ele>414.0</ele><time>2026-03-29T09:24:33.959Z</time></trkpt><trkpt lat="43.7206217" lon="12.636555"><ele>414.0</ele><time>2026-03-29T09:24:34.96Z</time></trkpt><trkpt lat="43.7206317" lon="12.6366667"><ele>414.0</ele><time>2026-03-29T09:24:35.96Z</time></trkpt><trkpt lat="43.7206633" lon="12.6367833"><ele>414.0</ele><time>2026-03-29T09:24:36.96Z</time></trkpt><trkpt lat="43.720725" lon="12.6369217"><ele>412.0</ele><time>2026-03-29T09:24:37.959Z</time></trkpt><trkpt lat="43.720805" lon="12.6370783"><ele>410.0</ele><time>2026-03-29T09:24:38.96Z</time></trkpt><trkpt lat="43.7208983" lon="12.63724"><ele>408.0</ele><time>2026-03-29T09:24:39.959Z</time></trkpt><trkpt lat="43.7209933" lon="12.6373867"><ele>406.0</ele><time>2026-03-29T09:24:40.96Z</time></trkpt><trkpt lat="43.7210917" lon="12.6375233"><ele>408.25</ele><time>2026-03-29T09:24:41.96Z</time></trkpt><trkpt lat="43.721165" lon="12.63765"><ele>410.5</ele><time>2026-03-29T09:24:42.96Z</time></trkpt><trkpt lat="43.7212467" lon="12.6377767"><ele>412.75</ele><time>2026-03-29T09:24:43.959Z</time></trkpt><trkpt lat="43.7213367" lon="12.6378917"><ele>415.0</ele><time>2026-03-29T09:24:44.96Z</time></trkpt><trkpt lat="43.72143" lon="12.638"><ele>415.0</ele><time>2026-03-29T09:24:45.96Z</time></trkpt><trkpt lat="43.72153" lon="12.638095"><ele>415.0</ele><time>2026-03-29T09:24:46.96Z</time></trkpt><trkpt lat="43.7216217" lon="12.6381867"><ele>415.0</ele><time>2026-03-29T09:24:47.96Z</time></trkpt><trkpt lat="43.7217217" lon="12.638275"><ele>415.0</ele><time>2026-03-29T09:24:48.96Z</time></trkpt><trkpt lat="43.721815" lon="12.638355"><ele>412.0</ele><time>2026-03-29T09:24:49.96Z</time></trkpt><trkpt lat="43.7219117" lon="12.638435"><ele>409.0</ele><time>2026-03-29T09:24:50.96Z</time></trkpt><trkpt lat="43.7220117" lon="12.6385017"><ele>406.0</ele><time>2026-03-29T09:24:51.96Z</time></trkpt><trkpt lat="43.7221167" lon="12.6385767"><ele>403.0</ele><time>2026-03-29T09:24:52.96Z</time></trkpt><trkpt lat="43.7222267" lon="12.6386533"><ele>403.0</ele><time>2026-03-29T09:24:53.96Z</time></trkpt><trkpt lat="43.7223367" lon="12.6387383"><ele>403.0</ele><time>2026-03-29T09:24:54.96Z</time></trkpt><trkpt lat="43.72245" lon="12.6388317"><ele>403.0</ele><time>2026-03-29T09:24:55.96Z</time></trkpt><trkpt lat="43.7225583" lon="12.6389367"><ele>403.0</ele><time>2026-03-29T09:24:56.96Z</time></trkpt><trkpt lat="43.722665" lon="12.639035"><ele>405.0</ele><time>2026-03-29T09:24:57.96Z</time></trkpt><trkpt lat="43.722775" lon="12.639135"><ele>407.0</ele><time>2026-03-29T09:24:58.96Z</time></trkpt><trkpt lat="43.7228883" lon="12.6392067"><ele>409.0</ele><time>2026-03-29T09:24:59.96Z</time></trkpt><trkpt lat="43.7230167" lon="12.6392383"><ele>411.0</ele><time>2026-03-29T09:25:00.959Z</time></trkpt><trkpt lat="43.72314" lon="12.6392633"><ele>411.0</ele><time>2026-03-29T09:25:01.96Z</time></trkpt><trkpt lat="43.7232617" lon="12.6392567"><ele>411.0</ele><time>2026-03-29T09:25:02.959Z</time></trkpt><trkpt lat="43.7234033" lon="12.6392117"><ele>411.0</ele><time>2026-03-29T09:25:03.959Z</time></trkpt><trkpt lat="43.72355" lon="12.6391667"><ele>411.0</ele><time>2026-03-29T09:25:04.96Z</time></trkpt><trkpt lat="43.7236783" lon="12.639165"><ele>411.33333333333337</ele><time>2026-03-29T09:25:05.96Z</time></trkpt><trkpt lat="43.7238233" lon="12.639175"><ele>411.6666666666667</ele><time>2026-03-29T09:25:06.959Z</time></trkpt><trkpt lat="43.723975" lon="12.6392083"><ele>412.0</ele><time>2026-03-29T09:25:07.96Z</time></trkpt><trkpt lat="43.7241283" lon="12.6392417"><ele>412.0</ele><time>2026-03-29T09:25:08.96Z</time></trkpt><trkpt lat="43.7242717" lon="12.639275"><ele>412.0</ele><time>2026-03-29T09:25:09.959Z</time></trkpt><trkpt lat="43.7244133" lon="12.6393017"><ele>412.0</ele><time>2026-03-29T09:25:10.96Z</time></trkpt><trkpt lat="43.72455" lon="12.6393417"><ele>412.0</ele><time>2026-03-29T09:25:11.96Z</time></trkpt><trkpt lat="43.7246983" lon="12.63938"><ele>413.33333333333337</ele><time>2026-03-29T09:25:12.96Z</time></trkpt><trkpt lat="43.724845" lon="12.63941"><ele>414.66666666666663</ele><time>2026-03-29T09:25:13.96Z</time></trkpt><trkpt lat="43.72499" lon="12.6394633"><ele>416.0</ele><time>2026-03-29T09:25:14.96Z</time></trkpt><trkpt lat="43.7251317" lon="12.6395367"><ele>409.5</ele><time>2026-03-29T09:25:15.96Z</time></trkpt><trkpt lat="43.725245" lon="12.6396267"><ele>403.0</ele><time>2026-03-29T09:25:16.959Z</time></trkpt><trkpt lat="43.725375" lon="12.6397183"><ele>396.5</ele><time>2026-03-29T09:25:17.96Z</time></trkpt><trkpt lat="43.7255067" lon="12.639785"><ele>390.0</ele><time>2026-03-29T09:25:18.96Z</time></trkpt><trkpt lat="43.725635" lon="12.63983"><ele>390.0</ele><time>2026-03-29T09:25:19.96Z</time></trkpt><trkpt lat="43.725755" lon="12.6398367"><ele>390.0</ele><time>2026-03-29T09:25:20.959Z</time></trkpt><trkpt lat="43.7258583" lon="12.6398033"><ele>390.0</ele><time>2026-03-29T09:25:21.96Z</time></trkpt><trkpt lat="43.72598" lon="12.639745"><ele>390.0</ele><time>2026-03-29T09:25:22.959Z</time></trkpt><trkpt lat="43.7260783" lon="12.6396967"><ele>388.5</ele><time>2026-03-29T09:25:23.959Z</time></trkpt><trkpt lat="43.7261683" lon="12.6396583"><ele>387.0</ele><time>2026-03-29T09:25:24.96Z</time></trkpt><trkpt lat="43.7262433" lon="12.639645"><ele>385.5</ele><time>2026-03-29T09:25:25.96Z</time></trkpt><trkpt lat="43.7263117" lon="12.6396517"><ele>384.0</ele><time>2026-03-29T09:25:26.96Z</time></trkpt><trkpt lat="43.7263783" lon="12.6396817"><ele>382.5</ele><time>2026-03-29T09:25:27.96Z</time></trkpt><trkpt lat="43.7264483" lon="12.6397267"><ele>381.0</ele><time>2026-03-29T09:25:28.959Z</time></trkpt><trkpt lat="43.7265067" lon="12.63982"><ele>381.0</ele><time>2026-03-29T09:25:29.96Z</time></trkpt><trkpt lat="43.7265467" lon="12.63995"><ele>381.0</ele><time>2026-03-29T09:25:30.96Z</time></trkpt><trkpt lat="43.7265433" lon="12.640085"><ele>381.0</ele><time>2026-03-29T09:25:31.96Z</time></trkpt><trkpt lat="43.7265133" lon="12.6401933"><ele>381.0</ele><time>2026-03-29T09:25:32.96Z</time></trkpt><trkpt lat="43.72646" lon="12.6403"><ele>381.0</ele><time>2026-03-29T09:25:33.959Z</time></trkpt><trkpt lat="43.7263833" lon="12.64039"><ele>380.8</ele><time>2026-03-29T09:25:34.96Z</time></trkpt><trkpt lat="43.7262867" lon="12.64047"><ele>380.6</ele><time>2026-03-29T09:25:35.96Z</time></trkpt><trkpt lat="43.7261933" lon="12.6405583"><ele>380.4</ele><time>2026-03-29T09:25:36.96Z</time></trkpt><trkpt lat="43.7261217" lon="12.6406467"><ele>380.2</ele><time>2026-03-29T09:25:37.96Z</time></trkpt><trkpt lat="43.726055" lon="12.6407233"><ele>380.0</ele><time>2026-03-29T09:25:38.959Z</time></trkpt><trkpt lat="43.72599" lon="12.6407967"><ele>380.0</ele><time>2026-03-29T09:25:39.96Z</time></trkpt><trkpt lat="43.7259283" lon="12.640855"><ele>380.0</ele><time>2026-03-29T09:25:40.96Z</time></trkpt><trkpt lat="43.7258617" lon="12.6408883"><ele>380.0</ele><time>2026-03-29T09:25:41.96Z</time></trkpt><trkpt lat="43.725795" lon="12.6409133"><ele>380.0</ele><time>2026-03-29T09:25:42.96Z</time></trkpt><trkpt lat="43.7257217" lon="12.6409617"><ele>380.0</ele><time>2026-03-29T09:25:43.96Z</time></trkpt><trkpt lat="43.7256567" lon="12.6410417"><ele>380.0</ele><time>2026-03-29T09:25:44.96Z</time></trkpt><trkpt lat="43.7256183" lon="12.6411333"><ele>380.5</ele><time>2026-03-29T09:25:45.96Z</time></trkpt><trkpt lat="43.725605" lon="12.6412267"><ele>381.0</ele><time>2026-03-29T09:25:46.96Z</time></trkpt><trkpt lat="43.7256167" lon="12.64133"><ele>381.5</ele><time>2026-03-29T09:25:47.96Z</time></trkpt><trkpt lat="43.7256633" lon="12.6413967"><ele>382.0</ele><time>2026-03-29T09:25:48.96Z</time></trkpt><trkpt lat="43.725735" lon="12.6414517"><ele>382.5</ele><time>2026-03-29T09:25:49.96Z</time></trkpt><trkpt lat="43.7258433" lon="12.6414733"><ele>383.0</ele><time>2026-03-29T09:25:50.959Z</time></trkpt><trkpt lat="43.72594" lon="12.6414967"><ele>382.6666666666667</ele><time>2026-03-29T09:25:51.959Z</time></trkpt><trkpt lat="43.7260933" lon="12.64145"><ele>382.3333333333333</ele><time>2026-03-29T09:25:52.96Z</time></trkpt><trkpt lat="43.7262683" lon="12.641405"><ele>382.0</ele><time>2026-03-29T09:25:53.96Z</time></trkpt><trkpt lat="43.7264383" lon="12.641395"><ele>382.0</ele><time>2026-03-29T09:25:54.96Z</time></trkpt><trkpt lat="43.7265917" lon="12.6414083"><ele>382.0</ele><time>2026-03-29T09:25:55.959Z</time></trkpt><trkpt lat="43.726745" lon="12.64143"><ele>382.0</ele><time>2026-03-29T09:25:56.96Z</time></trkpt><trkpt lat="43.7268967" lon="12.6414567"><ele>378.3333333333333</ele><time>2026-03-29T09:25:57.959Z</time></trkpt><trkpt lat="43.72706" lon="12.6414767"><ele>374.6666666666667</ele><time>2026-03-29T09:25:58.959Z</time></trkpt><trkpt lat="43.7272083" lon="12.6415033"><ele>371.0</ele><time>2026-03-29T09:25:59.96Z</time></trkpt><trkpt lat="43.72737" lon="12.6415333"><ele>371.0</ele><time>2026-03-29T09:26:00.96Z</time></trkpt><trkpt lat="43.7275317" lon="12.6415533"><ele>371.0</ele><time>2026-03-29T09:26:01.96Z</time></trkpt><trkpt lat="43.7276867" lon="12.6415817"><ele>371.0</ele><time>2026-03-29T09:26:02.96Z</time></trkpt><trkpt lat="43.72783" lon="12.6416167"><ele>369.5</ele><time>2026-03-29T09:26:03.96Z</time></trkpt><trkpt lat="43.7279717" lon="12.641655"><ele>368.0</ele><time>2026-03-29T09:26:04.96Z</time></trkpt><trkpt lat="43.7281117" lon="12.6417083"><ele>366.5</ele><time>2026-03-29T09:26:05.96Z</time></trkpt><trkpt lat="43.7282333" lon="12.64179"><ele>365.0</ele><time>2026-03-29T09:26:06.959Z</time></trkpt><trkpt lat="43.7283467" lon="12.6418733"><ele>365.0</ele><time>2026-03-29T09:26:07.96Z</time></trkpt><trkpt lat="43.7284367" lon="12.6419517"><ele>365.0</ele><time>2026-03-29T09:26:08.96Z</time></trkpt><trkpt lat="43.7285133" lon="12.642005"><ele>365.0</ele><time>2026-03-29T09:26:09.96Z</time></trkpt><trkpt lat="43.728615" lon="12.6420267"><ele>365.0</ele><time>2026-03-29T09:26:10.959Z</time></trkpt><trkpt lat="43.7286933" lon="12.64201"><ele>365.0</ele><time>2026-03-29T09:26:11.959Z</time></trkpt><trkpt lat="43.7287633" lon="12.64196"><ele>363.6</ele><time>2026-03-29T09:26:12.96Z</time></trkpt><trkpt lat="43.7288233" lon="12.6419017"><ele>362.2</ele><time>2026-03-29T09:26:13.959Z</time></trkpt><trkpt lat="43.7288717" lon="12.64181"><ele>360.79999999999995</ele><time>2026-03-29T09:26:14.96Z</time></trkpt><trkpt lat="43.7288817" lon="12.6417117"><ele>359.4</ele><time>2026-03-29T09:26:15.96Z</time></trkpt><trkpt lat="43.7288467" lon="12.64159"><ele>358.0</ele><time>2026-03-29T09:26:16.96Z</time></trkpt><trkpt lat="43.7287417" lon="12.6414633"><ele>358.0</ele><time>2026-03-29T09:26:17.959Z</time></trkpt><trkpt lat="43.7286017" lon="12.6413567"><ele>358.0</ele><time>2026-03-29T09:26:18.96Z</time></trkpt><trkpt lat="43.72846" lon="12.6412933"><ele>358.0</ele><time>2026-03-29T09:26:19.96Z</time></trkpt><trkpt lat="43.72832" lon="12.6412767"><ele>358.0</ele><time>2026-03-29T09:26:20.959Z</time></trkpt><trkpt lat="43.7281883" lon="12.64128"><ele>357.4</ele><time>2026-03-29T09:26:21.959Z</time></trkpt><trkpt lat="43.7280717" lon="12.641255"><ele>356.79999999999995</ele><time>2026-03-29T09:26:22.959Z</time></trkpt><trkpt lat="43.7279683" lon="12.6412183"><ele>356.2</ele><time>2026-03-29T09:26:23.96Z</time></trkpt><trkpt lat="43.7278967" lon="12.6411483"><ele>355.6</ele><time>2026-03-29T09:26:24.959Z</time></trkpt><trkpt lat="43.7278633" lon="12.64105"><ele>355.0</ele><time>2026-03-29T09:26:25.959Z</time></trkpt><trkpt lat="43.7278767" lon="12.6409633"><ele>355.0</ele><time>2026-03-29T09:26:26.959Z</time></trkpt><trkpt lat="43.7279333" lon="12.6408817"><ele>355.0</ele><time>2026-03-29T09:26:27.959Z</time></trkpt><trkpt lat="43.7280117" lon="12.6408567"><ele>355.0</ele><time>2026-03-29T09:26:28.96Z</time></trkpt><trkpt lat="43.72812" lon="12.6408583"><ele>355.0</ele><time>2026-03-29T09:26:29.959Z</time></trkpt><trkpt lat="43.7282317" lon="12.6408817"><ele>355.0</ele><time>2026-03-29T09:26:30.96Z</time></trkpt><trkpt lat="43.72839" lon="12.6409417"><ele>352.0</ele><time>2026-03-29T09:26:31.959Z</time></trkpt><trkpt lat="43.7285783" lon="12.64101"><ele>349.0</ele><time>2026-03-29T09:26:32.96Z</time></trkpt><trkpt lat="43.728785" lon="12.6410683"><ele>346.0</ele><time>2026-03-29T09:26:33.96Z</time></trkpt><trkpt lat="43.7289833" lon="12.6411167"><ele>346.0</ele><time>2026-03-29T09:26:34.96Z</time></trkpt><trkpt lat="43.7291767" lon="12.6411367"><ele>346.0</ele><time>2026-03-29T09:26:35.96Z</time></trkpt><trkpt lat="43.7293783" lon="12.6411317"><ele>346.0</ele><time>2026-03-29T09:26:36.959Z</time></trkpt><trkpt lat="43.729565" lon="12.641125"><ele>343.3333333333333</ele><time>2026-03-29T09:26:37.96Z</time></trkpt><trkpt lat="43.72976" lon="12.6411183"><ele>340.6666666666667</ele><time>2026-03-29T09:26:38.96Z</time></trkpt><trkpt lat="43.7299533" lon="12.6410933"><ele>338.0</ele><time>2026-03-29T09:26:39.96Z</time></trkpt><trkpt lat="43.730145" lon="12.6410533"><ele>336.0</ele><time>2026-03-29T09:26:40.96Z</time></trkpt><trkpt lat="43.7303367" lon="12.6410133"><ele>334.0</ele><time>2026-03-29T09:26:41.959Z</time></trkpt><trkpt lat="43.7305183" lon="12.640985"><ele>332.0</ele><time>2026-03-29T09:26:42.959Z</time></trkpt><trkpt lat="43.7307117" lon="12.6409583"><ele>332.0</ele><time>2026-03-29T09:26:43.959Z</time></trkpt><trkpt lat="43.7308917" lon="12.640935"><ele>332.0</ele><time>2026-03-29T09:26:44.959Z</time></trkpt><trkpt lat="43.73108" lon="12.6409417"><ele>332.0</ele><time>2026-03-29T09:26:45.959Z</time></trkpt><trkpt lat="43.7312567" lon="12.64094"><ele>330.33333333333337</ele><time>2026-03-29T09:26:46.959Z</time></trkpt><trkpt lat="43.7314233" lon="12.6409383"><ele>328.6666666666667</ele><time>2026-03-29T09:26:47.96Z</time></trkpt><trkpt lat="43.7315817" lon="12.640935"><ele>327.0</ele><time>2026-03-29T09:26:48.96Z</time></trkpt><trkpt lat="43.7317283" lon="12.6409567"><ele>327.0</ele><time>2026-03-29T09:26:49.96Z</time></trkpt><trkpt lat="43.7318733" lon="12.6409967"><ele>327.0</ele><time>2026-03-29T09:26:50.96Z</time></trkpt><trkpt lat="43.7320067" lon="12.64109"><ele>327.0</ele><time>2026-03-29T09:26:51.96Z</time></trkpt><trkpt lat="43.7321117" lon="12.6412467"><ele>326.0</ele><time>2026-03-29T09:26:52.96Z</time></trkpt><trkpt lat="43.7322267" lon="12.6414533"><ele>325.0</ele><time>2026-03-29T09:26:53.96Z</time></trkpt><trkpt lat="43.7323433" lon="12.6416567"><ele>324.0</ele><time>2026-03-29T09:26:54.959Z</time></trkpt><trkpt lat="43.732445" lon="12.64186"><ele>322.6666666666667</ele><time>2026-03-29T09:26:55.96Z</time></trkpt><trkpt lat="43.7325467" lon="12.642055"><ele>321.33333333333337</ele><time>2026-03-29T09:26:56.959Z</time></trkpt><trkpt lat="43.7326533" lon="12.6422333"><ele>320.0</ele><time>2026-03-29T09:26:57.96Z</time></trkpt><trkpt lat="43.73278" lon="12.6424017"><ele>320.0</ele><time>2026-03-29T09:26:58.959Z</time></trkpt><trkpt lat="43.7329133" lon="12.64256"><ele>320.0</ele><time>2026-03-29T09:26:59.96Z</time></trkpt><trkpt lat="43.733075" lon="12.6426883"><ele>320.0</ele><time>2026-03-29T09:27:00.96Z</time></trkpt><trkpt lat="43.7332317" lon="12.6427767"><ele>320.6666666666667</ele><time>2026-03-29T09:27:01.959Z</time></trkpt><trkpt lat="43.7333933" lon="12.6428467"><ele>321.3333333333333</ele><time>2026-03-29T09:27:02.959Z</time></trkpt><trkpt lat="43.7335667" lon="12.64291"><ele>322.0</ele><time>2026-03-29T09:27:03.96Z</time></trkpt><trkpt lat="43.7337367" lon="12.6429633"><ele>322.0</ele><time>2026-03-29T09:27:04.96Z</time></trkpt><trkpt lat="43.7339067" lon="12.6429633"><ele>322.0</ele><time>2026-03-29T09:27:05.959Z</time></trkpt><trkpt lat="43.73408" lon="12.642985"><ele>322.0</ele><time>2026-03-29T09:27:06.96Z</time></trkpt><trkpt lat="43.7342533" lon="12.6430183"><ele>318.3333333333333</ele><time>2026-03-29T09:27:07.96Z</time></trkpt><trkpt lat="43.7344183" lon="12.64305"><ele>314.6666666666667</ele><time>2026-03-29T09:27:08.96Z</time></trkpt><trkpt lat="43.7345883" lon="12.6430883"><ele>311.0</ele><time>2026-03-29T09:27:09.96Z</time></trkpt><trkpt lat="43.734755" lon="12.6431083"><ele>311.0</ele><time>2026-03-29T09:27:10.959Z</time></trkpt><trkpt lat="43.7349167" lon="12.6431217"><ele>311.0</ele><time>2026-03-29T09:27:11.96Z</time></trkpt><trkpt lat="43.7350667" lon="12.643135"><ele>311.0</ele><time>2026-03-29T09:27:12.96Z</time></trkpt><trkpt lat="43.7352083" lon="12.643155"><ele>309.75</ele><time>2026-03-29T09:27:13.96Z</time></trkpt><trkpt lat="43.7353433" lon="12.6431567"><ele>308.5</ele><time>2026-03-29T09:27:14.96Z</time></trkpt><trkpt lat="43.735475" lon="12.643155"><ele>307.25</ele><time>2026-03-29T09:27:15.96Z</time></trkpt><trkpt lat="43.735615" lon="12.64314"><ele>306.0</ele><time>2026-03-29T09:27:16.959Z</time></trkpt><trkpt lat="43.7357533" lon="12.6431033"><ele>306.0</ele><time>2026-03-29T09:27:17.96Z</time></trkpt><trkpt lat="43.7358883" lon="12.6430433"><ele>306.0</ele><time>2026-03-29T09:27:18.96Z</time></trkpt><trkpt lat="43.7360283" lon="12.642955"><ele>306.0</ele><time>2026-03-29T09:27:19.959Z</time></trkpt><trkpt lat="43.73617" lon="12.64285"><ele>308.6666666666667</ele><time>2026-03-29T09:27:20.96Z</time></trkpt><trkpt lat="43.73631" lon="12.6427417"><ele>311.33333333333337</ele><time>2026-03-29T09:27:21.96Z</time></trkpt><trkpt lat="43.736465" lon="12.6426417"><ele>314.0</ele><time>2026-03-29T09:27:22.96Z</time></trkpt><trkpt lat="43.7366233" lon="12.6425717"><ele>314.0</ele><time>2026-03-29T09:27:23.959Z</time></trkpt><trkpt lat="43.7367867" lon="12.6425317"><ele>314.0</ele><time>2026-03-29T09:27:24.959Z</time></trkpt><trkpt lat="43.7369533" lon="12.6425233"><ele>314.0</ele><time>2026-03-29T09:27:25.96Z</time></trkpt><trkpt lat="43.737115" lon="12.642545"><ele>315.6666666666667</ele><time>2026-03-29T09:27:26.96Z</time></trkpt><trkpt lat="43.7373017" lon="12.6425983"><ele>317.3333333333333</ele><time>2026-03-29T09:27:27.959Z</time></trkpt><trkpt lat="43.7374617" lon="12.6426733"><ele>319.0</ele><time>2026-03-29T09:27:28.96Z</time></trkpt><trkpt lat="43.7376183" lon="12.64276"><ele>314.66666666666663</ele><time>2026-03-29T09:27:29.96Z</time></trkpt><trkpt lat="43.7377683" lon="12.64285"><ele>310.3333333333333</ele><time>2026-03-29T09:27:30.959Z</time></trkpt><trkpt lat="43.737915" lon="12.6429517"><ele>306.0</ele><time>2026-03-29T09:27:31.96Z</time></trkpt><trkpt lat="43.73807" lon="12.6430517"><ele>306.0</ele><time>2026-03-29T09:27:32.96Z</time></trkpt><trkpt lat="43.7382067" lon="12.6431667"><ele>306.0</ele><time>2026-03-29T09:27:33.96Z</time></trkpt><trkpt lat="43.7383283" lon="12.6433"><ele>306.0</ele><time>2026-03-29T09:27:34.959Z</time></trkpt><trkpt lat="43.7384433" lon="12.6434483"><ele>306.0</ele><time>2026-03-29T09:27:35.959Z</time></trkpt><trkpt lat="43.7385433" lon="12.6436283"><ele>306.0</ele><time>2026-03-29T09:27:36.96Z</time></trkpt><trkpt lat="43.7386333" lon="12.6437983"><ele>306.0</ele><time>2026-03-29T09:27:37.959Z</time></trkpt><trkpt lat="43.738715" lon="12.643995"><ele>308.6666666666667</ele><time>2026-03-29T09:27:38.96Z</time></trkpt><trkpt lat="43.7388083" lon="12.6441633"><ele>311.33333333333337</ele><time>2026-03-29T09:27:39.96Z</time></trkpt><trkpt lat="43.7388983" lon="12.6443333"><ele>314.0</ele><time>2026-03-29T09:27:40.96Z</time></trkpt><trkpt lat="43.7390033" lon="12.6444883"><ele>313.75</ele><time>2026-03-29T09:27:41.959Z</time></trkpt><trkpt lat="43.7390983" lon="12.6446517"><ele>313.5</ele><time>2026-03-29T09:27:42.96Z</time></trkpt><trkpt lat="43.7392033" lon="12.644795"><ele>313.25</ele><time>2026-03-29T09:27:43.959Z</time></trkpt><trkpt lat="43.7392967" lon="12.644945"><ele>313.0</ele><time>2026-03-29T09:27:44.96Z</time></trkpt><trkpt lat="43.7393933" lon="12.6450867"><ele>313.0</ele><time>2026-03-29T09:27:45.96Z</time></trkpt><trkpt lat="43.7395033" lon="12.6452067"><ele>313.0</ele><time>2026-03-29T09:27:46.959Z</time></trkpt><trkpt lat="43.7396317" lon="12.6452817"><ele>313.0</ele><time>2026-03-29T09:27:47.96Z</time></trkpt><trkpt lat="43.73976" lon="12.645355"><ele>313.0</ele><time>2026-03-29T09:27:48.96Z</time></trkpt><trkpt lat="43.7399017" lon="12.6454017"><ele>306.5</ele><time>2026-03-29T09:27:49.959Z</time></trkpt><trkpt lat="43.74004" lon="12.64544"><ele>300.0</ele><time>2026-03-29T09:27:50.959Z</time></trkpt><trkpt lat="43.7401917" lon="12.6454733"><ele>293.5</ele><time>2026-03-29T09:27:51.96Z</time></trkpt><trkpt lat="43.740345" lon="12.6454867"><ele>287.0</ele><time>2026-03-29T09:27:52.96Z</time></trkpt><trkpt lat="43.7405017" lon="12.6455033"><ele>287.0</ele><time>2026-03-29T09:27:53.959Z</time></trkpt><trkpt lat="43.7406583" lon="12.645535"><ele>287.0</ele><time>2026-03-29T09:27:54.959Z</time></trkpt><trkpt lat="43.7408167" lon="12.645565"><ele>287.0</ele><time>2026-03-29T09:27:55.96Z</time></trkpt><trkpt lat="43.74098" lon="12.645585"><ele>289.0</ele><time>2026-03-29T09:27:56.96Z</time></trkpt><trkpt lat="43.741145" lon="12.6456267"><ele>291.0</ele><time>2026-03-29T09:27:57.96Z</time></trkpt><trkpt lat="43.7412983" lon="12.6456783"><ele>293.0</ele><time>2026-03-29T09:27:58.96Z</time></trkpt><trkpt lat="43.741445" lon="12.6457383"><ele>293.0</ele><time>2026-03-29T09:27:59.96Z</time></trkpt><trkpt lat="43.7415917" lon="12.645835"><ele>293.0</ele><time>2026-03-29T09:28:00.96Z</time></trkpt><trkpt lat="43.741735" lon="12.6459417"><ele>293.0</ele><time>2026-03-29T09:28:01.96Z</time></trkpt><trkpt lat="43.74188" lon="12.6460383"><ele>293.33333333333337</ele><time>2026-03-29T09:28:02.96Z</time></trkpt><trkpt lat="43.7420283" lon="12.6461067"><ele>293.6666666666667</ele><time>2026-03-29T09:28:03.959Z</time></trkpt><trkpt lat="43.7421833" lon="12.6461667"><ele>294.0</ele><time>2026-03-29T09:28:04.959Z</time></trkpt><trkpt lat="43.7423467" lon="12.6461967"><ele>289.3333333333333</ele><time>2026-03-29T09:28:05.959Z</time></trkpt><trkpt lat="43.7425117" lon="12.646215"><ele>284.66666666666663</ele><time>2026-03-29T09:28:06.96Z</time></trkpt><trkpt lat="43.7426733" lon="12.6462167"><ele>280.0</ele><time>2026-03-29T09:28:07.959Z</time></trkpt><trkpt lat="43.74283" lon="12.6461917"><ele>279.0</ele><time>2026-03-29T09:28:08.96Z</time></trkpt><trkpt lat="43.7429883" lon="12.6461367"><ele>278.0</ele><time>2026-03-29T09:28:09.959Z</time></trkpt><trkpt lat="43.74315" lon="12.6460717"><ele>277.0</ele><time>2026-03-29T09:28:10.959Z</time></trkpt><trkpt lat="43.7433017" lon="12.646025"><ele>280.0</ele><time>2026-03-29T09:28:11.959Z</time></trkpt><trkpt lat="43.7434517" lon="12.6459817"><ele>283.0</ele><time>2026-03-29T09:28:12.96Z</time></trkpt><trkpt lat="43.743615" lon="12.6459733"><ele>286.0</ele><time>2026-03-29T09:28:13.96Z</time></trkpt><trkpt lat="43.7437783" lon="12.64599"><ele>287.0</ele><time>2026-03-29T09:28:14.96Z</time></trkpt><trkpt lat="43.74394" lon="12.6460283"><ele>288.0</ele><time>2026-03-29T09:28:15.959Z</time></trkpt><trkpt lat="43.74411" lon="12.646095"><ele>289.0</ele><time>2026-03-29T09:28:16.96Z</time></trkpt><trkpt lat="43.744265" lon="12.64618"><ele>285.3333333333333</ele><time>2026-03-29T09:28:17.959Z</time></trkpt><trkpt lat="43.744415" lon="12.6462633"><ele>281.6666666666667</ele><time>2026-03-29T09:28:18.959Z</time></trkpt><trkpt lat="43.7445633" lon="12.6463383"><ele>278.0</ele><time>2026-03-29T09:28:19.96Z</time></trkpt><trkpt lat="43.7447083" lon="12.6464317"><ele>278.0</ele><time>2026-03-29T09:28:20.96Z</time></trkpt><trkpt lat="43.7448617" lon="12.6465067"><ele>278.0</ele><time>2026-03-29T09:28:21.96Z</time></trkpt><trkpt lat="43.7449933" lon="12.646565"><ele>278.0</ele><time>2026-03-29T09:28:22.959Z</time></trkpt><trkpt lat="43.74511" lon="12.64665"><ele>278.0</ele><time>2026-03-29T09:28:23.959Z</time></trkpt><trkpt lat="43.7452267" lon="12.64677"><ele>279.6666666666667</ele><time>2026-03-29T09:28:24.96Z</time></trkpt><trkpt lat="43.7453317" lon="12.6469167"><ele>281.3333333333333</ele><time>2026-03-29T09:28:25.96Z</time></trkpt><trkpt lat="43.7454167" lon="12.6470967"><ele>283.0</ele><time>2026-03-29T09:28:26.96Z</time></trkpt><trkpt lat="43.745465" lon="12.6473117"><ele>283.0</ele><time>2026-03-29T09:28:27.959Z</time></trkpt><trkpt lat="43.745465" lon="12.64751"><ele>283.0</ele><time>2026-03-29T09:28:28.96Z</time></trkpt><trkpt lat="43.745445" lon="12.64773"><ele>283.0</ele><time>2026-03-29T09:28:29.96Z</time></trkpt><trkpt lat="43.7454333" lon="12.64794"><ele>281.75</ele><time>2026-03-29T09:28:30.959Z</time></trkpt><trkpt lat="43.74543" lon="12.648145"><ele>280.5</ele><time>2026-03-29T09:28:31.96Z</time></trkpt><trkpt lat="43.74544" lon="12.648325"><ele>279.25</ele><time>2026-03-29T09:28:32.959Z</time></trkpt><trkpt lat="43.745455" lon="12.6485083"><ele>278.0</ele><time>2026-03-29T09:28:33.96Z</time></trkpt><trkpt lat="43.7454817" lon="12.6486917"><ele>275.0</ele><time>2026-03-29T09:28:34.959Z</time></trkpt><trkpt lat="43.74553" lon="12.64886"><ele>272.0</ele><time>2026-03-29T09:28:35.96Z</time></trkpt><trkpt lat="43.74559" lon="12.6490433"><ele>269.0</ele><time>2026-03-29T09:28:36.96Z</time></trkpt><trkpt lat="43.745655" lon="12.6492183"><ele>266.0</ele><time>2026-03-29T09:28:37.959Z</time></trkpt><trkpt lat="43.7457333" lon="12.64939"><ele>264.0</ele><time>2026-03-29T09:28:38.96Z</time></trkpt><trkpt lat="43.7458017" lon="12.6495767"><ele>262.0</ele><time>2026-03-29T09:28:39.96Z</time></trkpt><trkpt lat="43.745865" lon="12.6497333"><ele>260.0</ele><time>2026-03-29T09:28:40.959Z</time></trkpt><trkpt lat="43.7459317" lon="12.6498983"><ele>258.0</ele><time>2026-03-29T09:28:41.96Z</time></trkpt><trkpt lat="43.746" lon="12.65006"><ele>257.75</ele><time>2026-03-29T09:28:42.96Z</time></trkpt><trkpt lat="43.74608" lon="12.650205"><ele>257.5</ele><time>2026-03-29T09:28:43.96Z</time></trkpt><trkpt lat="43.7461667" lon="12.6503583"><ele>257.25</ele><time>2026-03-29T09:28:44.96Z</time></trkpt><trkpt lat="43.7462583" lon="12.6505267"><ele>257.0</ele><time>2026-03-29T09:28:45.959Z</time></trkpt><trkpt lat="43.74636" lon="12.6506833"><ele>257.0</ele><time>2026-03-29T09:28:46.96Z</time></trkpt><trkpt lat="43.7464683" lon="12.6508317"><ele>257.0</ele><time>2026-03-29T09:28:47.96Z</time></trkpt><trkpt lat="43.7465833" lon="12.6509683"><ele>257.0</ele><time>2026-03-29T09:28:48.96Z</time></trkpt><trkpt lat="43.7467033" lon="12.6510933"><ele>256.6666666666667</ele><time>2026-03-29T09:28:49.959Z</time></trkpt><trkpt lat="43.74684" lon="12.6512033"><ele>256.3333333333333</ele><time>2026-03-29T09:28:50.96Z</time></trkpt><trkpt lat="43.7469733" lon="12.651335"><ele>256.0</ele><time>2026-03-29T09:28:51.96Z</time></trkpt><trkpt lat="43.7471217" lon="12.651465"><ele>256.0</ele><time>2026-03-29T09:28:52.96Z</time></trkpt><trkpt lat="43.747255" lon="12.651575"><ele>256.0</ele><time>2026-03-29T09:28:53.96Z</time></trkpt><trkpt lat="43.7473933" lon="12.6517117"><ele>256.0</ele><time>2026-03-29T09:28:54.96Z</time></trkpt><trkpt lat="43.74752" lon="12.6518417"><ele>253.33333333333331</ele><time>2026-03-29T09:28:55.96Z</time></trkpt><trkpt lat="43.7476533" lon="12.6519667"><ele>250.66666666666669</ele><time>2026-03-29T09:28:56.96Z</time></trkpt><trkpt lat="43.7478" lon="12.6520833"><ele>248.0</ele><time>2026-03-29T09:28:57.96Z</time></trkpt><trkpt lat="43.7479417" lon="12.6521833"><ele>248.0</ele><time>2026-03-29T09:28:58.96Z</time></trkpt><trkpt lat="43.7480817" lon="12.652305"><ele>248.0</ele><time>2026-03-29T09:28:59.96Z</time></trkpt><trkpt lat="43.748225" lon="12.652425"><ele>248.0</ele><time>2026-03-29T09:29:00.959Z</time></trkpt><trkpt lat="43.7483617" lon="12.6525567"><ele>248.0</ele><time>2026-03-29T09:29:01.959Z</time></trkpt><trkpt lat="43.7485033" lon="12.6526867"><ele>248.0</ele><time>2026-03-29T09:29:02.959Z</time></trkpt><trkpt lat="43.7486483" lon="12.6528367"><ele>248.0</ele><time>2026-03-29T09:29:03.959Z</time></trkpt><trkpt lat="43.74878" lon="12.6529867"><ele>246.33333333333334</ele><time>2026-03-29T09:29:04.959Z</time></trkpt><trkpt lat="43.7489133" lon="12.6531483"><ele>244.66666666666669</ele><time>2026-03-29T09:29:05.96Z</time></trkpt><trkpt lat="43.7490383" lon="12.65331"><ele>243.0</ele><time>2026-03-29T09:29:06.96Z</time></trkpt><trkpt lat="43.7491617" lon="12.65347"><ele>242.33333333333331</ele><time>2026-03-29T09:29:07.96Z</time></trkpt><trkpt lat="43.7492833" lon="12.65363"><ele>241.66666666666666</ele><time>2026-03-29T09:29:08.959Z</time></trkpt><trkpt lat="43.7494017" lon="12.6537867"><ele>241.0</ele><time>2026-03-29T09:29:09.96Z</time></trkpt><trkpt lat="43.7495283" lon="12.65394"><ele>241.0</ele><time>2026-03-29T09:29:10.96Z</time></trkpt><trkpt lat="43.7496517" lon="12.654085"><ele>241.0</ele><time>2026-03-29T09:29:11.96Z</time></trkpt><trkpt lat="43.7497717" lon="12.65424"><ele>241.0</ele><time>2026-03-29T09:29:12.96Z</time></trkpt><trkpt lat="43.7498883" lon="12.6543867"><ele>237.33333333333331</ele><time>2026-03-29T09:29:13.96Z</time></trkpt><trkpt lat="43.75" lon="12.65454"><ele>233.66666666666669</ele><time>2026-03-29T09:29:14.96Z</time></trkpt><trkpt lat="43.750105" lon="12.65469"><ele>230.0</ele><time>2026-03-29T09:29:15.96Z</time></trkpt><trkpt lat="43.7502017" lon="12.6548683"><ele>231.66666666666669</ele><time>2026-03-29T09:29:16.96Z</time></trkpt><trkpt lat="43.75029" lon="12.6550567"><ele>233.33333333333331</ele><time>2026-03-29T09:29:17.96Z</time></trkpt><trkpt lat="43.7503683" lon="12.6552567"><ele>235.0</ele><time>2026-03-29T09:29:18.959Z</time></trkpt><trkpt lat="43.7504467" lon="12.6554717"><ele>235.0</ele><time>2026-03-29T09:29:19.96Z</time></trkpt><trkpt lat="43.7505183" lon="12.655685"><ele>235.0</ele><time>2026-03-29T09:29:20.959Z</time></trkpt><trkpt lat="43.7505983" lon="12.6559133"><ele>235.0</ele><time>2026-03-29T09:29:21.959Z</time></trkpt><trkpt lat="43.75067" lon="12.65612"><ele>232.33333333333331</ele><time>2026-03-29T09:29:22.959Z</time></trkpt><trkpt lat="43.750745" lon="12.6563233"><ele>229.66666666666669</ele><time>2026-03-29T09:29:23.959Z</time></trkpt><trkpt lat="43.7508083" lon="12.65653"><ele>227.0</ele><time>2026-03-29T09:29:24.959Z</time></trkpt><trkpt lat="43.75088" lon="12.65672"><ele>227.0</ele><time>2026-03-29T09:29:25.96Z</time></trkpt><trkpt lat="43.7509467" lon="12.6569133"><ele>227.0</ele><time>2026-03-29T09:29:26.959Z</time></trkpt><trkpt lat="43.7510167" lon="12.6570933"><ele>227.0</ele><time>2026-03-29T09:29:27.96Z</time></trkpt><trkpt lat="43.7510883" lon="12.6572833"><ele>228.0</ele><time>2026-03-29T09:29:28.96Z</time></trkpt><trkpt lat="43.7511567" lon="12.6574617"><ele>229.0</ele><time>2026-03-29T09:29:29.96Z</time></trkpt><trkpt lat="43.7512233" lon="12.6576467"><ele>230.0</ele><time>2026-03-29T09:29:30.959Z</time></trkpt><trkpt lat="43.7512883" lon="12.6578183"><ele>231.0</ele><time>2026-03-29T09:29:31.959Z</time></trkpt><trkpt lat="43.75135" lon="12.6580017"><ele>228.0</ele><time>2026-03-29T09:29:32.96Z</time></trkpt><trkpt lat="43.75142" lon="12.6581767"><ele>225.0</ele><time>2026-03-29T09:29:33.96Z</time></trkpt><trkpt lat="43.75149" lon="12.65834"><ele>222.0</ele><time>2026-03-29T09:29:34.96Z</time></trkpt><trkpt lat="43.7515583" lon="12.658495"><ele>219.0</ele><time>2026-03-29T09:29:35.96Z</time></trkpt><trkpt lat="43.751625" lon="12.6586383"><ele>218.0</ele><time>2026-03-29T09:29:36.959Z</time></trkpt><trkpt lat="43.7516883" lon="12.65879"><ele>216.99999999999997</ele><time>2026-03-29T09:29:37.959Z</time></trkpt><trkpt lat="43.75175" lon="12.65892"><ele>215.99999999999997</ele><time>2026-03-29T09:29:38.959Z</time></trkpt><trkpt lat="43.7518117" lon="12.65903"><ele>215.0</ele><time>2026-03-29T09:29:39.96Z</time></trkpt><trkpt lat="43.7518617" lon="12.6591367"><ele>214.0</ele><time>2026-03-29T09:29:40.96Z</time></trkpt><trkpt lat="43.7519033" lon="12.6592317"><ele>214.49999999999997</ele><time>2026-03-29T09:29:41.96Z</time></trkpt><trkpt lat="43.7519283" lon="12.6593467"><ele>215.0</ele><time>2026-03-29T09:29:42.959Z</time></trkpt><trkpt lat="43.75195" lon="12.6594467"><ele>215.5</ele><time>2026-03-29T09:29:43.96Z</time></trkpt><trkpt lat="43.7519933" lon="12.6595417"><ele>216.0</ele><time>2026-03-29T09:29:44.959Z</time></trkpt><trkpt lat="43.7520417" lon="12.6596217"><ele>216.49999999999997</ele><time>2026-03-29T09:29:45.96Z</time></trkpt><trkpt lat="43.7520983" lon="12.6597017"><ele>217.0</ele><time>2026-03-29T09:29:46.96Z</time></trkpt><trkpt lat="43.752155" lon="12.6597933"><ele>217.0</ele><time>2026-03-29T09:29:47.96Z</time></trkpt><trkpt lat="43.752225" lon="12.6598983"><ele>217.0</ele><time>2026-03-29T09:29:48.959Z</time></trkpt><trkpt lat="43.7522983" lon="12.6600083"><ele>217.0</ele><time>2026-03-29T09:29:49.96Z</time></trkpt><trkpt lat="43.7523767" lon="12.6601283"><ele>217.0</ele><time>2026-03-29T09:29:50.959Z</time></trkpt><trkpt lat="43.752455" lon="12.6602533"><ele>217.0</ele><time>2026-03-29T09:29:51.959Z</time></trkpt><trkpt lat="43.7525383" lon="12.6603883"><ele>216.75</ele><time>2026-03-29T09:29:52.959Z</time></trkpt><trkpt lat="43.752625" lon="12.6605167"><ele>216.5</ele><time>2026-03-29T09:29:53.96Z</time></trkpt><trkpt lat="43.752715" lon="12.6606417"><ele>216.25</ele><time>2026-03-29T09:29:54.96Z</time></trkpt><trkpt lat="43.75281" lon="12.66076"><ele>216.0</ele><time>2026-03-29T09:29:55.959Z</time></trkpt><trkpt lat="43.7529033" lon="12.66089"><ele>216.0</ele><time>2026-03-29T09:29:56.959Z</time></trkpt><trkpt lat="43.7529967" lon="12.66101"><ele>216.0</ele><time>2026-03-29T09:29:57.959Z</time></trkpt><trkpt lat="43.753085" lon="12.6611267"><ele>216.0</ele><time>2026-03-29T09:29:58.96Z</time></trkpt><trkpt lat="43.7531717" lon="12.661255"><ele>216.0</ele><time>2026-03-29T09:29:59.959Z</time></trkpt><trkpt lat="43.7532733" lon="12.66139"><ele>212.5</ele><time>2026-03-29T09:30:00.96Z</time></trkpt><trkpt lat="43.7533683" lon="12.6615317"><ele>209.0</ele><time>2026-03-29T09:30:01.96Z</time></trkpt><trkpt lat="43.75345" lon="12.661685"><ele>205.5</ele><time>2026-03-29T09:30:02.959Z</time></trkpt><trkpt lat="43.753535" lon="12.6618283"><ele>202.0</ele><time>2026-03-29T09:30:03.96Z</time></trkpt><trkpt lat="43.753615" lon="12.66197"><ele>202.0</ele><time>2026-03-29T09:30:04.959Z</time></trkpt><trkpt lat="43.7536917" lon="12.6621133"><ele>202.0</ele><time>2026-03-29T09:30:05.959Z</time></trkpt><trkpt lat="43.7537667" lon="12.66225"><ele>202.0</ele><time>2026-03-29T09:30:06.96Z</time></trkpt><trkpt lat="43.753835" lon="12.6623867"><ele>202.0</ele><time>2026-03-29T09:30:07.96Z</time></trkpt><trkpt lat="43.753895" lon="12.6625167"><ele>202.0</ele><time>2026-03-29T09:30:08.959Z</time></trkpt><trkpt lat="43.7539633" lon="12.662655"><ele>202.0</ele><time>2026-03-29T09:30:09.96Z</time></trkpt><trkpt lat="43.7540333" lon="12.66281"><ele>202.0</ele><time>2026-03-29T09:30:10.96Z</time></trkpt><trkpt lat="43.75411" lon="12.66296"><ele>202.0</ele><time>2026-03-29T09:30:11.96Z</time></trkpt><trkpt lat="43.7541683" lon="12.6631117"><ele>201.5</ele><time>2026-03-29T09:30:12.959Z</time></trkpt><trkpt lat="43.7542267" lon="12.663255"><ele>201.0</ele><time>2026-03-29T09:30:13.959Z</time></trkpt><trkpt lat="43.7542783" lon="12.6634117"><ele>200.5</ele><time>2026-03-29T09:30:14.96Z</time></trkpt><trkpt lat="43.7543233" lon="12.6635483"><ele>200.0</ele><time>2026-03-29T09:30:15.96Z</time></trkpt><trkpt lat="43.754375" lon="12.663685"><ele>200.0</ele><time>2026-03-29T09:30:16.96Z</time></trkpt><trkpt lat="43.75443" lon="12.6638233"><ele>200.0</ele><time>2026-03-29T09:30:17.959Z</time></trkpt><trkpt lat="43.7544833" lon="12.6639633"><ele>200.0</ele><time>2026-03-29T09:30:18.96Z</time></trkpt><trkpt lat="43.7545333" lon="12.6641"><ele>200.0</ele><time>2026-03-29T09:30:19.96Z</time></trkpt><trkpt lat="43.7545817" lon="12.6642417"><ele>200.0</ele><time>2026-03-29T09:30:20.96Z</time></trkpt><trkpt lat="43.7546333" lon="12.6643767"><ele>200.0</ele><time>2026-03-29T09:30:21.96Z</time></trkpt><trkpt lat="43.7546783" lon="12.6645267"><ele>200.0</ele><time>2026-03-29T09:30:22.96Z</time></trkpt><trkpt lat="43.7547033" lon="12.6646817"><ele>200.0</ele><time>2026-03-29T09:30:23.959Z</time></trkpt><trkpt lat="43.75473" lon="12.6648433"><ele>197.75</ele><time>2026-03-29T09:30:24.959Z</time></trkpt><trkpt lat="43.7547533" lon="12.6650083"><ele>195.5</ele><time>2026-03-29T09:30:25.96Z</time></trkpt><trkpt lat="43.7547833" lon="12.665175"><ele>193.25</ele><time>2026-03-29T09:30:26.96Z</time></trkpt><trkpt lat="43.7548183" lon="12.6653283"><ele>191.0</ele><time>2026-03-29T09:30:27.96Z</time></trkpt><trkpt lat="43.7548733" lon="12.6654717"><ele>188.75</ele><time>2026-03-29T09:30:28.959Z</time></trkpt><trkpt lat="43.754925" lon="12.66562"><ele>186.5</ele><time>2026-03-29T09:30:29.96Z</time></trkpt><trkpt lat="43.75498" lon="12.66577"><ele>184.25</ele><time>2026-03-29T09:30:30.96Z</time></trkpt><trkpt lat="43.7550417" lon="12.6659183"><ele>182.0</ele><time>2026-03-29T09:30:31.96Z</time></trkpt><trkpt lat="43.7551067" lon="12.666055"><ele>181.5</ele><time>2026-03-29T09:30:32.959Z</time></trkpt><trkpt lat="43.755185" lon="12.666175"><ele>181.0</ele><time>2026-03-29T09:30:33.959Z</time></trkpt><trkpt lat="43.755275" lon="12.6662833"><ele>180.5</ele><time>2026-03-29T09:30:34.959Z</time></trkpt><trkpt lat="43.755375" lon="12.6663733"><ele>180.0</ele><time>2026-03-29T09:30:35.96Z</time></trkpt><trkpt lat="43.7554783" lon="12.6664283"><ele>180.0</ele><time>2026-03-29T09:30:36.96Z</time></trkpt><trkpt lat="43.755595" lon="12.6664617"><ele>180.0</ele><time>2026-03-29T09:30:37.96Z</time></trkpt><trkpt lat="43.7557167" lon="12.666515"><ele>180.0</ele><time>2026-03-29T09:30:38.96Z</time></trkpt><trkpt lat="43.7558383" lon="12.666565"><ele>180.0</ele><time>2026-03-29T09:30:39.96Z</time></trkpt><trkpt lat="43.7559517" lon="12.6666083"><ele>179.75</ele><time>2026-03-29T09:30:40.959Z</time></trkpt><trkpt lat="43.7560567" lon="12.66667"><ele>179.5</ele><time>2026-03-29T09:30:41.96Z</time></trkpt><trkpt lat="43.7561633" lon="12.6667167"><ele>179.25</ele><time>2026-03-29T09:30:42.959Z</time></trkpt><trkpt lat="43.7562867" lon="12.6667383"><ele>179.0</ele><time>2026-03-29T09:30:43.96Z</time></trkpt><trkpt lat="43.7564033" lon="12.6667583"><ele>179.0</ele><time>2026-03-29T09:30:44.959Z</time></trkpt><trkpt lat="43.75652" lon="12.6667683"><ele>179.0</ele><time>2026-03-29T09:30:45.96Z</time></trkpt><trkpt lat="43.7566467" lon="12.666795"><ele>179.0</ele><time>2026-03-29T09:30:46.96Z</time></trkpt><trkpt lat="43.756785" lon="12.6668233"><ele>179.0</ele><time>2026-03-29T09:30:47.96Z</time></trkpt><trkpt lat="43.7569133" lon="12.6668533"><ele>178.0</ele><time>2026-03-29T09:30:48.96Z</time></trkpt><trkpt lat="43.7570167" lon="12.6668583"><ele>177.0</ele><time>2026-03-29T09:30:49.96Z</time></trkpt><trkpt lat="43.75714" lon="12.6668817"><ele>176.0</ele><time>2026-03-29T09:30:50.959Z</time></trkpt><trkpt lat="43.75726" lon="12.6668767"><ele>175.0</ele><time>2026-03-29T09:30:51.96Z</time></trkpt><trkpt lat="43.7573767" lon="12.6668767"><ele>175.0</ele><time>2026-03-29T09:30:52.959Z</time></trkpt><trkpt lat="43.7574917" lon="12.6668667"><ele>175.0</ele><time>2026-03-29T09:30:53.959Z</time></trkpt><trkpt lat="43.7576217" lon="12.666855"><ele>175.0</ele><time>2026-03-29T09:30:54.96Z</time></trkpt><trkpt lat="43.7577483" lon="12.6668583"><ele>175.0</ele><time>2026-03-29T09:30:55.959Z</time></trkpt><trkpt lat="43.75788" lon="12.666885"><ele>174.25</ele><time>2026-03-29T09:30:56.96Z</time></trkpt><trkpt lat="43.758005" lon="12.66691"><ele>173.5</ele><time>2026-03-29T09:30:57.96Z</time></trkpt><trkpt lat="43.7581267" lon="12.6669667"><ele>172.75</ele><time>2026-03-29T09:30:58.96Z</time></trkpt><trkpt lat="43.7582467" lon="12.6670333"><ele>172.0</ele><time>2026-03-29T09:30:59.959Z</time></trkpt><trkpt lat="43.7583633" lon="12.66712"><ele>172.0</ele><time>2026-03-29T09:31:00.959Z</time></trkpt><trkpt lat="43.75847" lon="12.667225"><ele>172.0</ele><time>2026-03-29T09:31:01.959Z</time></trkpt><trkpt lat="43.7585783" lon="12.6673367"><ele>172.0</ele><time>2026-03-29T09:31:02.959Z</time></trkpt><trkpt lat="43.7586933" lon="12.6674383"><ele>172.0</ele><time>2026-03-29T09:31:03.959Z</time></trkpt><trkpt lat="43.7588217" lon="12.6675217"><ele>171.5</ele><time>2026-03-29T09:31:04.959Z</time></trkpt><trkpt lat="43.7589483" lon="12.6675767"><ele>171.0</ele><time>2026-03-29T09:31:05.96Z</time></trkpt><trkpt lat="43.759085" lon="12.6675967"><ele>170.5</ele><time>2026-03-29T09:31:06.96Z</time></trkpt><trkpt lat="43.7592167" lon="12.6676083"><ele>170.0</ele><time>2026-03-29T09:31:07.96Z</time></trkpt><trkpt lat="43.759355" lon="12.6676183"><ele>171.5</ele><time>2026-03-29T09:31:08.959Z</time></trkpt><trkpt lat="43.7594983" lon="12.6676267"><ele>173.0</ele><time>2026-03-29T09:31:09.959Z</time></trkpt><trkpt lat="43.7596483" lon="12.6676233"><ele>174.5</ele><time>2026-03-29T09:31:10.96Z</time></trkpt><trkpt lat="43.7598" lon="12.667645"><ele>176.0</ele><time>2026-03-29T09:31:11.959Z</time></trkpt><trkpt lat="43.7599533" lon="12.6676517"><ele>176.0</ele><time>2026-03-29T09:31:12.959Z</time></trkpt><trkpt lat="43.7601017" lon="12.6676767"><ele>176.0</ele><time>2026-03-29T09:31:13.96Z</time></trkpt><trkpt lat="43.76025" lon="12.6677167"><ele>176.0</ele><time>2026-03-29T09:31:14.959Z</time></trkpt><trkpt lat="43.76039" lon="12.6677483"><ele>176.0</ele><time>2026-03-29T09:31:15.959Z</time></trkpt><trkpt lat="43.7605433" lon="12.6677983"><ele>174.5</ele><time>2026-03-29T09:31:16.959Z</time></trkpt><trkpt lat="43.7606733" lon="12.6678333"><ele>173.0</ele><time>2026-03-29T09:31:17.959Z</time></trkpt><trkpt lat="43.760805" lon="12.6678833"><ele>171.5</ele><time>2026-03-29T09:31:18.959Z</time></trkpt><trkpt lat="43.7609383" lon="12.6679267"><ele>170.0</ele><time>2026-03-29T09:31:19.959Z</time></trkpt><trkpt lat="43.76107" lon="12.6679683"><ele>169.75</ele><time>2026-03-29T09:31:20.96Z</time></trkpt><trkpt lat="43.7612" lon="12.6680283"><ele>169.5</ele><time>2026-03-29T09:31:21.96Z</time></trkpt><trkpt lat="43.7613267" lon="12.6681033"><ele>169.25</ele><time>2026-03-29T09:31:22.959Z</time></trkpt><trkpt lat="43.7614517" lon="12.668185"><ele>169.0</ele><time>2026-03-29T09:31:23.96Z</time></trkpt><trkpt lat="43.761575" lon="12.668275"><ele>169.0</ele><time>2026-03-29T09:31:24.959Z</time></trkpt><trkpt lat="43.7616967" lon="12.6683867"><ele>169.0</ele><time>2026-03-29T09:31:25.959Z</time></trkpt><trkpt lat="43.76181" lon="12.6685017"><ele>169.0</ele><time>2026-03-29T09:31:26.96Z</time></trkpt><trkpt lat="43.7619217" lon="12.6686267"><ele>169.0</ele><time>2026-03-29T09:31:27.96Z</time></trkpt><trkpt lat="43.7620267" lon="12.6687533"><ele>168.0</ele><time>2026-03-29T09:31:28.959Z</time></trkpt><trkpt lat="43.7621167" lon="12.6688767"><ele>167.0</ele><time>2026-03-29T09:31:29.959Z</time></trkpt><trkpt lat="43.7622017" lon="12.668995"><ele>166.0</ele><time>2026-03-29T09:31:30.959Z</time></trkpt><trkpt lat="43.7622883" lon="12.669105"><ele>165.0</ele><time>2026-03-29T09:31:31.96Z</time></trkpt><trkpt lat="43.76237" lon="12.669205"><ele>165.0</ele><time>2026-03-29T09:31:32.96Z</time></trkpt><trkpt lat="43.7624467" lon="12.6692967"><ele>165.0</ele><time>2026-03-29T09:31:33.96Z</time></trkpt><trkpt lat="43.762515" lon="12.6693633"><ele>165.0</ele><time>2026-03-29T09:31:34.959Z</time></trkpt><trkpt lat="43.762565" lon="12.669425"><ele>165.0</ele><time>2026-03-29T09:31:35.96Z</time></trkpt><trkpt lat="43.7626333" lon="12.669495"><ele>165.0</ele><time>2026-03-29T09:31:37.96Z</time></trkpt><trkpt lat="43.762705" lon="12.6694983"><ele>165.0</ele><time>2026-03-29T09:32:18.96Z</time></trkpt><trkpt lat="43.7628317" lon="12.6695567"><ele>163.4</ele><time>2026-03-29T09:32:20.959Z</time></trkpt><trkpt lat="43.762915" lon="12.669585"><ele>161.8</ele><time>2026-03-29T09:32:21.96Z</time></trkpt><trkpt lat="43.7630133" lon="12.6696133"><ele>160.2</ele><time>2026-03-29T09:32:22.959Z</time></trkpt><trkpt lat="43.76312" lon="12.6696383"><ele>158.6</ele><time>2026-03-29T09:32:23.96Z</time></trkpt><trkpt lat="43.763235" lon="12.6696633"><ele>157.0</ele><time>2026-03-29T09:32:24.959Z</time></trkpt><trkpt lat="43.7633667" lon="12.6696883"><ele>157.0</ele><time>2026-03-29T09:32:25.96Z</time></trkpt><trkpt lat="43.76351" lon="12.6697067"><ele>157.0</ele><time>2026-03-29T09:32:26.96Z</time></trkpt><trkpt lat="43.7636667" lon="12.6697233"><ele>157.0</ele><time>2026-03-29T09:32:27.96Z</time></trkpt><trkpt lat="43.7638333" lon="12.6697367"><ele>157.0</ele><time>2026-03-29T09:32:28.959Z</time></trkpt><trkpt lat="43.7640033" lon="12.6697417"><ele>157.0</ele><time>2026-03-29T09:32:29.96Z</time></trkpt><trkpt lat="43.7641783" lon="12.66974"><ele>157.0</ele><time>2026-03-29T09:32:30.96Z</time></trkpt><trkpt lat="43.76436" lon="12.66972"><ele>157.0</ele><time>2026-03-29T09:32:31.96Z</time></trkpt><trkpt lat="43.7645483" lon="12.6696717"><ele>157.0</ele><time>2026-03-29T09:32:32.96Z</time></trkpt><trkpt lat="43.764745" lon="12.66962"><ele>157.0</ele><time>2026-03-29T09:32:33.96Z</time></trkpt><trkpt lat="43.7649383" lon="12.6695533"><ele>157.0</ele><time>2026-03-29T09:32:34.96Z</time></trkpt><trkpt lat="43.765115" lon="12.66951"><ele>157.0</ele><time>2026-03-29T09:32:35.96Z</time></trkpt><trkpt lat="43.7652783" lon="12.6694583"><ele>157.0</ele><time>2026-03-29T09:32:36.959Z</time></trkpt><trkpt lat="43.7654533" lon="12.66945"><ele>156.66666666666669</ele><time>2026-03-29T09:32:37.96Z</time></trkpt><trkpt lat="43.76562" lon="12.6694667"><ele>156.33333333333334</ele><time>2026-03-29T09:32:38.959Z</time></trkpt><trkpt lat="43.76578" lon="12.6695217"><ele>156.0</ele><time>2026-03-29T09:32:39.96Z</time></trkpt><trkpt lat="43.7659217" lon="12.6696283"><ele>156.66666666666666</ele><time>2026-03-29T09:32:40.959Z</time></trkpt><trkpt lat="43.7660683" lon="12.6697817"><ele>157.33333333333331</ele><time>2026-03-29T09:32:41.959Z</time></trkpt><trkpt lat="43.7662067" lon="12.669935"><ele>158.0</ele><time>2026-03-29T09:32:42.959Z</time></trkpt><trkpt lat="43.7663433" lon="12.6700883"><ele>158.0</ele><time>2026-03-29T09:32:43.96Z</time></trkpt><trkpt lat="43.7664767" lon="12.6702467"><ele>158.0</ele><time>2026-03-29T09:32:44.959Z</time></trkpt><trkpt lat="43.76661" lon="12.6703967"><ele>158.0</ele><time>2026-03-29T09:32:45.959Z</time></trkpt><trkpt lat="43.7667417" lon="12.67055"><ele>159.66666666666666</ele><time>2026-03-29T09:32:46.96Z</time></trkpt><trkpt lat="43.7668717" lon="12.6707083"><ele>161.33333333333334</ele><time>2026-03-29T09:32:47.959Z</time></trkpt><trkpt lat="43.7670017" lon="12.6708683"><ele>163.0</ele><time>2026-03-29T09:32:48.96Z</time></trkpt><trkpt lat="43.76713" lon="12.6710283"><ele>160.0</ele><time>2026-03-29T09:32:49.959Z</time></trkpt><trkpt lat="43.7672583" lon="12.6711817"><ele>157.0</ele><time>2026-03-29T09:32:50.96Z</time></trkpt><trkpt lat="43.7673867" lon="12.67133"><ele>154.0</ele><time>2026-03-29T09:32:51.959Z</time></trkpt><trkpt lat="43.7675217" lon="12.6714633"><ele>154.0</ele><time>2026-03-29T09:32:52.96Z</time></trkpt><trkpt lat="43.76766" lon="12.6715767"><ele>154.0</ele><time>2026-03-29T09:32:53.96Z</time></trkpt><trkpt lat="43.7678133" lon="12.671675"><ele>154.0</ele><time>2026-03-29T09:32:54.96Z</time></trkpt><trkpt lat="43.7679667" lon="12.671785"><ele>154.33333333333334</ele><time>2026-03-29T09:32:55.96Z</time></trkpt><trkpt lat="43.76812" lon="12.67186"><ele>154.66666666666666</ele><time>2026-03-29T09:32:56.96Z</time></trkpt><trkpt lat="43.7682717" lon="12.67191"><ele>155.0</ele><time>2026-03-29T09:32:57.96Z</time></trkpt><trkpt lat="43.7684267" lon="12.67197"><ele>154.0</ele><time>2026-03-29T09:32:58.96Z</time></trkpt><trkpt lat="43.7685817" lon="12.6720317"><ele>153.0</ele><time>2026-03-29T09:32:59.959Z</time></trkpt><trkpt lat="43.76874" lon="12.672095"><ele>152.0</ele><time>2026-03-29T09:33:00.959Z</time></trkpt><trkpt lat="43.7688967" lon="12.6721667"><ele>152.0</ele><time>2026-03-29T09:33:01.96Z</time></trkpt><trkpt lat="43.7690467" lon="12.6722317"><ele>152.0</ele><time>2026-03-29T09:33:02.96Z</time></trkpt><trkpt lat="43.7692" lon="12.6722933"><ele>152.0</ele><time>2026-03-29T09:33:03.96Z</time></trkpt><trkpt lat="43.7693517" lon="12.6723617"><ele>151.33333333333331</ele><time>2026-03-29T09:33:04.959Z</time></trkpt><trkpt lat="43.7694983" lon="12.6724217"><ele>150.66666666666666</ele><time>2026-03-29T09:33:05.96Z</time></trkpt><trkpt lat="43.769655" lon="12.6725033"><ele>150.0</ele><time>2026-03-29T09:33:06.96Z</time></trkpt><trkpt lat="43.76982" lon="12.67257"><ele>150.0</ele><time>2026-03-29T09:33:07.96Z</time></trkpt><trkpt lat="43.7699883" lon="12.672645"><ele>150.0</ele><time>2026-03-29T09:33:08.96Z</time></trkpt><trkpt lat="43.770155" lon="12.6727167"><ele>150.0</ele><time>2026-03-29T09:33:09.959Z</time></trkpt><trkpt lat="43.7703217" lon="12.6727933"><ele>150.0</ele><time>2026-03-29T09:33:10.959Z</time></trkpt><trkpt lat="43.770485" lon="12.6728767"><ele>150.0</ele><time>2026-03-29T09:33:11.96Z</time></trkpt><trkpt lat="43.7706467" lon="12.6729483"><ele>150.0</ele><time>2026-03-29T09:33:12.959Z</time></trkpt><trkpt lat="43.7708083" lon="12.6730317"><ele>150.0</ele><time>2026-03-29T09:33:13.96Z</time></trkpt><trkpt lat="43.7709667" lon="12.673115"><ele>150.0</ele><time>2026-03-29T09:33:14.96Z</time></trkpt><trkpt lat="43.7711283" lon="12.673185"><ele>150.0</ele><time>2026-03-29T09:33:15.96Z</time></trkpt><trkpt lat="43.7712967" lon="12.67326"><ele>151.33333333333334</ele><time>2026-03-29T09:33:16.96Z</time></trkpt><trkpt lat="43.7714617" lon="12.673345"><ele>152.66666666666669</ele><time>2026-03-29T09:33:17.96Z</time></trkpt><trkpt lat="43.7716233" lon="12.6734417"><ele>154.0</ele><time>2026-03-29T09:33:18.959Z</time></trkpt><trkpt lat="43.77178" lon="12.6735383"><ele>151.66666666666669</ele><time>2026-03-29T09:33:19.96Z</time></trkpt><trkpt lat="43.77193" lon="12.6736433"><ele>149.33333333333334</ele><time>2026-03-29T09:33:20.96Z</time></trkpt><trkpt lat="43.7720817" lon="12.67376"><ele>147.0</ele><time>2026-03-29T09:33:21.959Z</time></trkpt><trkpt lat="43.7722283" lon="12.6738533"><ele>147.0</ele><time>2026-03-29T09:33:22.959Z</time></trkpt><trkpt lat="43.7723733" lon="12.673955"><ele>147.0</ele><time>2026-03-29T09:33:23.96Z</time></trkpt><trkpt lat="43.7725267" lon="12.67406"><ele>147.0</ele><time>2026-03-29T09:33:24.96Z</time></trkpt><trkpt lat="43.772675" lon="12.6741717"><ele>146.66666666666666</ele><time>2026-03-29T09:33:25.959Z</time></trkpt><trkpt lat="43.7728267" lon="12.6742867"><ele>146.33333333333331</ele><time>2026-03-29T09:33:26.96Z</time></trkpt><trkpt lat="43.7729767" lon="12.674405"><ele>146.0</ele><time>2026-03-29T09:33:27.96Z</time></trkpt><trkpt lat="43.773125" lon="12.6745267"><ele>146.0</ele><time>2026-03-29T09:33:28.96Z</time></trkpt><trkpt lat="43.7732767" lon="12.674655"><ele>146.0</ele><time>2026-03-29T09:33:29.96Z</time></trkpt><trkpt lat="43.773425" lon="12.6747883"><ele>146.0</ele><time>2026-03-29T09:33:30.96Z</time></trkpt><trkpt lat="43.7735667" lon="12.6749283"><ele>146.33333333333331</ele><time>2026-03-29T09:33:31.96Z</time></trkpt><trkpt lat="43.7737067" lon="12.675085"><ele>146.66666666666666</ele><time>2026-03-29T09:33:32.959Z</time></trkpt><trkpt lat="43.7738333" lon="12.6752517"><ele>147.0</ele><time>2026-03-29T09:33:33.96Z</time></trkpt><trkpt lat="43.7739567" lon="12.675435"><ele>146.33333333333334</ele><time>2026-03-29T09:33:34.96Z</time></trkpt><trkpt lat="43.7740733" lon="12.6756183"><ele>145.66666666666669</ele><time>2026-03-29T09:33:35.96Z</time></trkpt><trkpt lat="43.7741883" lon="12.6757983"><ele>145.0</ele><time>2026-03-29T09:33:36.96Z</time></trkpt><trkpt lat="43.7743067" lon="12.67598"><ele>148.0</ele><time>2026-03-29T09:33:37.96Z</time></trkpt><trkpt lat="43.774425" lon="12.6761583"><ele>151.0</ele><time>2026-03-29T09:33:38.96Z</time></trkpt><trkpt lat="43.7745417" lon="12.67633"><ele>154.0</ele><time>2026-03-29T09:33:39.959Z</time></trkpt><trkpt lat="43.77466" lon="12.6765083"><ele>154.0</ele><time>2026-03-29T09:33:40.96Z</time></trkpt><trkpt lat="43.774765" lon="12.6766933"><ele>154.0</ele><time>2026-03-29T09:33:41.959Z</time></trkpt><trkpt lat="43.7748517" lon="12.6769017"><ele>154.0</ele><time>2026-03-29T09:33:42.96Z</time></trkpt><trkpt lat="43.77493" lon="12.6771117"><ele>150.66666666666669</ele><time>2026-03-29T09:33:43.959Z</time></trkpt><trkpt lat="43.774985" lon="12.6773367"><ele>147.33333333333334</ele><time>2026-03-29T09:33:44.96Z</time></trkpt><trkpt lat="43.77504" lon="12.6775367"><ele>144.0</ele><time>2026-03-29T09:33:45.959Z</time></trkpt><trkpt lat="43.775105" lon="12.6777433"><ele>145.0</ele><time>2026-03-29T09:33:46.96Z</time></trkpt><trkpt lat="43.7751817" lon="12.6779417"><ele>146.0</ele><time>2026-03-29T09:33:47.96Z</time></trkpt><trkpt lat="43.77527" lon="12.6781183"><ele>147.0</ele><time>2026-03-29T09:33:48.959Z</time></trkpt><trkpt lat="43.77537" lon="12.6783"><ele>147.0</ele><time>2026-03-29T09:33:49.959Z</time></trkpt><trkpt lat="43.7754833" lon="12.6784733"><ele>147.0</ele><time>2026-03-29T09:33:50.96Z</time></trkpt><trkpt lat="43.775605" lon="12.678645"><ele>147.0</ele><time>2026-03-29T09:33:51.96Z</time></trkpt><trkpt lat="43.775725" lon="12.6788183"><ele>148.0</ele><time>2026-03-29T09:33:52.96Z</time></trkpt><trkpt lat="43.77583" lon="12.6789917"><ele>149.0</ele><time>2026-03-29T09:33:53.959Z</time></trkpt><trkpt lat="43.7759317" lon="12.6791883"><ele>150.0</ele><time>2026-03-29T09:33:54.96Z</time></trkpt><trkpt lat="43.7760317" lon="12.67939"><ele>148.33333333333334</ele><time>2026-03-29T09:33:55.96Z</time></trkpt><trkpt lat="43.7761167" lon="12.6796"><ele>146.66666666666669</ele><time>2026-03-29T09:33:56.959Z</time></trkpt><trkpt lat="43.776175" lon="12.6798067"><ele>145.0</ele><time>2026-03-29T09:33:57.96Z</time></trkpt><trkpt lat="43.7762417" lon="12.6800217"><ele>145.0</ele><time>2026-03-29T09:33:58.959Z</time></trkpt><trkpt lat="43.776305" lon="12.6802383"><ele>145.0</ele><time>2026-03-29T09:33:59.96Z</time></trkpt><trkpt lat="43.776385" lon="12.6804483"><ele>145.0</ele><time>2026-03-29T09:34:00.96Z</time></trkpt><trkpt lat="43.7764583" lon="12.68065"><ele>144.33333333333334</ele><time>2026-03-29T09:34:01.96Z</time></trkpt><trkpt lat="43.7765383" lon="12.6808567"><ele>143.66666666666666</ele><time>2026-03-29T09:34:02.96Z</time></trkpt><trkpt lat="43.77661" lon="12.68106"><ele>143.0</ele><time>2026-03-29T09:34:03.96Z</time></trkpt><trkpt lat="43.7766867" lon="12.6812467"><ele>141.33333333333331</ele><time>2026-03-29T09:34:04.959Z</time></trkpt><trkpt lat="43.7767467" lon="12.6814617"><ele>139.66666666666666</ele><time>2026-03-29T09:34:05.96Z</time></trkpt><trkpt lat="43.7768183" lon="12.68168"><ele>138.0</ele><time>2026-03-29T09:34:06.959Z</time></trkpt><trkpt lat="43.7768767" lon="12.681895"><ele>143.33333333333334</ele><time>2026-03-29T09:34:07.959Z</time></trkpt><trkpt lat="43.77693" lon="12.6821133"><ele>148.66666666666669</ele><time>2026-03-29T09:34:08.96Z</time></trkpt><trkpt lat="43.776975" lon="12.6823483"><ele>154.0</ele><time>2026-03-29T09:34:09.96Z</time></trkpt><trkpt lat="43.7770067" lon="12.682585"><ele>153.0</ele><time>2026-03-29T09:34:10.959Z</time></trkpt><trkpt lat="43.7770183" lon="12.68282"><ele>152.0</ele><time>2026-03-29T09:34:11.96Z</time></trkpt><trkpt lat="43.77701" lon="12.6830567"><ele>151.0</ele><time>2026-03-29T09:34:12.96Z</time></trkpt><trkpt lat="43.7769983" lon="12.6832933"><ele>151.0</ele><time>2026-03-29T09:34:13.96Z</time></trkpt><trkpt lat="43.77698" lon="12.6835217"><ele>151.0</ele><time>2026-03-29T09:34:14.96Z</time></trkpt><trkpt lat="43.7769583" lon="12.683735"><ele>151.0</ele><time>2026-03-29T09:34:15.96Z</time></trkpt><trkpt lat="43.776945" lon="12.683965"><ele>149.25</ele><time>2026-03-29T09:34:16.959Z</time></trkpt><trkpt lat="43.7769333" lon="12.68419"><ele>147.5</ele><time>2026-03-29T09:34:17.96Z</time></trkpt><trkpt lat="43.7769383" lon="12.6843883"><ele>145.75</ele><time>2026-03-29T09:34:18.96Z</time></trkpt><trkpt lat="43.7769567" lon="12.684565"><ele>144.0</ele><time>2026-03-29T09:34:19.959Z</time></trkpt><trkpt lat="43.7770083" lon="12.68473"><ele>141.25</ele><time>2026-03-29T09:34:20.96Z</time></trkpt><trkpt lat="43.7770817" lon="12.6849017"><ele>138.5</ele><time>2026-03-29T09:34:21.96Z</time></trkpt><trkpt lat="43.7771683" lon="12.6850567"><ele>135.75</ele><time>2026-03-29T09:34:22.96Z</time></trkpt><trkpt lat="43.7772733" lon="12.6851983"><ele>133.0</ele><time>2026-03-29T09:34:23.96Z</time></trkpt><trkpt lat="43.777415" lon="12.68532"><ele>132.33333333333334</ele><time>2026-03-29T09:34:24.96Z</time></trkpt><trkpt lat="43.7775467" lon="12.685425"><ele>131.66666666666666</ele><time>2026-03-29T09:34:25.96Z</time></trkpt><trkpt lat="43.7776767" lon="12.6855317"><ele>131.0</ele><time>2026-03-29T09:34:26.959Z</time></trkpt><trkpt lat="43.7778067" lon="12.6856433"><ele>131.0</ele><time>2026-03-29T09:34:27.96Z</time></trkpt><trkpt lat="43.7779433" lon="12.6857517"><ele>131.0</ele><time>2026-03-29T09:34:28.959Z</time></trkpt><trkpt lat="43.77808" lon="12.68586"><ele>131.0</ele><time>2026-03-29T09:34:29.96Z</time></trkpt><trkpt lat="43.7782217" lon="12.6859733"><ele>130.66666666666666</ele><time>2026-03-29T09:34:30.96Z</time></trkpt><trkpt lat="43.77837" lon="12.6860967"><ele>130.33333333333334</ele><time>2026-03-29T09:34:31.959Z</time></trkpt><trkpt lat="43.77852" lon="12.6862167"><ele>130.0</ele><time>2026-03-29T09:34:32.96Z</time></trkpt><trkpt lat="43.7786717" lon="12.6863433"><ele>130.0</ele><time>2026-03-29T09:34:33.96Z</time></trkpt><trkpt lat="43.77883" lon="12.68647"><ele>130.0</ele><time>2026-03-29T09:34:34.96Z</time></trkpt><trkpt lat="43.7789867" lon="12.68659"><ele>130.0</ele><time>2026-03-29T09:34:35.96Z</time></trkpt><trkpt lat="43.7791433" lon="12.6866983"><ele>130.0</ele><time>2026-03-29T09:34:36.96Z</time></trkpt><trkpt lat="43.77931" lon="12.6868"><ele>130.0</ele><time>2026-03-29T09:34:37.959Z</time></trkpt><trkpt lat="43.77947" lon="12.686905"><ele>130.0</ele><time>2026-03-29T09:34:38.96Z</time></trkpt><trkpt lat="43.7796233" lon="12.6870017"><ele>129.66666666666669</ele><time>2026-03-29T09:34:39.96Z</time></trkpt><trkpt lat="43.7797867" lon="12.6871083"><ele>129.33333333333334</ele><time>2026-03-29T09:34:40.96Z</time></trkpt><trkpt lat="43.7799467" lon="12.687205"><ele>129.0</ele><time>2026-03-29T09:34:41.96Z</time></trkpt><trkpt lat="43.7801067" lon="12.687305"><ele>129.33333333333334</ele><time>2026-03-29T09:34:42.96Z</time></trkpt><trkpt lat="43.7802633" lon="12.687415"><ele>129.66666666666669</ele><time>2026-03-29T09:34:43.959Z</time></trkpt><trkpt lat="43.7804183" lon="12.6875317"><ele>130.0</ele><time>2026-03-29T09:34:44.959Z</time></trkpt><trkpt lat="43.7805617" lon="12.68766"><ele>129.33333333333334</ele><time>2026-03-29T09:34:45.96Z</time></trkpt><trkpt lat="43.7806983" lon="12.6878033"><ele>128.66666666666666</ele><time>2026-03-29T09:34:46.96Z</time></trkpt><trkpt lat="43.7808267" lon="12.6879633"><ele>128.0</ele><time>2026-03-29T09:34:47.96Z</time></trkpt><trkpt lat="43.7809433" lon="12.6881467"><ele>128.66666666666666</ele><time>2026-03-29T09:34:48.96Z</time></trkpt><trkpt lat="43.7810483" lon="12.6883333"><ele>129.33333333333334</ele><time>2026-03-29T09:34:49.96Z</time></trkpt><trkpt lat="43.7811433" lon="12.6885233"><ele>130.0</ele><time>2026-03-29T09:34:50.96Z</time></trkpt><trkpt lat="43.781235" lon="12.68871"><ele>130.0</ele><time>2026-03-29T09:34:51.959Z</time></trkpt><trkpt lat="43.781325" lon="12.6888933"><ele>130.0</ele><time>2026-03-29T09:34:52.96Z</time></trkpt><trkpt lat="43.7814117" lon="12.6890717"><ele>130.0</ele><time>2026-03-29T09:34:53.959Z</time></trkpt><trkpt lat="43.7814967" lon="12.6892533"><ele>128.66666666666669</ele><time>2026-03-29T09:34:54.959Z</time></trkpt><trkpt lat="43.7815733" lon="12.6894483"><ele>127.33333333333334</ele><time>2026-03-29T09:34:55.96Z</time></trkpt><trkpt lat="43.781635" lon="12.68967"><ele>126.0</ele><time>2026-03-29T09:34:56.96Z</time></trkpt><trkpt lat="43.781685" lon="12.6898933"><ele>126.0</ele><time>2026-03-29T09:34:57.96Z</time></trkpt><trkpt lat="43.78174" lon="12.6901133"><ele>126.0</ele><time>2026-03-29T09:34:58.959Z</time></trkpt><trkpt lat="43.7817917" lon="12.6903433"><ele>126.0</ele><time>2026-03-29T09:34:59.96Z</time></trkpt><trkpt lat="43.7818467" lon="12.69055"><ele>129.66666666666666</ele><time>2026-03-29T09:35:00.96Z</time></trkpt><trkpt lat="43.7819017" lon="12.6907733"><ele>133.33333333333331</ele><time>2026-03-29T09:35:01.96Z</time></trkpt><trkpt lat="43.781955" lon="12.6909967"><ele>137.0</ele><time>2026-03-29T09:35:02.96Z</time></trkpt><trkpt lat="43.7820017" lon="12.6912267"><ele>137.0</ele><time>2026-03-29T09:35:03.959Z</time></trkpt><trkpt lat="43.782035" lon="12.6914583"><ele>137.0</ele><time>2026-03-29T09:35:04.959Z</time></trkpt><trkpt lat="43.7820617" lon="12.6917017"><ele>137.0</ele><time>2026-03-29T09:35:05.959Z</time></trkpt><trkpt lat="43.7820683" lon="12.691955"><ele>135.33333333333331</ele><time>2026-03-29T09:35:06.959Z</time></trkpt><trkpt lat="43.78207" lon="12.6921883"><ele>133.66666666666666</ele><time>2026-03-29T09:35:07.96Z</time></trkpt><trkpt lat="43.782065" lon="12.692425"><ele>132.0</ele><time>2026-03-29T09:35:08.96Z</time></trkpt><trkpt lat="43.7820433" lon="12.6926617"><ele>132.0</ele><time>2026-03-29T09:35:09.96Z</time></trkpt><trkpt lat="43.7820217" lon="12.692895"><ele>132.0</ele><time>2026-03-29T09:35:10.959Z</time></trkpt><trkpt lat="43.7819933" lon="12.6931317"><ele>132.0</ele><time>2026-03-29T09:35:11.959Z</time></trkpt><trkpt lat="43.7819467" lon="12.6933733"><ele>132.66666666666666</ele><time>2026-03-29T09:35:12.959Z</time></trkpt><trkpt lat="43.7819017" lon="12.69361"><ele>133.33333333333331</ele><time>2026-03-29T09:35:13.96Z</time></trkpt><trkpt lat="43.781855" lon="12.6938367"><ele>134.0</ele><time>2026-03-29T09:35:14.96Z</time></trkpt><trkpt lat="43.781805" lon="12.6940617"><ele>131.66666666666666</ele><time>2026-03-29T09:35:15.96Z</time></trkpt><trkpt lat="43.78176" lon="12.6942833"><ele>129.33333333333334</ele><time>2026-03-29T09:35:16.959Z</time></trkpt><trkpt lat="43.781715" lon="12.6945133"><ele>127.0</ele><time>2026-03-29T09:35:17.96Z</time></trkpt><trkpt lat="43.78167" lon="12.6947517"><ele>127.0</ele><time>2026-03-29T09:35:18.96Z</time></trkpt><trkpt lat="43.781625" lon="12.6949917"><ele>127.0</ele><time>2026-03-29T09:35:19.96Z</time></trkpt><trkpt lat="43.7815783" lon="12.6952333"><ele>127.0</ele><time>2026-03-29T09:35:20.96Z</time></trkpt><trkpt lat="43.78153" lon="12.6954767"><ele>126.0</ele><time>2026-03-29T09:35:21.96Z</time></trkpt><trkpt lat="43.7814833" lon="12.6957167"><ele>125.0</ele><time>2026-03-29T09:35:22.96Z</time></trkpt><trkpt lat="43.78144" lon="12.695955"><ele>124.0</ele><time>2026-03-29T09:35:23.96Z</time></trkpt><trkpt lat="43.781395" lon="12.696195"><ele>124.0</ele><time>2026-03-29T09:35:24.96Z</time></trkpt><trkpt lat="43.781345" lon="12.6964367"><ele>124.0</ele><time>2026-03-29T09:35:25.959Z</time></trkpt><trkpt lat="43.7812933" lon="12.6966767"><ele>124.0</ele><time>2026-03-29T09:35:26.959Z</time></trkpt><trkpt lat="43.7812417" lon="12.69692"><ele>124.0</ele><time>2026-03-29T09:35:27.96Z</time></trkpt><trkpt lat="43.7811933" lon="12.697165"><ele>124.0</ele><time>2026-03-29T09:35:28.96Z</time></trkpt><trkpt lat="43.7811467" lon="12.697415"><ele>124.0</ele><time>2026-03-29T09:35:29.96Z</time></trkpt><trkpt lat="43.7811" lon="12.697665"><ele>123.33333333333334</ele><time>2026-03-29T09:35:30.96Z</time></trkpt><trkpt lat="43.7810517" lon="12.697915"><ele>122.66666666666666</ele><time>2026-03-29T09:35:31.959Z</time></trkpt><trkpt lat="43.7809967" lon="12.6981667"><ele>122.0</ele><time>2026-03-29T09:35:32.96Z</time></trkpt><trkpt lat="43.780945" lon="12.6984133"><ele>122.33333333333333</ele><time>2026-03-29T09:35:33.959Z</time></trkpt><trkpt lat="43.780895" lon="12.6986533"><ele>122.66666666666666</ele><time>2026-03-29T09:35:34.96Z</time></trkpt><trkpt lat="43.7808467" lon="12.6988883"><ele>123.0</ele><time>2026-03-29T09:35:35.96Z</time></trkpt><trkpt lat="43.7808017" lon="12.69913"><ele>123.0</ele><time>2026-03-29T09:35:36.96Z</time></trkpt><trkpt lat="43.78076" lon="12.699375"><ele>123.0</ele><time>2026-03-29T09:35:37.959Z</time></trkpt><trkpt lat="43.7807133" lon="12.6996067"><ele>123.0</ele><time>2026-03-29T09:35:38.96Z</time></trkpt><trkpt lat="43.78067" lon="12.699845"><ele>122.66666666666666</ele><time>2026-03-29T09:35:39.96Z</time></trkpt><trkpt lat="43.7806167" lon="12.7001033"><ele>122.33333333333333</ele><time>2026-03-29T09:35:40.96Z</time></trkpt><trkpt lat="43.78057" lon="12.700355"><ele>122.0</ele><time>2026-03-29T09:35:41.959Z</time></trkpt><trkpt lat="43.7805317" lon="12.7006083"><ele>122.0</ele><time>2026-03-29T09:35:42.96Z</time></trkpt><trkpt lat="43.7805017" lon="12.7008533"><ele>122.0</ele><time>2026-03-29T09:35:43.96Z</time></trkpt><trkpt lat="43.7804867" lon="12.7011017"><ele>122.0</ele><time>2026-03-29T09:35:44.959Z</time></trkpt><trkpt lat="43.7804767" lon="12.70136"><ele>121.66666666666666</ele><time>2026-03-29T09:35:45.959Z</time></trkpt><trkpt lat="43.7804767" lon="12.7016117"><ele>121.33333333333334</ele><time>2026-03-29T09:35:46.96Z</time></trkpt><trkpt lat="43.7804883" lon="12.7018567"><ele>121.0</ele><time>2026-03-29T09:35:47.96Z</time></trkpt><trkpt lat="43.780515" lon="12.702085"><ele>121.0</ele><time>2026-03-29T09:35:48.959Z</time></trkpt><trkpt lat="43.7805383" lon="12.702325"><ele>121.0</ele><time>2026-03-29T09:35:49.96Z</time></trkpt><trkpt lat="43.7805767" lon="12.7025567"><ele>121.0</ele><time>2026-03-29T09:35:50.96Z</time></trkpt><trkpt lat="43.780625" lon="12.702805"><ele>120.66666666666667</ele><time>2026-03-29T09:35:51.96Z</time></trkpt><trkpt lat="43.7806717" lon="12.70304"><ele>120.33333333333334</ele><time>2026-03-29T09:35:52.959Z</time></trkpt><trkpt lat="43.78072" lon="12.7032783"><ele>120.0</ele><time>2026-03-29T09:35:53.96Z</time></trkpt><trkpt lat="43.7807717" lon="12.7035167"><ele>119.0</ele><time>2026-03-29T09:35:54.96Z</time></trkpt><trkpt lat="43.7808167" lon="12.7037467"><ele>118.0</ele><time>2026-03-29T09:35:55.96Z</time></trkpt><trkpt lat="43.7808483" lon="12.70398"><ele>117.0</ele><time>2026-03-29T09:35:56.96Z</time></trkpt><trkpt lat="43.78087" lon="12.7042133"><ele>116.0</ele><time>2026-03-29T09:35:57.959Z</time></trkpt><trkpt lat="43.78088" lon="12.7044483"><ele>115.0</ele><time>2026-03-29T09:35:58.96Z</time></trkpt><trkpt lat="43.7808783" lon="12.7046833"><ele>114.0</ele><time>2026-03-29T09:35:59.959Z</time></trkpt><trkpt lat="43.7808683" lon="12.7049167"><ele>114.0</ele><time>2026-03-29T09:36:00.96Z</time></trkpt><trkpt lat="43.7808467" lon="12.7051383"><ele>114.0</ele><time>2026-03-29T09:36:01.959Z</time></trkpt><trkpt lat="43.7808117" lon="12.7053667"><ele>114.0</ele><time>2026-03-29T09:36:02.959Z</time></trkpt><trkpt lat="43.7807667" lon="12.7056"><ele>113.66666666666666</ele><time>2026-03-29T09:36:03.96Z</time></trkpt><trkpt lat="43.78072" lon="12.7058267"><ele>113.33333333333333</ele><time>2026-03-29T09:36:04.96Z</time></trkpt><trkpt lat="43.78068" lon="12.7060533"><ele>113.0</ele><time>2026-03-29T09:36:05.96Z</time></trkpt><trkpt lat="43.7806483" lon="12.7062817"><ele>113.0</ele><time>2026-03-29T09:36:06.96Z</time></trkpt><trkpt lat="43.7806283" lon="12.706515"><ele>113.0</ele><time>2026-03-29T09:36:07.96Z</time></trkpt><trkpt lat="43.7806167" lon="12.7067483"><ele>113.0</ele><time>2026-03-29T09:36:08.96Z</time></trkpt><trkpt lat="43.780615" lon="12.7069833"><ele>113.0</ele><time>2026-03-29T09:36:09.96Z</time></trkpt><trkpt lat="43.7806183" lon="12.70722"><ele>113.0</ele><time>2026-03-29T09:36:10.959Z</time></trkpt><trkpt lat="43.7806283" lon="12.7074567"><ele>113.0</ele><time>2026-03-29T09:36:11.96Z</time></trkpt><trkpt lat="43.7806367" lon="12.7077"><ele>113.66666666666666</ele><time>2026-03-29T09:36:12.96Z</time></trkpt><trkpt lat="43.7806517" lon="12.707945"><ele>114.33333333333334</ele><time>2026-03-29T09:36:13.959Z</time></trkpt><trkpt lat="43.7806717" lon="12.7081883"><ele>115.0</ele><time>2026-03-29T09:36:14.96Z</time></trkpt><trkpt lat="43.780695" lon="12.7084317"><ele>116.66666666666667</ele><time>2026-03-29T09:36:15.96Z</time></trkpt><trkpt lat="43.7807133" lon="12.7086767"><ele>118.33333333333334</ele><time>2026-03-29T09:36:16.96Z</time></trkpt><trkpt lat="43.7807383" lon="12.7089067"><ele>120.0</ele><time>2026-03-29T09:36:17.96Z</time></trkpt><trkpt lat="43.7807733" lon="12.709145"><ele>120.0</ele><time>2026-03-29T09:36:18.959Z</time></trkpt><trkpt lat="43.7808133" lon="12.7093683"><ele>120.0</ele><time>2026-03-29T09:36:19.959Z</time></trkpt><trkpt lat="43.780875" lon="12.7096067"><ele>120.0</ele><time>2026-03-29T09:36:20.96Z</time></trkpt><trkpt lat="43.78095" lon="12.70984"><ele>119.0</ele><time>2026-03-29T09:36:21.96Z</time></trkpt><trkpt lat="43.7810433" lon="12.7100533"><ele>118.0</ele><time>2026-03-29T09:36:22.959Z</time></trkpt><trkpt lat="43.78114" lon="12.7102733"><ele>117.0</ele><time>2026-03-29T09:36:23.96Z</time></trkpt><trkpt lat="43.7812417" lon="12.7104883"><ele>117.0</ele><time>2026-03-29T09:36:24.96Z</time></trkpt><trkpt lat="43.7813467" lon="12.710695"><ele>117.0</ele><time>2026-03-29T09:36:25.96Z</time></trkpt><trkpt lat="43.7814567" lon="12.7108967"><ele>117.0</ele><time>2026-03-29T09:36:26.959Z</time></trkpt><trkpt lat="43.781565" lon="12.711095"><ele>117.0</ele><time>2026-03-29T09:36:27.96Z</time></trkpt><trkpt lat="43.7816667" lon="12.71129"><ele>117.0</ele><time>2026-03-29T09:36:28.959Z</time></trkpt><trkpt lat="43.781765" lon="12.7114883"><ele>117.0</ele><time>2026-03-29T09:36:29.959Z</time></trkpt><trkpt lat="43.781855" lon="12.7116883"><ele>117.0</ele><time>2026-03-29T09:36:30.96Z</time></trkpt><trkpt lat="43.7819367" lon="12.7118917"><ele>117.0</ele><time>2026-03-29T09:36:31.96Z</time></trkpt><trkpt lat="43.7820033" lon="12.7121017"><ele>117.0</ele><time>2026-03-29T09:36:32.96Z</time></trkpt><trkpt lat="43.78206" lon="12.7123217"><ele>120.33333333333334</ele><time>2026-03-29T09:36:33.96Z</time></trkpt><trkpt lat="43.7821" lon="12.71255"><ele>123.66666666666667</ele><time>2026-03-29T09:36:34.959Z</time></trkpt><trkpt lat="43.7821333" lon="12.7127817"><ele>127.0</ele><time>2026-03-29T09:36:35.96Z</time></trkpt><trkpt lat="43.78216" lon="12.7130183"><ele>127.33333333333334</ele><time>2026-03-29T09:36:36.96Z</time></trkpt><trkpt lat="43.7821733" lon="12.7132617"><ele>127.66666666666666</ele><time>2026-03-29T09:36:37.959Z</time></trkpt><trkpt lat="43.7821783" lon="12.71351"><ele>128.0</ele><time>2026-03-29T09:36:38.96Z</time></trkpt><trkpt lat="43.7821783" lon="12.71376"><ele>128.0</ele><time>2026-03-29T09:36:39.96Z</time></trkpt><trkpt lat="43.782175" lon="12.7140117"><ele>128.0</ele><time>2026-03-29T09:36:40.959Z</time></trkpt><trkpt lat="43.7821733" lon="12.7142633"><ele>128.0</ele><time>2026-03-29T09:36:41.96Z</time></trkpt><trkpt lat="43.78218" lon="12.7145117"><ele>127.33333333333333</ele><time>2026-03-29T09:36:42.959Z</time></trkpt><trkpt lat="43.7821883" lon="12.7147633"><ele>126.66666666666666</ele><time>2026-03-29T09:36:43.96Z</time></trkpt><trkpt lat="43.782205" lon="12.7150017"><ele>126.0</ele><time>2026-03-29T09:36:44.96Z</time></trkpt><trkpt lat="43.782235" lon="12.7152283"><ele>124.0</ele><time>2026-03-29T09:36:45.96Z</time></trkpt><trkpt lat="43.7822767" lon="12.7154467"><ele>122.0</ele><time>2026-03-29T09:36:46.96Z</time></trkpt><trkpt lat="43.7823317" lon="12.7156567"><ele>120.0</ele><time>2026-03-29T09:36:47.96Z</time></trkpt><trkpt lat="43.7824" lon="12.7158683"><ele>117.66666666666666</ele><time>2026-03-29T09:36:48.959Z</time></trkpt><trkpt lat="43.7824817" lon="12.7160817"><ele>115.33333333333333</ele><time>2026-03-29T09:36:49.96Z</time></trkpt><trkpt lat="43.7825817" lon="12.7162917"><ele>113.0</ele><time>2026-03-29T09:36:50.959Z</time></trkpt><trkpt lat="43.782695" lon="12.7164983"><ele>110.66666666666666</ele><time>2026-03-29T09:36:51.96Z</time></trkpt><trkpt lat="43.7828217" lon="12.716705"><ele>108.33333333333334</ele><time>2026-03-29T09:36:52.96Z</time></trkpt><trkpt lat="43.78296" lon="12.7169217"><ele>106.0</ele><time>2026-03-29T09:36:53.959Z</time></trkpt><trkpt lat="43.7830983" lon="12.7171333"><ele>106.0</ele><time>2026-03-29T09:36:54.96Z</time></trkpt><trkpt lat="43.7832417" lon="12.7173533"><ele>106.0</ele><time>2026-03-29T09:36:55.96Z</time></trkpt><trkpt lat="43.7833967" lon="12.7175633"><ele>106.0</ele><time>2026-03-29T09:36:56.959Z</time></trkpt><trkpt lat="43.7835417" lon="12.71779"><ele>106.0</ele><time>2026-03-29T09:36:57.959Z</time></trkpt><trkpt lat="43.7836817" lon="12.71801"><ele>106.0</ele><time>2026-03-29T09:36:58.96Z</time></trkpt><trkpt lat="43.7838217" lon="12.7182217"><ele>106.0</ele><time>2026-03-29T09:36:59.96Z</time></trkpt><trkpt lat="43.7839583" lon="12.7184233"><ele>106.33333333333334</ele><time>2026-03-29T09:37:00.96Z</time></trkpt><trkpt lat="43.7841" lon="12.71861"><ele>106.66666666666666</ele><time>2026-03-29T09:37:01.96Z</time></trkpt><trkpt lat="43.7842517" lon="12.71878"><ele>107.0</ele><time>2026-03-29T09:37:02.959Z</time></trkpt><trkpt lat="43.784415" lon="12.7189233"><ele>107.0</ele><time>2026-03-29T09:37:03.959Z</time></trkpt><trkpt lat="43.7845817" lon="12.7190333"><ele>107.0</ele><time>2026-03-29T09:37:04.959Z</time></trkpt><trkpt lat="43.7847617" lon="12.7190867"><ele>107.0</ele><time>2026-03-29T09:37:05.96Z</time></trkpt><trkpt lat="43.7849383" lon="12.7191633"><ele>107.0</ele><time>2026-03-29T09:37:06.96Z</time></trkpt><trkpt lat="43.7851167" lon="12.7192417"><ele>107.0</ele><time>2026-03-29T09:37:07.96Z</time></trkpt><trkpt lat="43.7852933" lon="12.7193433"><ele>107.0</ele><time>2026-03-29T09:37:08.96Z</time></trkpt><trkpt lat="43.7854583" lon="12.71946"><ele>106.33333333333333</ele><time>2026-03-29T09:37:09.96Z</time></trkpt><trkpt lat="43.7856167" lon="12.719605"><ele>105.66666666666666</ele><time>2026-03-29T09:37:10.959Z</time></trkpt><trkpt lat="43.7857633" lon="12.71977"><ele>105.0</ele><time>2026-03-29T09:37:11.96Z</time></trkpt><trkpt lat="43.7859067" lon="12.7199467"><ele>104.66666666666666</ele><time>2026-03-29T09:37:12.96Z</time></trkpt><trkpt lat="43.786045" lon="12.7201367"><ele>104.33333333333333</ele><time>2026-03-29T09:37:13.96Z</time></trkpt><trkpt lat="43.7861817" lon="12.7203267"><ele>104.0</ele><time>2026-03-29T09:37:14.96Z</time></trkpt><trkpt lat="43.7863283" lon="12.720515"><ele>104.66666666666666</ele><time>2026-03-29T09:37:15.96Z</time></trkpt><trkpt lat="43.786475" lon="12.7207033"><ele>105.33333333333334</ele><time>2026-03-29T09:37:16.96Z</time></trkpt><trkpt lat="43.786625" lon="12.7208867"><ele>106.0</ele><time>2026-03-29T09:37:17.959Z</time></trkpt><trkpt lat="43.7867767" lon="12.721065"><ele>105.0</ele><time>2026-03-29T09:37:18.96Z</time></trkpt><trkpt lat="43.7869283" lon="12.7212367"><ele>104.0</ele><time>2026-03-29T09:37:19.959Z</time></trkpt><trkpt lat="43.7870833" lon="12.7214083"><ele>103.0</ele><time>2026-03-29T09:37:20.959Z</time></trkpt><trkpt lat="43.7872383" lon="12.7215767"><ele>103.0</ele><time>2026-03-29T09:37:21.959Z</time></trkpt><trkpt lat="43.7873883" lon="12.7217467"><ele>103.0</ele><time>2026-03-29T09:37:22.96Z</time></trkpt><trkpt lat="43.7875417" lon="12.7219183"><ele>103.0</ele><time>2026-03-29T09:37:23.96Z</time></trkpt><trkpt lat="43.787695" lon="12.7220967"><ele>102.33333333333334</ele><time>2026-03-29T09:37:24.96Z</time></trkpt><trkpt lat="43.7878467" lon="12.7222717"><ele>101.66666666666666</ele><time>2026-03-29T09:37:25.959Z</time></trkpt><trkpt lat="43.7879967" lon="12.7224467"><ele>101.0</ele><time>2026-03-29T09:37:26.959Z</time></trkpt><trkpt lat="43.7881483" lon="12.7226217"><ele>100.0</ele><time>2026-03-29T09:37:27.96Z</time></trkpt><trkpt lat="43.7882983" lon="12.7227983"><ele>99.0</ele><time>2026-03-29T09:37:28.959Z</time></trkpt><trkpt lat="43.7884483" lon="12.7229733"><ele>98.0</ele><time>2026-03-29T09:37:29.96Z</time></trkpt><trkpt lat="43.7885933" lon="12.7231367"><ele>98.0</ele><time>2026-03-29T09:37:30.96Z</time></trkpt><trkpt lat="43.788725" lon="12.7232833"><ele>98.0</ele><time>2026-03-29T09:37:31.959Z</time></trkpt><trkpt lat="43.78885" lon="12.72342"><ele>98.0</ele><time>2026-03-29T09:37:32.959Z</time></trkpt><trkpt lat="43.78897" lon="12.7235483"><ele>98.0</ele><time>2026-03-29T09:37:33.959Z</time></trkpt><trkpt lat="43.7890867" lon="12.72367"><ele>98.0</ele><time>2026-03-29T09:37:34.959Z</time></trkpt><trkpt lat="43.789205" lon="12.7237867"><ele>98.0</ele><time>2026-03-29T09:37:35.96Z</time></trkpt><trkpt lat="43.789325" lon="12.7239"><ele>98.0</ele><time>2026-03-29T09:37:36.959Z</time></trkpt><trkpt lat="43.78945" lon="12.724005"><ele>98.0</ele><time>2026-03-29T09:37:37.96Z</time></trkpt><trkpt lat="43.789585" lon="12.7240967"><ele>98.0</ele><time>2026-03-29T09:37:38.96Z</time></trkpt><trkpt lat="43.7897283" lon="12.7241817"><ele>98.0</ele><time>2026-03-29T09:37:39.96Z</time></trkpt><trkpt lat="43.7898767" lon="12.7242517"><ele>98.0</ele><time>2026-03-29T09:37:40.96Z</time></trkpt><trkpt lat="43.7900283" lon="12.7243117"><ele>98.0</ele><time>2026-03-29T09:37:41.959Z</time></trkpt><trkpt lat="43.7901817" lon="12.7243583"><ele>98.0</ele><time>2026-03-29T09:37:42.96Z</time></trkpt><trkpt lat="43.7903333" lon="12.7243883"><ele>102.0</ele><time>2026-03-29T09:37:43.959Z</time></trkpt><trkpt lat="43.790485" lon="12.72441"><ele>106.0</ele><time>2026-03-29T09:37:44.96Z</time></trkpt><trkpt lat="43.79064" lon="12.7244117"><ele>110.0</ele><time>2026-03-29T09:37:45.96Z</time></trkpt><trkpt lat="43.7908" lon="12.7243967"><ele>108.33333333333333</ele><time>2026-03-29T09:37:46.96Z</time></trkpt><trkpt lat="43.7909783" lon="12.7243783"><ele>106.66666666666666</ele><time>2026-03-29T09:37:47.96Z</time></trkpt><trkpt lat="43.7911467" lon="12.7243483"><ele>105.0</ele><time>2026-03-29T09:37:48.96Z</time></trkpt><trkpt lat="43.7913167" lon="12.7242983"><ele>105.0</ele><time>2026-03-29T09:37:49.96Z</time></trkpt><trkpt lat="43.7914933" lon="12.7242433"><ele>105.0</ele><time>2026-03-29T09:37:50.96Z</time></trkpt><trkpt lat="43.7916733" lon="12.7241817"><ele>105.0</ele><time>2026-03-29T09:37:51.96Z</time></trkpt><trkpt lat="43.7918567" lon="12.7241183"><ele>105.66666666666666</ele><time>2026-03-29T09:37:52.96Z</time></trkpt><trkpt lat="43.792045" lon="12.7240517"><ele>106.33333333333333</ele><time>2026-03-29T09:37:53.96Z</time></trkpt><trkpt lat="43.79224" lon="12.723985"><ele>107.0</ele><time>2026-03-29T09:37:54.96Z</time></trkpt><trkpt lat="43.7924333" lon="12.7239117"><ele>107.0</ele><time>2026-03-29T09:37:55.959Z</time></trkpt><trkpt lat="43.7926267" lon="12.72384"><ele>107.0</ele><time>2026-03-29T09:37:56.96Z</time></trkpt><trkpt lat="43.79282" lon="12.7237683"><ele>107.0</ele><time>2026-03-29T09:37:57.96Z</time></trkpt><trkpt lat="43.7930117" lon="12.7236967"><ele>107.33333333333333</ele><time>2026-03-29T09:37:58.959Z</time></trkpt><trkpt lat="43.7932017" lon="12.7236217"><ele>107.66666666666666</ele><time>2026-03-29T09:37:59.959Z</time></trkpt><trkpt lat="43.79339" lon="12.7235483"><ele>108.0</ele><time>2026-03-29T09:38:00.96Z</time></trkpt><trkpt lat="43.7935717" lon="12.72348"><ele>104.33333333333334</ele><time>2026-03-29T09:38:01.959Z</time></trkpt><trkpt lat="43.79375" lon="12.723415"><ele>100.66666666666667</ele><time>2026-03-29T09:38:02.959Z</time></trkpt><trkpt lat="43.7939233" lon="12.72335"><ele>97.0</ele><time>2026-03-29T09:38:03.959Z</time></trkpt><trkpt lat="43.7940867" lon="12.72329"><ele>97.0</ele><time>2026-03-29T09:38:04.96Z</time></trkpt><trkpt lat="43.7942483" lon="12.7232333"><ele>97.0</ele><time>2026-03-29T09:38:05.959Z</time></trkpt><trkpt lat="43.7944133" lon="12.7231767"><ele>97.0</ele><time>2026-03-29T09:38:06.959Z</time></trkpt><trkpt lat="43.794575" lon="12.72312"><ele>95.66666666666667</ele><time>2026-03-29T09:38:07.96Z</time></trkpt><trkpt lat="43.7947317" lon="12.7230683"><ele>94.33333333333334</ele><time>2026-03-29T09:38:08.96Z</time></trkpt><trkpt lat="43.7948867" lon="12.72301"><ele>93.0</ele><time>2026-03-29T09:38:09.959Z</time></trkpt><trkpt lat="43.7950417" lon="12.7229533"><ele>93.66666666666667</ele><time>2026-03-29T09:38:10.959Z</time></trkpt><trkpt lat="43.7951917" lon="12.7229033"><ele>94.33333333333334</ele><time>2026-03-29T09:38:11.96Z</time></trkpt><trkpt lat="43.7953383" lon="12.722855"><ele>95.0</ele><time>2026-03-29T09:38:12.96Z</time></trkpt><trkpt lat="43.795505" lon="12.7228067"><ele>95.0</ele><time>2026-03-29T09:38:13.96Z</time></trkpt><trkpt lat="43.79565" lon="12.7227767"><ele>95.0</ele><time>2026-03-29T09:38:14.96Z</time></trkpt><trkpt lat="43.79579" lon="12.7227517"><ele>95.0</ele><time>2026-03-29T09:38:15.96Z</time></trkpt><trkpt lat="43.795915" lon="12.7227333"><ele>95.0</ele><time>2026-03-29T09:38:16.96Z</time></trkpt><trkpt lat="43.7960283" lon="12.7227183"><ele>96.83333333333334</ele><time>2026-03-29T09:38:17.96Z</time></trkpt><trkpt lat="43.796125" lon="12.7227067"><ele>98.66666666666667</ele><time>2026-03-29T09:38:18.96Z</time></trkpt><trkpt lat="43.7962117" lon="12.7226833"><ele>100.5</ele><time>2026-03-29T09:38:19.96Z</time></trkpt><trkpt lat="43.7962867" lon="12.7226633"><ele>102.33333333333334</ele><time>2026-03-29T09:38:20.96Z</time></trkpt><trkpt lat="43.7963717" lon="12.7226567"><ele>104.16666666666667</ele><time>2026-03-29T09:38:21.959Z</time></trkpt><trkpt lat="43.7964633" lon="12.7226633"><ele>106.0</ele><time>2026-03-29T09:38:22.96Z</time></trkpt><trkpt lat="43.7965667" lon="12.7226717"><ele>106.0</ele><time>2026-03-29T09:38:23.96Z</time></trkpt><trkpt lat="43.7966933" lon="12.7226833"><ele>106.0</ele><time>2026-03-29T09:38:24.959Z</time></trkpt><trkpt lat="43.7968567" lon="12.7227117"><ele>106.0</ele><time>2026-03-29T09:38:25.96Z</time></trkpt><trkpt lat="43.7970567" lon="12.7227467"><ele>102.0</ele><time>2026-03-29T09:38:26.959Z</time></trkpt><trkpt lat="43.79728" lon="12.7227783"><ele>98.0</ele><time>2026-03-29T09:38:27.96Z</time></trkpt><trkpt lat="43.79752" lon="12.7228117"><ele>97.5</ele><time>2026-03-29T09:38:28.96Z</time></trkpt><trkpt lat="43.797775" lon="12.7228417"><ele>97.0</ele><time>2026-03-29T09:38:29.96Z</time></trkpt><trkpt lat="43.7980317" lon="12.722875"><ele>97.0</ele><time>2026-03-29T09:38:30.959Z</time></trkpt><trkpt lat="43.7982867" lon="12.72291"><ele>97.0</ele><time>2026-03-29T09:38:31.96Z</time></trkpt><trkpt lat="43.7985467" lon="12.7229467"><ele>96.0</ele><time>2026-03-29T09:38:32.959Z</time></trkpt><trkpt lat="43.7988133" lon="12.7229817"><ele>95.0</ele><time>2026-03-29T09:38:33.96Z</time></trkpt><trkpt lat="43.79908" lon="12.7230117"><ele>95.5</ele><time>2026-03-29T09:38:34.959Z</time></trkpt><trkpt lat="43.7993483" lon="12.72303"><ele>96.0</ele><time>2026-03-29T09:38:35.959Z</time></trkpt><trkpt lat="43.7996183" lon="12.72301"><ele>96.0</ele><time>2026-03-29T09:38:36.959Z</time></trkpt><trkpt lat="43.7999" lon="12.7229483"><ele>96.0</ele><time>2026-03-29T09:38:37.959Z</time></trkpt><trkpt lat="43.8001783" lon="12.7228617"><ele>97.5</ele><time>2026-03-29T09:38:38.959Z</time></trkpt><trkpt lat="43.80044" lon="12.722775"><ele>99.0</ele><time>2026-03-29T09:38:39.959Z</time></trkpt><trkpt lat="43.8006767" lon="12.7227033"><ele>99.0</ele><time>2026-03-29T09:38:40.96Z</time></trkpt><trkpt lat="43.800905" lon="12.722635"><ele>99.0</ele><time>2026-03-29T09:38:41.96Z</time></trkpt><trkpt lat="43.801115" lon="12.722585"><ele>99.0</ele><time>2026-03-29T09:38:42.96Z</time></trkpt><trkpt lat="43.80132" lon="12.7225667"><ele>96.33333333333333</ele><time>2026-03-29T09:38:43.96Z</time></trkpt><trkpt lat="43.8015217" lon="12.7225633"><ele>93.66666666666666</ele><time>2026-03-29T09:38:44.959Z</time></trkpt><trkpt lat="43.8017183" lon="12.7225783"><ele>91.0</ele><time>2026-03-29T09:38:45.959Z</time></trkpt><trkpt lat="43.801905" lon="12.7226133"><ele>90.66666666666666</ele><time>2026-03-29T09:38:46.96Z</time></trkpt><trkpt lat="43.8020867" lon="12.72266"><ele>90.33333333333333</ele><time>2026-03-29T09:38:47.959Z</time></trkpt><trkpt lat="43.8022733" lon="12.7227217"><ele>90.0</ele><time>2026-03-29T09:38:48.96Z</time></trkpt><trkpt lat="43.8024617" lon="12.722805"><ele>89.0</ele><time>2026-03-29T09:38:49.96Z</time></trkpt><trkpt lat="43.8026533" lon="12.722915"><ele>88.0</ele><time>2026-03-29T09:38:50.96Z</time></trkpt><trkpt lat="43.8028483" lon="12.72303"><ele>87.0</ele><time>2026-03-29T09:38:51.96Z</time></trkpt><trkpt lat="43.8030417" lon="12.7231617"><ele>90.0</ele><time>2026-03-29T09:38:52.959Z</time></trkpt><trkpt lat="43.8032217" lon="12.723305"><ele>93.0</ele><time>2026-03-29T09:38:53.959Z</time></trkpt><trkpt lat="43.8033933" lon="12.723455"><ele>96.0</ele><time>2026-03-29T09:38:54.959Z</time></trkpt><trkpt lat="43.80356" lon="12.723605"><ele>96.0</ele><time>2026-03-29T09:38:55.959Z</time></trkpt><trkpt lat="43.8037167" lon="12.723755"><ele>96.0</ele><time>2026-03-29T09:38:56.96Z</time></trkpt><trkpt lat="43.803875" lon="12.7238983"><ele>96.0</ele><time>2026-03-29T09:38:57.96Z</time></trkpt><trkpt lat="43.8040433" lon="12.7240417"><ele>96.0</ele><time>2026-03-29T09:38:58.96Z</time></trkpt><trkpt lat="43.8042133" lon="12.7241783"><ele>96.0</ele><time>2026-03-29T09:38:59.96Z</time></trkpt><trkpt lat="43.8043817" lon="12.72432"><ele>96.0</ele><time>2026-03-29T09:39:00.96Z</time></trkpt><trkpt lat="43.8045517" lon="12.7244467"><ele>94.33333333333333</ele><time>2026-03-29T09:39:01.96Z</time></trkpt><trkpt lat="43.8047267" lon="12.7245333"><ele>92.66666666666666</ele><time>2026-03-29T09:39:02.959Z</time></trkpt><trkpt lat="43.8049" lon="12.7246417"><ele>91.0</ele><time>2026-03-29T09:39:03.96Z</time></trkpt><trkpt lat="43.8050783" lon="12.724765"><ele>93.66666666666666</ele><time>2026-03-29T09:39:04.96Z</time></trkpt><trkpt lat="43.8052467" lon="12.7248833"><ele>96.33333333333333</ele><time>2026-03-29T09:39:05.959Z</time></trkpt><trkpt lat="43.8054033" lon="12.7250067"><ele>99.0</ele><time>2026-03-29T09:39:06.96Z</time></trkpt><trkpt lat="43.8055567" lon="12.7251333"><ele>98.0</ele><time>2026-03-29T09:39:07.96Z</time></trkpt><trkpt lat="43.8057117" lon="12.7252567"><ele>97.0</ele><time>2026-03-29T09:39:08.96Z</time></trkpt><trkpt lat="43.80587" lon="12.7253833"><ele>96.0</ele><time>2026-03-29T09:39:09.959Z</time></trkpt><trkpt lat="43.8060417" lon="12.7254983"><ele>96.0</ele><time>2026-03-29T09:39:10.959Z</time></trkpt><trkpt lat="43.8062183" lon="12.72561"><ele>96.0</ele><time>2026-03-29T09:39:11.96Z</time></trkpt><trkpt lat="43.8063883" lon="12.7257117"><ele>96.0</ele><time>2026-03-29T09:39:12.96Z</time></trkpt><trkpt lat="43.8065533" lon="12.7258083"><ele>96.0</ele><time>2026-03-29T09:39:13.96Z</time></trkpt><trkpt lat="43.8067183" lon="12.7259133"><ele>96.0</ele><time>2026-03-29T09:39:14.96Z</time></trkpt><trkpt lat="43.8068783" lon="12.7260133"><ele>96.0</ele><time>2026-03-29T09:39:15.96Z</time></trkpt><trkpt lat="43.8070383" lon="12.7261017"><ele>96.33333333333334</ele><time>2026-03-29T09:39:16.96Z</time></trkpt><trkpt lat="43.807195" lon="12.7261817"><ele>96.66666666666667</ele><time>2026-03-29T09:39:17.96Z</time></trkpt><trkpt lat="43.8073433" lon="12.7262633"><ele>97.0</ele><time>2026-03-29T09:39:18.96Z</time></trkpt><trkpt lat="43.8074867" lon="12.7263133"><ele>97.0</ele><time>2026-03-29T09:39:19.959Z</time></trkpt><trkpt lat="43.807625" lon="12.726355"><ele>97.0</ele><time>2026-03-29T09:39:20.959Z</time></trkpt><trkpt lat="43.8077633" lon="12.7263867"><ele>97.0</ele><time>2026-03-29T09:39:21.959Z</time></trkpt><trkpt lat="43.8079133" lon="12.7264367"><ele>97.0</ele><time>2026-03-29T09:39:22.959Z</time></trkpt><trkpt lat="43.8080683" lon="12.72648"><ele>96.66666666666667</ele><time>2026-03-29T09:39:23.959Z</time></trkpt><trkpt lat="43.80823" lon="12.7265333"><ele>96.33333333333334</ele><time>2026-03-29T09:39:24.96Z</time></trkpt><trkpt lat="43.8084017" lon="12.72659"><ele>96.0</ele><time>2026-03-29T09:39:25.96Z</time></trkpt><trkpt lat="43.8085733" lon="12.726615"><ele>96.0</ele><time>2026-03-29T09:39:26.959Z</time></trkpt><trkpt lat="43.808745" lon="12.7266733"><ele>96.0</ele><time>2026-03-29T09:39:27.959Z</time></trkpt><trkpt lat="43.8089083" lon="12.72671"><ele>96.0</ele><time>2026-03-29T09:39:28.959Z</time></trkpt><trkpt lat="43.8090867" lon="12.7267633"><ele>96.0</ele><time>2026-03-29T09:39:29.96Z</time></trkpt><trkpt lat="43.809265" lon="12.72681"><ele>96.0</ele><time>2026-03-29T09:39:30.959Z</time></trkpt><trkpt lat="43.80945" lon="12.7268467"><ele>96.0</ele><time>2026-03-29T09:39:31.959Z</time></trkpt><trkpt lat="43.8096517" lon="12.7268817"><ele>95.33333333333333</ele><time>2026-03-29T09:39:32.96Z</time></trkpt><trkpt lat="43.8098383" lon="12.72692"><ele>94.66666666666666</ele><time>2026-03-29T09:39:33.959Z</time></trkpt><trkpt lat="43.8100183" lon="12.7269033"><ele>94.0</ele><time>2026-03-29T09:39:34.96Z</time></trkpt><trkpt lat="43.8101917" lon="12.7269367"><ele>94.0</ele><time>2026-03-29T09:39:35.959Z</time></trkpt><trkpt lat="43.8103667" lon="12.726995"><ele>94.0</ele><time>2026-03-29T09:39:36.96Z</time></trkpt><trkpt lat="43.8105517" lon="12.7270483"><ele>94.0</ele><time>2026-03-29T09:39:37.96Z</time></trkpt><trkpt lat="43.8107367" lon="12.727135"><ele>94.0</ele><time>2026-03-29T09:39:38.96Z</time></trkpt><trkpt lat="43.8109083" lon="12.72723"><ele>94.0</ele><time>2026-03-29T09:39:39.959Z</time></trkpt><trkpt lat="43.81108" lon="12.72734"><ele>94.0</ele><time>2026-03-29T09:39:40.96Z</time></trkpt><trkpt lat="43.8112433" lon="12.727435"><ele>96.33333333333333</ele><time>2026-03-29T09:39:41.96Z</time></trkpt><trkpt lat="43.811395" lon="12.727515"><ele>98.66666666666666</ele><time>2026-03-29T09:39:42.96Z</time></trkpt><trkpt lat="43.81155" lon="12.7275833"><ele>101.0</ele><time>2026-03-29T09:39:43.96Z</time></trkpt><trkpt lat="43.8117" lon="12.7276467"><ele>101.33333333333333</ele><time>2026-03-29T09:39:44.959Z</time></trkpt><trkpt lat="43.811865" lon="12.7277"><ele>101.66666666666666</ele><time>2026-03-29T09:39:45.96Z</time></trkpt><trkpt lat="43.8120333" lon="12.727745"><ele>102.0</ele><time>2026-03-29T09:39:46.959Z</time></trkpt><trkpt lat="43.8122" lon="12.7277933"><ele>101.0</ele><time>2026-03-29T09:39:47.96Z</time></trkpt><trkpt lat="43.8123683" lon="12.727835"><ele>100.0</ele><time>2026-03-29T09:39:48.96Z</time></trkpt><trkpt lat="43.812525" lon="12.7278717"><ele>99.0</ele><time>2026-03-29T09:39:49.959Z</time></trkpt><trkpt lat="43.8126817" lon="12.72792"><ele>99.0</ele><time>2026-03-29T09:39:50.96Z</time></trkpt><trkpt lat="43.8128317" lon="12.7279867"><ele>99.0</ele><time>2026-03-29T09:39:51.96Z</time></trkpt><trkpt lat="43.812985" lon="12.7280633"><ele>99.0</ele><time>2026-03-29T09:39:52.96Z</time></trkpt><trkpt lat="43.8131417" lon="12.7281717"><ele>99.0</ele><time>2026-03-29T09:39:53.96Z</time></trkpt><trkpt lat="43.8132983" lon="12.7282767"><ele>99.0</ele><time>2026-03-29T09:39:54.96Z</time></trkpt><trkpt lat="43.8134617" lon="12.7283883"><ele>99.0</ele><time>2026-03-29T09:39:55.959Z</time></trkpt><trkpt lat="43.8136283" lon="12.7285217"><ele>98.0</ele><time>2026-03-29T09:39:56.959Z</time></trkpt><trkpt lat="43.8137917" lon="12.72866"><ele>97.0</ele><time>2026-03-29T09:39:57.959Z</time></trkpt><trkpt lat="43.813945" lon="12.7287917"><ele>96.0</ele><time>2026-03-29T09:39:58.96Z</time></trkpt><trkpt lat="43.814095" lon="12.7288917"><ele>96.0</ele><time>2026-03-29T09:39:59.96Z</time></trkpt><trkpt lat="43.8142383" lon="12.7289983"><ele>96.0</ele><time>2026-03-29T09:40:00.96Z</time></trkpt><trkpt lat="43.8143783" lon="12.7291033"><ele>96.0</ele><time>2026-03-29T09:40:01.96Z</time></trkpt><trkpt lat="43.8145217" lon="12.7292083"><ele>95.33333333333333</ele><time>2026-03-29T09:40:02.959Z</time></trkpt><trkpt lat="43.8146683" lon="12.7293267"><ele>94.66666666666666</ele><time>2026-03-29T09:40:03.959Z</time></trkpt><trkpt lat="43.81482" lon="12.729445"><ele>94.0</ele><time>2026-03-29T09:40:04.959Z</time></trkpt><trkpt lat="43.8149717" lon="12.7295667"><ele>93.66666666666666</ele><time>2026-03-29T09:40:05.96Z</time></trkpt><trkpt lat="43.815115" lon="12.72968"><ele>93.33333333333333</ele><time>2026-03-29T09:40:06.96Z</time></trkpt><trkpt lat="43.8152517" lon="12.7297883"><ele>93.0</ele><time>2026-03-29T09:40:07.96Z</time></trkpt><trkpt lat="43.8153883" lon="12.7298917"><ele>93.0</ele><time>2026-03-29T09:40:08.959Z</time></trkpt><trkpt lat="43.8155233" lon="12.73"><ele>93.0</ele><time>2026-03-29T09:40:09.959Z</time></trkpt><trkpt lat="43.8156617" lon="12.7301117"><ele>93.0</ele><time>2026-03-29T09:40:10.959Z</time></trkpt><trkpt lat="43.8158" lon="12.7302267"><ele>93.0</ele><time>2026-03-29T09:40:11.96Z</time></trkpt><trkpt lat="43.8159417" lon="12.7303417"><ele>93.0</ele><time>2026-03-29T09:40:12.96Z</time></trkpt><trkpt lat="43.816085" lon="12.730455"><ele>93.0</ele><time>2026-03-29T09:40:13.959Z</time></trkpt><trkpt lat="43.81623" lon="12.7305633"><ele>93.0</ele><time>2026-03-29T09:40:14.959Z</time></trkpt><trkpt lat="43.8163733" lon="12.7306683"><ele>93.0</ele><time>2026-03-29T09:40:15.96Z</time></trkpt><trkpt lat="43.816515" lon="12.730765"><ele>93.0</ele><time>2026-03-29T09:40:16.959Z</time></trkpt><trkpt lat="43.8166567" lon="12.7308583"><ele>93.0</ele><time>2026-03-29T09:40:17.96Z</time></trkpt><trkpt lat="43.8167933" lon="12.73094"><ele>93.0</ele><time>2026-03-29T09:40:18.96Z</time></trkpt><trkpt lat="43.8169183" lon="12.7310083"><ele>93.0</ele><time>2026-03-29T09:40:19.96Z</time></trkpt><trkpt lat="43.817035" lon="12.73108"><ele>93.0</ele><time>2026-03-29T09:40:20.96Z</time></trkpt><trkpt lat="43.817145" lon="12.731145"><ele>92.80000000000001</ele><time>2026-03-29T09:40:21.959Z</time></trkpt><trkpt lat="43.81724" lon="12.7312033"><ele>92.6</ele><time>2026-03-29T09:40:22.96Z</time></trkpt><trkpt lat="43.8173317" lon="12.7312567"><ele>92.4</ele><time>2026-03-29T09:40:23.96Z</time></trkpt><trkpt lat="43.8174267" lon="12.7313033"><ele>92.19999999999999</ele><time>2026-03-29T09:40:24.96Z</time></trkpt><trkpt lat="43.8175217" lon="12.7313617"><ele>92.0</ele><time>2026-03-29T09:40:25.96Z</time></trkpt><trkpt lat="43.8176317" lon="12.731425"><ele>92.0</ele><time>2026-03-29T09:40:26.96Z</time></trkpt><trkpt lat="43.8177467" lon="12.7314933"><ele>92.0</ele><time>2026-03-29T09:40:27.96Z</time></trkpt><trkpt lat="43.817875" lon="12.73156"><ele>92.0</ele><time>2026-03-29T09:40:28.96Z</time></trkpt><trkpt lat="43.8180067" lon="12.7316283"><ele>92.0</ele><time>2026-03-29T09:40:29.959Z</time></trkpt><trkpt lat="43.818145" lon="12.7317"><ele>92.0</ele><time>2026-03-29T09:40:30.959Z</time></trkpt><trkpt lat="43.8182767" lon="12.7317633"><ele>92.0</ele><time>2026-03-29T09:40:31.959Z</time></trkpt><trkpt lat="43.8184083" lon="12.7318333"><ele>92.0</ele><time>2026-03-29T09:40:32.96Z</time></trkpt><trkpt lat="43.8185433" lon="12.7319233"><ele>92.0</ele><time>2026-03-29T09:40:33.96Z</time></trkpt><trkpt lat="43.8186733" lon="12.7320183"><ele>91.0</ele><time>2026-03-29T09:40:34.959Z</time></trkpt><trkpt lat="43.8188033" lon="12.73213"><ele>90.0</ele><time>2026-03-29T09:40:35.96Z</time></trkpt><trkpt lat="43.8189367" lon="12.73224"><ele>89.0</ele><time>2026-03-29T09:40:36.96Z</time></trkpt><trkpt lat="43.819065" lon="12.7323667"><ele>89.0</ele><time>2026-03-29T09:40:37.96Z</time></trkpt><trkpt lat="43.8191933" lon="12.7325"><ele>89.0</ele><time>2026-03-29T09:40:38.959Z</time></trkpt><trkpt lat="43.8193183" lon="12.7326317"><ele>89.0</ele><time>2026-03-29T09:40:39.96Z</time></trkpt><trkpt lat="43.8194417" lon="12.7327617"><ele>88.33333333333334</ele><time>2026-03-29T09:40:40.96Z</time></trkpt><trkpt lat="43.81956" lon="12.7328917"><ele>87.66666666666667</ele><time>2026-03-29T09:40:41.959Z</time></trkpt><trkpt lat="43.8196817" lon="12.7330217"><ele>87.0</ele><time>2026-03-29T09:40:42.96Z</time></trkpt><trkpt lat="43.8198017" lon="12.733145"><ele>87.0</ele><time>2026-03-29T09:40:43.96Z</time></trkpt><trkpt lat="43.8199183" lon="12.73327"><ele>87.0</ele><time>2026-03-29T09:40:44.96Z</time></trkpt><trkpt lat="43.8200283" lon="12.7333817"><ele>87.0</ele><time>2026-03-29T09:40:45.96Z</time></trkpt><trkpt lat="43.8201333" lon="12.733485"><ele>87.0</ele><time>2026-03-29T09:40:46.96Z</time></trkpt><trkpt lat="43.8202383" lon="12.73359"><ele>86.25</ele><time>2026-03-29T09:40:47.96Z</time></trkpt><trkpt lat="43.8203483" lon="12.7336983"><ele>85.5</ele><time>2026-03-29T09:40:48.959Z</time></trkpt><trkpt lat="43.82045" lon="12.7338167"><ele>84.75</ele><time>2026-03-29T09:40:49.96Z</time></trkpt><trkpt lat="43.8205567" lon="12.7339267"><ele>84.0</ele><time>2026-03-29T09:40:50.959Z</time></trkpt><trkpt lat="43.8206683" lon="12.734055"><ele>84.0</ele><time>2026-03-29T09:40:51.96Z</time></trkpt><trkpt lat="43.8207867" lon="12.7341883"><ele>84.0</ele><time>2026-03-29T09:40:52.96Z</time></trkpt><trkpt lat="43.8208967" lon="12.7343367"><ele>84.0</ele><time>2026-03-29T09:40:53.96Z</time></trkpt><trkpt lat="43.8210067" lon="12.73449"><ele>84.5</ele><time>2026-03-29T09:40:54.959Z</time></trkpt><trkpt lat="43.8211017" lon="12.7346383"><ele>85.0</ele><time>2026-03-29T09:40:55.96Z</time></trkpt><trkpt lat="43.821195" lon="12.7347883"><ele>85.5</ele><time>2026-03-29T09:40:56.96Z</time></trkpt><trkpt lat="43.8212883" lon="12.73494"><ele>86.0</ele><time>2026-03-29T09:40:57.959Z</time></trkpt><trkpt lat="43.8213783" lon="12.73509"><ele>85.0</ele><time>2026-03-29T09:40:58.96Z</time></trkpt><trkpt lat="43.821475" lon="12.7352317"><ele>84.0</ele><time>2026-03-29T09:40:59.959Z</time></trkpt><trkpt lat="43.82158" lon="12.7353717"><ele>83.0</ele><time>2026-03-29T09:41:00.959Z</time></trkpt><trkpt lat="43.821685" lon="12.7355117"><ele>82.0</ele><time>2026-03-29T09:41:01.96Z</time></trkpt><trkpt lat="43.821795" lon="12.7356433"><ele>83.0</ele><time>2026-03-29T09:41:02.96Z</time></trkpt><trkpt lat="43.82191" lon="12.7357717"><ele>84.0</ele><time>2026-03-29T09:41:03.96Z</time></trkpt><trkpt lat="43.82203" lon="12.7358983"><ele>85.0</ele><time>2026-03-29T09:41:04.96Z</time></trkpt><trkpt lat="43.8221667" lon="12.7360217"><ele>83.66666666666666</ele><time>2026-03-29T09:41:05.96Z</time></trkpt><trkpt lat="43.822305" lon="12.7361517"><ele>82.33333333333333</ele><time>2026-03-29T09:41:06.959Z</time></trkpt><trkpt lat="43.82244" lon="12.7362767"><ele>81.0</ele><time>2026-03-29T09:41:07.96Z</time></trkpt><trkpt lat="43.8225783" lon="12.7363983"><ele>81.25</ele><time>2026-03-29T09:41:08.96Z</time></trkpt><trkpt lat="43.8227067" lon="12.7365133"><ele>81.5</ele><time>2026-03-29T09:41:09.96Z</time></trkpt><trkpt lat="43.82283" lon="12.7366167"><ele>81.75</ele><time>2026-03-29T09:41:10.96Z</time></trkpt><trkpt lat="43.822955" lon="12.7367267"><ele>82.0</ele><time>2026-03-29T09:41:11.96Z</time></trkpt><trkpt lat="43.8230783" lon="12.7368383"><ele>82.0</ele><time>2026-03-29T09:41:12.959Z</time></trkpt><trkpt lat="43.8232017" lon="12.7369483"><ele>82.0</ele><time>2026-03-29T09:41:13.96Z</time></trkpt><trkpt lat="43.82333" lon="12.737055"><ele>82.0</ele><time>2026-03-29T09:41:14.959Z</time></trkpt><trkpt lat="43.8234517" lon="12.7371633"><ele>82.0</ele><time>2026-03-29T09:41:15.96Z</time></trkpt><trkpt lat="43.82357" lon="12.737275"><ele>82.0</ele><time>2026-03-29T09:41:16.959Z</time></trkpt><trkpt lat="43.823685" lon="12.7373867"><ele>82.0</ele><time>2026-03-29T09:41:17.959Z</time></trkpt><trkpt lat="43.8237983" lon="12.7374967"><ele>82.0</ele><time>2026-03-29T09:41:18.96Z</time></trkpt><trkpt lat="43.8239133" lon="12.7376"><ele>82.0</ele><time>2026-03-29T09:41:19.96Z</time></trkpt><trkpt lat="43.8240267" lon="12.737705"><ele>82.0</ele><time>2026-03-29T09:41:20.959Z</time></trkpt><trkpt lat="43.8241333" lon="12.7378083"><ele>82.0</ele><time>2026-03-29T09:41:21.96Z</time></trkpt><trkpt lat="43.8242367" lon="12.7379067"><ele>82.0</ele><time>2026-03-29T09:41:22.959Z</time></trkpt><trkpt lat="43.824345" lon="12.7380117"><ele>82.0</ele><time>2026-03-29T09:41:23.959Z</time></trkpt><trkpt lat="43.82445" lon="12.738125"><ele>82.0</ele><time>2026-03-29T09:41:24.96Z</time></trkpt><trkpt lat="43.824555" lon="12.7382517"><ele>82.0</ele><time>2026-03-29T09:41:25.96Z</time></trkpt><trkpt lat="43.8246533" lon="12.7383767"><ele>82.0</ele><time>2026-03-29T09:41:26.959Z</time></trkpt><trkpt lat="43.8247433" lon="12.7385017"><ele>82.0</ele><time>2026-03-29T09:41:27.959Z</time></trkpt><trkpt lat="43.8248283" lon="12.7386267"><ele>82.0</ele><time>2026-03-29T09:41:28.96Z</time></trkpt><trkpt lat="43.8249083" lon="12.7387483"><ele>82.0</ele><time>2026-03-29T09:41:29.959Z</time></trkpt><trkpt lat="43.82499" lon="12.7388617"><ele>82.0</ele><time>2026-03-29T09:41:30.96Z</time></trkpt><trkpt lat="43.8250733" lon="12.738975"><ele>82.0</ele><time>2026-03-29T09:41:31.959Z</time></trkpt><trkpt lat="43.82516" lon="12.7390883"><ele>82.0</ele><time>2026-03-29T09:41:32.959Z</time></trkpt><trkpt lat="43.8252533" lon="12.7391983"><ele>82.0</ele><time>2026-03-29T09:41:33.96Z</time></trkpt><trkpt lat="43.8253483" lon="12.7393133"><ele>82.0</ele><time>2026-03-29T09:41:34.96Z</time></trkpt><trkpt lat="43.82545" lon="12.7394333"><ele>82.0</ele><time>2026-03-29T09:41:35.959Z</time></trkpt><trkpt lat="43.8255567" lon="12.7395633"><ele>81.5</ele><time>2026-03-29T09:41:36.96Z</time></trkpt><trkpt lat="43.8256633" lon="12.7396967"><ele>81.0</ele><time>2026-03-29T09:41:37.96Z</time></trkpt><trkpt lat="43.8257683" lon="12.7398283"><ele>80.5</ele><time>2026-03-29T09:41:38.96Z</time></trkpt><trkpt lat="43.8258683" lon="12.7399533"><ele>80.0</ele><time>2026-03-29T09:41:39.959Z</time></trkpt><trkpt lat="43.8259667" lon="12.7400733"><ele>79.75</ele><time>2026-03-29T09:41:40.959Z</time></trkpt><trkpt lat="43.8260633" lon="12.740195"><ele>79.5</ele><time>2026-03-29T09:41:41.959Z</time></trkpt><trkpt lat="43.82616" lon="12.740315"><ele>79.25</ele><time>2026-03-29T09:41:42.96Z</time></trkpt><trkpt lat="43.82626" lon="12.7404433"><ele>79.0</ele><time>2026-03-29T09:41:43.96Z</time></trkpt><trkpt lat="43.826355" lon="12.7405833"><ele>78.75</ele><time>2026-03-29T09:41:44.959Z</time></trkpt><trkpt lat="43.8264383" lon="12.7407333"><ele>78.5</ele><time>2026-03-29T09:41:45.959Z</time></trkpt><trkpt lat="43.826515" lon="12.7408933"><ele>78.25</ele><time>2026-03-29T09:41:46.959Z</time></trkpt><trkpt lat="43.8265867" lon="12.7410567"><ele>78.0</ele><time>2026-03-29T09:41:47.96Z</time></trkpt><trkpt lat="43.8266433" lon="12.7412183"><ele>77.75</ele><time>2026-03-29T09:41:48.96Z</time></trkpt><trkpt lat="43.826695" lon="12.74138"><ele>77.5</ele><time>2026-03-29T09:41:49.96Z</time></trkpt><trkpt lat="43.8267417" lon="12.741545"><ele>77.25</ele><time>2026-03-29T09:41:50.96Z</time></trkpt><trkpt lat="43.8267883" lon="12.7417317"><ele>77.0</ele><time>2026-03-29T09:41:51.96Z</time></trkpt><trkpt lat="43.82683" lon="12.741905"><ele>76.75</ele><time>2026-03-29T09:41:52.96Z</time></trkpt><trkpt lat="43.82687" lon="12.7420733"><ele>76.5</ele><time>2026-03-29T09:41:53.959Z</time></trkpt><trkpt lat="43.8269117" lon="12.742235"><ele>76.25</ele><time>2026-03-29T09:41:54.96Z</time></trkpt><trkpt lat="43.8269567" lon="12.7424033"><ele>76.0</ele><time>2026-03-29T09:41:55.96Z</time></trkpt><trkpt lat="43.827" lon="12.7425633"><ele>76.0</ele><time>2026-03-29T09:41:56.96Z</time></trkpt><trkpt lat="43.8270483" lon="12.7427217"><ele>76.0</ele><time>2026-03-29T09:41:57.96Z</time></trkpt><trkpt lat="43.827095" lon="12.74288"><ele>76.0</ele><time>2026-03-29T09:41:58.96Z</time></trkpt><trkpt lat="43.8271517" lon="12.743035"><ele>76.0</ele><time>2026-03-29T09:41:59.96Z</time></trkpt><trkpt lat="43.8272117" lon="12.743185"><ele>76.0</ele><time>2026-03-29T09:42:00.96Z</time></trkpt><trkpt lat="43.8272733" lon="12.743325"><ele>76.0</ele><time>2026-03-29T09:42:01.96Z</time></trkpt><trkpt lat="43.8273433" lon="12.7434667"><ele>76.0</ele><time>2026-03-29T09:42:02.959Z</time></trkpt><trkpt lat="43.8274183" lon="12.7436083"><ele>76.0</ele><time>2026-03-29T09:42:03.96Z</time></trkpt><trkpt lat="43.8274983" lon="12.7437517"><ele>76.0</ele><time>2026-03-29T09:42:04.959Z</time></trkpt><trkpt lat="43.8275783" lon="12.7438917"><ele>76.0</ele><time>2026-03-29T09:42:05.96Z</time></trkpt><trkpt lat="43.8276617" lon="12.74404"><ele>76.0</ele><time>2026-03-29T09:42:06.96Z</time></trkpt><trkpt lat="43.82775" lon="12.7441917"><ele>76.0</ele><time>2026-03-29T09:42:07.959Z</time></trkpt><trkpt lat="43.82784" lon="12.7443433"><ele>75.75</ele><time>2026-03-29T09:42:08.96Z</time></trkpt><trkpt lat="43.827935" lon="12.7444967"><ele>75.5</ele><time>2026-03-29T09:42:09.96Z</time></trkpt><trkpt lat="43.8280317" lon="12.7446467"><ele>75.25</ele><time>2026-03-29T09:42:10.96Z</time></trkpt><trkpt lat="43.82814" lon="12.7447833"><ele>75.0</ele><time>2026-03-29T09:42:11.959Z</time></trkpt><trkpt lat="43.8282567" lon="12.7449083"><ele>75.0</ele><time>2026-03-29T09:42:12.96Z</time></trkpt><trkpt lat="43.8283817" lon="12.74502"><ele>75.0</ele><time>2026-03-29T09:42:13.96Z</time></trkpt><trkpt lat="43.82851" lon="12.7451183"><ele>75.0</ele><time>2026-03-29T09:42:14.959Z</time></trkpt><trkpt lat="43.828635" lon="12.7452033"><ele>75.0</ele><time>2026-03-29T09:42:15.96Z</time></trkpt><trkpt lat="43.828765" lon="12.74527"><ele>74.75</ele><time>2026-03-29T09:42:16.96Z</time></trkpt><trkpt lat="43.8289033" lon="12.7453133"><ele>74.5</ele><time>2026-03-29T09:42:17.959Z</time></trkpt><trkpt lat="43.82904" lon="12.7453583"><ele>74.25</ele><time>2026-03-29T09:42:18.959Z</time></trkpt><trkpt lat="43.8291783" lon="12.7453867"><ele>74.0</ele><time>2026-03-29T09:42:19.959Z</time></trkpt><trkpt lat="43.829315" lon="12.7454083"><ele>74.0</ele><time>2026-03-29T09:42:20.959Z</time></trkpt><trkpt lat="43.8294467" lon="12.7454283"><ele>74.0</ele><time>2026-03-29T09:42:21.96Z</time></trkpt><trkpt lat="43.8295867" lon="12.7454367"><ele>74.0</ele><time>2026-03-29T09:42:22.959Z</time></trkpt><trkpt lat="43.8297217" lon="12.7454383"><ele>74.0</ele><time>2026-03-29T09:42:23.959Z</time></trkpt><trkpt lat="43.8298633" lon="12.7454383"><ele>74.0</ele><time>2026-03-29T09:42:24.96Z</time></trkpt><trkpt lat="43.8299933" lon="12.7454433"><ele>74.0</ele><time>2026-03-29T09:42:25.959Z</time></trkpt><trkpt lat="43.8301117" lon="12.7454433"><ele>74.0</ele><time>2026-03-29T09:42:26.96Z</time></trkpt><trkpt lat="43.8302317" lon="12.745445"><ele>74.0</ele><time>2026-03-29T09:42:27.959Z</time></trkpt><trkpt lat="43.8303467" lon="12.7454517"><ele>74.0</ele><time>2026-03-29T09:42:28.96Z</time></trkpt><trkpt lat="43.8304533" lon="12.745465"><ele>74.0</ele><time>2026-03-29T09:42:29.959Z</time></trkpt><trkpt lat="43.8305533" lon="12.74548"><ele>74.0</ele><time>2026-03-29T09:42:30.96Z</time></trkpt><trkpt lat="43.8306417" lon="12.7454967"><ele>74.0</ele><time>2026-03-29T09:42:31.96Z</time></trkpt><trkpt lat="43.8307167" lon="12.7455183"><ele>74.0</ele><time>2026-03-29T09:42:32.96Z</time></trkpt><trkpt lat="43.83082" lon="12.7455533"><ele>74.0</ele><time>2026-03-29T09:42:34.96Z</time></trkpt><trkpt lat="43.8309017" lon="12.7455783"><ele>74.0</ele><time>2026-03-29T09:42:36.96Z</time></trkpt><trkpt lat="43.8309883" lon="12.7456367"><ele>74.0</ele><time>2026-03-29T09:42:38.96Z</time></trkpt><trkpt lat="43.8310817" lon="12.7456667"><ele>74.0</ele><time>2026-03-29T09:42:40.96Z</time></trkpt><trkpt lat="43.8311967" lon="12.7456183"><ele>74.0</ele><time>2026-03-29T09:42:42.96Z</time></trkpt><trkpt lat="43.8312667" lon="12.745585"><ele>73.66666666666667</ele><time>2026-03-29T09:42:43.96Z</time></trkpt><trkpt lat="43.8313383" lon="12.7455617"><ele>73.33333333333334</ele><time>2026-03-29T09:42:44.959Z</time></trkpt><trkpt lat="43.8314233" lon="12.7455517"><ele>73.0</ele><time>2026-03-29T09:42:45.96Z</time></trkpt><trkpt lat="43.8315117" lon="12.745555"><ele>72.66666666666667</ele><time>2026-03-29T09:42:46.96Z</time></trkpt><trkpt lat="43.831605" lon="12.74557"><ele>72.33333333333333</ele><time>2026-03-29T09:42:47.96Z</time></trkpt><trkpt lat="43.8316983" lon="12.74558"><ele>72.0</ele><time>2026-03-29T09:42:48.96Z</time></trkpt><trkpt lat="43.8317933" lon="12.7455967"><ele>71.8</ele><time>2026-03-29T09:42:49.96Z</time></trkpt><trkpt lat="43.8318917" lon="12.74562"><ele>71.6</ele><time>2026-03-29T09:42:50.96Z</time></trkpt><trkpt lat="43.8319933" lon="12.7456467"><ele>71.39999999999999</ele><time>2026-03-29T09:42:51.96Z</time></trkpt><trkpt lat="43.8320967" lon="12.7456733"><ele>71.2</ele><time>2026-03-29T09:42:52.959Z</time></trkpt><trkpt lat="43.8321967" lon="12.7456983"><ele>71.0</ele><time>2026-03-29T09:42:53.96Z</time></trkpt><trkpt lat="43.832295" lon="12.7457267"><ele>71.0</ele><time>2026-03-29T09:42:54.959Z</time></trkpt><trkpt lat="43.8323917" lon="12.7457483"><ele>71.0</ele><time>2026-03-29T09:42:55.96Z</time></trkpt><trkpt lat="43.8324833" lon="12.74576"><ele>71.0</ele><time>2026-03-29T09:42:56.959Z</time></trkpt><trkpt lat="43.832575" lon="12.7457717"><ele>71.0</ele><time>2026-03-29T09:42:57.96Z</time></trkpt><trkpt lat="43.8326667" lon="12.7457833"><ele>71.0</ele><time>2026-03-29T09:42:58.959Z</time></trkpt><trkpt lat="43.8327583" lon="12.7458"><ele>70.8</ele><time>2026-03-29T09:42:59.96Z</time></trkpt><trkpt lat="43.832855" lon="12.74581"><ele>70.6</ele><time>2026-03-29T09:43:00.959Z</time></trkpt><trkpt lat="43.8329467" lon="12.74582"><ele>70.4</ele><time>2026-03-29T09:43:01.959Z</time></trkpt><trkpt lat="43.8330367" lon="12.7458283"><ele>70.2</ele><time>2026-03-29T09:43:02.96Z</time></trkpt><trkpt lat="43.833125" lon="12.7458417"><ele>70.0</ele><time>2026-03-29T09:43:03.96Z</time></trkpt><trkpt lat="43.8332167" lon="12.7458417"><ele>70.0</ele><time>2026-03-29T09:43:04.96Z</time></trkpt><trkpt lat="43.8333" lon="12.745845"><ele>70.0</ele><time>2026-03-29T09:43:05.96Z</time></trkpt><trkpt lat="43.833385" lon="12.7458467"><ele>70.0</ele><time>2026-03-29T09:43:06.959Z</time></trkpt><trkpt lat="43.833465" lon="12.745855"><ele>70.0</ele><time>2026-03-29T09:43:07.96Z</time></trkpt><trkpt lat="43.8335417" lon="12.7458683"><ele>70.0</ele><time>2026-03-29T09:43:08.96Z</time></trkpt><trkpt lat="43.8336083" lon="12.745895"><ele>70.0</ele><time>2026-03-29T09:43:09.959Z</time></trkpt><trkpt lat="43.8336667" lon="12.7459317"><ele>70.2</ele><time>2026-03-29T09:43:10.96Z</time></trkpt><trkpt lat="43.83377" lon="12.7460167"><ele>70.4</ele><time>2026-03-29T09:43:12.959Z</time></trkpt><trkpt lat="43.8338567" lon="12.74614"><ele>70.6</ele><time>2026-03-29T09:43:14.959Z</time></trkpt><trkpt lat="43.8339133" lon="12.74623"><ele>70.8</ele><time>2026-03-29T09:43:15.96Z</time></trkpt><trkpt lat="43.8339883" lon="12.7463467"><ele>71.0</ele><time>2026-03-29T09:43:16.959Z</time></trkpt><trkpt lat="43.8340717" lon="12.74649"><ele>70.0</ele><time>2026-03-29T09:43:17.96Z</time></trkpt><trkpt lat="43.8341583" lon="12.7466467"><ele>69.0</ele><time>2026-03-29T09:43:18.959Z</time></trkpt><trkpt lat="43.83425" lon="12.7468133"><ele>68.0</ele><time>2026-03-29T09:43:19.96Z</time></trkpt><trkpt lat="43.8343417" lon="12.74698"><ele>67.0</ele><time>2026-03-29T09:43:20.96Z</time></trkpt><trkpt lat="43.8344367" lon="12.7471533"><ele>66.33333333333333</ele><time>2026-03-29T09:43:21.96Z</time></trkpt><trkpt lat="43.8345367" lon="12.7473433"><ele>65.66666666666667</ele><time>2026-03-29T09:43:22.96Z</time></trkpt><trkpt lat="43.8346417" lon="12.7475483"><ele>65.0</ele><time>2026-03-29T09:43:23.96Z</time></trkpt><trkpt lat="43.8347533" lon="12.747765"><ele>65.0</ele><time>2026-03-29T09:43:24.959Z</time></trkpt><trkpt lat="43.83487" lon="12.7480017"><ele>65.0</ele><time>2026-03-29T09:43:25.96Z</time></trkpt><trkpt lat="43.8350033" lon="12.748265"><ele>65.0</ele><time>2026-03-29T09:43:26.959Z</time></trkpt><trkpt lat="43.8351533" lon="12.7485533"><ele>65.0</ele><time>2026-03-29T09:43:27.96Z</time></trkpt><trkpt lat="43.835305" lon="12.748835"><ele>65.0</ele><time>2026-03-29T09:43:28.96Z</time></trkpt><trkpt lat="43.8354417" lon="12.7490983"><ele>64.0</ele><time>2026-03-29T09:43:29.96Z</time></trkpt><trkpt lat="43.835565" lon="12.7493767"><ele>63.0</ele><time>2026-03-29T09:43:30.959Z</time></trkpt><trkpt lat="43.8356733" lon="12.7496633"><ele>63.0</ele><time>2026-03-29T09:43:31.959Z</time></trkpt><trkpt lat="43.8357717" lon="12.7499317"><ele>63.0</ele><time>2026-03-29T09:43:32.959Z</time></trkpt><trkpt lat="43.8358567" lon="12.7501767"><ele>63.0</ele><time>2026-03-29T09:43:33.96Z</time></trkpt><trkpt lat="43.8359333" lon="12.750405"><ele>61.0</ele><time>2026-03-29T09:43:34.96Z</time></trkpt><trkpt lat="43.836" lon="12.7506317"><ele>59.0</ele><time>2026-03-29T09:43:35.959Z</time></trkpt><trkpt lat="43.8360683" lon="12.7508783"><ele>57.0</ele><time>2026-03-29T09:43:36.959Z</time></trkpt><trkpt lat="43.8361417" lon="12.7511317"><ele>56.33333333333333</ele><time>2026-03-29T09:43:37.96Z</time></trkpt><trkpt lat="43.83621" lon="12.75139"><ele>55.666666666666664</ele><time>2026-03-29T09:43:38.959Z</time></trkpt><trkpt lat="43.8362633" lon="12.7516433"><ele>55.0</ele><time>2026-03-29T09:43:39.959Z</time></trkpt><trkpt lat="43.8363217" lon="12.7518883"><ele>55.0</ele><time>2026-03-29T09:43:40.96Z</time></trkpt><trkpt lat="43.83638" lon="12.7521217"><ele>55.0</ele><time>2026-03-29T09:43:41.959Z</time></trkpt><trkpt lat="43.8364417" lon="12.75235"><ele>55.0</ele><time>2026-03-29T09:43:42.96Z</time></trkpt><trkpt lat="43.8365" lon="12.7525767"><ele>55.33333333333333</ele><time>2026-03-29T09:43:43.96Z</time></trkpt><trkpt lat="43.8365617" lon="12.7528017"><ele>55.66666666666667</ele><time>2026-03-29T09:43:44.96Z</time></trkpt><trkpt lat="43.8366233" lon="12.75302"><ele>56.0</ele><time>2026-03-29T09:43:45.96Z</time></trkpt><trkpt lat="43.8366817" lon="12.753235"><ele>56.0</ele><time>2026-03-29T09:43:46.96Z</time></trkpt><trkpt lat="43.83674" lon="12.7534517"><ele>56.0</ele><time>2026-03-29T09:43:47.959Z</time></trkpt><trkpt lat="43.8367983" lon="12.7536717"><ele>56.0</ele><time>2026-03-29T09:43:48.96Z</time></trkpt><trkpt lat="43.83686" lon="12.7538933"><ele>56.0</ele><time>2026-03-29T09:43:49.96Z</time></trkpt><trkpt lat="43.836925" lon="12.7541217"><ele>56.0</ele><time>2026-03-29T09:43:50.96Z</time></trkpt><trkpt lat="43.8369917" lon="12.7543583"><ele>56.0</ele><time>2026-03-29T09:43:51.96Z</time></trkpt><trkpt lat="43.8370667" lon="12.754615"><ele>56.66666666666667</ele><time>2026-03-29T09:43:52.96Z</time></trkpt><trkpt lat="43.8371467" lon="12.754875"><ele>57.33333333333333</ele><time>2026-03-29T09:43:53.96Z</time></trkpt><trkpt lat="43.8372233" lon="12.7551333"><ele>58.0</ele><time>2026-03-29T09:43:54.959Z</time></trkpt><trkpt lat="43.8372983" lon="12.7553933"><ele>59.33333333333333</ele><time>2026-03-29T09:43:55.959Z</time></trkpt><trkpt lat="43.837375" lon="12.755655"><ele>60.66666666666667</ele><time>2026-03-29T09:43:56.96Z</time></trkpt><trkpt lat="43.8374533" lon="12.7559233"><ele>62.0</ele><time>2026-03-29T09:43:57.959Z</time></trkpt><trkpt lat="43.8375333" lon="12.7561967"><ele>62.66666666666667</ele><time>2026-03-29T09:43:58.959Z</time></trkpt><trkpt lat="43.8376117" lon="12.7564733"><ele>63.33333333333333</ele><time>2026-03-29T09:43:59.959Z</time></trkpt><trkpt lat="43.83769" lon="12.756755"><ele>64.0</ele><time>2026-03-29T09:44:00.959Z</time></trkpt><trkpt lat="43.83776" lon="12.757045"><ele>64.33333333333333</ele><time>2026-03-29T09:44:01.96Z</time></trkpt><trkpt lat="43.8378283" lon="12.7573317"><ele>64.66666666666667</ele><time>2026-03-29T09:44:02.96Z</time></trkpt><trkpt lat="43.83789" lon="12.75762"><ele>65.0</ele><time>2026-03-29T09:44:03.96Z</time></trkpt><trkpt lat="43.83795" lon="12.7578967"><ele>66.0</ele><time>2026-03-29T09:44:04.959Z</time></trkpt><trkpt lat="43.8380033" lon="12.758175"><ele>67.0</ele><time>2026-03-29T09:44:05.96Z</time></trkpt><trkpt lat="43.83805" lon="12.758455"><ele>68.0</ele><time>2026-03-29T09:44:06.959Z</time></trkpt><trkpt lat="43.8381017" lon="12.75874"><ele>68.33333333333334</ele><time>2026-03-29T09:44:07.96Z</time></trkpt><trkpt lat="43.838155" lon="12.759025"><ele>68.66666666666667</ele><time>2026-03-29T09:44:08.96Z</time></trkpt><trkpt lat="43.83821" lon="12.75931"><ele>69.0</ele><time>2026-03-29T09:44:09.959Z</time></trkpt><trkpt lat="43.8382683" lon="12.7595933"><ele>69.33333333333333</ele><time>2026-03-29T09:44:10.96Z</time></trkpt><trkpt lat="43.8383233" lon="12.7598783"><ele>69.66666666666666</ele><time>2026-03-29T09:44:11.96Z</time></trkpt><trkpt lat="43.83838" lon="12.76017"><ele>70.0</ele><time>2026-03-29T09:44:12.96Z</time></trkpt><trkpt lat="43.8384383" lon="12.76046"><ele>70.0</ele><time>2026-03-29T09:44:13.96Z</time></trkpt><trkpt lat="43.83849" lon="12.7607467"><ele>70.0</ele><time>2026-03-29T09:44:14.96Z</time></trkpt><trkpt lat="43.8385417" lon="12.761035"><ele>70.0</ele><time>2026-03-29T09:44:15.959Z</time></trkpt><trkpt lat="43.8385983" lon="12.76132"><ele>70.0</ele><time>2026-03-29T09:44:16.96Z</time></trkpt><trkpt lat="43.8386583" lon="12.7616017"><ele>70.0</ele><time>2026-03-29T09:44:17.96Z</time></trkpt><trkpt lat="43.8387167" lon="12.7618817"><ele>70.0</ele><time>2026-03-29T09:44:18.96Z</time></trkpt><trkpt lat="43.8387783" lon="12.7621667"><ele>70.0</ele><time>2026-03-29T09:44:19.96Z</time></trkpt><trkpt lat="43.83884" lon="12.7624533"><ele>70.0</ele><time>2026-03-29T09:44:20.96Z</time></trkpt><trkpt lat="43.8389" lon="12.7627417"><ele>70.0</ele><time>2026-03-29T09:44:21.959Z</time></trkpt><trkpt lat="43.8389533" lon="12.7630333"><ele>69.0</ele><time>2026-03-29T09:44:22.96Z</time></trkpt><trkpt lat="43.8390083" lon="12.763325"><ele>68.0</ele><time>2026-03-29T09:44:23.959Z</time></trkpt><trkpt lat="43.8390633" lon="12.7636117"><ele>67.0</ele><time>2026-03-29T09:44:24.96Z</time></trkpt><trkpt lat="43.83912" lon="12.7639067"><ele>67.0</ele><time>2026-03-29T09:44:25.96Z</time></trkpt><trkpt lat="43.8391783" lon="12.7642017"><ele>67.0</ele><time>2026-03-29T09:44:26.96Z</time></trkpt><trkpt lat="43.83924" lon="12.7644967"><ele>67.0</ele><time>2026-03-29T09:44:27.96Z</time></trkpt><trkpt lat="43.8393" lon="12.7647867"><ele>67.33333333333333</ele><time>2026-03-29T09:44:28.959Z</time></trkpt><trkpt lat="43.839365" lon="12.76507"><ele>67.66666666666667</ele><time>2026-03-29T09:44:29.96Z</time></trkpt><trkpt lat="43.8394317" lon="12.7653433"><ele>68.0</ele><time>2026-03-29T09:44:30.96Z</time></trkpt><trkpt lat="43.8395133" lon="12.7656"><ele>68.0</ele><time>2026-03-29T09:44:31.959Z</time></trkpt><trkpt lat="43.839605" lon="12.7658533"><ele>68.0</ele><time>2026-03-29T09:44:32.959Z</time></trkpt><trkpt lat="43.83971" lon="12.7660883"><ele>68.0</ele><time>2026-03-29T09:44:33.959Z</time></trkpt><trkpt lat="43.8398217" lon="12.7663083"><ele>68.0</ele><time>2026-03-29T09:44:34.959Z</time></trkpt><trkpt lat="43.8399417" lon="12.7665083"><ele>68.0</ele><time>2026-03-29T09:44:35.959Z</time></trkpt><trkpt lat="43.8400583" lon="12.7666883"><ele>68.0</ele><time>2026-03-29T09:44:36.96Z</time></trkpt><trkpt lat="43.84016" lon="12.7668283"><ele>67.75</ele><time>2026-03-29T09:44:37.96Z</time></trkpt><trkpt lat="43.8402533" lon="12.7669667"><ele>67.5</ele><time>2026-03-29T09:44:38.959Z</time></trkpt><trkpt lat="43.8403333" lon="12.7671"><ele>67.25</ele><time>2026-03-29T09:44:39.96Z</time></trkpt><trkpt lat="43.8404" lon="12.76722"><ele>67.0</ele><time>2026-03-29T09:44:40.959Z</time></trkpt><trkpt lat="43.8404517" lon="12.767345"><ele>67.0</ele><time>2026-03-29T09:44:41.96Z</time></trkpt><trkpt lat="43.8404867" lon="12.7675"><ele>67.0</ele><time>2026-03-29T09:44:42.96Z</time></trkpt><trkpt lat="43.8405133" lon="12.7676767"><ele>67.0</ele><time>2026-03-29T09:44:43.959Z</time></trkpt><trkpt lat="43.84052" lon="12.7678567"><ele>67.0</ele><time>2026-03-29T09:44:44.959Z</time></trkpt><trkpt lat="43.840505" lon="12.7680333"><ele>67.0</ele><time>2026-03-29T09:44:45.959Z</time></trkpt><trkpt lat="43.8404633" lon="12.7682117"><ele>67.0</ele><time>2026-03-29T09:44:46.96Z</time></trkpt><trkpt lat="43.8404017" lon="12.7683933"><ele>67.0</ele><time>2026-03-29T09:44:47.96Z</time></trkpt><trkpt lat="43.8403217" lon="12.768585"><ele>67.0</ele><time>2026-03-29T09:44:48.96Z</time></trkpt><trkpt lat="43.8402367" lon="12.76878"><ele>67.0</ele><time>2026-03-29T09:44:49.96Z</time></trkpt><trkpt lat="43.840155" lon="12.768965"><ele>67.0</ele><time>2026-03-29T09:44:50.96Z</time></trkpt><trkpt lat="43.84008" lon="12.76913"><ele>67.0</ele><time>2026-03-29T09:44:51.959Z</time></trkpt><trkpt lat="43.8400117" lon="12.7692817"><ele>67.0</ele><time>2026-03-29T09:44:52.959Z</time></trkpt><trkpt lat="43.8399467" lon="12.7694167"><ele>68.6</ele><time>2026-03-29T09:44:53.96Z</time></trkpt><trkpt lat="43.8398767" lon="12.76953"><ele>70.2</ele><time>2026-03-29T09:44:54.96Z</time></trkpt><trkpt lat="43.8398067" lon="12.76964"><ele>71.8</ele><time>2026-03-29T09:44:55.959Z</time></trkpt><trkpt lat="43.83975" lon="12.769755"><ele>73.4</ele><time>2026-03-29T09:44:56.96Z</time></trkpt><trkpt lat="43.8397167" lon="12.76989"><ele>75.0</ele><time>2026-03-29T09:44:57.959Z</time></trkpt><trkpt lat="43.8397033" lon="12.770055"><ele>75.75</ele><time>2026-03-29T09:44:58.959Z</time></trkpt><trkpt lat="43.8397083" lon="12.7702167"><ele>76.5</ele><time>2026-03-29T09:44:59.96Z</time></trkpt><trkpt lat="43.839715" lon="12.770395"><ele>77.25</ele><time>2026-03-29T09:45:00.96Z</time></trkpt><trkpt lat="43.83971" lon="12.7705883"><ele>78.0</ele><time>2026-03-29T09:45:01.96Z</time></trkpt><trkpt lat="43.839705" lon="12.7708"><ele>78.66666666666667</ele><time>2026-03-29T09:45:02.96Z</time></trkpt><trkpt lat="43.83969" lon="12.77104"><ele>79.33333333333334</ele><time>2026-03-29T09:45:03.96Z</time></trkpt><trkpt lat="43.8396767" lon="12.77127"><ele>80.0</ele><time>2026-03-29T09:45:04.959Z</time></trkpt><trkpt lat="43.8396733" lon="12.7714983"><ele>80.0</ele><time>2026-03-29T09:45:05.959Z</time></trkpt><trkpt lat="43.8397033" lon="12.771705"><ele>80.0</ele><time>2026-03-29T09:45:06.959Z</time></trkpt><trkpt lat="43.83976" lon="12.771895"><ele>80.0</ele><time>2026-03-29T09:45:07.959Z</time></trkpt><trkpt lat="43.8398333" lon="12.7720783"><ele>82.5</ele><time>2026-03-29T09:45:08.959Z</time></trkpt><trkpt lat="43.8399183" lon="12.77226"><ele>85.0</ele><time>2026-03-29T09:45:09.96Z</time></trkpt><trkpt lat="43.8399967" lon="12.77241"><ele>87.5</ele><time>2026-03-29T09:45:10.96Z</time></trkpt><trkpt lat="43.8400417" lon="12.7725633"><ele>90.0</ele><time>2026-03-29T09:45:11.959Z</time></trkpt><trkpt lat="43.84007" lon="12.7726867"><ele>90.0</ele><time>2026-03-29T09:45:12.959Z</time></trkpt><trkpt lat="43.840075" lon="12.7728017"><ele>90.0</ele><time>2026-03-29T09:45:13.96Z</time></trkpt><trkpt lat="43.8400067" lon="12.7728883"><ele>90.0</ele><time>2026-03-29T09:45:15.96Z</time></trkpt><trkpt lat="43.8399433" lon="12.7728617"><ele>90.0</ele><time>2026-03-29T09:45:16.96Z</time></trkpt><trkpt lat="43.8398783" lon="12.7727833"><ele>90.0</ele><time>2026-03-29T09:45:17.959Z</time></trkpt><trkpt lat="43.8397867" lon="12.7726383"><ele>90.0</ele><time>2026-03-29T09:45:18.96Z</time></trkpt><trkpt lat="43.8396833" lon="12.772475"><ele>90.0</ele><time>2026-03-29T09:45:19.959Z</time></trkpt><trkpt lat="43.839555" lon="12.77233"><ele>90.0</ele><time>2026-03-29T09:45:20.96Z</time></trkpt><trkpt lat="43.839425" lon="12.77221"><ele>96.33333333333334</ele><time>2026-03-29T09:45:21.96Z</time></trkpt><trkpt lat="43.83928" lon="12.7721083"><ele>102.66666666666667</ele><time>2026-03-29T09:45:22.96Z</time></trkpt><trkpt lat="43.8391183" lon="12.77201"><ele>109.0</ele><time>2026-03-29T09:45:23.96Z</time></trkpt><trkpt lat="43.838965" lon="12.77193"><ele>109.0</ele><time>2026-03-29T09:45:24.96Z</time></trkpt><trkpt lat="43.83884" lon="12.7718683"><ele>109.0</ele><time>2026-03-29T09:45:25.959Z</time></trkpt><trkpt lat="43.8387367" lon="12.77182"><ele>109.0</ele><time>2026-03-29T09:45:26.959Z</time></trkpt><trkpt lat="43.8386467" lon="12.7717933"><ele>109.0</ele><time>2026-03-29T09:45:27.96Z</time></trkpt><trkpt lat="43.8385583" lon="12.7717867"><ele>109.0</ele><time>2026-03-29T09:45:28.96Z</time></trkpt><trkpt lat="43.8384883" lon="12.7718133"><ele>109.0</ele><time>2026-03-29T09:45:29.959Z</time></trkpt><trkpt lat="43.83843" lon="12.77196"><ele>109.0</ele><time>2026-03-29T09:45:31.959Z</time></trkpt><trkpt lat="43.8384317" lon="12.7720783"><ele>109.0</ele><time>2026-03-29T09:45:32.959Z</time></trkpt><trkpt lat="43.8384767" lon="12.7722283"><ele>109.0</ele><time>2026-03-29T09:45:33.959Z</time></trkpt><trkpt lat="43.8385517" lon="12.772405"><ele>109.0</ele><time>2026-03-29T09:45:34.96Z</time></trkpt><trkpt lat="43.8386567" lon="12.772625"><ele>109.0</ele><time>2026-03-29T09:45:35.959Z</time></trkpt><trkpt lat="43.8387433" lon="12.7728167"><ele>109.0</ele><time>2026-03-29T09:45:36.96Z</time></trkpt><trkpt lat="43.838805" lon="12.7729717"><ele>110.4</ele><time>2026-03-29T09:45:37.96Z</time></trkpt><trkpt lat="43.8388467" lon="12.77311"><ele>111.80000000000001</ele><time>2026-03-29T09:45:38.96Z</time></trkpt><trkpt lat="43.8388733" lon="12.7732183"><ele>113.19999999999999</ele><time>2026-03-29T09:45:39.96Z</time></trkpt><trkpt lat="43.8388917" lon="12.773315"><ele>114.6</ele><time>2026-03-29T09:45:40.959Z</time></trkpt><trkpt lat="43.8388433" lon="12.773415"><ele>116.0</ele><time>2026-03-29T09:45:42.96Z</time></trkpt><trkpt lat="43.8387167" lon="12.77328"><ele>116.0</ele><time>2026-03-29T09:45:44.96Z</time></trkpt><trkpt lat="43.8386067" lon="12.7731317"><ele>116.0</ele><time>2026-03-29T09:45:45.96Z</time></trkpt><trkpt lat="43.83847" lon="12.7729483"><ele>116.0</ele><time>2026-03-29T09:45:46.959Z</time></trkpt><trkpt lat="43.83831" lon="12.7727433"><ele>117.5</ele><time>2026-03-29T09:45:47.96Z</time></trkpt><trkpt lat="43.8381867" lon="12.7725817"><ele>119.0</ele><time>2026-03-29T09:45:48.959Z</time></trkpt><trkpt lat="43.8380733" lon="12.7724517"><ele>120.5</ele><time>2026-03-29T09:45:49.959Z</time></trkpt><trkpt lat="43.8379867" lon="12.7723383"><ele>122.0</ele><time>2026-03-29T09:45:50.96Z</time></trkpt><trkpt lat="43.8379117" lon="12.7722517"><ele>122.0</ele><time>2026-03-29T09:45:51.96Z</time></trkpt><trkpt lat="43.837835" lon="12.7721917"><ele>121.99999999999999</ele><time>2026-03-29T09:45:52.959Z</time></trkpt><trkpt lat="43.8377233" lon="12.7721883"><ele>121.99999999999999</ele><time>2026-03-29T09:45:54.96Z</time></trkpt><trkpt lat="43.8377" lon="12.772295"><ele>122.0</ele><time>2026-03-29T09:45:56.96Z</time></trkpt><trkpt lat="43.83777" lon="12.7723967"><ele>122.0</ele><time>2026-03-29T09:45:57.96Z</time></trkpt><trkpt lat="43.8378717" lon="12.7725267"><ele>122.0</ele><time>2026-03-29T09:45:58.96Z</time></trkpt><trkpt lat="43.837975" lon="12.77266"><ele>121.99999999999999</ele><time>2026-03-29T09:45:59.96Z</time></trkpt><trkpt lat="43.8380383" lon="12.7727783"><ele>121.99999999999999</ele><time>2026-03-29T09:46:00.96Z</time></trkpt><trkpt lat="43.8380933" lon="12.7728917"><ele>122.0</ele><time>2026-03-29T09:46:01.959Z</time></trkpt><trkpt lat="43.8381283" lon="12.7729817"><ele>122.0</ele><time>2026-03-29T09:46:02.959Z</time></trkpt><trkpt lat="43.8380983" lon="12.773085"><ele>122.0</ele><time>2026-03-29T09:46:04.96Z</time></trkpt><trkpt lat="43.8380183" lon="12.7730467"><ele>122.0</ele><time>2026-03-29T09:46:06.959Z</time></trkpt><trkpt lat="43.8379333" lon="12.772965"><ele>122.0</ele><time>2026-03-29T09:46:07.96Z</time></trkpt><trkpt lat="43.83782" lon="12.7728333"><ele>122.0</ele><time>2026-03-29T09:46:08.96Z</time></trkpt><trkpt lat="43.8376883" lon="12.7726733"><ele>128.33333333333331</ele><time>2026-03-29T09:46:09.96Z</time></trkpt><trkpt lat="43.8375633" lon="12.7724317"><ele>134.66666666666666</ele><time>2026-03-29T09:46:10.96Z</time></trkpt><trkpt lat="43.837475" lon="12.7722333"><ele>141.0</ele><time>2026-03-29T09:46:11.96Z</time></trkpt><trkpt lat="43.8374083" lon="12.7720733"><ele>141.0</ele><time>2026-03-29T09:46:12.959Z</time></trkpt><trkpt lat="43.837345" lon="12.7719517"><ele>141.0</ele><time>2026-03-29T09:46:13.959Z</time></trkpt><trkpt lat="43.8372767" lon="12.7718683"><ele>141.0</ele><time>2026-03-29T09:46:14.96Z</time></trkpt><trkpt lat="43.8371967" lon="12.771815"><ele>141.0</ele><time>2026-03-29T09:46:15.96Z</time></trkpt><trkpt lat="43.8371167" lon="12.7718"><ele>141.0</ele><time>2026-03-29T09:46:16.96Z</time></trkpt><trkpt lat="43.83705" lon="12.7718233"><ele>141.0</ele><time>2026-03-29T09:46:17.96Z</time></trkpt><trkpt lat="43.8369633" lon="12.7720067"><ele>141.0</ele><time>2026-03-29T09:46:19.96Z</time></trkpt><trkpt lat="43.8369233" lon="12.77217"><ele>141.0</ele><time>2026-03-29T09:46:20.96Z</time></trkpt><trkpt lat="43.836875" lon="12.77236"><ele>141.0</ele><time>2026-03-29T09:46:21.96Z</time></trkpt><trkpt lat="43.8368117" lon="12.772615"><ele>145.33333333333334</ele><time>2026-03-29T09:46:22.959Z</time></trkpt><trkpt lat="43.8367433" lon="12.7728717"><ele>149.66666666666669</ele><time>2026-03-29T09:46:23.959Z</time></trkpt><trkpt lat="43.836675" lon="12.7730667"><ele>154.0</ele><time>2026-03-29T09:46:24.959Z</time></trkpt><trkpt lat="43.836575" lon="12.7732383"><ele>154.0</ele><time>2026-03-29T09:46:25.96Z</time></trkpt><trkpt lat="43.836455" lon="12.773385"><ele>154.0</ele><time>2026-03-29T09:46:26.959Z</time></trkpt><trkpt lat="43.8363217" lon="12.7735083"><ele>154.0</ele><time>2026-03-29T09:46:27.96Z</time></trkpt><trkpt lat="43.836185" lon="12.7736267"><ele>157.0</ele><time>2026-03-29T09:46:28.96Z</time></trkpt><trkpt lat="43.8360467" lon="12.7737783"><ele>160.0</ele><time>2026-03-29T09:46:29.959Z</time></trkpt><trkpt lat="43.8359317" lon="12.7739183"><ele>163.0</ele><time>2026-03-29T09:46:30.959Z</time></trkpt><trkpt lat="43.8358217" lon="12.7741017"><ele>163.0</ele><time>2026-03-29T09:46:31.959Z</time></trkpt><trkpt lat="43.8357167" lon="12.774295"><ele>163.0</ele><time>2026-03-29T09:46:32.959Z</time></trkpt><trkpt lat="43.835625" lon="12.774485"><ele>163.0</ele><time>2026-03-29T09:46:33.959Z</time></trkpt><trkpt lat="43.8355383" lon="12.77467"><ele>165.25</ele><time>2026-03-29T09:46:34.96Z</time></trkpt><trkpt lat="43.835465" lon="12.77484"><ele>167.5</ele><time>2026-03-29T09:46:35.96Z</time></trkpt><trkpt lat="43.8354133" lon="12.77499"><ele>169.75</ele><time>2026-03-29T09:46:36.96Z</time></trkpt><trkpt lat="43.8353817" lon="12.7751533"><ele>172.0</ele><time>2026-03-29T09:46:37.959Z</time></trkpt><trkpt lat="43.8353917" lon="12.7753017"><ele>173.6</ele><time>2026-03-29T09:46:38.96Z</time></trkpt><trkpt lat="43.835435" lon="12.7754183"><ele>175.2</ele><time>2026-03-29T09:46:39.959Z</time></trkpt><trkpt lat="43.8354967" lon="12.7755033"><ele>176.8</ele><time>2026-03-29T09:46:40.96Z</time></trkpt><trkpt lat="43.83561" lon="12.77551"><ele>178.4</ele><time>2026-03-29T09:46:41.96Z</time></trkpt><trkpt lat="43.8357567" lon="12.7754583"><ele>180.0</ele><time>2026-03-29T09:46:42.96Z</time></trkpt><trkpt lat="43.835925" lon="12.7753817"><ele>183.66666666666666</ele><time>2026-03-29T09:46:43.96Z</time></trkpt><trkpt lat="43.8360867" lon="12.7753233"><ele>187.33333333333331</ele><time>2026-03-29T09:46:44.96Z</time></trkpt><trkpt lat="43.836245" lon="12.7752683"><ele>191.0</ele><time>2026-03-29T09:46:45.96Z</time></trkpt><trkpt lat="43.8363817" lon="12.7752267"><ele>191.0</ele><time>2026-03-29T09:46:46.96Z</time></trkpt><trkpt lat="43.8364983" lon="12.7751967"><ele>191.0</ele><time>2026-03-29T09:46:47.959Z</time></trkpt><trkpt lat="43.8365917" lon="12.77518"><ele>191.0</ele><time>2026-03-29T09:46:48.959Z</time></trkpt><trkpt lat="43.8366917" lon="12.775185"><ele>191.0</ele><time>2026-03-29T09:46:49.959Z</time></trkpt><trkpt lat="43.8367767" lon="12.77524"><ele>191.0</ele><time>2026-03-29T09:46:50.96Z</time></trkpt><trkpt lat="43.83682" lon="12.7753267"><ele>191.0</ele><time>2026-03-29T09:46:51.959Z</time></trkpt><trkpt lat="43.8368417" lon="12.7754183"><ele>191.0</ele><time>2026-03-29T09:46:52.96Z</time></trkpt><trkpt lat="43.8368183" lon="12.7755183"><ele>191.0</ele><time>2026-03-29T09:46:53.96Z</time></trkpt><trkpt lat="43.8367533" lon="12.7756217"><ele>191.0</ele><time>2026-03-29T09:46:54.96Z</time></trkpt><trkpt lat="43.83664" lon="12.7757333"><ele>191.0</ele><time>2026-03-29T09:46:55.959Z</time></trkpt><trkpt lat="43.8364967" lon="12.775855"><ele>191.0</ele><time>2026-03-29T09:46:56.959Z</time></trkpt><trkpt lat="43.8363967" lon="12.7759733"><ele>191.0</ele><time>2026-03-29T09:46:57.96Z</time></trkpt><trkpt lat="43.836335" lon="12.7760783"><ele>191.0</ele><time>2026-03-29T09:46:58.96Z</time></trkpt><trkpt lat="43.8363067" lon="12.7761817"><ele>191.0</ele><time>2026-03-29T09:46:59.959Z</time></trkpt><trkpt lat="43.8363" lon="12.7762833"><ele>191.0</ele><time>2026-03-29T09:47:00.96Z</time></trkpt><trkpt lat="43.8363567" lon="12.776385"><ele>192.20000000000002</ele><time>2026-03-29T09:47:02.96Z</time></trkpt><trkpt lat="43.836435" lon="12.7763767"><ele>193.4</ele><time>2026-03-29T09:47:03.96Z</time></trkpt><trkpt lat="43.8365317" lon="12.776365"><ele>194.6</ele><time>2026-03-29T09:47:04.959Z</time></trkpt><trkpt lat="43.836665" lon="12.776345"><ele>195.8</ele><time>2026-03-29T09:47:05.96Z</time></trkpt><trkpt lat="43.83678" lon="12.77637"><ele>197.0</ele><time>2026-03-29T09:47:06.959Z</time></trkpt><trkpt lat="43.8368617" lon="12.7764417"><ele>194.2</ele><time>2026-03-29T09:47:07.96Z</time></trkpt><trkpt lat="43.8369183" lon="12.776535"><ele>191.39999999999998</ele><time>2026-03-29T09:47:08.96Z</time></trkpt><trkpt lat="43.8369617" lon="12.7766367"><ele>188.60000000000002</ele><time>2026-03-29T09:47:09.96Z</time></trkpt><trkpt lat="43.836985" lon="12.77677"><ele>185.8</ele><time>2026-03-29T09:47:10.96Z</time></trkpt><trkpt lat="43.83698" lon="12.7769483"><ele>183.0</ele><time>2026-03-29T09:47:11.96Z</time></trkpt><trkpt lat="43.8369433" lon="12.7771833"><ele>183.0</ele><time>2026-03-29T09:47:12.96Z</time></trkpt><trkpt lat="43.8368967" lon="12.77748"><ele>183.0</ele><time>2026-03-29T09:47:13.96Z</time></trkpt><trkpt lat="43.8368467" lon="12.7778017"><ele>185.33333333333334</ele><time>2026-03-29T09:47:14.96Z</time></trkpt><trkpt lat="43.83681" lon="12.7780883"><ele>187.66666666666669</ele><time>2026-03-29T09:47:15.96Z</time></trkpt><trkpt lat="43.8367717" lon="12.77836"><ele>190.0</ele><time>2026-03-29T09:47:16.96Z</time></trkpt><trkpt lat="43.8367333" lon="12.778605"><ele>195.0</ele><time>2026-03-29T09:47:17.959Z</time></trkpt><trkpt lat="43.8367033" lon="12.7788567"><ele>200.0</ele><time>2026-03-29T09:47:18.96Z</time></trkpt><trkpt lat="43.8366933" lon="12.77911"><ele>205.0</ele><time>2026-03-29T09:47:19.96Z</time></trkpt><trkpt lat="43.8367067" lon="12.779355"><ele>205.66666666666666</ele><time>2026-03-29T09:47:20.96Z</time></trkpt><trkpt lat="43.836755" lon="12.7796017"><ele>206.33333333333331</ele><time>2026-03-29T09:47:21.96Z</time></trkpt><trkpt lat="43.836815" lon="12.7798567"><ele>207.0</ele><time>2026-03-29T09:47:22.96Z</time></trkpt><trkpt lat="43.836865" lon="12.7801233"><ele>204.33333333333331</ele><time>2026-03-29T09:47:23.96Z</time></trkpt><trkpt lat="43.836895" lon="12.78038"><ele>201.66666666666666</ele><time>2026-03-29T09:47:24.959Z</time></trkpt><trkpt lat="43.83691" lon="12.78063"><ele>199.0</ele><time>2026-03-29T09:47:25.959Z</time></trkpt><trkpt lat="43.8369133" lon="12.7808767"><ele>200.33333333333331</ele><time>2026-03-29T09:47:26.959Z</time></trkpt><trkpt lat="43.836905" lon="12.7811333"><ele>201.66666666666669</ele><time>2026-03-29T09:47:27.96Z</time></trkpt><trkpt lat="43.8368883" lon="12.7813917"><ele>203.0</ele><time>2026-03-29T09:47:28.96Z</time></trkpt><trkpt lat="43.8368683" lon="12.7816483"><ele>204.33333333333334</ele><time>2026-03-29T09:47:29.96Z</time></trkpt><trkpt lat="43.836835" lon="12.7818967"><ele>205.66666666666669</ele><time>2026-03-29T09:47:30.959Z</time></trkpt><trkpt lat="43.836795" lon="12.7821367"><ele>207.0</ele><time>2026-03-29T09:47:31.96Z</time></trkpt><trkpt lat="43.83674" lon="12.7823733"><ele>209.33333333333331</ele><time>2026-03-29T09:47:32.959Z</time></trkpt><trkpt lat="43.83667" lon="12.7826"><ele>211.66666666666666</ele><time>2026-03-29T09:47:33.959Z</time></trkpt><trkpt lat="43.8365833" lon="12.7828333"><ele>214.0</ele><time>2026-03-29T09:47:34.96Z</time></trkpt><trkpt lat="43.836495" lon="12.78306"><ele>214.33333333333331</ele><time>2026-03-29T09:47:35.96Z</time></trkpt><trkpt lat="43.8364033" lon="12.7832783"><ele>214.66666666666669</ele><time>2026-03-29T09:47:36.96Z</time></trkpt><trkpt lat="43.8363" lon="12.7834917"><ele>215.0</ele><time>2026-03-29T09:47:37.959Z</time></trkpt><trkpt lat="43.8361933" lon="12.7837067"><ele>215.0</ele><time>2026-03-29T09:47:38.959Z</time></trkpt><trkpt lat="43.8360833" lon="12.78392"><ele>215.0</ele><time>2026-03-29T09:47:39.96Z</time></trkpt><trkpt lat="43.835975" lon="12.784135"><ele>215.0</ele><time>2026-03-29T09:47:40.96Z</time></trkpt><trkpt lat="43.8358683" lon="12.78435"><ele>218.0</ele><time>2026-03-29T09:47:41.96Z</time></trkpt><trkpt lat="43.8357633" lon="12.7845633"><ele>221.0</ele><time>2026-03-29T09:47:42.96Z</time></trkpt><trkpt lat="43.8356683" lon="12.7847667"><ele>224.0</ele><time>2026-03-29T09:47:43.959Z</time></trkpt><trkpt lat="43.8355767" lon="12.78497"><ele>224.0</ele><time>2026-03-29T09:47:44.959Z</time></trkpt><trkpt lat="43.8354967" lon="12.78516"><ele>224.0</ele><time>2026-03-29T09:47:45.96Z</time></trkpt><trkpt lat="43.8354133" lon="12.785345"><ele>224.0</ele><time>2026-03-29T09:47:46.96Z</time></trkpt><trkpt lat="43.835335" lon="12.78552"><ele>224.0</ele><time>2026-03-29T09:47:47.96Z</time></trkpt><trkpt lat="43.835265" lon="12.78569"><ele>224.0</ele><time>2026-03-29T09:47:48.959Z</time></trkpt><trkpt lat="43.8351933" lon="12.7858433"><ele>224.0</ele><time>2026-03-29T09:47:49.96Z</time></trkpt><trkpt lat="43.8351233" lon="12.7859833"><ele>224.0</ele><time>2026-03-29T09:47:50.96Z</time></trkpt><trkpt lat="43.83505" lon="12.786115"><ele>225.0</ele><time>2026-03-29T09:47:51.96Z</time></trkpt><trkpt lat="43.834965" lon="12.7862383"><ele>226.0</ele><time>2026-03-29T09:47:52.96Z</time></trkpt><trkpt lat="43.8348717" lon="12.78635"><ele>227.0</ele><time>2026-03-29T09:47:53.96Z</time></trkpt><trkpt lat="43.8347683" lon="12.7864567"><ele>228.0</ele><time>2026-03-29T09:47:54.959Z</time></trkpt><trkpt lat="43.8346667" lon="12.78656"><ele>228.0</ele><time>2026-03-29T09:47:55.959Z</time></trkpt><trkpt lat="43.83457" lon="12.7866583"><ele>228.0</ele><time>2026-03-29T09:47:56.96Z</time></trkpt><trkpt lat="43.83448" lon="12.7867517"><ele>228.0</ele><time>2026-03-29T09:47:57.96Z</time></trkpt><trkpt lat="43.8343917" lon="12.786845"><ele>228.0</ele><time>2026-03-29T09:47:58.959Z</time></trkpt><trkpt lat="43.834305" lon="12.7869367"><ele>231.4</ele><time>2026-03-29T09:47:59.96Z</time></trkpt><trkpt lat="43.8342183" lon="12.7870217"><ele>234.8</ele><time>2026-03-29T09:48:00.96Z</time></trkpt><trkpt lat="43.8341317" lon="12.7871067"><ele>238.2</ele><time>2026-03-29T09:48:01.96Z</time></trkpt><trkpt lat="43.8340433" lon="12.7871883"><ele>241.6</ele><time>2026-03-29T09:48:02.959Z</time></trkpt><trkpt lat="43.833955" lon="12.7872683"><ele>245.0</ele><time>2026-03-29T09:48:03.96Z</time></trkpt><trkpt lat="43.8338683" lon="12.7873283"><ele>245.0</ele><time>2026-03-29T09:48:04.959Z</time></trkpt><trkpt lat="43.833785" lon="12.7873933"><ele>245.0</ele><time>2026-03-29T09:48:05.959Z</time></trkpt><trkpt lat="43.8337" lon="12.7874683"><ele>245.0</ele><time>2026-03-29T09:48:06.96Z</time></trkpt><trkpt lat="43.8336167" lon="12.787545"><ele>245.0</ele><time>2026-03-29T09:48:07.959Z</time></trkpt><trkpt lat="43.83354" lon="12.7876217"><ele>245.0</ele><time>2026-03-29T09:48:08.959Z</time></trkpt><trkpt lat="43.833465" lon="12.7877"><ele>247.6</ele><time>2026-03-29T09:48:09.96Z</time></trkpt><trkpt lat="43.8333883" lon="12.7877817"><ele>250.2</ele><time>2026-03-29T09:48:10.96Z</time></trkpt><trkpt lat="43.8333067" lon="12.78786"><ele>252.8</ele><time>2026-03-29T09:48:11.959Z</time></trkpt><trkpt lat="43.8332283" lon="12.7879383"><ele>255.4</ele><time>2026-03-29T09:48:12.959Z</time></trkpt><trkpt lat="43.8331483" lon="12.7880217"><ele>258.0</ele><time>2026-03-29T09:48:13.959Z</time></trkpt><trkpt lat="43.8330683" lon="12.7881033"><ele>258.0</ele><time>2026-03-29T09:48:14.96Z</time></trkpt><trkpt lat="43.8329833" lon="12.7881767"><ele>258.0</ele><time>2026-03-29T09:48:15.959Z</time></trkpt><trkpt lat="43.8328967" lon="12.7882467"><ele>258.0</ele><time>2026-03-29T09:48:16.959Z</time></trkpt><trkpt lat="43.8328067" lon="12.7883117"><ele>258.0</ele><time>2026-03-29T09:48:17.959Z</time></trkpt><trkpt lat="43.8327117" lon="12.7883733"><ele>258.0</ele><time>2026-03-29T09:48:18.96Z</time></trkpt><trkpt lat="43.8326183" lon="12.7884283"><ele>256.8</ele><time>2026-03-29T09:48:19.96Z</time></trkpt><trkpt lat="43.8325267" lon="12.7884817"><ele>255.60000000000002</ele><time>2026-03-29T09:48:20.959Z</time></trkpt><trkpt lat="43.8324333" lon="12.78854"><ele>254.39999999999998</ele><time>2026-03-29T09:48:21.959Z</time></trkpt><trkpt lat="43.832335" lon="12.7885967"><ele>253.2</ele><time>2026-03-29T09:48:22.959Z</time></trkpt><trkpt lat="43.832235" lon="12.788655"><ele>252.0</ele><time>2026-03-29T09:48:23.96Z</time></trkpt><trkpt lat="43.8321333" lon="12.7887133"><ele>254.0</ele><time>2026-03-29T09:48:24.959Z</time></trkpt><trkpt lat="43.8320367" lon="12.788775"><ele>256.0</ele><time>2026-03-29T09:48:25.96Z</time></trkpt><trkpt lat="43.8319383" lon="12.7888417"><ele>258.0</ele><time>2026-03-29T09:48:26.959Z</time></trkpt><trkpt lat="43.83184" lon="12.7889067"><ele>260.0</ele><time>2026-03-29T09:48:27.96Z</time></trkpt><trkpt lat="43.8317467" lon="12.7889667"><ele>262.0</ele><time>2026-03-29T09:48:28.96Z</time></trkpt><trkpt lat="43.8316517" lon="12.7890317"><ele>262.0</ele><time>2026-03-29T09:48:29.96Z</time></trkpt><trkpt lat="43.831555" lon="12.7890917"><ele>262.0</ele><time>2026-03-29T09:48:30.96Z</time></trkpt><trkpt lat="43.8314617" lon="12.78915"><ele>262.0</ele><time>2026-03-29T09:48:31.96Z</time></trkpt><trkpt lat="43.8313667" lon="12.7892167"><ele>262.0</ele><time>2026-03-29T09:48:32.96Z</time></trkpt><trkpt lat="43.831275" lon="12.789275"><ele>262.0</ele><time>2026-03-29T09:48:33.96Z</time></trkpt><trkpt lat="43.8311867" lon="12.78933"><ele>262.4</ele><time>2026-03-29T09:48:34.959Z</time></trkpt><trkpt lat="43.8311" lon="12.7893867"><ele>262.79999999999995</ele><time>2026-03-29T09:48:35.959Z</time></trkpt><trkpt lat="43.831015" lon="12.7894517"><ele>263.2</ele><time>2026-03-29T09:48:36.959Z</time></trkpt><trkpt lat="43.8309333" lon="12.7895217"><ele>263.59999999999997</ele><time>2026-03-29T09:48:37.96Z</time></trkpt><trkpt lat="43.8308533" lon="12.78961"><ele>264.0</ele><time>2026-03-29T09:48:38.96Z</time></trkpt><trkpt lat="43.83078" lon="12.7897133"><ele>264.0</ele><time>2026-03-29T09:48:39.959Z</time></trkpt><trkpt lat="43.8307183" lon="12.7898317"><ele>264.0</ele><time>2026-03-29T09:48:40.96Z</time></trkpt><trkpt lat="43.830665" lon="12.7899517"><ele>264.0</ele><time>2026-03-29T09:48:41.96Z</time></trkpt><trkpt lat="43.8306167" lon="12.7900683"><ele>264.0</ele><time>2026-03-29T09:48:42.959Z</time></trkpt><trkpt lat="43.8305767" lon="12.7901783"><ele>264.0</ele><time>2026-03-29T09:48:43.96Z</time></trkpt><trkpt lat="43.8305367" lon="12.79029"><ele>265.5</ele><time>2026-03-29T09:48:44.96Z</time></trkpt><trkpt lat="43.8305" lon="12.7903933"><ele>267.0</ele><time>2026-03-29T09:48:45.96Z</time></trkpt><trkpt lat="43.8304683" lon="12.79049"><ele>268.5</ele><time>2026-03-29T09:48:46.959Z</time></trkpt><trkpt lat="43.830435" lon="12.7905867"><ele>270.0</ele><time>2026-03-29T09:48:47.96Z</time></trkpt><trkpt lat="43.8303983" lon="12.7906833"><ele>271.5</ele><time>2026-03-29T09:48:48.96Z</time></trkpt><trkpt lat="43.8303683" lon="12.79078"><ele>273.0</ele><time>2026-03-29T09:48:49.959Z</time></trkpt><trkpt lat="43.8303383" lon="12.7908817"><ele>273.0</ele><time>2026-03-29T09:48:50.96Z</time></trkpt><trkpt lat="43.8303033" lon="12.7909833"><ele>273.0</ele><time>2026-03-29T09:48:51.96Z</time></trkpt><trkpt lat="43.83027" lon="12.791085"><ele>273.0</ele><time>2026-03-29T09:48:52.96Z</time></trkpt><trkpt lat="43.83024" lon="12.791195"><ele>273.0</ele><time>2026-03-29T09:48:53.96Z</time></trkpt><trkpt lat="43.8302183" lon="12.7913117"><ele>273.0</ele><time>2026-03-29T09:48:54.959Z</time></trkpt><trkpt lat="43.830205" lon="12.7914367"><ele>273.0</ele><time>2026-03-29T09:48:55.959Z</time></trkpt><trkpt lat="43.8302183" lon="12.79156"><ele>273.4</ele><time>2026-03-29T09:48:56.96Z</time></trkpt><trkpt lat="43.8302467" lon="12.7916867"><ele>273.8</ele><time>2026-03-29T09:48:57.96Z</time></trkpt><trkpt lat="43.83029" lon="12.7918167"><ele>274.2</ele><time>2026-03-29T09:48:58.96Z</time></trkpt><trkpt lat="43.8303433" lon="12.7919433"><ele>274.6</ele><time>2026-03-29T09:48:59.96Z</time></trkpt><trkpt lat="43.8303983" lon="12.7920717"><ele>275.0</ele><time>2026-03-29T09:49:00.96Z</time></trkpt><trkpt lat="43.8304517" lon="12.7921967"><ele>273.6</ele><time>2026-03-29T09:49:01.96Z</time></trkpt><trkpt lat="43.8305033" lon="12.7923167"><ele>272.2</ele><time>2026-03-29T09:49:02.96Z</time></trkpt><trkpt lat="43.8305533" lon="12.7924417"><ele>270.8</ele><time>2026-03-29T09:49:03.96Z</time></trkpt><trkpt lat="43.8305983" lon="12.7925767"><ele>269.4</ele><time>2026-03-29T09:49:04.959Z</time></trkpt><trkpt lat="43.830635" lon="12.79272"><ele>268.0</ele><time>2026-03-29T09:49:05.959Z</time></trkpt><trkpt lat="43.8306683" lon="12.7928783"><ele>266.75</ele><time>2026-03-29T09:49:06.96Z</time></trkpt><trkpt lat="43.8306917" lon="12.7930483"><ele>265.5</ele><time>2026-03-29T09:49:07.96Z</time></trkpt><trkpt lat="43.8306983" lon="12.793205"><ele>264.25</ele><time>2026-03-29T09:49:08.959Z</time></trkpt><trkpt lat="43.8307033" lon="12.7933633"><ele>263.0</ele><time>2026-03-29T09:49:09.96Z</time></trkpt><trkpt lat="43.8306933" lon="12.7935067"><ele>263.0</ele><time>2026-03-29T09:49:10.96Z</time></trkpt><trkpt lat="43.8306683" lon="12.79364"><ele>263.0</ele><time>2026-03-29T09:49:11.96Z</time></trkpt><trkpt lat="43.8306333" lon="12.7937717"><ele>263.0</ele><time>2026-03-29T09:49:12.959Z</time></trkpt><trkpt lat="43.830585" lon="12.793895"><ele>263.0</ele><time>2026-03-29T09:49:13.96Z</time></trkpt><trkpt lat="43.8305283" lon="12.7940033"><ele>263.0</ele><time>2026-03-29T09:49:14.96Z</time></trkpt><trkpt lat="43.8304683" lon="12.7941167"><ele>263.0</ele><time>2026-03-29T09:49:15.96Z</time></trkpt><trkpt lat="43.830405" lon="12.794235"><ele>263.0</ele><time>2026-03-29T09:49:16.96Z</time></trkpt><trkpt lat="43.8303383" lon="12.79435"><ele>263.0</ele><time>2026-03-29T09:49:17.959Z</time></trkpt><trkpt lat="43.8302817" lon="12.7944583"><ele>263.0</ele><time>2026-03-29T09:49:18.96Z</time></trkpt><trkpt lat="43.830225" lon="12.794565"><ele>263.0</ele><time>2026-03-29T09:49:19.959Z</time></trkpt><trkpt lat="43.8301717" lon="12.79467"><ele>261.4</ele><time>2026-03-29T09:49:20.96Z</time></trkpt><trkpt lat="43.8301233" lon="12.794775"><ele>259.8</ele><time>2026-03-29T09:49:21.96Z</time></trkpt><trkpt lat="43.83007" lon="12.79488"><ele>258.2</ele><time>2026-03-29T09:49:22.96Z</time></trkpt><trkpt lat="43.8300117" lon="12.794985"><ele>256.6</ele><time>2026-03-29T09:49:23.96Z</time></trkpt><trkpt lat="43.8299517" lon="12.7950833"><ele>255.0</ele><time>2026-03-29T09:49:24.96Z</time></trkpt><trkpt lat="43.8298767" lon="12.7951917"><ele>254.25</ele><time>2026-03-29T09:49:25.959Z</time></trkpt><trkpt lat="43.8297933" lon="12.79531"><ele>253.5</ele><time>2026-03-29T09:49:26.96Z</time></trkpt><trkpt lat="43.829695" lon="12.7954483"><ele>252.75</ele><time>2026-03-29T09:49:27.96Z</time></trkpt><trkpt lat="43.8295733" lon="12.7956333"><ele>252.0</ele><time>2026-03-29T09:49:28.96Z</time></trkpt><trkpt lat="43.8294267" lon="12.7958567"><ele>252.66666666666669</ele><time>2026-03-29T09:49:29.96Z</time></trkpt><trkpt lat="43.8293067" lon="12.7960733"><ele>253.33333333333334</ele><time>2026-03-29T09:49:30.96Z</time></trkpt><trkpt lat="43.82919" lon="12.7962783"><ele>254.0</ele><time>2026-03-29T09:49:31.96Z</time></trkpt><trkpt lat="43.829075" lon="12.79646"><ele>254.0</ele><time>2026-03-29T09:49:32.96Z</time></trkpt><trkpt lat="43.8289667" lon="12.7966167"><ele>254.0</ele><time>2026-03-29T09:49:33.96Z</time></trkpt><trkpt lat="43.82885" lon="12.7967517"><ele>254.0</ele><time>2026-03-29T09:49:34.959Z</time></trkpt><trkpt lat="43.828715" lon="12.79685"><ele>254.66666666666669</ele><time>2026-03-29T09:49:35.959Z</time></trkpt><trkpt lat="43.8285533" lon="12.7969067"><ele>255.33333333333331</ele><time>2026-03-29T09:49:36.96Z</time></trkpt><trkpt lat="43.8283817" lon="12.7969533"><ele>256.0</ele><time>2026-03-29T09:49:37.96Z</time></trkpt><trkpt lat="43.8282083" lon="12.797025"><ele>256.0</ele><time>2026-03-29T09:49:38.959Z</time></trkpt><trkpt lat="43.8280433" lon="12.7971433"><ele>256.0</ele><time>2026-03-29T09:49:39.96Z</time></trkpt><trkpt lat="43.8278917" lon="12.7973033"><ele>256.0</ele><time>2026-03-29T09:49:40.96Z</time></trkpt><trkpt lat="43.8277483" lon="12.7975033"><ele>260.0</ele><time>2026-03-29T09:49:41.96Z</time></trkpt><trkpt lat="43.8276117" lon="12.7977383"><ele>264.0</ele><time>2026-03-29T09:49:42.96Z</time></trkpt><trkpt lat="43.8274733" lon="12.7980083"><ele>264.0</ele><time>2026-03-29T09:49:43.96Z</time></trkpt><trkpt lat="43.8273417" lon="12.7982617"><ele>264.0</ele><time>2026-03-29T09:49:44.959Z</time></trkpt><trkpt lat="43.8272183" lon="12.798515"><ele>264.0</ele><time>2026-03-29T09:49:45.959Z</time></trkpt><trkpt lat="43.8271217" lon="12.7987617"><ele>264.0</ele><time>2026-03-29T09:49:46.96Z</time></trkpt><trkpt lat="43.8270467" lon="12.7990233"><ele>264.0</ele><time>2026-03-29T09:49:47.959Z</time></trkpt><trkpt lat="43.8269817" lon="12.7993167"><ele>264.0</ele><time>2026-03-29T09:49:48.96Z</time></trkpt><trkpt lat="43.826975" lon="12.79957"><ele>265.3333333333333</ele><time>2026-03-29T09:49:49.96Z</time></trkpt><trkpt lat="43.8269567" lon="12.7998233"><ele>266.66666666666663</ele><time>2026-03-29T09:49:50.96Z</time></trkpt><trkpt lat="43.8269517" lon="12.800055"><ele>268.0</ele><time>2026-03-29T09:49:51.96Z</time></trkpt><trkpt lat="43.8269717" lon="12.80028"><ele>270.66666666666663</ele><time>2026-03-29T09:49:52.959Z</time></trkpt><trkpt lat="43.8270233" lon="12.800495"><ele>273.3333333333333</ele><time>2026-03-29T09:49:53.96Z</time></trkpt><trkpt lat="43.8271083" lon="12.80069"><ele>276.0</ele><time>2026-03-29T09:49:54.96Z</time></trkpt><trkpt lat="43.8272033" lon="12.80092"><ele>282.0</ele><time>2026-03-29T09:49:55.959Z</time></trkpt><trkpt lat="43.8273167" lon="12.8011367"><ele>288.0</ele><time>2026-03-29T09:49:56.96Z</time></trkpt><trkpt lat="43.82743" lon="12.8013483"><ele>294.0</ele><time>2026-03-29T09:49:57.959Z</time></trkpt><trkpt lat="43.82755" lon="12.8015433"><ele>295.6666666666667</ele><time>2026-03-29T09:49:58.96Z</time></trkpt><trkpt lat="43.8276667" lon="12.8017167"><ele>297.33333333333337</ele><time>2026-03-29T09:49:59.96Z</time></trkpt><trkpt lat="43.8277917" lon="12.8018567"><ele>299.0</ele><time>2026-03-29T09:50:00.96Z</time></trkpt><trkpt lat="43.8279383" lon="12.801975"><ele>299.0</ele><time>2026-03-29T09:50:01.96Z</time></trkpt><trkpt lat="43.8281067" lon="12.8020567"><ele>299.0</ele><time>2026-03-29T09:50:02.959Z</time></trkpt><trkpt lat="43.8282617" lon="12.8021267"><ele>299.0</ele><time>2026-03-29T09:50:03.959Z</time></trkpt><trkpt lat="43.8283883" lon="12.8021917"><ele>294.59999999999997</ele><time>2026-03-29T09:50:04.96Z</time></trkpt><trkpt lat="43.8284933" lon="12.8022667"><ele>290.2</ele><time>2026-03-29T09:50:05.96Z</time></trkpt><trkpt lat="43.8285633" lon="12.8023567"><ele>285.79999999999995</ele><time>2026-03-29T09:50:06.959Z</time></trkpt><trkpt lat="43.8286017" lon="12.8024617"><ele>281.4</ele><time>2026-03-29T09:50:07.959Z</time></trkpt><trkpt lat="43.8286133" lon="12.802575"><ele>277.0</ele><time>2026-03-29T09:50:08.96Z</time></trkpt><trkpt lat="43.8285983" lon="12.8026767"><ele>276.0</ele><time>2026-03-29T09:50:09.96Z</time></trkpt><trkpt lat="43.828555" lon="12.8027733"><ele>275.0</ele><time>2026-03-29T09:50:10.96Z</time></trkpt><trkpt lat="43.8285033" lon="12.802855"><ele>274.0</ele><time>2026-03-29T09:50:11.96Z</time></trkpt><trkpt lat="43.8284267" lon="12.80298"><ele>273.0</ele><time>2026-03-29T09:50:12.96Z</time></trkpt><trkpt lat="43.8283317" lon="12.80312"><ele>272.0</ele><time>2026-03-29T09:50:13.959Z</time></trkpt><trkpt lat="43.8282317" lon="12.8032267"><ele>277.0</ele><time>2026-03-29T09:50:14.96Z</time></trkpt><trkpt lat="43.8281183" lon="12.803295"><ele>282.0</ele><time>2026-03-29T09:50:15.96Z</time></trkpt><trkpt lat="43.827975" lon="12.8033133"><ele>287.0</ele><time>2026-03-29T09:50:16.959Z</time></trkpt><trkpt lat="43.8278167" lon="12.8032983"><ele>292.0</ele><time>2026-03-29T09:50:17.959Z</time></trkpt><trkpt lat="43.8276717" lon="12.803245"><ele>294.0</ele><time>2026-03-29T09:50:18.959Z</time></trkpt><trkpt lat="43.8275033" lon="12.8031683"><ele>296.0</ele><time>2026-03-29T09:50:19.959Z</time></trkpt><trkpt lat="43.8273267" lon="12.8030817"><ele>298.0</ele><time>2026-03-29T09:50:20.96Z</time></trkpt><trkpt lat="43.8271483" lon="12.803"><ele>298.0</ele><time>2026-03-29T09:50:21.96Z</time></trkpt><trkpt lat="43.8269917" lon="12.8029217"><ele>298.0</ele><time>2026-03-29T09:50:22.96Z</time></trkpt><trkpt lat="43.8268483" lon="12.8028783"><ele>298.0</ele><time>2026-03-29T09:50:23.96Z</time></trkpt><trkpt lat="43.8267083" lon="12.8028817"><ele>298.25</ele><time>2026-03-29T09:50:24.96Z</time></trkpt><trkpt lat="43.8265633" lon="12.80293"><ele>298.5</ele><time>2026-03-29T09:50:25.96Z</time></trkpt><trkpt lat="43.826425" lon="12.8029917"><ele>298.75</ele><time>2026-03-29T09:50:26.96Z</time></trkpt><trkpt lat="43.8263033" lon="12.803075"><ele>299.0</ele><time>2026-03-29T09:50:27.96Z</time></trkpt><trkpt lat="43.8261933" lon="12.8031383"><ele>299.0</ele><time>2026-03-29T09:50:28.96Z</time></trkpt><trkpt lat="43.8260967" lon="12.80319"><ele>299.0</ele><time>2026-03-29T09:50:29.96Z</time></trkpt><trkpt lat="43.8260033" lon="12.8032333"><ele>299.0</ele><time>2026-03-29T09:50:30.96Z</time></trkpt><trkpt lat="43.8259017" lon="12.80328"><ele>299.0</ele><time>2026-03-29T09:50:31.96Z</time></trkpt><trkpt lat="43.825805" lon="12.8032883"><ele>299.0</ele><time>2026-03-29T09:50:32.96Z</time></trkpt><trkpt lat="43.825715" lon="12.8033217"><ele>300.59999999999997</ele><time>2026-03-29T09:50:33.959Z</time></trkpt><trkpt lat="43.8256317" lon="12.8033433"><ele>302.2</ele><time>2026-03-29T09:50:34.959Z</time></trkpt><trkpt lat="43.825555" lon="12.8033433"><ele>303.79999999999995</ele><time>2026-03-29T09:50:35.96Z</time></trkpt><trkpt lat="43.825445" lon="12.8033267"><ele>305.4</ele><time>2026-03-29T09:50:37.959Z</time></trkpt><trkpt lat="43.82536" lon="12.803345"><ele>307.0</ele><time>2026-03-29T09:50:39.959Z</time></trkpt><trkpt lat="43.8252467" lon="12.8034367"><ele>304.5</ele><time>2026-03-29T09:50:41.96Z</time></trkpt><trkpt lat="43.825175" lon="12.8034983"><ele>302.0</ele><time>2026-03-29T09:50:42.96Z</time></trkpt><trkpt lat="43.82509" lon="12.80359"><ele>299.5</ele><time>2026-03-29T09:50:43.96Z</time></trkpt><trkpt lat="43.8250083" lon="12.80371"><ele>297.0</ele><time>2026-03-29T09:50:44.959Z</time></trkpt><trkpt lat="43.8249033" lon="12.803875"><ele>297.0</ele><time>2026-03-29T09:50:45.959Z</time></trkpt><trkpt lat="43.8248067" lon="12.8040417"><ele>297.0</ele><time>2026-03-29T09:50:46.96Z</time></trkpt><trkpt lat="43.8247167" lon="12.8042033"><ele>297.0</ele><time>2026-03-29T09:50:47.96Z</time></trkpt><trkpt lat="43.8246433" lon="12.8043883"><ele>294.25</ele><time>2026-03-29T09:50:48.959Z</time></trkpt><trkpt lat="43.8245767" lon="12.804575"><ele>291.5</ele><time>2026-03-29T09:50:49.96Z</time></trkpt><trkpt lat="43.82455" lon="12.8047533"><ele>288.75</ele><time>2026-03-29T09:50:50.96Z</time></trkpt><trkpt lat="43.82453" lon="12.8049417"><ele>286.0</ele><time>2026-03-29T09:50:51.96Z</time></trkpt><trkpt lat="43.8245717" lon="12.8051483"><ele>285.0</ele><time>2026-03-29T09:50:52.96Z</time></trkpt><trkpt lat="43.824605" lon="12.805355"><ele>284.0</ele><time>2026-03-29T09:50:53.96Z</time></trkpt><trkpt lat="43.8246567" lon="12.8055667"><ele>283.0</ele><time>2026-03-29T09:50:54.96Z</time></trkpt><trkpt lat="43.8247217" lon="12.8057783"><ele>288.3333333333333</ele><time>2026-03-29T09:50:55.96Z</time></trkpt><trkpt lat="43.8247967" lon="12.8059967"><ele>293.6666666666667</ele><time>2026-03-29T09:50:56.959Z</time></trkpt><trkpt lat="43.824875" lon="12.8062167"><ele>299.0</ele><time>2026-03-29T09:50:57.96Z</time></trkpt><trkpt lat="43.8249683" lon="12.8064167"><ele>299.0</ele><time>2026-03-29T09:50:58.96Z</time></trkpt><trkpt lat="43.8250517" lon="12.8066067"><ele>299.0</ele><time>2026-03-29T09:50:59.96Z</time></trkpt><trkpt lat="43.8251217" lon="12.8068083"><ele>299.0</ele><time>2026-03-29T09:51:00.959Z</time></trkpt><trkpt lat="43.8251817" lon="12.806995"><ele>289.33333333333337</ele><time>2026-03-29T09:51:01.96Z</time></trkpt><trkpt lat="43.8252167" lon="12.8072033"><ele>279.6666666666667</ele><time>2026-03-29T09:51:02.96Z</time></trkpt><trkpt lat="43.8252533" lon="12.8074183"><ele>270.0</ele><time>2026-03-29T09:51:03.959Z</time></trkpt><trkpt lat="43.8252817" lon="12.807635"><ele>275.6666666666667</ele><time>2026-03-29T09:51:04.959Z</time></trkpt><trkpt lat="43.82532" lon="12.80785"><ele>281.33333333333337</ele><time>2026-03-29T09:51:05.959Z</time></trkpt><trkpt lat="43.82537" lon="12.8080433"><ele>287.0</ele><time>2026-03-29T09:51:06.959Z</time></trkpt><trkpt lat="43.82544" lon="12.80822"><ele>287.0</ele><time>2026-03-29T09:51:07.959Z</time></trkpt><trkpt lat="43.8255333" lon="12.8083717"><ele>287.0</ele><time>2026-03-29T09:51:08.96Z</time></trkpt><trkpt lat="43.82565" lon="12.8085"><ele>287.0</ele><time>2026-03-29T09:51:09.96Z</time></trkpt><trkpt lat="43.8257783" lon="12.8085967"><ele>287.0</ele><time>2026-03-29T09:51:10.96Z</time></trkpt><trkpt lat="43.825905" lon="12.8086683"><ele>289.6</ele><time>2026-03-29T09:51:11.96Z</time></trkpt><trkpt lat="43.826025" lon="12.8087217"><ele>292.2</ele><time>2026-03-29T09:51:12.96Z</time></trkpt><trkpt lat="43.826135" lon="12.8087667"><ele>294.8</ele><time>2026-03-29T09:51:13.959Z</time></trkpt><trkpt lat="43.826245" lon="12.808795"><ele>297.4</ele><time>2026-03-29T09:51:14.96Z</time></trkpt><trkpt lat="43.8263317" lon="12.8088"><ele>300.0</ele><time>2026-03-29T09:51:15.96Z</time></trkpt><trkpt lat="43.8263967" lon="12.8088167"><ele>300.0</ele><time>2026-03-29T09:51:16.96Z</time></trkpt><trkpt lat="43.82646" lon="12.8088433"><ele>300.0</ele><time>2026-03-29T09:51:18.96Z</time></trkpt><trkpt lat="43.8265267" lon="12.808785"><ele>300.0</ele><time>2026-03-29T09:52:06.959Z</time></trkpt><trkpt lat="43.826595" lon="12.80874"><ele>300.0</ele><time>2026-03-29T09:52:08.959Z</time></trkpt><trkpt lat="43.826695" lon="12.808705"><ele>300.0</ele><time>2026-03-29T09:52:10.96Z</time></trkpt><trkpt lat="43.8268017" lon="12.80873"><ele>300.0</ele><time>2026-03-29T09:52:12.96Z</time></trkpt><trkpt lat="43.8268583" lon="12.808775"><ele>294.2</ele><time>2026-03-29T09:52:13.96Z</time></trkpt><trkpt lat="43.8269467" lon="12.8089133"><ele>288.4</ele><time>2026-03-29T09:52:15.959Z</time></trkpt><trkpt lat="43.826985" lon="12.809"><ele>282.6</ele><time>2026-03-29T09:52:16.96Z</time></trkpt><trkpt lat="43.82701" lon="12.8091017"><ele>276.8</ele><time>2026-03-29T09:52:17.96Z</time></trkpt><trkpt lat="43.82704" lon="12.80921"><ele>271.0</ele><time>2026-03-29T09:52:18.96Z</time></trkpt><trkpt lat="43.8270683" lon="12.8093167"><ele>272.85714285714283</ele><time>2026-03-29T09:52:19.96Z</time></trkpt><trkpt lat="43.827095" lon="12.8094183"><ele>274.7142857142857</ele><time>2026-03-29T09:52:20.959Z</time></trkpt><trkpt lat="43.8271167" lon="12.8095067"><ele>276.57142857142856</ele><time>2026-03-29T09:52:21.96Z</time></trkpt><trkpt lat="43.827145" lon="12.8096017"><ele>278.42857142857144</ele><time>2026-03-29T09:52:22.959Z</time></trkpt><trkpt lat="43.827175" lon="12.80969"><ele>280.2857142857143</ele><time>2026-03-29T09:52:23.959Z</time></trkpt><trkpt lat="43.8272133" lon="12.8097733"><ele>282.1428571428571</ele><time>2026-03-29T09:52:24.96Z</time></trkpt><trkpt lat="43.82725" lon="12.8098633"><ele>284.0</ele><time>2026-03-29T09:52:25.96Z</time></trkpt><trkpt lat="43.8272917" lon="12.8099517"><ele>284.0</ele><time>2026-03-29T09:52:26.96Z</time></trkpt><trkpt lat="43.8273283" lon="12.8100533"><ele>284.0</ele><time>2026-03-29T09:52:27.96Z</time></trkpt><trkpt lat="43.8273733" lon="12.8101583"><ele>284.0</ele><time>2026-03-29T09:52:28.96Z</time></trkpt><trkpt lat="43.8274233" lon="12.8102717"><ele>284.0</ele><time>2026-03-29T09:52:29.959Z</time></trkpt><trkpt lat="43.8274717" lon="12.81039"><ele>284.0</ele><time>2026-03-29T09:52:30.96Z</time></trkpt><trkpt lat="43.8275117" lon="12.8105183"><ele>286.0</ele><time>2026-03-29T09:52:31.96Z</time></trkpt><trkpt lat="43.8275433" lon="12.810665"><ele>288.0</ele><time>2026-03-29T09:52:32.96Z</time></trkpt><trkpt lat="43.8275717" lon="12.8108133"><ele>290.0</ele><time>2026-03-29T09:52:33.96Z</time></trkpt><trkpt lat="43.8275983" lon="12.8109617"><ele>292.0</ele><time>2026-03-29T09:52:34.96Z</time></trkpt><trkpt lat="43.8276083" lon="12.8111167"><ele>294.0</ele><time>2026-03-29T09:52:35.959Z</time></trkpt><trkpt lat="43.82762" lon="12.8112483"><ele>295.59999999999997</ele><time>2026-03-29T09:52:36.96Z</time></trkpt><trkpt lat="43.827635" lon="12.8113833"><ele>297.2</ele><time>2026-03-29T09:52:37.96Z</time></trkpt><trkpt lat="43.8276583" lon="12.811525"><ele>298.79999999999995</ele><time>2026-03-29T09:52:38.96Z</time></trkpt><trkpt lat="43.8276833" lon="12.8116517"><ele>300.4</ele><time>2026-03-29T09:52:39.96Z</time></trkpt><trkpt lat="43.827725" lon="12.811775"><ele>302.0</ele><time>2026-03-29T09:52:40.96Z</time></trkpt><trkpt lat="43.8277733" lon="12.8118817"><ele>296.6</ele><time>2026-03-29T09:52:41.96Z</time></trkpt><trkpt lat="43.8278333" lon="12.811985"><ele>291.2</ele><time>2026-03-29T09:52:42.96Z</time></trkpt><trkpt lat="43.8278817" lon="12.8120983"><ele>285.8</ele><time>2026-03-29T09:52:43.959Z</time></trkpt><trkpt lat="43.8279217" lon="12.812235"><ele>280.4</ele><time>2026-03-29T09:52:44.96Z</time></trkpt><trkpt lat="43.82795" lon="12.8123717"><ele>275.0</ele><time>2026-03-29T09:52:45.959Z</time></trkpt><trkpt lat="43.8279733" lon="12.8125283"><ele>274.75</ele><time>2026-03-29T09:52:46.96Z</time></trkpt><trkpt lat="43.827995" lon="12.8126783"><ele>274.5</ele><time>2026-03-29T09:52:47.96Z</time></trkpt><trkpt lat="43.8280067" lon="12.812825"><ele>274.25</ele><time>2026-03-29T09:52:48.959Z</time></trkpt><trkpt lat="43.82801" lon="12.8129883"><ele>274.0</ele><time>2026-03-29T09:52:49.96Z</time></trkpt><trkpt lat="43.8280083" lon="12.81315"><ele>274.0</ele><time>2026-03-29T09:52:50.96Z</time></trkpt><trkpt lat="43.828015" lon="12.81332"><ele>274.0</ele><time>2026-03-29T09:52:51.959Z</time></trkpt><trkpt lat="43.8280033" lon="12.81349"><ele>274.0</ele><time>2026-03-29T09:52:52.96Z</time></trkpt><trkpt lat="43.8279867" lon="12.8136617"><ele>274.0</ele><time>2026-03-29T09:52:53.96Z</time></trkpt><trkpt lat="43.8279817" lon="12.8138333"><ele>273.75</ele><time>2026-03-29T09:52:54.96Z</time></trkpt><trkpt lat="43.8280017" lon="12.8140033"><ele>273.5</ele><time>2026-03-29T09:52:55.96Z</time></trkpt><trkpt lat="43.8280467" lon="12.814185"><ele>273.25</ele><time>2026-03-29T09:52:56.96Z</time></trkpt><trkpt lat="43.8281017" lon="12.8143933"><ele>273.0</ele><time>2026-03-29T09:52:57.96Z</time></trkpt><trkpt lat="43.828165" lon="12.8146233"><ele>275.3333333333333</ele><time>2026-03-29T09:52:58.96Z</time></trkpt><trkpt lat="43.8282267" lon="12.8148833"><ele>277.66666666666663</ele><time>2026-03-29T09:52:59.96Z</time></trkpt><trkpt lat="43.8282817" lon="12.8151467"><ele>280.0</ele><time>2026-03-29T09:53:00.96Z</time></trkpt><trkpt lat="43.82833" lon="12.8153767"><ele>280.2</ele><time>2026-03-29T09:53:01.959Z</time></trkpt><trkpt lat="43.828375" lon="12.8155683"><ele>280.4</ele><time>2026-03-29T09:53:02.96Z</time></trkpt><trkpt lat="43.8284067" lon="12.8157267"><ele>280.6</ele><time>2026-03-29T09:53:03.959Z</time></trkpt><trkpt lat="43.8284517" lon="12.81584"><ele>280.8</ele><time>2026-03-29T09:53:04.96Z</time></trkpt><trkpt lat="43.8284933" lon="12.8159367"><ele>281.0</ele><time>2026-03-29T09:53:05.96Z</time></trkpt><trkpt lat="43.8285617" lon="12.81607"><ele>281.0</ele><time>2026-03-29T09:53:07.96Z</time></trkpt><trkpt lat="43.8285967" lon="12.8162233"><ele>281.0</ele><time>2026-03-29T09:53:09.96Z</time></trkpt><trkpt lat="43.8285667" lon="12.8163733"><ele>281.0</ele><time>2026-03-29T09:53:11.96Z</time></trkpt><trkpt lat="43.828525" lon="12.8164567"><ele>281.0</ele><time>2026-03-29T09:53:12.96Z</time></trkpt><trkpt lat="43.8284667" lon="12.81654"><ele>281.0</ele><time>2026-03-29T09:53:13.96Z</time></trkpt><trkpt lat="43.828405" lon="12.8166283"><ele>281.0</ele><time>2026-03-29T09:53:14.959Z</time></trkpt><trkpt lat="43.82834" lon="12.81673"><ele>281.0</ele><time>2026-03-29T09:53:15.96Z</time></trkpt><trkpt lat="43.8282867" lon="12.8168333"><ele>281.0</ele><time>2026-03-29T09:53:16.96Z</time></trkpt><trkpt lat="43.8282467" lon="12.8169467"><ele>281.0</ele><time>2026-03-29T09:53:17.959Z</time></trkpt><trkpt lat="43.82822" lon="12.8170633"><ele>281.0</ele><time>2026-03-29T09:53:18.96Z</time></trkpt><trkpt lat="43.8281967" lon="12.8171833"><ele>279.5</ele><time>2026-03-29T09:53:19.96Z</time></trkpt><trkpt lat="43.8281883" lon="12.81731"><ele>278.0</ele><time>2026-03-29T09:53:20.96Z</time></trkpt><trkpt lat="43.8281867" lon="12.8174333"><ele>276.5</ele><time>2026-03-29T09:53:21.96Z</time></trkpt><trkpt lat="43.8281967" lon="12.81755"><ele>275.0</ele><time>2026-03-29T09:53:22.959Z</time></trkpt><trkpt lat="43.8282133" lon="12.81767"><ele>273.5</ele><time>2026-03-29T09:53:23.96Z</time></trkpt><trkpt lat="43.828245" lon="12.8177783"><ele>272.0</ele><time>2026-03-29T09:53:24.96Z</time></trkpt><trkpt lat="43.8282867" lon="12.8178733"><ele>270.2</ele><time>2026-03-29T09:53:25.959Z</time></trkpt><trkpt lat="43.8283367" lon="12.81796"><ele>268.4</ele><time>2026-03-29T09:53:26.96Z</time></trkpt><trkpt lat="43.8284067" lon="12.8180117"><ele>266.6</ele><time>2026-03-29T09:53:27.96Z</time></trkpt><trkpt lat="43.8285033" lon="12.8180033"><ele>264.8</ele><time>2026-03-29T09:53:28.959Z</time></trkpt><trkpt lat="43.8285917" lon="12.8179483"><ele>263.0</ele><time>2026-03-29T09:53:29.959Z</time></trkpt><trkpt lat="43.8286917" lon="12.817845"><ele>261.33333333333337</ele><time>2026-03-29T09:53:30.96Z</time></trkpt><trkpt lat="43.8287767" lon="12.81771"><ele>259.6666666666667</ele><time>2026-03-29T09:53:31.96Z</time></trkpt><trkpt lat="43.8288733" lon="12.8175517"><ele>258.0</ele><time>2026-03-29T09:53:32.96Z</time></trkpt><trkpt lat="43.829015" lon="12.8173683"><ele>258.0</ele><time>2026-03-29T09:53:33.96Z</time></trkpt><trkpt lat="43.8291483" lon="12.8172217"><ele>258.0</ele><time>2026-03-29T09:53:34.96Z</time></trkpt><trkpt lat="43.8292967" lon="12.817115"><ele>258.0</ele><time>2026-03-29T09:53:35.959Z</time></trkpt><trkpt lat="43.82944" lon="12.8170817"><ele>256.6666666666667</ele><time>2026-03-29T09:53:36.959Z</time></trkpt><trkpt lat="43.8296" lon="12.8170817"><ele>255.33333333333334</ele><time>2026-03-29T09:53:37.96Z</time></trkpt><trkpt lat="43.829755" lon="12.8171417"><ele>254.0</ele><time>2026-03-29T09:53:38.959Z</time></trkpt><trkpt lat="43.829905" lon="12.8171967"><ele>254.0</ele><time>2026-03-29T09:53:39.96Z</time></trkpt><trkpt lat="43.830055" lon="12.8172483"><ele>254.0</ele><time>2026-03-29T09:53:40.96Z</time></trkpt><trkpt lat="43.8302083" lon="12.8172517"><ele>254.0</ele><time>2026-03-29T09:53:41.959Z</time></trkpt><trkpt lat="43.830335" lon="12.8172933"><ele>254.0</ele><time>2026-03-29T09:53:42.959Z</time></trkpt><trkpt lat="43.8304583" lon="12.81735"><ele>253.66666666666669</ele><time>2026-03-29T09:53:43.959Z</time></trkpt><trkpt lat="43.83057" lon="12.817455"><ele>253.33333333333331</ele><time>2026-03-29T09:53:44.96Z</time></trkpt><trkpt lat="43.8306767" lon="12.8176117"><ele>253.0</ele><time>2026-03-29T09:53:45.96Z</time></trkpt><trkpt lat="43.83078" lon="12.8178033"><ele>252.66666666666666</ele><time>2026-03-29T09:53:46.96Z</time></trkpt><trkpt lat="43.830895" lon="12.8179917"><ele>252.33333333333331</ele><time>2026-03-29T09:53:47.96Z</time></trkpt><trkpt lat="43.8310033" lon="12.8182083"><ele>252.0</ele><time>2026-03-29T09:53:48.959Z</time></trkpt><trkpt lat="43.831155" lon="12.8183617"><ele>251.33333333333331</ele><time>2026-03-29T09:53:49.959Z</time></trkpt><trkpt lat="43.8312883" lon="12.8185567"><ele>250.66666666666666</ele><time>2026-03-29T09:53:50.96Z</time></trkpt><trkpt lat="43.83143" lon="12.8187633"><ele>250.0</ele><time>2026-03-29T09:53:51.959Z</time></trkpt><trkpt lat="43.8315817" lon="12.8189917"><ele>250.0</ele><time>2026-03-29T09:53:52.96Z</time></trkpt><trkpt lat="43.8317383" lon="12.8192083"><ele>250.0</ele><time>2026-03-29T09:53:53.96Z</time></trkpt><trkpt lat="43.8319" lon="12.8193983"><ele>250.0</ele><time>2026-03-29T09:53:54.96Z</time></trkpt><trkpt lat="43.8320567" lon="12.81955"><ele>250.66666666666666</ele><time>2026-03-29T09:53:55.959Z</time></trkpt><trkpt lat="43.8322033" lon="12.8196867"><ele>251.33333333333331</ele><time>2026-03-29T09:53:56.959Z</time></trkpt><trkpt lat="43.83233" lon="12.8198267"><ele>252.0</ele><time>2026-03-29T09:53:57.959Z</time></trkpt><trkpt lat="43.832435" lon="12.8199333"><ele>252.0</ele><time>2026-03-29T09:53:58.959Z</time></trkpt><trkpt lat="43.8325317" lon="12.8200283"><ele>252.0</ele><time>2026-03-29T09:53:59.96Z</time></trkpt><trkpt lat="43.8326017" lon="12.82014"><ele>252.0</ele><time>2026-03-29T09:54:00.96Z</time></trkpt><trkpt lat="43.8326367" lon="12.8202633"><ele>252.0</ele><time>2026-03-29T09:54:01.959Z</time></trkpt><trkpt lat="43.8326483" lon="12.820415"><ele>252.0</ele><time>2026-03-29T09:54:02.959Z</time></trkpt><trkpt lat="43.832655" lon="12.8205917"><ele>254.33333333333331</ele><time>2026-03-29T09:54:03.96Z</time></trkpt><trkpt lat="43.8326617" lon="12.8208"><ele>256.66666666666663</ele><time>2026-03-29T09:54:04.96Z</time></trkpt><trkpt lat="43.8326767" lon="12.8210117"><ele>259.0</ele><time>2026-03-29T09:54:05.96Z</time></trkpt><trkpt lat="43.8326883" lon="12.8212433"><ele>260.66666666666663</ele><time>2026-03-29T09:54:06.959Z</time></trkpt><trkpt lat="43.8327167" lon="12.8215083"><ele>262.3333333333333</ele><time>2026-03-29T09:54:07.96Z</time></trkpt><trkpt lat="43.8327717" lon="12.8217633"><ele>264.0</ele><time>2026-03-29T09:54:08.959Z</time></trkpt><trkpt lat="43.8328333" lon="12.82202"><ele>264.0</ele><time>2026-03-29T09:54:09.96Z</time></trkpt><trkpt lat="43.8328833" lon="12.8222783"><ele>264.0</ele><time>2026-03-29T09:54:10.96Z</time></trkpt><trkpt lat="43.8329117" lon="12.8225483"><ele>264.0</ele><time>2026-03-29T09:54:11.96Z</time></trkpt><trkpt lat="43.8329133" lon="12.8228367"><ele>264.0</ele><time>2026-03-29T09:54:12.959Z</time></trkpt><trkpt lat="43.8329017" lon="12.82314"><ele>264.0</ele><time>2026-03-29T09:54:13.96Z</time></trkpt><trkpt lat="43.8328833" lon="12.82342"><ele>264.0</ele><time>2026-03-29T09:54:14.959Z</time></trkpt><trkpt lat="43.8328783" lon="12.8236967"><ele>262.6666666666667</ele><time>2026-03-29T09:54:15.96Z</time></trkpt><trkpt lat="43.8328683" lon="12.823975"><ele>261.33333333333337</ele><time>2026-03-29T09:54:16.96Z</time></trkpt><trkpt lat="43.8328567" lon="12.824245"><ele>260.0</ele><time>2026-03-29T09:54:17.959Z</time></trkpt><trkpt lat="43.8328417" lon="12.8244983"><ele>257.6666666666667</ele><time>2026-03-29T09:54:18.96Z</time></trkpt><trkpt lat="43.8328167" lon="12.8247367"><ele>255.33333333333331</ele><time>2026-03-29T09:54:19.96Z</time></trkpt><trkpt lat="43.8327783" lon="12.8249667"><ele>253.0</ele><time>2026-03-29T09:54:20.96Z</time></trkpt><trkpt lat="43.8327233" lon="12.8251783"><ele>249.0</ele><time>2026-03-29T09:54:21.959Z</time></trkpt><trkpt lat="43.832685" lon="12.8253933"><ele>245.0</ele><time>2026-03-29T09:54:22.96Z</time></trkpt><trkpt lat="43.83267" lon="12.8255917"><ele>241.0</ele><time>2026-03-29T09:54:23.959Z</time></trkpt><trkpt lat="43.83268" lon="12.8258267"><ele>236.33333333333331</ele><time>2026-03-29T09:54:24.959Z</time></trkpt><trkpt lat="43.8326867" lon="12.82608"><ele>231.66666666666669</ele><time>2026-03-29T09:54:25.959Z</time></trkpt><trkpt lat="43.832705" lon="12.8263167"><ele>227.0</ele><time>2026-03-29T09:54:26.959Z</time></trkpt><trkpt lat="43.8327067" lon="12.82657"><ele>227.0</ele><time>2026-03-29T09:54:27.96Z</time></trkpt><trkpt lat="43.8326883" lon="12.8268033"><ele>227.0</ele><time>2026-03-29T09:54:28.96Z</time></trkpt><trkpt lat="43.8326517" lon="12.827045"><ele>227.0</ele><time>2026-03-29T09:54:29.96Z</time></trkpt><trkpt lat="43.83261" lon="12.8272867"><ele>226.0</ele><time>2026-03-29T09:54:30.959Z</time></trkpt><trkpt lat="43.8325567" lon="12.8275383"><ele>225.0</ele><time>2026-03-29T09:54:31.96Z</time></trkpt><trkpt lat="43.8324967" lon="12.8277567"><ele>224.0</ele><time>2026-03-29T09:54:32.96Z</time></trkpt><trkpt lat="43.8324433" lon="12.82797"><ele>224.0</ele><time>2026-03-29T09:54:33.96Z</time></trkpt><trkpt lat="43.8324017" lon="12.828185"><ele>224.0</ele><time>2026-03-29T09:54:34.959Z</time></trkpt><trkpt lat="43.8323833" lon="12.8284017"><ele>224.0</ele><time>2026-03-29T09:54:35.959Z</time></trkpt><trkpt lat="43.8323833" lon="12.82866"><ele>222.66666666666669</ele><time>2026-03-29T09:54:36.96Z</time></trkpt><trkpt lat="43.832415" lon="12.8289033"><ele>221.33333333333331</ele><time>2026-03-29T09:54:37.959Z</time></trkpt><trkpt lat="43.832415" lon="12.8291433"><ele>220.0</ele><time>2026-03-29T09:54:38.96Z</time></trkpt><trkpt lat="43.8323983" lon="12.829395"><ele>218.33333333333331</ele><time>2026-03-29T09:54:39.96Z</time></trkpt><trkpt lat="43.8323717" lon="12.8296267"><ele>216.66666666666669</ele><time>2026-03-29T09:54:40.96Z</time></trkpt><trkpt lat="43.8323367" lon="12.8298467"><ele>215.0</ele><time>2026-03-29T09:54:41.96Z</time></trkpt><trkpt lat="43.8323133" lon="12.830055"><ele>214.0</ele><time>2026-03-29T09:54:42.96Z</time></trkpt><trkpt lat="43.832335" lon="12.83025"><ele>213.0</ele><time>2026-03-29T09:54:43.959Z</time></trkpt><trkpt lat="43.832395" lon="12.83044"><ele>212.0</ele><time>2026-03-29T09:54:44.959Z</time></trkpt><trkpt lat="43.83249" lon="12.8306367"><ele>212.0</ele><time>2026-03-29T09:54:45.959Z</time></trkpt><trkpt lat="43.83261" lon="12.830845"><ele>212.0</ele><time>2026-03-29T09:54:46.959Z</time></trkpt><trkpt lat="43.8327267" lon="12.8310783"><ele>212.0</ele><time>2026-03-29T09:54:47.96Z</time></trkpt><trkpt lat="43.8328417" lon="12.83132"><ele>208.66666666666669</ele><time>2026-03-29T09:54:48.959Z</time></trkpt><trkpt lat="43.8329517" lon="12.83156"><ele>205.33333333333331</ele><time>2026-03-29T09:54:49.959Z</time></trkpt><trkpt lat="43.8330533" lon="12.831775"><ele>202.0</ele><time>2026-03-29T09:54:50.96Z</time></trkpt><trkpt lat="43.833155" lon="12.8319817"><ele>200.0</ele><time>2026-03-29T09:54:51.959Z</time></trkpt><trkpt lat="43.8332367" lon="12.8322"><ele>198.0</ele><time>2026-03-29T09:54:52.96Z</time></trkpt><trkpt lat="43.8333267" lon="12.8323967"><ele>196.0</ele><time>2026-03-29T09:54:53.96Z</time></trkpt><trkpt lat="43.8334117" lon="12.8325717"><ele>193.5</ele><time>2026-03-29T09:54:54.96Z</time></trkpt><trkpt lat="43.8334717" lon="12.8327583"><ele>191.0</ele><time>2026-03-29T09:54:55.959Z</time></trkpt><trkpt lat="43.8335117" lon="12.8329383"><ele>188.5</ele><time>2026-03-29T09:54:56.96Z</time></trkpt><trkpt lat="43.8335167" lon="12.8331183"><ele>186.0</ele><time>2026-03-29T09:54:57.96Z</time></trkpt><trkpt lat="43.8334883" lon="12.8333017"><ele>186.0</ele><time>2026-03-29T09:54:58.96Z</time></trkpt><trkpt lat="43.83343" lon="12.83347"><ele>186.0</ele><time>2026-03-29T09:54:59.96Z</time></trkpt><trkpt lat="43.8333767" lon="12.8336217"><ele>186.0</ele><time>2026-03-29T09:55:00.96Z</time></trkpt><trkpt lat="43.833345" lon="12.8337633"><ele>186.0</ele><time>2026-03-29T09:55:01.96Z</time></trkpt><trkpt lat="43.833345" lon="12.8338883"><ele>184.5</ele><time>2026-03-29T09:55:02.96Z</time></trkpt><trkpt lat="43.8333767" lon="12.833995"><ele>183.0</ele><time>2026-03-29T09:55:03.959Z</time></trkpt><trkpt lat="43.833425" lon="12.8340767"><ele>181.5</ele><time>2026-03-29T09:55:04.96Z</time></trkpt><trkpt lat="43.8334967" lon="12.8341067"><ele>180.0</ele><time>2026-03-29T09:55:05.959Z</time></trkpt><trkpt lat="43.8335767" lon="12.8341117"><ele>178.5</ele><time>2026-03-29T09:55:06.96Z</time></trkpt><trkpt lat="43.8336867" lon="12.8340833"><ele>177.0</ele><time>2026-03-29T09:55:07.959Z</time></trkpt><trkpt lat="43.8338167" lon="12.834035"><ele>176.5</ele><time>2026-03-29T09:55:08.96Z</time></trkpt><trkpt lat="43.83393" lon="12.834025"><ele>176.0</ele><time>2026-03-29T09:55:09.959Z</time></trkpt><trkpt lat="43.8340333" lon="12.8340767"><ele>175.5</ele><time>2026-03-29T09:55:10.959Z</time></trkpt><trkpt lat="43.83411" lon="12.834175"><ele>175.0</ele><time>2026-03-29T09:55:11.959Z</time></trkpt><trkpt lat="43.8341533" lon="12.8343333"><ele>173.33333333333334</ele><time>2026-03-29T09:55:12.959Z</time></trkpt><trkpt lat="43.834175" lon="12.83455"><ele>171.66666666666666</ele><time>2026-03-29T09:55:13.96Z</time></trkpt><trkpt lat="43.834175" lon="12.834795"><ele>170.0</ele><time>2026-03-29T09:55:14.96Z</time></trkpt><trkpt lat="43.834165" lon="12.835065"><ele>168.0</ele><time>2026-03-29T09:55:15.96Z</time></trkpt><trkpt lat="43.834155" lon="12.835325"><ele>166.0</ele><time>2026-03-29T09:55:16.959Z</time></trkpt><trkpt lat="43.8341267" lon="12.835595"><ele>164.0</ele><time>2026-03-29T09:55:17.96Z</time></trkpt><trkpt lat="43.83409" lon="12.8358617"><ele>162.33333333333331</ele><time>2026-03-29T09:55:18.96Z</time></trkpt><trkpt lat="43.834045" lon="12.8361217"><ele>160.66666666666666</ele><time>2026-03-29T09:55:19.96Z</time></trkpt><trkpt lat="43.8339983" lon="12.8363767"><ele>159.0</ele><time>2026-03-29T09:55:20.96Z</time></trkpt><trkpt lat="43.8339467" lon="12.8366283"><ele>155.33333333333334</ele><time>2026-03-29T09:55:21.96Z</time></trkpt><trkpt lat="43.8338867" lon="12.83688"><ele>151.66666666666669</ele><time>2026-03-29T09:55:22.959Z</time></trkpt><trkpt lat="43.8338217" lon="12.8371317"><ele>148.0</ele><time>2026-03-29T09:55:23.96Z</time></trkpt><trkpt lat="43.8337483" lon="12.837375"><ele>148.0</ele><time>2026-03-29T09:55:24.96Z</time></trkpt><trkpt lat="43.8336717" lon="12.837615"><ele>148.0</ele><time>2026-03-29T09:55:25.959Z</time></trkpt><trkpt lat="43.83359" lon="12.837855"><ele>148.0</ele><time>2026-03-29T09:55:26.96Z</time></trkpt><trkpt lat="43.8335033" lon="12.8381"><ele>146.0</ele><time>2026-03-29T09:55:27.959Z</time></trkpt><trkpt lat="43.8334167" lon="12.8383433"><ele>144.0</ele><time>2026-03-29T09:55:28.96Z</time></trkpt><trkpt lat="43.8333267" lon="12.8385817"><ele>142.0</ele><time>2026-03-29T09:55:29.959Z</time></trkpt><trkpt lat="43.8332383" lon="12.8388117"><ele>140.66666666666669</ele><time>2026-03-29T09:55:30.96Z</time></trkpt><trkpt lat="43.83315" lon="12.8390283"><ele>139.33333333333334</ele><time>2026-03-29T09:55:31.96Z</time></trkpt><trkpt lat="43.8330667" lon="12.8392383"><ele>138.0</ele><time>2026-03-29T09:55:32.959Z</time></trkpt><trkpt lat="43.8329867" lon="12.8394417"><ele>137.33333333333334</ele><time>2026-03-29T09:55:33.96Z</time></trkpt><trkpt lat="43.8329083" lon="12.8396383"><ele>136.66666666666669</ele><time>2026-03-29T09:55:34.96Z</time></trkpt><trkpt lat="43.8328367" lon="12.8398317"><ele>136.0</ele><time>2026-03-29T09:55:35.959Z</time></trkpt><trkpt lat="43.8327833" lon="12.8400383"><ele>133.66666666666669</ele><time>2026-03-29T09:55:36.96Z</time></trkpt><trkpt lat="43.8327567" lon="12.8402567"><ele>131.33333333333334</ele><time>2026-03-29T09:55:37.96Z</time></trkpt><trkpt lat="43.8327467" lon="12.8404883"><ele>129.0</ele><time>2026-03-29T09:55:38.96Z</time></trkpt><trkpt lat="43.8327483" lon="12.84073"><ele>127.0</ele><time>2026-03-29T09:55:39.959Z</time></trkpt><trkpt lat="43.8327617" lon="12.8409733"><ele>125.0</ele><time>2026-03-29T09:55:40.959Z</time></trkpt><trkpt lat="43.8327733" lon="12.8412183"><ele>123.0</ele><time>2026-03-29T09:55:41.959Z</time></trkpt><trkpt lat="43.8327933" lon="12.841455"><ele>123.0</ele><time>2026-03-29T09:55:42.959Z</time></trkpt><trkpt lat="43.8328133" lon="12.8416983"><ele>123.0</ele><time>2026-03-29T09:55:43.96Z</time></trkpt><trkpt lat="43.8328317" lon="12.841945"><ele>123.0</ele><time>2026-03-29T09:55:44.959Z</time></trkpt><trkpt lat="43.8328483" lon="12.8421917"><ele>121.33333333333334</ele><time>2026-03-29T09:55:45.96Z</time></trkpt><trkpt lat="43.832855" lon="12.8424417"><ele>119.66666666666667</ele><time>2026-03-29T09:55:46.959Z</time></trkpt><trkpt lat="43.8328633" lon="12.84269"><ele>118.0</ele><time>2026-03-29T09:55:47.959Z</time></trkpt><trkpt lat="43.8328583" lon="12.8429233"><ele>116.0</ele><time>2026-03-29T09:55:48.96Z</time></trkpt><trkpt lat="43.8328567" lon="12.84315"><ele>114.0</ele><time>2026-03-29T09:55:49.96Z</time></trkpt><trkpt lat="43.8328583" lon="12.8433583"><ele>112.0</ele><time>2026-03-29T09:55:50.96Z</time></trkpt><trkpt lat="43.832875" lon="12.84358"><ele>109.33333333333334</ele><time>2026-03-29T09:55:51.96Z</time></trkpt><trkpt lat="43.8329" lon="12.8438017"><ele>106.66666666666666</ele><time>2026-03-29T09:55:52.959Z</time></trkpt><trkpt lat="43.8329417" lon="12.8440183"><ele>104.0</ele><time>2026-03-29T09:55:53.96Z</time></trkpt><trkpt lat="43.8329883" lon="12.84425"><ele>102.0</ele><time>2026-03-29T09:55:54.959Z</time></trkpt><trkpt lat="43.83303" lon="12.8444783"><ele>100.0</ele><time>2026-03-29T09:55:55.96Z</time></trkpt><trkpt lat="43.8330617" lon="12.8446933"><ele>98.0</ele><time>2026-03-29T09:55:56.959Z</time></trkpt><trkpt lat="43.83309" lon="12.8449"><ele>98.0</ele><time>2026-03-29T09:55:57.96Z</time></trkpt><trkpt lat="43.833125" lon="12.8451183"><ele>98.0</ele><time>2026-03-29T09:55:58.96Z</time></trkpt><trkpt lat="43.8331567" lon="12.845315"><ele>98.0</ele><time>2026-03-29T09:55:59.96Z</time></trkpt><trkpt lat="43.8331867" lon="12.845515"><ele>96.0</ele><time>2026-03-29T09:56:00.959Z</time></trkpt><trkpt lat="43.8332167" lon="12.8456983"><ele>94.0</ele><time>2026-03-29T09:56:01.96Z</time></trkpt><trkpt lat="43.8332383" lon="12.8458667"><ele>92.0</ele><time>2026-03-29T09:56:02.96Z</time></trkpt><trkpt lat="43.8332517" lon="12.8460233"><ele>90.0</ele><time>2026-03-29T09:56:03.96Z</time></trkpt><trkpt lat="43.8332667" lon="12.8461983"><ele>87.66666666666667</ele><time>2026-03-29T09:56:04.959Z</time></trkpt><trkpt lat="43.8332883" lon="12.8463967"><ele>85.33333333333334</ele><time>2026-03-29T09:56:05.959Z</time></trkpt><trkpt lat="43.8333183" lon="12.8466367"><ele>83.0</ele><time>2026-03-29T09:56:06.959Z</time></trkpt><trkpt lat="43.833345" lon="12.8468933"><ele>81.66666666666667</ele><time>2026-03-29T09:56:07.959Z</time></trkpt><trkpt lat="43.8333717" lon="12.847155"><ele>80.33333333333333</ele><time>2026-03-29T09:56:08.96Z</time></trkpt><trkpt lat="43.8334017" lon="12.8474167"><ele>79.0</ele><time>2026-03-29T09:56:09.959Z</time></trkpt><trkpt lat="43.8334317" lon="12.8476933"><ele>78.66666666666666</ele><time>2026-03-29T09:56:10.96Z</time></trkpt><trkpt lat="43.83346" lon="12.84797"><ele>78.33333333333333</ele><time>2026-03-29T09:56:11.959Z</time></trkpt><trkpt lat="43.8334933" lon="12.8482533"><ele>78.0</ele><time>2026-03-29T09:56:12.96Z</time></trkpt><trkpt lat="43.833525" lon="12.84854"><ele>78.0</ele><time>2026-03-29T09:56:13.96Z</time></trkpt><trkpt lat="43.8335583" lon="12.84883"><ele>78.0</ele><time>2026-03-29T09:56:14.96Z</time></trkpt><trkpt lat="43.83359" lon="12.8491217"><ele>78.0</ele><time>2026-03-29T09:56:15.96Z</time></trkpt><trkpt lat="43.8336233" lon="12.8494117"><ele>78.33333333333333</ele><time>2026-03-29T09:56:16.959Z</time></trkpt><trkpt lat="43.83366" lon="12.8497017"><ele>78.66666666666666</ele><time>2026-03-29T09:56:17.959Z</time></trkpt><trkpt lat="43.8336967" lon="12.8499933"><ele>79.0</ele><time>2026-03-29T09:56:18.959Z</time></trkpt><trkpt lat="43.8337267" lon="12.8502917"><ele>78.33333333333333</ele><time>2026-03-29T09:56:19.96Z</time></trkpt><trkpt lat="43.8337533" lon="12.85059"><ele>77.66666666666667</ele><time>2026-03-29T09:56:20.96Z</time></trkpt><trkpt lat="43.8337817" lon="12.8508933"><ele>77.0</ele><time>2026-03-29T09:56:21.959Z</time></trkpt><trkpt lat="43.8338117" lon="12.8512"><ele>77.0</ele><time>2026-03-29T09:56:22.96Z</time></trkpt><trkpt lat="43.8338433" lon="12.8515067"><ele>77.0</ele><time>2026-03-29T09:56:23.959Z</time></trkpt><trkpt lat="43.8338783" lon="12.8518083"><ele>77.0</ele><time>2026-03-29T09:56:24.96Z</time></trkpt><trkpt lat="43.833915" lon="12.8520983"><ele>76.66666666666667</ele><time>2026-03-29T09:56:25.96Z</time></trkpt><trkpt lat="43.8339533" lon="12.8523783"><ele>76.33333333333333</ele><time>2026-03-29T09:56:26.959Z</time></trkpt><trkpt lat="43.8339867" lon="12.85265"><ele>76.0</ele><time>2026-03-29T09:56:27.959Z</time></trkpt><trkpt lat="43.8340167" lon="12.852915"><ele>75.66666666666666</ele><time>2026-03-29T09:56:28.96Z</time></trkpt><trkpt lat="43.8340333" lon="12.8531433"><ele>75.33333333333333</ele><time>2026-03-29T09:56:29.96Z</time></trkpt><trkpt lat="43.8340383" lon="12.853365"><ele>75.0</ele><time>2026-03-29T09:56:30.959Z</time></trkpt><trkpt lat="43.8340233" lon="12.8535933"><ele>74.33333333333333</ele><time>2026-03-29T09:56:31.96Z</time></trkpt><trkpt lat="43.834" lon="12.8538117"><ele>73.66666666666666</ele><time>2026-03-29T09:56:32.96Z</time></trkpt><trkpt lat="43.8339667" lon="12.8540117"><ele>73.0</ele><time>2026-03-29T09:56:33.96Z</time></trkpt><trkpt lat="43.8339483" lon="12.854215"><ele>73.25</ele><time>2026-03-29T09:56:34.96Z</time></trkpt><trkpt lat="43.8339633" lon="12.8544"><ele>73.5</ele><time>2026-03-29T09:56:35.96Z</time></trkpt><trkpt lat="43.83401" lon="12.854595"><ele>73.75</ele><time>2026-03-29T09:56:36.96Z</time></trkpt><trkpt lat="43.8340617" lon="12.8547983"><ele>74.0</ele><time>2026-03-29T09:56:37.959Z</time></trkpt><trkpt lat="43.8341017" lon="12.8550267"><ele>73.33333333333334</ele><time>2026-03-29T09:56:38.96Z</time></trkpt><trkpt lat="43.8341333" lon="12.85526"><ele>72.66666666666667</ele><time>2026-03-29T09:56:39.959Z</time></trkpt><trkpt lat="43.8341633" lon="12.8554783"><ele>72.0</ele><time>2026-03-29T09:56:40.959Z</time></trkpt><trkpt lat="43.8341917" lon="12.8556783"><ele>72.0</ele><time>2026-03-29T09:56:41.959Z</time></trkpt><trkpt lat="43.83423" lon="12.85587"><ele>72.0</ele><time>2026-03-29T09:56:42.959Z</time></trkpt><trkpt lat="43.834275" lon="12.8560683"><ele>72.0</ele><time>2026-03-29T09:56:43.96Z</time></trkpt><trkpt lat="43.8343333" lon="12.8562783"><ele>71.0</ele><time>2026-03-29T09:56:44.959Z</time></trkpt><trkpt lat="43.8343817" lon="12.8565017"><ele>70.0</ele><time>2026-03-29T09:56:45.959Z</time></trkpt><trkpt lat="43.8344183" lon="12.8567383"><ele>69.0</ele><time>2026-03-29T09:56:46.96Z</time></trkpt><trkpt lat="43.83444" lon="12.8569933"><ele>69.0</ele><time>2026-03-29T09:56:47.96Z</time></trkpt><trkpt lat="43.834445" lon="12.8572317"><ele>69.0</ele><time>2026-03-29T09:56:48.96Z</time></trkpt><trkpt lat="43.8344283" lon="12.8574517"><ele>69.0</ele><time>2026-03-29T09:56:49.959Z</time></trkpt><trkpt lat="43.8343983" lon="12.8576633"><ele>69.0</ele><time>2026-03-29T09:56:50.96Z</time></trkpt><trkpt lat="43.8343717" lon="12.8578583"><ele>69.0</ele><time>2026-03-29T09:56:51.96Z</time></trkpt><trkpt lat="43.8343383" lon="12.8580383"><ele>69.0</ele><time>2026-03-29T09:56:52.96Z</time></trkpt><trkpt lat="43.8343083" lon="12.8582017"><ele>69.0</ele><time>2026-03-29T09:56:53.959Z</time></trkpt><trkpt lat="43.834285" lon="12.8583483"><ele>68.66666666666667</ele><time>2026-03-29T09:56:54.96Z</time></trkpt><trkpt lat="43.8342717" lon="12.858465"><ele>68.33333333333333</ele><time>2026-03-29T09:56:55.96Z</time></trkpt><trkpt lat="43.8342583" lon="12.858555"><ele>68.0</ele><time>2026-03-29T09:56:56.96Z</time></trkpt><trkpt lat="43.8342433" lon="12.8586633"><ele>67.66666666666666</ele><time>2026-03-29T09:56:58.96Z</time></trkpt><trkpt lat="43.83422" lon="12.8587767"><ele>67.33333333333333</ele><time>2026-03-29T09:57:39.959Z</time></trkpt><trkpt lat="43.8342133" lon="12.858885"><ele>67.0</ele><time>2026-03-29T09:57:40.959Z</time></trkpt><trkpt lat="43.8342017" lon="12.8590567"><ele>67.0</ele><time>2026-03-29T09:57:41.959Z</time></trkpt><trkpt lat="43.8341833" lon="12.8592767"><ele>67.0</ele><time>2026-03-29T09:57:42.959Z</time></trkpt><trkpt lat="43.8341583" lon="12.8595517"><ele>67.0</ele><time>2026-03-29T09:57:43.959Z</time></trkpt><trkpt lat="43.8341233" lon="12.8598017"><ele>67.0</ele><time>2026-03-29T09:57:44.958Z</time></trkpt><trkpt lat="43.83409" lon="12.8600567"><ele>67.0</ele><time>2026-03-29T09:57:45.959Z</time></trkpt><trkpt lat="43.83406" lon="12.86031"><ele>67.0</ele><time>2026-03-29T09:57:46.959Z</time></trkpt><trkpt lat="43.8340383" lon="12.860545"><ele>67.0</ele><time>2026-03-29T09:57:47.958Z</time></trkpt><trkpt lat="43.8340233" lon="12.86079"><ele>67.0</ele><time>2026-03-29T09:57:48.958Z</time></trkpt><trkpt lat="43.8340167" lon="12.8610417"><ele>67.0</ele><time>2026-03-29T09:57:49.958Z</time></trkpt><trkpt lat="43.8340167" lon="12.8613083"><ele>67.0</ele><time>2026-03-29T09:57:50.958Z</time></trkpt><trkpt lat="43.83402" lon="12.8615767"><ele>67.0</ele><time>2026-03-29T09:57:51.958Z</time></trkpt><trkpt lat="43.83402" lon="12.861835"><ele>67.0</ele><time>2026-03-29T09:57:52.958Z</time></trkpt><trkpt lat="43.83402" lon="12.86208"><ele>67.0</ele><time>2026-03-29T09:57:53.959Z</time></trkpt><trkpt lat="43.8340167" lon="12.86232"><ele>67.0</ele><time>2026-03-29T09:57:54.958Z</time></trkpt><trkpt lat="43.8340167" lon="12.8625617"><ele>67.0</ele><time>2026-03-29T09:57:55.959Z</time></trkpt><trkpt lat="43.8340167" lon="12.8628017"><ele>67.0</ele><time>2026-03-29T09:57:56.959Z</time></trkpt><trkpt lat="43.834015" lon="12.8630383"><ele>67.0</ele><time>2026-03-29T09:57:57.959Z</time></trkpt><trkpt lat="43.8340067" lon="12.8632783"><ele>67.0</ele><time>2026-03-29T09:57:58.959Z</time></trkpt><trkpt lat="43.833995" lon="12.8635217"><ele>66.66666666666666</ele><time>2026-03-29T09:57:59.959Z</time></trkpt><trkpt lat="43.8339817" lon="12.8637683"><ele>66.33333333333333</ele><time>2026-03-29T09:58:00.959Z</time></trkpt><trkpt lat="43.8339667" lon="12.8640017"><ele>66.0</ele><time>2026-03-29T09:58:01.959Z</time></trkpt><trkpt lat="43.8339483" lon="12.864235"><ele>64.66666666666667</ele><time>2026-03-29T09:58:02.959Z</time></trkpt><trkpt lat="43.8339333" lon="12.8644583"><ele>63.333333333333336</ele><time>2026-03-29T09:58:03.959Z</time></trkpt><trkpt lat="43.833915" lon="12.86468"><ele>62.0</ele><time>2026-03-29T09:58:04.958Z</time></trkpt><trkpt lat="43.8338967" lon="12.8648833"><ele>62.0</ele><time>2026-03-29T09:58:05.958Z</time></trkpt><trkpt lat="43.8338783" lon="12.865075"><ele>62.0</ele><time>2026-03-29T09:58:06.959Z</time></trkpt><trkpt lat="43.8338617" lon="12.8652517"><ele>62.0</ele><time>2026-03-29T09:58:07.958Z</time></trkpt><trkpt lat="43.8338483" lon="12.8654083"><ele>62.0</ele><time>2026-03-29T09:58:08.958Z</time></trkpt><trkpt lat="43.8338317" lon="12.8655383"><ele>61.8</ele><time>2026-03-29T09:58:09.958Z</time></trkpt><trkpt lat="43.8337983" lon="12.8656533"><ele>61.6</ele><time>2026-03-29T09:58:10.959Z</time></trkpt><trkpt lat="43.8337467" lon="12.865755"><ele>61.39999999999999</ele><time>2026-03-29T09:58:11.958Z</time></trkpt><trkpt lat="43.83368" lon="12.8658433"><ele>61.199999999999996</ele><time>2026-03-29T09:58:12.959Z</time></trkpt><trkpt lat="43.8335967" lon="12.865885"><ele>61.0</ele><time>2026-03-29T09:58:13.959Z</time></trkpt><trkpt lat="43.8335067" lon="12.8658867"><ele>61.5</ele><time>2026-03-29T09:58:14.959Z</time></trkpt><trkpt lat="43.83341" lon="12.865825"><ele>62.0</ele><time>2026-03-29T09:58:15.959Z</time></trkpt><trkpt lat="43.83331" lon="12.8657233"><ele>62.5</ele><time>2026-03-29T09:58:16.959Z</time></trkpt><trkpt lat="43.833215" lon="12.8655917"><ele>63.0</ele><time>2026-03-29T09:58:17.958Z</time></trkpt><trkpt lat="43.8330983" lon="12.8654017"><ele>63.0</ele><time>2026-03-29T09:58:18.959Z</time></trkpt><trkpt lat="43.832985" lon="12.8651767"><ele>63.0</ele><time>2026-03-29T09:58:19.958Z</time></trkpt><trkpt lat="43.8328683" lon="12.8649767"><ele>63.0</ele><time>2026-03-29T09:58:20.959Z</time></trkpt><trkpt lat="43.8327217" lon="12.8647783"><ele>65.0</ele><time>2026-03-29T09:58:21.959Z</time></trkpt><trkpt lat="43.8325567" lon="12.8645533"><ele>67.0</ele><time>2026-03-29T09:58:22.958Z</time></trkpt><trkpt lat="43.8323833" lon="12.8643133"><ele>67.0</ele><time>2026-03-29T09:58:23.959Z</time></trkpt><trkpt lat="43.8322117" lon="12.8640717"><ele>67.0</ele><time>2026-03-29T09:58:24.958Z</time></trkpt><trkpt lat="43.8320317" lon="12.86382"><ele>67.0</ele><time>2026-03-29T09:58:25.958Z</time></trkpt><trkpt lat="43.8318267" lon="12.863555"><ele>67.0</ele><time>2026-03-29T09:58:26.959Z</time></trkpt><trkpt lat="43.8316183" lon="12.8632733"><ele>69.5</ele><time>2026-03-29T09:58:27.959Z</time></trkpt><trkpt lat="43.831405" lon="12.862995"><ele>72.0</ele><time>2026-03-29T09:58:28.958Z</time></trkpt><trkpt lat="43.8311833" lon="12.862715"><ele>72.0</ele><time>2026-03-29T09:58:29.958Z</time></trkpt><trkpt lat="43.83095" lon="12.8624317"><ele>72.0</ele><time>2026-03-29T09:58:30.958Z</time></trkpt><trkpt lat="43.830715" lon="12.8621517"><ele>72.0</ele><time>2026-03-29T09:58:31.959Z</time></trkpt><trkpt lat="43.8304983" lon="12.8618983"><ele>72.0</ele><time>2026-03-29T09:58:32.959Z</time></trkpt><trkpt lat="43.83029" lon="12.8616783"><ele>73.0</ele><time>2026-03-29T09:58:33.958Z</time></trkpt><trkpt lat="43.8300817" lon="12.8614783"><ele>74.0</ele><time>2026-03-29T09:58:34.958Z</time></trkpt><trkpt lat="43.8298683" lon="12.8612867"><ele>74.0</ele><time>2026-03-29T09:58:35.959Z</time></trkpt><trkpt lat="43.82965" lon="12.861105"><ele>74.0</ele><time>2026-03-29T09:58:36.958Z</time></trkpt><trkpt lat="43.8294267" lon="12.8609433"><ele>78.0</ele><time>2026-03-29T09:58:37.959Z</time></trkpt><trkpt lat="43.8291833" lon="12.860805"><ele>82.0</ele><time>2026-03-29T09:58:38.959Z</time></trkpt><trkpt lat="43.82895" lon="12.860665"><ele>82.0</ele><time>2026-03-29T09:58:39.959Z</time></trkpt><trkpt lat="43.8287417" lon="12.860535"><ele>82.0</ele><time>2026-03-29T09:58:40.959Z</time></trkpt><trkpt lat="43.8285467" lon="12.8604217"><ele>82.0</ele><time>2026-03-29T09:58:41.958Z</time></trkpt><trkpt lat="43.8283617" lon="12.8603067"><ele>84.33333333333333</ele><time>2026-03-29T09:58:42.959Z</time></trkpt><trkpt lat="43.8281833" lon="12.8601717"><ele>86.66666666666667</ele><time>2026-03-29T09:58:43.959Z</time></trkpt><trkpt lat="43.8280133" lon="12.8600667"><ele>89.0</ele><time>2026-03-29T09:58:44.959Z</time></trkpt><trkpt lat="43.827845" lon="12.859965"><ele>91.33333333333334</ele><time>2026-03-29T09:58:45.959Z</time></trkpt><trkpt lat="43.8276917" lon="12.8598467"><ele>93.66666666666667</ele><time>2026-03-29T09:58:46.959Z</time></trkpt><trkpt lat="43.8275483" lon="12.8597067"><ele>96.0</ele><time>2026-03-29T09:58:47.958Z</time></trkpt><trkpt lat="43.8274217" lon="12.8595383"><ele>97.66666666666666</ele><time>2026-03-29T09:58:48.959Z</time></trkpt><trkpt lat="43.8273117" lon="12.8593517"><ele>99.33333333333333</ele><time>2026-03-29T09:58:49.959Z</time></trkpt><trkpt lat="43.827215" lon="12.8591417"><ele>101.0</ele><time>2026-03-29T09:58:50.959Z</time></trkpt><trkpt lat="43.82715" lon="12.85892"><ele>102.33333333333333</ele><time>2026-03-29T09:58:51.959Z</time></trkpt><trkpt lat="43.8271133" lon="12.8586917"><ele>103.66666666666666</ele><time>2026-03-29T09:58:52.959Z</time></trkpt><trkpt lat="43.8270917" lon="12.8584667"><ele>105.0</ele><time>2026-03-29T09:58:53.959Z</time></trkpt><trkpt lat="43.8270867" lon="12.8582433"><ele>107.66666666666666</ele><time>2026-03-29T09:58:54.959Z</time></trkpt><trkpt lat="43.8270933" lon="12.8580167"><ele>110.33333333333333</ele><time>2026-03-29T09:58:55.958Z</time></trkpt><trkpt lat="43.8271033" lon="12.8577933"><ele>113.0</ele><time>2026-03-29T09:58:56.959Z</time></trkpt><trkpt lat="43.8271167" lon="12.8575717"><ele>113.66666666666666</ele><time>2026-03-29T09:58:57.959Z</time></trkpt><trkpt lat="43.8271217" lon="12.857355"><ele>114.33333333333334</ele><time>2026-03-29T09:58:58.959Z</time></trkpt><trkpt lat="43.8271033" lon="12.8571433"><ele>115.0</ele><time>2026-03-29T09:58:59.958Z</time></trkpt><trkpt lat="43.8270667" lon="12.8569467"><ele>115.33333333333334</ele><time>2026-03-29T09:59:00.958Z</time></trkpt><trkpt lat="43.8270117" lon="12.8567517"><ele>115.66666666666666</ele><time>2026-03-29T09:59:01.958Z</time></trkpt><trkpt lat="43.826935" lon="12.856565"><ele>116.0</ele><time>2026-03-29T09:59:02.959Z</time></trkpt><trkpt lat="43.826835" lon="12.8563917"><ele>119.66666666666666</ele><time>2026-03-29T09:59:03.959Z</time></trkpt><trkpt lat="43.8267067" lon="12.8562317"><ele>123.33333333333334</ele><time>2026-03-29T09:59:04.959Z</time></trkpt><trkpt lat="43.8265517" lon="12.856085"><ele>127.0</ele><time>2026-03-29T09:59:05.959Z</time></trkpt><trkpt lat="43.8263867" lon="12.8559533"><ele>128.33333333333334</ele><time>2026-03-29T09:59:06.958Z</time></trkpt><trkpt lat="43.82622" lon="12.8558083"><ele>129.66666666666666</ele><time>2026-03-29T09:59:07.959Z</time></trkpt><trkpt lat="43.8260517" lon="12.85563"><ele>131.0</ele><time>2026-03-29T09:59:08.958Z</time></trkpt><trkpt lat="43.8258917" lon="12.855415"><ele>131.0</ele><time>2026-03-29T09:59:09.958Z</time></trkpt><trkpt lat="43.82574" lon="12.8551583"><ele>131.0</ele><time>2026-03-29T09:59:10.959Z</time></trkpt><trkpt lat="43.8255883" lon="12.854895"><ele>133.0</ele><time>2026-03-29T09:59:11.958Z</time></trkpt><trkpt lat="43.8254417" lon="12.8546383"><ele>135.0</ele><time>2026-03-29T09:59:12.958Z</time></trkpt><trkpt lat="43.82529" lon="12.8543667"><ele>138.0</ele><time>2026-03-29T09:59:13.959Z</time></trkpt><trkpt lat="43.8251433" lon="12.8540917"><ele>141.0</ele><time>2026-03-29T09:59:14.958Z</time></trkpt><trkpt lat="43.8250033" lon="12.8538183"><ele>141.0</ele><time>2026-03-29T09:59:15.958Z</time></trkpt><trkpt lat="43.8248567" lon="12.8535717"><ele>141.0</ele><time>2026-03-29T09:59:16.959Z</time></trkpt><trkpt lat="43.82469" lon="12.8533467"><ele>142.5</ele><time>2026-03-29T09:59:17.959Z</time></trkpt><trkpt lat="43.8244933" lon="12.8531417"><ele>144.0</ele><time>2026-03-29T09:59:18.959Z</time></trkpt><trkpt lat="43.824285" lon="12.8529383"><ele>144.0</ele><time>2026-03-29T09:59:19.959Z</time></trkpt><trkpt lat="43.8240783" lon="12.85271"><ele>144.0</ele><time>2026-03-29T09:59:20.958Z</time></trkpt><trkpt lat="43.8238767" lon="12.8524533"><ele>147.0</ele><time>2026-03-29T09:59:21.959Z</time></trkpt><trkpt lat="43.82367" lon="12.852185"><ele>150.0</ele><time>2026-03-29T09:59:22.958Z</time></trkpt><trkpt lat="43.8234683" lon="12.8519083"><ele>155.5</ele><time>2026-03-29T09:59:23.958Z</time></trkpt><trkpt lat="43.8232717" lon="12.8516333"><ele>161.0</ele><time>2026-03-29T09:59:24.959Z</time></trkpt><trkpt lat="43.8230883" lon="12.8513883"><ele>161.0</ele><time>2026-03-29T09:59:25.958Z</time></trkpt><trkpt lat="43.8229317" lon="12.8511733"><ele>161.0</ele><time>2026-03-29T09:59:26.958Z</time></trkpt><trkpt lat="43.822795" lon="12.85098"><ele>161.0</ele><time>2026-03-29T09:59:27.959Z</time></trkpt><trkpt lat="43.8226817" lon="12.8508083"><ele>163.0</ele><time>2026-03-29T09:59:28.958Z</time></trkpt><trkpt lat="43.822575" lon="12.8506633"><ele>165.0</ele><time>2026-03-29T09:59:29.958Z</time></trkpt><trkpt lat="43.82245" lon="12.8505567"><ele>167.0</ele><time>2026-03-29T09:59:30.959Z</time></trkpt><trkpt lat="43.82229" lon="12.8505083"><ele>167.0</ele><time>2026-03-29T09:59:31.959Z</time></trkpt><trkpt lat="43.8221117" lon="12.8504933"><ele>167.0</ele><time>2026-03-29T09:59:32.959Z</time></trkpt><trkpt lat="43.8219417" lon="12.8504483"><ele>167.0</ele><time>2026-03-29T09:59:33.959Z</time></trkpt><trkpt lat="43.8217783" lon="12.8503567"><ele>168.0</ele><time>2026-03-29T09:59:34.958Z</time></trkpt><trkpt lat="43.8216283" lon="12.850205"><ele>169.0</ele><time>2026-03-29T09:59:35.958Z</time></trkpt><trkpt lat="43.8214833" lon="12.8500083"><ele>170.0</ele><time>2026-03-29T09:59:36.959Z</time></trkpt><trkpt lat="43.8213433" lon="12.8497683"><ele>169.0</ele><time>2026-03-29T09:59:37.958Z</time></trkpt><trkpt lat="43.8211967" lon="12.8495117"><ele>168.0</ele><time>2026-03-29T09:59:38.959Z</time></trkpt><trkpt lat="43.821055" lon="12.84925"><ele>170.66666666666666</ele><time>2026-03-29T09:59:39.959Z</time></trkpt><trkpt lat="43.8209233" lon="12.8490083"><ele>173.33333333333331</ele><time>2026-03-29T09:59:40.959Z</time></trkpt><trkpt lat="43.8207983" lon="12.8487867"><ele>176.0</ele><time>2026-03-29T09:59:41.958Z</time></trkpt><trkpt lat="43.8206717" lon="12.8485817"><ele>175.0</ele><time>2026-03-29T09:59:42.959Z</time></trkpt><trkpt lat="43.82053" lon="12.8484083"><ele>174.0</ele><time>2026-03-29T09:59:43.959Z</time></trkpt><trkpt lat="43.8203733" lon="12.84827"><ele>173.0</ele><time>2026-03-29T09:59:44.959Z</time></trkpt><trkpt lat="43.820195" lon="12.8481683"><ele>173.5</ele><time>2026-03-29T09:59:45.959Z</time></trkpt><trkpt lat="43.8199833" lon="12.8480917"><ele>174.0</ele><time>2026-03-29T09:59:46.959Z</time></trkpt><trkpt lat="43.8197433" lon="12.8480233"><ele>174.0</ele><time>2026-03-29T09:59:47.958Z</time></trkpt><trkpt lat="43.81948" lon="12.8479483"><ele>174.0</ele><time>2026-03-29T09:59:48.958Z</time></trkpt><trkpt lat="43.81919" lon="12.847875"><ele>170.5</ele><time>2026-03-29T09:59:49.958Z</time></trkpt><trkpt lat="43.8188983" lon="12.8477783"><ele>167.0</ele><time>2026-03-29T09:59:50.959Z</time></trkpt><trkpt lat="43.8186283" lon="12.8476767"><ele>169.5</ele><time>2026-03-29T09:59:51.958Z</time></trkpt><trkpt lat="43.8183867" lon="12.8475717"><ele>172.0</ele><time>2026-03-29T09:59:52.959Z</time></trkpt><trkpt lat="43.8181683" lon="12.8474783"><ele>172.0</ele><time>2026-03-29T09:59:53.959Z</time></trkpt><trkpt lat="43.8179717" lon="12.8474133"><ele>172.0</ele><time>2026-03-29T09:59:54.959Z</time></trkpt><trkpt lat="43.8177817" lon="12.8473833"><ele>172.0</ele><time>2026-03-29T09:59:55.959Z</time></trkpt><trkpt lat="43.8176033" lon="12.8474017"><ele>173.0</ele><time>2026-03-29T09:59:56.959Z</time></trkpt><trkpt lat="43.8174533" lon="12.8474533"><ele>174.0</ele><time>2026-03-29T09:59:57.958Z</time></trkpt><trkpt lat="43.8173217" lon="12.847545"><ele>175.0</ele><time>2026-03-29T09:59:58.959Z</time></trkpt><trkpt lat="43.8172167" lon="12.8476533"><ele>176.0</ele><time>2026-03-29T09:59:59.958Z</time></trkpt><trkpt lat="43.817125" lon="12.847775"><ele>178.0</ele><time>2026-03-29T10:00:00.959Z</time></trkpt><trkpt lat="43.8170317" lon="12.8479083"><ele>180.0</ele><time>2026-03-29T10:00:01.959Z</time></trkpt><trkpt lat="43.8169417" lon="12.848035"><ele>182.0</ele><time>2026-03-29T10:00:02.958Z</time></trkpt><trkpt lat="43.8168567" lon="12.8481533"><ele>184.0</ele><time>2026-03-29T10:00:03.959Z</time></trkpt><trkpt lat="43.8167833" lon="12.8482567"><ele>184.0</ele><time>2026-03-29T10:00:04.959Z</time></trkpt><trkpt lat="43.8167233" lon="12.848335"><ele>184.0</ele><time>2026-03-29T10:00:05.959Z</time></trkpt><trkpt lat="43.8166733" lon="12.848395"><ele>184.0</ele><time>2026-03-29T10:00:06.959Z</time></trkpt><trkpt lat="43.8166183" lon="12.8484583"><ele>184.0</ele><time>2026-03-29T10:00:08.959Z</time></trkpt></trkseg></trk></gpx>